<?xml version="1.0" encoding="UTF-8" standalone="no" ?>
<gpx xmlns="http://www.topografix.com/GPX/1/1" xmlns:xsi="http://www.w3.org/2001/XMLSchema-instance" xsi:schemaLocation="http://www.topografix.com/GPX/1/1 http://www.topografix.com/GPX/1/1/gpx.xsd" version="1.1" creator="VisuGPX - https://www.visugpx.com">
  <metadata>
    <name>Balade hivernale</name>
    <desc><![CDATA[Balade effectuée du 9 décembre 2022 au 7 janvier 2023.]]></desc>
  </metadata>
  <trk>
    <name><![CDATA[Pezens - Narbonne]]></name>
    <extensions>
      <line xmlns="http://www.topografix.com/GPX/gpx_style/0/2">
        <color>ff0000</color>
        <width>4</width>
      </line>
    </extensions>
    <trkseg>
      <trkpt lat="43.25528" lon="2.2751">
        <ele>160.088213</ele>
        <time>2023-01-05T10:51:27.919Z</time>
      </trkpt>
      <trkpt lat="43.25527" lon="2.27498">
        <ele>160.088213</ele>
        <time>2023-01-05T10:51:53.918Z</time>
      </trkpt>
      <trkpt lat="43.25529" lon="2.27485">
        <ele>160.088213</ele>
        <time>2023-01-05T10:51:59.912Z</time>
      </trkpt>
      <trkpt lat="43.2553" lon="2.27472">
        <ele>160.088213</ele>
        <time>2023-01-05T10:52:04.926Z</time>
      </trkpt>
      <trkpt lat="43.25531" lon="2.27458">
        <ele>160.088213</ele>
        <time>2023-01-05T10:52:09.937Z</time>
      </trkpt>
      <trkpt lat="43.25532" lon="2.27443">
        <ele>160.088213</ele>
        <time>2023-01-05T10:52:14.931Z</time>
      </trkpt>
      <trkpt lat="43.25533" lon="2.27428">
        <ele>160.088213</ele>
        <time>2023-01-05T10:52:19.916Z</time>
      </trkpt>
      <trkpt lat="43.25534" lon="2.27414">
        <ele>160.088213</ele>
        <time>2023-01-05T10:52:23.935Z</time>
      </trkpt>
      <trkpt lat="43.25535" lon="2.27401">
        <ele>160.088213</ele>
        <time>2023-01-05T10:52:27.937Z</time>
      </trkpt>
      <trkpt lat="43.25535" lon="2.27388">
        <ele>160.088213</ele>
        <time>2023-01-05T10:52:31.932Z</time>
      </trkpt>
      <trkpt lat="43.25535" lon="2.27373">
        <ele>160.242434</ele>
        <time>2023-01-05T10:52:35.928Z</time>
      </trkpt>
      <trkpt lat="43.25534" lon="2.27359">
        <ele>160.396826</ele>
        <time>2023-01-05T10:52:39.932Z</time>
      </trkpt>
      <trkpt lat="43.25532" lon="2.27344">
        <ele>160.562878</ele>
        <time>2023-01-05T10:52:45.912Z</time>
      </trkpt>
      <trkpt lat="43.25533" lon="2.27332">
        <ele>160.703001</ele>
        <time>2023-01-05T10:52:49.938Z</time>
      </trkpt>
      <trkpt lat="43.25533" lon="2.27318">
        <ele>160.849149</ele>
        <time>2023-01-05T10:52:53.938Z</time>
      </trkpt>
      <trkpt lat="43.25534" lon="2.27305">
        <ele>160.992553</ele>
        <time>2023-01-05T10:52:58.927Z</time>
      </trkpt>
      <trkpt lat="43.25534" lon="2.27293">
        <ele>161.131542</ele>
        <time>2023-01-05T10:53:02.911Z</time>
      </trkpt>
      <trkpt lat="43.25535" lon="2.27278">
        <ele>161.286079</ele>
        <time>2023-01-05T10:53:06.925Z</time>
      </trkpt>
      <trkpt lat="43.25536" lon="2.27266">
        <ele>161.428021</ele>
        <time>2023-01-05T10:53:10.910Z</time>
      </trkpt>
      <trkpt lat="43.25537" lon="2.2725">
        <ele>161.598417</ele>
        <time>2023-01-05T10:53:15.942Z</time>
      </trkpt>
      <trkpt lat="43.25538" lon="2.27235">
        <ele>161.75954</ele>
        <time>2023-01-05T10:53:20.924Z</time>
      </trkpt>
      <trkpt lat="43.2554" lon="2.2722">
        <ele>161.926495</ele>
        <time>2023-01-05T10:53:25.916Z</time>
      </trkpt>
      <trkpt lat="43.25542" lon="2.27206">
        <ele>162.090259</ele>
        <time>2023-01-05T10:53:30.927Z</time>
      </trkpt>
      <trkpt lat="43.25543" lon="2.27192">
        <ele>162.246504</ele>
        <time>2023-01-05T10:53:35.936Z</time>
      </trkpt>
      <trkpt lat="43.25545" lon="2.2718">
        <ele>162.381213</ele>
        <time>2023-01-05T10:53:39.918Z</time>
      </trkpt>
      <trkpt lat="43.25547" lon="2.27166">
        <ele>162.529329</ele>
        <time>2023-01-05T10:53:44.929Z</time>
      </trkpt>
      <trkpt lat="43.25549" lon="2.27153">
        <ele>162.680064</ele>
        <time>2023-01-05T10:53:49.914Z</time>
      </trkpt>
      <trkpt lat="43.25553" lon="2.2714">
        <ele>162.88732</ele>
        <time>2023-01-05T10:53:54.938Z</time>
      </trkpt>
      <trkpt lat="43.25556" lon="2.27124">
        <ele>163.274882</ele>
        <time>2023-01-05T10:53:58.926Z</time>
      </trkpt>
      <trkpt lat="43.25558" lon="2.27111">
        <ele>163.60373</ele>
        <time>2023-01-05T10:54:01.927Z</time>
      </trkpt>
      <trkpt lat="43.25561" lon="2.27096">
        <ele>163.977361</ele>
        <time>2023-01-05T10:54:05.931Z</time>
      </trkpt>
      <trkpt lat="43.25563" lon="2.27081">
        <ele>164.34696</ele>
        <time>2023-01-05T10:54:09.930Z</time>
      </trkpt>
      <trkpt lat="43.25565" lon="2.27068">
        <ele>164.656662</ele>
        <time>2023-01-05T10:54:13.931Z</time>
      </trkpt>
      <trkpt lat="43.25566" lon="2.27054">
        <ele>164.99597</ele>
        <time>2023-01-05T10:54:17.915Z</time>
      </trkpt>
      <trkpt lat="43.25568" lon="2.27039">
        <ele>165.366271</ele>
        <time>2023-01-05T10:54:22.926Z</time>
      </trkpt>
      <trkpt lat="43.2557" lon="2.27025">
        <ele>165.707896</ele>
        <time>2023-01-05T10:54:26.917Z</time>
      </trkpt>
      <trkpt lat="43.25571" lon="2.27012">
        <ele>166.040602</ele>
        <time>2023-01-05T10:54:30.926Z</time>
      </trkpt>
      <trkpt lat="43.25572" lon="2.26997">
        <ele>166.397258</ele>
        <time>2023-01-05T10:54:34.939Z</time>
      </trkpt>
      <trkpt lat="43.25573" lon="2.26984">
        <ele>166.714225</ele>
        <time>2023-01-05T10:54:38.939Z</time>
      </trkpt>
      <trkpt lat="43.25573" lon="2.26968">
        <ele>167.083366</ele>
        <time>2023-01-05T10:54:43.918Z</time>
      </trkpt>
      <trkpt lat="43.25573" lon="2.26955">
        <ele>167.413757</ele>
        <time>2023-01-05T10:54:47.934Z</time>
      </trkpt>
      <trkpt lat="43.25573" lon="2.26941">
        <ele>167.751462</ele>
        <time>2023-01-05T10:54:51.925Z</time>
      </trkpt>
      <trkpt lat="43.25572" lon="2.26928">
        <ele>168.059297</ele>
        <time>2023-01-05T10:54:56.919Z</time>
      </trkpt>
      <trkpt lat="43.25563" lon="2.26919">
        <ele>168.417617</ele>
        <time>2023-01-05T10:55:02.911Z</time>
      </trkpt>
      <trkpt lat="43.25553" lon="2.26915">
        <ele>168.745483</ele>
        <time>2023-01-05T10:55:07.913Z</time>
      </trkpt>
      <trkpt lat="43.25544" lon="2.26913">
        <ele>168.750591</ele>
        <time>2023-01-05T10:55:12.918Z</time>
      </trkpt>
      <trkpt lat="43.25533" lon="2.26908">
        <ele>168.756779</ele>
        <time>2023-01-05T10:55:18.911Z</time>
      </trkpt>
      <trkpt lat="43.25524" lon="2.26903">
        <ele>168.762218</ele>
        <time>2023-01-05T10:55:23.933Z</time>
      </trkpt>
      <trkpt lat="43.25514" lon="2.26898">
        <ele>168.768037</ele>
        <time>2023-01-05T10:55:29.927Z</time>
      </trkpt>
      <trkpt lat="43.25504" lon="2.26893">
        <ele>168.773923</ele>
        <time>2023-01-05T10:55:34.936Z</time>
      </trkpt>
      <trkpt lat="43.25495" lon="2.26886">
        <ele>168.779812</ele>
        <time>2023-01-05T10:55:39.937Z</time>
      </trkpt>
      <trkpt lat="43.25486" lon="2.2688">
        <ele>168.785444</ele>
        <time>2023-01-05T10:55:43.926Z</time>
      </trkpt>
      <trkpt lat="43.25477" lon="2.26872">
        <ele>168.791701</ele>
        <time>2023-01-05T10:55:47.911Z</time>
      </trkpt>
      <trkpt lat="43.25468" lon="2.26866">
        <ele>168.797028</ele>
        <time>2023-01-05T10:55:50.932Z</time>
      </trkpt>
      <trkpt lat="43.2546" lon="2.26861">
        <ele>168.802118</ele>
        <time>2023-01-05T10:55:53.924Z</time>
      </trkpt>
      <trkpt lat="43.25451" lon="2.26853">
        <ele>168.807965</ele>
        <time>2023-01-05T10:55:57.917Z</time>
      </trkpt>
      <trkpt lat="43.25452" lon="2.2684">
        <ele>168.813052</ele>
        <time>2023-01-05T10:56:02.913Z</time>
      </trkpt>
      <trkpt lat="43.25459" lon="2.26828">
        <ele>168.819101</ele>
        <time>2023-01-05T10:56:08.922Z</time>
      </trkpt>
      <trkpt lat="43.25465" lon="2.26816">
        <ele>168.825213</ele>
        <time>2023-01-05T10:56:13.916Z</time>
      </trkpt>
      <trkpt lat="43.25471" lon="2.26803">
        <ele>168.831532</ele>
        <time>2023-01-05T10:56:17.924Z</time>
      </trkpt>
      <trkpt lat="43.25476" lon="2.26792">
        <ele>168.836813</ele>
        <time>2023-01-05T10:56:21.941Z</time>
      </trkpt>
      <trkpt lat="43.2548" lon="2.26779">
        <ele>168.842489</ele>
        <time>2023-01-05T10:56:25.933Z</time>
      </trkpt>
      <trkpt lat="43.25485" lon="2.26767">
        <ele>168.784317</ele>
        <time>2023-01-05T10:56:29.915Z</time>
      </trkpt>
      <trkpt lat="43.2549" lon="2.26756">
        <ele>168.676937</ele>
        <time>2023-01-05T10:56:33.930Z</time>
      </trkpt>
      <trkpt lat="43.25493" lon="2.26742">
        <ele>168.552896</ele>
        <time>2023-01-05T10:56:38.916Z</time>
      </trkpt>
      <trkpt lat="43.25496" lon="2.26731">
        <ele>168.446589</ele>
        <time>2023-01-05T10:56:42.933Z</time>
      </trkpt>
      <trkpt lat="43.25499" lon="2.26719">
        <ele>168.336234</ele>
        <time>2023-01-05T10:56:46.926Z</time>
      </trkpt>
      <trkpt lat="43.25501" lon="2.26704">
        <ele>168.210137</ele>
        <time>2023-01-05T10:56:50.913Z</time>
      </trkpt>
      <trkpt lat="43.25504" lon="2.26689">
        <ele>168.077993</ele>
        <time>2023-01-05T10:56:54.929Z</time>
      </trkpt>
      <trkpt lat="43.25507" lon="2.26674">
        <ele>167.941064</ele>
        <time>2023-01-05T10:56:58.940Z</time>
      </trkpt>
      <trkpt lat="43.25509" lon="2.26658">
        <ele>167.803806</ele>
        <time>2023-01-05T10:57:02.932Z</time>
      </trkpt>
      <trkpt lat="43.2551" lon="2.26642">
        <ele>167.666245</ele>
        <time>2023-01-05T10:57:06.938Z</time>
      </trkpt>
      <trkpt lat="43.25511" lon="2.26626">
        <ele>167.526692</ele>
        <time>2023-01-05T10:57:10.940Z</time>
      </trkpt>
      <trkpt lat="43.25512" lon="2.26612">
        <ele>167.411701</ele>
        <time>2023-01-05T10:57:13.940Z</time>
      </trkpt>
      <trkpt lat="43.25515" lon="2.266">
        <ele>167.295332</ele>
        <time>2023-01-05T10:57:16.926Z</time>
      </trkpt>
      <trkpt lat="43.25516" lon="2.26587">
        <ele>167.183171</ele>
        <time>2023-01-05T10:57:20.938Z</time>
      </trkpt>
      <trkpt lat="43.25511" lon="2.26574">
        <ele>167.064333</ele>
        <time>2023-01-05T10:57:24.928Z</time>
      </trkpt>
      <trkpt lat="43.25503" lon="2.26567">
        <ele>166.94544</ele>
        <time>2023-01-05T10:57:27.917Z</time>
      </trkpt>
      <trkpt lat="43.25495" lon="2.26558">
        <ele>166.82402</ele>
        <time>2023-01-05T10:57:30.919Z</time>
      </trkpt>
      <trkpt lat="43.25487" lon="2.26553">
        <ele>166.688181</ele>
        <time>2023-01-05T10:57:33.928Z</time>
      </trkpt>
      <trkpt lat="43.25478" lon="2.26547">
        <ele>166.238947</ele>
        <time>2023-01-05T10:57:36.912Z</time>
      </trkpt>
      <trkpt lat="43.25469" lon="2.2654">
        <ele>165.759424</ele>
        <time>2023-01-05T10:57:39.937Z</time>
      </trkpt>
      <trkpt lat="43.2546" lon="2.26528">
        <ele>165.182612</ele>
        <time>2023-01-05T10:57:42.918Z</time>
      </trkpt>
      <trkpt lat="43.25452" lon="2.26518">
        <ele>164.690784</ele>
        <time>2023-01-05T10:57:45.927Z</time>
      </trkpt>
      <trkpt lat="43.25445" lon="2.26509">
        <ele>164.238545</ele>
        <time>2023-01-05T10:57:48.930Z</time>
      </trkpt>
      <trkpt lat="43.25438" lon="2.26499">
        <ele>163.801696</ele>
        <time>2023-01-05T10:57:53.913Z</time>
      </trkpt>
      <trkpt lat="43.25444" lon="2.26482">
        <ele>163.157449</ele>
        <time>2023-01-05T10:59:24.929Z</time>
      </trkpt>
      <trkpt lat="43.25451" lon="2.26471">
        <ele>162.674057</ele>
        <time>2023-01-05T10:59:28.917Z</time>
      </trkpt>
      <trkpt lat="43.2546" lon="2.26463">
        <ele>162.193344</ele>
        <time>2023-01-05T10:59:32.921Z</time>
      </trkpt>
      <trkpt lat="43.25451" lon="2.26468">
        <ele>161.764877</ele>
        <time>2023-01-05T10:59:43.927Z</time>
      </trkpt>
      <trkpt lat="43.25444" lon="2.26476">
        <ele>161.312124</ele>
        <time>2023-01-05T10:59:48.922Z</time>
      </trkpt>
      <trkpt lat="43.25437" lon="2.26467">
        <ele>160.859885</ele>
        <time>2023-01-05T10:59:53.920Z</time>
      </trkpt>
      <trkpt lat="43.25428" lon="2.26455">
        <ele>160.298786</ele>
        <time>2023-01-05T10:59:56.921Z</time>
      </trkpt>
      <trkpt lat="43.25419" lon="2.26443">
        <ele>159.730914</ele>
        <time>2023-01-05T10:59:59.923Z</time>
      </trkpt>
      <trkpt lat="43.2541" lon="2.26431">
        <ele>159.150391</ele>
        <time>2023-01-05T11:00:02.914Z</time>
      </trkpt>
      <trkpt lat="43.25401" lon="2.26421">
        <ele>158.604766</ele>
        <time>2023-01-05T11:00:05.914Z</time>
      </trkpt>
      <trkpt lat="43.25391" lon="2.26413">
        <ele>158.323108</ele>
        <time>2023-01-05T11:00:08.930Z</time>
      </trkpt>
      <trkpt lat="43.25381" lon="2.26408">
        <ele>158.160458</ele>
        <time>2023-01-05T11:00:11.924Z</time>
      </trkpt>
      <trkpt lat="43.25372" lon="2.26401">
        <ele>158.002981</ele>
        <time>2023-01-05T11:00:14.944Z</time>
      </trkpt>
      <trkpt lat="43.25363" lon="2.26393">
        <ele>157.852949</ele>
        <time>2023-01-05T11:00:17.918Z</time>
      </trkpt>
      <trkpt lat="43.25355" lon="2.26387">
        <ele>157.706793</ele>
        <time>2023-01-05T11:00:20.927Z</time>
      </trkpt>
      <trkpt lat="43.25345" lon="2.26379">
        <ele>157.534518</ele>
        <time>2023-01-05T11:00:24.924Z</time>
      </trkpt>
      <trkpt lat="43.25337" lon="2.26371">
        <ele>157.392095</ele>
        <time>2023-01-05T11:00:28.920Z</time>
      </trkpt>
      <trkpt lat="43.2533" lon="2.26362">
        <ele>157.244712</ele>
        <time>2023-01-05T11:00:32.937Z</time>
      </trkpt>
      <trkpt lat="43.25322" lon="2.26353">
        <ele>157.085835</ele>
        <time>2023-01-05T11:00:36.922Z</time>
      </trkpt>
      <trkpt lat="43.25308" lon="2.26344">
        <ele>156.856616</ele>
        <time>2023-01-05T11:01:12.922Z</time>
      </trkpt>
      <trkpt lat="43.253" lon="2.26334">
        <ele>156.691734</ele>
        <time>2023-01-05T11:01:16.914Z</time>
      </trkpt>
      <trkpt lat="43.25292" lon="2.26327">
        <ele>156.552995</ele>
        <time>2023-01-05T11:01:19.920Z</time>
      </trkpt>
      <trkpt lat="43.25285" lon="2.26318">
        <ele>156.406432</ele>
        <time>2023-01-05T11:01:22.925Z</time>
      </trkpt>
      <trkpt lat="43.25277" lon="2.26309">
        <ele>156.254227</ele>
        <time>2023-01-05T11:01:25.920Z</time>
      </trkpt>
      <trkpt lat="43.25268" lon="2.26299">
        <ele>156.084933</ele>
        <time>2023-01-05T11:01:28.920Z</time>
      </trkpt>
      <trkpt lat="43.2526" lon="2.26289">
        <ele>155.915885</ele>
        <time>2023-01-05T11:01:31.930Z</time>
      </trkpt>
      <trkpt lat="43.25251" lon="2.2628">
        <ele>155.75193</ele>
        <time>2023-01-05T11:01:34.924Z</time>
      </trkpt>
      <trkpt lat="43.25242" lon="2.26272">
        <ele>155.71841</ele>
        <time>2023-01-05T11:01:37.918Z</time>
      </trkpt>
      <trkpt lat="43.25233" lon="2.26265">
        <ele>155.697427</ele>
        <time>2023-01-05T11:01:40.926Z</time>
      </trkpt>
      <trkpt lat="43.25223" lon="2.26257">
        <ele>155.674989</ele>
        <time>2023-01-05T11:01:43.917Z</time>
      </trkpt>
      <trkpt lat="43.25213" lon="2.26251">
        <ele>155.652552</ele>
        <time>2023-01-05T11:01:46.932Z</time>
      </trkpt>
      <trkpt lat="43.25203" lon="2.26244">
        <ele>155.629637</ele>
        <time>2023-01-05T11:01:49.921Z</time>
      </trkpt>
      <trkpt lat="43.25192" lon="2.26239">
        <ele>155.606947</ele>
        <time>2023-01-05T11:01:52.917Z</time>
      </trkpt>
      <trkpt lat="43.25182" lon="2.26233">
        <ele>155.583666</ele>
        <time>2023-01-05T11:01:55.926Z</time>
      </trkpt>
      <trkpt lat="43.25171" lon="2.26228">
        <ele>155.561149</ele>
        <time>2023-01-05T11:01:58.924Z</time>
      </trkpt>
      <trkpt lat="43.2516" lon="2.26225">
        <ele>155.539338</ele>
        <time>2023-01-05T11:02:01.921Z</time>
      </trkpt>
      <trkpt lat="43.25149" lon="2.26222">
        <ele>155.516961</ele>
        <time>2023-01-05T11:02:04.919Z</time>
      </trkpt>
      <trkpt lat="43.25138" lon="2.2622">
        <ele>155.494279</ele>
        <time>2023-01-05T11:02:07.923Z</time>
      </trkpt>
      <trkpt lat="43.25127" lon="2.26219">
        <ele>155.471569</ele>
        <time>2023-01-05T11:02:10.928Z</time>
      </trkpt>
      <trkpt lat="43.25115" lon="2.2622">
        <ele>155.447676</ele>
        <time>2023-01-05T11:02:13.919Z</time>
      </trkpt>
      <trkpt lat="43.25103" lon="2.2622">
        <ele>155.42399</ele>
        <time>2023-01-05T11:02:16.932Z</time>
      </trkpt>
      <trkpt lat="43.25092" lon="2.26222">
        <ele>155.400618</ele>
        <time>2023-01-05T11:02:19.926Z</time>
      </trkpt>
      <trkpt lat="43.2508" lon="2.26223">
        <ele>155.378085</ele>
        <time>2023-01-05T11:02:22.919Z</time>
      </trkpt>
      <trkpt lat="43.25069" lon="2.26224">
        <ele>155.505003</ele>
        <time>2023-01-05T11:02:25.922Z</time>
      </trkpt>
      <trkpt lat="43.25056" lon="2.26226">
        <ele>155.648676</ele>
        <time>2023-01-05T11:02:28.923Z</time>
      </trkpt>
      <trkpt lat="43.25044" lon="2.26227">
        <ele>155.79822</ele>
        <time>2023-01-05T11:02:31.923Z</time>
      </trkpt>
      <trkpt lat="43.25031" lon="2.26228">
        <ele>155.950156</ele>
        <time>2023-01-05T11:02:34.931Z</time>
      </trkpt>
      <trkpt lat="43.25018" lon="2.2623">
        <ele>156.09977</ele>
        <time>2023-01-05T11:02:37.914Z</time>
      </trkpt>
      <trkpt lat="43.25006" lon="2.26231">
        <ele>156.243511</ele>
        <time>2023-01-05T11:02:40.923Z</time>
      </trkpt>
      <trkpt lat="43.24994" lon="2.26232">
        <ele>156.383577</ele>
        <time>2023-01-05T11:02:43.922Z</time>
      </trkpt>
      <trkpt lat="43.24981" lon="2.26234">
        <ele>156.528292</ele>
        <time>2023-01-05T11:02:46.924Z</time>
      </trkpt>
      <trkpt lat="43.24968" lon="2.26233">
        <ele>156.677374</ele>
        <time>2023-01-05T11:02:49.923Z</time>
      </trkpt>
      <trkpt lat="43.24956" lon="2.26235">
        <ele>156.822347</ele>
        <time>2023-01-05T11:02:52.923Z</time>
      </trkpt>
      <trkpt lat="43.24944" lon="2.26234">
        <ele>156.963698</ele>
        <time>2023-01-05T11:02:55.920Z</time>
      </trkpt>
      <trkpt lat="43.24931" lon="2.26233">
        <ele>157.108152</ele>
        <time>2023-01-05T11:02:58.923Z</time>
      </trkpt>
      <trkpt lat="43.24919" lon="2.26234">
        <ele>157.253819</ele>
        <time>2023-01-05T11:03:01.927Z</time>
      </trkpt>
      <trkpt lat="43.24907" lon="2.26234">
        <ele>157.395927</ele>
        <time>2023-01-05T11:03:04.917Z</time>
      </trkpt>
      <trkpt lat="43.24894" lon="2.26233">
        <ele>157.414925</ele>
        <time>2023-01-05T11:03:07.920Z</time>
      </trkpt>
      <trkpt lat="43.24882" lon="2.2623">
        <ele>157.294292</ele>
        <time>2023-01-05T11:03:10.933Z</time>
      </trkpt>
      <trkpt lat="43.2487" lon="2.26228">
        <ele>157.177638</ele>
        <time>2023-01-05T11:03:13.921Z</time>
      </trkpt>
      <trkpt lat="43.24857" lon="2.26226">
        <ele>157.058661</ele>
        <time>2023-01-05T11:03:16.931Z</time>
      </trkpt>
      <trkpt lat="43.24845" lon="2.26225">
        <ele>156.939999</ele>
        <time>2023-01-05T11:03:19.920Z</time>
      </trkpt>
      <trkpt lat="43.24832" lon="2.26224">
        <ele>156.820627</ele>
        <time>2023-01-05T11:03:22.922Z</time>
      </trkpt>
      <trkpt lat="43.2482" lon="2.26223">
        <ele>156.70605</ele>
        <time>2023-01-05T11:03:25.919Z</time>
      </trkpt>
      <trkpt lat="43.24808" lon="2.26224">
        <ele>156.591414</ele>
        <time>2023-01-05T11:03:28.918Z</time>
      </trkpt>
      <trkpt lat="43.24796" lon="2.26225">
        <ele>156.475907</ele>
        <time>2023-01-05T11:03:31.928Z</time>
      </trkpt>
      <trkpt lat="43.24784" lon="2.26226">
        <ele>156.361747</ele>
        <time>2023-01-05T11:03:34.930Z</time>
      </trkpt>
      <trkpt lat="43.24773" lon="2.26228">
        <ele>156.247513</ele>
        <time>2023-01-05T11:03:37.918Z</time>
      </trkpt>
      <trkpt lat="43.2476" lon="2.2623">
        <ele>156.130433</ele>
        <time>2023-01-05T11:03:40.913Z</time>
      </trkpt>
      <trkpt lat="43.24748" lon="2.26232">
        <ele>156.011986</ele>
        <time>2023-01-05T11:03:43.923Z</time>
      </trkpt>
      <trkpt lat="43.24736" lon="2.26234">
        <ele>155.893718</ele>
        <time>2023-01-05T11:03:46.932Z</time>
      </trkpt>
      <trkpt lat="43.24724" lon="2.26237">
        <ele>155.777689</ele>
        <time>2023-01-05T11:03:49.918Z</time>
      </trkpt>
      <trkpt lat="43.24712" lon="2.26239">
        <ele>155.939469</ele>
        <time>2023-01-05T11:03:52.926Z</time>
      </trkpt>
      <trkpt lat="43.247" lon="2.26242">
        <ele>156.168516</ele>
        <time>2023-01-05T11:03:55.928Z</time>
      </trkpt>
      <trkpt lat="43.24689" lon="2.26243">
        <ele>156.392712</ele>
        <time>2023-01-05T11:03:58.922Z</time>
      </trkpt>
      <trkpt lat="43.24677" lon="2.26246">
        <ele>156.616473</ele>
        <time>2023-01-05T11:04:01.920Z</time>
      </trkpt>
      <trkpt lat="43.24665" lon="2.26249">
        <ele>156.84827</ele>
        <time>2023-01-05T11:04:04.932Z</time>
      </trkpt>
      <trkpt lat="43.24653" lon="2.26251">
        <ele>157.078672</ele>
        <time>2023-01-05T11:04:07.921Z</time>
      </trkpt>
      <trkpt lat="43.24642" lon="2.26252">
        <ele>157.291254</ele>
        <time>2023-01-05T11:04:10.927Z</time>
      </trkpt>
      <trkpt lat="43.24632" lon="2.26255">
        <ele>157.494408</ele>
        <time>2023-01-05T11:04:13.920Z</time>
      </trkpt>
      <trkpt lat="43.24622" lon="2.26257">
        <ele>157.683827</ele>
        <time>2023-01-05T11:04:16.923Z</time>
      </trkpt>
      <trkpt lat="43.2461" lon="2.26259">
        <ele>157.914063</ele>
        <time>2023-01-05T11:04:20.924Z</time>
      </trkpt>
      <trkpt lat="43.246" lon="2.2626">
        <ele>158.107103</ele>
        <time>2023-01-05T11:04:23.922Z</time>
      </trkpt>
      <trkpt lat="43.24589" lon="2.26263">
        <ele>158.333214</ele>
        <time>2023-01-05T11:04:27.918Z</time>
      </trkpt>
      <trkpt lat="43.2458" lon="2.26265">
        <ele>158.506762</ele>
        <time>2023-01-05T11:04:30.950Z</time>
      </trkpt>
      <trkpt lat="43.2457" lon="2.26267">
        <ele>158.691468</ele>
        <time>2023-01-05T11:04:33.923Z</time>
      </trkpt>
      <trkpt lat="43.2456" lon="2.26269">
        <ele>158.882537</ele>
        <time>2023-01-05T11:04:36.919Z</time>
      </trkpt>
      <trkpt lat="43.24551" lon="2.26272">
        <ele>159.075272</ele>
        <time>2023-01-05T11:04:40.914Z</time>
      </trkpt>
      <trkpt lat="43.24541" lon="2.26275">
        <ele>159.255456</ele>
        <time>2023-01-05T11:04:45.921Z</time>
      </trkpt>
      <trkpt lat="43.24531" lon="2.26279">
        <ele>159.439241</ele>
        <time>2023-01-05T11:04:50.919Z</time>
      </trkpt>
      <trkpt lat="43.24522" lon="2.26279">
        <ele>159.60612</ele>
        <time>2023-01-05T11:04:55.922Z</time>
      </trkpt>
      <trkpt lat="43.24511" lon="2.26282">
        <ele>159.804324</ele>
        <time>2023-01-05T11:04:59.928Z</time>
      </trkpt>
      <trkpt lat="43.24502" lon="2.26284">
        <ele>159.980284</ele>
        <time>2023-01-05T11:05:03.926Z</time>
      </trkpt>
      <trkpt lat="43.24492" lon="2.26287">
        <ele>160.155156</ele>
        <time>2023-01-05T11:05:07.922Z</time>
      </trkpt>
      <trkpt lat="43.24481" lon="2.26288">
        <ele>160.349642</ele>
        <time>2023-01-05T11:05:11.935Z</time>
      </trkpt>
      <trkpt lat="43.2447" lon="2.26291">
        <ele>160.557935</ele>
        <time>2023-01-05T11:05:15.924Z</time>
      </trkpt>
      <trkpt lat="43.24461" lon="2.26291">
        <ele>160.723227</ele>
        <time>2023-01-05T11:05:18.919Z</time>
      </trkpt>
      <trkpt lat="43.24451" lon="2.2629">
        <ele>160.89998</ele>
        <time>2023-01-05T11:05:21.924Z</time>
      </trkpt>
      <trkpt lat="43.24442" lon="2.26288">
        <ele>161.059784</ele>
        <time>2023-01-05T11:05:24.920Z</time>
      </trkpt>
      <trkpt lat="43.2443" lon="2.26285">
        <ele>161.273796</ele>
        <time>2023-01-05T11:05:28.932Z</time>
      </trkpt>
      <trkpt lat="43.2442" lon="2.26281">
        <ele>161.46007</ele>
        <time>2023-01-05T11:05:32.921Z</time>
      </trkpt>
      <trkpt lat="43.24411" lon="2.26277">
        <ele>161.628916</ele>
        <time>2023-01-05T11:05:36.932Z</time>
      </trkpt>
      <trkpt lat="43.24402" lon="2.26273">
        <ele>161.806794</ele>
        <time>2023-01-05T11:05:40.913Z</time>
      </trkpt>
      <trkpt lat="43.24392" lon="2.2627">
        <ele>161.99225</ele>
        <time>2023-01-05T11:05:44.920Z</time>
      </trkpt>
      <trkpt lat="43.24382" lon="2.26266">
        <ele>162.182194</ele>
        <time>2023-01-05T11:05:48.919Z</time>
      </trkpt>
      <trkpt lat="43.24372" lon="2.26264">
        <ele>162.353738</ele>
        <time>2023-01-05T11:05:52.930Z</time>
      </trkpt>
      <trkpt lat="43.24362" lon="2.26267">
        <ele>162.301163</ele>
        <time>2023-01-05T11:05:56.920Z</time>
      </trkpt>
      <trkpt lat="43.24353" lon="2.26273">
        <ele>162.027879</ele>
        <time>2023-01-05T11:06:00.923Z</time>
      </trkpt>
      <trkpt lat="43.24345" lon="2.26282">
        <ele>161.747235</ele>
        <time>2023-01-05T11:06:04.926Z</time>
      </trkpt>
      <trkpt lat="43.24336" lon="2.2629">
        <ele>161.482997</ele>
        <time>2023-01-05T11:06:08.921Z</time>
      </trkpt>
      <trkpt lat="43.24329" lon="2.26298">
        <ele>161.222375</ele>
        <time>2023-01-05T11:06:12.921Z</time>
      </trkpt>
      <trkpt lat="43.24321" lon="2.26307">
        <ele>160.970321</ele>
        <time>2023-01-05T11:06:16.932Z</time>
      </trkpt>
      <trkpt lat="43.24314" lon="2.26315">
        <ele>160.71175</ele>
        <time>2023-01-05T11:06:21.919Z</time>
      </trkpt>
      <trkpt lat="43.24305" lon="2.26323">
        <ele>160.431149</ele>
        <time>2023-01-05T11:06:26.915Z</time>
      </trkpt>
      <trkpt lat="43.24296" lon="2.26333">
        <ele>160.14082</ele>
        <time>2023-01-05T11:06:31.921Z</time>
      </trkpt>
      <trkpt lat="43.24288" lon="2.26342">
        <ele>159.852319</ele>
        <time>2023-01-05T11:06:36.925Z</time>
      </trkpt>
      <trkpt lat="43.24281" lon="2.2635">
        <ele>159.609595</ele>
        <time>2023-01-05T11:06:40.919Z</time>
      </trkpt>
      <trkpt lat="43.24273" lon="2.2636">
        <ele>159.330028</ele>
        <time>2023-01-05T11:06:45.926Z</time>
      </trkpt>
      <trkpt lat="43.24264" lon="2.26368">
        <ele>159.053629</ele>
        <time>2023-01-05T11:06:50.935Z</time>
      </trkpt>
      <trkpt lat="43.24256" lon="2.26376">
        <ele>158.791578</ele>
        <time>2023-01-05T11:06:55.923Z</time>
      </trkpt>
      <trkpt lat="43.24248" lon="2.26385">
        <ele>158.515179</ele>
        <time>2023-01-05T11:07:01.928Z</time>
      </trkpt>
      <trkpt lat="43.24239" lon="2.26392">
        <ele>158.244205</ele>
        <time>2023-01-05T11:07:06.923Z</time>
      </trkpt>
      <trkpt lat="43.2423" lon="2.26399">
        <ele>157.976894</ele>
        <time>2023-01-05T11:07:11.927Z</time>
      </trkpt>
      <trkpt lat="43.24221" lon="2.26405">
        <ele>157.716256</ele>
        <time>2023-01-05T11:07:16.921Z</time>
      </trkpt>
      <trkpt lat="43.24211" lon="2.26409">
        <ele>158.364067</ele>
        <time>2023-01-05T11:07:21.917Z</time>
      </trkpt>
      <trkpt lat="43.24203" lon="2.26412">
        <ele>159.022674</ele>
        <time>2023-01-05T11:07:26.923Z</time>
      </trkpt>
      <trkpt lat="43.24193" lon="2.2642">
        <ele>159.812031</ele>
        <time>2023-01-05T11:07:32.922Z</time>
      </trkpt>
      <trkpt lat="43.24184" lon="2.26425">
        <ele>160.492827</ele>
        <time>2023-01-05T11:07:37.923Z</time>
      </trkpt>
      <trkpt lat="43.24173" lon="2.26425">
        <ele>161.307516</ele>
        <time>2023-01-05T11:07:41.923Z</time>
      </trkpt>
      <trkpt lat="43.24136" lon="2.26429">
        <ele>163.923814</ele>
        <time>2023-01-05T11:07:43.930Z</time>
      </trkpt>
      <trkpt lat="43.24126" lon="2.26428">
        <ele>164.689362</ele>
        <time>2023-01-05T11:07:47.919Z</time>
      </trkpt>
      <trkpt lat="43.24116" lon="2.26427">
        <ele>165.391412</ele>
        <time>2023-01-05T11:07:51.926Z</time>
      </trkpt>
      <trkpt lat="43.24106" lon="2.26427">
        <ele>166.085635</ele>
        <time>2023-01-05T11:07:55.926Z</time>
      </trkpt>
      <trkpt lat="43.24095" lon="2.26424">
        <ele>166.890979</ele>
        <time>2023-01-05T11:08:00.926Z</time>
      </trkpt>
      <trkpt lat="43.24086" lon="2.26423">
        <ele>167.572075</ele>
        <time>2023-01-05T11:08:04.934Z</time>
      </trkpt>
      <trkpt lat="43.24076" lon="2.26422">
        <ele>168.288375</ele>
        <time>2023-01-05T11:08:08.923Z</time>
      </trkpt>
      <trkpt lat="43.24065" lon="2.26419">
        <ele>169.033885</ele>
        <time>2023-01-05T11:08:12.933Z</time>
      </trkpt>
      <trkpt lat="43.24056" lon="2.26418">
        <ele>169.71123</ele>
        <time>2023-01-05T11:08:16.920Z</time>
      </trkpt>
      <trkpt lat="43.24047" lon="2.26417">
        <ele>170.36186</ele>
        <time>2023-01-05T11:08:20.927Z</time>
      </trkpt>
      <trkpt lat="43.24036" lon="2.26415">
        <ele>171.134922</ele>
        <time>2023-01-05T11:08:25.921Z</time>
      </trkpt>
      <trkpt lat="43.24025" lon="2.26414">
        <ele>171.910567</ele>
        <time>2023-01-05T11:08:30.927Z</time>
      </trkpt>
      <trkpt lat="43.24015" lon="2.26411">
        <ele>172.619433</ele>
        <time>2023-01-05T11:08:35.920Z</time>
      </trkpt>
      <trkpt lat="43.24004" lon="2.26408">
        <ele>173.381955</ele>
        <time>2023-01-05T11:08:41.921Z</time>
      </trkpt>
      <trkpt lat="43.23995" lon="2.26404">
        <ele>174.047917</ele>
        <time>2023-01-05T11:08:46.931Z</time>
      </trkpt>
      <trkpt lat="43.23986" lon="2.264">
        <ele>174.705517</ele>
        <time>2023-01-05T11:08:51.931Z</time>
      </trkpt>
      <trkpt lat="43.23976" lon="2.26396">
        <ele>175.448866</ele>
        <time>2023-01-05T11:08:57.924Z</time>
      </trkpt>
      <trkpt lat="43.23967" lon="2.26392">
        <ele>176.129652</ele>
        <time>2023-01-05T11:09:03.936Z</time>
      </trkpt>
      <trkpt lat="43.23956" lon="2.26388">
        <ele>176.877101</ele>
        <time>2023-01-05T11:09:09.921Z</time>
      </trkpt>
      <trkpt lat="43.23946" lon="2.26383">
        <ele>177.602305</ele>
        <time>2023-01-05T11:09:15.918Z</time>
      </trkpt>
      <trkpt lat="43.23937" lon="2.26379">
        <ele>178.266736</ele>
        <time>2023-01-05T11:09:20.923Z</time>
      </trkpt>
      <trkpt lat="43.23928" lon="2.26375">
        <ele>178.917875</ele>
        <time>2023-01-05T11:09:25.929Z</time>
      </trkpt>
      <trkpt lat="43.2392" lon="2.26371">
        <ele>179.572174</ele>
        <time>2023-01-05T11:09:30.918Z</time>
      </trkpt>
      <trkpt lat="43.2391" lon="2.26366">
        <ele>180.29982</ele>
        <time>2023-01-05T11:09:36.926Z</time>
      </trkpt>
      <trkpt lat="43.23901" lon="2.26361">
        <ele>180.941282</ele>
        <time>2023-01-05T11:09:41.924Z</time>
      </trkpt>
      <trkpt lat="43.23892" lon="2.26357">
        <ele>181.65822</ele>
        <time>2023-01-05T11:09:46.916Z</time>
      </trkpt>
      <trkpt lat="43.23882" lon="2.26353">
        <ele>182.3472</ele>
        <time>2023-01-05T11:09:51.926Z</time>
      </trkpt>
      <trkpt lat="43.23874" lon="2.26348">
        <ele>182.978937</ele>
        <time>2023-01-05T11:09:56.924Z</time>
      </trkpt>
      <trkpt lat="43.23865" lon="2.26343">
        <ele>182.907323</ele>
        <time>2023-01-05T11:10:01.922Z</time>
      </trkpt>
      <trkpt lat="43.23856" lon="2.26339">
        <ele>182.693661</ele>
        <time>2023-01-05T11:10:07.923Z</time>
      </trkpt>
      <trkpt lat="43.23846" lon="2.26334">
        <ele>182.440578</ele>
        <time>2023-01-05T11:10:13.933Z</time>
      </trkpt>
      <trkpt lat="43.23837" lon="2.26327">
        <ele>182.213084</ele>
        <time>2023-01-05T11:10:17.927Z</time>
      </trkpt>
      <trkpt lat="43.23827" lon="2.26321">
        <ele>181.957658</ele>
        <time>2023-01-05T11:10:20.923Z</time>
      </trkpt>
      <trkpt lat="43.23815" lon="2.26316">
        <ele>181.693969</ele>
        <time>2023-01-05T11:10:23.922Z</time>
      </trkpt>
      <trkpt lat="43.23803" lon="2.2631">
        <ele>181.408445</ele>
        <time>2023-01-05T11:10:26.922Z</time>
      </trkpt>
      <trkpt lat="43.23791" lon="2.26303">
        <ele>181.102525</ele>
        <time>2023-01-05T11:10:29.925Z</time>
      </trkpt>
      <trkpt lat="43.23782" lon="2.26297">
        <ele>180.881901</ele>
        <time>2023-01-05T11:10:31.940Z</time>
      </trkpt>
      <trkpt lat="43.23773" lon="2.26292">
        <ele>180.6688</ele>
        <time>2023-01-05T11:10:33.935Z</time>
      </trkpt>
      <trkpt lat="43.23764" lon="2.26287">
        <ele>180.434211</ele>
        <time>2023-01-05T11:10:35.938Z</time>
      </trkpt>
      <trkpt lat="43.23755" lon="2.26283">
        <ele>180.220548</ele>
        <time>2023-01-05T11:10:37.923Z</time>
      </trkpt>
      <trkpt lat="43.23744" lon="2.26278">
        <ele>179.975866</ele>
        <time>2023-01-05T11:10:39.923Z</time>
      </trkpt>
      <trkpt lat="43.23734" lon="2.26274">
        <ele>179.737156</ele>
        <time>2023-01-05T11:10:41.932Z</time>
      </trkpt>
      <trkpt lat="43.23725" lon="2.2627">
        <ele>179.517311</ele>
        <time>2023-01-05T11:10:43.922Z</time>
      </trkpt>
      <trkpt lat="43.23715" lon="2.26266">
        <ele>179.282203</ele>
        <time>2023-01-05T11:10:45.923Z</time>
      </trkpt>
      <trkpt lat="43.23706" lon="2.26263">
        <ele>179.08104</ele>
        <time>2023-01-05T11:10:47.937Z</time>
      </trkpt>
      <trkpt lat="43.23694" lon="2.26259">
        <ele>179.473259</ele>
        <time>2023-01-05T11:10:50.922Z</time>
      </trkpt>
      <trkpt lat="43.23683" lon="2.26255">
        <ele>179.988101</ele>
        <time>2023-01-05T11:10:53.910Z</time>
      </trkpt>
      <trkpt lat="43.23671" lon="2.26251">
        <ele>180.510615</ele>
        <time>2023-01-05T11:10:56.937Z</time>
      </trkpt>
      <trkpt lat="43.2366" lon="2.26246">
        <ele>181.03443</ele>
        <time>2023-01-05T11:10:59.920Z</time>
      </trkpt>
      <trkpt lat="43.23648" lon="2.26241">
        <ele>181.563725</ele>
        <time>2023-01-05T11:11:02.938Z</time>
      </trkpt>
      <trkpt lat="43.23638" lon="2.26237">
        <ele>182.018765</ele>
        <time>2023-01-05T11:11:05.941Z</time>
      </trkpt>
      <trkpt lat="43.23628" lon="2.26233">
        <ele>182.466185</ele>
        <time>2023-01-05T11:11:08.941Z</time>
      </trkpt>
      <trkpt lat="43.23617" lon="2.2623">
        <ele>182.968996</ele>
        <time>2023-01-05T11:11:12.922Z</time>
      </trkpt>
      <trkpt lat="43.23606" lon="2.26228">
        <ele>183.463274</ele>
        <time>2023-01-05T11:11:16.956Z</time>
      </trkpt>
      <trkpt lat="43.23595" lon="2.26226">
        <ele>183.934619</ele>
        <time>2023-01-05T11:11:20.940Z</time>
      </trkpt>
      <trkpt lat="43.23586" lon="2.26225">
        <ele>184.341916</ele>
        <time>2023-01-05T11:11:24.940Z</time>
      </trkpt>
      <trkpt lat="43.23576" lon="2.26224">
        <ele>184.745093</ele>
        <time>2023-01-05T11:11:29.009Z</time>
      </trkpt>
      <trkpt lat="43.23566" lon="2.26226">
        <ele>185.214371</ele>
        <time>2023-01-05T11:11:33.940Z</time>
      </trkpt>
      <trkpt lat="43.23555" lon="2.26228">
        <ele>185.673086</ele>
        <time>2023-01-05T11:11:38.943Z</time>
      </trkpt>
      <trkpt lat="43.23545" lon="2.26231">
        <ele>186.124536</ele>
        <time>2023-01-05T11:11:43.933Z</time>
      </trkpt>
      <trkpt lat="43.23536" lon="2.26236">
        <ele>186.556399</ele>
        <time>2023-01-05T11:11:48.937Z</time>
      </trkpt>
      <trkpt lat="43.23526" lon="2.2624">
        <ele>186.947452</ele>
        <time>2023-01-05T11:11:54.941Z</time>
      </trkpt>
      <trkpt lat="43.23517" lon="2.26245">
        <ele>187.145883</ele>
        <time>2023-01-05T11:11:59.944Z</time>
      </trkpt>
      <trkpt lat="43.23509" lon="2.26251">
        <ele>187.335069</ele>
        <time>2023-01-05T11:12:04.940Z</time>
      </trkpt>
      <trkpt lat="43.23501" lon="2.26258">
        <ele>187.53054</ele>
        <time>2023-01-05T11:12:09.997Z</time>
      </trkpt>
      <trkpt lat="43.23493" lon="2.26265">
        <ele>187.727572</ele>
        <time>2023-01-05T11:12:14.946Z</time>
      </trkpt>
      <trkpt lat="43.23485" lon="2.2627">
        <ele>187.917568</ele>
        <time>2023-01-05T11:12:19.939Z</time>
      </trkpt>
      <trkpt lat="43.23474" lon="2.26271">
        <ele>188.146436</ele>
        <time>2023-01-05T11:12:25.944Z</time>
      </trkpt>
      <trkpt lat="43.23466" lon="2.26265">
        <ele>188.333964</ele>
        <time>2023-01-05T11:12:29.929Z</time>
      </trkpt>
      <trkpt lat="43.23457" lon="2.26255">
        <ele>188.566158</ele>
        <time>2023-01-05T11:12:33.938Z</time>
      </trkpt>
      <trkpt lat="43.23456" lon="2.26242">
        <ele>188.762161</ele>
        <time>2023-01-05T11:12:37.929Z</time>
      </trkpt>
      <trkpt lat="43.23453" lon="2.2623">
        <ele>188.953482</ele>
        <time>2023-01-05T11:12:40.934Z</time>
      </trkpt>
      <trkpt lat="43.23452" lon="2.26217">
        <ele>189.156359</ele>
        <time>2023-01-05T11:12:43.936Z</time>
      </trkpt>
      <trkpt lat="43.23451" lon="2.26202">
        <ele>189.378756</ele>
        <time>2023-01-05T11:12:46.942Z</time>
      </trkpt>
      <trkpt lat="43.23452" lon="2.26187">
        <ele>189.602519</ele>
        <time>2023-01-05T11:12:49.939Z</time>
      </trkpt>
      <trkpt lat="43.23451" lon="2.26172">
        <ele>189.831043</ele>
        <time>2023-01-05T11:12:52.929Z</time>
      </trkpt>
      <trkpt lat="43.2345" lon="2.26157">
        <ele>190.061779</ele>
        <time>2023-01-05T11:12:55.943Z</time>
      </trkpt>
      <trkpt lat="43.23449" lon="2.26143">
        <ele>190.282406</ele>
        <time>2023-01-05T11:12:58.938Z</time>
      </trkpt>
      <trkpt lat="43.23446" lon="2.26128">
        <ele>190.510159</ele>
        <time>2023-01-05T11:13:01.923Z</time>
      </trkpt>
      <trkpt lat="43.23443" lon="2.26115">
        <ele>190.621863</ele>
        <time>2023-01-05T11:13:04.942Z</time>
      </trkpt>
      <trkpt lat="43.23438" lon="2.26102">
        <ele>190.629297</ele>
        <time>2023-01-05T11:13:07.942Z</time>
      </trkpt>
      <trkpt lat="43.23433" lon="2.26092">
        <ele>190.636205</ele>
        <time>2023-01-05T11:13:10.943Z</time>
      </trkpt>
      <trkpt lat="43.23427" lon="2.26082">
        <ele>190.643104</ele>
        <time>2023-01-05T11:13:13.940Z</time>
      </trkpt>
      <trkpt lat="43.2342" lon="2.26073">
        <ele>190.649842</ele>
        <time>2023-01-05T11:13:16.924Z</time>
      </trkpt>
      <trkpt lat="43.23412" lon="2.26065">
        <ele>190.656921</ele>
        <time>2023-01-05T11:13:19.943Z</time>
      </trkpt>
      <trkpt lat="43.23405" lon="2.26056">
        <ele>190.663851</ele>
        <time>2023-01-05T11:13:22.941Z</time>
      </trkpt>
      <trkpt lat="43.23398" lon="2.26048">
        <ele>190.670467</ele>
        <time>2023-01-05T11:13:25.943Z</time>
      </trkpt>
      <trkpt lat="43.2339" lon="2.2604">
        <ele>190.677504</ele>
        <time>2023-01-05T11:13:28.943Z</time>
      </trkpt>
      <trkpt lat="43.23383" lon="2.26032">
        <ele>190.684599</ele>
        <time>2023-01-05T11:13:31.941Z</time>
      </trkpt>
      <trkpt lat="43.23375" lon="2.26025">
        <ele>190.691185</ele>
        <time>2023-01-05T11:13:34.939Z</time>
      </trkpt>
      <trkpt lat="43.23368" lon="2.26017">
        <ele>190.698312</ele>
        <time>2023-01-05T11:13:37.941Z</time>
      </trkpt>
      <trkpt lat="43.23359" lon="2.26008">
        <ele>190.705768</ele>
        <time>2023-01-05T11:13:40.931Z</time>
      </trkpt>
      <trkpt lat="43.23351" lon="2.26003">
        <ele>190.712596</ele>
        <time>2023-01-05T11:13:43.932Z</time>
      </trkpt>
      <trkpt lat="43.23344" lon="2.25994">
        <ele>190.719641</ele>
        <time>2023-01-05T11:13:46.936Z</time>
      </trkpt>
      <trkpt lat="43.23336" lon="2.25984">
        <ele>190.727314</ele>
        <time>2023-01-05T11:13:49.938Z</time>
      </trkpt>
      <trkpt lat="43.23328" lon="2.25975">
        <ele>190.735237</ele>
        <time>2023-01-05T11:13:52.993Z</time>
      </trkpt>
      <trkpt lat="43.23319" lon="2.25965">
        <ele>190.743011</ele>
        <time>2023-01-05T11:13:55.946Z</time>
      </trkpt>
      <trkpt lat="43.23311" lon="2.25956">
        <ele>190.735732</ele>
        <time>2023-01-05T11:13:58.942Z</time>
      </trkpt>
      <trkpt lat="43.23302" lon="2.25948">
        <ele>190.662402</ele>
        <time>2023-01-05T11:14:01.945Z</time>
      </trkpt>
      <trkpt lat="43.23294" lon="2.25939">
        <ele>190.587897</ele>
        <time>2023-01-05T11:14:04.930Z</time>
      </trkpt>
      <trkpt lat="43.23285" lon="2.25931">
        <ele>190.518832</ele>
        <time>2023-01-05T11:14:07.942Z</time>
      </trkpt>
      <trkpt lat="43.23276" lon="2.25922">
        <ele>190.437757</ele>
        <time>2023-01-05T11:14:12.001Z</time>
      </trkpt>
      <trkpt lat="43.23269" lon="2.25913">
        <ele>190.371654</ele>
        <time>2023-01-05T11:14:14.942Z</time>
      </trkpt>
      <trkpt lat="43.2326" lon="2.25904">
        <ele>190.297646</ele>
        <time>2023-01-05T11:14:17.998Z</time>
      </trkpt>
      <trkpt lat="43.23251" lon="2.25896">
        <ele>190.222043</ele>
        <time>2023-01-05T11:14:20.934Z</time>
      </trkpt>
      <trkpt lat="43.23242" lon="2.25888">
        <ele>190.147295</ele>
        <time>2023-01-05T11:14:23.942Z</time>
      </trkpt>
      <trkpt lat="43.23233" lon="2.25879">
        <ele>190.072529</ele>
        <time>2023-01-05T11:14:26.943Z</time>
      </trkpt>
      <trkpt lat="43.23224" lon="2.2587">
        <ele>189.992376</ele>
        <time>2023-01-05T11:14:29.936Z</time>
      </trkpt>
      <trkpt lat="43.23214" lon="2.2586">
        <ele>189.909934</ele>
        <time>2023-01-05T11:14:32.942Z</time>
      </trkpt>
      <trkpt lat="43.23204" lon="2.25851">
        <ele>189.828637</ele>
        <time>2023-01-05T11:14:35.937Z</time>
      </trkpt>
      <trkpt lat="43.23195" lon="2.25843">
        <ele>189.755525</ele>
        <time>2023-01-05T11:14:38.937Z</time>
      </trkpt>
      <trkpt lat="43.23188" lon="2.25836">
        <ele>189.691551</ele>
        <time>2023-01-05T11:14:41.941Z</time>
      </trkpt>
      <trkpt lat="43.2318" lon="2.2583">
        <ele>189.627119</ele>
        <time>2023-01-05T11:14:44.943Z</time>
      </trkpt>
      <trkpt lat="43.23171" lon="2.25824">
        <ele>189.558787</ele>
        <time>2023-01-05T11:14:47.942Z</time>
      </trkpt>
      <trkpt lat="43.23162" lon="2.25818">
        <ele>189.505882</ele>
        <time>2023-01-05T11:14:50.944Z</time>
      </trkpt>
      <trkpt lat="43.23151" lon="2.25811">
        <ele>189.490544</ele>
        <time>2023-01-05T11:14:53.934Z</time>
      </trkpt>
      <trkpt lat="43.23139" lon="2.25805">
        <ele>189.474756</ele>
        <time>2023-01-05T11:14:56.942Z</time>
      </trkpt>
      <trkpt lat="43.23128" lon="2.25799">
        <ele>189.459218</ele>
        <time>2023-01-05T11:14:59.941Z</time>
      </trkpt>
      <trkpt lat="43.23116" lon="2.25793">
        <ele>189.443549</ele>
        <time>2023-01-05T11:15:02.995Z</time>
      </trkpt>
      <trkpt lat="43.23104" lon="2.25787">
        <ele>189.427502</ele>
        <time>2023-01-05T11:15:05.942Z</time>
      </trkpt>
      <trkpt lat="43.23092" lon="2.25781">
        <ele>189.410947</ele>
        <time>2023-01-05T11:15:08.993Z</time>
      </trkpt>
      <trkpt lat="43.2308" lon="2.25776">
        <ele>189.394651</ele>
        <time>2023-01-05T11:15:11.941Z</time>
      </trkpt>
      <trkpt lat="43.23068" lon="2.25772">
        <ele>189.379413</ele>
        <time>2023-01-05T11:15:15.001Z</time>
      </trkpt>
      <trkpt lat="43.23057" lon="2.25767">
        <ele>189.364262</ele>
        <time>2023-01-05T11:15:17.944Z</time>
      </trkpt>
      <trkpt lat="43.23045" lon="2.25763">
        <ele>189.34917</ele>
        <time>2023-01-05T11:15:20.991Z</time>
      </trkpt>
      <trkpt lat="43.23033" lon="2.25759">
        <ele>189.333654</ele>
        <time>2023-01-05T11:15:23.942Z</time>
      </trkpt>
      <trkpt lat="43.23022" lon="2.25755">
        <ele>189.319</ele>
        <time>2023-01-05T11:15:26.952Z</time>
      </trkpt>
      <trkpt lat="43.23011" lon="2.25751">
        <ele>189.304267</ele>
        <time>2023-01-05T11:15:29.939Z</time>
      </trkpt>
      <trkpt lat="43.22999" lon="2.25748">
        <ele>189.288956</ele>
        <time>2023-01-05T11:15:33.017Z</time>
      </trkpt>
      <trkpt lat="43.22987" lon="2.25743">
        <ele>189.334651</ele>
        <time>2023-01-05T11:15:35.923Z</time>
      </trkpt>
      <trkpt lat="43.22977" lon="2.2574">
        <ele>189.433813</ele>
        <time>2023-01-05T11:15:38.992Z</time>
      </trkpt>
      <trkpt lat="43.22967" lon="2.25736">
        <ele>189.526611</ele>
        <time>2023-01-05T11:15:41.931Z</time>
      </trkpt>
      <trkpt lat="43.22957" lon="2.25733">
        <ele>189.617281</ele>
        <time>2023-01-05T11:15:44.990Z</time>
      </trkpt>
      <trkpt lat="43.22948" lon="2.2573">
        <ele>189.702735</ele>
        <time>2023-01-05T11:15:47.939Z</time>
      </trkpt>
      <trkpt lat="43.22939" lon="2.25727">
        <ele>189.786543</ele>
        <time>2023-01-05T11:15:51.020Z</time>
      </trkpt>
      <trkpt lat="43.2293" lon="2.25724">
        <ele>189.87215</ele>
        <time>2023-01-05T11:15:53.944Z</time>
      </trkpt>
      <trkpt lat="43.22921" lon="2.25721">
        <ele>189.961789</ele>
        <time>2023-01-05T11:15:57.010Z</time>
      </trkpt>
      <trkpt lat="43.2291" lon="2.25717">
        <ele>190.065679</ele>
        <time>2023-01-05T11:16:00.945Z</time>
      </trkpt>
      <trkpt lat="43.229" lon="2.25713">
        <ele>190.158259</ele>
        <time>2023-01-05T11:16:04.937Z</time>
      </trkpt>
      <trkpt lat="43.2289" lon="2.25709">
        <ele>190.256061</ele>
        <time>2023-01-05T11:16:08.969Z</time>
      </trkpt>
      <trkpt lat="43.22879" lon="2.25705">
        <ele>190.357885</ele>
        <time>2023-01-05T11:16:12.932Z</time>
      </trkpt>
      <trkpt lat="43.22869" lon="2.25701">
        <ele>190.453943</ele>
        <time>2023-01-05T11:16:16.939Z</time>
      </trkpt>
      <trkpt lat="43.2286" lon="2.25697">
        <ele>190.540951</ele>
        <time>2023-01-05T11:16:20.945Z</time>
      </trkpt>
      <trkpt lat="43.22851" lon="2.25692">
        <ele>190.631638</ele>
        <time>2023-01-05T11:16:24.928Z</time>
      </trkpt>
      <trkpt lat="43.22841" lon="2.25687">
        <ele>190.726895</ele>
        <time>2023-01-05T11:16:29.941Z</time>
      </trkpt>
      <trkpt lat="43.22831" lon="2.2568">
        <ele>190.826457</ele>
        <time>2023-01-05T11:16:33.943Z</time>
      </trkpt>
      <trkpt lat="43.22821" lon="2.25674">
        <ele>190.940645</ele>
        <time>2023-01-05T11:16:37.941Z</time>
      </trkpt>
      <trkpt lat="43.2281" lon="2.2567">
        <ele>191.304403</ele>
        <time>2023-01-05T11:16:41.989Z</time>
      </trkpt>
      <trkpt lat="43.228" lon="2.25665">
        <ele>191.650147</ele>
        <time>2023-01-05T11:16:45.934Z</time>
      </trkpt>
      <trkpt lat="43.2279" lon="2.25658">
        <ele>192.000207</ele>
        <time>2023-01-05T11:16:49.941Z</time>
      </trkpt>
      <trkpt lat="43.22781" lon="2.25652">
        <ele>192.341504</ele>
        <time>2023-01-05T11:16:52.988Z</time>
      </trkpt>
      <trkpt lat="43.2277" lon="2.25646">
        <ele>192.703324</ele>
        <time>2023-01-05T11:16:55.938Z</time>
      </trkpt>
      <trkpt lat="43.22759" lon="2.25639">
        <ele>193.089802</ele>
        <time>2023-01-05T11:16:58.925Z</time>
      </trkpt>
      <trkpt lat="43.2275" lon="2.25634">
        <ele>193.42122</ele>
        <time>2023-01-05T11:17:01.940Z</time>
      </trkpt>
      <trkpt lat="43.22741" lon="2.25628">
        <ele>193.762443</ele>
        <time>2023-01-05T11:17:04.982Z</time>
      </trkpt>
      <trkpt lat="43.22732" lon="2.25623">
        <ele>194.067655</ele>
        <time>2023-01-05T11:17:07.942Z</time>
      </trkpt>
      <trkpt lat="43.2272" lon="2.25618">
        <ele>194.45549</ele>
        <time>2023-01-05T11:17:11.937Z</time>
      </trkpt>
      <trkpt lat="43.22711" lon="2.25613">
        <ele>194.763962</ele>
        <time>2023-01-05T11:17:14.940Z</time>
      </trkpt>
      <trkpt lat="43.227" lon="2.25608">
        <ele>195.141866</ele>
        <time>2023-01-05T11:17:18.940Z</time>
      </trkpt>
      <trkpt lat="43.2269" lon="2.25604">
        <ele>195.505625</ele>
        <time>2023-01-05T11:17:23.082Z</time>
      </trkpt>
      <trkpt lat="43.22681" lon="2.25599">
        <ele>195.81108</ele>
        <time>2023-01-05T11:17:25.939Z</time>
      </trkpt>
      <trkpt lat="43.2267" lon="2.25593">
        <ele>196.183218</ele>
        <time>2023-01-05T11:17:29.940Z</time>
      </trkpt>
      <trkpt lat="43.22659" lon="2.25588">
        <ele>196.545791</ele>
        <time>2023-01-05T11:17:33.937Z</time>
      </trkpt>
      <trkpt lat="43.2265" lon="2.25586">
        <ele>196.700602</ele>
        <time>2023-01-05T11:17:36.943Z</time>
      </trkpt>
      <trkpt lat="43.2264" lon="2.25583">
        <ele>196.573509</ele>
        <time>2023-01-05T11:17:39.940Z</time>
      </trkpt>
      <trkpt lat="43.2263" lon="2.25583">
        <ele>196.444398</ele>
        <time>2023-01-05T11:17:42.942Z</time>
      </trkpt>
      <trkpt lat="43.22621" lon="2.25586">
        <ele>196.323473</ele>
        <time>2023-01-05T11:17:45.939Z</time>
      </trkpt>
      <trkpt lat="43.22611" lon="2.2559">
        <ele>196.199437</ele>
        <time>2023-01-05T11:17:49.946Z</time>
      </trkpt>
      <trkpt lat="43.22602" lon="2.25588">
        <ele>196.081535</ele>
        <time>2023-01-05T11:17:54.938Z</time>
      </trkpt>
      <trkpt lat="43.22603" lon="2.25575">
        <ele>195.962506</ele>
        <time>2023-01-05T11:17:59.917Z</time>
      </trkpt>
      <trkpt lat="43.22607" lon="2.25562">
        <ele>195.830348</ele>
        <time>2023-01-05T11:18:03.985Z</time>
      </trkpt>
      <trkpt lat="43.22602" lon="2.25549">
        <ele>195.697211</ele>
        <time>2023-01-05T11:18:08.943Z</time>
      </trkpt>
      <trkpt lat="43.22593" lon="2.25544">
        <ele>195.578342</ele>
        <time>2023-01-05T11:18:12.937Z</time>
      </trkpt>
      <trkpt lat="43.22584" lon="2.2554">
        <ele>195.457099</ele>
        <time>2023-01-05T11:18:16.922Z</time>
      </trkpt>
      <trkpt lat="43.22574" lon="2.25536">
        <ele>195.329665</ele>
        <time>2023-01-05T11:18:21.941Z</time>
      </trkpt>
      <trkpt lat="43.22564" lon="2.25531">
        <ele>195.195817</ele>
        <time>2023-01-05T11:18:26.941Z</time>
      </trkpt>
      <trkpt lat="43.22553" lon="2.25526">
        <ele>195.049714</ele>
        <time>2023-01-05T11:18:30.913Z</time>
      </trkpt>
      <trkpt lat="43.22544" lon="2.25522">
        <ele>194.922453</ele>
        <time>2023-01-05T11:18:34.932Z</time>
      </trkpt>
      <trkpt lat="43.22533" lon="2.25517">
        <ele>194.782657</ele>
        <time>2023-01-05T11:18:39.941Z</time>
      </trkpt>
      <trkpt lat="43.22527" lon="2.25507">
        <ele>194.660238</ele>
        <time>2023-01-05T11:18:45.938Z</time>
      </trkpt>
      <trkpt lat="43.22528" lon="2.25491">
        <ele>194.51161</ele>
        <time>2023-01-05T11:18:49.937Z</time>
      </trkpt>
      <trkpt lat="43.22527" lon="2.25477">
        <ele>194.438061</ele>
        <time>2023-01-05T11:18:53.949Z</time>
      </trkpt>
      <trkpt lat="43.22529" lon="2.25463">
        <ele>194.390163</ele>
        <time>2023-01-05T11:18:57.944Z</time>
      </trkpt>
      <trkpt lat="43.22528" lon="2.25451">
        <ele>194.347464</ele>
        <time>2023-01-05T11:19:01.941Z</time>
      </trkpt>
      <trkpt lat="43.22526" lon="2.25437">
        <ele>194.300587</ele>
        <time>2023-01-05T11:19:06.943Z</time>
      </trkpt>
      <trkpt lat="43.2252" lon="2.25427">
        <ele>194.255641</ele>
        <time>2023-01-05T11:19:12.017Z</time>
      </trkpt>
      <trkpt lat="43.22511" lon="2.25423">
        <ele>194.210038</ele>
        <time>2023-01-05T11:19:15.941Z</time>
      </trkpt>
      <trkpt lat="43.225" lon="2.25421">
        <ele>194.158552</ele>
        <time>2023-01-05T11:19:19.944Z</time>
      </trkpt>
      <trkpt lat="43.2249" lon="2.25423">
        <ele>194.112847</ele>
        <time>2023-01-05T11:19:23.996Z</time>
      </trkpt>
      <trkpt lat="43.22499" lon="2.25417">
        <ele>194.065417</ele>
        <time>2023-01-05T11:21:07.942Z</time>
      </trkpt>
      <trkpt lat="43.22508" lon="2.25423">
        <ele>194.018247</ele>
        <time>2023-01-05T11:21:11.931Z</time>
      </trkpt>
      <trkpt lat="43.22516" lon="2.25432">
        <ele>193.97188</ele>
        <time>2023-01-05T11:21:15.931Z</time>
      </trkpt>
      <trkpt lat="43.22523" lon="2.25441">
        <ele>193.927117</ele>
        <time>2023-01-05T11:21:19.939Z</time>
      </trkpt>
      <trkpt lat="43.22527" lon="2.25452">
        <ele>193.884254</ele>
        <time>2023-01-05T11:21:23.943Z</time>
      </trkpt>
      <trkpt lat="43.22529" lon="2.25465">
        <ele>193.839929</ele>
        <time>2023-01-05T11:21:28.990Z</time>
      </trkpt>
      <trkpt lat="43.22527" lon="2.25478">
        <ele>193.798607</ele>
        <time>2023-01-05T11:21:33.940Z</time>
      </trkpt>
      <trkpt lat="43.22526" lon="2.25491">
        <ele>193.751305</ele>
        <time>2023-01-05T11:21:38.944Z</time>
      </trkpt>
      <trkpt lat="43.22526" lon="2.25504">
        <ele>193.707904</ele>
        <time>2023-01-05T11:21:43.942Z</time>
      </trkpt>
      <trkpt lat="43.22527" lon="2.25518">
        <ele>193.661816</ele>
        <time>2023-01-05T11:21:48.945Z</time>
      </trkpt>
      <trkpt lat="43.22534" lon="2.25528">
        <ele>193.758064</ele>
        <time>2023-01-05T11:21:56.945Z</time>
      </trkpt>
      <trkpt lat="43.22543" lon="2.25531">
        <ele>193.989933</ele>
        <time>2023-01-05T11:22:02.944Z</time>
      </trkpt>
      <trkpt lat="43.22552" lon="2.25534">
        <ele>194.214238</ele>
        <time>2023-01-05T11:22:07.942Z</time>
      </trkpt>
      <trkpt lat="43.22562" lon="2.25538">
        <ele>194.469418</ele>
        <time>2023-01-05T11:22:13.952Z</time>
      </trkpt>
      <trkpt lat="43.22572" lon="2.25541">
        <ele>194.698365</ele>
        <time>2023-01-05T11:22:18.949Z</time>
      </trkpt>
      <trkpt lat="43.22581" lon="2.25545">
        <ele>194.940749</ele>
        <time>2023-01-05T11:22:23.940Z</time>
      </trkpt>
      <trkpt lat="43.2259" lon="2.25547">
        <ele>195.161101</ele>
        <time>2023-01-05T11:22:28.945Z</time>
      </trkpt>
      <trkpt lat="43.226" lon="2.25551">
        <ele>195.409233</ele>
        <time>2023-01-05T11:22:33.926Z</time>
      </trkpt>
      <trkpt lat="43.22608" lon="2.25556">
        <ele>195.637634</ele>
        <time>2023-01-05T11:22:37.940Z</time>
      </trkpt>
      <trkpt lat="43.22621" lon="2.25558">
        <ele>195.944938</ele>
        <time>2023-01-05T11:22:39.939Z</time>
      </trkpt>
      <trkpt lat="43.22629" lon="2.25546">
        <ele>196.238699</ele>
        <time>2023-01-05T11:22:43.942Z</time>
      </trkpt>
      <trkpt lat="43.22636" lon="2.25536">
        <ele>196.479707</ele>
        <time>2023-01-05T11:22:46.936Z</time>
      </trkpt>
      <trkpt lat="43.22643" lon="2.25526">
        <ele>196.715291</ele>
        <time>2023-01-05T11:22:49.943Z</time>
      </trkpt>
      <trkpt lat="43.22651" lon="2.25514">
        <ele>197.002692</ele>
        <time>2023-01-05T11:22:52.939Z</time>
      </trkpt>
      <trkpt lat="43.2266" lon="2.25502">
        <ele>197.313869</ele>
        <time>2023-01-05T11:22:55.936Z</time>
      </trkpt>
      <trkpt lat="43.22668" lon="2.25495">
        <ele>197.534758</ele>
        <time>2023-01-05T11:22:57.937Z</time>
      </trkpt>
      <trkpt lat="43.22678" lon="2.25485">
        <ele>197.854387</ele>
        <time>2023-01-05T11:23:00.929Z</time>
      </trkpt>
      <trkpt lat="43.22689" lon="2.25477">
        <ele>197.60633</ele>
        <time>2023-01-05T11:23:03.942Z</time>
      </trkpt>
      <trkpt lat="43.22699" lon="2.2547">
        <ele>196.96067</ele>
        <time>2023-01-05T11:23:06.941Z</time>
      </trkpt>
      <trkpt lat="43.22708" lon="2.25463">
        <ele>196.30441</ele>
        <time>2023-01-05T11:23:09.942Z</time>
      </trkpt>
      <trkpt lat="43.22719" lon="2.25455">
        <ele>195.604162</ele>
        <time>2023-01-05T11:23:12.933Z</time>
      </trkpt>
      <trkpt lat="43.22729" lon="2.25449">
        <ele>194.954089</ele>
        <time>2023-01-05T11:23:15.939Z</time>
      </trkpt>
      <trkpt lat="43.22738" lon="2.25444">
        <ele>194.365503</ele>
        <time>2023-01-05T11:23:18.940Z</time>
      </trkpt>
      <trkpt lat="43.22748" lon="2.25439">
        <ele>193.716941</ele>
        <time>2023-01-05T11:23:21.942Z</time>
      </trkpt>
      <trkpt lat="43.22758" lon="2.25434">
        <ele>193.105136</ele>
        <time>2023-01-05T11:23:24.942Z</time>
      </trkpt>
      <trkpt lat="43.22767" lon="2.25429">
        <ele>192.483884</ele>
        <time>2023-01-05T11:23:28.937Z</time>
      </trkpt>
      <trkpt lat="43.22777" lon="2.25424">
        <ele>191.841989</ele>
        <time>2023-01-05T11:23:32.938Z</time>
      </trkpt>
      <trkpt lat="43.22788" lon="2.25417">
        <ele>191.114116</ele>
        <time>2023-01-05T11:23:36.959Z</time>
      </trkpt>
      <trkpt lat="43.228" lon="2.25411">
        <ele>190.380643</ele>
        <time>2023-01-05T11:23:39.939Z</time>
      </trkpt>
      <trkpt lat="43.22813" lon="2.25405">
        <ele>189.583456</ele>
        <time>2023-01-05T11:23:43.017Z</time>
      </trkpt>
      <trkpt lat="43.22824" lon="2.254">
        <ele>188.861315</ele>
        <time>2023-01-05T11:23:45.933Z</time>
      </trkpt>
      <trkpt lat="43.22835" lon="2.25394">
        <ele>188.158784</ele>
        <time>2023-01-05T11:23:48.923Z</time>
      </trkpt>
      <trkpt lat="43.22846" lon="2.2539">
        <ele>187.493087</ele>
        <time>2023-01-05T11:23:51.939Z</time>
      </trkpt>
      <trkpt lat="43.22855" lon="2.25387">
        <ele>186.990923</ele>
        <time>2023-01-05T11:23:54.942Z</time>
      </trkpt>
      <trkpt lat="43.22864" lon="2.25385">
        <ele>186.541648</ele>
        <time>2023-01-05T11:23:58.944Z</time>
      </trkpt>
      <trkpt lat="43.22875" lon="2.25382">
        <ele>186.006103</ele>
        <time>2023-01-05T11:24:03.942Z</time>
      </trkpt>
      <trkpt lat="43.22886" lon="2.25377">
        <ele>185.458965</ele>
        <time>2023-01-05T11:24:07.941Z</time>
      </trkpt>
      <trkpt lat="43.22895" lon="2.25375">
        <ele>184.99199</ele>
        <time>2023-01-05T11:24:10.938Z</time>
      </trkpt>
      <trkpt lat="43.22917" lon="2.25372">
        <ele>183.940802</ele>
        <time>2023-01-05T11:26:44.922Z</time>
      </trkpt>
      <trkpt lat="43.22926" lon="2.25374">
        <ele>183.500624</ele>
        <time>2023-01-05T11:26:47.926Z</time>
      </trkpt>
      <trkpt lat="43.22937" lon="2.25374">
        <ele>182.991998</ele>
        <time>2023-01-05T11:26:50.917Z</time>
      </trkpt>
      <trkpt lat="43.22948" lon="2.25375">
        <ele>182.438371</ele>
        <time>2023-01-05T11:26:53.918Z</time>
      </trkpt>
      <trkpt lat="43.2296" lon="2.25379">
        <ele>181.854457</ele>
        <time>2023-01-05T11:26:56.914Z</time>
      </trkpt>
      <trkpt lat="43.22973" lon="2.25382">
        <ele>181.233114</ele>
        <time>2023-01-05T11:26:59.941Z</time>
      </trkpt>
      <trkpt lat="43.22986" lon="2.25385">
        <ele>180.598163</ele>
        <time>2023-01-05T11:27:02.917Z</time>
      </trkpt>
      <trkpt lat="43.22995" lon="2.25387">
        <ele>180.160155</ele>
        <time>2023-01-05T11:27:04.913Z</time>
      </trkpt>
      <trkpt lat="43.23005" lon="2.25388">
        <ele>179.69732</ele>
        <time>2023-01-05T11:27:06.940Z</time>
      </trkpt>
      <trkpt lat="43.23014" lon="2.2539">
        <ele>179.234128</ele>
        <time>2023-01-05T11:27:08.917Z</time>
      </trkpt>
      <trkpt lat="43.23025" lon="2.25391">
        <ele>178.73845</ele>
        <time>2023-01-05T11:27:10.936Z</time>
      </trkpt>
      <trkpt lat="43.23035" lon="2.25391">
        <ele>178.379629</ele>
        <time>2023-01-05T11:27:12.927Z</time>
      </trkpt>
      <trkpt lat="43.23044" lon="2.25392">
        <ele>178.104765</ele>
        <time>2023-01-05T11:27:14.922Z</time>
      </trkpt>
      <trkpt lat="43.23054" lon="2.25392">
        <ele>177.80658</ele>
        <time>2023-01-05T11:27:16.932Z</time>
      </trkpt>
      <trkpt lat="43.23064" lon="2.25393">
        <ele>177.505445</ele>
        <time>2023-01-05T11:27:18.940Z</time>
      </trkpt>
      <trkpt lat="43.23074" lon="2.25393">
        <ele>177.218672</ele>
        <time>2023-01-05T11:27:20.947Z</time>
      </trkpt>
      <trkpt lat="43.23084" lon="2.25394">
        <ele>176.919674</ele>
        <time>2023-01-05T11:27:22.940Z</time>
      </trkpt>
      <trkpt lat="43.23094" lon="2.25395">
        <ele>176.621233</ele>
        <time>2023-01-05T11:27:24.926Z</time>
      </trkpt>
      <trkpt lat="43.23104" lon="2.25396">
        <ele>176.325177</ele>
        <time>2023-01-05T11:27:26.954Z</time>
      </trkpt>
      <trkpt lat="43.23114" lon="2.25397">
        <ele>176.040699</ele>
        <time>2023-01-05T11:27:28.938Z</time>
      </trkpt>
      <trkpt lat="43.23123" lon="2.25399">
        <ele>175.761667</ele>
        <time>2023-01-05T11:27:30.937Z</time>
      </trkpt>
      <trkpt lat="43.23133" lon="2.254">
        <ele>175.471949</ele>
        <time>2023-01-05T11:27:32.937Z</time>
      </trkpt>
      <trkpt lat="43.23143" lon="2.25401">
        <ele>175.172951</ele>
        <time>2023-01-05T11:27:34.941Z</time>
      </trkpt>
      <trkpt lat="43.23157" lon="2.25401">
        <ele>174.7745</ele>
        <time>2023-01-05T11:27:37.942Z</time>
      </trkpt>
      <trkpt lat="43.23166" lon="2.25401">
        <ele>174.50595</ele>
        <time>2023-01-05T11:27:39.932Z</time>
      </trkpt>
      <trkpt lat="43.23176" lon="2.25402">
        <ele>174.215945</ele>
        <time>2023-01-05T11:27:41.929Z</time>
      </trkpt>
      <trkpt lat="43.23185" lon="2.25401">
        <ele>173.934767</ele>
        <time>2023-01-05T11:27:43.940Z</time>
      </trkpt>
      <trkpt lat="43.23195" lon="2.254">
        <ele>173.638336</ele>
        <time>2023-01-05T11:27:45.914Z</time>
      </trkpt>
      <trkpt lat="43.23209" lon="2.25399">
        <ele>173.256908</ele>
        <time>2023-01-05T11:27:48.940Z</time>
      </trkpt>
      <trkpt lat="43.23218" lon="2.25399">
        <ele>173.07813</ele>
        <time>2023-01-05T11:27:50.932Z</time>
      </trkpt>
      <trkpt lat="43.23228" lon="2.25399">
        <ele>172.895485</ele>
        <time>2023-01-05T11:27:52.915Z</time>
      </trkpt>
      <trkpt lat="43.23237" lon="2.25398">
        <ele>172.716535</ele>
        <time>2023-01-05T11:27:54.936Z</time>
      </trkpt>
      <trkpt lat="43.23247" lon="2.25398">
        <ele>172.522559</ele>
        <time>2023-01-05T11:27:56.941Z</time>
      </trkpt>
      <trkpt lat="43.23256" lon="2.25398">
        <ele>172.349485</ele>
        <time>2023-01-05T11:27:58.944Z</time>
      </trkpt>
      <trkpt lat="43.23265" lon="2.25397">
        <ele>172.175498</ele>
        <time>2023-01-05T11:28:00.943Z</time>
      </trkpt>
      <trkpt lat="43.23275" lon="2.25394">
        <ele>171.999014</ele>
        <time>2023-01-05T11:28:02.943Z</time>
      </trkpt>
      <trkpt lat="43.23283" lon="2.2539">
        <ele>171.827204</ele>
        <time>2023-01-05T11:28:04.939Z</time>
      </trkpt>
      <trkpt lat="43.23291" lon="2.25385">
        <ele>171.653643</ele>
        <time>2023-01-05T11:28:06.924Z</time>
      </trkpt>
      <trkpt lat="43.233" lon="2.25378">
        <ele>171.470734</ele>
        <time>2023-01-05T11:28:08.917Z</time>
      </trkpt>
      <trkpt lat="43.23307" lon="2.2537">
        <ele>171.290376</ele>
        <time>2023-01-05T11:28:10.913Z</time>
      </trkpt>
      <trkpt lat="43.23317" lon="2.25359">
        <ele>171.043454</ele>
        <time>2023-01-05T11:28:13.916Z</time>
      </trkpt>
      <trkpt lat="43.23328" lon="2.25349">
        <ele>170.806691</ele>
        <time>2023-01-05T11:28:16.938Z</time>
      </trkpt>
      <trkpt lat="43.23339" lon="2.25341">
        <ele>170.560978</ele>
        <time>2023-01-05T11:28:19.922Z</time>
      </trkpt>
      <trkpt lat="43.2335" lon="2.25333">
        <ele>170.318123</ele>
        <time>2023-01-05T11:28:22.932Z</time>
      </trkpt>
      <trkpt lat="43.23362" lon="2.25326">
        <ele>170.074852</ele>
        <time>2023-01-05T11:28:25.940Z</time>
      </trkpt>
      <trkpt lat="43.23374" lon="2.2532">
        <ele>169.866161</ele>
        <time>2023-01-05T11:28:28.944Z</time>
      </trkpt>
      <trkpt lat="43.23386" lon="2.25316">
        <ele>169.851295</ele>
        <time>2023-01-05T11:28:31.927Z</time>
      </trkpt>
      <trkpt lat="43.23399" lon="2.25314">
        <ele>169.836431</ele>
        <time>2023-01-05T11:28:34.939Z</time>
      </trkpt>
      <trkpt lat="43.23412" lon="2.25314">
        <ele>169.821431</ele>
        <time>2023-01-05T11:28:37.916Z</time>
      </trkpt>
      <trkpt lat="43.23425" lon="2.25315">
        <ele>169.806241</ele>
        <time>2023-01-05T11:28:40.929Z</time>
      </trkpt>
      <trkpt lat="43.23438" lon="2.25318">
        <ele>169.791399</ele>
        <time>2023-01-05T11:28:43.934Z</time>
      </trkpt>
      <trkpt lat="43.23449" lon="2.25322">
        <ele>169.777243</ele>
        <time>2023-01-05T11:28:46.940Z</time>
      </trkpt>
      <trkpt lat="43.23461" lon="2.25325">
        <ele>169.763298</ele>
        <time>2023-01-05T11:28:49.921Z</time>
      </trkpt>
      <trkpt lat="43.23473" lon="2.25326">
        <ele>169.750022</ele>
        <time>2023-01-05T11:28:52.915Z</time>
      </trkpt>
      <trkpt lat="43.23484" lon="2.25323">
        <ele>169.737196</ele>
        <time>2023-01-05T11:28:55.916Z</time>
      </trkpt>
      <trkpt lat="43.23493" lon="2.25322">
        <ele>169.726005</ele>
        <time>2023-01-05T11:28:58.932Z</time>
      </trkpt>
      <trkpt lat="43.23502" lon="2.25319">
        <ele>169.715601</ele>
        <time>2023-01-05T11:29:01.933Z</time>
      </trkpt>
      <trkpt lat="43.23513" lon="2.25315">
        <ele>169.702561</ele>
        <time>2023-01-05T11:29:05.940Z</time>
      </trkpt>
      <trkpt lat="43.23523" lon="2.25312">
        <ele>169.691157</ele>
        <time>2023-01-05T11:29:09.931Z</time>
      </trkpt>
      <trkpt lat="43.23532" lon="2.25308">
        <ele>169.679532</ele>
        <time>2023-01-05T11:29:13.924Z</time>
      </trkpt>
      <trkpt lat="43.23544" lon="2.25305">
        <ele>169.666425</ele>
        <time>2023-01-05T11:29:17.927Z</time>
      </trkpt>
      <trkpt lat="43.23555" lon="2.25305">
        <ele>169.692546</ele>
        <time>2023-01-05T11:29:21.917Z</time>
      </trkpt>
      <trkpt lat="43.23567" lon="2.25306">
        <ele>169.757173</ele>
        <time>2023-01-05T11:29:25.917Z</time>
      </trkpt>
      <trkpt lat="43.23576" lon="2.25308">
        <ele>169.811088</ele>
        <time>2023-01-05T11:29:28.940Z</time>
      </trkpt>
      <trkpt lat="43.23585" lon="2.25311">
        <ele>169.860832</ele>
        <time>2023-01-05T11:29:31.941Z</time>
      </trkpt>
      <trkpt lat="43.23597" lon="2.25312">
        <ele>169.923647</ele>
        <time>2023-01-05T11:29:35.940Z</time>
      </trkpt>
      <trkpt lat="43.23607" lon="2.25313">
        <ele>169.981373</ele>
        <time>2023-01-05T11:29:39.931Z</time>
      </trkpt>
      <trkpt lat="43.23617" lon="2.25313">
        <ele>170.034194</ele>
        <time>2023-01-05T11:29:43.942Z</time>
      </trkpt>
      <trkpt lat="43.23627" lon="2.25313">
        <ele>170.08916</ele>
        <time>2023-01-05T11:29:48.923Z</time>
      </trkpt>
      <trkpt lat="43.23634" lon="2.25304">
        <ele>170.144038</ele>
        <time>2023-01-05T11:30:10.916Z</time>
      </trkpt>
      <trkpt lat="43.23637" lon="2.2529">
        <ele>170.201505</ele>
        <time>2023-01-05T11:30:16.921Z</time>
      </trkpt>
      <trkpt lat="43.23639" lon="2.25278">
        <ele>170.253535</ele>
        <time>2023-01-05T11:30:20.936Z</time>
      </trkpt>
      <trkpt lat="43.23631" lon="2.25269">
        <ele>170.308865</ele>
        <time>2023-01-05T11:30:27.932Z</time>
      </trkpt>
      <trkpt lat="43.23621" lon="2.25269">
        <ele>170.364966</ele>
        <time>2023-01-05T11:30:30.915Z</time>
      </trkpt>
      <trkpt lat="43.23612" lon="2.25269">
        <ele>170.41446</ele>
        <time>2023-01-05T11:30:33.942Z</time>
      </trkpt>
      <trkpt lat="43.23603" lon="2.25264">
        <ele>170.465796</ele>
        <time>2023-01-05T11:30:36.925Z</time>
      </trkpt>
      <trkpt lat="43.23594" lon="2.25262">
        <ele>170.518021</ele>
        <time>2023-01-05T11:30:40.912Z</time>
      </trkpt>
      <trkpt lat="43.23583" lon="2.25262">
        <ele>170.576834</ele>
        <time>2023-01-05T11:30:45.939Z</time>
      </trkpt>
      <trkpt lat="43.23573" lon="2.25258">
        <ele>170.635255</ele>
        <time>2023-01-05T11:30:50.923Z</time>
      </trkpt>
      <trkpt lat="43.23563" lon="2.25254">
        <ele>170.708128</ele>
        <time>2023-01-05T11:30:55.920Z</time>
      </trkpt>
      <trkpt lat="43.23555" lon="2.25246">
        <ele>170.781601</ele>
        <time>2023-01-05T11:31:00.916Z</time>
      </trkpt>
      <trkpt lat="43.23548" lon="2.25237">
        <ele>170.853502</ele>
        <time>2023-01-05T11:31:04.937Z</time>
      </trkpt>
      <trkpt lat="43.23543" lon="2.25225">
        <ele>170.92416</ele>
        <time>2023-01-05T11:31:08.927Z</time>
      </trkpt>
      <trkpt lat="43.23542" lon="2.25212">
        <ele>170.995129</ele>
        <time>2023-01-05T11:31:12.942Z</time>
      </trkpt>
      <trkpt lat="43.23541" lon="2.25199">
        <ele>171.068685</ele>
        <time>2023-01-05T11:31:16.940Z</time>
      </trkpt>
      <trkpt lat="43.23539" lon="2.25186">
        <ele>171.139654</ele>
        <time>2023-01-05T11:31:20.920Z</time>
      </trkpt>
      <trkpt lat="43.23539" lon="2.25172">
        <ele>171.217592</ele>
        <time>2023-01-05T11:31:24.925Z</time>
      </trkpt>
      <trkpt lat="43.23539" lon="2.25156">
        <ele>171.299831</ele>
        <time>2023-01-05T11:31:28.944Z</time>
      </trkpt>
      <trkpt lat="43.23542" lon="2.25144">
        <ele>171.372554</ele>
        <time>2023-01-05T11:31:32.933Z</time>
      </trkpt>
      <trkpt lat="43.23545" lon="2.25129">
        <ele>171.452447</ele>
        <time>2023-01-05T11:31:36.918Z</time>
      </trkpt>
      <trkpt lat="43.23547" lon="2.25117">
        <ele>171.522554</ele>
        <time>2023-01-05T11:31:39.944Z</time>
      </trkpt>
      <trkpt lat="43.23549" lon="2.25104">
        <ele>171.593455</ele>
        <time>2023-01-05T11:31:42.933Z</time>
      </trkpt>
      <trkpt lat="43.23552" lon="2.25092">
        <ele>171.662348</ele>
        <time>2023-01-05T11:31:45.919Z</time>
      </trkpt>
      <trkpt lat="43.23554" lon="2.25077">
        <ele>171.743111</ele>
        <time>2023-01-05T11:31:49.942Z</time>
      </trkpt>
      <trkpt lat="43.23557" lon="2.25064">
        <ele>171.818351</ele>
        <time>2023-01-05T11:31:53.925Z</time>
      </trkpt>
      <trkpt lat="43.2356" lon="2.25052">
        <ele>171.886277</ele>
        <time>2023-01-05T11:31:57.942Z</time>
      </trkpt>
      <trkpt lat="43.23562" lon="2.25039">
        <ele>171.959972</ele>
        <time>2023-01-05T11:32:01.941Z</time>
      </trkpt>
      <trkpt lat="43.23563" lon="2.25025">
        <ele>171.946777</ele>
        <time>2023-01-05T11:32:04.937Z</time>
      </trkpt>
      <trkpt lat="43.23564" lon="2.25009">
        <ele>171.877111</ele>
        <time>2023-01-05T11:32:08.942Z</time>
      </trkpt>
      <trkpt lat="43.23565" lon="2.24994">
        <ele>171.812334</ele>
        <time>2023-01-05T11:32:12.934Z</time>
      </trkpt>
      <trkpt lat="43.23565" lon="2.24979">
        <ele>171.745162</ele>
        <time>2023-01-05T11:32:16.940Z</time>
      </trkpt>
      <trkpt lat="43.23566" lon="2.24966">
        <ele>171.690798</ele>
        <time>2023-01-05T11:32:19.941Z</time>
      </trkpt>
      <trkpt lat="43.23565" lon="2.24953">
        <ele>171.63558</ele>
        <time>2023-01-05T11:32:22.946Z</time>
      </trkpt>
      <trkpt lat="43.23565" lon="2.24938">
        <ele>171.573544</ele>
        <time>2023-01-05T11:32:26.935Z</time>
      </trkpt>
      <trkpt lat="43.23564" lon="2.24926">
        <ele>171.520509</ele>
        <time>2023-01-05T11:32:29.935Z</time>
      </trkpt>
      <trkpt lat="43.23563" lon="2.24912">
        <ele>171.457649</ele>
        <time>2023-01-05T11:32:32.937Z</time>
      </trkpt>
      <trkpt lat="43.23562" lon="2.24899">
        <ele>171.404054</ele>
        <time>2023-01-05T11:32:35.937Z</time>
      </trkpt>
      <trkpt lat="43.23561" lon="2.24884">
        <ele>171.340627</ele>
        <time>2023-01-05T11:32:39.940Z</time>
      </trkpt>
      <trkpt lat="43.23559" lon="2.24869">
        <ele>171.274074</ele>
        <time>2023-01-05T11:32:43.945Z</time>
      </trkpt>
      <trkpt lat="43.23557" lon="2.24853">
        <ele>171.203028</ele>
        <time>2023-01-05T11:32:47.944Z</time>
      </trkpt>
      <trkpt lat="43.23556" lon="2.24839">
        <ele>171.144653</ele>
        <time>2023-01-05T11:32:51.936Z</time>
      </trkpt>
      <trkpt lat="43.23554" lon="2.24824">
        <ele>171.079784</ele>
        <time>2023-01-05T11:32:55.940Z</time>
      </trkpt>
      <trkpt lat="43.23551" lon="2.24809">
        <ele>171.011029</ele>
        <time>2023-01-05T11:32:59.940Z</time>
      </trkpt>
      <trkpt lat="43.2355" lon="2.24793">
        <ele>170.942083</ele>
        <time>2023-01-05T11:33:03.940Z</time>
      </trkpt>
      <trkpt lat="43.23548" lon="2.24779">
        <ele>170.919706</ele>
        <time>2023-01-05T11:33:06.918Z</time>
      </trkpt>
      <trkpt lat="43.23545" lon="2.24767">
        <ele>170.909978</ele>
        <time>2023-01-05T11:33:09.942Z</time>
      </trkpt>
      <trkpt lat="43.23542" lon="2.24752">
        <ele>170.898561</ele>
        <time>2023-01-05T11:33:13.940Z</time>
      </trkpt>
      <trkpt lat="43.2354" lon="2.2474">
        <ele>170.888477</ele>
        <time>2023-01-05T11:33:17.939Z</time>
      </trkpt>
      <trkpt lat="43.23538" lon="2.24727">
        <ele>170.878796</ele>
        <time>2023-01-05T11:33:21.941Z</time>
      </trkpt>
      <trkpt lat="43.23536" lon="2.24714">
        <ele>170.868409</ele>
        <time>2023-01-05T11:33:25.941Z</time>
      </trkpt>
      <trkpt lat="43.23533" lon="2.247">
        <ele>170.857249</ele>
        <time>2023-01-05T11:33:29.942Z</time>
      </trkpt>
      <trkpt lat="43.23531" lon="2.24688">
        <ele>170.847808</ele>
        <time>2023-01-05T11:33:33.923Z</time>
      </trkpt>
      <trkpt lat="43.23528" lon="2.24673">
        <ele>170.836199</ele>
        <time>2023-01-05T11:33:37.941Z</time>
      </trkpt>
      <trkpt lat="43.23525" lon="2.24658">
        <ele>170.82462</ele>
        <time>2023-01-05T11:33:41.936Z</time>
      </trkpt>
      <trkpt lat="43.23521" lon="2.24644">
        <ele>170.813049</ele>
        <time>2023-01-05T11:33:45.936Z</time>
      </trkpt>
      <trkpt lat="43.23517" lon="2.24631">
        <ele>170.801979</ele>
        <time>2023-01-05T11:33:48.920Z</time>
      </trkpt>
      <trkpt lat="43.23513" lon="2.24616">
        <ele>170.790406</ele>
        <time>2023-01-05T11:33:51.933Z</time>
      </trkpt>
      <trkpt lat="43.23508" lon="2.24601">
        <ele>170.777285</ele>
        <time>2023-01-05T11:33:54.925Z</time>
      </trkpt>
      <trkpt lat="43.23502" lon="2.24588">
        <ele>170.76574</ele>
        <time>2023-01-05T11:33:57.942Z</time>
      </trkpt>
      <trkpt lat="43.23495" lon="2.24577">
        <ele>170.754675</ele>
        <time>2023-01-05T11:34:00.921Z</time>
      </trkpt>
      <trkpt lat="43.2349" lon="2.24565">
        <ele>170.744335</ele>
        <time>2023-01-05T11:34:03.917Z</time>
      </trkpt>
      <trkpt lat="43.23486" lon="2.24554">
        <ele>170.688963</ele>
        <time>2023-01-05T11:34:06.938Z</time>
      </trkpt>
      <trkpt lat="43.23482" lon="2.24542">
        <ele>170.584023</ele>
        <time>2023-01-05T11:34:09.940Z</time>
      </trkpt>
      <trkpt lat="43.23479" lon="2.2453">
        <ele>170.477595</ele>
        <time>2023-01-05T11:34:12.943Z</time>
      </trkpt>
      <trkpt lat="43.23476" lon="2.24517">
        <ele>170.364405</ele>
        <time>2023-01-05T11:34:15.916Z</time>
      </trkpt>
      <trkpt lat="43.23472" lon="2.24503">
        <ele>170.247649</ele>
        <time>2023-01-05T11:34:18.940Z</time>
      </trkpt>
      <trkpt lat="43.23468" lon="2.2449">
        <ele>170.130758</ele>
        <time>2023-01-05T11:34:21.918Z</time>
      </trkpt>
      <trkpt lat="43.23461" lon="2.24476">
        <ele>169.995762</ele>
        <time>2023-01-05T11:34:24.939Z</time>
      </trkpt>
      <trkpt lat="43.23455" lon="2.24463">
        <ele>169.870121</ele>
        <time>2023-01-05T11:34:27.931Z</time>
      </trkpt>
      <trkpt lat="43.23449" lon="2.24451">
        <ele>169.748577</ele>
        <time>2023-01-05T11:34:30.913Z</time>
      </trkpt>
      <trkpt lat="43.23445" lon="2.2444">
        <ele>169.645034</ele>
        <time>2023-01-05T11:34:33.919Z</time>
      </trkpt>
      <trkpt lat="43.23437" lon="2.2443">
        <ele>169.531559</ele>
        <time>2023-01-05T11:34:37.928Z</time>
      </trkpt>
      <trkpt lat="43.23429" lon="2.24423">
        <ele>169.424505</ele>
        <time>2023-01-05T11:34:41.916Z</time>
      </trkpt>
      <trkpt lat="43.23422" lon="2.24414">
        <ele>169.320879</ele>
        <time>2023-01-05T11:34:45.932Z</time>
      </trkpt>
      <trkpt lat="43.23413" lon="2.24405">
        <ele>169.190833</ele>
        <time>2023-01-05T11:34:49.942Z</time>
      </trkpt>
      <trkpt lat="43.23403" lon="2.24397">
        <ele>169.065541</ele>
        <time>2023-01-05T11:34:53.923Z</time>
      </trkpt>
      <trkpt lat="43.23393" lon="2.24391">
        <ele>168.94933</ele>
        <time>2023-01-05T11:34:57.928Z</time>
      </trkpt>
      <trkpt lat="43.23382" lon="2.24385">
        <ele>168.812367</ele>
        <time>2023-01-05T11:35:01.916Z</time>
      </trkpt>
      <trkpt lat="43.23372" lon="2.24382">
        <ele>168.789394</ele>
        <time>2023-01-05T11:35:04.925Z</time>
      </trkpt>
      <trkpt lat="43.23362" lon="2.24382">
        <ele>168.966059</ele>
        <time>2023-01-05T11:35:07.918Z</time>
      </trkpt>
      <trkpt lat="43.23352" lon="2.24383">
        <ele>169.136266</ele>
        <time>2023-01-05T11:35:10.920Z</time>
      </trkpt>
      <trkpt lat="43.23341" lon="2.24385">
        <ele>169.332611</ele>
        <time>2023-01-05T11:35:14.946Z</time>
      </trkpt>
      <trkpt lat="43.2333" lon="2.2439">
        <ele>169.519071</ele>
        <time>2023-01-05T11:35:17.922Z</time>
      </trkpt>
      <trkpt lat="43.23321" lon="2.24394">
        <ele>169.678709</ele>
        <time>2023-01-05T11:35:20.931Z</time>
      </trkpt>
      <trkpt lat="43.23311" lon="2.24397">
        <ele>169.862758</ele>
        <time>2023-01-05T11:35:25.941Z</time>
      </trkpt>
      <trkpt lat="43.233" lon="2.24402">
        <ele>170.05931</ele>
        <time>2023-01-05T11:35:30.940Z</time>
      </trkpt>
      <trkpt lat="43.23289" lon="2.24407">
        <ele>170.261922</ele>
        <time>2023-01-05T11:35:34.939Z</time>
      </trkpt>
      <trkpt lat="43.2328" lon="2.2441">
        <ele>170.420934</ele>
        <time>2023-01-05T11:35:38.932Z</time>
      </trkpt>
      <trkpt lat="43.23271" lon="2.24414">
        <ele>170.583934</ele>
        <time>2023-01-05T11:35:42.918Z</time>
      </trkpt>
      <trkpt lat="43.2326" lon="2.24416">
        <ele>170.767837</ele>
        <time>2023-01-05T11:35:47.918Z</time>
      </trkpt>
      <trkpt lat="43.2325" lon="2.2442">
        <ele>170.953611</ele>
        <time>2023-01-05T11:35:51.922Z</time>
      </trkpt>
      <trkpt lat="43.23239" lon="2.24422">
        <ele>171.145626</ele>
        <time>2023-01-05T11:35:55.937Z</time>
      </trkpt>
      <trkpt lat="43.23227" lon="2.24425">
        <ele>171.34346</ele>
        <time>2023-01-05T11:35:59.920Z</time>
      </trkpt>
      <trkpt lat="43.23218" lon="2.24428">
        <ele>171.504439</ele>
        <time>2023-01-05T11:36:03.919Z</time>
      </trkpt>
      <trkpt lat="43.23209" lon="2.24431">
        <ele>171.668286</ele>
        <time>2023-01-05T11:36:07.942Z</time>
      </trkpt>
      <trkpt lat="43.23199" lon="2.24432">
        <ele>171.801348</ele>
        <time>2023-01-05T11:36:11.914Z</time>
      </trkpt>
      <trkpt lat="43.23188" lon="2.24435">
        <ele>171.681925</ele>
        <time>2023-01-05T11:36:15.921Z</time>
      </trkpt>
      <trkpt lat="43.23177" lon="2.24438">
        <ele>171.549273</ele>
        <time>2023-01-05T11:36:19.938Z</time>
      </trkpt>
      <trkpt lat="43.23167" lon="2.24441">
        <ele>171.429563</ele>
        <time>2023-01-05T11:36:24.924Z</time>
      </trkpt>
      <trkpt lat="43.23157" lon="2.24445">
        <ele>171.306787</ele>
        <time>2023-01-05T11:36:29.922Z</time>
      </trkpt>
      <trkpt lat="43.23146" lon="2.2445">
        <ele>171.178812</ele>
        <time>2023-01-05T11:36:33.925Z</time>
      </trkpt>
      <trkpt lat="43.23137" lon="2.24452">
        <ele>171.072582</ele>
        <time>2023-01-05T11:36:36.949Z</time>
      </trkpt>
      <trkpt lat="43.23127" lon="2.24459">
        <ele>170.940668</ele>
        <time>2023-01-05T11:36:40.918Z</time>
      </trkpt>
      <trkpt lat="43.23118" lon="2.24466">
        <ele>170.818585</ele>
        <time>2023-01-05T11:36:44.928Z</time>
      </trkpt>
      <trkpt lat="43.23109" lon="2.24473">
        <ele>170.700495</ele>
        <time>2023-01-05T11:36:49.920Z</time>
      </trkpt>
      <trkpt lat="43.23101" lon="2.24479">
        <ele>170.594322</ele>
        <time>2023-01-05T11:36:57.934Z</time>
      </trkpt>
      <trkpt lat="43.23092" lon="2.24485">
        <ele>170.486955</ele>
        <time>2023-01-05T11:37:07.919Z</time>
      </trkpt>
      <trkpt lat="43.23083" lon="2.2449">
        <ele>170.369052</ele>
        <time>2023-01-05T11:37:20.921Z</time>
      </trkpt>
      <trkpt lat="43.23074" lon="2.24496">
        <ele>170.257228</ele>
        <time>2023-01-05T11:37:24.920Z</time>
      </trkpt>
      <trkpt lat="43.23066" lon="2.24504">
        <ele>170.139935</ele>
        <time>2023-01-05T11:37:28.924Z</time>
      </trkpt>
      <trkpt lat="43.23057" lon="2.24511">
        <ele>170.028516</ele>
        <time>2023-01-05T11:37:32.938Z</time>
      </trkpt>
      <trkpt lat="43.23048" lon="2.24518">
        <ele>169.901358</ele>
        <time>2023-01-05T11:37:36.947Z</time>
      </trkpt>
      <trkpt lat="43.23039" lon="2.24526">
        <ele>169.787458</ele>
        <time>2023-01-05T11:37:40.937Z</time>
      </trkpt>
      <trkpt lat="43.2303" lon="2.24532">
        <ele>169.661184</ele>
        <time>2023-01-05T11:37:44.941Z</time>
      </trkpt>
      <trkpt lat="43.23022" lon="2.24538">
        <ele>169.549285</ele>
        <time>2023-01-05T11:37:47.941Z</time>
      </trkpt>
      <trkpt lat="43.23013" lon="2.24542">
        <ele>169.44015</ele>
        <time>2023-01-05T11:37:51.937Z</time>
      </trkpt>
      <trkpt lat="43.23005" lon="2.24548">
        <ele>169.322156</ele>
        <time>2023-01-05T11:37:55.941Z</time>
      </trkpt>
      <trkpt lat="43.22996" lon="2.24553">
        <ele>169.205242</ele>
        <time>2023-01-05T11:37:59.921Z</time>
      </trkpt>
      <trkpt lat="43.22987" lon="2.24557">
        <ele>169.087329</ele>
        <time>2023-01-05T11:38:03.932Z</time>
      </trkpt>
      <trkpt lat="43.22975" lon="2.24558">
        <ele>168.950425</ele>
        <time>2023-01-05T11:38:07.918Z</time>
      </trkpt>
      <trkpt lat="43.22964" lon="2.24556">
        <ele>168.814482</ele>
        <time>2023-01-05T11:38:12.920Z</time>
      </trkpt>
      <trkpt lat="43.22955" lon="2.24553">
        <ele>168.701672</ele>
        <time>2023-01-05T11:38:16.919Z</time>
      </trkpt>
      <trkpt lat="43.22945" lon="2.2455">
        <ele>168.57895</ele>
        <time>2023-01-05T11:38:20.926Z</time>
      </trkpt>
      <trkpt lat="43.22936" lon="2.24542">
        <ele>168.440969</ele>
        <time>2023-01-05T11:38:24.925Z</time>
      </trkpt>
      <trkpt lat="43.22928" lon="2.24532">
        <ele>168.308927</ele>
        <time>2023-01-05T11:38:28.942Z</time>
      </trkpt>
      <trkpt lat="43.22922" lon="2.24523">
        <ele>168.19882</ele>
        <time>2023-01-05T11:38:32.941Z</time>
      </trkpt>
      <trkpt lat="43.22918" lon="2.24509">
        <ele>168.071238</ele>
        <time>2023-01-05T11:38:36.938Z</time>
      </trkpt>
      <trkpt lat="43.22916" lon="2.24495">
        <ele>167.937829</ele>
        <time>2023-01-05T11:38:41.924Z</time>
      </trkpt>
      <trkpt lat="43.22916" lon="2.24482">
        <ele>167.822141</ele>
        <time>2023-01-05T11:38:59.921Z</time>
      </trkpt>
      <trkpt lat="43.22918" lon="2.24469">
        <ele>167.706348</ele>
        <time>2023-01-05T11:39:04.918Z</time>
      </trkpt>
      <trkpt lat="43.22921" lon="2.24455">
        <ele>167.580008</ele>
        <time>2023-01-05T11:39:08.940Z</time>
      </trkpt>
      <trkpt lat="43.22923" lon="2.24441">
        <ele>167.706918</ele>
        <time>2023-01-05T11:39:12.920Z</time>
      </trkpt>
      <trkpt lat="43.22926" lon="2.24427">
        <ele>167.909117</ele>
        <time>2023-01-05T11:39:16.931Z</time>
      </trkpt>
      <trkpt lat="43.22929" lon="2.24414">
        <ele>168.09484</ele>
        <time>2023-01-05T11:39:20.918Z</time>
      </trkpt>
      <trkpt lat="43.22931" lon="2.24402">
        <ele>168.268496</ele>
        <time>2023-01-05T11:39:24.919Z</time>
      </trkpt>
      <trkpt lat="43.22934" lon="2.24389">
        <ele>168.463944</ele>
        <time>2023-01-05T11:39:29.940Z</time>
      </trkpt>
      <trkpt lat="43.22937" lon="2.24376">
        <ele>168.646121</ele>
        <time>2023-01-05T11:39:35.921Z</time>
      </trkpt>
      <trkpt lat="43.22936" lon="2.24363">
        <ele>168.834854</ele>
        <time>2023-01-05T11:39:40.932Z</time>
      </trkpt>
      <trkpt lat="43.22936" lon="2.2435">
        <ele>169.01383</ele>
        <time>2023-01-05T11:39:44.919Z</time>
      </trkpt>
      <trkpt lat="43.22937" lon="2.24335">
        <ele>169.213497</ele>
        <time>2023-01-05T11:39:48.918Z</time>
      </trkpt>
      <trkpt lat="43.22937" lon="2.24322">
        <ele>169.399369</ele>
        <time>2023-01-05T11:39:52.919Z</time>
      </trkpt>
      <trkpt lat="43.22937" lon="2.24307">
        <ele>169.603282</ele>
        <time>2023-01-05T11:39:56.936Z</time>
      </trkpt>
      <trkpt lat="43.22937" lon="2.24293">
        <ele>169.799196</ele>
        <time>2023-01-05T11:40:00.935Z</time>
      </trkpt>
      <trkpt lat="43.22936" lon="2.2428">
        <ele>169.986929</ele>
        <time>2023-01-05T11:40:04.945Z</time>
      </trkpt>
      <trkpt lat="43.22934" lon="2.24265">
        <ele>170.192994</ele>
        <time>2023-01-05T11:40:08.938Z</time>
      </trkpt>
      <trkpt lat="43.22932" lon="2.24252">
        <ele>170.381998</ele>
        <time>2023-01-05T11:40:12.942Z</time>
      </trkpt>
      <trkpt lat="43.2293" lon="2.24238">
        <ele>170.575827</ele>
        <time>2023-01-05T11:40:16.937Z</time>
      </trkpt>
      <trkpt lat="43.22929" lon="2.24226">
        <ele>170.74851</ele>
        <time>2023-01-05T11:40:20.926Z</time>
      </trkpt>
      <trkpt lat="43.22927" lon="2.24209">
        <ele>170.97603</ele>
        <time>2023-01-05T11:40:25.940Z</time>
      </trkpt>
      <trkpt lat="43.22926" lon="2.24196">
        <ele>170.896487</ele>
        <time>2023-01-05T11:40:29.935Z</time>
      </trkpt>
      <trkpt lat="43.22925" lon="2.24183">
        <ele>170.819911</ele>
        <time>2023-01-05T11:40:33.943Z</time>
      </trkpt>
      <trkpt lat="43.22923" lon="2.24168">
        <ele>170.729516</ele>
        <time>2023-01-05T11:40:38.921Z</time>
      </trkpt>
      <trkpt lat="43.22922" lon="2.24152">
        <ele>170.635754</ele>
        <time>2023-01-05T11:40:43.931Z</time>
      </trkpt>
      <trkpt lat="43.2292" lon="2.24138">
        <ele>170.549513</ele>
        <time>2023-01-05T11:40:47.940Z</time>
      </trkpt>
      <trkpt lat="43.22918" lon="2.24125">
        <ele>170.468839</ele>
        <time>2023-01-05T11:40:52.922Z</time>
      </trkpt>
      <trkpt lat="43.22918" lon="2.2411">
        <ele>170.381219</ele>
        <time>2023-01-05T11:40:56.917Z</time>
      </trkpt>
      <trkpt lat="43.22916" lon="2.24096">
        <ele>170.296443</ele>
        <time>2023-01-05T11:41:00.938Z</time>
      </trkpt>
      <trkpt lat="43.22916" lon="2.24083">
        <ele>170.221739</ele>
        <time>2023-01-05T11:41:04.923Z</time>
      </trkpt>
      <trkpt lat="43.22916" lon="2.24069">
        <ele>170.137122</ele>
        <time>2023-01-05T11:41:09.927Z</time>
      </trkpt>
      <trkpt lat="43.22917" lon="2.24056">
        <ele>170.059275</ele>
        <time>2023-01-05T11:41:14.937Z</time>
      </trkpt>
      <trkpt lat="43.22919" lon="2.24041">
        <ele>169.969058</ele>
        <time>2023-01-05T11:41:19.927Z</time>
      </trkpt>
      <trkpt lat="43.2292" lon="2.24028">
        <ele>169.894109</ele>
        <time>2023-01-05T11:41:23.921Z</time>
      </trkpt>
      <trkpt lat="43.22923" lon="2.24014">
        <ele>169.809405</ele>
        <time>2023-01-05T11:41:27.945Z</time>
      </trkpt>
      <trkpt lat="43.22927" lon="2.24001">
        <ele>169.726141</ele>
        <time>2023-01-05T11:41:31.923Z</time>
      </trkpt>
      <trkpt lat="43.22931" lon="2.23987">
        <ele>169.636088</ele>
        <time>2023-01-05T11:41:35.938Z</time>
      </trkpt>
      <trkpt lat="43.22934" lon="2.23973">
        <ele>169.549185</ele>
        <time>2023-01-05T11:41:39.946Z</time>
      </trkpt>
      <trkpt lat="43.2294" lon="2.23962">
        <ele>169.516648</ele>
        <time>2023-01-05T11:41:44.922Z</time>
      </trkpt>
      <trkpt lat="43.22945" lon="2.23948">
        <ele>169.518757</ele>
        <time>2023-01-05T11:41:48.919Z</time>
      </trkpt>
      <trkpt lat="43.22949" lon="2.23936">
        <ele>169.52044</ele>
        <time>2023-01-05T11:41:51.923Z</time>
      </trkpt>
      <trkpt lat="43.22953" lon="2.23925">
        <ele>169.522137</ele>
        <time>2023-01-05T11:41:54.937Z</time>
      </trkpt>
      <trkpt lat="43.22957" lon="2.23911">
        <ele>169.524078</ele>
        <time>2023-01-05T11:41:58.939Z</time>
      </trkpt>
      <trkpt lat="43.22962" lon="2.23901">
        <ele>169.525778</ele>
        <time>2023-01-05T11:42:02.934Z</time>
      </trkpt>
      <trkpt lat="43.22968" lon="2.2389">
        <ele>169.52753</ele>
        <time>2023-01-05T11:42:06.923Z</time>
      </trkpt>
      <trkpt lat="43.22974" lon="2.23879">
        <ele>169.529389</ele>
        <time>2023-01-05T11:42:10.922Z</time>
      </trkpt>
      <trkpt lat="43.2298" lon="2.23868">
        <ele>169.531224</ele>
        <time>2023-01-05T11:42:14.931Z</time>
      </trkpt>
      <trkpt lat="43.22985" lon="2.23857">
        <ele>169.532954</ele>
        <time>2023-01-05T11:42:18.937Z</time>
      </trkpt>
      <trkpt lat="43.22992" lon="2.23845">
        <ele>169.534956</ele>
        <time>2023-01-05T11:42:23.930Z</time>
      </trkpt>
      <trkpt lat="43.22997" lon="2.23833">
        <ele>169.536843</ele>
        <time>2023-01-05T11:42:27.922Z</time>
      </trkpt>
      <trkpt lat="43.23004" lon="2.23822">
        <ele>169.538732</ele>
        <time>2023-01-05T11:42:31.941Z</time>
      </trkpt>
      <trkpt lat="43.2301" lon="2.23811">
        <ele>169.540567</ele>
        <time>2023-01-05T11:42:36.918Z</time>
      </trkpt>
      <trkpt lat="43.23016" lon="2.23801">
        <ele>169.542299</ele>
        <time>2023-01-05T11:42:41.938Z</time>
      </trkpt>
      <trkpt lat="43.23022" lon="2.2379">
        <ele>169.544015</ele>
        <time>2023-01-05T11:42:46.939Z</time>
      </trkpt>
      <trkpt lat="43.23027" lon="2.23778">
        <ele>169.545939</ele>
        <time>2023-01-05T11:42:51.919Z</time>
      </trkpt>
      <trkpt lat="43.23034" lon="2.23766">
        <ele>169.547956</ele>
        <time>2023-01-05T11:42:56.927Z</time>
      </trkpt>
      <trkpt lat="43.2304" lon="2.23755">
        <ele>169.594338</ele>
        <time>2023-01-05T11:43:00.929Z</time>
      </trkpt>
      <trkpt lat="43.23047" lon="2.23742">
        <ele>169.657853</ele>
        <time>2023-01-05T11:43:05.934Z</time>
      </trkpt>
      <trkpt lat="43.23052" lon="2.23732">
        <ele>169.708142</ele>
        <time>2023-01-05T11:43:09.941Z</time>
      </trkpt>
      <trkpt lat="43.23058" lon="2.23722">
        <ele>169.76174</ele>
        <time>2023-01-05T11:43:13.941Z</time>
      </trkpt>
      <trkpt lat="43.23063" lon="2.23711">
        <ele>169.815984</ele>
        <time>2023-01-05T11:43:18.929Z</time>
      </trkpt>
      <trkpt lat="43.23069" lon="2.23699">
        <ele>169.874236</ele>
        <time>2023-01-05T11:43:23.941Z</time>
      </trkpt>
      <trkpt lat="43.23074" lon="2.23688">
        <ele>169.927864</ele>
        <time>2023-01-05T11:43:27.936Z</time>
      </trkpt>
      <trkpt lat="43.2308" lon="2.23678">
        <ele>169.979482</ele>
        <time>2023-01-05T11:43:32.921Z</time>
      </trkpt>
      <trkpt lat="43.23086" lon="2.23667">
        <ele>170.036054</ele>
        <time>2023-01-05T11:43:37.913Z</time>
      </trkpt>
      <trkpt lat="43.23092" lon="2.23654">
        <ele>170.099584</ele>
        <time>2023-01-05T11:43:42.923Z</time>
      </trkpt>
      <trkpt lat="43.23098" lon="2.23643">
        <ele>170.155174</ele>
        <time>2023-01-05T11:43:46.933Z</time>
      </trkpt>
      <trkpt lat="43.23104" lon="2.23632">
        <ele>170.210743</ele>
        <time>2023-01-05T11:43:51.929Z</time>
      </trkpt>
      <trkpt lat="43.2311" lon="2.23621">
        <ele>170.269375</ele>
        <time>2023-01-05T11:43:57.925Z</time>
      </trkpt>
      <trkpt lat="43.23115" lon="2.23608">
        <ele>170.329349</ele>
        <time>2023-01-05T11:44:03.924Z</time>
      </trkpt>
      <trkpt lat="43.23121" lon="2.23597">
        <ele>170.384265</ele>
        <time>2023-01-05T11:44:08.915Z</time>
      </trkpt>
      <trkpt lat="43.23128" lon="2.23585">
        <ele>170.447452</ele>
        <time>2023-01-05T11:44:13.940Z</time>
      </trkpt>
      <trkpt lat="43.23135" lon="2.23572">
        <ele>170.509972</ele>
        <time>2023-01-05T11:44:18.938Z</time>
      </trkpt>
      <trkpt lat="43.2314" lon="2.23562">
        <ele>170.552492</ele>
        <time>2023-01-05T11:44:22.929Z</time>
      </trkpt>
      <trkpt lat="43.23145" lon="2.23552">
        <ele>170.493636</ele>
        <time>2023-01-05T11:44:26.937Z</time>
      </trkpt>
      <trkpt lat="43.2315" lon="2.23541">
        <ele>170.434251</ele>
        <time>2023-01-05T11:44:30.925Z</time>
      </trkpt>
      <trkpt lat="43.23156" lon="2.23528">
        <ele>170.363465</ele>
        <time>2023-01-05T11:44:35.940Z</time>
      </trkpt>
      <trkpt lat="43.23162" lon="2.23517">
        <ele>170.298486</ele>
        <time>2023-01-05T11:44:39.943Z</time>
      </trkpt>
      <trkpt lat="43.23167" lon="2.23506">
        <ele>170.23841</ele>
        <time>2023-01-05T11:44:43.917Z</time>
      </trkpt>
      <trkpt lat="43.23172" lon="2.23495">
        <ele>170.174602</ele>
        <time>2023-01-05T11:44:48.922Z</time>
      </trkpt>
      <trkpt lat="43.2318" lon="2.23484">
        <ele>170.102584</ele>
        <time>2023-01-05T11:44:53.937Z</time>
      </trkpt>
      <trkpt lat="43.23186" lon="2.23472">
        <ele>170.034096</ele>
        <time>2023-01-05T11:44:57.942Z</time>
      </trkpt>
      <trkpt lat="43.23192" lon="2.23462">
        <ele>169.974863</ele>
        <time>2023-01-05T11:45:01.941Z</time>
      </trkpt>
      <trkpt lat="43.23199" lon="2.23452">
        <ele>169.909174</ele>
        <time>2023-01-05T11:45:05.945Z</time>
      </trkpt>
      <trkpt lat="43.23207" lon="2.23442">
        <ele>169.836578</ele>
        <time>2023-01-05T11:45:09.943Z</time>
      </trkpt>
      <trkpt lat="43.23214" lon="2.23432">
        <ele>169.768612</ele>
        <time>2023-01-05T11:45:13.921Z</time>
      </trkpt>
      <trkpt lat="43.23222" lon="2.23421">
        <ele>169.697412</ele>
        <time>2023-01-05T11:45:17.931Z</time>
      </trkpt>
      <trkpt lat="43.23229" lon="2.23413">
        <ele>169.638715</ele>
        <time>2023-01-05T11:45:21.916Z</time>
      </trkpt>
      <trkpt lat="43.23238" lon="2.23405">
        <ele>169.568892</ele>
        <time>2023-01-05T11:45:26.935Z</time>
      </trkpt>
      <trkpt lat="43.23247" lon="2.23396">
        <ele>169.500149</ele>
        <time>2023-01-05T11:45:31.920Z</time>
      </trkpt>
      <trkpt lat="43.23255" lon="2.23389">
        <ele>169.433256</ele>
        <time>2023-01-05T11:45:36.918Z</time>
      </trkpt>
      <trkpt lat="43.23265" lon="2.23383">
        <ele>169.461687</ele>
        <time>2023-01-05T11:45:41.935Z</time>
      </trkpt>
      <trkpt lat="43.23273" lon="2.23377">
        <ele>169.633691</ele>
        <time>2023-01-05T11:45:45.920Z</time>
      </trkpt>
      <trkpt lat="43.23281" lon="2.2337">
        <ele>169.805299</ele>
        <time>2023-01-05T11:45:49.944Z</time>
      </trkpt>
      <trkpt lat="43.23292" lon="2.23363">
        <ele>170.007719</ele>
        <time>2023-01-05T11:45:54.926Z</time>
      </trkpt>
      <trkpt lat="43.23302" lon="2.23355">
        <ele>170.217246</ele>
        <time>2023-01-05T11:45:59.917Z</time>
      </trkpt>
      <trkpt lat="43.2331" lon="2.23349">
        <ele>170.379822</ele>
        <time>2023-01-05T11:46:03.941Z</time>
      </trkpt>
      <trkpt lat="43.23318" lon="2.2334">
        <ele>170.572395</ele>
        <time>2023-01-05T11:46:08.943Z</time>
      </trkpt>
      <trkpt lat="43.23325" lon="2.2333">
        <ele>170.755037</ele>
        <time>2023-01-05T11:46:12.925Z</time>
      </trkpt>
      <trkpt lat="43.23331" lon="2.2332">
        <ele>170.917311</ele>
        <time>2023-01-05T11:46:16.929Z</time>
      </trkpt>
      <trkpt lat="43.23336" lon="2.23309">
        <ele>171.088118</ele>
        <time>2023-01-05T11:46:20.944Z</time>
      </trkpt>
      <trkpt lat="43.23341" lon="2.23298">
        <ele>171.264533</ele>
        <time>2023-01-05T11:46:24.920Z</time>
      </trkpt>
      <trkpt lat="43.23346" lon="2.23287">
        <ele>171.432285</ele>
        <time>2023-01-05T11:46:29.939Z</time>
      </trkpt>
      <trkpt lat="43.23351" lon="2.23274">
        <ele>171.619121</ele>
        <time>2023-01-05T11:46:35.937Z</time>
      </trkpt>
      <trkpt lat="43.23355" lon="2.23261">
        <ele>171.806864</ele>
        <time>2023-01-05T11:46:40.941Z</time>
      </trkpt>
      <trkpt lat="43.23357" lon="2.23247">
        <ele>171.992481</ele>
        <time>2023-01-05T11:46:46.930Z</time>
      </trkpt>
      <trkpt lat="43.2336" lon="2.23234">
        <ele>172.158509</ele>
        <time>2023-01-05T11:46:50.932Z</time>
      </trkpt>
      <trkpt lat="43.23363" lon="2.2322">
        <ele>172.359228</ele>
        <time>2023-01-05T11:46:55.942Z</time>
      </trkpt>
      <trkpt lat="43.23365" lon="2.23207">
        <ele>172.534027</ele>
        <time>2023-01-05T11:46:59.934Z</time>
      </trkpt>
      <trkpt lat="43.23367" lon="2.23193">
        <ele>172.538083</ele>
        <time>2023-01-05T11:47:04.923Z</time>
      </trkpt>
      <trkpt lat="43.23369" lon="2.23179">
        <ele>172.420288</ele>
        <time>2023-01-05T11:47:08.933Z</time>
      </trkpt>
      <trkpt lat="43.23369" lon="2.23165">
        <ele>172.29803</ele>
        <time>2023-01-05T11:47:12.917Z</time>
      </trkpt>
      <trkpt lat="43.23368" lon="2.2315">
        <ele>172.176269</ele>
        <time>2023-01-05T11:47:16.917Z</time>
      </trkpt>
      <trkpt lat="43.23367" lon="2.23136">
        <ele>172.052376</ele>
        <time>2023-01-05T11:47:20.915Z</time>
      </trkpt>
      <trkpt lat="43.23365" lon="2.23122">
        <ele>171.935769</ele>
        <time>2023-01-05T11:47:24.920Z</time>
      </trkpt>
      <trkpt lat="43.23364" lon="2.2311">
        <ele>171.828876</ele>
        <time>2023-01-05T11:47:28.934Z</time>
      </trkpt>
      <trkpt lat="43.2336" lon="2.23095">
        <ele>171.696942</ele>
        <time>2023-01-05T11:47:33.917Z</time>
      </trkpt>
      <trkpt lat="43.23353" lon="2.23083">
        <ele>171.567941</ele>
        <time>2023-01-05T11:47:37.928Z</time>
      </trkpt>
      <trkpt lat="43.23348" lon="2.23071">
        <ele>171.446956</ele>
        <time>2023-01-05T11:47:41.941Z</time>
      </trkpt>
      <trkpt lat="43.23341" lon="2.23058">
        <ele>171.315755</ele>
        <time>2023-01-05T11:47:45.942Z</time>
      </trkpt>
      <trkpt lat="43.23334" lon="2.23047">
        <ele>171.184978</ele>
        <time>2023-01-05T11:47:49.924Z</time>
      </trkpt>
      <trkpt lat="43.23328" lon="2.23037">
        <ele>171.073246</ele>
        <time>2023-01-05T11:47:53.928Z</time>
      </trkpt>
      <trkpt lat="43.2332" lon="2.23025">
        <ele>170.944393</ele>
        <time>2023-01-05T11:47:58.921Z</time>
      </trkpt>
      <trkpt lat="43.23313" lon="2.23014">
        <ele>170.810538</ele>
        <time>2023-01-05T11:48:02.925Z</time>
      </trkpt>
      <trkpt lat="43.23306" lon="2.23004">
        <ele>170.701477</ele>
        <time>2023-01-05T11:48:06.943Z</time>
      </trkpt>
      <trkpt lat="43.23298" lon="2.23">
        <ele>170.59153</ele>
        <time>2023-01-05T11:48:12.928Z</time>
      </trkpt>
      <trkpt lat="43.23293" lon="2.23011">
        <ele>170.500269</ele>
        <time>2023-01-05T11:48:17.920Z</time>
      </trkpt>
      <trkpt lat="43.23287" lon="2.23024">
        <ele>170.447142</ele>
        <time>2023-01-05T11:48:23.928Z</time>
      </trkpt>
      <trkpt lat="43.23279" lon="2.23033">
        <ele>170.398671</ele>
        <time>2023-01-05T11:48:28.918Z</time>
      </trkpt>
      <trkpt lat="43.23269" lon="2.23033">
        <ele>170.351179</ele>
        <time>2023-01-05T11:48:34.929Z</time>
      </trkpt>
      <trkpt lat="43.23263" lon="2.23024">
        <ele>170.307596</ele>
        <time>2023-01-05T11:48:38.919Z</time>
      </trkpt>
      <trkpt lat="43.23257" lon="2.23011">
        <ele>170.252567</ele>
        <time>2023-01-05T11:48:42.944Z</time>
      </trkpt>
      <trkpt lat="43.23252" lon="2.23001">
        <ele>170.207274</ele>
        <time>2023-01-05T11:48:45.934Z</time>
      </trkpt>
      <trkpt lat="43.23245" lon="2.2299">
        <ele>170.157321</ele>
        <time>2023-01-05T11:48:48.946Z</time>
      </trkpt>
      <trkpt lat="43.23238" lon="2.22978">
        <ele>170.104051</ele>
        <time>2023-01-05T11:48:51.942Z</time>
      </trkpt>
      <trkpt lat="43.23231" lon="2.22965">
        <ele>170.047612</ele>
        <time>2023-01-05T11:48:54.940Z</time>
      </trkpt>
      <trkpt lat="43.23226" lon="2.22951">
        <ele>169.991598</ele>
        <time>2023-01-05T11:48:57.940Z</time>
      </trkpt>
      <trkpt lat="43.23224" lon="2.22935">
        <ele>169.934712</ele>
        <time>2023-01-05T11:49:00.915Z</time>
      </trkpt>
      <trkpt lat="43.23223" lon="2.22922">
        <ele>169.886739</ele>
        <time>2023-01-05T11:49:03.919Z</time>
      </trkpt>
      <trkpt lat="43.23224" lon="2.22907">
        <ele>169.833836</ele>
        <time>2023-01-05T11:49:07.942Z</time>
      </trkpt>
      <trkpt lat="43.23225" lon="2.2289">
        <ele>169.776491</ele>
        <time>2023-01-05T11:49:11.939Z</time>
      </trkpt>
      <trkpt lat="43.23228" lon="2.22877">
        <ele>169.726938</ele>
        <time>2023-01-05T11:49:16.922Z</time>
      </trkpt>
      <trkpt lat="43.23231" lon="2.22865">
        <ele>169.68339</ele>
        <time>2023-01-05T11:49:35.927Z</time>
      </trkpt>
      <trkpt lat="43.23229" lon="2.22879">
        <ele>169.635835</ele>
        <time>2023-01-05T11:52:03.922Z</time>
      </trkpt>
      <trkpt lat="43.23226" lon="2.22891">
        <ele>169.600924</ele>
        <time>2023-01-05T11:52:07.927Z</time>
      </trkpt>
      <trkpt lat="43.23224" lon="2.22906">
        <ele>169.557004</ele>
        <time>2023-01-05T11:52:11.934Z</time>
      </trkpt>
      <trkpt lat="43.23224" lon="2.22921">
        <ele>169.515171</ele>
        <time>2023-01-05T11:52:16.932Z</time>
      </trkpt>
      <trkpt lat="43.23226" lon="2.22935">
        <ele>169.475173</ele>
        <time>2023-01-05T11:52:20.927Z</time>
      </trkpt>
      <trkpt lat="43.23228" lon="2.22949">
        <ele>169.433956</ele>
        <time>2023-01-05T11:52:24.941Z</time>
      </trkpt>
      <trkpt lat="43.23233" lon="2.22963">
        <ele>169.390563</ele>
        <time>2023-01-05T11:52:28.928Z</time>
      </trkpt>
      <trkpt lat="43.23239" lon="2.22976">
        <ele>169.34782</ele>
        <time>2023-01-05T11:52:32.936Z</time>
      </trkpt>
      <trkpt lat="43.23245" lon="2.22987">
        <ele>169.307617</ele>
        <time>2023-01-05T11:52:36.928Z</time>
      </trkpt>
      <trkpt lat="43.23251" lon="2.22999">
        <ele>169.265794</ele>
        <time>2023-01-05T11:52:40.947Z</time>
      </trkpt>
      <trkpt lat="43.23257" lon="2.2301">
        <ele>169.226969</ele>
        <time>2023-01-05T11:52:44.947Z</time>
      </trkpt>
      <trkpt lat="43.23264" lon="2.2302">
        <ele>169.187844</ele>
        <time>2023-01-05T11:52:48.939Z</time>
      </trkpt>
      <trkpt lat="43.23272" lon="2.23029">
        <ele>169.148647</ele>
        <time>2023-01-05T11:52:53.929Z</time>
      </trkpt>
      <trkpt lat="43.2328" lon="2.23034">
        <ele>169.112491</ele>
        <time>2023-01-05T11:53:00.924Z</time>
      </trkpt>
      <trkpt lat="43.23288" lon="2.23023">
        <ele>169.06945</ele>
        <time>2023-01-05T11:53:06.932Z</time>
      </trkpt>
      <trkpt lat="43.23294" lon="2.23013">
        <ele>169.033364</ele>
        <time>2023-01-05T11:53:11.919Z</time>
      </trkpt>
      <trkpt lat="43.23302" lon="2.23003">
        <ele>168.990974</ele>
        <time>2023-01-05T11:53:16.946Z</time>
      </trkpt>
      <trkpt lat="43.23313" lon="2.2301">
        <ele>168.928704</ele>
        <time>2023-01-05T11:53:19.925Z</time>
      </trkpt>
      <trkpt lat="43.23321" lon="2.23024">
        <ele>168.601144</ele>
        <time>2023-01-05T11:53:21.942Z</time>
      </trkpt>
      <trkpt lat="43.23329" lon="2.23037">
        <ele>168.278773</ele>
        <time>2023-01-05T11:53:23.940Z</time>
      </trkpt>
      <trkpt lat="43.23335" lon="2.23049">
        <ele>167.988898</ele>
        <time>2023-01-05T11:53:25.944Z</time>
      </trkpt>
      <trkpt lat="43.23341" lon="2.2306">
        <ele>167.737662</ele>
        <time>2023-01-05T11:53:27.930Z</time>
      </trkpt>
      <trkpt lat="43.23348" lon="2.23071">
        <ele>167.447364</ele>
        <time>2023-01-05T11:53:30.931Z</time>
      </trkpt>
      <trkpt lat="43.23355" lon="2.23083">
        <ele>167.15141</ele>
        <time>2023-01-05T11:53:33.933Z</time>
      </trkpt>
      <trkpt lat="43.23361" lon="2.23097">
        <ele>166.839959</ele>
        <time>2023-01-05T11:53:37.949Z</time>
      </trkpt>
      <trkpt lat="43.23366" lon="2.23111">
        <ele>166.542535</ele>
        <time>2023-01-05T11:53:41.946Z</time>
      </trkpt>
      <trkpt lat="43.23371" lon="2.23123">
        <ele>166.282442</ele>
        <time>2023-01-05T11:53:45.929Z</time>
      </trkpt>
      <trkpt lat="43.23372" lon="2.23137">
        <ele>166.007676</ele>
        <time>2023-01-05T11:53:49.930Z</time>
      </trkpt>
      <trkpt lat="43.23373" lon="2.23151">
        <ele>165.751985</ele>
        <time>2023-01-05T11:53:52.944Z</time>
      </trkpt>
      <trkpt lat="43.23374" lon="2.23165">
        <ele>165.47216</ele>
        <time>2023-01-05T11:53:55.935Z</time>
      </trkpt>
      <trkpt lat="43.23374" lon="2.23181">
        <ele>165.165079</ele>
        <time>2023-01-05T11:53:58.968Z</time>
      </trkpt>
      <trkpt lat="43.23379" lon="2.23193">
        <ele>164.900346</ele>
        <time>2023-01-05T11:54:00.950Z</time>
      </trkpt>
      <trkpt lat="43.23389" lon="2.232">
        <ele>164.627653</ele>
        <time>2023-01-05T11:54:02.928Z</time>
      </trkpt>
      <trkpt lat="43.23399" lon="2.23206">
        <ele>164.337076</ele>
        <time>2023-01-05T11:54:04.937Z</time>
      </trkpt>
      <trkpt lat="43.23408" lon="2.2321">
        <ele>164.148894</ele>
        <time>2023-01-05T11:54:06.937Z</time>
      </trkpt>
      <trkpt lat="43.23417" lon="2.23213">
        <ele>164.024198</ele>
        <time>2023-01-05T11:54:08.926Z</time>
      </trkpt>
      <trkpt lat="43.23426" lon="2.23217">
        <ele>163.898183</ele>
        <time>2023-01-05T11:54:10.924Z</time>
      </trkpt>
      <trkpt lat="43.23437" lon="2.23222">
        <ele>163.740592</ele>
        <time>2023-01-05T11:54:13.932Z</time>
      </trkpt>
      <trkpt lat="43.23446" lon="2.23226">
        <ele>163.61966</ele>
        <time>2023-01-05T11:54:15.937Z</time>
      </trkpt>
      <trkpt lat="43.23458" lon="2.23232">
        <ele>163.45361</ele>
        <time>2023-01-05T11:54:18.930Z</time>
      </trkpt>
      <trkpt lat="43.2347" lon="2.23237">
        <ele>163.286896</ele>
        <time>2023-01-05T11:54:21.929Z</time>
      </trkpt>
      <trkpt lat="43.23482" lon="2.23244">
        <ele>163.111934</ele>
        <time>2023-01-05T11:54:24.937Z</time>
      </trkpt>
      <trkpt lat="43.23491" lon="2.23248">
        <ele>162.988816</ele>
        <time>2023-01-05T11:54:26.928Z</time>
      </trkpt>
      <trkpt lat="43.235" lon="2.23252">
        <ele>162.862801</ele>
        <time>2023-01-05T11:54:28.927Z</time>
      </trkpt>
      <trkpt lat="43.23509" lon="2.23256">
        <ele>162.738048</ele>
        <time>2023-01-05T11:54:30.935Z</time>
      </trkpt>
      <trkpt lat="43.2352" lon="2.23262">
        <ele>162.572639</ele>
        <time>2023-01-05T11:54:33.948Z</time>
      </trkpt>
      <trkpt lat="43.23533" lon="2.23267">
        <ele>162.402814</ele>
        <time>2023-01-05T11:54:36.930Z</time>
      </trkpt>
      <trkpt lat="43.23544" lon="2.23274">
        <ele>162.238413</ele>
        <time>2023-01-05T11:54:39.931Z</time>
      </trkpt>
      <trkpt lat="43.23555" lon="2.23281">
        <ele>162.081728</ele>
        <time>2023-01-05T11:54:42.926Z</time>
      </trkpt>
      <trkpt lat="43.23565" lon="2.23287">
        <ele>161.93554</ele>
        <time>2023-01-05T11:54:45.927Z</time>
      </trkpt>
      <trkpt lat="43.23575" lon="2.23293">
        <ele>161.889689</ele>
        <time>2023-01-05T11:54:48.923Z</time>
      </trkpt>
      <trkpt lat="43.23582" lon="2.233">
        <ele>162.120966</ele>
        <time>2023-01-05T11:54:51.933Z</time>
      </trkpt>
      <trkpt lat="43.23584" lon="2.23314">
        <ele>162.366743</ele>
        <time>2023-01-05T11:54:56.943Z</time>
      </trkpt>
      <trkpt lat="43.2359" lon="2.23305">
        <ele>162.588486</ele>
        <time>2023-01-05T11:55:05.950Z</time>
      </trkpt>
      <trkpt lat="43.23599" lon="2.233">
        <ele>162.824043</ele>
        <time>2023-01-05T11:55:09.930Z</time>
      </trkpt>
      <trkpt lat="43.23608" lon="2.23297">
        <ele>163.043278</ele>
        <time>2023-01-05T11:55:12.948Z</time>
      </trkpt>
      <trkpt lat="43.23618" lon="2.23295">
        <ele>163.282111</ele>
        <time>2023-01-05T11:55:15.936Z</time>
      </trkpt>
      <trkpt lat="43.23633" lon="2.2329">
        <ele>163.675682</ele>
        <time>2023-01-05T11:56:05.929Z</time>
      </trkpt>
      <trkpt lat="43.23644" lon="2.23283">
        <ele>163.96517</ele>
        <time>2023-01-05T11:56:09.937Z</time>
      </trkpt>
      <trkpt lat="43.23653" lon="2.23278">
        <ele>164.195448</ele>
        <time>2023-01-05T11:56:12.926Z</time>
      </trkpt>
      <trkpt lat="43.23663" lon="2.23272">
        <ele>164.445633</ele>
        <time>2023-01-05T11:56:15.930Z</time>
      </trkpt>
      <trkpt lat="43.23672" lon="2.23267">
        <ele>164.69678</ele>
        <time>2023-01-05T11:56:18.933Z</time>
      </trkpt>
      <trkpt lat="43.23682" lon="2.23261">
        <ele>164.95343</ele>
        <time>2023-01-05T11:56:21.935Z</time>
      </trkpt>
      <trkpt lat="43.23691" lon="2.23254">
        <ele>165.199057</ele>
        <time>2023-01-05T11:56:24.927Z</time>
      </trkpt>
      <trkpt lat="43.237" lon="2.23246">
        <ele>165.466133</ele>
        <time>2023-01-05T11:56:28.923Z</time>
      </trkpt>
      <trkpt lat="43.23711" lon="2.23246">
        <ele>165.720226</ele>
        <time>2023-01-05T11:56:33.925Z</time>
      </trkpt>
      <trkpt lat="43.2372" lon="2.23248">
        <ele>165.944966</ele>
        <time>2023-01-05T11:56:36.927Z</time>
      </trkpt>
      <trkpt lat="43.23731" lon="2.23251">
        <ele>166.186833</ele>
        <time>2023-01-05T11:56:40.929Z</time>
      </trkpt>
      <trkpt lat="43.23742" lon="2.23256">
        <ele>166.255588</ele>
        <time>2023-01-05T11:56:44.926Z</time>
      </trkpt>
      <trkpt lat="43.23752" lon="2.23262">
        <ele>166.323225</ele>
        <time>2023-01-05T11:56:48.935Z</time>
      </trkpt>
      <trkpt lat="43.23762" lon="2.23265">
        <ele>166.381123</ele>
        <time>2023-01-05T11:56:52.950Z</time>
      </trkpt>
      <trkpt lat="43.23773" lon="2.23272">
        <ele>166.450749</ele>
        <time>2023-01-05T11:56:58.928Z</time>
      </trkpt>
      <trkpt lat="43.23779" lon="2.23282">
        <ele>166.509517</ele>
        <time>2023-01-05T11:57:01.925Z</time>
      </trkpt>
      <trkpt lat="43.23788" lon="2.23288">
        <ele>166.568047</ele>
        <time>2023-01-05T11:57:04.927Z</time>
      </trkpt>
      <trkpt lat="43.23797" lon="2.23293">
        <ele>166.626936</ele>
        <time>2023-01-05T11:57:07.926Z</time>
      </trkpt>
      <trkpt lat="43.23807" lon="2.23297">
        <ele>166.68506</ele>
        <time>2023-01-05T11:57:10.938Z</time>
      </trkpt>
      <trkpt lat="43.23816" lon="2.233">
        <ele>166.743476</ele>
        <time>2023-01-05T11:57:13.925Z</time>
      </trkpt>
      <trkpt lat="43.23826" lon="2.23302">
        <ele>166.802184</ele>
        <time>2023-01-05T11:57:16.929Z</time>
      </trkpt>
      <trkpt lat="43.23835" lon="2.23305">
        <ele>166.856805</ele>
        <time>2023-01-05T11:57:19.938Z</time>
      </trkpt>
      <trkpt lat="43.23845" lon="2.23307">
        <ele>166.916682</ele>
        <time>2023-01-05T11:57:22.938Z</time>
      </trkpt>
      <trkpt lat="43.23857" lon="2.23311">
        <ele>166.989517</ele>
        <time>2023-01-05T11:57:26.933Z</time>
      </trkpt>
      <trkpt lat="43.23867" lon="2.23316">
        <ele>167.052413</ele>
        <time>2023-01-05T11:57:29.934Z</time>
      </trkpt>
      <trkpt lat="43.23876" lon="2.23322">
        <ele>167.11218</ele>
        <time>2023-01-05T11:57:32.945Z</time>
      </trkpt>
      <trkpt lat="43.23886" lon="2.23326">
        <ele>167.170691</ele>
        <time>2023-01-05T11:57:35.930Z</time>
      </trkpt>
      <trkpt lat="43.23895" lon="2.23331">
        <ele>167.230292</ele>
        <time>2023-01-05T11:57:38.928Z</time>
      </trkpt>
      <trkpt lat="43.23904" lon="2.23336">
        <ele>167.038648</ele>
        <time>2023-01-05T11:57:41.929Z</time>
      </trkpt>
      <trkpt lat="43.23913" lon="2.2334">
        <ele>166.736792</ele>
        <time>2023-01-05T11:57:45.938Z</time>
      </trkpt>
      <trkpt lat="43.23921" lon="2.23346">
        <ele>166.473813</ele>
        <time>2023-01-05T11:57:49.928Z</time>
      </trkpt>
      <trkpt lat="43.23932" lon="2.23353">
        <ele>166.143579</ele>
        <time>2023-01-05T11:57:53.925Z</time>
      </trkpt>
      <trkpt lat="43.2394" lon="2.23358">
        <ele>165.875338</ele>
        <time>2023-01-05T11:57:56.946Z</time>
      </trkpt>
      <trkpt lat="43.23948" lon="2.23362">
        <ele>165.613518</ele>
        <time>2023-01-05T11:57:59.925Z</time>
      </trkpt>
      <trkpt lat="43.23957" lon="2.23369">
        <ele>165.312462</ele>
        <time>2023-01-05T11:58:02.924Z</time>
      </trkpt>
      <trkpt lat="43.23963" lon="2.23381">
        <ele>165.007475</ele>
        <time>2023-01-05T11:58:05.948Z</time>
      </trkpt>
      <trkpt lat="43.23968" lon="2.23395">
        <ele>164.680859</ele>
        <time>2023-01-05T11:58:08.926Z</time>
      </trkpt>
      <trkpt lat="43.23974" lon="2.2341">
        <ele>164.316788</ele>
        <time>2023-01-05T11:58:11.949Z</time>
      </trkpt>
      <trkpt lat="43.23978" lon="2.23422">
        <ele>164.033549</ele>
        <time>2023-01-05T11:58:13.944Z</time>
      </trkpt>
      <trkpt lat="43.23982" lon="2.23434">
        <ele>163.738012</ele>
        <time>2023-01-05T11:58:15.934Z</time>
      </trkpt>
      <trkpt lat="43.23984" lon="2.23449">
        <ele>163.429742</ele>
        <time>2023-01-05T11:58:17.926Z</time>
      </trkpt>
      <trkpt lat="43.23985" lon="2.23464">
        <ele>163.111399</ele>
        <time>2023-01-05T11:58:19.926Z</time>
      </trkpt>
      <trkpt lat="43.23987" lon="2.23476">
        <ele>162.83765</ele>
        <time>2023-01-05T11:58:21.931Z</time>
      </trkpt>
      <trkpt lat="43.23992" lon="2.23492">
        <ele>162.47181</ele>
        <time>2023-01-05T11:58:24.962Z</time>
      </trkpt>
      <trkpt lat="43.23996" lon="2.23504">
        <ele>162.178194</ele>
        <time>2023-01-05T11:58:27.950Z</time>
      </trkpt>
      <trkpt lat="43.24001" lon="2.23518">
        <ele>161.972485</ele>
        <time>2023-01-05T11:58:31.932Z</time>
      </trkpt>
      <trkpt lat="43.23998" lon="2.2353">
        <ele>161.933532</ele>
        <time>2023-01-05T11:58:34.946Z</time>
      </trkpt>
      <trkpt lat="43.23993" lon="2.23543">
        <ele>161.888942</ele>
        <time>2023-01-05T11:58:37.929Z</time>
      </trkpt>
      <trkpt lat="43.23986" lon="2.23556">
        <ele>161.840099</ele>
        <time>2023-01-05T11:58:40.949Z</time>
      </trkpt>
      <trkpt lat="43.23979" lon="2.2357">
        <ele>161.790469</ele>
        <time>2023-01-05T11:58:43.933Z</time>
      </trkpt>
      <trkpt lat="43.23973" lon="2.23584">
        <ele>161.742454</ele>
        <time>2023-01-05T11:58:46.949Z</time>
      </trkpt>
      <trkpt lat="43.23968" lon="2.23598">
        <ele>161.694829</ele>
        <time>2023-01-05T11:58:49.927Z</time>
      </trkpt>
      <trkpt lat="43.23963" lon="2.23612">
        <ele>161.647557</ele>
        <time>2023-01-05T11:58:52.948Z</time>
      </trkpt>
      <trkpt lat="43.23959" lon="2.23626">
        <ele>161.60045</ele>
        <time>2023-01-05T11:58:55.929Z</time>
      </trkpt>
      <trkpt lat="43.23955" lon="2.23641">
        <ele>161.555111</ele>
        <time>2023-01-05T11:58:58.950Z</time>
      </trkpt>
      <trkpt lat="43.23952" lon="2.23657">
        <ele>161.505407</ele>
        <time>2023-01-05T11:59:01.930Z</time>
      </trkpt>
      <trkpt lat="43.23949" lon="2.23674">
        <ele>161.450451</ele>
        <time>2023-01-05T11:59:04.929Z</time>
      </trkpt>
      <trkpt lat="43.23946" lon="2.23687">
        <ele>161.412236</ele>
        <time>2023-01-05T11:59:06.944Z</time>
      </trkpt>
      <trkpt lat="43.23944" lon="2.23699">
        <ele>161.374729</ele>
        <time>2023-01-05T11:59:08.948Z</time>
      </trkpt>
      <trkpt lat="43.23942" lon="2.23711">
        <ele>161.337134</ele>
        <time>2023-01-05T11:59:10.932Z</time>
      </trkpt>
      <trkpt lat="43.2394" lon="2.23723">
        <ele>161.2999</ele>
        <time>2023-01-05T11:59:12.941Z</time>
      </trkpt>
      <trkpt lat="43.23936" lon="2.23741">
        <ele>161.227429</ele>
        <time>2023-01-05T11:59:15.928Z</time>
      </trkpt>
      <trkpt lat="43.23934" lon="2.23753">
        <ele>160.980576</ele>
        <time>2023-01-05T11:59:17.928Z</time>
      </trkpt>
      <trkpt lat="43.23931" lon="2.23766">
        <ele>160.730796</ele>
        <time>2023-01-05T11:59:19.930Z</time>
      </trkpt>
      <trkpt lat="43.23928" lon="2.23779">
        <ele>160.466164</ele>
        <time>2023-01-05T11:59:21.932Z</time>
      </trkpt>
      <trkpt lat="43.23925" lon="2.23793">
        <ele>160.196008</ele>
        <time>2023-01-05T11:59:23.928Z</time>
      </trkpt>
      <trkpt lat="43.23921" lon="2.23806">
        <ele>159.92514</ele>
        <time>2023-01-05T11:59:25.926Z</time>
      </trkpt>
      <trkpt lat="43.23918" lon="2.2382">
        <ele>159.649765</ele>
        <time>2023-01-05T11:59:27.944Z</time>
      </trkpt>
      <trkpt lat="43.23914" lon="2.23833">
        <ele>159.376436</ele>
        <time>2023-01-05T11:59:29.931Z</time>
      </trkpt>
      <trkpt lat="43.2391" lon="2.23847">
        <ele>159.094918</ele>
        <time>2023-01-05T11:59:31.934Z</time>
      </trkpt>
      <trkpt lat="43.23906" lon="2.23861">
        <ele>158.821393</ele>
        <time>2023-01-05T11:59:33.929Z</time>
      </trkpt>
      <trkpt lat="43.23902" lon="2.23874">
        <ele>158.552892</ele>
        <time>2023-01-05T11:59:35.934Z</time>
      </trkpt>
      <trkpt lat="43.23899" lon="2.23887">
        <ele>158.285384</ele>
        <time>2023-01-05T11:59:37.936Z</time>
      </trkpt>
      <trkpt lat="43.23894" lon="2.23901">
        <ele>158.003652</ele>
        <time>2023-01-05T11:59:39.929Z</time>
      </trkpt>
      <trkpt lat="43.2389" lon="2.23914">
        <ele>157.738869</ele>
        <time>2023-01-05T11:59:41.926Z</time>
      </trkpt>
      <trkpt lat="43.23886" lon="2.23927">
        <ele>157.466102</ele>
        <time>2023-01-05T11:59:43.936Z</time>
      </trkpt>
      <trkpt lat="43.23881" lon="2.23941">
        <ele>157.172993</ele>
        <time>2023-01-05T11:59:45.929Z</time>
      </trkpt>
      <trkpt lat="43.23877" lon="2.23955">
        <ele>156.888241</ele>
        <time>2023-01-05T11:59:47.925Z</time>
      </trkpt>
      <trkpt lat="43.23873" lon="2.23969">
        <ele>156.606256</ele>
        <time>2023-01-05T11:59:49.925Z</time>
      </trkpt>
      <trkpt lat="43.23868" lon="2.23983">
        <ele>156.699401</ele>
        <time>2023-01-05T11:59:51.927Z</time>
      </trkpt>
      <trkpt lat="43.23864" lon="2.23997">
        <ele>156.83227</ele>
        <time>2023-01-05T11:59:53.921Z</time>
      </trkpt>
      <trkpt lat="43.2386" lon="2.24012">
        <ele>156.968246</ele>
        <time>2023-01-05T11:59:55.946Z</time>
      </trkpt>
      <trkpt lat="43.23857" lon="2.24027">
        <ele>157.102023</ele>
        <time>2023-01-05T11:59:57.948Z</time>
      </trkpt>
      <trkpt lat="43.23853" lon="2.24042">
        <ele>157.234167</ele>
        <time>2023-01-05T11:59:59.925Z</time>
      </trkpt>
      <trkpt lat="43.23851" lon="2.24057">
        <ele>157.365254</ele>
        <time>2023-01-05T12:00:01.948Z</time>
      </trkpt>
      <trkpt lat="43.23848" lon="2.24072">
        <ele>157.499939</ele>
        <time>2023-01-05T12:00:03.942Z</time>
      </trkpt>
      <trkpt lat="43.23845" lon="2.24087">
        <ele>157.632969</ele>
        <time>2023-01-05T12:00:05.933Z</time>
      </trkpt>
      <trkpt lat="43.23842" lon="2.24103">
        <ele>157.76931</ele>
        <time>2023-01-05T12:00:07.936Z</time>
      </trkpt>
      <trkpt lat="43.23839" lon="2.24118">
        <ele>157.902114</ele>
        <time>2023-01-05T12:00:09.928Z</time>
      </trkpt>
      <trkpt lat="43.23836" lon="2.24133">
        <ele>158.036565</ele>
        <time>2023-01-05T12:00:11.930Z</time>
      </trkpt>
      <trkpt lat="43.23833" lon="2.24148">
        <ele>158.172907</ele>
        <time>2023-01-05T12:00:13.930Z</time>
      </trkpt>
      <trkpt lat="43.23831" lon="2.24164">
        <ele>158.308704</ele>
        <time>2023-01-05T12:00:15.939Z</time>
      </trkpt>
      <trkpt lat="43.23828" lon="2.2418">
        <ele>158.448932</ele>
        <time>2023-01-05T12:00:17.934Z</time>
      </trkpt>
      <trkpt lat="43.23825" lon="2.24195">
        <ele>158.583638</ele>
        <time>2023-01-05T12:00:19.936Z</time>
      </trkpt>
      <trkpt lat="43.23823" lon="2.2421">
        <ele>158.714032</ele>
        <time>2023-01-05T12:00:21.937Z</time>
      </trkpt>
      <trkpt lat="43.2382" lon="2.24226">
        <ele>158.832786</ele>
        <time>2023-01-05T12:00:23.950Z</time>
      </trkpt>
      <trkpt lat="43.23817" lon="2.24242">
        <ele>158.947799</ele>
        <time>2023-01-05T12:00:25.930Z</time>
      </trkpt>
      <trkpt lat="43.23815" lon="2.24257">
        <ele>159.060603</ele>
        <time>2023-01-05T12:00:27.951Z</time>
      </trkpt>
      <trkpt lat="43.23813" lon="2.24271">
        <ele>159.170004</ele>
        <time>2023-01-05T12:00:29.932Z</time>
      </trkpt>
      <trkpt lat="43.23812" lon="2.24286">
        <ele>159.278149</ele>
        <time>2023-01-05T12:00:31.951Z</time>
      </trkpt>
      <trkpt lat="43.23811" lon="2.243">
        <ele>159.379047</ele>
        <time>2023-01-05T12:00:33.952Z</time>
      </trkpt>
      <trkpt lat="43.2381" lon="2.24314">
        <ele>159.483789</ele>
        <time>2023-01-05T12:00:35.928Z</time>
      </trkpt>
      <trkpt lat="43.2381" lon="2.24328">
        <ele>159.583117</ele>
        <time>2023-01-05T12:00:37.950Z</time>
      </trkpt>
      <trkpt lat="43.2381" lon="2.24341">
        <ele>159.683176</ele>
        <time>2023-01-05T12:00:39.933Z</time>
      </trkpt>
      <trkpt lat="43.23809" lon="2.24355">
        <ele>159.784457</ele>
        <time>2023-01-05T12:00:41.952Z</time>
      </trkpt>
      <trkpt lat="43.23808" lon="2.24369">
        <ele>159.887553</ele>
        <time>2023-01-05T12:00:43.932Z</time>
      </trkpt>
      <trkpt lat="43.23808" lon="2.24384">
        <ele>159.991263</ele>
        <time>2023-01-05T12:00:45.948Z</time>
      </trkpt>
      <trkpt lat="43.23807" lon="2.24398">
        <ele>160.0966</ele>
        <time>2023-01-05T12:00:47.938Z</time>
      </trkpt>
      <trkpt lat="43.23807" lon="2.24412">
        <ele>160.195928</ele>
        <time>2023-01-05T12:00:49.946Z</time>
      </trkpt>
      <trkpt lat="43.23807" lon="2.24426">
        <ele>160.299711</ele>
        <time>2023-01-05T12:00:51.934Z</time>
      </trkpt>
      <trkpt lat="43.23806" lon="2.24441">
        <ele>160.410832</ele>
        <time>2023-01-05T12:00:53.951Z</time>
      </trkpt>
      <trkpt lat="43.23805" lon="2.24456">
        <ele>160.499809</ele>
        <time>2023-01-05T12:00:55.964Z</time>
      </trkpt>
      <trkpt lat="43.23804" lon="2.24472">
        <ele>160.528137</ele>
        <time>2023-01-05T12:00:57.937Z</time>
      </trkpt>
      <trkpt lat="43.23802" lon="2.24488">
        <ele>160.557989</ele>
        <time>2023-01-05T12:00:59.939Z</time>
      </trkpt>
      <trkpt lat="43.238" lon="2.24503">
        <ele>160.586898</ele>
        <time>2023-01-05T12:01:01.950Z</time>
      </trkpt>
      <trkpt lat="43.23798" lon="2.24519">
        <ele>160.616521</ele>
        <time>2023-01-05T12:01:03.928Z</time>
      </trkpt>
      <trkpt lat="43.23796" lon="2.24535">
        <ele>160.644848</ele>
        <time>2023-01-05T12:01:05.946Z</time>
      </trkpt>
      <trkpt lat="43.23794" lon="2.2455">
        <ele>160.674119</ele>
        <time>2023-01-05T12:01:07.933Z</time>
      </trkpt>
      <trkpt lat="43.23792" lon="2.24565">
        <ele>160.701041</ele>
        <time>2023-01-05T12:01:09.961Z</time>
      </trkpt>
      <trkpt lat="43.23791" lon="2.2458">
        <ele>160.728866</ele>
        <time>2023-01-05T12:01:11.929Z</time>
      </trkpt>
      <trkpt lat="43.23789" lon="2.24595">
        <ele>160.756397</ele>
        <time>2023-01-05T12:01:13.933Z</time>
      </trkpt>
      <trkpt lat="43.23787" lon="2.2461">
        <ele>160.784264</ele>
        <time>2023-01-05T12:01:15.925Z</time>
      </trkpt>
      <trkpt lat="43.23785" lon="2.24624">
        <ele>160.810242</ele>
        <time>2023-01-05T12:01:17.942Z</time>
      </trkpt>
      <trkpt lat="43.23784" lon="2.24638">
        <ele>160.83622</ele>
        <time>2023-01-05T12:01:19.932Z</time>
      </trkpt>
      <trkpt lat="43.23782" lon="2.24653">
        <ele>160.863933</ele>
        <time>2023-01-05T12:01:21.951Z</time>
      </trkpt>
      <trkpt lat="43.23781" lon="2.24666">
        <ele>160.889254</ele>
        <time>2023-01-05T12:01:23.951Z</time>
      </trkpt>
      <trkpt lat="43.23779" lon="2.2468">
        <ele>160.91443</ele>
        <time>2023-01-05T12:01:25.951Z</time>
      </trkpt>
      <trkpt lat="43.23778" lon="2.24694">
        <ele>160.940873</ele>
        <time>2023-01-05T12:01:27.933Z</time>
      </trkpt>
      <trkpt lat="43.23776" lon="2.24708">
        <ele>161.034863</ele>
        <time>2023-01-05T12:01:29.929Z</time>
      </trkpt>
      <trkpt lat="43.23774" lon="2.24723">
        <ele>161.144134</ele>
        <time>2023-01-05T12:01:31.930Z</time>
      </trkpt>
      <trkpt lat="43.23772" lon="2.24737">
        <ele>161.245211</ele>
        <time>2023-01-05T12:01:33.936Z</time>
      </trkpt>
      <trkpt lat="43.23769" lon="2.2475">
        <ele>161.346439</ele>
        <time>2023-01-05T12:01:35.960Z</time>
      </trkpt>
      <trkpt lat="43.23767" lon="2.24763">
        <ele>161.442567</ele>
        <time>2023-01-05T12:01:37.932Z</time>
      </trkpt>
      <trkpt lat="43.23764" lon="2.24776">
        <ele>161.540229</ele>
        <time>2023-01-05T12:01:39.952Z</time>
      </trkpt>
      <trkpt lat="43.23761" lon="2.24789">
        <ele>161.640805</ele>
        <time>2023-01-05T12:01:41.924Z</time>
      </trkpt>
      <trkpt lat="43.23759" lon="2.24803">
        <ele>161.739291</ele>
        <time>2023-01-05T12:01:43.952Z</time>
      </trkpt>
      <trkpt lat="43.23756" lon="2.24816">
        <ele>161.836814</ele>
        <time>2023-01-05T12:01:45.927Z</time>
      </trkpt>
      <trkpt lat="43.23753" lon="2.24829">
        <ele>161.938785</ele>
        <time>2023-01-05T12:01:47.931Z</time>
      </trkpt>
      <trkpt lat="43.23751" lon="2.24842">
        <ele>162.036502</ele>
        <time>2023-01-05T12:01:49.952Z</time>
      </trkpt>
      <trkpt lat="43.23748" lon="2.24855">
        <ele>162.136831</ele>
        <time>2023-01-05T12:01:51.932Z</time>
      </trkpt>
      <trkpt lat="43.23745" lon="2.24869">
        <ele>162.239626</ele>
        <time>2023-01-05T12:01:53.932Z</time>
      </trkpt>
      <trkpt lat="43.23742" lon="2.24882">
        <ele>162.339578</ele>
        <time>2023-01-05T12:01:55.949Z</time>
      </trkpt>
      <trkpt lat="43.23738" lon="2.24896">
        <ele>162.442226</ele>
        <time>2023-01-05T12:01:57.949Z</time>
      </trkpt>
      <trkpt lat="43.23734" lon="2.24908">
        <ele>162.538493</ele>
        <time>2023-01-05T12:01:59.952Z</time>
      </trkpt>
      <trkpt lat="43.23731" lon="2.24921">
        <ele>162.641168</ele>
        <time>2023-01-05T12:02:01.938Z</time>
      </trkpt>
      <trkpt lat="43.23727" lon="2.24934">
        <ele>162.751073</ele>
        <time>2023-01-05T12:02:03.950Z</time>
      </trkpt>
      <trkpt lat="43.23723" lon="2.24947">
        <ele>162.949176</ele>
        <time>2023-01-05T12:02:05.954Z</time>
      </trkpt>
      <trkpt lat="43.2372" lon="2.2496">
        <ele>163.148617</ele>
        <time>2023-01-05T12:02:07.953Z</time>
      </trkpt>
      <trkpt lat="43.23716" lon="2.24972">
        <ele>163.337974</ele>
        <time>2023-01-05T12:02:09.930Z</time>
      </trkpt>
      <trkpt lat="43.23712" lon="2.24984">
        <ele>163.531498</ele>
        <time>2023-01-05T12:02:11.949Z</time>
      </trkpt>
      <trkpt lat="43.23709" lon="2.24996">
        <ele>163.722189</ele>
        <time>2023-01-05T12:02:13.951Z</time>
      </trkpt>
      <trkpt lat="43.23705" lon="2.25009">
        <ele>163.914651</ele>
        <time>2023-01-05T12:02:15.933Z</time>
      </trkpt>
      <trkpt lat="43.23701" lon="2.25021">
        <ele>164.104759</ele>
        <time>2023-01-05T12:02:17.935Z</time>
      </trkpt>
      <trkpt lat="43.23697" lon="2.25034">
        <ele>164.302143</ele>
        <time>2023-01-05T12:02:19.935Z</time>
      </trkpt>
      <trkpt lat="43.23694" lon="2.25046">
        <ele>164.495439</ele>
        <time>2023-01-05T12:02:21.934Z</time>
      </trkpt>
      <trkpt lat="43.2369" lon="2.25059">
        <ele>164.696167</ele>
        <time>2023-01-05T12:02:23.935Z</time>
      </trkpt>
      <trkpt lat="43.23687" lon="2.25072">
        <ele>164.891019</ele>
        <time>2023-01-05T12:02:25.952Z</time>
      </trkpt>
      <trkpt lat="43.23683" lon="2.25084">
        <ele>165.07893</ele>
        <time>2023-01-05T12:02:27.931Z</time>
      </trkpt>
      <trkpt lat="43.2368" lon="2.25096">
        <ele>165.261442</ele>
        <time>2023-01-05T12:02:29.938Z</time>
      </trkpt>
      <trkpt lat="43.23677" lon="2.25108">
        <ele>165.444604</ele>
        <time>2023-01-05T12:02:31.931Z</time>
      </trkpt>
      <trkpt lat="43.23674" lon="2.2512">
        <ele>165.630482</ele>
        <time>2023-01-05T12:02:33.935Z</time>
      </trkpt>
      <trkpt lat="43.23671" lon="2.25133">
        <ele>165.817491</ele>
        <time>2023-01-05T12:02:35.953Z</time>
      </trkpt>
      <trkpt lat="43.23669" lon="2.25145">
        <ele>165.999543</ele>
        <time>2023-01-05T12:02:37.932Z</time>
      </trkpt>
      <trkpt lat="43.23666" lon="2.25157">
        <ele>166.180477</ele>
        <time>2023-01-05T12:02:39.950Z</time>
      </trkpt>
      <trkpt lat="43.23663" lon="2.25173">
        <ele>166.424405</ele>
        <time>2023-01-05T12:02:42.948Z</time>
      </trkpt>
      <trkpt lat="43.23659" lon="2.25189">
        <ele>166.67174</ele>
        <time>2023-01-05T12:02:45.925Z</time>
      </trkpt>
      <trkpt lat="43.23656" lon="2.25204">
        <ele>166.908885</ele>
        <time>2023-01-05T12:02:48.949Z</time>
      </trkpt>
      <trkpt lat="43.23652" lon="2.25218">
        <ele>167.129317</ele>
        <time>2023-01-05T12:02:51.932Z</time>
      </trkpt>
      <trkpt lat="43.23649" lon="2.25232">
        <ele>167.34772</ele>
        <time>2023-01-05T12:02:54.950Z</time>
      </trkpt>
      <trkpt lat="43.23647" lon="2.25245">
        <ele>167.548405</ele>
        <time>2023-01-05T12:02:57.951Z</time>
      </trkpt>
      <trkpt lat="43.23644" lon="2.25257">
        <ele>167.740749</ele>
        <time>2023-01-05T12:03:00.952Z</time>
      </trkpt>
      <trkpt lat="43.23641" lon="2.25269">
        <ele>167.931911</ele>
        <time>2023-01-05T12:03:03.928Z</time>
      </trkpt>
      <trkpt lat="43.23639" lon="2.25282">
        <ele>168.11757</ele>
        <time>2023-01-05T12:03:06.923Z</time>
      </trkpt>
      <trkpt lat="43.23637" lon="2.25294">
        <ele>168.307885</ele>
        <time>2023-01-05T12:03:09.921Z</time>
      </trkpt>
      <trkpt lat="43.23634" lon="2.25306">
        <ele>168.493321</ele>
        <time>2023-01-05T12:03:12.930Z</time>
      </trkpt>
      <trkpt lat="43.23632" lon="2.2532">
        <ele>168.704801</ele>
        <time>2023-01-05T12:03:15.926Z</time>
      </trkpt>
      <trkpt lat="43.23629" lon="2.25333">
        <ele>168.913225</ele>
        <time>2023-01-05T12:03:18.941Z</time>
      </trkpt>
      <trkpt lat="43.23627" lon="2.25349">
        <ele>169.150394</ele>
        <time>2023-01-05T12:03:21.925Z</time>
      </trkpt>
      <trkpt lat="43.23625" lon="2.25366">
        <ele>169.418915</ele>
        <time>2023-01-05T12:03:24.947Z</time>
      </trkpt>
      <trkpt lat="43.23622" lon="2.25384">
        <ele>169.690722</ele>
        <time>2023-01-05T12:03:27.939Z</time>
      </trkpt>
      <trkpt lat="43.2362" lon="2.25402">
        <ele>169.958368</ele>
        <time>2023-01-05T12:03:30.933Z</time>
      </trkpt>
      <trkpt lat="43.23617" lon="2.25418">
        <ele>170.03753</ele>
        <time>2023-01-05T12:03:33.945Z</time>
      </trkpt>
      <trkpt lat="43.23615" lon="2.25434">
        <ele>170.111593</ele>
        <time>2023-01-05T12:03:36.928Z</time>
      </trkpt>
      <trkpt lat="43.23613" lon="2.25451">
        <ele>170.189625</ele>
        <time>2023-01-05T12:03:39.932Z</time>
      </trkpt>
      <trkpt lat="43.2361" lon="2.25468">
        <ele>170.267134</ele>
        <time>2023-01-05T12:03:42.949Z</time>
      </trkpt>
      <trkpt lat="43.23608" lon="2.25486">
        <ele>170.34728</ele>
        <time>2023-01-05T12:03:45.942Z</time>
      </trkpt>
      <trkpt lat="43.23605" lon="2.25502">
        <ele>170.424545</ele>
        <time>2023-01-05T12:03:48.956Z</time>
      </trkpt>
      <trkpt lat="43.23602" lon="2.25519">
        <ele>170.501308</ele>
        <time>2023-01-05T12:03:51.951Z</time>
      </trkpt>
      <trkpt lat="43.236" lon="2.25536">
        <ele>170.579568</ele>
        <time>2023-01-05T12:03:54.945Z</time>
      </trkpt>
      <trkpt lat="43.23598" lon="2.25553">
        <ele>170.655761</ele>
        <time>2023-01-05T12:03:57.947Z</time>
      </trkpt>
      <trkpt lat="43.23596" lon="2.25569">
        <ele>170.730629</ele>
        <time>2023-01-05T12:04:00.936Z</time>
      </trkpt>
      <trkpt lat="43.23593" lon="2.25586">
        <ele>170.806217</ele>
        <time>2023-01-05T12:04:03.936Z</time>
      </trkpt>
      <trkpt lat="43.2359" lon="2.25602">
        <ele>170.882104</ele>
        <time>2023-01-05T12:04:06.929Z</time>
      </trkpt>
      <trkpt lat="43.23588" lon="2.25619">
        <ele>170.957116</ele>
        <time>2023-01-05T12:04:09.929Z</time>
      </trkpt>
      <trkpt lat="43.23585" lon="2.25634">
        <ele>171.02722</ele>
        <time>2023-01-05T12:04:12.933Z</time>
      </trkpt>
      <trkpt lat="43.23584" lon="2.25649">
        <ele>171.146713</ele>
        <time>2023-01-05T12:04:15.928Z</time>
      </trkpt>
      <trkpt lat="43.23582" lon="2.25664">
        <ele>171.386112</ele>
        <time>2023-01-05T12:04:18.950Z</time>
      </trkpt>
      <trkpt lat="43.23579" lon="2.25678">
        <ele>171.613778</ele>
        <time>2023-01-05T12:04:21.948Z</time>
      </trkpt>
      <trkpt lat="43.23577" lon="2.25693">
        <ele>171.842088</ele>
        <time>2023-01-05T12:04:24.950Z</time>
      </trkpt>
      <trkpt lat="43.23575" lon="2.25707">
        <ele>172.063687</ele>
        <time>2023-01-05T12:04:27.948Z</time>
      </trkpt>
      <trkpt lat="43.23573" lon="2.25721">
        <ele>172.283169</ele>
        <time>2023-01-05T12:04:30.933Z</time>
      </trkpt>
      <trkpt lat="43.23571" lon="2.25734">
        <ele>172.49975</ele>
        <time>2023-01-05T12:04:33.955Z</time>
      </trkpt>
      <trkpt lat="43.23569" lon="2.25748">
        <ele>172.715803</ele>
        <time>2023-01-05T12:04:36.950Z</time>
      </trkpt>
      <trkpt lat="43.23568" lon="2.25761">
        <ele>172.929974</ele>
        <time>2023-01-05T12:04:39.948Z</time>
      </trkpt>
      <trkpt lat="43.23566" lon="2.25777">
        <ele>173.178527</ele>
        <time>2023-01-05T12:04:43.949Z</time>
      </trkpt>
      <trkpt lat="43.23563" lon="2.25792">
        <ele>173.41227</ele>
        <time>2023-01-05T12:04:47.931Z</time>
      </trkpt>
      <trkpt lat="43.23561" lon="2.25807">
        <ele>173.660593</ele>
        <time>2023-01-05T12:04:51.929Z</time>
      </trkpt>
      <trkpt lat="43.23559" lon="2.2582">
        <ele>173.858684</ele>
        <time>2023-01-05T12:04:54.919Z</time>
      </trkpt>
      <trkpt lat="43.23557" lon="2.25832">
        <ele>174.053725</ele>
        <time>2023-01-05T12:04:57.949Z</time>
      </trkpt>
      <trkpt lat="43.23556" lon="2.25845">
        <ele>174.247607</ele>
        <time>2023-01-05T12:05:00.936Z</time>
      </trkpt>
      <trkpt lat="43.23553" lon="2.25861">
        <ele>174.501568</ele>
        <time>2023-01-05T12:05:04.950Z</time>
      </trkpt>
      <trkpt lat="43.2355" lon="2.25876">
        <ele>174.754365</ele>
        <time>2023-01-05T12:05:08.945Z</time>
      </trkpt>
      <trkpt lat="43.23548" lon="2.25892">
        <ele>175.127717</ele>
        <time>2023-01-05T12:05:12.950Z</time>
      </trkpt>
      <trkpt lat="43.23546" lon="2.25907">
        <ele>175.730822</ele>
        <time>2023-01-05T12:05:16.930Z</time>
      </trkpt>
      <trkpt lat="43.23544" lon="2.25923">
        <ele>176.361159</ele>
        <time>2023-01-05T12:05:20.924Z</time>
      </trkpt>
      <trkpt lat="43.23541" lon="2.25937">
        <ele>176.938017</ele>
        <time>2023-01-05T12:05:24.925Z</time>
      </trkpt>
      <trkpt lat="43.2354" lon="2.2595">
        <ele>177.448596</ele>
        <time>2023-01-05T12:05:28.938Z</time>
      </trkpt>
      <trkpt lat="43.23537" lon="2.25963">
        <ele>177.979793</ele>
        <time>2023-01-05T12:05:32.942Z</time>
      </trkpt>
      <trkpt lat="43.23535" lon="2.25977">
        <ele>178.519773</ele>
        <time>2023-01-05T12:05:36.930Z</time>
      </trkpt>
      <trkpt lat="43.23532" lon="2.2599">
        <ele>179.057212</ele>
        <time>2023-01-05T12:05:40.925Z</time>
      </trkpt>
      <trkpt lat="43.23531" lon="2.26004">
        <ele>179.592728</ele>
        <time>2023-01-05T12:05:44.923Z</time>
      </trkpt>
      <trkpt lat="43.23528" lon="2.26017">
        <ele>180.126566</ele>
        <time>2023-01-05T12:05:48.964Z</time>
      </trkpt>
      <trkpt lat="43.23527" lon="2.26029">
        <ele>180.609366</ele>
        <time>2023-01-05T12:05:52.939Z</time>
      </trkpt>
      <trkpt lat="43.23525" lon="2.26042">
        <ele>181.099074</ele>
        <time>2023-01-05T12:05:56.935Z</time>
      </trkpt>
      <trkpt lat="43.23523" lon="2.26054">
        <ele>181.578042</ele>
        <time>2023-01-05T12:06:00.937Z</time>
      </trkpt>
      <trkpt lat="43.2352" lon="2.26066">
        <ele>182.068485</ele>
        <time>2023-01-05T12:06:04.947Z</time>
      </trkpt>
      <trkpt lat="43.23518" lon="2.26079">
        <ele>182.622332</ele>
        <time>2023-01-05T12:06:09.928Z</time>
      </trkpt>
      <trkpt lat="43.23515" lon="2.26093">
        <ele>183.17618</ele>
        <time>2023-01-05T12:06:14.945Z</time>
      </trkpt>
      <trkpt lat="43.23512" lon="2.26106">
        <ele>183.692204</ele>
        <time>2023-01-05T12:06:19.948Z</time>
      </trkpt>
      <trkpt lat="43.23508" lon="2.26119">
        <ele>184.235648</ele>
        <time>2023-01-05T12:06:24.931Z</time>
      </trkpt>
      <trkpt lat="43.23507" lon="2.26132">
        <ele>184.684216</ele>
        <time>2023-01-05T12:06:29.929Z</time>
      </trkpt>
      <trkpt lat="43.23503" lon="2.26146">
        <ele>185.090536</ele>
        <time>2023-01-05T12:06:35.947Z</time>
      </trkpt>
      <trkpt lat="43.23501" lon="2.26158">
        <ele>185.450351</ele>
        <time>2023-01-05T12:06:40.951Z</time>
      </trkpt>
      <trkpt lat="43.23496" lon="2.26169">
        <ele>185.800289</ele>
        <time>2023-01-05T12:06:45.929Z</time>
      </trkpt>
      <trkpt lat="43.23493" lon="2.26181">
        <ele>186.159875</ele>
        <time>2023-01-05T12:06:50.938Z</time>
      </trkpt>
      <trkpt lat="43.23489" lon="2.26193">
        <ele>186.501219</ele>
        <time>2023-01-05T12:06:55.928Z</time>
      </trkpt>
      <trkpt lat="43.23486" lon="2.26204">
        <ele>186.849176</ele>
        <time>2023-01-05T12:07:00.938Z</time>
      </trkpt>
      <trkpt lat="43.23481" lon="2.26216">
        <ele>187.223933</ele>
        <time>2023-01-05T12:07:05.948Z</time>
      </trkpt>
      <trkpt lat="43.23477" lon="2.26228">
        <ele>187.58797</ele>
        <time>2023-01-05T12:07:10.932Z</time>
      </trkpt>
      <trkpt lat="43.23473" lon="2.2624">
        <ele>187.950524</ele>
        <time>2023-01-05T12:07:15.942Z</time>
      </trkpt>
      <trkpt lat="43.23469" lon="2.26253">
        <ele>188.334939</ele>
        <time>2023-01-05T12:07:20.929Z</time>
      </trkpt>
      <trkpt lat="43.23464" lon="2.26265">
        <ele>188.719384</ele>
        <time>2023-01-05T12:07:25.928Z</time>
      </trkpt>
      <trkpt lat="43.2346" lon="2.26277">
        <ele>189.101369</ele>
        <time>2023-01-05T12:07:30.931Z</time>
      </trkpt>
      <trkpt lat="43.23455" lon="2.26291">
        <ele>189.511536</ele>
        <time>2023-01-05T12:07:34.928Z</time>
      </trkpt>
      <trkpt lat="43.2345" lon="2.26305">
        <ele>189.956389</ele>
        <time>2023-01-05T12:07:38.938Z</time>
      </trkpt>
      <trkpt lat="43.23446" lon="2.26317">
        <ele>190.316749</ele>
        <time>2023-01-05T12:07:41.926Z</time>
      </trkpt>
      <trkpt lat="43.23441" lon="2.2633">
        <ele>190.726008</ele>
        <time>2023-01-05T12:07:44.933Z</time>
      </trkpt>
      <trkpt lat="43.23437" lon="2.26345">
        <ele>191.157891</ele>
        <time>2023-01-05T12:07:47.936Z</time>
      </trkpt>
      <trkpt lat="43.23432" lon="2.26359">
        <ele>191.289574</ele>
        <time>2023-01-05T12:07:50.948Z</time>
      </trkpt>
      <trkpt lat="43.23427" lon="2.26373">
        <ele>191.184976</ele>
        <time>2023-01-05T12:07:53.931Z</time>
      </trkpt>
      <trkpt lat="43.23423" lon="2.26387">
        <ele>191.082139</ele>
        <time>2023-01-05T12:07:56.923Z</time>
      </trkpt>
      <trkpt lat="43.23419" lon="2.264">
        <ele>190.984567</ele>
        <time>2023-01-05T12:07:59.924Z</time>
      </trkpt>
      <trkpt lat="43.23415" lon="2.26414">
        <ele>190.886205</ele>
        <time>2023-01-05T12:08:02.950Z</time>
      </trkpt>
      <trkpt lat="43.23411" lon="2.26428">
        <ele>190.782281</ele>
        <time>2023-01-05T12:08:05.936Z</time>
      </trkpt>
      <trkpt lat="43.23407" lon="2.26444">
        <ele>190.66843</ele>
        <time>2023-01-05T12:08:08.935Z</time>
      </trkpt>
      <trkpt lat="43.23402" lon="2.2646">
        <ele>190.546266</ele>
        <time>2023-01-05T12:08:11.950Z</time>
      </trkpt>
      <trkpt lat="43.23398" lon="2.26472">
        <ele>190.462033</ele>
        <time>2023-01-05T12:08:13.934Z</time>
      </trkpt>
      <trkpt lat="43.23393" lon="2.26489">
        <ele>190.336746</ele>
        <time>2023-01-05T12:08:16.931Z</time>
      </trkpt>
      <trkpt lat="43.23388" lon="2.26506">
        <ele>190.21252</ele>
        <time>2023-01-05T12:08:19.937Z</time>
      </trkpt>
      <trkpt lat="43.23384" lon="2.26517">
        <ele>190.128832</ele>
        <time>2023-01-05T12:08:21.951Z</time>
      </trkpt>
      <trkpt lat="43.23379" lon="2.26534">
        <ele>190.006038</ele>
        <time>2023-01-05T12:08:24.950Z</time>
      </trkpt>
      <trkpt lat="43.23375" lon="2.2655">
        <ele>189.88764</ele>
        <time>2023-01-05T12:08:27.935Z</time>
      </trkpt>
      <trkpt lat="43.2337" lon="2.26566">
        <ele>189.770645</ele>
        <time>2023-01-05T12:08:30.945Z</time>
      </trkpt>
      <trkpt lat="43.23366" lon="2.26582">
        <ele>189.675777</ele>
        <time>2023-01-05T12:08:33.933Z</time>
      </trkpt>
      <trkpt lat="43.23361" lon="2.26597">
        <ele>189.690872</ele>
        <time>2023-01-05T12:08:36.930Z</time>
      </trkpt>
      <trkpt lat="43.23356" lon="2.26613">
        <ele>189.706346</ele>
        <time>2023-01-05T12:08:39.933Z</time>
      </trkpt>
      <trkpt lat="43.23351" lon="2.26629">
        <ele>189.721643</ele>
        <time>2023-01-05T12:08:42.930Z</time>
      </trkpt>
      <trkpt lat="43.23347" lon="2.26645">
        <ele>189.737617</ele>
        <time>2023-01-05T12:08:45.935Z</time>
      </trkpt>
      <trkpt lat="43.23344" lon="2.26657">
        <ele>189.74881</ele>
        <time>2023-01-05T12:08:47.949Z</time>
      </trkpt>
      <trkpt lat="43.2334" lon="2.26669">
        <ele>189.760638</ele>
        <time>2023-01-05T12:08:49.930Z</time>
      </trkpt>
      <trkpt lat="43.23336" lon="2.26681">
        <ele>189.772584</ele>
        <time>2023-01-05T12:08:51.944Z</time>
      </trkpt>
      <trkpt lat="43.23332" lon="2.26695">
        <ele>189.785502</ele>
        <time>2023-01-05T12:08:53.930Z</time>
      </trkpt>
      <trkpt lat="43.23328" lon="2.26708">
        <ele>189.798688</ele>
        <time>2023-01-05T12:08:55.938Z</time>
      </trkpt>
      <trkpt lat="43.23324" lon="2.26721">
        <ele>189.811245</ele>
        <time>2023-01-05T12:08:57.948Z</time>
      </trkpt>
      <trkpt lat="43.2332" lon="2.26735">
        <ele>189.824657</ele>
        <time>2023-01-05T12:08:59.929Z</time>
      </trkpt>
      <trkpt lat="43.23316" lon="2.26748">
        <ele>189.837371</ele>
        <time>2023-01-05T12:09:01.949Z</time>
      </trkpt>
      <trkpt lat="43.23312" lon="2.26762">
        <ele>189.850948</ele>
        <time>2023-01-05T12:09:03.941Z</time>
      </trkpt>
      <trkpt lat="43.23308" lon="2.26776">
        <ele>189.864804</ele>
        <time>2023-01-05T12:09:05.930Z</time>
      </trkpt>
      <trkpt lat="43.23303" lon="2.26791">
        <ele>189.879105</ele>
        <time>2023-01-05T12:09:07.948Z</time>
      </trkpt>
      <trkpt lat="43.23299" lon="2.26806">
        <ele>189.893218</ele>
        <time>2023-01-05T12:09:09.933Z</time>
      </trkpt>
      <trkpt lat="43.23295" lon="2.2682">
        <ele>189.810582</ele>
        <time>2023-01-05T12:09:11.928Z</time>
      </trkpt>
      <trkpt lat="43.2329" lon="2.26836">
        <ele>189.707994</ele>
        <time>2023-01-05T12:09:13.935Z</time>
      </trkpt>
      <trkpt lat="43.23286" lon="2.26851">
        <ele>189.603873</ele>
        <time>2023-01-05T12:09:15.941Z</time>
      </trkpt>
      <trkpt lat="43.23281" lon="2.26866">
        <ele>189.501485</ele>
        <time>2023-01-05T12:09:17.927Z</time>
      </trkpt>
      <trkpt lat="43.23277" lon="2.26882">
        <ele>189.397144</ele>
        <time>2023-01-05T12:09:19.950Z</time>
      </trkpt>
      <trkpt lat="43.23273" lon="2.26898">
        <ele>189.290743</ele>
        <time>2023-01-05T12:09:21.930Z</time>
      </trkpt>
      <trkpt lat="43.23268" lon="2.26913">
        <ele>189.18456</ele>
        <time>2023-01-05T12:09:23.940Z</time>
      </trkpt>
      <trkpt lat="43.23263" lon="2.26929">
        <ele>189.079859</ele>
        <time>2023-01-05T12:09:25.950Z</time>
      </trkpt>
      <trkpt lat="43.23259" lon="2.26945">
        <ele>188.973998</ele>
        <time>2023-01-05T12:09:27.928Z</time>
      </trkpt>
      <trkpt lat="43.23254" lon="2.26961">
        <ele>188.867012</ele>
        <time>2023-01-05T12:09:29.949Z</time>
      </trkpt>
      <trkpt lat="43.2325" lon="2.26977">
        <ele>188.760611</ele>
        <time>2023-01-05T12:09:31.950Z</time>
      </trkpt>
      <trkpt lat="43.23245" lon="2.26992">
        <ele>188.6588</ele>
        <time>2023-01-05T12:09:33.939Z</time>
      </trkpt>
      <trkpt lat="43.23241" lon="2.27007">
        <ele>188.552983</ele>
        <time>2023-01-05T12:09:35.951Z</time>
      </trkpt>
      <trkpt lat="43.23236" lon="2.27023">
        <ele>188.446274</ele>
        <time>2023-01-05T12:09:37.952Z</time>
      </trkpt>
      <trkpt lat="43.23232" lon="2.27039">
        <ele>188.340436</ele>
        <time>2023-01-05T12:09:39.936Z</time>
      </trkpt>
      <trkpt lat="43.23227" lon="2.27055">
        <ele>188.232025</ele>
        <time>2023-01-05T12:09:41.951Z</time>
      </trkpt>
      <trkpt lat="43.23223" lon="2.27072">
        <ele>188.120691</ele>
        <time>2023-01-05T12:09:43.950Z</time>
      </trkpt>
      <trkpt lat="43.23218" lon="2.27088">
        <ele>188.00815</ele>
        <time>2023-01-05T12:09:45.934Z</time>
      </trkpt>
      <trkpt lat="43.23213" lon="2.27105">
        <ele>187.898293</ele>
        <time>2023-01-05T12:09:47.961Z</time>
      </trkpt>
      <trkpt lat="43.23209" lon="2.27121">
        <ele>187.787817</ele>
        <time>2023-01-05T12:09:49.932Z</time>
      </trkpt>
      <trkpt lat="43.23204" lon="2.27138">
        <ele>187.675896</ele>
        <time>2023-01-05T12:09:51.936Z</time>
      </trkpt>
      <trkpt lat="43.232" lon="2.27155">
        <ele>187.564277</ele>
        <time>2023-01-05T12:09:53.935Z</time>
      </trkpt>
      <trkpt lat="43.23195" lon="2.27171">
        <ele>187.453833</ele>
        <time>2023-01-05T12:09:55.942Z</time>
      </trkpt>
      <trkpt lat="43.23191" lon="2.27187">
        <ele>187.347677</ele>
        <time>2023-01-05T12:09:57.948Z</time>
      </trkpt>
      <trkpt lat="43.23186" lon="2.27203">
        <ele>187.240111</ele>
        <time>2023-01-05T12:09:59.936Z</time>
      </trkpt>
      <trkpt lat="43.23181" lon="2.27219">
        <ele>187.132317</ele>
        <time>2023-01-05T12:10:01.933Z</time>
      </trkpt>
      <trkpt lat="43.23177" lon="2.27234">
        <ele>187.029235</ele>
        <time>2023-01-05T12:10:03.929Z</time>
      </trkpt>
      <trkpt lat="43.23174" lon="2.2725">
        <ele>186.927029</ele>
        <time>2023-01-05T12:10:05.950Z</time>
      </trkpt>
      <trkpt lat="43.23169" lon="2.27265">
        <ele>186.82508</ele>
        <time>2023-01-05T12:10:07.939Z</time>
      </trkpt>
      <trkpt lat="43.23165" lon="2.2728">
        <ele>186.823003</ele>
        <time>2023-01-05T12:10:09.940Z</time>
      </trkpt>
      <trkpt lat="43.23161" lon="2.27295">
        <ele>186.847285</ele>
        <time>2023-01-05T12:10:11.930Z</time>
      </trkpt>
      <trkpt lat="43.23156" lon="2.27308">
        <ele>186.87029</ele>
        <time>2023-01-05T12:10:13.967Z</time>
      </trkpt>
      <trkpt lat="43.23152" lon="2.27322">
        <ele>186.89328</ele>
        <time>2023-01-05T12:10:15.950Z</time>
      </trkpt>
      <trkpt lat="43.23149" lon="2.27337">
        <ele>186.916623</ele>
        <time>2023-01-05T12:10:17.938Z</time>
      </trkpt>
      <trkpt lat="43.23145" lon="2.27351">
        <ele>186.939893</ele>
        <time>2023-01-05T12:10:19.927Z</time>
      </trkpt>
      <trkpt lat="43.23141" lon="2.27365">
        <ele>186.963962</ele>
        <time>2023-01-05T12:10:21.952Z</time>
      </trkpt>
      <trkpt lat="43.23137" lon="2.2738">
        <ele>186.987812</ele>
        <time>2023-01-05T12:10:23.932Z</time>
      </trkpt>
      <trkpt lat="43.23133" lon="2.27395">
        <ele>187.0126</ele>
        <time>2023-01-05T12:10:25.950Z</time>
      </trkpt>
      <trkpt lat="43.23129" lon="2.2741">
        <ele>187.036389</ele>
        <time>2023-01-05T12:10:27.939Z</time>
      </trkpt>
      <trkpt lat="43.23125" lon="2.27425">
        <ele>187.061707</ele>
        <time>2023-01-05T12:10:29.950Z</time>
      </trkpt>
      <trkpt lat="43.2312" lon="2.2744">
        <ele>187.087296</ele>
        <time>2023-01-05T12:10:31.956Z</time>
      </trkpt>
      <trkpt lat="43.23116" lon="2.27457">
        <ele>187.113818</ele>
        <time>2023-01-05T12:10:33.952Z</time>
      </trkpt>
      <trkpt lat="43.23111" lon="2.27472">
        <ele>187.140213</ele>
        <time>2023-01-05T12:10:35.952Z</time>
      </trkpt>
      <trkpt lat="43.23106" lon="2.27489">
        <ele>187.168271</ele>
        <time>2023-01-05T12:10:37.948Z</time>
      </trkpt>
      <trkpt lat="43.23101" lon="2.27506">
        <ele>187.114446</ele>
        <time>2023-01-05T12:10:39.931Z</time>
      </trkpt>
      <trkpt lat="43.23096" lon="2.27523">
        <ele>186.959591</ele>
        <time>2023-01-05T12:10:41.944Z</time>
      </trkpt>
      <trkpt lat="43.23091" lon="2.2754">
        <ele>186.807408</ele>
        <time>2023-01-05T12:10:43.952Z</time>
      </trkpt>
      <trkpt lat="43.23086" lon="2.27558">
        <ele>186.644914</ele>
        <time>2023-01-05T12:10:45.933Z</time>
      </trkpt>
      <trkpt lat="43.23081" lon="2.27575">
        <ele>186.48996</ele>
        <time>2023-01-05T12:10:47.934Z</time>
      </trkpt>
      <trkpt lat="43.23075" lon="2.27591">
        <ele>186.33573</ele>
        <time>2023-01-05T12:10:49.931Z</time>
      </trkpt>
      <trkpt lat="43.23069" lon="2.2761">
        <ele>186.166777</ele>
        <time>2023-01-05T12:10:51.927Z</time>
      </trkpt>
      <trkpt lat="43.23063" lon="2.27627">
        <ele>186.000696</ele>
        <time>2023-01-05T12:10:53.930Z</time>
      </trkpt>
      <trkpt lat="43.23057" lon="2.27645">
        <ele>185.84006</ele>
        <time>2023-01-05T12:10:55.931Z</time>
      </trkpt>
      <trkpt lat="43.23051" lon="2.27662">
        <ele>185.681535</ele>
        <time>2023-01-05T12:10:57.934Z</time>
      </trkpt>
      <trkpt lat="43.23046" lon="2.27678">
        <ele>185.528324</ele>
        <time>2023-01-05T12:10:59.929Z</time>
      </trkpt>
      <trkpt lat="43.2304" lon="2.27694">
        <ele>185.378362</ele>
        <time>2023-01-05T12:11:01.950Z</time>
      </trkpt>
      <trkpt lat="43.23034" lon="2.27711">
        <ele>185.22565</ele>
        <time>2023-01-05T12:11:03.948Z</time>
      </trkpt>
      <trkpt lat="43.23029" lon="2.27727">
        <ele>185.080002</ele>
        <time>2023-01-05T12:11:05.950Z</time>
      </trkpt>
      <trkpt lat="43.23023" lon="2.27743">
        <ele>184.947547</ele>
        <time>2023-01-05T12:11:07.933Z</time>
      </trkpt>
      <trkpt lat="43.23017" lon="2.27759">
        <ele>184.810392</ele>
        <time>2023-01-05T12:11:09.950Z</time>
      </trkpt>
      <trkpt lat="43.23012" lon="2.27775">
        <ele>184.678829</ele>
        <time>2023-01-05T12:11:11.934Z</time>
      </trkpt>
      <trkpt lat="43.23006" lon="2.27792">
        <ele>184.538543</ele>
        <time>2023-01-05T12:11:13.949Z</time>
      </trkpt>
      <trkpt lat="43.23" lon="2.27809">
        <ele>184.401164</ele>
        <time>2023-01-05T12:11:15.930Z</time>
      </trkpt>
      <trkpt lat="43.22994" lon="2.27826">
        <ele>184.260161</ele>
        <time>2023-01-05T12:11:17.945Z</time>
      </trkpt>
      <trkpt lat="43.22988" lon="2.27843">
        <ele>184.121621</ele>
        <time>2023-01-05T12:11:19.948Z</time>
      </trkpt>
      <trkpt lat="43.22983" lon="2.27859">
        <ele>183.989361</ele>
        <time>2023-01-05T12:11:21.932Z</time>
      </trkpt>
      <trkpt lat="43.22978" lon="2.27875">
        <ele>183.860667</ele>
        <time>2023-01-05T12:11:23.932Z</time>
      </trkpt>
      <trkpt lat="43.22973" lon="2.2789">
        <ele>183.734173</ele>
        <time>2023-01-05T12:11:25.944Z</time>
      </trkpt>
      <trkpt lat="43.22968" lon="2.27906">
        <ele>183.608362</ele>
        <time>2023-01-05T12:11:27.934Z</time>
      </trkpt>
      <trkpt lat="43.22963" lon="2.27921">
        <ele>183.481996</ele>
        <time>2023-01-05T12:11:29.936Z</time>
      </trkpt>
      <trkpt lat="43.22958" lon="2.27937">
        <ele>183.357403</ele>
        <time>2023-01-05T12:11:31.937Z</time>
      </trkpt>
      <trkpt lat="43.22954" lon="2.27952">
        <ele>183.258884</ele>
        <time>2023-01-05T12:11:33.923Z</time>
      </trkpt>
      <trkpt lat="43.22949" lon="2.27967">
        <ele>183.229129</ele>
        <time>2023-01-05T12:11:35.925Z</time>
      </trkpt>
      <trkpt lat="43.22945" lon="2.27982">
        <ele>183.199966</ele>
        <time>2023-01-05T12:11:37.927Z</time>
      </trkpt>
      <trkpt lat="43.2294" lon="2.27997">
        <ele>183.171134</ele>
        <time>2023-01-05T12:11:39.929Z</time>
      </trkpt>
      <trkpt lat="43.22936" lon="2.28012">
        <ele>183.141637</ele>
        <time>2023-01-05T12:11:41.931Z</time>
      </trkpt>
      <trkpt lat="43.22931" lon="2.28029">
        <ele>183.109956</ele>
        <time>2023-01-05T12:11:43.947Z</time>
      </trkpt>
      <trkpt lat="43.22926" lon="2.28045">
        <ele>183.078735</ele>
        <time>2023-01-05T12:11:45.932Z</time>
      </trkpt>
      <trkpt lat="43.22922" lon="2.28061">
        <ele>183.048147</ele>
        <time>2023-01-05T12:11:47.923Z</time>
      </trkpt>
      <trkpt lat="43.22917" lon="2.28077">
        <ele>183.016543</ele>
        <time>2023-01-05T12:11:49.936Z</time>
      </trkpt>
      <trkpt lat="43.22913" lon="2.28093">
        <ele>182.985371</ele>
        <time>2023-01-05T12:11:51.924Z</time>
      </trkpt>
      <trkpt lat="43.22908" lon="2.28109">
        <ele>182.955358</ele>
        <time>2023-01-05T12:11:53.925Z</time>
      </trkpt>
      <trkpt lat="43.22903" lon="2.28125">
        <ele>182.923497</ele>
        <time>2023-01-05T12:11:55.938Z</time>
      </trkpt>
      <trkpt lat="43.22899" lon="2.28141">
        <ele>182.893409</ele>
        <time>2023-01-05T12:11:57.936Z</time>
      </trkpt>
      <trkpt lat="43.22894" lon="2.28156">
        <ele>182.864245</ele>
        <time>2023-01-05T12:11:59.937Z</time>
      </trkpt>
      <trkpt lat="43.2289" lon="2.28171">
        <ele>182.835263</ele>
        <time>2023-01-05T12:12:01.932Z</time>
      </trkpt>
      <trkpt lat="43.22886" lon="2.28187">
        <ele>182.790892</ele>
        <time>2023-01-05T12:12:03.949Z</time>
      </trkpt>
      <trkpt lat="43.22882" lon="2.28201">
        <ele>182.742978</ele>
        <time>2023-01-05T12:12:05.941Z</time>
      </trkpt>
      <trkpt lat="43.22878" lon="2.28216">
        <ele>182.693439</ele>
        <time>2023-01-05T12:12:07.934Z</time>
      </trkpt>
      <trkpt lat="43.22874" lon="2.28231">
        <ele>182.64228</ele>
        <time>2023-01-05T12:12:09.927Z</time>
      </trkpt>
      <trkpt lat="43.2287" lon="2.28246">
        <ele>182.594366</ele>
        <time>2023-01-05T12:12:11.932Z</time>
      </trkpt>
      <trkpt lat="43.22866" lon="2.2826">
        <ele>182.544184</ele>
        <time>2023-01-05T12:12:13.923Z</time>
      </trkpt>
      <trkpt lat="43.22862" lon="2.28275">
        <ele>182.493468</ele>
        <time>2023-01-05T12:12:15.933Z</time>
      </trkpt>
      <trkpt lat="43.22857" lon="2.28289">
        <ele>182.446689</ele>
        <time>2023-01-05T12:12:17.931Z</time>
      </trkpt>
      <trkpt lat="43.22853" lon="2.28304">
        <ele>182.395416</ele>
        <time>2023-01-05T12:12:19.948Z</time>
      </trkpt>
      <trkpt lat="43.22848" lon="2.28318">
        <ele>182.348179</ele>
        <time>2023-01-05T12:12:21.932Z</time>
      </trkpt>
      <trkpt lat="43.22844" lon="2.28332">
        <ele>182.300131</ele>
        <time>2023-01-05T12:12:23.930Z</time>
      </trkpt>
      <trkpt lat="43.22839" lon="2.28345">
        <ele>182.252722</ele>
        <time>2023-01-05T12:12:25.933Z</time>
      </trkpt>
      <trkpt lat="43.22835" lon="2.28359">
        <ele>182.204779</ele>
        <time>2023-01-05T12:12:27.933Z</time>
      </trkpt>
      <trkpt lat="43.2283" lon="2.28374">
        <ele>182.155755</ele>
        <time>2023-01-05T12:12:29.943Z</time>
      </trkpt>
      <trkpt lat="43.22825" lon="2.28387">
        <ele>182.10949</ele>
        <time>2023-01-05T12:12:31.932Z</time>
      </trkpt>
      <trkpt lat="43.22821" lon="2.28399">
        <ele>182.065327</ele>
        <time>2023-01-05T12:12:33.949Z</time>
      </trkpt>
      <trkpt lat="43.22816" lon="2.28412">
        <ele>182.139002</ele>
        <time>2023-01-05T12:12:35.950Z</time>
      </trkpt>
      <trkpt lat="43.22811" lon="2.28424">
        <ele>182.284092</ele>
        <time>2023-01-05T12:12:37.943Z</time>
      </trkpt>
      <trkpt lat="43.22806" lon="2.28437">
        <ele>182.428639</ele>
        <time>2023-01-05T12:12:39.931Z</time>
      </trkpt>
      <trkpt lat="43.22802" lon="2.28449">
        <ele>182.573405</ele>
        <time>2023-01-05T12:12:41.937Z</time>
      </trkpt>
      <trkpt lat="43.22798" lon="2.28461">
        <ele>182.719747</ele>
        <time>2023-01-05T12:12:43.928Z</time>
      </trkpt>
      <trkpt lat="43.22793" lon="2.28474">
        <ele>182.864294</ele>
        <time>2023-01-05T12:12:45.931Z</time>
      </trkpt>
      <trkpt lat="43.22789" lon="2.28485">
        <ele>182.999715</ele>
        <time>2023-01-05T12:12:47.926Z</time>
      </trkpt>
      <trkpt lat="43.22785" lon="2.28497">
        <ele>183.134389</ele>
        <time>2023-01-05T12:12:49.938Z</time>
      </trkpt>
      <trkpt lat="43.22781" lon="2.28509">
        <ele>183.275465</ele>
        <time>2023-01-05T12:12:51.941Z</time>
      </trkpt>
      <trkpt lat="43.22777" lon="2.2852">
        <ele>183.410502</ele>
        <time>2023-01-05T12:12:53.929Z</time>
      </trkpt>
      <trkpt lat="43.22772" lon="2.28537">
        <ele>183.604069</ele>
        <time>2023-01-05T12:12:56.938Z</time>
      </trkpt>
      <trkpt lat="43.22767" lon="2.28548">
        <ele>183.736353</ele>
        <time>2023-01-05T12:12:58.935Z</time>
      </trkpt>
      <trkpt lat="43.22763" lon="2.2856">
        <ele>183.875463</ele>
        <time>2023-01-05T12:13:00.931Z</time>
      </trkpt>
      <trkpt lat="43.22759" lon="2.28571">
        <ele>184.010995</ele>
        <time>2023-01-05T12:13:02.928Z</time>
      </trkpt>
      <trkpt lat="43.22754" lon="2.28583">
        <ele>184.149075</ele>
        <time>2023-01-05T12:13:04.934Z</time>
      </trkpt>
      <trkpt lat="43.22749" lon="2.28596">
        <ele>184.298585</ele>
        <time>2023-01-05T12:13:06.930Z</time>
      </trkpt>
      <trkpt lat="43.22745" lon="2.28608">
        <ele>184.444618</ele>
        <time>2023-01-05T12:13:08.929Z</time>
      </trkpt>
      <trkpt lat="43.22741" lon="2.28621">
        <ele>184.592982</ele>
        <time>2023-01-05T12:13:10.934Z</time>
      </trkpt>
      <trkpt lat="43.22736" lon="2.28634">
        <ele>184.587753</ele>
        <time>2023-01-05T12:13:12.934Z</time>
      </trkpt>
      <trkpt lat="43.22732" lon="2.28646">
        <ele>184.496435</ele>
        <time>2023-01-05T12:13:14.931Z</time>
      </trkpt>
      <trkpt lat="43.22729" lon="2.2866">
        <ele>184.402918</ele>
        <time>2023-01-05T12:13:16.929Z</time>
      </trkpt>
      <trkpt lat="43.22724" lon="2.28674">
        <ele>184.301022</ele>
        <time>2023-01-05T12:13:18.932Z</time>
      </trkpt>
      <trkpt lat="43.2272" lon="2.28687">
        <ele>184.205285</ele>
        <time>2023-01-05T12:13:20.930Z</time>
      </trkpt>
      <trkpt lat="43.22716" lon="2.28702">
        <ele>184.099615</ele>
        <time>2023-01-05T12:13:22.936Z</time>
      </trkpt>
      <trkpt lat="43.22712" lon="2.28716">
        <ele>183.999505</ele>
        <time>2023-01-05T12:13:24.965Z</time>
      </trkpt>
      <trkpt lat="43.22708" lon="2.28731">
        <ele>183.894936</ele>
        <time>2023-01-05T12:13:26.927Z</time>
      </trkpt>
      <trkpt lat="43.22703" lon="2.28746">
        <ele>183.78368</ele>
        <time>2023-01-05T12:13:28.933Z</time>
      </trkpt>
      <trkpt lat="43.22698" lon="2.28761">
        <ele>183.672902</ele>
        <time>2023-01-05T12:13:30.941Z</time>
      </trkpt>
      <trkpt lat="43.22693" lon="2.28777">
        <ele>183.556782</ele>
        <time>2023-01-05T12:13:32.946Z</time>
      </trkpt>
      <trkpt lat="43.22688" lon="2.28794">
        <ele>183.43944</ele>
        <time>2023-01-05T12:13:34.931Z</time>
      </trkpt>
      <trkpt lat="43.22683" lon="2.28809">
        <ele>183.325015</ele>
        <time>2023-01-05T12:13:36.950Z</time>
      </trkpt>
      <trkpt lat="43.22678" lon="2.28826">
        <ele>183.203379</ele>
        <time>2023-01-05T12:13:38.935Z</time>
      </trkpt>
      <trkpt lat="43.22672" lon="2.28843">
        <ele>183.083595</ele>
        <time>2023-01-05T12:13:40.952Z</time>
      </trkpt>
      <trkpt lat="43.22667" lon="2.28859">
        <ele>182.942513</ele>
        <time>2023-01-05T12:13:42.934Z</time>
      </trkpt>
      <trkpt lat="43.22662" lon="2.28876">
        <ele>182.757899</ele>
        <time>2023-01-05T12:13:44.949Z</time>
      </trkpt>
      <trkpt lat="43.22657" lon="2.28892">
        <ele>182.575705</ele>
        <time>2023-01-05T12:13:46.948Z</time>
      </trkpt>
      <trkpt lat="43.22651" lon="2.28909">
        <ele>182.388856</ele>
        <time>2023-01-05T12:13:48.953Z</time>
      </trkpt>
      <trkpt lat="43.22646" lon="2.28926">
        <ele>182.201271</ele>
        <time>2023-01-05T12:13:50.946Z</time>
      </trkpt>
      <trkpt lat="43.22641" lon="2.28943">
        <ele>182.012467</ele>
        <time>2023-01-05T12:13:52.931Z</time>
      </trkpt>
      <trkpt lat="43.22636" lon="2.28959">
        <ele>181.829326</ele>
        <time>2023-01-05T12:13:54.932Z</time>
      </trkpt>
      <trkpt lat="43.22631" lon="2.28977">
        <ele>181.64</ele>
        <time>2023-01-05T12:13:56.951Z</time>
      </trkpt>
      <trkpt lat="43.22626" lon="2.28993">
        <ele>181.462108</ele>
        <time>2023-01-05T12:13:58.936Z</time>
      </trkpt>
      <trkpt lat="43.2262" lon="2.2901">
        <ele>181.268531</ele>
        <time>2023-01-05T12:14:00.937Z</time>
      </trkpt>
      <trkpt lat="43.22614" lon="2.29027">
        <ele>181.073661</ele>
        <time>2023-01-05T12:14:02.952Z</time>
      </trkpt>
      <trkpt lat="43.22609" lon="2.29045">
        <ele>180.874494</ele>
        <time>2023-01-05T12:14:04.950Z</time>
      </trkpt>
      <trkpt lat="43.22603" lon="2.29063">
        <ele>180.678308</ele>
        <time>2023-01-05T12:14:06.938Z</time>
      </trkpt>
      <trkpt lat="43.22597" lon="2.2908">
        <ele>180.492605</ele>
        <time>2023-01-05T12:14:08.931Z</time>
      </trkpt>
      <trkpt lat="43.22592" lon="2.29097">
        <ele>180.446802</ele>
        <time>2023-01-05T12:14:10.949Z</time>
      </trkpt>
      <trkpt lat="43.22587" lon="2.29114">
        <ele>180.40327</ele>
        <time>2023-01-05T12:14:12.949Z</time>
      </trkpt>
      <trkpt lat="43.22581" lon="2.2913">
        <ele>180.358512</ele>
        <time>2023-01-05T12:14:14.951Z</time>
      </trkpt>
      <trkpt lat="43.22576" lon="2.29146">
        <ele>180.317123</ele>
        <time>2023-01-05T12:14:16.949Z</time>
      </trkpt>
      <trkpt lat="43.22571" lon="2.29161">
        <ele>180.274766</ele>
        <time>2023-01-05T12:14:18.934Z</time>
      </trkpt>
      <trkpt lat="43.22565" lon="2.29177">
        <ele>180.233076</ele>
        <time>2023-01-05T12:14:20.936Z</time>
      </trkpt>
      <trkpt lat="43.2256" lon="2.29192">
        <ele>180.191859</ele>
        <time>2023-01-05T12:14:22.935Z</time>
      </trkpt>
      <trkpt lat="43.22553" lon="2.29207">
        <ele>180.149602</ele>
        <time>2023-01-05T12:14:24.929Z</time>
      </trkpt>
      <trkpt lat="43.22547" lon="2.29221">
        <ele>180.107765</ele>
        <time>2023-01-05T12:14:26.933Z</time>
      </trkpt>
      <trkpt lat="43.2254" lon="2.29237">
        <ele>180.063034</ele>
        <time>2023-01-05T12:14:28.947Z</time>
      </trkpt>
      <trkpt lat="43.22533" lon="2.29252">
        <ele>180.019333</ele>
        <time>2023-01-05T12:14:30.927Z</time>
      </trkpt>
      <trkpt lat="43.22525" lon="2.29266">
        <ele>179.97549</ele>
        <time>2023-01-05T12:14:32.949Z</time>
      </trkpt>
      <trkpt lat="43.22517" lon="2.29281">
        <ele>179.931256</ele>
        <time>2023-01-05T12:14:34.933Z</time>
      </trkpt>
      <trkpt lat="43.22509" lon="2.29295">
        <ele>179.850675</ele>
        <time>2023-01-05T12:14:36.939Z</time>
      </trkpt>
      <trkpt lat="43.22502" lon="2.29309">
        <ele>179.4209</ele>
        <time>2023-01-05T12:14:38.946Z</time>
      </trkpt>
      <trkpt lat="43.22494" lon="2.29323">
        <ele>178.993103</ele>
        <time>2023-01-05T12:14:40.948Z</time>
      </trkpt>
      <trkpt lat="43.22486" lon="2.29337">
        <ele>178.559034</ele>
        <time>2023-01-05T12:14:42.936Z</time>
      </trkpt>
      <trkpt lat="43.22478" lon="2.2935">
        <ele>178.110087</ele>
        <time>2023-01-05T12:14:44.943Z</time>
      </trkpt>
      <trkpt lat="43.22469" lon="2.29365">
        <ele>177.643647</ele>
        <time>2023-01-05T12:14:46.927Z</time>
      </trkpt>
      <trkpt lat="43.2246" lon="2.29379">
        <ele>177.163711</ele>
        <time>2023-01-05T12:14:48.950Z</time>
      </trkpt>
      <trkpt lat="43.2245" lon="2.29394">
        <ele>176.672823</ele>
        <time>2023-01-05T12:14:50.947Z</time>
      </trkpt>
      <trkpt lat="43.2244" lon="2.29409">
        <ele>176.158995</ele>
        <time>2023-01-05T12:14:52.949Z</time>
      </trkpt>
      <trkpt lat="43.22429" lon="2.29423">
        <ele>175.653492</ele>
        <time>2023-01-05T12:14:54.950Z</time>
      </trkpt>
      <trkpt lat="43.22418" lon="2.29438">
        <ele>175.117633</ele>
        <time>2023-01-05T12:14:56.929Z</time>
      </trkpt>
      <trkpt lat="43.22406" lon="2.29453">
        <ele>174.576666</ele>
        <time>2023-01-05T12:14:58.924Z</time>
      </trkpt>
      <trkpt lat="43.22395" lon="2.29467">
        <ele>174.063446</ele>
        <time>2023-01-05T12:15:00.947Z</time>
      </trkpt>
      <trkpt lat="43.22384" lon="2.29481">
        <ele>173.567999</ele>
        <time>2023-01-05T12:15:02.948Z</time>
      </trkpt>
      <trkpt lat="43.22373" lon="2.29496">
        <ele>173.098238</ele>
        <time>2023-01-05T12:15:04.928Z</time>
      </trkpt>
      <trkpt lat="43.22362" lon="2.2951">
        <ele>172.629319</ele>
        <time>2023-01-05T12:15:06.950Z</time>
      </trkpt>
      <trkpt lat="43.22351" lon="2.29525">
        <ele>172.145937</ele>
        <time>2023-01-05T12:15:08.926Z</time>
      </trkpt>
      <trkpt lat="43.22339" lon="2.2954">
        <ele>171.647982</ele>
        <time>2023-01-05T12:15:10.928Z</time>
      </trkpt>
      <trkpt lat="43.22328" lon="2.29557">
        <ele>171.135987</ele>
        <time>2023-01-05T12:15:12.927Z</time>
      </trkpt>
      <trkpt lat="43.22317" lon="2.29573">
        <ele>170.643237</ele>
        <time>2023-01-05T12:15:14.930Z</time>
      </trkpt>
      <trkpt lat="43.22307" lon="2.29589">
        <ele>170.169137</ele>
        <time>2023-01-05T12:15:16.946Z</time>
      </trkpt>
      <trkpt lat="43.22299" lon="2.29605">
        <ele>169.715997</ele>
        <time>2023-01-05T12:15:18.928Z</time>
      </trkpt>
      <trkpt lat="43.2229" lon="2.29622">
        <ele>169.253495</ele>
        <time>2023-01-05T12:15:20.948Z</time>
      </trkpt>
      <trkpt lat="43.22281" lon="2.29639">
        <ele>168.780317</ele>
        <time>2023-01-05T12:15:22.928Z</time>
      </trkpt>
      <trkpt lat="43.22273" lon="2.29657">
        <ele>168.30515</ele>
        <time>2023-01-05T12:15:24.932Z</time>
      </trkpt>
      <trkpt lat="43.22263" lon="2.29675">
        <ele>167.781484</ele>
        <time>2023-01-05T12:15:26.932Z</time>
      </trkpt>
      <trkpt lat="43.22254" lon="2.29693">
        <ele>167.237959</ele>
        <time>2023-01-05T12:15:28.950Z</time>
      </trkpt>
      <trkpt lat="43.22244" lon="2.29712">
        <ele>166.673159</ele>
        <time>2023-01-05T12:15:30.953Z</time>
      </trkpt>
      <trkpt lat="43.22234" lon="2.29732">
        <ele>166.102288</ele>
        <time>2023-01-05T12:15:32.949Z</time>
      </trkpt>
      <trkpt lat="43.22224" lon="2.29752">
        <ele>165.523632</ele>
        <time>2023-01-05T12:15:34.933Z</time>
      </trkpt>
      <trkpt lat="43.22213" lon="2.29772">
        <ele>164.931752</ele>
        <time>2023-01-05T12:15:36.938Z</time>
      </trkpt>
      <trkpt lat="43.22208" lon="2.29782">
        <ele>164.633822</ele>
        <time>2023-01-05T12:15:37.934Z</time>
      </trkpt>
      <trkpt lat="43.22203" lon="2.29792">
        <ele>164.33785</ele>
        <time>2023-01-05T12:15:38.929Z</time>
      </trkpt>
      <trkpt lat="43.22192" lon="2.29813">
        <ele>163.742099</ele>
        <time>2023-01-05T12:15:40.947Z</time>
      </trkpt>
      <trkpt lat="43.22182" lon="2.29832">
        <ele>163.167394</ele>
        <time>2023-01-05T12:15:42.928Z</time>
      </trkpt>
      <trkpt lat="43.22173" lon="2.29851">
        <ele>162.614044</ele>
        <time>2023-01-05T12:15:44.941Z</time>
      </trkpt>
      <trkpt lat="43.22164" lon="2.29869">
        <ele>162.511627</ele>
        <time>2023-01-05T12:15:46.932Z</time>
      </trkpt>
      <trkpt lat="43.22156" lon="2.29885">
        <ele>163.081202</ele>
        <time>2023-01-05T12:15:48.933Z</time>
      </trkpt>
      <trkpt lat="43.22148" lon="2.29901">
        <ele>163.639644</ele>
        <time>2023-01-05T12:15:50.925Z</time>
      </trkpt>
      <trkpt lat="43.2214" lon="2.29916">
        <ele>164.146908</ele>
        <time>2023-01-05T12:15:52.948Z</time>
      </trkpt>
      <trkpt lat="43.22133" lon="2.29929">
        <ele>164.6285</ele>
        <time>2023-01-05T12:15:54.945Z</time>
      </trkpt>
      <trkpt lat="43.22127" lon="2.29941">
        <ele>165.052379</ele>
        <time>2023-01-05T12:15:56.946Z</time>
      </trkpt>
      <trkpt lat="43.22122" lon="2.29953">
        <ele>165.435256</ele>
        <time>2023-01-05T12:15:58.933Z</time>
      </trkpt>
      <trkpt lat="43.22114" lon="2.29967">
        <ele>165.95174</ele>
        <time>2023-01-05T12:16:01.946Z</time>
      </trkpt>
      <trkpt lat="43.22106" lon="2.29981">
        <ele>166.451856</ele>
        <time>2023-01-05T12:16:04.946Z</time>
      </trkpt>
      <trkpt lat="43.221" lon="2.29993">
        <ele>166.870951</ele>
        <time>2023-01-05T12:16:07.923Z</time>
      </trkpt>
      <trkpt lat="43.22095" lon="2.30004">
        <ele>167.239241</ele>
        <time>2023-01-05T12:16:10.932Z</time>
      </trkpt>
      <trkpt lat="43.22088" lon="2.30016">
        <ele>167.681475</ele>
        <time>2023-01-05T12:16:14.946Z</time>
      </trkpt>
      <trkpt lat="43.22082" lon="2.30029">
        <ele>168.11467</ele>
        <time>2023-01-05T12:16:18.926Z</time>
      </trkpt>
      <trkpt lat="43.22076" lon="2.30039">
        <ele>168.496941</ele>
        <time>2023-01-05T12:16:22.944Z</time>
      </trkpt>
      <trkpt lat="43.22071" lon="2.30049">
        <ele>168.858177</ele>
        <time>2023-01-05T12:16:26.930Z</time>
      </trkpt>
      <trkpt lat="43.22065" lon="2.3006">
        <ele>169.226362</ele>
        <time>2023-01-05T12:16:30.927Z</time>
      </trkpt>
      <trkpt lat="43.2206" lon="2.3007">
        <ele>169.544449</ele>
        <time>2023-01-05T12:16:34.925Z</time>
      </trkpt>
      <trkpt lat="43.22053" lon="2.30081">
        <ele>169.885286</ele>
        <time>2023-01-05T12:16:39.938Z</time>
      </trkpt>
      <trkpt lat="43.22047" lon="2.30093">
        <ele>170.233555</ele>
        <time>2023-01-05T12:16:44.947Z</time>
      </trkpt>
      <trkpt lat="43.22041" lon="2.30105">
        <ele>170.557403</ele>
        <time>2023-01-05T12:16:49.953Z</time>
      </trkpt>
      <trkpt lat="43.22035" lon="2.30116">
        <ele>170.886844</ele>
        <time>2023-01-05T12:16:54.926Z</time>
      </trkpt>
      <trkpt lat="43.22029" lon="2.30128">
        <ele>171.216598</ele>
        <time>2023-01-05T12:16:59.944Z</time>
      </trkpt>
      <trkpt lat="43.22024" lon="2.3014">
        <ele>171.556394</ele>
        <time>2023-01-05T12:17:04.942Z</time>
      </trkpt>
      <trkpt lat="43.22018" lon="2.30152">
        <ele>171.891542</ele>
        <time>2023-01-05T12:17:09.934Z</time>
      </trkpt>
      <trkpt lat="43.22013" lon="2.30163">
        <ele>172.1793</ele>
        <time>2023-01-05T12:17:13.940Z</time>
      </trkpt>
      <trkpt lat="43.22008" lon="2.30174">
        <ele>172.473956</ele>
        <time>2023-01-05T12:17:17.935Z</time>
      </trkpt>
      <trkpt lat="43.22003" lon="2.30187">
        <ele>172.829088</ele>
        <time>2023-01-05T12:17:22.932Z</time>
      </trkpt>
      <trkpt lat="43.21999" lon="2.30199">
        <ele>173.134975</ele>
        <time>2023-01-05T12:17:26.949Z</time>
      </trkpt>
      <trkpt lat="43.21995" lon="2.3021">
        <ele>173.425499</ele>
        <time>2023-01-05T12:17:30.935Z</time>
      </trkpt>
      <trkpt lat="43.21991" lon="2.30221">
        <ele>173.721614</ele>
        <time>2023-01-05T12:17:34.930Z</time>
      </trkpt>
      <trkpt lat="43.21986" lon="2.30233">
        <ele>174.017081</ele>
        <time>2023-01-05T12:17:38.951Z</time>
      </trkpt>
      <trkpt lat="43.21983" lon="2.30244">
        <ele>174.306479</ele>
        <time>2023-01-05T12:17:41.951Z</time>
      </trkpt>
      <trkpt lat="43.2198" lon="2.30257">
        <ele>174.62054</ele>
        <time>2023-01-05T12:17:44.945Z</time>
      </trkpt>
      <trkpt lat="43.21974" lon="2.30272">
        <ele>175.012433</ele>
        <time>2023-01-05T12:17:47.948Z</time>
      </trkpt>
      <trkpt lat="43.2197" lon="2.30286">
        <ele>175.083297</ele>
        <time>2023-01-05T12:17:50.953Z</time>
      </trkpt>
      <trkpt lat="43.21966" lon="2.30301">
        <ele>175.040286</ele>
        <time>2023-01-05T12:17:53.929Z</time>
      </trkpt>
      <trkpt lat="43.2196" lon="2.30317">
        <ele>174.995092</ele>
        <time>2023-01-05T12:17:56.959Z</time>
      </trkpt>
      <trkpt lat="43.21957" lon="2.30328">
        <ele>174.961889</ele>
        <time>2023-01-05T12:17:58.951Z</time>
      </trkpt>
      <trkpt lat="43.21954" lon="2.30341">
        <ele>174.925659</ele>
        <time>2023-01-05T12:18:00.951Z</time>
      </trkpt>
      <trkpt lat="43.21949" lon="2.30355">
        <ele>174.885089</ele>
        <time>2023-01-05T12:18:02.949Z</time>
      </trkpt>
      <trkpt lat="43.21944" lon="2.3037">
        <ele>174.841662</ele>
        <time>2023-01-05T12:18:04.949Z</time>
      </trkpt>
      <trkpt lat="43.21939" lon="2.30384">
        <ele>174.799272</ele>
        <time>2023-01-05T12:18:06.942Z</time>
      </trkpt>
      <trkpt lat="43.21935" lon="2.304">
        <ele>174.753339</ele>
        <time>2023-01-05T12:18:08.936Z</time>
      </trkpt>
      <trkpt lat="43.21929" lon="2.30417">
        <ele>174.703396</ele>
        <time>2023-01-05T12:18:10.935Z</time>
      </trkpt>
      <trkpt lat="43.21924" lon="2.30435">
        <ele>174.651696</ele>
        <time>2023-01-05T12:18:12.934Z</time>
      </trkpt>
      <trkpt lat="43.21918" lon="2.30453">
        <ele>174.597243</ele>
        <time>2023-01-05T12:18:14.933Z</time>
      </trkpt>
      <trkpt lat="43.21912" lon="2.30472">
        <ele>174.542092</ele>
        <time>2023-01-05T12:18:16.948Z</time>
      </trkpt>
      <trkpt lat="43.21906" lon="2.30492">
        <ele>174.48553</ele>
        <time>2023-01-05T12:18:18.931Z</time>
      </trkpt>
      <trkpt lat="43.219" lon="2.30511">
        <ele>174.484745</ele>
        <time>2023-01-05T12:18:20.947Z</time>
      </trkpt>
      <trkpt lat="43.21894" lon="2.30531">
        <ele>174.563881</ele>
        <time>2023-01-05T12:18:22.951Z</time>
      </trkpt>
      <trkpt lat="43.21888" lon="2.30552">
        <ele>174.643116</ele>
        <time>2023-01-05T12:18:24.951Z</time>
      </trkpt>
      <trkpt lat="43.21881" lon="2.30572">
        <ele>174.722582</ele>
        <time>2023-01-05T12:18:26.952Z</time>
      </trkpt>
      <trkpt lat="43.21875" lon="2.30593">
        <ele>174.802666</ele>
        <time>2023-01-05T12:18:28.952Z</time>
      </trkpt>
      <trkpt lat="43.21869" lon="2.30612">
        <ele>174.876866</ele>
        <time>2023-01-05T12:18:30.951Z</time>
      </trkpt>
      <trkpt lat="43.21863" lon="2.3063">
        <ele>174.947063</ele>
        <time>2023-01-05T12:18:32.950Z</time>
      </trkpt>
      <trkpt lat="43.21857" lon="2.30647">
        <ele>175.015286</ele>
        <time>2023-01-05T12:18:34.939Z</time>
      </trkpt>
      <trkpt lat="43.21852" lon="2.30663">
        <ele>175.07992</ele>
        <time>2023-01-05T12:18:36.938Z</time>
      </trkpt>
      <trkpt lat="43.21847" lon="2.3068">
        <ele>175.144397</ele>
        <time>2023-01-05T12:18:38.938Z</time>
      </trkpt>
      <trkpt lat="43.21842" lon="2.30696">
        <ele>175.207452</ele>
        <time>2023-01-05T12:18:40.950Z</time>
      </trkpt>
      <trkpt lat="43.21837" lon="2.30712">
        <ele>175.267115</ele>
        <time>2023-01-05T12:18:42.951Z</time>
      </trkpt>
      <trkpt lat="43.21833" lon="2.30727">
        <ele>175.326146</ele>
        <time>2023-01-05T12:18:44.950Z</time>
      </trkpt>
      <trkpt lat="43.21828" lon="2.30741">
        <ele>175.406242</ele>
        <time>2023-01-05T12:18:46.935Z</time>
      </trkpt>
      <trkpt lat="43.21824" lon="2.30755">
        <ele>175.490715</ele>
        <time>2023-01-05T12:18:48.947Z</time>
      </trkpt>
      <trkpt lat="43.21819" lon="2.30769">
        <ele>175.570677</ele>
        <time>2023-01-05T12:18:50.952Z</time>
      </trkpt>
      <trkpt lat="43.21815" lon="2.30782">
        <ele>175.647723</ele>
        <time>2023-01-05T12:18:52.946Z</time>
      </trkpt>
      <trkpt lat="43.21811" lon="2.30794">
        <ele>175.72146</ele>
        <time>2023-01-05T12:18:54.968Z</time>
      </trkpt>
      <trkpt lat="43.21807" lon="2.30806">
        <ele>175.794016</ele>
        <time>2023-01-05T12:18:56.932Z</time>
      </trkpt>
      <trkpt lat="43.21804" lon="2.30818">
        <ele>175.863481</ele>
        <time>2023-01-05T12:18:58.935Z</time>
      </trkpt>
      <trkpt lat="43.218" lon="2.3083">
        <ele>175.937123</ele>
        <time>2023-01-05T12:19:00.949Z</time>
      </trkpt>
      <trkpt lat="43.21796" lon="2.30843">
        <ele>176.015778</ele>
        <time>2023-01-05T12:19:02.951Z</time>
      </trkpt>
      <trkpt lat="43.21792" lon="2.30856">
        <ele>176.09173</ele>
        <time>2023-01-05T12:19:04.946Z</time>
      </trkpt>
      <trkpt lat="43.21788" lon="2.30871">
        <ele>176.176877</ele>
        <time>2023-01-05T12:19:06.949Z</time>
      </trkpt>
      <trkpt lat="43.21784" lon="2.30885">
        <ele>176.261234</ele>
        <time>2023-01-05T12:19:08.936Z</time>
      </trkpt>
      <trkpt lat="43.2178" lon="2.30899">
        <ele>176.344343</ele>
        <time>2023-01-05T12:19:10.951Z</time>
      </trkpt>
      <trkpt lat="43.21776" lon="2.30914">
        <ele>176.42845</ele>
        <time>2023-01-05T12:19:12.947Z</time>
      </trkpt>
      <trkpt lat="43.21772" lon="2.30929">
        <ele>176.517978</ele>
        <time>2023-01-05T12:19:14.935Z</time>
      </trkpt>
      <trkpt lat="43.21769" lon="2.30945">
        <ele>176.610015</ele>
        <time>2023-01-05T12:19:16.933Z</time>
      </trkpt>
      <trkpt lat="43.21766" lon="2.30962">
        <ele>176.673314</ele>
        <time>2023-01-05T12:19:18.952Z</time>
      </trkpt>
      <trkpt lat="43.21763" lon="2.30978">
        <ele>176.550286</ele>
        <time>2023-01-05T12:19:20.948Z</time>
      </trkpt>
      <trkpt lat="43.21759" lon="2.30994">
        <ele>176.429007</ele>
        <time>2023-01-05T12:19:22.950Z</time>
      </trkpt>
      <trkpt lat="43.21756" lon="2.31011">
        <ele>176.305179</ele>
        <time>2023-01-05T12:19:24.946Z</time>
      </trkpt>
      <trkpt lat="43.21754" lon="2.31027">
        <ele>176.184236</ele>
        <time>2023-01-05T12:19:26.951Z</time>
      </trkpt>
      <trkpt lat="43.21752" lon="2.31045">
        <ele>176.057067</ele>
        <time>2023-01-05T12:19:28.935Z</time>
      </trkpt>
      <trkpt lat="43.21749" lon="2.31062">
        <ele>175.932293</ele>
        <time>2023-01-05T12:19:30.951Z</time>
      </trkpt>
      <trkpt lat="43.21746" lon="2.31078">
        <ele>175.809141</ele>
        <time>2023-01-05T12:19:32.933Z</time>
      </trkpt>
      <trkpt lat="43.21744" lon="2.31096">
        <ele>175.680048</ele>
        <time>2023-01-05T12:19:34.947Z</time>
      </trkpt>
      <trkpt lat="43.21741" lon="2.31113">
        <ele>175.550843</ele>
        <time>2023-01-05T12:19:36.932Z</time>
      </trkpt>
      <trkpt lat="43.21738" lon="2.31131">
        <ele>175.424665</ele>
        <time>2023-01-05T12:19:38.949Z</time>
      </trkpt>
      <trkpt lat="43.21735" lon="2.31148">
        <ele>175.29377</ele>
        <time>2023-01-05T12:19:40.947Z</time>
      </trkpt>
      <trkpt lat="43.21733" lon="2.31166">
        <ele>175.163623</ele>
        <time>2023-01-05T12:19:42.949Z</time>
      </trkpt>
      <trkpt lat="43.2173" lon="2.31184">
        <ele>175.035236</ele>
        <time>2023-01-05T12:19:44.952Z</time>
      </trkpt>
      <trkpt lat="43.21728" lon="2.31201">
        <ele>174.9068</ele>
        <time>2023-01-05T12:19:46.947Z</time>
      </trkpt>
      <trkpt lat="43.21726" lon="2.31219">
        <ele>174.751636</ele>
        <time>2023-01-05T12:19:48.936Z</time>
      </trkpt>
      <trkpt lat="43.21723" lon="2.31237">
        <ele>174.597132</ele>
        <time>2023-01-05T12:19:50.945Z</time>
      </trkpt>
      <trkpt lat="43.21721" lon="2.31253">
        <ele>174.452543</ele>
        <time>2023-01-05T12:19:52.948Z</time>
      </trkpt>
      <trkpt lat="43.21719" lon="2.31269">
        <ele>174.31431</ele>
        <time>2023-01-05T12:19:54.950Z</time>
      </trkpt>
      <trkpt lat="43.21717" lon="2.31285">
        <ele>174.173931</ele>
        <time>2023-01-05T12:19:56.941Z</time>
      </trkpt>
      <trkpt lat="43.21715" lon="2.31301">
        <ele>174.034009</ele>
        <time>2023-01-05T12:19:58.936Z</time>
      </trkpt>
      <trkpt lat="43.21713" lon="2.31318">
        <ele>173.887909</ele>
        <time>2023-01-05T12:20:00.941Z</time>
      </trkpt>
      <trkpt lat="43.21711" lon="2.31335">
        <ele>173.74143</ele>
        <time>2023-01-05T12:20:02.930Z</time>
      </trkpt>
      <trkpt lat="43.21708" lon="2.31352">
        <ele>173.587975</ele>
        <time>2023-01-05T12:20:04.932Z</time>
      </trkpt>
      <trkpt lat="43.21706" lon="2.3137">
        <ele>173.434948</ele>
        <time>2023-01-05T12:20:06.931Z</time>
      </trkpt>
      <trkpt lat="43.21704" lon="2.31387">
        <ele>173.285517</ele>
        <time>2023-01-05T12:20:08.931Z</time>
      </trkpt>
      <trkpt lat="43.21702" lon="2.31403">
        <ele>173.141964</ele>
        <time>2023-01-05T12:20:10.950Z</time>
      </trkpt>
      <trkpt lat="43.217" lon="2.3142">
        <ele>172.995485</ele>
        <time>2023-01-05T12:20:12.925Z</time>
      </trkpt>
      <trkpt lat="43.21697" lon="2.31437">
        <ele>172.849322</ele>
        <time>2023-01-05T12:20:14.949Z</time>
      </trkpt>
      <trkpt lat="43.21695" lon="2.31453">
        <ele>172.679859</ele>
        <time>2023-01-05T12:20:16.946Z</time>
      </trkpt>
      <trkpt lat="43.21693" lon="2.3147">
        <ele>172.49651</ele>
        <time>2023-01-05T12:20:18.948Z</time>
      </trkpt>
      <trkpt lat="43.21691" lon="2.31487">
        <ele>172.308873</ele>
        <time>2023-01-05T12:20:20.941Z</time>
      </trkpt>
      <trkpt lat="43.21688" lon="2.31504">
        <ele>172.121195</ele>
        <time>2023-01-05T12:20:22.931Z</time>
      </trkpt>
      <trkpt lat="43.21686" lon="2.31521">
        <ele>171.931764</ele>
        <time>2023-01-05T12:20:24.928Z</time>
      </trkpt>
      <trkpt lat="43.21684" lon="2.31539">
        <ele>171.737468</ele>
        <time>2023-01-05T12:20:26.946Z</time>
      </trkpt>
      <trkpt lat="43.21681" lon="2.31557">
        <ele>171.542667</ele>
        <time>2023-01-05T12:20:28.938Z</time>
      </trkpt>
      <trkpt lat="43.2168" lon="2.31575">
        <ele>171.346137</ele>
        <time>2023-01-05T12:20:30.929Z</time>
      </trkpt>
      <trkpt lat="43.21677" lon="2.31593">
        <ele>171.140165</ele>
        <time>2023-01-05T12:20:32.951Z</time>
      </trkpt>
      <trkpt lat="43.21675" lon="2.31612">
        <ele>170.935516</ele>
        <time>2023-01-05T12:20:34.954Z</time>
      </trkpt>
      <trkpt lat="43.21672" lon="2.3163">
        <ele>170.730985</ele>
        <time>2023-01-05T12:20:36.930Z</time>
      </trkpt>
      <trkpt lat="43.2167" lon="2.31649">
        <ele>170.52475</ele>
        <time>2023-01-05T12:20:38.948Z</time>
      </trkpt>
      <trkpt lat="43.21667" lon="2.3167">
        <ele>170.290312</ele>
        <time>2023-01-05T12:20:40.950Z</time>
      </trkpt>
      <trkpt lat="43.21664" lon="2.31692">
        <ele>170.010352</ele>
        <time>2023-01-05T12:20:42.927Z</time>
      </trkpt>
      <trkpt lat="43.21661" lon="2.31715">
        <ele>169.632824</ele>
        <time>2023-01-05T12:20:44.950Z</time>
      </trkpt>
      <trkpt lat="43.21658" lon="2.31736">
        <ele>169.269211</ele>
        <time>2023-01-05T12:20:46.949Z</time>
      </trkpt>
      <trkpt lat="43.21653" lon="2.31758">
        <ele>168.885607</ele>
        <time>2023-01-05T12:20:48.957Z</time>
      </trkpt>
      <trkpt lat="43.21648" lon="2.31781">
        <ele>168.494103</ele>
        <time>2023-01-05T12:20:50.933Z</time>
      </trkpt>
      <trkpt lat="43.21643" lon="2.31804">
        <ele>168.088195</ele>
        <time>2023-01-05T12:20:52.952Z</time>
      </trkpt>
      <trkpt lat="43.21637" lon="2.31827">
        <ele>167.681945</ele>
        <time>2023-01-05T12:20:54.940Z</time>
      </trkpt>
      <trkpt lat="43.21633" lon="2.31839">
        <ele>167.475682</ele>
        <time>2023-01-05T12:20:55.934Z</time>
      </trkpt>
      <trkpt lat="43.2163" lon="2.3185">
        <ele>167.2686</ele>
        <time>2023-01-05T12:20:56.951Z</time>
      </trkpt>
      <trkpt lat="43.21627" lon="2.31862">
        <ele>167.062885</ele>
        <time>2023-01-05T12:20:57.950Z</time>
      </trkpt>
      <trkpt lat="43.2162" lon="2.31883">
        <ele>166.668544</ele>
        <time>2023-01-05T12:20:59.935Z</time>
      </trkpt>
      <trkpt lat="43.21612" lon="2.31905">
        <ele>166.268618</ele>
        <time>2023-01-05T12:21:01.929Z</time>
      </trkpt>
      <trkpt lat="43.21605" lon="2.31926">
        <ele>165.949788</ele>
        <time>2023-01-05T12:21:03.926Z</time>
      </trkpt>
      <trkpt lat="43.21598" lon="2.31945">
        <ele>165.774665</ele>
        <time>2023-01-05T12:21:05.953Z</time>
      </trkpt>
      <trkpt lat="43.2159" lon="2.31963">
        <ele>165.607485</ele>
        <time>2023-01-05T12:21:07.942Z</time>
      </trkpt>
      <trkpt lat="43.21583" lon="2.31981">
        <ele>165.446837</ele>
        <time>2023-01-05T12:21:09.949Z</time>
      </trkpt>
      <trkpt lat="43.21577" lon="2.31996">
        <ele>165.301245</ele>
        <time>2023-01-05T12:21:11.935Z</time>
      </trkpt>
      <trkpt lat="43.2157" lon="2.32012">
        <ele>165.158031</ele>
        <time>2023-01-05T12:21:13.942Z</time>
      </trkpt>
      <trkpt lat="43.21564" lon="2.32025">
        <ele>165.027668</ele>
        <time>2023-01-05T12:21:15.935Z</time>
      </trkpt>
      <trkpt lat="43.21558" lon="2.32038">
        <ele>164.905321</ele>
        <time>2023-01-05T12:21:17.951Z</time>
      </trkpt>
      <trkpt lat="43.21552" lon="2.32049">
        <ele>164.795409</ele>
        <time>2023-01-05T12:21:19.951Z</time>
      </trkpt>
      <trkpt lat="43.21544" lon="2.32062">
        <ele>164.661348</ele>
        <time>2023-01-05T12:21:22.932Z</time>
      </trkpt>
      <trkpt lat="43.21542" lon="2.32067">
        <ele>164.61739</ele>
        <time>2023-01-05T12:22:42.589Z</time>
      </trkpt>
      <trkpt lat="43.21536" lon="2.32078">
        <ele>164.502927</ele>
        <time>2023-01-05T12:30:17.948Z</time>
      </trkpt>
      <trkpt lat="43.2153" lon="2.32092">
        <ele>164.371371</ele>
        <time>2023-01-05T12:30:22.934Z</time>
      </trkpt>
      <trkpt lat="43.21524" lon="2.32105">
        <ele>164.24949</ele>
        <time>2023-01-05T12:30:25.971Z</time>
      </trkpt>
      <trkpt lat="43.21517" lon="2.32119">
        <ele>164.111808</ele>
        <time>2023-01-05T12:30:28.932Z</time>
      </trkpt>
      <trkpt lat="43.21512" lon="2.32137">
        <ele>163.976687</ele>
        <time>2023-01-05T12:30:31.935Z</time>
      </trkpt>
      <trkpt lat="43.21507" lon="2.32148">
        <ele>163.905924</ele>
        <time>2023-01-05T12:30:33.933Z</time>
      </trkpt>
      <trkpt lat="43.21502" lon="2.32159">
        <ele>163.833241</ele>
        <time>2023-01-05T12:30:35.929Z</time>
      </trkpt>
      <trkpt lat="43.21497" lon="2.3217">
        <ele>163.758218</ele>
        <time>2023-01-05T12:30:37.938Z</time>
      </trkpt>
      <trkpt lat="43.2149" lon="2.32181">
        <ele>163.682242</ele>
        <time>2023-01-05T12:30:39.936Z</time>
      </trkpt>
      <trkpt lat="43.21484" lon="2.32191">
        <ele>163.603117</ele>
        <time>2023-01-05T12:30:41.930Z</time>
      </trkpt>
      <trkpt lat="43.21478" lon="2.32203">
        <ele>163.523159</ele>
        <time>2023-01-05T12:30:43.951Z</time>
      </trkpt>
      <trkpt lat="43.21471" lon="2.32214">
        <ele>163.442123</ele>
        <time>2023-01-05T12:30:45.936Z</time>
      </trkpt>
      <trkpt lat="43.21464" lon="2.32225">
        <ele>163.359571</ele>
        <time>2023-01-05T12:30:47.935Z</time>
      </trkpt>
      <trkpt lat="43.21457" lon="2.32235">
        <ele>163.278791</ele>
        <time>2023-01-05T12:30:49.941Z</time>
      </trkpt>
      <trkpt lat="43.2145" lon="2.32246">
        <ele>163.198608</ele>
        <time>2023-01-05T12:30:51.935Z</time>
      </trkpt>
      <trkpt lat="43.21443" lon="2.32258">
        <ele>163.115409</ele>
        <time>2023-01-05T12:30:53.939Z</time>
      </trkpt>
      <trkpt lat="43.21437" lon="2.32267">
        <ele>163.043502</ele>
        <time>2023-01-05T12:30:55.943Z</time>
      </trkpt>
      <trkpt lat="43.21431" lon="2.32277">
        <ele>162.972452</ele>
        <time>2023-01-05T12:30:57.935Z</time>
      </trkpt>
      <trkpt lat="43.21425" lon="2.32287">
        <ele>162.897932</ele>
        <time>2023-01-05T12:30:59.933Z</time>
      </trkpt>
      <trkpt lat="43.21419" lon="2.32297">
        <ele>162.826025</ele>
        <time>2023-01-05T12:31:01.936Z</time>
      </trkpt>
      <trkpt lat="43.21413" lon="2.32306">
        <ele>162.754977</ele>
        <time>2023-01-05T12:31:03.945Z</time>
      </trkpt>
      <trkpt lat="43.21403" lon="2.32318">
        <ele>162.654161</ele>
        <time>2023-01-05T12:31:06.948Z</time>
      </trkpt>
      <trkpt lat="43.2139" lon="2.32321">
        <ele>162.695492</ele>
        <time>2023-01-05T12:31:09.967Z</time>
      </trkpt>
      <trkpt lat="43.21377" lon="2.32323">
        <ele>162.766153</ele>
        <time>2023-01-05T12:31:12.929Z</time>
      </trkpt>
      <trkpt lat="43.21367" lon="2.32334">
        <ele>162.838221</ele>
        <time>2023-01-05T12:31:15.928Z</time>
      </trkpt>
      <trkpt lat="43.21363" lon="2.32351">
        <ele>162.908281</ele>
        <time>2023-01-05T12:31:18.931Z</time>
      </trkpt>
      <trkpt lat="43.21366" lon="2.32369">
        <ele>162.98107</ele>
        <time>2023-01-05T12:31:21.934Z</time>
      </trkpt>
      <trkpt lat="43.21367" lon="2.32388">
        <ele>163.055184</ele>
        <time>2023-01-05T12:31:24.939Z</time>
      </trkpt>
      <trkpt lat="43.21365" lon="2.32401">
        <ele>163.111624</ele>
        <time>2023-01-05T12:31:26.928Z</time>
      </trkpt>
      <trkpt lat="43.21361" lon="2.32414">
        <ele>163.168845</ele>
        <time>2023-01-05T12:31:28.921Z</time>
      </trkpt>
      <trkpt lat="43.21356" lon="2.32428">
        <ele>163.227279</ele>
        <time>2023-01-05T12:31:30.929Z</time>
      </trkpt>
      <trkpt lat="43.21352" lon="2.32442">
        <ele>163.290519</ele>
        <time>2023-01-05T12:31:32.937Z</time>
      </trkpt>
      <trkpt lat="43.21347" lon="2.32456">
        <ele>163.351195</ele>
        <time>2023-01-05T12:31:34.924Z</time>
      </trkpt>
      <trkpt lat="43.21342" lon="2.32469">
        <ele>163.409894</ele>
        <time>2023-01-05T12:31:36.920Z</time>
      </trkpt>
      <trkpt lat="43.21336" lon="2.32482">
        <ele>163.469387</ele>
        <time>2023-01-05T12:31:38.944Z</time>
      </trkpt>
      <trkpt lat="43.21331" lon="2.32495">
        <ele>163.527224</ele>
        <time>2023-01-05T12:31:40.937Z</time>
      </trkpt>
      <trkpt lat="43.21327" lon="2.32508">
        <ele>163.582541</ele>
        <time>2023-01-05T12:31:42.944Z</time>
      </trkpt>
      <trkpt lat="43.21323" lon="2.3252">
        <ele>163.631538</ele>
        <time>2023-01-05T12:31:44.943Z</time>
      </trkpt>
      <trkpt lat="43.21319" lon="2.32531">
        <ele>163.66728</ele>
        <time>2023-01-05T12:31:46.949Z</time>
      </trkpt>
      <trkpt lat="43.21313" lon="2.32545">
        <ele>163.715196</ele>
        <time>2023-01-05T12:31:49.936Z</time>
      </trkpt>
      <trkpt lat="43.21308" lon="2.3256">
        <ele>163.760511</ele>
        <time>2023-01-05T12:31:52.955Z</time>
      </trkpt>
      <trkpt lat="43.21303" lon="2.32575">
        <ele>163.809693</ele>
        <time>2023-01-05T12:31:55.928Z</time>
      </trkpt>
      <trkpt lat="43.21298" lon="2.32592">
        <ele>163.862685</ele>
        <time>2023-01-05T12:31:58.945Z</time>
      </trkpt>
      <trkpt lat="43.21294" lon="2.32604">
        <ele>163.899793</ele>
        <time>2023-01-05T12:32:00.934Z</time>
      </trkpt>
      <trkpt lat="43.2129" lon="2.32616">
        <ele>163.937753</ele>
        <time>2023-01-05T12:32:02.936Z</time>
      </trkpt>
      <trkpt lat="43.21285" lon="2.32633">
        <ele>163.990001</ele>
        <time>2023-01-05T12:32:05.926Z</time>
      </trkpt>
      <trkpt lat="43.21281" lon="2.32648">
        <ele>164.036694</ele>
        <time>2023-01-05T12:32:08.954Z</time>
      </trkpt>
      <trkpt lat="43.21277" lon="2.32662">
        <ele>164.07999</ele>
        <time>2023-01-05T12:32:11.954Z</time>
      </trkpt>
      <trkpt lat="43.21272" lon="2.32673">
        <ele>164.118288</ele>
        <time>2023-01-05T12:32:14.956Z</time>
      </trkpt>
      <trkpt lat="43.21262" lon="2.32675">
        <ele>164.158386</ele>
        <time>2023-01-05T12:32:17.936Z</time>
      </trkpt>
      <trkpt lat="43.21251" lon="2.32672">
        <ele>164.202925</ele>
        <time>2023-01-05T12:32:20.950Z</time>
      </trkpt>
      <trkpt lat="43.2124" lon="2.3267">
        <ele>164.247217</ele>
        <time>2023-01-05T12:32:23.933Z</time>
      </trkpt>
      <trkpt lat="43.21229" lon="2.32667">
        <ele>164.291171</ele>
        <time>2023-01-05T12:32:26.933Z</time>
      </trkpt>
      <trkpt lat="43.21218" lon="2.32663">
        <ele>164.312236</ele>
        <time>2023-01-05T12:32:29.935Z</time>
      </trkpt>
      <trkpt lat="43.21206" lon="2.32662">
        <ele>164.114504</ele>
        <time>2023-01-05T12:32:32.937Z</time>
      </trkpt>
      <trkpt lat="43.21194" lon="2.3266">
        <ele>163.909842</ele>
        <time>2023-01-05T12:32:35.934Z</time>
      </trkpt>
      <trkpt lat="43.21183" lon="2.32657">
        <ele>163.712524</ele>
        <time>2023-01-05T12:32:38.953Z</time>
      </trkpt>
      <trkpt lat="43.21172" lon="2.32655">
        <ele>163.534047</ele>
        <time>2023-01-05T12:32:41.934Z</time>
      </trkpt>
      <trkpt lat="43.21163" lon="2.32653">
        <ele>163.381092</ele>
        <time>2023-01-05T12:32:44.951Z</time>
      </trkpt>
      <trkpt lat="43.21154" lon="2.3265">
        <ele>163.2194</ele>
        <time>2023-01-05T12:32:47.952Z</time>
      </trkpt>
      <trkpt lat="43.21145" lon="2.3265">
        <ele>163.064385</ele>
        <time>2023-01-05T12:32:50.947Z</time>
      </trkpt>
      <trkpt lat="43.21136" lon="2.3265">
        <ele>162.912814</ele>
        <time>2023-01-05T12:32:53.939Z</time>
      </trkpt>
      <trkpt lat="43.21125" lon="2.32653">
        <ele>162.730593</ele>
        <time>2023-01-05T12:32:57.949Z</time>
      </trkpt>
      <trkpt lat="43.21122" lon="2.32666">
        <ele>162.566604</ele>
        <time>2023-01-05T12:33:00.939Z</time>
      </trkpt>
      <trkpt lat="43.21122" lon="2.32682">
        <ele>162.372462</ele>
        <time>2023-01-05T12:33:03.949Z</time>
      </trkpt>
      <trkpt lat="43.21122" lon="2.32698">
        <ele>162.171107</ele>
        <time>2023-01-05T12:33:06.951Z</time>
      </trkpt>
      <trkpt lat="43.21122" lon="2.32715">
        <ele>161.969753</ele>
        <time>2023-01-05T12:33:09.950Z</time>
      </trkpt>
      <trkpt lat="43.21121" lon="2.32731">
        <ele>161.771162</ele>
        <time>2023-01-05T12:33:12.934Z</time>
      </trkpt>
      <trkpt lat="43.21121" lon="2.32747">
        <ele>161.576026</ele>
        <time>2023-01-05T12:33:15.940Z</time>
      </trkpt>
      <trkpt lat="43.21121" lon="2.32763">
        <ele>161.378458</ele>
        <time>2023-01-05T12:33:18.934Z</time>
      </trkpt>
      <trkpt lat="43.21122" lon="2.32779">
        <ele>161.431168</ele>
        <time>2023-01-05T12:33:21.944Z</time>
      </trkpt>
      <trkpt lat="43.21123" lon="2.32794">
        <ele>161.631851</ele>
        <time>2023-01-05T12:33:24.936Z</time>
      </trkpt>
      <trkpt lat="43.21125" lon="2.32809">
        <ele>161.827085</ele>
        <time>2023-01-05T12:33:27.927Z</time>
      </trkpt>
      <trkpt lat="43.21128" lon="2.32826">
        <ele>162.042501</ele>
        <time>2023-01-05T12:33:30.940Z</time>
      </trkpt>
      <trkpt lat="43.21131" lon="2.32841">
        <ele>162.252002</ele>
        <time>2023-01-05T12:33:33.955Z</time>
      </trkpt>
      <trkpt lat="43.21135" lon="2.32855">
        <ele>162.436737</ele>
        <time>2023-01-05T12:33:36.953Z</time>
      </trkpt>
      <trkpt lat="43.2114" lon="2.32868">
        <ele>162.616024</ele>
        <time>2023-01-05T12:33:39.937Z</time>
      </trkpt>
      <trkpt lat="43.21145" lon="2.32879">
        <ele>162.79727</ele>
        <time>2023-01-05T12:33:42.944Z</time>
      </trkpt>
      <trkpt lat="43.21151" lon="2.32893">
        <ele>163.002856</ele>
        <time>2023-01-05T12:33:45.932Z</time>
      </trkpt>
      <trkpt lat="43.21156" lon="2.32909">
        <ele>163.213074</ele>
        <time>2023-01-05T12:33:48.933Z</time>
      </trkpt>
      <trkpt lat="43.21161" lon="2.32923">
        <ele>163.423088</ele>
        <time>2023-01-05T12:33:51.934Z</time>
      </trkpt>
      <trkpt lat="43.21166" lon="2.32938">
        <ele>163.625766</ele>
        <time>2023-01-05T12:33:54.932Z</time>
      </trkpt>
      <trkpt lat="43.2117" lon="2.32949">
        <ele>163.792383</ele>
        <time>2023-01-05T12:33:57.936Z</time>
      </trkpt>
      <trkpt lat="43.21174" lon="2.32963">
        <ele>163.98434</ele>
        <time>2023-01-05T12:34:01.949Z</time>
      </trkpt>
      <trkpt lat="43.21179" lon="2.32974">
        <ele>164.148079</ele>
        <time>2023-01-05T12:34:04.950Z</time>
      </trkpt>
      <trkpt lat="43.21184" lon="2.32987">
        <ele>164.330132</ele>
        <time>2023-01-05T12:34:07.931Z</time>
      </trkpt>
      <trkpt lat="43.21188" lon="2.32999">
        <ele>164.465971</ele>
        <time>2023-01-05T12:34:10.928Z</time>
      </trkpt>
      <trkpt lat="43.21192" lon="2.3301">
        <ele>164.480562</ele>
        <time>2023-01-05T12:34:13.934Z</time>
      </trkpt>
      <trkpt lat="43.21201" lon="2.33019">
        <ele>164.497945</ele>
        <time>2023-01-05T12:34:17.932Z</time>
      </trkpt>
      <trkpt lat="43.21211" lon="2.33024">
        <ele>164.515416</ele>
        <time>2023-01-05T12:34:21.927Z</time>
      </trkpt>
      <trkpt lat="43.21218" lon="2.33033">
        <ele>164.530759</ele>
        <time>2023-01-05T12:34:24.930Z</time>
      </trkpt>
      <trkpt lat="43.21223" lon="2.33045">
        <ele>164.547389</ele>
        <time>2023-01-05T12:34:27.947Z</time>
      </trkpt>
      <trkpt lat="43.21226" lon="2.33059">
        <ele>164.563467</ele>
        <time>2023-01-05T12:34:31.929Z</time>
      </trkpt>
      <trkpt lat="43.21226" lon="2.33044">
        <ele>164.580567</ele>
        <time>2023-01-05T12:35:16.983Z</time>
      </trkpt>
      <trkpt lat="43.21222" lon="2.33029">
        <ele>164.599141</ele>
        <time>2023-01-05T12:35:20.929Z</time>
      </trkpt>
      <trkpt lat="43.21218" lon="2.33017">
        <ele>164.614243</ele>
        <time>2023-01-05T12:35:23.939Z</time>
      </trkpt>
      <trkpt lat="43.21215" lon="2.33005">
        <ele>164.628825</ele>
        <time>2023-01-05T12:35:26.949Z</time>
      </trkpt>
      <trkpt lat="43.2121" lon="2.32992">
        <ele>164.647229</ele>
        <time>2023-01-05T12:35:30.933Z</time>
      </trkpt>
      <trkpt lat="43.21198" lon="2.3299">
        <ele>164.665537</ele>
        <time>2023-01-05T12:35:34.930Z</time>
      </trkpt>
      <trkpt lat="43.21193" lon="2.33004">
        <ele>164.68395</ele>
        <time>2023-01-05T12:35:38.922Z</time>
      </trkpt>
      <trkpt lat="43.21193" lon="2.33018">
        <ele>164.699998</ele>
        <time>2023-01-05T12:35:41.941Z</time>
      </trkpt>
      <trkpt lat="43.21192" lon="2.33034">
        <ele>164.718086</ele>
        <time>2023-01-05T12:35:44.936Z</time>
      </trkpt>
      <trkpt lat="43.21189" lon="2.33049">
        <ele>164.737107</ele>
        <time>2023-01-05T12:35:47.930Z</time>
      </trkpt>
      <trkpt lat="43.21185" lon="2.33065">
        <ele>164.725204</ele>
        <time>2023-01-05T12:35:50.940Z</time>
      </trkpt>
      <trkpt lat="43.21181" lon="2.33081">
        <ele>164.655759</ele>
        <time>2023-01-05T12:35:53.949Z</time>
      </trkpt>
      <trkpt lat="43.21177" lon="2.33093">
        <ele>164.60515</ele>
        <time>2023-01-05T12:35:55.951Z</time>
      </trkpt>
      <trkpt lat="43.21172" lon="2.33104">
        <ele>164.551812</ele>
        <time>2023-01-05T12:35:57.941Z</time>
      </trkpt>
      <trkpt lat="43.21168" lon="2.33116">
        <ele>164.497144</ele>
        <time>2023-01-05T12:35:59.931Z</time>
      </trkpt>
      <trkpt lat="43.21165" lon="2.33129">
        <ele>164.443314</ele>
        <time>2023-01-05T12:36:01.950Z</time>
      </trkpt>
      <trkpt lat="43.2116" lon="2.33145">
        <ele>164.372023</ele>
        <time>2023-01-05T12:36:04.935Z</time>
      </trkpt>
      <trkpt lat="43.21155" lon="2.3316">
        <ele>164.304596</ele>
        <time>2023-01-05T12:36:07.933Z</time>
      </trkpt>
      <trkpt lat="43.21151" lon="2.33175">
        <ele>164.239538</ele>
        <time>2023-01-05T12:36:10.948Z</time>
      </trkpt>
      <trkpt lat="43.21147" lon="2.33191">
        <ele>164.17027</ele>
        <time>2023-01-05T12:36:13.952Z</time>
      </trkpt>
      <trkpt lat="43.21143" lon="2.33203">
        <ele>164.119901</ele>
        <time>2023-01-05T12:36:15.953Z</time>
      </trkpt>
      <trkpt lat="43.21138" lon="2.33218">
        <ele>164.052436</ele>
        <time>2023-01-05T12:36:18.950Z</time>
      </trkpt>
      <trkpt lat="43.21131" lon="2.33232">
        <ele>163.982898</ele>
        <time>2023-01-05T12:36:21.941Z</time>
      </trkpt>
      <trkpt lat="43.21127" lon="2.33246">
        <ele>163.922746</ele>
        <time>2023-01-05T12:36:24.949Z</time>
      </trkpt>
      <trkpt lat="43.21123" lon="2.33261">
        <ele>163.859341</ele>
        <time>2023-01-05T12:36:27.946Z</time>
      </trkpt>
      <trkpt lat="43.21121" lon="2.33276">
        <ele>163.797311</ele>
        <time>2023-01-05T12:36:30.926Z</time>
      </trkpt>
      <trkpt lat="43.21119" lon="2.3329">
        <ele>163.824079</ele>
        <time>2023-01-05T12:36:33.955Z</time>
      </trkpt>
      <trkpt lat="43.21117" lon="2.33306">
        <ele>164.239482</ele>
        <time>2023-01-05T12:36:36.947Z</time>
      </trkpt>
      <trkpt lat="43.21115" lon="2.33322">
        <ele>164.662697</ele>
        <time>2023-01-05T12:36:39.948Z</time>
      </trkpt>
      <trkpt lat="43.21113" lon="2.33336">
        <ele>165.059253</ele>
        <time>2023-01-05T12:36:42.934Z</time>
      </trkpt>
      <trkpt lat="43.21111" lon="2.3335">
        <ele>165.416278</ele>
        <time>2023-01-05T12:36:45.938Z</time>
      </trkpt>
      <trkpt lat="43.21109" lon="2.33363">
        <ele>165.777724</ele>
        <time>2023-01-05T12:36:48.925Z</time>
      </trkpt>
      <trkpt lat="43.21107" lon="2.33379">
        <ele>166.200898</ele>
        <time>2023-01-05T12:36:52.948Z</time>
      </trkpt>
      <trkpt lat="43.21106" lon="2.33393">
        <ele>166.571295</ele>
        <time>2023-01-05T12:36:55.951Z</time>
      </trkpt>
      <trkpt lat="43.21105" lon="2.33405">
        <ele>166.897616</ele>
        <time>2023-01-05T12:36:58.951Z</time>
      </trkpt>
      <trkpt lat="43.21104" lon="2.33419">
        <ele>167.258824</ele>
        <time>2023-01-05T12:37:01.947Z</time>
      </trkpt>
      <trkpt lat="43.21104" lon="2.33432">
        <ele>167.605013</ele>
        <time>2023-01-05T12:37:04.936Z</time>
      </trkpt>
      <trkpt lat="43.21104" lon="2.33446">
        <ele>167.981108</ele>
        <time>2023-01-05T12:37:07.953Z</time>
      </trkpt>
      <trkpt lat="43.21103" lon="2.3346">
        <ele>168.350204</ele>
        <time>2023-01-05T12:37:10.948Z</time>
      </trkpt>
      <trkpt lat="43.21102" lon="2.33473">
        <ele>168.71252</ele>
        <time>2023-01-05T12:37:13.936Z</time>
      </trkpt>
      <trkpt lat="43.21102" lon="2.33487">
        <ele>169.062011</ele>
        <time>2023-01-05T12:37:16.930Z</time>
      </trkpt>
      <trkpt lat="43.21101" lon="2.335">
        <ele>169.422052</ele>
        <time>2023-01-05T12:37:20.937Z</time>
      </trkpt>
      <trkpt lat="43.21101" lon="2.33514">
        <ele>169.792165</ele>
        <time>2023-01-05T12:37:27.933Z</time>
      </trkpt>
      <trkpt lat="43.21102" lon="2.33528">
        <ele>170.156381</ele>
        <time>2023-01-05T12:37:31.930Z</time>
      </trkpt>
      <trkpt lat="43.21101" lon="2.33545">
        <ele>170.214779</ele>
        <time>2023-01-05T12:37:34.943Z</time>
      </trkpt>
      <trkpt lat="43.21101" lon="2.33563">
        <ele>170.134213</ele>
        <time>2023-01-05T12:37:37.949Z</time>
      </trkpt>
      <trkpt lat="43.21101" lon="2.33576">
        <ele>170.077049</ele>
        <time>2023-01-05T12:37:39.932Z</time>
      </trkpt>
      <trkpt lat="43.21101" lon="2.3359">
        <ele>170.019378</ele>
        <time>2023-01-05T12:37:41.931Z</time>
      </trkpt>
      <trkpt lat="43.21101" lon="2.33603">
        <ele>169.960457</ele>
        <time>2023-01-05T12:37:43.931Z</time>
      </trkpt>
      <trkpt lat="43.21101" lon="2.33618">
        <ele>169.896756</ele>
        <time>2023-01-05T12:37:45.929Z</time>
      </trkpt>
      <trkpt lat="43.211" lon="2.33633">
        <ele>169.832222</ele>
        <time>2023-01-05T12:37:47.947Z</time>
      </trkpt>
      <trkpt lat="43.211" lon="2.33648">
        <ele>169.765796</ele>
        <time>2023-01-05T12:37:49.934Z</time>
      </trkpt>
      <trkpt lat="43.21099" lon="2.33664">
        <ele>169.698978</ele>
        <time>2023-01-05T12:37:51.940Z</time>
      </trkpt>
      <trkpt lat="43.21098" lon="2.33679">
        <ele>169.633924</ele>
        <time>2023-01-05T12:37:53.937Z</time>
      </trkpt>
      <trkpt lat="43.21098" lon="2.33694">
        <ele>169.567971</ele>
        <time>2023-01-05T12:37:55.945Z</time>
      </trkpt>
      <trkpt lat="43.21097" lon="2.33709">
        <ele>169.502514</ele>
        <time>2023-01-05T12:37:57.946Z</time>
      </trkpt>
      <trkpt lat="43.21097" lon="2.33724">
        <ele>169.435826</ele>
        <time>2023-01-05T12:37:59.947Z</time>
      </trkpt>
      <trkpt lat="43.21097" lon="2.33739">
        <ele>169.372965</ele>
        <time>2023-01-05T12:38:01.938Z</time>
      </trkpt>
      <trkpt lat="43.21096" lon="2.33754">
        <ele>169.307403</ele>
        <time>2023-01-05T12:38:03.933Z</time>
      </trkpt>
      <trkpt lat="43.21095" lon="2.3377">
        <ele>169.23935</ele>
        <time>2023-01-05T12:38:05.934Z</time>
      </trkpt>
      <trkpt lat="43.21095" lon="2.33784">
        <ele>169.169851</ele>
        <time>2023-01-05T12:38:07.929Z</time>
      </trkpt>
      <trkpt lat="43.21095" lon="2.338">
        <ele>169.088326</ele>
        <time>2023-01-05T12:38:09.935Z</time>
      </trkpt>
      <trkpt lat="43.21095" lon="2.33815">
        <ele>169.004652</ele>
        <time>2023-01-05T12:38:11.936Z</time>
      </trkpt>
      <trkpt lat="43.21095" lon="2.33831">
        <ele>168.920432</ele>
        <time>2023-01-05T12:38:13.931Z</time>
      </trkpt>
      <trkpt lat="43.21095" lon="2.33846">
        <ele>168.83834</ele>
        <time>2023-01-05T12:38:15.934Z</time>
      </trkpt>
      <trkpt lat="43.21095" lon="2.33862">
        <ele>168.754666</ele>
        <time>2023-01-05T12:38:17.929Z</time>
      </trkpt>
      <trkpt lat="43.21094" lon="2.33876">
        <ele>168.676328</ele>
        <time>2023-01-05T12:38:19.937Z</time>
      </trkpt>
      <trkpt lat="43.21093" lon="2.33892">
        <ele>168.59293</ele>
        <time>2023-01-05T12:38:21.936Z</time>
      </trkpt>
      <trkpt lat="43.21093" lon="2.33907">
        <ele>168.513383</ele>
        <time>2023-01-05T12:38:23.936Z</time>
      </trkpt>
      <trkpt lat="43.21092" lon="2.33922">
        <ele>168.431991</ele>
        <time>2023-01-05T12:38:25.952Z</time>
      </trkpt>
      <trkpt lat="43.21091" lon="2.33938">
        <ele>168.347043</ele>
        <time>2023-01-05T12:38:27.935Z</time>
      </trkpt>
      <trkpt lat="43.21091" lon="2.33953">
        <ele>168.263359</ele>
        <time>2023-01-05T12:38:29.950Z</time>
      </trkpt>
      <trkpt lat="43.2109" lon="2.33968">
        <ele>168.183358</ele>
        <time>2023-01-05T12:38:31.938Z</time>
      </trkpt>
      <trkpt lat="43.21089" lon="2.33982">
        <ele>168.105899</ele>
        <time>2023-01-05T12:38:33.956Z</time>
      </trkpt>
      <trkpt lat="43.21089" lon="2.33998">
        <ele>168.023808</ele>
        <time>2023-01-05T12:38:35.939Z</time>
      </trkpt>
      <trkpt lat="43.21089" lon="2.34013">
        <ele>167.942253</ele>
        <time>2023-01-05T12:38:37.944Z</time>
      </trkpt>
      <trkpt lat="43.21089" lon="2.34028">
        <ele>167.867356</ele>
        <time>2023-01-05T12:38:39.948Z</time>
      </trkpt>
      <trkpt lat="43.21087" lon="2.34043">
        <ele>167.824868</ele>
        <time>2023-01-05T12:38:41.951Z</time>
      </trkpt>
      <trkpt lat="43.21086" lon="2.34058">
        <ele>167.780064</ele>
        <time>2023-01-05T12:38:43.929Z</time>
      </trkpt>
      <trkpt lat="43.21085" lon="2.34073">
        <ele>167.737079</ele>
        <time>2023-01-05T12:38:45.940Z</time>
      </trkpt>
      <trkpt lat="43.21084" lon="2.34086">
        <ele>167.697144</ele>
        <time>2023-01-05T12:38:47.951Z</time>
      </trkpt>
      <trkpt lat="43.21081" lon="2.34099">
        <ele>167.658513</ele>
        <time>2023-01-05T12:38:49.950Z</time>
      </trkpt>
      <trkpt lat="43.21081" lon="2.34113">
        <ele>167.617751</ele>
        <time>2023-01-05T12:38:51.929Z</time>
      </trkpt>
      <trkpt lat="43.21083" lon="2.34129">
        <ele>167.569691</ele>
        <time>2023-01-05T12:38:54.939Z</time>
      </trkpt>
      <trkpt lat="43.21085" lon="2.34146">
        <ele>167.520701</ele>
        <time>2023-01-05T12:38:57.930Z</time>
      </trkpt>
      <trkpt lat="43.21084" lon="2.3416">
        <ele>167.479349</ele>
        <time>2023-01-05T12:39:00.933Z</time>
      </trkpt>
      <trkpt lat="43.21084" lon="2.34175">
        <ele>167.437698</ele>
        <time>2023-01-05T12:39:03.941Z</time>
      </trkpt>
      <trkpt lat="43.21083" lon="2.3419">
        <ele>167.393007</ele>
        <time>2023-01-05T12:39:06.944Z</time>
      </trkpt>
      <trkpt lat="43.21082" lon="2.34206">
        <ele>167.345703</ele>
        <time>2023-01-05T12:39:09.932Z</time>
      </trkpt>
      <trkpt lat="43.21082" lon="2.34223">
        <ele>167.297066</ele>
        <time>2023-01-05T12:39:12.928Z</time>
      </trkpt>
      <trkpt lat="43.21081" lon="2.34238">
        <ele>167.251505</ele>
        <time>2023-01-05T12:39:15.936Z</time>
      </trkpt>
      <trkpt lat="43.2108" lon="2.34255">
        <ele>167.203911</ele>
        <time>2023-01-05T12:39:18.954Z</time>
      </trkpt>
      <trkpt lat="43.2108" lon="2.34269">
        <ele>167.16373</ele>
        <time>2023-01-05T12:39:21.923Z</time>
      </trkpt>
      <trkpt lat="43.2108" lon="2.34284">
        <ele>167.259395</ele>
        <time>2023-01-05T12:39:24.932Z</time>
      </trkpt>
      <trkpt lat="43.21081" lon="2.34297">
        <ele>167.363603</ele>
        <time>2023-01-05T12:39:27.931Z</time>
      </trkpt>
      <trkpt lat="43.2108" lon="2.3431">
        <ele>167.46018</ele>
        <time>2023-01-05T12:39:30.937Z</time>
      </trkpt>
      <trkpt lat="43.21079" lon="2.34323">
        <ele>167.557931</ele>
        <time>2023-01-05T12:39:33.936Z</time>
      </trkpt>
      <trkpt lat="43.21078" lon="2.34338">
        <ele>167.673995</ele>
        <time>2023-01-05T12:39:36.933Z</time>
      </trkpt>
      <trkpt lat="43.21078" lon="2.34354">
        <ele>167.798317</ele>
        <time>2023-01-05T12:39:39.931Z</time>
      </trkpt>
      <trkpt lat="43.21077" lon="2.3437">
        <ele>167.923259</ele>
        <time>2023-01-05T12:39:42.966Z</time>
      </trkpt>
      <trkpt lat="43.21077" lon="2.34386">
        <ele>168.042075</ele>
        <time>2023-01-05T12:39:45.927Z</time>
      </trkpt>
      <trkpt lat="43.21075" lon="2.34401">
        <ele>168.16324</ele>
        <time>2023-01-05T12:39:48.944Z</time>
      </trkpt>
      <trkpt lat="43.21072" lon="2.34415">
        <ele>168.275232</ele>
        <time>2023-01-05T12:39:51.934Z</time>
      </trkpt>
      <trkpt lat="43.21068" lon="2.3443">
        <ele>168.395889</ele>
        <time>2023-01-05T12:39:54.931Z</time>
      </trkpt>
      <trkpt lat="43.21066" lon="2.34444">
        <ele>168.503678</ele>
        <time>2023-01-05T12:39:57.935Z</time>
      </trkpt>
      <trkpt lat="43.21063" lon="2.34457">
        <ele>168.607096</ele>
        <time>2023-01-05T12:40:00.943Z</time>
      </trkpt>
      <trkpt lat="43.21061" lon="2.34471">
        <ele>168.714294</ele>
        <time>2023-01-05T12:40:04.929Z</time>
      </trkpt>
      <trkpt lat="43.21058" lon="2.34483">
        <ele>168.811549</ele>
        <time>2023-01-05T12:40:08.950Z</time>
      </trkpt>
      <trkpt lat="43.21054" lon="2.34495">
        <ele>168.917667</ele>
        <time>2023-01-05T12:40:15.933Z</time>
      </trkpt>
      <trkpt lat="43.21051" lon="2.34508">
        <ele>169.022131</ele>
        <time>2023-01-05T12:40:20.931Z</time>
      </trkpt>
      <trkpt lat="43.21049" lon="2.34521">
        <ele>169.094032</ele>
        <time>2023-01-05T12:40:23.929Z</time>
      </trkpt>
      <trkpt lat="43.21047" lon="2.34536">
        <ele>169.166199</ele>
        <time>2023-01-05T12:40:26.930Z</time>
      </trkpt>
      <trkpt lat="43.21044" lon="2.34551">
        <ele>169.244231</ele>
        <time>2023-01-05T12:40:30.929Z</time>
      </trkpt>
      <trkpt lat="43.21041" lon="2.34569">
        <ele>169.331404</ele>
        <time>2023-01-05T12:40:33.931Z</time>
      </trkpt>
      <trkpt lat="43.2104" lon="2.34583">
        <ele>169.394996</ele>
        <time>2023-01-05T12:40:35.930Z</time>
      </trkpt>
      <trkpt lat="43.21037" lon="2.34599">
        <ele>169.476718</ele>
        <time>2023-01-05T12:40:38.928Z</time>
      </trkpt>
      <trkpt lat="43.21034" lon="2.34616">
        <ele>169.559834</ele>
        <time>2023-01-05T12:40:41.930Z</time>
      </trkpt>
      <trkpt lat="43.21032" lon="2.34632">
        <ele>169.638306</ele>
        <time>2023-01-05T12:40:44.930Z</time>
      </trkpt>
      <trkpt lat="43.2103" lon="2.34649">
        <ele>169.720702</ele>
        <time>2023-01-05T12:40:47.937Z</time>
      </trkpt>
      <trkpt lat="43.21029" lon="2.34667">
        <ele>169.802822</ele>
        <time>2023-01-05T12:40:50.936Z</time>
      </trkpt>
      <trkpt lat="43.21029" lon="2.34684">
        <ele>169.88485</ele>
        <time>2023-01-05T12:40:53.936Z</time>
      </trkpt>
      <trkpt lat="43.21029" lon="2.34697">
        <ele>169.950214</ele>
        <time>2023-01-05T12:40:55.948Z</time>
      </trkpt>
      <trkpt lat="43.21029" lon="2.3471">
        <ele>170.010784</ele>
        <time>2023-01-05T12:40:57.932Z</time>
      </trkpt>
      <trkpt lat="43.21029" lon="2.34723">
        <ele>170.073257</ele>
        <time>2023-01-05T12:40:59.935Z</time>
      </trkpt>
      <trkpt lat="43.21029" lon="2.34738">
        <ele>170.142912</ele>
        <time>2023-01-05T12:41:01.933Z</time>
      </trkpt>
      <trkpt lat="43.21029" lon="2.34752">
        <ele>170.209213</ele>
        <time>2023-01-05T12:41:03.934Z</time>
      </trkpt>
      <trkpt lat="43.21029" lon="2.34767">
        <ele>170.259076</ele>
        <time>2023-01-05T12:41:05.930Z</time>
      </trkpt>
      <trkpt lat="43.2103" lon="2.34784">
        <ele>170.307129</ele>
        <time>2023-01-05T12:41:07.942Z</time>
      </trkpt>
      <trkpt lat="43.2103" lon="2.34801">
        <ele>170.352461</ele>
        <time>2023-01-05T12:41:09.929Z</time>
      </trkpt>
      <trkpt lat="43.21032" lon="2.34819">
        <ele>170.402488</ele>
        <time>2023-01-05T12:41:11.936Z</time>
      </trkpt>
      <trkpt lat="43.21032" lon="2.34837">
        <ele>170.453939</ele>
        <time>2023-01-05T12:41:13.938Z</time>
      </trkpt>
      <trkpt lat="43.21032" lon="2.34854">
        <ele>170.501502</ele>
        <time>2023-01-05T12:41:15.937Z</time>
      </trkpt>
      <trkpt lat="43.21032" lon="2.34871">
        <ele>170.547669</ele>
        <time>2023-01-05T12:41:17.953Z</time>
      </trkpt>
      <trkpt lat="43.21032" lon="2.34888">
        <ele>170.596617</ele>
        <time>2023-01-05T12:41:19.938Z</time>
      </trkpt>
      <trkpt lat="43.21032" lon="2.34906">
        <ele>170.6467</ele>
        <time>2023-01-05T12:41:21.938Z</time>
      </trkpt>
      <trkpt lat="43.21033" lon="2.34924">
        <ele>170.696297</ele>
        <time>2023-01-05T12:41:23.935Z</time>
      </trkpt>
      <trkpt lat="43.21033" lon="2.3494">
        <ele>170.740809</ele>
        <time>2023-01-05T12:41:25.948Z</time>
      </trkpt>
      <trkpt lat="43.21034" lon="2.34954">
        <ele>170.779835</ele>
        <time>2023-01-05T12:41:27.933Z</time>
      </trkpt>
      <trkpt lat="43.21034" lon="2.3497">
        <ele>170.822413</ele>
        <time>2023-01-05T12:41:29.935Z</time>
      </trkpt>
      <trkpt lat="43.21034" lon="2.34985">
        <ele>170.865243</ele>
        <time>2023-01-05T12:41:31.928Z</time>
      </trkpt>
      <trkpt lat="43.21033" lon="2.35">
        <ele>170.908276</ele>
        <time>2023-01-05T12:41:33.931Z</time>
      </trkpt>
      <trkpt lat="43.21033" lon="2.35017">
        <ele>170.430617</ele>
        <time>2023-01-05T12:41:35.943Z</time>
      </trkpt>
      <trkpt lat="43.21034" lon="2.35035">
        <ele>169.874504</ele>
        <time>2023-01-05T12:41:37.951Z</time>
      </trkpt>
      <trkpt lat="43.21036" lon="2.35054">
        <ele>169.301683</ele>
        <time>2023-01-05T12:41:39.950Z</time>
      </trkpt>
      <trkpt lat="43.21036" lon="2.35074">
        <ele>168.684135</ele>
        <time>2023-01-05T12:41:41.951Z</time>
      </trkpt>
      <trkpt lat="43.21037" lon="2.35093">
        <ele>168.094812</ele>
        <time>2023-01-05T12:41:43.932Z</time>
      </trkpt>
      <trkpt lat="43.21037" lon="2.35111">
        <ele>167.529531</ele>
        <time>2023-01-05T12:41:45.949Z</time>
      </trkpt>
      <trkpt lat="43.21037" lon="2.35127">
        <ele>167.040996</ele>
        <time>2023-01-05T12:41:47.934Z</time>
      </trkpt>
      <trkpt lat="43.21036" lon="2.35141">
        <ele>166.607939</ele>
        <time>2023-01-05T12:41:49.929Z</time>
      </trkpt>
      <trkpt lat="43.21034" lon="2.35155">
        <ele>166.182945</ele>
        <time>2023-01-05T12:41:51.951Z</time>
      </trkpt>
      <trkpt lat="43.21035" lon="2.35169">
        <ele>165.761984</ele>
        <time>2023-01-05T12:41:53.931Z</time>
      </trkpt>
      <trkpt lat="43.21034" lon="2.35183">
        <ele>165.328736</ele>
        <time>2023-01-05T12:41:55.925Z</time>
      </trkpt>
      <trkpt lat="43.21035" lon="2.35197">
        <ele>164.901528</ele>
        <time>2023-01-05T12:41:57.931Z</time>
      </trkpt>
      <trkpt lat="43.21035" lon="2.3521">
        <ele>164.492744</ele>
        <time>2023-01-05T12:41:59.943Z</time>
      </trkpt>
      <trkpt lat="43.21032" lon="2.35227">
        <ele>163.948219</ele>
        <time>2023-01-05T12:42:02.936Z</time>
      </trkpt>
      <trkpt lat="43.21024" lon="2.35241">
        <ele>163.404288</ele>
        <time>2023-01-05T12:42:05.931Z</time>
      </trkpt>
      <trkpt lat="43.21019" lon="2.35258">
        <ele>163.039473</ele>
        <time>2023-01-05T12:42:08.949Z</time>
      </trkpt>
      <trkpt lat="43.21022" lon="2.35274">
        <ele>162.722321</ele>
        <time>2023-01-05T12:42:11.968Z</time>
      </trkpt>
      <trkpt lat="43.21031" lon="2.35286">
        <ele>162.406256</ele>
        <time>2023-01-05T12:42:14.952Z</time>
      </trkpt>
      <trkpt lat="43.21036" lon="2.35301">
        <ele>162.084051</ele>
        <time>2023-01-05T12:42:17.950Z</time>
      </trkpt>
      <trkpt lat="43.21037" lon="2.35314">
        <ele>161.849918</ele>
        <time>2023-01-05T12:42:19.948Z</time>
      </trkpt>
      <trkpt lat="43.21036" lon="2.3533">
        <ele>161.534575</ele>
        <time>2023-01-05T12:42:22.950Z</time>
      </trkpt>
      <trkpt lat="43.21037" lon="2.35345">
        <ele>161.263839</ele>
        <time>2023-01-05T12:42:25.948Z</time>
      </trkpt>
      <trkpt lat="43.21037" lon="2.35361">
        <ele>160.953984</ele>
        <time>2023-01-05T12:42:28.947Z</time>
      </trkpt>
      <trkpt lat="43.21036" lon="2.35378">
        <ele>160.628638</ele>
        <time>2023-01-05T12:42:31.950Z</time>
      </trkpt>
      <trkpt lat="43.21035" lon="2.35395">
        <ele>160.306882</ele>
        <time>2023-01-05T12:42:34.948Z</time>
      </trkpt>
      <trkpt lat="43.21033" lon="2.35409">
        <ele>160.038256</ele>
        <time>2023-01-05T12:42:37.933Z</time>
      </trkpt>
      <trkpt lat="43.21033" lon="2.35423">
        <ele>159.780889</ele>
        <time>2023-01-05T12:42:41.930Z</time>
      </trkpt>
      <trkpt lat="43.21037" lon="2.35435">
        <ele>159.53068</ele>
        <time>2023-01-05T12:43:06.938Z</time>
      </trkpt>
      <trkpt lat="43.21037" lon="2.3545">
        <ele>159.241571</ele>
        <time>2023-01-05T12:43:11.927Z</time>
      </trkpt>
      <trkpt lat="43.21036" lon="2.35464">
        <ele>158.971579</ele>
        <time>2023-01-05T12:43:14.942Z</time>
      </trkpt>
      <trkpt lat="43.21037" lon="2.3548">
        <ele>158.676994</ele>
        <time>2023-01-05T12:43:17.926Z</time>
      </trkpt>
      <trkpt lat="43.21039" lon="2.35496">
        <ele>158.478695</ele>
        <time>2023-01-05T12:43:20.927Z</time>
      </trkpt>
      <trkpt lat="43.2104" lon="2.35512">
        <ele>158.283572</ele>
        <time>2023-01-05T12:43:23.927Z</time>
      </trkpt>
      <trkpt lat="43.21045" lon="2.35525">
        <ele>158.102573</ele>
        <time>2023-01-05T12:43:26.938Z</time>
      </trkpt>
      <trkpt lat="43.21056" lon="2.35531">
        <ele>157.913341</ele>
        <time>2023-01-05T12:43:29.933Z</time>
      </trkpt>
      <trkpt lat="43.21068" lon="2.35532">
        <ele>157.715991</ele>
        <time>2023-01-05T12:43:32.941Z</time>
      </trkpt>
      <trkpt lat="43.21081" lon="2.35532">
        <ele>157.510573</ele>
        <time>2023-01-05T12:43:35.946Z</time>
      </trkpt>
      <trkpt lat="43.21091" lon="2.35533">
        <ele>157.347595</ele>
        <time>2023-01-05T12:43:37.952Z</time>
      </trkpt>
      <trkpt lat="43.21101" lon="2.35533">
        <ele>157.176755</ele>
        <time>2023-01-05T12:43:39.944Z</time>
      </trkpt>
      <trkpt lat="43.2111" lon="2.35535">
        <ele>157.025729</ele>
        <time>2023-01-05T12:43:41.939Z</time>
      </trkpt>
      <trkpt lat="43.21123" lon="2.35536">
        <ele>156.816619</ele>
        <time>2023-01-05T12:43:44.949Z</time>
      </trkpt>
      <trkpt lat="43.21133" lon="2.35538">
        <ele>156.648993</ele>
        <time>2023-01-05T12:43:47.934Z</time>
      </trkpt>
      <trkpt lat="43.21145" lon="2.35539">
        <ele>156.454861</ele>
        <time>2023-01-05T12:43:50.927Z</time>
      </trkpt>
      <trkpt lat="43.21156" lon="2.3554">
        <ele>156.26237</ele>
        <time>2023-01-05T12:43:53.957Z</time>
      </trkpt>
      <trkpt lat="43.21167" lon="2.35543">
        <ele>156.077906</ele>
        <time>2023-01-05T12:43:56.948Z</time>
      </trkpt>
      <trkpt lat="43.21178" lon="2.35547">
        <ele>155.904196</ele>
        <time>2023-01-05T12:43:59.952Z</time>
      </trkpt>
      <trkpt lat="43.21186" lon="2.35553">
        <ele>155.748079</ele>
        <time>2023-01-05T12:44:02.937Z</time>
      </trkpt>
      <trkpt lat="43.21191" lon="2.35565">
        <ele>155.707287</ele>
        <time>2023-01-05T12:44:05.936Z</time>
      </trkpt>
      <trkpt lat="43.2119" lon="2.35578">
        <ele>155.694683</ele>
        <time>2023-01-05T12:44:08.930Z</time>
      </trkpt>
      <trkpt lat="43.21187" lon="2.35593">
        <ele>155.680357</ele>
        <time>2023-01-05T12:44:11.952Z</time>
      </trkpt>
      <trkpt lat="43.21185" lon="2.35609">
        <ele>155.665067</ele>
        <time>2023-01-05T12:44:14.951Z</time>
      </trkpt>
      <trkpt lat="43.21183" lon="2.35624">
        <ele>155.650503</ele>
        <time>2023-01-05T12:44:17.948Z</time>
      </trkpt>
      <trkpt lat="43.21181" lon="2.35638">
        <ele>155.637732</ele>
        <time>2023-01-05T12:44:20.953Z</time>
      </trkpt>
      <trkpt lat="43.21179" lon="2.35653">
        <ele>155.623694</ele>
        <time>2023-01-05T12:44:23.953Z</time>
      </trkpt>
      <trkpt lat="43.21176" lon="2.35669">
        <ele>155.60819</ele>
        <time>2023-01-05T12:44:26.940Z</time>
      </trkpt>
      <trkpt lat="43.21173" lon="2.35682">
        <ele>155.59546</ele>
        <time>2023-01-05T12:44:29.949Z</time>
      </trkpt>
      <trkpt lat="43.21171" lon="2.35697">
        <ele>155.580889</ele>
        <time>2023-01-05T12:44:32.937Z</time>
      </trkpt>
      <trkpt lat="43.21169" lon="2.3571">
        <ele>155.568615</ele>
        <time>2023-01-05T12:44:35.933Z</time>
      </trkpt>
      <trkpt lat="43.21167" lon="2.35724">
        <ele>155.554916</ele>
        <time>2023-01-05T12:44:38.934Z</time>
      </trkpt>
      <trkpt lat="43.21165" lon="2.35738">
        <ele>155.542115</ele>
        <time>2023-01-05T12:44:41.932Z</time>
      </trkpt>
      <trkpt lat="43.21166" lon="2.35751">
        <ele>155.52973</ele>
        <time>2023-01-05T12:44:44.947Z</time>
      </trkpt>
      <trkpt lat="43.21172" lon="2.35763">
        <ele>155.516175</ele>
        <time>2023-01-05T12:44:48.937Z</time>
      </trkpt>
      <trkpt lat="43.21181" lon="2.35771">
        <ele>155.502955</ele>
        <time>2023-01-05T12:44:51.951Z</time>
      </trkpt>
      <trkpt lat="43.21187" lon="2.35781">
        <ele>155.490671</ele>
        <time>2023-01-05T12:44:54.930Z</time>
      </trkpt>
      <trkpt lat="43.21187" lon="2.35797">
        <ele>155.551422</ele>
        <time>2023-01-05T12:44:58.923Z</time>
      </trkpt>
      <trkpt lat="43.21184" lon="2.35811">
        <ele>155.625176</ele>
        <time>2023-01-05T12:45:01.945Z</time>
      </trkpt>
      <trkpt lat="43.2118" lon="2.35823">
        <ele>155.693489</ele>
        <time>2023-01-05T12:45:04.928Z</time>
      </trkpt>
      <trkpt lat="43.21177" lon="2.35837">
        <ele>155.768935</ele>
        <time>2023-01-05T12:45:07.930Z</time>
      </trkpt>
      <trkpt lat="43.21173" lon="2.35852">
        <ele>155.845765</ele>
        <time>2023-01-05T12:45:10.939Z</time>
      </trkpt>
      <trkpt lat="43.2117" lon="2.35866">
        <ele>155.921959</ele>
        <time>2023-01-05T12:45:13.930Z</time>
      </trkpt>
      <trkpt lat="43.21166" lon="2.35881">
        <ele>155.998432</ele>
        <time>2023-01-05T12:45:16.936Z</time>
      </trkpt>
      <trkpt lat="43.21164" lon="2.35895">
        <ele>156.073661</ele>
        <time>2023-01-05T12:45:19.956Z</time>
      </trkpt>
      <trkpt lat="43.2116" lon="2.35909">
        <ele>156.148122</ele>
        <time>2023-01-05T12:45:22.949Z</time>
      </trkpt>
      <trkpt lat="43.21156" lon="2.35922">
        <ele>156.21998</ele>
        <time>2023-01-05T12:45:25.931Z</time>
      </trkpt>
      <trkpt lat="43.21153" lon="2.35936">
        <ele>156.293966</ele>
        <time>2023-01-05T12:45:28.932Z</time>
      </trkpt>
      <trkpt lat="43.21149" lon="2.35951">
        <ele>156.372456</ele>
        <time>2023-01-05T12:45:31.931Z</time>
      </trkpt>
      <trkpt lat="43.21145" lon="2.35966">
        <ele>156.454979</ele>
        <time>2023-01-05T12:45:34.932Z</time>
      </trkpt>
      <trkpt lat="43.21141" lon="2.35981">
        <ele>156.537978</ele>
        <time>2023-01-05T12:45:37.951Z</time>
      </trkpt>
      <trkpt lat="43.21137" lon="2.35996">
        <ele>156.615079</ele>
        <time>2023-01-05T12:45:40.928Z</time>
      </trkpt>
      <trkpt lat="43.21133" lon="2.3601">
        <ele>156.693163</ele>
        <time>2023-01-05T12:45:43.934Z</time>
      </trkpt>
      <trkpt lat="43.21129" lon="2.36025">
        <ele>156.657048</ele>
        <time>2023-01-05T12:45:46.939Z</time>
      </trkpt>
      <trkpt lat="43.21124" lon="2.3604">
        <ele>156.515995</ele>
        <time>2023-01-05T12:45:49.947Z</time>
      </trkpt>
      <trkpt lat="43.21121" lon="2.36054">
        <ele>156.376329</ele>
        <time>2023-01-05T12:45:52.945Z</time>
      </trkpt>
      <trkpt lat="43.21117" lon="2.36069">
        <ele>156.235449</ele>
        <time>2023-01-05T12:45:55.937Z</time>
      </trkpt>
      <trkpt lat="43.21113" lon="2.36084">
        <ele>156.08429</ele>
        <time>2023-01-05T12:45:58.937Z</time>
      </trkpt>
      <trkpt lat="43.21108" lon="2.36101">
        <ele>155.922004</ele>
        <time>2023-01-05T12:46:01.943Z</time>
      </trkpt>
      <trkpt lat="43.21103" lon="2.36117">
        <ele>155.760936</ele>
        <time>2023-01-05T12:46:04.933Z</time>
      </trkpt>
      <trkpt lat="43.21098" lon="2.36134">
        <ele>155.600797</ele>
        <time>2023-01-05T12:46:07.930Z</time>
      </trkpt>
      <trkpt lat="43.21093" lon="2.3615">
        <ele>155.436941</ele>
        <time>2023-01-05T12:46:10.938Z</time>
      </trkpt>
      <trkpt lat="43.21088" lon="2.36166">
        <ele>155.281022</ele>
        <time>2023-01-05T12:46:13.928Z</time>
      </trkpt>
      <trkpt lat="43.21084" lon="2.36182">
        <ele>155.132034</ele>
        <time>2023-01-05T12:46:16.928Z</time>
      </trkpt>
      <trkpt lat="43.2108" lon="2.36196">
        <ele>154.994136</ele>
        <time>2023-01-05T12:46:19.926Z</time>
      </trkpt>
      <trkpt lat="43.21076" lon="2.3621">
        <ele>154.857526</ele>
        <time>2023-01-05T12:46:22.927Z</time>
      </trkpt>
      <trkpt lat="43.21072" lon="2.36225">
        <ele>154.712275</ele>
        <time>2023-01-05T12:46:25.929Z</time>
      </trkpt>
      <trkpt lat="43.21068" lon="2.36239">
        <ele>154.572236</ele>
        <time>2023-01-05T12:46:28.929Z</time>
      </trkpt>
      <trkpt lat="43.21064" lon="2.36253">
        <ele>154.615176</ele>
        <time>2023-01-05T12:46:31.930Z</time>
      </trkpt>
      <trkpt lat="43.2106" lon="2.36268">
        <ele>154.955087</ele>
        <time>2023-01-05T12:46:34.932Z</time>
      </trkpt>
      <trkpt lat="43.21056" lon="2.36284">
        <ele>155.314904</ele>
        <time>2023-01-05T12:46:37.927Z</time>
      </trkpt>
      <trkpt lat="43.21052" lon="2.363">
        <ele>155.680011</ele>
        <time>2023-01-05T12:46:40.930Z</time>
      </trkpt>
      <trkpt lat="43.21048" lon="2.36315">
        <ele>156.02283</ele>
        <time>2023-01-05T12:46:43.940Z</time>
      </trkpt>
      <trkpt lat="43.21044" lon="2.36331">
        <ele>156.380649</ele>
        <time>2023-01-05T12:46:46.939Z</time>
      </trkpt>
      <trkpt lat="43.21039" lon="2.36346">
        <ele>156.724529</ele>
        <time>2023-01-05T12:46:49.926Z</time>
      </trkpt>
      <trkpt lat="43.21036" lon="2.3636">
        <ele>157.048266</ele>
        <time>2023-01-05T12:46:52.929Z</time>
      </trkpt>
      <trkpt lat="43.21031" lon="2.36374">
        <ele>157.366915</ele>
        <time>2023-01-05T12:46:55.930Z</time>
      </trkpt>
      <trkpt lat="43.21027" lon="2.36386">
        <ele>157.646861</ele>
        <time>2023-01-05T12:46:58.940Z</time>
      </trkpt>
      <trkpt lat="43.21024" lon="2.36398">
        <ele>157.920492</ele>
        <time>2023-01-05T12:47:02.934Z</time>
      </trkpt>
      <trkpt lat="43.21021" lon="2.3641">
        <ele>158.194124</ele>
        <time>2023-01-05T12:47:06.926Z</time>
      </trkpt>
      <trkpt lat="43.21017" lon="2.36425">
        <ele>158.531913</ele>
        <time>2023-01-05T12:47:10.936Z</time>
      </trkpt>
      <trkpt lat="43.21012" lon="2.36439">
        <ele>158.870755</ele>
        <time>2023-01-05T12:47:14.930Z</time>
      </trkpt>
      <trkpt lat="43.21008" lon="2.36455">
        <ele>159.21553</ele>
        <time>2023-01-05T12:47:18.928Z</time>
      </trkpt>
      <trkpt lat="43.21005" lon="2.36467">
        <ele>159.491159</ele>
        <time>2023-01-05T12:47:21.948Z</time>
      </trkpt>
      <trkpt lat="43.21002" lon="2.36479">
        <ele>159.768987</ele>
        <time>2023-01-05T12:47:24.933Z</time>
      </trkpt>
      <trkpt lat="43.20999" lon="2.36491">
        <ele>160.066438</ele>
        <time>2023-01-05T12:47:27.936Z</time>
      </trkpt>
      <trkpt lat="43.20996" lon="2.36503">
        <ele>160.366316</ele>
        <time>2023-01-05T12:47:30.935Z</time>
      </trkpt>
      <trkpt lat="43.20993" lon="2.36516">
        <ele>160.680031</ele>
        <time>2023-01-05T12:47:33.935Z</time>
      </trkpt>
      <trkpt lat="43.2099" lon="2.36529">
        <ele>160.997365</ele>
        <time>2023-01-05T12:47:36.938Z</time>
      </trkpt>
      <trkpt lat="43.20985" lon="2.36542">
        <ele>161.322739</ele>
        <time>2023-01-05T12:47:39.953Z</time>
      </trkpt>
      <trkpt lat="43.20981" lon="2.36555">
        <ele>161.654517</ele>
        <time>2023-01-05T12:47:42.939Z</time>
      </trkpt>
      <trkpt lat="43.20978" lon="2.36567">
        <ele>161.962836</ele>
        <time>2023-01-05T12:47:45.934Z</time>
      </trkpt>
      <trkpt lat="43.20974" lon="2.36581">
        <ele>162.302289</ele>
        <time>2023-01-05T12:47:48.929Z</time>
      </trkpt>
      <trkpt lat="43.2097" lon="2.36594">
        <ele>162.629239</ele>
        <time>2023-01-05T12:47:51.949Z</time>
      </trkpt>
      <trkpt lat="43.20966" lon="2.36607">
        <ele>162.966023</ele>
        <time>2023-01-05T12:47:54.948Z</time>
      </trkpt>
      <trkpt lat="43.20963" lon="2.36621">
        <ele>163.305253</ele>
        <time>2023-01-05T12:47:57.938Z</time>
      </trkpt>
      <trkpt lat="43.2096" lon="2.36635">
        <ele>163.63979</ele>
        <time>2023-01-05T12:48:00.951Z</time>
      </trkpt>
      <trkpt lat="43.20956" lon="2.36648">
        <ele>163.970156</ele>
        <time>2023-01-05T12:48:03.947Z</time>
      </trkpt>
      <trkpt lat="43.20953" lon="2.36661">
        <ele>164.290513</ele>
        <time>2023-01-05T12:48:06.936Z</time>
      </trkpt>
      <trkpt lat="43.2095" lon="2.36674">
        <ele>164.609745</ele>
        <time>2023-01-05T12:48:09.949Z</time>
      </trkpt>
      <trkpt lat="43.20946" lon="2.36687">
        <ele>164.944282</ele>
        <time>2023-01-05T12:48:12.941Z</time>
      </trkpt>
      <trkpt lat="43.20942" lon="2.36701">
        <ele>165.279113</ele>
        <time>2023-01-05T12:48:15.951Z</time>
      </trkpt>
      <trkpt lat="43.20939" lon="2.36714">
        <ele>165.569263</ele>
        <time>2023-01-05T12:48:18.948Z</time>
      </trkpt>
      <trkpt lat="43.20936" lon="2.36727">
        <ele>165.805958</ele>
        <time>2023-01-05T12:48:21.931Z</time>
      </trkpt>
      <trkpt lat="43.20932" lon="2.3674">
        <ele>166.052361</ele>
        <time>2023-01-05T12:48:24.949Z</time>
      </trkpt>
      <trkpt lat="43.20928" lon="2.36754">
        <ele>166.301983</ele>
        <time>2023-01-05T12:48:27.945Z</time>
      </trkpt>
      <trkpt lat="43.20925" lon="2.36767">
        <ele>166.551617</ele>
        <time>2023-01-05T12:48:30.936Z</time>
      </trkpt>
      <trkpt lat="43.20921" lon="2.3678">
        <ele>166.782924</ele>
        <time>2023-01-05T12:48:33.933Z</time>
      </trkpt>
      <trkpt lat="43.20918" lon="2.36791">
        <ele>166.997813</ele>
        <time>2023-01-05T12:48:36.939Z</time>
      </trkpt>
      <trkpt lat="43.20914" lon="2.36803">
        <ele>167.224718</ele>
        <time>2023-01-05T12:48:40.929Z</time>
      </trkpt>
      <trkpt lat="43.20909" lon="2.36817">
        <ele>167.486256</ele>
        <time>2023-01-05T12:48:46.941Z</time>
      </trkpt>
      <trkpt lat="43.20906" lon="2.36829">
        <ele>167.701156</ele>
        <time>2023-01-05T12:48:49.929Z</time>
      </trkpt>
      <trkpt lat="43.20903" lon="2.36842">
        <ele>167.933095</ele>
        <time>2023-01-05T12:48:52.932Z</time>
      </trkpt>
      <trkpt lat="43.209" lon="2.36854">
        <ele>168.160915</ele>
        <time>2023-01-05T12:48:55.933Z</time>
      </trkpt>
      <trkpt lat="43.20897" lon="2.36867">
        <ele>168.387126</ele>
        <time>2023-01-05T12:48:58.930Z</time>
      </trkpt>
      <trkpt lat="43.20894" lon="2.36879">
        <ele>168.610123</ele>
        <time>2023-01-05T12:49:01.944Z</time>
      </trkpt>
      <trkpt lat="43.2089" lon="2.36895">
        <ele>168.895284</ele>
        <time>2023-01-05T12:49:05.940Z</time>
      </trkpt>
      <trkpt lat="43.20887" lon="2.36907">
        <ele>169.112681</ele>
        <time>2023-01-05T12:49:08.932Z</time>
      </trkpt>
      <trkpt lat="43.20883" lon="2.3692">
        <ele>169.352833</ele>
        <time>2023-01-05T12:49:12.935Z</time>
      </trkpt>
      <trkpt lat="43.20879" lon="2.36934">
        <ele>169.621886</ele>
        <time>2023-01-05T12:49:16.943Z</time>
      </trkpt>
      <trkpt lat="43.20877" lon="2.36948">
        <ele>169.831089</ele>
        <time>2023-01-05T12:49:20.936Z</time>
      </trkpt>
      <trkpt lat="43.20873" lon="2.3696">
        <ele>170.0126</ele>
        <time>2023-01-05T12:49:24.936Z</time>
      </trkpt>
      <trkpt lat="43.20869" lon="2.36975">
        <ele>170.208905</ele>
        <time>2023-01-05T12:49:28.950Z</time>
      </trkpt>
      <trkpt lat="43.20868" lon="2.36988">
        <ele>170.383189</ele>
        <time>2023-01-05T12:49:31.929Z</time>
      </trkpt>
      <trkpt lat="43.20865" lon="2.37">
        <ele>170.562092</ele>
        <time>2023-01-05T12:49:34.929Z</time>
      </trkpt>
      <trkpt lat="43.2086" lon="2.37014">
        <ele>170.759764</ele>
        <time>2023-01-05T12:49:37.930Z</time>
      </trkpt>
      <trkpt lat="43.20855" lon="2.37029">
        <ele>170.970718</ele>
        <time>2023-01-05T12:49:40.926Z</time>
      </trkpt>
      <trkpt lat="43.20851" lon="2.37044">
        <ele>171.19083</ele>
        <time>2023-01-05T12:49:43.930Z</time>
      </trkpt>
      <trkpt lat="43.20846" lon="2.37059">
        <ele>171.407465</ele>
        <time>2023-01-05T12:49:46.946Z</time>
      </trkpt>
      <trkpt lat="43.20842" lon="2.37076">
        <ele>171.638875</ele>
        <time>2023-01-05T12:49:49.929Z</time>
      </trkpt>
      <trkpt lat="43.20838" lon="2.37091">
        <ele>171.852963</ele>
        <time>2023-01-05T12:49:52.951Z</time>
      </trkpt>
      <trkpt lat="43.20834" lon="2.37106">
        <ele>172.052227</ele>
        <time>2023-01-05T12:49:55.935Z</time>
      </trkpt>
      <trkpt lat="43.2083" lon="2.37121">
        <ele>172.267783</ele>
        <time>2023-01-05T12:49:58.932Z</time>
      </trkpt>
      <trkpt lat="43.20826" lon="2.37135">
        <ele>172.474456</ele>
        <time>2023-01-05T12:50:01.929Z</time>
      </trkpt>
      <trkpt lat="43.20822" lon="2.3715">
        <ele>172.680498</ele>
        <time>2023-01-05T12:50:04.929Z</time>
      </trkpt>
      <trkpt lat="43.20818" lon="2.37163">
        <ele>172.866585</ele>
        <time>2023-01-05T12:50:07.928Z</time>
      </trkpt>
      <trkpt lat="43.20813" lon="2.37178">
        <ele>173.051091</ele>
        <time>2023-01-05T12:50:10.927Z</time>
      </trkpt>
      <trkpt lat="43.20809" lon="2.37194">
        <ele>173.205122</ele>
        <time>2023-01-05T12:50:13.931Z</time>
      </trkpt>
      <trkpt lat="43.20805" lon="2.37209">
        <ele>173.349344</ele>
        <time>2023-01-05T12:50:16.934Z</time>
      </trkpt>
      <trkpt lat="43.20802" lon="2.37222">
        <ele>173.469142</ele>
        <time>2023-01-05T12:50:19.933Z</time>
      </trkpt>
      <trkpt lat="43.208" lon="2.37236">
        <ele>173.600606</ele>
        <time>2023-01-05T12:50:22.933Z</time>
      </trkpt>
      <trkpt lat="43.20797" lon="2.3725">
        <ele>173.739641</ele>
        <time>2023-01-05T12:50:25.930Z</time>
      </trkpt>
      <trkpt lat="43.20794" lon="2.37266">
        <ele>173.879593</ele>
        <time>2023-01-05T12:50:28.938Z</time>
      </trkpt>
      <trkpt lat="43.20793" lon="2.37281">
        <ele>174.021355</ele>
        <time>2023-01-05T12:50:31.932Z</time>
      </trkpt>
      <trkpt lat="43.20791" lon="2.37296">
        <ele>174.160094</ele>
        <time>2023-01-05T12:50:34.949Z</time>
      </trkpt>
      <trkpt lat="43.2079" lon="2.3731">
        <ele>174.285368</ele>
        <time>2023-01-05T12:50:37.937Z</time>
      </trkpt>
      <trkpt lat="43.20789" lon="2.37324">
        <ele>174.415457</ele>
        <time>2023-01-05T12:50:40.934Z</time>
      </trkpt>
      <trkpt lat="43.20788" lon="2.3734">
        <ele>174.560344</ele>
        <time>2023-01-05T12:50:43.947Z</time>
      </trkpt>
      <trkpt lat="43.20786" lon="2.37356">
        <ele>174.709121</ele>
        <time>2023-01-05T12:50:46.934Z</time>
      </trkpt>
      <trkpt lat="43.20785" lon="2.37373">
        <ele>174.857</ele>
        <time>2023-01-05T12:50:49.930Z</time>
      </trkpt>
      <trkpt lat="43.20783" lon="2.37389">
        <ele>175.008326</ele>
        <time>2023-01-05T12:50:52.946Z</time>
      </trkpt>
      <trkpt lat="43.20782" lon="2.37405">
        <ele>175.155469</ele>
        <time>2023-01-05T12:50:55.932Z</time>
      </trkpt>
      <trkpt lat="43.2078" lon="2.37421">
        <ele>175.2727</ele>
        <time>2023-01-05T12:50:58.936Z</time>
      </trkpt>
      <trkpt lat="43.2078" lon="2.37437">
        <ele>175.358927</ele>
        <time>2023-01-05T12:51:01.940Z</time>
      </trkpt>
      <trkpt lat="43.20779" lon="2.3745">
        <ele>175.435912</ele>
        <time>2023-01-05T12:51:04.937Z</time>
      </trkpt>
      <trkpt lat="43.20778" lon="2.37463">
        <ele>175.506266</ele>
        <time>2023-01-05T12:51:07.937Z</time>
      </trkpt>
      <trkpt lat="43.20777" lon="2.37475">
        <ele>175.578424</ele>
        <time>2023-01-05T12:51:10.928Z</time>
      </trkpt>
      <trkpt lat="43.20777" lon="2.37489">
        <ele>175.653526</ele>
        <time>2023-01-05T12:51:13.935Z</time>
      </trkpt>
      <trkpt lat="43.20775" lon="2.37503">
        <ele>175.735248</ele>
        <time>2023-01-05T12:51:16.929Z</time>
      </trkpt>
      <trkpt lat="43.20774" lon="2.37518">
        <ele>175.822972</ele>
        <time>2023-01-05T12:51:19.941Z</time>
      </trkpt>
      <trkpt lat="43.20773" lon="2.37535">
        <ele>175.915243</ele>
        <time>2023-01-05T12:51:22.933Z</time>
      </trkpt>
      <trkpt lat="43.20772" lon="2.37551">
        <ele>176.004565</ele>
        <time>2023-01-05T12:51:25.934Z</time>
      </trkpt>
      <trkpt lat="43.2077" lon="2.37567">
        <ele>176.095079</ele>
        <time>2023-01-05T12:51:28.943Z</time>
      </trkpt>
      <trkpt lat="43.20769" lon="2.37582">
        <ele>176.182027</ele>
        <time>2023-01-05T12:51:31.934Z</time>
      </trkpt>
      <trkpt lat="43.20767" lon="2.37598">
        <ele>176.274001</ele>
        <time>2023-01-05T12:51:34.933Z</time>
      </trkpt>
      <trkpt lat="43.20767" lon="2.37613">
        <ele>176.356523</ele>
        <time>2023-01-05T12:51:37.932Z</time>
      </trkpt>
      <trkpt lat="43.20765" lon="2.37627">
        <ele>176.439365</ele>
        <time>2023-01-05T12:51:40.935Z</time>
      </trkpt>
      <trkpt lat="43.20764" lon="2.37642">
        <ele>176.524274</ele>
        <time>2023-01-05T12:51:43.936Z</time>
      </trkpt>
      <trkpt lat="43.20762" lon="2.37657">
        <ele>176.607316</ele>
        <time>2023-01-05T12:51:46.936Z</time>
      </trkpt>
      <trkpt lat="43.20761" lon="2.37671">
        <ele>176.689765</ele>
        <time>2023-01-05T12:51:49.944Z</time>
      </trkpt>
      <trkpt lat="43.20759" lon="2.37687">
        <ele>176.780279</ele>
        <time>2023-01-05T12:51:52.941Z</time>
      </trkpt>
      <trkpt lat="43.20758" lon="2.37704">
        <ele>176.871198</ele>
        <time>2023-01-05T12:51:55.948Z</time>
      </trkpt>
      <trkpt lat="43.20757" lon="2.3772">
        <ele>176.960717</ele>
        <time>2023-01-05T12:51:58.952Z</time>
      </trkpt>
      <trkpt lat="43.20755" lon="2.37734">
        <ele>177.041832</ele>
        <time>2023-01-05T12:52:01.950Z</time>
      </trkpt>
      <trkpt lat="43.20754" lon="2.37748">
        <ele>177.121095</ele>
        <time>2023-01-05T12:52:04.953Z</time>
      </trkpt>
      <trkpt lat="43.20753" lon="2.37764">
        <ele>177.208856</ele>
        <time>2023-01-05T12:52:07.939Z</time>
      </trkpt>
      <trkpt lat="43.20752" lon="2.3778">
        <ele>177.301369</ele>
        <time>2023-01-05T12:52:10.951Z</time>
      </trkpt>
      <trkpt lat="43.20751" lon="2.37796">
        <ele>177.390823</ele>
        <time>2023-01-05T12:52:13.942Z</time>
      </trkpt>
      <trkpt lat="43.20751" lon="2.37811">
        <ele>177.47405</ele>
        <time>2023-01-05T12:52:16.939Z</time>
      </trkpt>
      <trkpt lat="43.20749" lon="2.37827">
        <ele>177.566652</ele>
        <time>2023-01-05T12:52:19.928Z</time>
      </trkpt>
      <trkpt lat="43.20747" lon="2.37844">
        <ele>177.658821</ele>
        <time>2023-01-05T12:52:22.930Z</time>
      </trkpt>
      <trkpt lat="43.20745" lon="2.37859">
        <ele>177.743358</ele>
        <time>2023-01-05T12:52:25.932Z</time>
      </trkpt>
      <trkpt lat="43.20745" lon="2.37874">
        <ele>177.82668</ele>
        <time>2023-01-05T12:52:28.948Z</time>
      </trkpt>
      <trkpt lat="43.20744" lon="2.37889">
        <ele>177.914506</ele>
        <time>2023-01-05T12:52:31.933Z</time>
      </trkpt>
      <trkpt lat="43.20743" lon="2.37906">
        <ele>177.970669</ele>
        <time>2023-01-05T12:52:34.948Z</time>
      </trkpt>
      <trkpt lat="43.20741" lon="2.37922">
        <ele>177.814852</ele>
        <time>2023-01-05T12:52:37.938Z</time>
      </trkpt>
      <trkpt lat="43.20739" lon="2.37938">
        <ele>177.662638</ele>
        <time>2023-01-05T12:52:40.933Z</time>
      </trkpt>
      <trkpt lat="43.20738" lon="2.37953">
        <ele>177.519995</ele>
        <time>2023-01-05T12:52:43.936Z</time>
      </trkpt>
      <trkpt lat="43.20737" lon="2.37969">
        <ele>177.373745</ele>
        <time>2023-01-05T12:52:46.947Z</time>
      </trkpt>
      <trkpt lat="43.20736" lon="2.37984">
        <ele>177.228068</ele>
        <time>2023-01-05T12:52:49.934Z</time>
      </trkpt>
      <trkpt lat="43.20735" lon="2.37998">
        <ele>177.095731</ele>
        <time>2023-01-05T12:52:52.934Z</time>
      </trkpt>
      <trkpt lat="43.20733" lon="2.38013">
        <ele>176.944898</ele>
        <time>2023-01-05T12:52:56.947Z</time>
      </trkpt>
      <trkpt lat="43.20731" lon="2.38028">
        <ele>176.802385</ele>
        <time>2023-01-05T12:52:59.942Z</time>
      </trkpt>
      <trkpt lat="43.2073" lon="2.38043">
        <ele>176.657653</ele>
        <time>2023-01-05T12:53:02.934Z</time>
      </trkpt>
      <trkpt lat="43.20729" lon="2.38059">
        <ele>176.506191</ele>
        <time>2023-01-05T12:53:05.945Z</time>
      </trkpt>
      <trkpt lat="43.20728" lon="2.38075">
        <ele>176.351897</ele>
        <time>2023-01-05T12:53:08.931Z</time>
      </trkpt>
      <trkpt lat="43.20727" lon="2.3809">
        <ele>176.215238</ele>
        <time>2023-01-05T12:53:11.939Z</time>
      </trkpt>
      <trkpt lat="43.20726" lon="2.38106">
        <ele>176.062203</ele>
        <time>2023-01-05T12:53:14.931Z</time>
      </trkpt>
      <trkpt lat="43.20725" lon="2.38122">
        <ele>175.905457</ele>
        <time>2023-01-05T12:53:17.964Z</time>
      </trkpt>
      <trkpt lat="43.20723" lon="2.38139">
        <ele>175.748366</ele>
        <time>2023-01-05T12:53:20.933Z</time>
      </trkpt>
      <trkpt lat="43.20722" lon="2.38155">
        <ele>175.734438</ele>
        <time>2023-01-05T12:53:23.955Z</time>
      </trkpt>
      <trkpt lat="43.2072" lon="2.38171">
        <ele>175.93512</ele>
        <time>2023-01-05T12:53:26.955Z</time>
      </trkpt>
      <trkpt lat="43.20719" lon="2.38187">
        <ele>176.129159</ele>
        <time>2023-01-05T12:53:29.949Z</time>
      </trkpt>
      <trkpt lat="43.20718" lon="2.38205">
        <ele>176.346457</ele>
        <time>2023-01-05T12:53:32.931Z</time>
      </trkpt>
      <trkpt lat="43.20716" lon="2.3822">
        <ele>176.537448</ele>
        <time>2023-01-05T12:53:35.935Z</time>
      </trkpt>
      <trkpt lat="43.20715" lon="2.38238">
        <ele>176.75353</ele>
        <time>2023-01-05T12:53:38.960Z</time>
      </trkpt>
      <trkpt lat="43.20714" lon="2.38255">
        <ele>176.95835</ele>
        <time>2023-01-05T12:53:41.936Z</time>
      </trkpt>
      <trkpt lat="43.20713" lon="2.38271">
        <ele>177.162111</ele>
        <time>2023-01-05T12:53:44.931Z</time>
      </trkpt>
      <trkpt lat="43.20712" lon="2.38286">
        <ele>177.3417</ele>
        <time>2023-01-05T12:53:47.951Z</time>
      </trkpt>
      <trkpt lat="43.20711" lon="2.38301">
        <ele>177.523595</ele>
        <time>2023-01-05T12:53:50.933Z</time>
      </trkpt>
      <trkpt lat="43.2071" lon="2.38316">
        <ele>177.714373</ele>
        <time>2023-01-05T12:53:53.933Z</time>
      </trkpt>
      <trkpt lat="43.20708" lon="2.38332">
        <ele>177.905152</ele>
        <time>2023-01-05T12:53:56.933Z</time>
      </trkpt>
      <trkpt lat="43.20705" lon="2.38347">
        <ele>178.105913</ele>
        <time>2023-01-05T12:53:59.925Z</time>
      </trkpt>
      <trkpt lat="43.20698" lon="2.38361">
        <ele>178.312241</ele>
        <time>2023-01-05T12:54:02.941Z</time>
      </trkpt>
      <trkpt lat="43.20689" lon="2.38373">
        <ele>178.516753</ele>
        <time>2023-01-05T12:54:05.932Z</time>
      </trkpt>
      <trkpt lat="43.20686" lon="2.38387">
        <ele>178.68086</ele>
        <time>2023-01-05T12:54:08.947Z</time>
      </trkpt>
      <trkpt lat="43.20686" lon="2.38401">
        <ele>178.787277</ele>
        <time>2023-01-05T12:54:11.943Z</time>
      </trkpt>
      <trkpt lat="43.20691" lon="2.38417">
        <ele>178.905324</ele>
        <time>2023-01-05T12:54:14.944Z</time>
      </trkpt>
      <trkpt lat="43.20695" lon="2.38428">
        <ele>178.997913</ele>
        <time>2023-01-05T12:54:16.938Z</time>
      </trkpt>
      <trkpt lat="43.20697" lon="2.38441">
        <ele>179.095166</ele>
        <time>2023-01-05T12:54:18.954Z</time>
      </trkpt>
      <trkpt lat="43.20696" lon="2.38455">
        <ele>179.189443</ele>
        <time>2023-01-05T12:54:20.951Z</time>
      </trkpt>
      <trkpt lat="43.20696" lon="2.38468">
        <ele>179.288122</ele>
        <time>2023-01-05T12:54:22.949Z</time>
      </trkpt>
      <trkpt lat="43.20696" lon="2.38483">
        <ele>179.388898</ele>
        <time>2023-01-05T12:54:24.940Z</time>
      </trkpt>
      <trkpt lat="43.20694" lon="2.38496">
        <ele>179.486623</ele>
        <time>2023-01-05T12:54:26.951Z</time>
      </trkpt>
      <trkpt lat="43.20694" lon="2.38509">
        <ele>179.57972</ele>
        <time>2023-01-05T12:54:28.941Z</time>
      </trkpt>
      <trkpt lat="43.20692" lon="2.38527">
        <ele>179.707354</ele>
        <time>2023-01-05T12:54:31.929Z</time>
      </trkpt>
      <trkpt lat="43.20691" lon="2.38544">
        <ele>179.827481</ele>
        <time>2023-01-05T12:54:34.939Z</time>
      </trkpt>
      <trkpt lat="43.2069" lon="2.38561">
        <ele>179.955344</ele>
        <time>2023-01-05T12:54:37.950Z</time>
      </trkpt>
      <trkpt lat="43.20689" lon="2.38574">
        <ele>180.046473</ele>
        <time>2023-01-05T12:54:39.949Z</time>
      </trkpt>
      <trkpt lat="43.20688" lon="2.38587">
        <ele>180.137933</ele>
        <time>2023-01-05T12:54:41.950Z</time>
      </trkpt>
      <trkpt lat="43.20687" lon="2.38599">
        <ele>180.228685</ele>
        <time>2023-01-05T12:54:43.950Z</time>
      </trkpt>
      <trkpt lat="43.20686" lon="2.38613">
        <ele>180.326213</ele>
        <time>2023-01-05T12:54:45.950Z</time>
      </trkpt>
      <trkpt lat="43.20684" lon="2.38627">
        <ele>180.423895</ele>
        <time>2023-01-05T12:54:47.931Z</time>
      </trkpt>
      <trkpt lat="43.20683" lon="2.3864">
        <ele>180.428567</ele>
        <time>2023-01-05T12:54:49.932Z</time>
      </trkpt>
      <trkpt lat="43.20683" lon="2.38654">
        <ele>180.425866</ele>
        <time>2023-01-05T12:54:51.926Z</time>
      </trkpt>
      <trkpt lat="43.20681" lon="2.38667">
        <ele>180.423305</ele>
        <time>2023-01-05T12:54:53.940Z</time>
      </trkpt>
      <trkpt lat="43.2068" lon="2.38681">
        <ele>180.420736</ele>
        <time>2023-01-05T12:54:55.934Z</time>
      </trkpt>
      <trkpt lat="43.2068" lon="2.38694">
        <ele>180.418132</ele>
        <time>2023-01-05T12:54:57.941Z</time>
      </trkpt>
      <trkpt lat="43.20678" lon="2.38708">
        <ele>180.415417</ele>
        <time>2023-01-05T12:54:59.932Z</time>
      </trkpt>
      <trkpt lat="43.20678" lon="2.38721">
        <ele>180.412796</ele>
        <time>2023-01-05T12:55:01.949Z</time>
      </trkpt>
      <trkpt lat="43.20677" lon="2.38735">
        <ele>180.410074</ele>
        <time>2023-01-05T12:55:03.953Z</time>
      </trkpt>
      <trkpt lat="43.20676" lon="2.3875">
        <ele>180.407218</ele>
        <time>2023-01-05T12:55:05.932Z</time>
      </trkpt>
      <trkpt lat="43.20675" lon="2.38765">
        <ele>180.404309</ele>
        <time>2023-01-05T12:55:07.939Z</time>
      </trkpt>
      <trkpt lat="43.20674" lon="2.38781">
        <ele>180.401199</ele>
        <time>2023-01-05T12:55:09.939Z</time>
      </trkpt>
      <trkpt lat="43.20673" lon="2.38796">
        <ele>180.398314</ele>
        <time>2023-01-05T12:55:11.928Z</time>
      </trkpt>
      <trkpt lat="43.20672" lon="2.38811">
        <ele>180.395374</ele>
        <time>2023-01-05T12:55:13.929Z</time>
      </trkpt>
      <trkpt lat="43.20671" lon="2.38826">
        <ele>180.39236</ele>
        <time>2023-01-05T12:55:15.932Z</time>
      </trkpt>
      <trkpt lat="43.20669" lon="2.38842">
        <ele>180.389227</ele>
        <time>2023-01-05T12:55:17.934Z</time>
      </trkpt>
      <trkpt lat="43.20668" lon="2.38858">
        <ele>180.386226</ele>
        <time>2023-01-05T12:55:19.931Z</time>
      </trkpt>
      <trkpt lat="43.20667" lon="2.38873">
        <ele>180.385073</ele>
        <time>2023-01-05T12:55:21.937Z</time>
      </trkpt>
      <trkpt lat="43.20665" lon="2.38889">
        <ele>180.512822</ele>
        <time>2023-01-05T12:55:23.935Z</time>
      </trkpt>
      <trkpt lat="43.20664" lon="2.38905">
        <ele>180.64017</ele>
        <time>2023-01-05T12:55:25.941Z</time>
      </trkpt>
      <trkpt lat="43.20662" lon="2.38922">
        <ele>180.769964</ele>
        <time>2023-01-05T12:55:27.937Z</time>
      </trkpt>
      <trkpt lat="43.20661" lon="2.38936">
        <ele>180.880968</ele>
        <time>2023-01-05T12:55:29.931Z</time>
      </trkpt>
      <trkpt lat="43.20659" lon="2.38951">
        <ele>181.005483</ele>
        <time>2023-01-05T12:55:31.931Z</time>
      </trkpt>
      <trkpt lat="43.20658" lon="2.38967">
        <ele>181.135733</ele>
        <time>2023-01-05T12:55:33.930Z</time>
      </trkpt>
      <trkpt lat="43.20655" lon="2.38984">
        <ele>181.271284</ele>
        <time>2023-01-05T12:55:35.939Z</time>
      </trkpt>
      <trkpt lat="43.20652" lon="2.39">
        <ele>181.39995</ele>
        <time>2023-01-05T12:55:37.936Z</time>
      </trkpt>
      <trkpt lat="43.2065" lon="2.39015">
        <ele>181.522975</ele>
        <time>2023-01-05T12:55:39.941Z</time>
      </trkpt>
      <trkpt lat="43.20648" lon="2.3903">
        <ele>181.642445</ele>
        <time>2023-01-05T12:55:41.931Z</time>
      </trkpt>
      <trkpt lat="43.20646" lon="2.39046">
        <ele>181.770046</ele>
        <time>2023-01-05T12:55:43.935Z</time>
      </trkpt>
      <trkpt lat="43.20643" lon="2.39062">
        <ele>181.899438</ele>
        <time>2023-01-05T12:55:45.936Z</time>
      </trkpt>
      <trkpt lat="43.2064" lon="2.39077">
        <ele>182.025817</ele>
        <time>2023-01-05T12:55:47.936Z</time>
      </trkpt>
      <trkpt lat="43.20637" lon="2.39093">
        <ele>182.155735</ele>
        <time>2023-01-05T12:55:49.939Z</time>
      </trkpt>
      <trkpt lat="43.20633" lon="2.39109">
        <ele>182.284987</ele>
        <time>2023-01-05T12:55:51.932Z</time>
      </trkpt>
      <trkpt lat="43.2063" lon="2.39124">
        <ele>182.348939</ele>
        <time>2023-01-05T12:55:53.945Z</time>
      </trkpt>
      <trkpt lat="43.20627" lon="2.39138">
        <ele>182.370342</ele>
        <time>2023-01-05T12:55:55.953Z</time>
      </trkpt>
      <trkpt lat="43.20624" lon="2.39154">
        <ele>182.39284</ele>
        <time>2023-01-05T12:55:57.935Z</time>
      </trkpt>
      <trkpt lat="43.20621" lon="2.39169">
        <ele>182.415837</ele>
        <time>2023-01-05T12:55:59.936Z</time>
      </trkpt>
      <trkpt lat="43.20618" lon="2.39184">
        <ele>182.438061</ele>
        <time>2023-01-05T12:56:01.933Z</time>
      </trkpt>
      <trkpt lat="43.20615" lon="2.392">
        <ele>182.461196</ele>
        <time>2023-01-05T12:56:03.948Z</time>
      </trkpt>
      <trkpt lat="43.20612" lon="2.39216">
        <ele>182.485021</ele>
        <time>2023-01-05T12:56:05.940Z</time>
      </trkpt>
      <trkpt lat="43.20608" lon="2.39232">
        <ele>182.508541</ele>
        <time>2023-01-05T12:56:07.951Z</time>
      </trkpt>
      <trkpt lat="43.20605" lon="2.39247">
        <ele>182.530612</ele>
        <time>2023-01-05T12:56:09.939Z</time>
      </trkpt>
      <trkpt lat="43.20602" lon="2.39262">
        <ele>182.553334</ele>
        <time>2023-01-05T12:56:11.936Z</time>
      </trkpt>
      <trkpt lat="43.20599" lon="2.39278">
        <ele>182.577226</ele>
        <time>2023-01-05T12:56:13.937Z</time>
      </trkpt>
      <trkpt lat="43.20596" lon="2.39295">
        <ele>182.601558</ele>
        <time>2023-01-05T12:56:15.947Z</time>
      </trkpt>
      <trkpt lat="43.20593" lon="2.39311">
        <ele>182.625708</ele>
        <time>2023-01-05T12:56:17.949Z</time>
      </trkpt>
      <trkpt lat="43.2059" lon="2.39328">
        <ele>182.65005</ele>
        <time>2023-01-05T12:56:19.930Z</time>
      </trkpt>
      <trkpt lat="43.20587" lon="2.39346">
        <ele>182.675865</ele>
        <time>2023-01-05T12:56:21.945Z</time>
      </trkpt>
      <trkpt lat="43.20584" lon="2.39364">
        <ele>182.489685</ele>
        <time>2023-01-05T12:56:23.938Z</time>
      </trkpt>
      <trkpt lat="43.2058" lon="2.39382">
        <ele>182.139739</ele>
        <time>2023-01-05T12:56:25.942Z</time>
      </trkpt>
      <trkpt lat="43.20577" lon="2.39401">
        <ele>181.787671</ele>
        <time>2023-01-05T12:56:27.936Z</time>
      </trkpt>
      <trkpt lat="43.20573" lon="2.3942">
        <ele>181.429069</ele>
        <time>2023-01-05T12:56:29.929Z</time>
      </trkpt>
      <trkpt lat="43.2057" lon="2.39439">
        <ele>181.059811</ele>
        <time>2023-01-05T12:56:31.941Z</time>
      </trkpt>
      <trkpt lat="43.20566" lon="2.39459">
        <ele>180.684019</ele>
        <time>2023-01-05T12:56:33.926Z</time>
      </trkpt>
      <trkpt lat="43.20562" lon="2.3948">
        <ele>180.298103</ele>
        <time>2023-01-05T12:56:35.931Z</time>
      </trkpt>
      <trkpt lat="43.20559" lon="2.39499">
        <ele>179.926441</ele>
        <time>2023-01-05T12:56:37.936Z</time>
      </trkpt>
      <trkpt lat="43.20555" lon="2.3952">
        <ele>179.541682</ele>
        <time>2023-01-05T12:56:39.933Z</time>
      </trkpt>
      <trkpt lat="43.20551" lon="2.39541">
        <ele>179.144508</ele>
        <time>2023-01-05T12:56:41.929Z</time>
      </trkpt>
      <trkpt lat="43.20546" lon="2.39562">
        <ele>178.737637</ele>
        <time>2023-01-05T12:56:43.935Z</time>
      </trkpt>
      <trkpt lat="43.20542" lon="2.39584">
        <ele>178.328565</ele>
        <time>2023-01-05T12:56:45.933Z</time>
      </trkpt>
      <trkpt lat="43.20538" lon="2.39607">
        <ele>177.922932</ele>
        <time>2023-01-05T12:56:47.931Z</time>
      </trkpt>
      <trkpt lat="43.20534" lon="2.39628">
        <ele>177.551799</ele>
        <time>2023-01-05T12:56:49.935Z</time>
      </trkpt>
      <trkpt lat="43.20529" lon="2.3965">
        <ele>177.188832</ele>
        <time>2023-01-05T12:56:51.924Z</time>
      </trkpt>
      <trkpt lat="43.20526" lon="2.39671">
        <ele>176.827112</ele>
        <time>2023-01-05T12:56:53.931Z</time>
      </trkpt>
      <trkpt lat="43.20521" lon="2.39692">
        <ele>176.472369</ele>
        <time>2023-01-05T12:56:55.933Z</time>
      </trkpt>
      <trkpt lat="43.20516" lon="2.39713">
        <ele>176.114244</ele>
        <time>2023-01-05T12:56:57.935Z</time>
      </trkpt>
      <trkpt lat="43.20512" lon="2.39733">
        <ele>175.764865</ele>
        <time>2023-01-05T12:56:59.932Z</time>
      </trkpt>
      <trkpt lat="43.20507" lon="2.39754">
        <ele>175.397512</ele>
        <time>2023-01-05T12:57:01.933Z</time>
      </trkpt>
      <trkpt lat="43.20503" lon="2.39776">
        <ele>175.031515</ele>
        <time>2023-01-05T12:57:03.941Z</time>
      </trkpt>
      <trkpt lat="43.20499" lon="2.39797">
        <ele>174.676649</ele>
        <time>2023-01-05T12:57:05.936Z</time>
      </trkpt>
      <trkpt lat="43.20495" lon="2.39819">
        <ele>174.307468</ele>
        <time>2023-01-05T12:57:07.934Z</time>
      </trkpt>
      <trkpt lat="43.20492" lon="2.3984">
        <ele>173.940064</ele>
        <time>2023-01-05T12:57:09.932Z</time>
      </trkpt>
      <trkpt lat="43.20488" lon="2.3986">
        <ele>173.566422</ele>
        <time>2023-01-05T12:57:11.939Z</time>
      </trkpt>
      <trkpt lat="43.20483" lon="2.39881">
        <ele>173.186707</ele>
        <time>2023-01-05T12:57:13.934Z</time>
      </trkpt>
      <trkpt lat="43.2048" lon="2.39901">
        <ele>172.820652</ele>
        <time>2023-01-05T12:57:15.943Z</time>
      </trkpt>
      <trkpt lat="43.20477" lon="2.3992">
        <ele>172.476869</ele>
        <time>2023-01-05T12:57:17.936Z</time>
      </trkpt>
      <trkpt lat="43.20473" lon="2.39939">
        <ele>172.125702</ele>
        <time>2023-01-05T12:57:19.935Z</time>
      </trkpt>
      <trkpt lat="43.2047" lon="2.39959">
        <ele>171.773298</ele>
        <time>2023-01-05T12:57:21.931Z</time>
      </trkpt>
      <trkpt lat="43.20467" lon="2.39978">
        <ele>171.43521</ele>
        <time>2023-01-05T12:57:23.928Z</time>
      </trkpt>
      <trkpt lat="43.20464" lon="2.39996">
        <ele>171.103467</ele>
        <time>2023-01-05T12:57:25.936Z</time>
      </trkpt>
      <trkpt lat="43.2046" lon="2.40013">
        <ele>170.781976</ele>
        <time>2023-01-05T12:57:27.935Z</time>
      </trkpt>
      <trkpt lat="43.20457" lon="2.40031">
        <ele>170.464516</ele>
        <time>2023-01-05T12:57:29.932Z</time>
      </trkpt>
      <trkpt lat="43.20454" lon="2.40047">
        <ele>170.170912</ele>
        <time>2023-01-05T12:57:31.942Z</time>
      </trkpt>
      <trkpt lat="43.20451" lon="2.40063">
        <ele>169.878528</ele>
        <time>2023-01-05T12:57:33.928Z</time>
      </trkpt>
      <trkpt lat="43.20449" lon="2.40078">
        <ele>169.733892</ele>
        <time>2023-01-05T12:57:35.930Z</time>
      </trkpt>
      <trkpt lat="43.20447" lon="2.40092">
        <ele>169.685634</ele>
        <time>2023-01-05T12:57:37.949Z</time>
      </trkpt>
      <trkpt lat="43.20445" lon="2.40109">
        <ele>169.629966</ele>
        <time>2023-01-05T12:57:39.937Z</time>
      </trkpt>
      <trkpt lat="43.20445" lon="2.40126">
        <ele>169.574504</ele>
        <time>2023-01-05T12:57:41.951Z</time>
      </trkpt>
      <trkpt lat="43.20444" lon="2.40143">
        <ele>169.520157</ele>
        <time>2023-01-05T12:57:43.948Z</time>
      </trkpt>
      <trkpt lat="43.20445" lon="2.40159">
        <ele>169.467436</ele>
        <time>2023-01-05T12:57:45.952Z</time>
      </trkpt>
      <trkpt lat="43.20446" lon="2.40176">
        <ele>169.413111</ele>
        <time>2023-01-05T12:57:47.934Z</time>
      </trkpt>
      <trkpt lat="43.20448" lon="2.40193">
        <ele>169.358566</ele>
        <time>2023-01-05T12:57:49.943Z</time>
      </trkpt>
      <trkpt lat="43.20449" lon="2.40209">
        <ele>169.305535</ele>
        <time>2023-01-05T12:57:51.937Z</time>
      </trkpt>
      <trkpt lat="43.20451" lon="2.40224">
        <ele>169.254832</ele>
        <time>2023-01-05T12:57:53.935Z</time>
      </trkpt>
      <trkpt lat="43.20454" lon="2.4024">
        <ele>169.202859</ele>
        <time>2023-01-05T12:57:55.933Z</time>
      </trkpt>
      <trkpt lat="43.20456" lon="2.40256">
        <ele>169.148883</ele>
        <time>2023-01-05T12:57:57.930Z</time>
      </trkpt>
      <trkpt lat="43.2046" lon="2.4027">
        <ele>169.099402</ele>
        <time>2023-01-05T12:57:59.935Z</time>
      </trkpt>
      <trkpt lat="43.20464" lon="2.40284">
        <ele>169.050007</ele>
        <time>2023-01-05T12:58:01.958Z</time>
      </trkpt>
      <trkpt lat="43.20468" lon="2.40299">
        <ele>168.999703</ele>
        <time>2023-01-05T12:58:03.932Z</time>
      </trkpt>
      <trkpt lat="43.20472" lon="2.40314">
        <ele>168.940965</ele>
        <time>2023-01-05T12:58:05.958Z</time>
      </trkpt>
      <trkpt lat="43.20476" lon="2.40329">
        <ele>168.864599</ele>
        <time>2023-01-05T12:58:07.937Z</time>
      </trkpt>
      <trkpt lat="43.2048" lon="2.40345">
        <ele>168.786266</ele>
        <time>2023-01-05T12:58:09.932Z</time>
      </trkpt>
      <trkpt lat="43.20484" lon="2.40362">
        <ele>168.705286</ele>
        <time>2023-01-05T12:58:11.930Z</time>
      </trkpt>
      <trkpt lat="43.20488" lon="2.40379">
        <ele>168.620319</ele>
        <time>2023-01-05T12:58:13.951Z</time>
      </trkpt>
      <trkpt lat="43.20492" lon="2.40397">
        <ele>168.53401</ele>
        <time>2023-01-05T12:58:15.946Z</time>
      </trkpt>
      <trkpt lat="43.20495" lon="2.40415">
        <ele>168.449207</ele>
        <time>2023-01-05T12:58:17.940Z</time>
      </trkpt>
      <trkpt lat="43.20497" lon="2.40433">
        <ele>168.362372</ele>
        <time>2023-01-05T12:58:19.931Z</time>
      </trkpt>
      <trkpt lat="43.20498" lon="2.40451">
        <ele>168.280623</ele>
        <time>2023-01-05T12:58:21.950Z</time>
      </trkpt>
      <trkpt lat="43.20499" lon="2.40468">
        <ele>168.199629</ele>
        <time>2023-01-05T12:58:23.951Z</time>
      </trkpt>
      <trkpt lat="43.205" lon="2.40485">
        <ele>168.119953</ele>
        <time>2023-01-05T12:58:25.933Z</time>
      </trkpt>
      <trkpt lat="43.20499" lon="2.40503">
        <ele>168.038759</ele>
        <time>2023-01-05T12:58:27.937Z</time>
      </trkpt>
      <trkpt lat="43.20498" lon="2.4052">
        <ele>167.955912</ele>
        <time>2023-01-05T12:58:29.932Z</time>
      </trkpt>
      <trkpt lat="43.20496" lon="2.40538">
        <ele>167.872535</ele>
        <time>2023-01-05T12:58:31.932Z</time>
      </trkpt>
      <trkpt lat="43.20495" lon="2.40557">
        <ele>167.79922</ele>
        <time>2023-01-05T12:58:33.949Z</time>
      </trkpt>
      <trkpt lat="43.20492" lon="2.40575">
        <ele>167.761146</ele>
        <time>2023-01-05T12:58:35.939Z</time>
      </trkpt>
      <trkpt lat="43.2049" lon="2.40593">
        <ele>167.724377</ele>
        <time>2023-01-05T12:58:37.950Z</time>
      </trkpt>
      <trkpt lat="43.20488" lon="2.4061">
        <ele>167.688577</ele>
        <time>2023-01-05T12:58:39.933Z</time>
      </trkpt>
      <trkpt lat="43.20486" lon="2.40628">
        <ele>167.651359</ele>
        <time>2023-01-05T12:58:41.938Z</time>
      </trkpt>
      <trkpt lat="43.20484" lon="2.40646">
        <ele>167.614141</ele>
        <time>2023-01-05T12:58:43.952Z</time>
      </trkpt>
      <trkpt lat="43.20482" lon="2.40663">
        <ele>167.577332</ele>
        <time>2023-01-05T12:58:45.950Z</time>
      </trkpt>
      <trkpt lat="43.20479" lon="2.40681">
        <ele>167.53926</ele>
        <time>2023-01-05T12:58:47.934Z</time>
      </trkpt>
      <trkpt lat="43.20477" lon="2.407">
        <ele>167.501389</ele>
        <time>2023-01-05T12:58:49.951Z</time>
      </trkpt>
      <trkpt lat="43.20474" lon="2.40718">
        <ele>167.462765</ele>
        <time>2023-01-05T12:58:51.948Z</time>
      </trkpt>
      <trkpt lat="43.20472" lon="2.40737">
        <ele>167.423632</ele>
        <time>2023-01-05T12:58:53.950Z</time>
      </trkpt>
      <trkpt lat="43.2047" lon="2.40755">
        <ele>167.38524</ele>
        <time>2023-01-05T12:58:55.947Z</time>
      </trkpt>
      <trkpt lat="43.20468" lon="2.40774">
        <ele>167.346805</ele>
        <time>2023-01-05T12:58:57.936Z</time>
      </trkpt>
      <trkpt lat="43.20466" lon="2.40792">
        <ele>167.308528</ele>
        <time>2023-01-05T12:58:59.941Z</time>
      </trkpt>
      <trkpt lat="43.20463" lon="2.40811">
        <ele>167.239426</ele>
        <time>2023-01-05T12:59:01.949Z</time>
      </trkpt>
      <trkpt lat="43.20461" lon="2.40829">
        <ele>167.168702</ele>
        <time>2023-01-05T12:59:03.962Z</time>
      </trkpt>
      <trkpt lat="43.20459" lon="2.40847">
        <ele>167.098646</ele>
        <time>2023-01-05T12:59:05.934Z</time>
      </trkpt>
      <trkpt lat="43.20456" lon="2.40865">
        <ele>167.027251</ele>
        <time>2023-01-05T12:59:07.930Z</time>
      </trkpt>
      <trkpt lat="43.20454" lon="2.40882">
        <ele>166.959955</ele>
        <time>2023-01-05T12:59:09.947Z</time>
      </trkpt>
      <trkpt lat="43.20451" lon="2.40899">
        <ele>166.894081</ele>
        <time>2023-01-05T12:59:11.928Z</time>
      </trkpt>
      <trkpt lat="43.20449" lon="2.40916">
        <ele>166.82782</ele>
        <time>2023-01-05T12:59:13.925Z</time>
      </trkpt>
      <trkpt lat="43.20447" lon="2.40933">
        <ele>166.76109</ele>
        <time>2023-01-05T12:59:15.939Z</time>
      </trkpt>
      <trkpt lat="43.20445" lon="2.40949">
        <ele>166.695975</ele>
        <time>2023-01-05T12:59:17.931Z</time>
      </trkpt>
      <trkpt lat="43.20443" lon="2.40966">
        <ele>166.630642</ele>
        <time>2023-01-05T12:59:19.933Z</time>
      </trkpt>
      <trkpt lat="43.20442" lon="2.40983">
        <ele>166.562168</ele>
        <time>2023-01-05T12:59:21.931Z</time>
      </trkpt>
      <trkpt lat="43.20439" lon="2.41001">
        <ele>166.494294</ele>
        <time>2023-01-05T12:59:23.928Z</time>
      </trkpt>
      <trkpt lat="43.20437" lon="2.41019">
        <ele>166.422618</ele>
        <time>2023-01-05T12:59:25.933Z</time>
      </trkpt>
      <trkpt lat="43.20434" lon="2.41037">
        <ele>166.351323</ele>
        <time>2023-01-05T12:59:27.946Z</time>
      </trkpt>
      <trkpt lat="43.20432" lon="2.41056">
        <ele>166.126523</ele>
        <time>2023-01-05T12:59:29.931Z</time>
      </trkpt>
      <trkpt lat="43.2043" lon="2.41075">
        <ele>165.89002</ele>
        <time>2023-01-05T12:59:31.930Z</time>
      </trkpt>
      <trkpt lat="43.20427" lon="2.41095">
        <ele>165.648473</ele>
        <time>2023-01-05T12:59:33.953Z</time>
      </trkpt>
      <trkpt lat="43.20425" lon="2.41115">
        <ele>165.407205</ele>
        <time>2023-01-05T12:59:35.937Z</time>
      </trkpt>
      <trkpt lat="43.20422" lon="2.41135">
        <ele>165.160897</ele>
        <time>2023-01-05T12:59:37.936Z</time>
      </trkpt>
      <trkpt lat="43.2042" lon="2.41155">
        <ele>164.917471</ele>
        <time>2023-01-05T12:59:39.935Z</time>
      </trkpt>
      <trkpt lat="43.20418" lon="2.41175">
        <ele>164.670755</ele>
        <time>2023-01-05T12:59:41.940Z</time>
      </trkpt>
      <trkpt lat="43.20417" lon="2.41195">
        <ele>164.430292</ele>
        <time>2023-01-05T12:59:43.937Z</time>
      </trkpt>
      <trkpt lat="43.20415" lon="2.41214">
        <ele>164.19496</ele>
        <time>2023-01-05T12:59:45.937Z</time>
      </trkpt>
      <trkpt lat="43.20415" lon="2.41234">
        <ele>163.95783</ele>
        <time>2023-01-05T12:59:47.930Z</time>
      </trkpt>
      <trkpt lat="43.20415" lon="2.41253">
        <ele>163.72107</ele>
        <time>2023-01-05T12:59:49.950Z</time>
      </trkpt>
      <trkpt lat="43.20415" lon="2.41273">
        <ele>163.484305</ele>
        <time>2023-01-05T12:59:51.950Z</time>
      </trkpt>
      <trkpt lat="43.20415" lon="2.41293">
        <ele>163.374741</ele>
        <time>2023-01-05T12:59:53.931Z</time>
      </trkpt>
      <trkpt lat="43.20416" lon="2.41314">
        <ele>163.388641</ele>
        <time>2023-01-05T12:59:55.933Z</time>
      </trkpt>
      <trkpt lat="43.20417" lon="2.41334">
        <ele>163.402006</ele>
        <time>2023-01-05T12:59:57.951Z</time>
      </trkpt>
      <trkpt lat="43.20419" lon="2.41353">
        <ele>163.415271</ele>
        <time>2023-01-05T12:59:59.953Z</time>
      </trkpt>
      <trkpt lat="43.20422" lon="2.41373">
        <ele>163.428617</ele>
        <time>2023-01-05T13:00:01.954Z</time>
      </trkpt>
      <trkpt lat="43.20424" lon="2.41392">
        <ele>163.441231</ele>
        <time>2023-01-05T13:00:03.928Z</time>
      </trkpt>
      <trkpt lat="43.20428" lon="2.4141">
        <ele>163.453365</ele>
        <time>2023-01-05T13:00:05.929Z</time>
      </trkpt>
      <trkpt lat="43.20431" lon="2.41427">
        <ele>163.465073</ele>
        <time>2023-01-05T13:00:07.940Z</time>
      </trkpt>
      <trkpt lat="43.20435" lon="2.41443">
        <ele>163.476755</ele>
        <time>2023-01-05T13:00:09.943Z</time>
      </trkpt>
      <trkpt lat="43.20439" lon="2.4146">
        <ele>163.488115</ele>
        <time>2023-01-05T13:00:11.934Z</time>
      </trkpt>
      <trkpt lat="43.20443" lon="2.41475">
        <ele>163.499257</ele>
        <time>2023-01-05T13:00:13.930Z</time>
      </trkpt>
      <trkpt lat="43.20447" lon="2.41491">
        <ele>163.510146</ele>
        <time>2023-01-05T13:00:15.939Z</time>
      </trkpt>
      <trkpt lat="43.20452" lon="2.41506">
        <ele>163.521199</ele>
        <time>2023-01-05T13:00:17.946Z</time>
      </trkpt>
      <trkpt lat="43.20456" lon="2.41521">
        <ele>163.529122</ele>
        <time>2023-01-05T13:00:19.954Z</time>
      </trkpt>
      <trkpt lat="43.2046" lon="2.41536">
        <ele>163.353735</ele>
        <time>2023-01-05T13:00:21.943Z</time>
      </trkpt>
      <trkpt lat="43.20464" lon="2.41551">
        <ele>163.180426</ele>
        <time>2023-01-05T13:00:23.935Z</time>
      </trkpt>
      <trkpt lat="43.20468" lon="2.41566">
        <ele>163.010655</ele>
        <time>2023-01-05T13:00:25.946Z</time>
      </trkpt>
      <trkpt lat="43.20471" lon="2.41582">
        <ele>162.831618</ele>
        <time>2023-01-05T13:00:27.940Z</time>
      </trkpt>
      <trkpt lat="43.20476" lon="2.41596">
        <ele>162.660793</ele>
        <time>2023-01-05T13:00:29.937Z</time>
      </trkpt>
      <trkpt lat="43.20481" lon="2.41611">
        <ele>162.486793</ele>
        <time>2023-01-05T13:00:31.938Z</time>
      </trkpt>
      <trkpt lat="43.20485" lon="2.41626">
        <ele>162.315368</ele>
        <time>2023-01-05T13:00:33.941Z</time>
      </trkpt>
      <trkpt lat="43.2049" lon="2.4164">
        <ele>162.143943</ele>
        <time>2023-01-05T13:00:35.940Z</time>
      </trkpt>
      <trkpt lat="43.20494" lon="2.41656">
        <ele>161.960342</ele>
        <time>2023-01-05T13:00:37.951Z</time>
      </trkpt>
      <trkpt lat="43.20499" lon="2.41672">
        <ele>161.772033</ele>
        <time>2023-01-05T13:00:39.938Z</time>
      </trkpt>
      <trkpt lat="43.20504" lon="2.41688">
        <ele>161.580146</ele>
        <time>2023-01-05T13:00:41.945Z</time>
      </trkpt>
      <trkpt lat="43.20509" lon="2.41704">
        <ele>161.389259</ele>
        <time>2023-01-05T13:00:43.949Z</time>
      </trkpt>
      <trkpt lat="43.20513" lon="2.41721">
        <ele>161.196058</ele>
        <time>2023-01-05T13:00:45.935Z</time>
      </trkpt>
      <trkpt lat="43.20518" lon="2.41739">
        <ele>160.993052</ele>
        <time>2023-01-05T13:00:47.938Z</time>
      </trkpt>
      <trkpt lat="43.20522" lon="2.41758">
        <ele>160.6985</ele>
        <time>2023-01-05T13:00:49.932Z</time>
      </trkpt>
      <trkpt lat="43.20528" lon="2.41777">
        <ele>160.260485</ele>
        <time>2023-01-05T13:00:51.951Z</time>
      </trkpt>
      <trkpt lat="43.20533" lon="2.41796">
        <ele>159.825104</ele>
        <time>2023-01-05T13:00:53.943Z</time>
      </trkpt>
      <trkpt lat="43.20539" lon="2.41814">
        <ele>159.395589</ele>
        <time>2023-01-05T13:00:55.952Z</time>
      </trkpt>
      <trkpt lat="43.20544" lon="2.41832">
        <ele>158.971174</ele>
        <time>2023-01-05T13:00:57.948Z</time>
      </trkpt>
      <trkpt lat="43.20548" lon="2.41851">
        <ele>158.545798</ele>
        <time>2023-01-05T13:00:59.952Z</time>
      </trkpt>
      <trkpt lat="43.20553" lon="2.41869">
        <ele>158.136608</ele>
        <time>2023-01-05T13:01:01.935Z</time>
      </trkpt>
      <trkpt lat="43.20558" lon="2.41887">
        <ele>157.721437</ele>
        <time>2023-01-05T13:01:03.953Z</time>
      </trkpt>
      <trkpt lat="43.20563" lon="2.41906">
        <ele>157.284821</ele>
        <time>2023-01-05T13:01:05.937Z</time>
      </trkpt>
      <trkpt lat="43.20569" lon="2.41925">
        <ele>156.840194</ele>
        <time>2023-01-05T13:01:07.943Z</time>
      </trkpt>
      <trkpt lat="43.20574" lon="2.41943">
        <ele>156.419531</ele>
        <time>2023-01-05T13:01:09.950Z</time>
      </trkpt>
      <trkpt lat="43.2058" lon="2.41961">
        <ele>155.990222</ele>
        <time>2023-01-05T13:01:11.943Z</time>
      </trkpt>
      <trkpt lat="43.20585" lon="2.41979">
        <ele>155.572055</ele>
        <time>2023-01-05T13:01:13.929Z</time>
      </trkpt>
      <trkpt lat="43.2059" lon="2.41998">
        <ele>155.329533</ele>
        <time>2023-01-05T13:01:15.928Z</time>
      </trkpt>
      <trkpt lat="43.20594" lon="2.42017">
        <ele>155.093987</ele>
        <time>2023-01-05T13:01:17.930Z</time>
      </trkpt>
      <trkpt lat="43.20597" lon="2.42037">
        <ele>154.853725</ele>
        <time>2023-01-05T13:01:19.931Z</time>
      </trkpt>
      <trkpt lat="43.206" lon="2.42058">
        <ele>154.604657</ele>
        <time>2023-01-05T13:01:21.937Z</time>
      </trkpt>
      <trkpt lat="43.20603" lon="2.4208">
        <ele>154.347553</ele>
        <time>2023-01-05T13:01:23.936Z</time>
      </trkpt>
      <trkpt lat="43.20604" lon="2.42103">
        <ele>154.087514</ele>
        <time>2023-01-05T13:01:25.938Z</time>
      </trkpt>
      <trkpt lat="43.20604" lon="2.42125">
        <ele>153.827651</ele>
        <time>2023-01-05T13:01:27.943Z</time>
      </trkpt>
      <trkpt lat="43.20604" lon="2.42146">
        <ele>153.576244</ele>
        <time>2023-01-05T13:01:29.941Z</time>
      </trkpt>
      <trkpt lat="43.20603" lon="2.42167">
        <ele>153.333396</ele>
        <time>2023-01-05T13:01:31.925Z</time>
      </trkpt>
      <trkpt lat="43.20603" lon="2.42187">
        <ele>153.102923</ele>
        <time>2023-01-05T13:01:33.924Z</time>
      </trkpt>
      <trkpt lat="43.20602" lon="2.42207">
        <ele>152.871919</ele>
        <time>2023-01-05T13:01:35.935Z</time>
      </trkpt>
      <trkpt lat="43.20601" lon="2.42227">
        <ele>152.628601</ele>
        <time>2023-01-05T13:01:37.931Z</time>
      </trkpt>
      <trkpt lat="43.20599" lon="2.42247">
        <ele>152.364003</ele>
        <time>2023-01-05T13:01:39.926Z</time>
      </trkpt>
      <trkpt lat="43.20597" lon="2.42267">
        <ele>152.106397</ele>
        <time>2023-01-05T13:01:41.936Z</time>
      </trkpt>
      <trkpt lat="43.20596" lon="2.42285">
        <ele>151.863111</ele>
        <time>2023-01-05T13:01:43.936Z</time>
      </trkpt>
      <trkpt lat="43.20595" lon="2.42303">
        <ele>151.625236</ele>
        <time>2023-01-05T13:01:45.948Z</time>
      </trkpt>
      <trkpt lat="43.20593" lon="2.42321">
        <ele>151.387004</ele>
        <time>2023-01-05T13:01:47.930Z</time>
      </trkpt>
      <trkpt lat="43.20592" lon="2.42339">
        <ele>151.154006</ele>
        <time>2023-01-05T13:01:49.943Z</time>
      </trkpt>
      <trkpt lat="43.2059" lon="2.42356">
        <ele>150.929487</ele>
        <time>2023-01-05T13:01:51.936Z</time>
      </trkpt>
      <trkpt lat="43.20589" lon="2.42373">
        <ele>150.694537</ele>
        <time>2023-01-05T13:01:53.929Z</time>
      </trkpt>
      <trkpt lat="43.20588" lon="2.42391">
        <ele>150.466147</ele>
        <time>2023-01-05T13:01:55.937Z</time>
      </trkpt>
      <trkpt lat="43.20588" lon="2.42407">
        <ele>150.248521</ele>
        <time>2023-01-05T13:01:57.944Z</time>
      </trkpt>
      <trkpt lat="43.20586" lon="2.42422">
        <ele>150.055242</ele>
        <time>2023-01-05T13:01:59.939Z</time>
      </trkpt>
      <trkpt lat="43.20585" lon="2.42439">
        <ele>149.822191</ele>
        <time>2023-01-05T13:02:02.940Z</time>
      </trkpt>
      <trkpt lat="43.20585" lon="2.42456">
        <ele>149.600978</ele>
        <time>2023-01-05T13:02:05.934Z</time>
      </trkpt>
      <trkpt lat="43.20583" lon="2.42473">
        <ele>149.357686</ele>
        <time>2023-01-05T13:02:08.938Z</time>
      </trkpt>
      <trkpt lat="43.20576" lon="2.42489">
        <ele>149.054618</ele>
        <time>2023-01-05T13:02:11.935Z</time>
      </trkpt>
      <trkpt lat="43.2057" lon="2.42498">
        <ele>148.843923</ele>
        <time>2023-01-05T13:02:13.947Z</time>
      </trkpt>
      <trkpt lat="43.20569" lon="2.42515">
        <ele>148.549984</ele>
        <time>2023-01-05T13:02:16.935Z</time>
      </trkpt>
      <trkpt lat="43.20575" lon="2.42526">
        <ele>148.329264</ele>
        <time>2023-01-05T13:02:18.941Z</time>
      </trkpt>
      <trkpt lat="43.20582" lon="2.42535">
        <ele>148.095696</ele>
        <time>2023-01-05T13:02:20.929Z</time>
      </trkpt>
      <trkpt lat="43.20589" lon="2.42548">
        <ele>147.843313</ele>
        <time>2023-01-05T13:02:22.941Z</time>
      </trkpt>
      <trkpt lat="43.20593" lon="2.42562">
        <ele>147.574716</ele>
        <time>2023-01-05T13:02:24.940Z</time>
      </trkpt>
      <trkpt lat="43.20596" lon="2.42579">
        <ele>147.28601</ele>
        <time>2023-01-05T13:02:26.937Z</time>
      </trkpt>
      <trkpt lat="43.206" lon="2.42595">
        <ele>146.991527</ele>
        <time>2023-01-05T13:02:28.936Z</time>
      </trkpt>
      <trkpt lat="43.20604" lon="2.42612">
        <ele>146.687753</ele>
        <time>2023-01-05T13:02:30.937Z</time>
      </trkpt>
      <trkpt lat="43.20608" lon="2.4263">
        <ele>146.376354</ele>
        <time>2023-01-05T13:02:32.942Z</time>
      </trkpt>
      <trkpt lat="43.20612" lon="2.42647">
        <ele>146.073079</ele>
        <time>2023-01-05T13:02:34.952Z</time>
      </trkpt>
      <trkpt lat="43.20616" lon="2.42665">
        <ele>145.753539</ele>
        <time>2023-01-05T13:02:36.946Z</time>
      </trkpt>
      <trkpt lat="43.20619" lon="2.42683">
        <ele>145.440514</ele>
        <time>2023-01-05T13:02:38.945Z</time>
      </trkpt>
      <trkpt lat="43.20623" lon="2.42701">
        <ele>145.117244</ele>
        <time>2023-01-05T13:02:40.943Z</time>
      </trkpt>
      <trkpt lat="43.20626" lon="2.42721">
        <ele>144.802328</ele>
        <time>2023-01-05T13:02:42.950Z</time>
      </trkpt>
      <trkpt lat="43.20629" lon="2.4274">
        <ele>144.482132</ele>
        <time>2023-01-05T13:02:44.937Z</time>
      </trkpt>
      <trkpt lat="43.20631" lon="2.4276">
        <ele>144.154055</ele>
        <time>2023-01-05T13:02:46.938Z</time>
      </trkpt>
      <trkpt lat="43.20632" lon="2.4278">
        <ele>143.832107</ele>
        <time>2023-01-05T13:02:48.950Z</time>
      </trkpt>
      <trkpt lat="43.20633" lon="2.428">
        <ele>143.50937</ele>
        <time>2023-01-05T13:02:50.951Z</time>
      </trkpt>
      <trkpt lat="43.20633" lon="2.4282">
        <ele>143.193289</ele>
        <time>2023-01-05T13:02:52.942Z</time>
      </trkpt>
      <trkpt lat="43.20633" lon="2.4284">
        <ele>142.87717</ele>
        <time>2023-01-05T13:02:54.937Z</time>
      </trkpt>
      <trkpt lat="43.20632" lon="2.4286">
        <ele>142.557154</ele>
        <time>2023-01-05T13:02:56.932Z</time>
      </trkpt>
      <trkpt lat="43.20631" lon="2.42879">
        <ele>142.248489</ele>
        <time>2023-01-05T13:02:58.936Z</time>
      </trkpt>
      <trkpt lat="43.2063" lon="2.42898">
        <ele>141.941275</ele>
        <time>2023-01-05T13:03:00.949Z</time>
      </trkpt>
      <trkpt lat="43.20629" lon="2.42917">
        <ele>141.640462</ele>
        <time>2023-01-05T13:03:02.950Z</time>
      </trkpt>
      <trkpt lat="43.20627" lon="2.42935">
        <ele>141.348882</ele>
        <time>2023-01-05T13:03:04.947Z</time>
      </trkpt>
      <trkpt lat="43.20626" lon="2.42954">
        <ele>141.118277</ele>
        <time>2023-01-05T13:03:06.950Z</time>
      </trkpt>
      <trkpt lat="43.20625" lon="2.42973">
        <ele>140.923794</ele>
        <time>2023-01-05T13:03:08.951Z</time>
      </trkpt>
      <trkpt lat="43.20624" lon="2.4299">
        <ele>140.741649</ele>
        <time>2023-01-05T13:03:10.950Z</time>
      </trkpt>
      <trkpt lat="43.20624" lon="2.43008">
        <ele>140.558522</ele>
        <time>2023-01-05T13:03:12.936Z</time>
      </trkpt>
      <trkpt lat="43.20623" lon="2.43026">
        <ele>140.368914</ele>
        <time>2023-01-05T13:03:14.932Z</time>
      </trkpt>
      <trkpt lat="43.20622" lon="2.43044">
        <ele>140.17504</ele>
        <time>2023-01-05T13:03:16.943Z</time>
      </trkpt>
      <trkpt lat="43.20621" lon="2.43063">
        <ele>139.981065</ele>
        <time>2023-01-05T13:03:18.943Z</time>
      </trkpt>
      <trkpt lat="43.20619" lon="2.43081">
        <ele>139.785906</ele>
        <time>2023-01-05T13:03:20.940Z</time>
      </trkpt>
      <trkpt lat="43.20616" lon="2.43099">
        <ele>139.592119</ele>
        <time>2023-01-05T13:03:22.948Z</time>
      </trkpt>
      <trkpt lat="43.20612" lon="2.43116">
        <ele>139.411288</ele>
        <time>2023-01-05T13:03:24.936Z</time>
      </trkpt>
      <trkpt lat="43.20608" lon="2.43131">
        <ele>139.239191</ele>
        <time>2023-01-05T13:03:26.934Z</time>
      </trkpt>
      <trkpt lat="43.20608" lon="2.43148">
        <ele>139.068697</ele>
        <time>2023-01-05T13:03:28.943Z</time>
      </trkpt>
      <trkpt lat="43.20611" lon="2.43165">
        <ele>138.886134</ele>
        <time>2023-01-05T13:03:30.939Z</time>
      </trkpt>
      <trkpt lat="43.20616" lon="2.43182">
        <ele>138.692798</ele>
        <time>2023-01-05T13:03:32.933Z</time>
      </trkpt>
      <trkpt lat="43.20621" lon="2.43199">
        <ele>138.819895</ele>
        <time>2023-01-05T13:03:34.940Z</time>
      </trkpt>
      <trkpt lat="43.20624" lon="2.43218">
        <ele>138.956795</ele>
        <time>2023-01-05T13:03:36.943Z</time>
      </trkpt>
      <trkpt lat="43.20622" lon="2.43233">
        <ele>139.066814</ele>
        <time>2023-01-05T13:03:38.947Z</time>
      </trkpt>
      <trkpt lat="43.2062" lon="2.43246">
        <ele>139.159914</ele>
        <time>2023-01-05T13:03:40.935Z</time>
      </trkpt>
      <trkpt lat="43.20615" lon="2.43263">
        <ele>139.285358</ele>
        <time>2023-01-05T13:03:43.922Z</time>
      </trkpt>
      <trkpt lat="43.20612" lon="2.43279">
        <ele>139.403098</ele>
        <time>2023-01-05T13:03:46.950Z</time>
      </trkpt>
      <trkpt lat="43.20609" lon="2.43295">
        <ele>139.519237</ele>
        <time>2023-01-05T13:03:49.943Z</time>
      </trkpt>
      <trkpt lat="43.20608" lon="2.43313">
        <ele>139.646399</ele>
        <time>2023-01-05T13:03:52.941Z</time>
      </trkpt>
      <trkpt lat="43.20607" lon="2.4333">
        <ele>139.769514</ele>
        <time>2023-01-05T13:03:55.942Z</time>
      </trkpt>
      <trkpt lat="43.20608" lon="2.43349">
        <ele>139.90006</ele>
        <time>2023-01-05T13:03:58.945Z</time>
      </trkpt>
      <trkpt lat="43.20607" lon="2.43367">
        <ele>140.031682</ele>
        <time>2023-01-05T13:04:01.939Z</time>
      </trkpt>
      <trkpt lat="43.20607" lon="2.43381">
        <ele>140.124684</ele>
        <time>2023-01-05T13:04:03.938Z</time>
      </trkpt>
      <trkpt lat="43.20606" lon="2.43394">
        <ele>140.221194</ele>
        <time>2023-01-05T13:04:05.944Z</time>
      </trkpt>
      <trkpt lat="43.20607" lon="2.43408">
        <ele>140.317742</ele>
        <time>2023-01-05T13:04:07.932Z</time>
      </trkpt>
      <trkpt lat="43.20607" lon="2.43422">
        <ele>140.413717</ele>
        <time>2023-01-05T13:04:09.923Z</time>
      </trkpt>
      <trkpt lat="43.20608" lon="2.43436">
        <ele>140.280491</ele>
        <time>2023-01-05T13:04:11.938Z</time>
      </trkpt>
      <trkpt lat="43.20608" lon="2.43451">
        <ele>140.109093</ele>
        <time>2023-01-05T13:04:13.945Z</time>
      </trkpt>
      <trkpt lat="43.20608" lon="2.43465">
        <ele>139.935131</ele>
        <time>2023-01-05T13:04:15.938Z</time>
      </trkpt>
      <trkpt lat="43.20608" lon="2.4348">
        <ele>139.760171</ele>
        <time>2023-01-05T13:04:17.933Z</time>
      </trkpt>
      <trkpt lat="43.20607" lon="2.43495">
        <ele>139.58682</ele>
        <time>2023-01-05T13:04:19.942Z</time>
      </trkpt>
      <trkpt lat="43.20607" lon="2.4351">
        <ele>139.406979</ele>
        <time>2023-01-05T13:04:21.952Z</time>
      </trkpt>
      <trkpt lat="43.20603" lon="2.43523">
        <ele>139.232514</ele>
        <time>2023-01-05T13:04:23.962Z</time>
      </trkpt>
      <trkpt lat="43.206" lon="2.43538">
        <ele>139.046027</ele>
        <time>2023-01-05T13:04:25.951Z</time>
      </trkpt>
      <trkpt lat="43.20595" lon="2.43553">
        <ele>138.857989</ele>
        <time>2023-01-05T13:04:27.949Z</time>
      </trkpt>
      <trkpt lat="43.2059" lon="2.43568">
        <ele>138.660086</ele>
        <time>2023-01-05T13:04:29.965Z</time>
      </trkpt>
      <trkpt lat="43.20584" lon="2.43582">
        <ele>138.470795</ele>
        <time>2023-01-05T13:04:31.940Z</time>
      </trkpt>
      <trkpt lat="43.20578" lon="2.43596">
        <ele>138.276807</ele>
        <time>2023-01-05T13:04:33.934Z</time>
      </trkpt>
      <trkpt lat="43.20572" lon="2.43609">
        <ele>138.087597</ele>
        <time>2023-01-05T13:04:35.931Z</time>
      </trkpt>
      <trkpt lat="43.20567" lon="2.43622">
        <ele>137.910933</ele>
        <time>2023-01-05T13:04:37.951Z</time>
      </trkpt>
      <trkpt lat="43.2056" lon="2.43637">
        <ele>137.700826</ele>
        <time>2023-01-05T13:04:40.941Z</time>
      </trkpt>
      <trkpt lat="43.2055" lon="2.43665">
        <ele>137.260577</ele>
        <time>2023-01-05T13:06:14.932Z</time>
      </trkpt>
      <trkpt lat="43.20544" lon="2.43677">
        <ele>137.002867</ele>
        <time>2023-01-05T13:06:17.937Z</time>
      </trkpt>
      <trkpt lat="43.20538" lon="2.4369">
        <ele>136.718629</ele>
        <time>2023-01-05T13:06:20.936Z</time>
      </trkpt>
      <trkpt lat="43.20533" lon="2.43705">
        <ele>136.427467</ele>
        <time>2023-01-05T13:06:23.940Z</time>
      </trkpt>
      <trkpt lat="43.20527" lon="2.43721">
        <ele>136.109675</ele>
        <time>2023-01-05T13:06:26.940Z</time>
      </trkpt>
      <trkpt lat="43.20523" lon="2.43732">
        <ele>135.884142</ele>
        <time>2023-01-05T13:06:28.933Z</time>
      </trkpt>
      <trkpt lat="43.20518" lon="2.43744">
        <ele>135.648467</ele>
        <time>2023-01-05T13:06:30.933Z</time>
      </trkpt>
      <trkpt lat="43.20513" lon="2.43756">
        <ele>135.404799</ele>
        <time>2023-01-05T13:06:32.939Z</time>
      </trkpt>
      <trkpt lat="43.20509" lon="2.43768">
        <ele>135.153536</ele>
        <time>2023-01-05T13:06:34.935Z</time>
      </trkpt>
      <trkpt lat="43.20504" lon="2.43781">
        <ele>134.893702</ele>
        <time>2023-01-05T13:06:36.962Z</time>
      </trkpt>
      <trkpt lat="43.20498" lon="2.43793">
        <ele>134.646954</ele>
        <time>2023-01-05T13:06:38.929Z</time>
      </trkpt>
      <trkpt lat="43.20493" lon="2.43806">
        <ele>134.386349</ele>
        <time>2023-01-05T13:06:40.943Z</time>
      </trkpt>
      <trkpt lat="43.20488" lon="2.43819">
        <ele>134.116266</ele>
        <time>2023-01-05T13:06:42.943Z</time>
      </trkpt>
      <trkpt lat="43.20482" lon="2.43832">
        <ele>133.85171</ele>
        <time>2023-01-05T13:06:44.941Z</time>
      </trkpt>
      <trkpt lat="43.20477" lon="2.43845">
        <ele>133.596573</ele>
        <time>2023-01-05T13:06:46.932Z</time>
      </trkpt>
      <trkpt lat="43.20472" lon="2.43857">
        <ele>133.337875</ele>
        <time>2023-01-05T13:06:48.937Z</time>
      </trkpt>
      <trkpt lat="43.20467" lon="2.4387">
        <ele>133.097549</ele>
        <time>2023-01-05T13:06:50.935Z</time>
      </trkpt>
      <trkpt lat="43.20462" lon="2.43882">
        <ele>133.029858</ele>
        <time>2023-01-05T13:06:52.938Z</time>
      </trkpt>
      <trkpt lat="43.20457" lon="2.43894">
        <ele>132.964545</ele>
        <time>2023-01-05T13:06:54.936Z</time>
      </trkpt>
      <trkpt lat="43.20452" lon="2.43907">
        <ele>132.89538</ele>
        <time>2023-01-05T13:06:56.936Z</time>
      </trkpt>
      <trkpt lat="43.20446" lon="2.43919">
        <ele>132.82556</ele>
        <time>2023-01-05T13:06:58.938Z</time>
      </trkpt>
      <trkpt lat="43.20441" lon="2.43932">
        <ele>132.754914</ele>
        <time>2023-01-05T13:07:00.940Z</time>
      </trkpt>
      <trkpt lat="43.20436" lon="2.43946">
        <ele>132.683302</ele>
        <time>2023-01-05T13:07:02.936Z</time>
      </trkpt>
      <trkpt lat="43.20431" lon="2.43958">
        <ele>132.612737</ele>
        <time>2023-01-05T13:07:04.943Z</time>
      </trkpt>
      <trkpt lat="43.20425" lon="2.43971">
        <ele>132.541484</ele>
        <time>2023-01-05T13:07:06.951Z</time>
      </trkpt>
      <trkpt lat="43.2042" lon="2.43984">
        <ele>132.473975</ele>
        <time>2023-01-05T13:07:08.952Z</time>
      </trkpt>
      <trkpt lat="43.20415" lon="2.43997">
        <ele>132.401149</ele>
        <time>2023-01-05T13:07:10.943Z</time>
      </trkpt>
      <trkpt lat="43.2041" lon="2.4401">
        <ele>132.32958</ele>
        <time>2023-01-05T13:07:12.943Z</time>
      </trkpt>
      <trkpt lat="43.20404" lon="2.44023">
        <ele>132.258327</ele>
        <time>2023-01-05T13:07:14.933Z</time>
      </trkpt>
      <trkpt lat="43.204" lon="2.44036">
        <ele>132.188417</ele>
        <time>2023-01-05T13:07:16.934Z</time>
      </trkpt>
      <trkpt lat="43.20394" lon="2.44049">
        <ele>132.119251</ele>
        <time>2023-01-05T13:07:18.935Z</time>
      </trkpt>
      <trkpt lat="43.20389" lon="2.44061">
        <ele>132.051656</ele>
        <time>2023-01-05T13:07:20.938Z</time>
      </trkpt>
      <trkpt lat="43.20384" lon="2.44074">
        <ele>131.983545</ele>
        <time>2023-01-05T13:07:22.941Z</time>
      </trkpt>
      <trkpt lat="43.2038" lon="2.44086">
        <ele>131.926377</ele>
        <time>2023-01-05T13:07:24.946Z</time>
      </trkpt>
      <trkpt lat="43.20375" lon="2.44098">
        <ele>131.938064</ele>
        <time>2023-01-05T13:07:26.943Z</time>
      </trkpt>
      <trkpt lat="43.2037" lon="2.44111">
        <ele>131.950205</ele>
        <time>2023-01-05T13:07:28.933Z</time>
      </trkpt>
      <trkpt lat="43.20365" lon="2.44123">
        <ele>131.961745</ele>
        <time>2023-01-05T13:07:30.927Z</time>
      </trkpt>
      <trkpt lat="43.2036" lon="2.44135">
        <ele>131.973606</ele>
        <time>2023-01-05T13:07:32.938Z</time>
      </trkpt>
      <trkpt lat="43.20354" lon="2.44148">
        <ele>131.985667</ele>
        <time>2023-01-05T13:07:34.936Z</time>
      </trkpt>
      <trkpt lat="43.20349" lon="2.4416">
        <ele>131.997298</ele>
        <time>2023-01-05T13:07:36.934Z</time>
      </trkpt>
      <trkpt lat="43.20344" lon="2.44173">
        <ele>132.009185</ele>
        <time>2023-01-05T13:07:38.932Z</time>
      </trkpt>
      <trkpt lat="43.20339" lon="2.44185">
        <ele>132.020656</ele>
        <time>2023-01-05T13:07:40.951Z</time>
      </trkpt>
      <trkpt lat="43.20334" lon="2.44195">
        <ele>132.031218</ele>
        <time>2023-01-05T13:07:42.939Z</time>
      </trkpt>
      <trkpt lat="43.20328" lon="2.44206">
        <ele>132.042231</ele>
        <time>2023-01-05T13:07:44.935Z</time>
      </trkpt>
      <trkpt lat="43.20323" lon="2.44217">
        <ele>132.053311</ele>
        <time>2023-01-05T13:07:46.932Z</time>
      </trkpt>
      <trkpt lat="43.20317" lon="2.44228">
        <ele>132.064594</ele>
        <time>2023-01-05T13:07:48.936Z</time>
      </trkpt>
      <trkpt lat="43.20311" lon="2.44239">
        <ele>132.076296</ele>
        <time>2023-01-05T13:07:50.935Z</time>
      </trkpt>
      <trkpt lat="43.20304" lon="2.44251">
        <ele>132.088451</ele>
        <time>2023-01-05T13:07:52.950Z</time>
      </trkpt>
      <trkpt lat="43.20298" lon="2.44261">
        <ele>132.099799</ele>
        <time>2023-01-05T13:07:54.935Z</time>
      </trkpt>
      <trkpt lat="43.2029" lon="2.44269">
        <ele>132.110877</ele>
        <time>2023-01-05T13:07:56.937Z</time>
      </trkpt>
      <trkpt lat="43.20278" lon="2.44276">
        <ele>132.126176</ele>
        <time>2023-01-05T13:07:59.940Z</time>
      </trkpt>
      <trkpt lat="43.20267" lon="2.44286">
        <ele>132.193562</ele>
        <time>2023-01-05T13:08:02.939Z</time>
      </trkpt>
      <trkpt lat="43.20258" lon="2.44298">
        <ele>132.282731</ele>
        <time>2023-01-05T13:08:05.931Z</time>
      </trkpt>
      <trkpt lat="43.2025" lon="2.4431">
        <ele>132.367413</ele>
        <time>2023-01-05T13:08:08.938Z</time>
      </trkpt>
      <trkpt lat="43.20243" lon="2.44321">
        <ele>132.442805</ele>
        <time>2023-01-05T13:08:11.932Z</time>
      </trkpt>
      <trkpt lat="43.20237" lon="2.44333">
        <ele>132.510319</ele>
        <time>2023-01-05T13:08:14.941Z</time>
      </trkpt>
      <trkpt lat="43.2023" lon="2.44345">
        <ele>132.590521</ele>
        <time>2023-01-05T13:08:18.931Z</time>
      </trkpt>
      <trkpt lat="43.20229" lon="2.44359">
        <ele>132.661731</ele>
        <time>2023-01-05T13:08:54.549Z</time>
      </trkpt>
      <trkpt lat="43.20238" lon="2.44353">
        <ele>132.734311</ele>
        <time>2023-01-05T13:23:01.951Z</time>
      </trkpt>
      <trkpt lat="43.2024" lon="2.4434">
        <ele>132.800066</ele>
        <time>2023-01-05T13:23:05.939Z</time>
      </trkpt>
      <trkpt lat="43.20242" lon="2.44327">
        <ele>132.868663</ele>
        <time>2023-01-05T13:23:09.952Z</time>
      </trkpt>
      <trkpt lat="43.2025" lon="2.44317">
        <ele>132.945243</ele>
        <time>2023-01-05T13:23:14.942Z</time>
      </trkpt>
      <trkpt lat="43.20258" lon="2.4432">
        <ele>133.008978</ele>
        <time>2023-01-05T13:23:18.938Z</time>
      </trkpt>
      <trkpt lat="43.20265" lon="2.4433">
        <ele>133.07896</ele>
        <time>2023-01-05T13:23:23.938Z</time>
      </trkpt>
      <trkpt lat="43.20266" lon="2.44345">
        <ele>133.153065</ele>
        <time>2023-01-05T13:23:27.937Z</time>
      </trkpt>
      <trkpt lat="43.20262" lon="2.44357">
        <ele>133.21956</ele>
        <time>2023-01-05T13:23:30.937Z</time>
      </trkpt>
      <trkpt lat="43.20257" lon="2.4437">
        <ele>133.296441</ele>
        <time>2023-01-05T13:23:33.929Z</time>
      </trkpt>
      <trkpt lat="43.20252" lon="2.44384">
        <ele>133.376387</ele>
        <time>2023-01-05T13:23:36.929Z</time>
      </trkpt>
      <trkpt lat="43.20247" lon="2.44399">
        <ele>133.270296</ele>
        <time>2023-01-05T13:23:39.933Z</time>
      </trkpt>
      <trkpt lat="43.20241" lon="2.44414">
        <ele>133.129756</ele>
        <time>2023-01-05T13:23:42.956Z</time>
      </trkpt>
      <trkpt lat="43.20236" lon="2.44425">
        <ele>133.029883</ele>
        <time>2023-01-05T13:23:44.949Z</time>
      </trkpt>
      <trkpt lat="43.2023" lon="2.44441">
        <ele>132.883996</ele>
        <time>2023-01-05T13:23:47.951Z</time>
      </trkpt>
      <trkpt lat="43.20224" lon="2.44457">
        <ele>132.740776</ele>
        <time>2023-01-05T13:23:50.935Z</time>
      </trkpt>
      <trkpt lat="43.2022" lon="2.44469">
        <ele>132.635579</ele>
        <time>2023-01-05T13:23:52.946Z</time>
      </trkpt>
      <trkpt lat="43.20214" lon="2.44485">
        <ele>132.486544</ele>
        <time>2023-01-05T13:23:55.932Z</time>
      </trkpt>
      <trkpt lat="43.2021" lon="2.44497">
        <ele>132.382063</ele>
        <time>2023-01-05T13:23:57.954Z</time>
      </trkpt>
      <trkpt lat="43.20205" lon="2.44508">
        <ele>132.278308</ele>
        <time>2023-01-05T13:23:59.958Z</time>
      </trkpt>
      <trkpt lat="43.20201" lon="2.4452">
        <ele>132.171181</ele>
        <time>2023-01-05T13:24:01.950Z</time>
      </trkpt>
      <trkpt lat="43.20196" lon="2.44532">
        <ele>132.058113</ele>
        <time>2023-01-05T13:24:03.951Z</time>
      </trkpt>
      <trkpt lat="43.20191" lon="2.44545">
        <ele>131.944478</ele>
        <time>2023-01-05T13:24:05.959Z</time>
      </trkpt>
      <trkpt lat="43.20186" lon="2.44557">
        <ele>131.839163</ele>
        <time>2023-01-05T13:24:07.949Z</time>
      </trkpt>
      <trkpt lat="43.20181" lon="2.44568">
        <ele>131.727202</ele>
        <time>2023-01-05T13:24:09.951Z</time>
      </trkpt>
      <trkpt lat="43.20176" lon="2.44581">
        <ele>131.613061</ele>
        <time>2023-01-05T13:24:11.953Z</time>
      </trkpt>
      <trkpt lat="43.20171" lon="2.44593">
        <ele>131.49982</ele>
        <time>2023-01-05T13:24:13.933Z</time>
      </trkpt>
      <trkpt lat="43.20166" lon="2.44606">
        <ele>131.402577</ele>
        <time>2023-01-05T13:24:15.945Z</time>
      </trkpt>
      <trkpt lat="43.20161" lon="2.44618">
        <ele>131.390799</ele>
        <time>2023-01-05T13:24:17.950Z</time>
      </trkpt>
      <trkpt lat="43.20156" lon="2.44631">
        <ele>131.378722</ele>
        <time>2023-01-05T13:24:19.931Z</time>
      </trkpt>
      <trkpt lat="43.20151" lon="2.44643">
        <ele>131.366634</ele>
        <time>2023-01-05T13:24:21.951Z</time>
      </trkpt>
      <trkpt lat="43.20147" lon="2.44656">
        <ele>131.354735</ele>
        <time>2023-01-05T13:24:23.952Z</time>
      </trkpt>
      <trkpt lat="43.20141" lon="2.44668">
        <ele>131.343215</ele>
        <time>2023-01-05T13:24:25.957Z</time>
      </trkpt>
      <trkpt lat="43.20137" lon="2.4468">
        <ele>131.331681</ele>
        <time>2023-01-05T13:24:27.948Z</time>
      </trkpt>
      <trkpt lat="43.20132" lon="2.44692">
        <ele>131.319814</ele>
        <time>2023-01-05T13:24:29.956Z</time>
      </trkpt>
      <trkpt lat="43.20126" lon="2.44705">
        <ele>131.307171</ele>
        <time>2023-01-05T13:24:31.931Z</time>
      </trkpt>
      <trkpt lat="43.20121" lon="2.44716">
        <ele>131.2959</ele>
        <time>2023-01-05T13:24:33.949Z</time>
      </trkpt>
      <trkpt lat="43.20116" lon="2.44729">
        <ele>131.28394</ele>
        <time>2023-01-05T13:24:35.924Z</time>
      </trkpt>
      <trkpt lat="43.20111" lon="2.44741">
        <ele>131.271812</ele>
        <time>2023-01-05T13:24:37.952Z</time>
      </trkpt>
      <trkpt lat="43.20106" lon="2.44753">
        <ele>131.260482</ele>
        <time>2023-01-05T13:24:39.949Z</time>
      </trkpt>
      <trkpt lat="43.20101" lon="2.44767">
        <ele>131.24769</ele>
        <time>2023-01-05T13:24:41.937Z</time>
      </trkpt>
      <trkpt lat="43.20096" lon="2.44779">
        <ele>131.235285</ele>
        <time>2023-01-05T13:24:43.959Z</time>
      </trkpt>
      <trkpt lat="43.20091" lon="2.44792">
        <ele>131.223158</ele>
        <time>2023-01-05T13:24:45.946Z</time>
      </trkpt>
      <trkpt lat="43.20085" lon="2.44804">
        <ele>131.211118</ele>
        <time>2023-01-05T13:24:47.951Z</time>
      </trkpt>
      <trkpt lat="43.2008" lon="2.44817">
        <ele>131.198752</ele>
        <time>2023-01-05T13:24:49.941Z</time>
      </trkpt>
      <trkpt lat="43.20075" lon="2.44829">
        <ele>131.182984</ele>
        <time>2023-01-05T13:24:51.941Z</time>
      </trkpt>
      <trkpt lat="43.2007" lon="2.44842">
        <ele>131.165844</ele>
        <time>2023-01-05T13:24:53.947Z</time>
      </trkpt>
      <trkpt lat="43.20064" lon="2.44855">
        <ele>131.148405</ele>
        <time>2023-01-05T13:24:55.952Z</time>
      </trkpt>
      <trkpt lat="43.20059" lon="2.44868">
        <ele>131.131172</ele>
        <time>2023-01-05T13:24:57.938Z</time>
      </trkpt>
      <trkpt lat="43.20055" lon="2.44881">
        <ele>131.113684</ele>
        <time>2023-01-05T13:24:59.949Z</time>
      </trkpt>
      <trkpt lat="43.20049" lon="2.44894">
        <ele>131.096159</ele>
        <time>2023-01-05T13:25:01.946Z</time>
      </trkpt>
      <trkpt lat="43.20044" lon="2.44906">
        <ele>131.079539</ele>
        <time>2023-01-05T13:25:03.934Z</time>
      </trkpt>
      <trkpt lat="43.20038" lon="2.4492">
        <ele>131.059985</ele>
        <time>2023-01-05T13:25:05.946Z</time>
      </trkpt>
      <trkpt lat="43.20032" lon="2.44933">
        <ele>131.042043</ele>
        <time>2023-01-05T13:25:07.956Z</time>
      </trkpt>
      <trkpt lat="43.20027" lon="2.44947">
        <ele>131.023847</ele>
        <time>2023-01-05T13:25:09.927Z</time>
      </trkpt>
      <trkpt lat="43.20021" lon="2.44961">
        <ele>131.005032</ele>
        <time>2023-01-05T13:25:11.955Z</time>
      </trkpt>
      <trkpt lat="43.20016" lon="2.44974">
        <ele>130.98772</ele>
        <time>2023-01-05T13:25:13.953Z</time>
      </trkpt>
      <trkpt lat="43.2001" lon="2.44987">
        <ele>130.969688</ele>
        <time>2023-01-05T13:25:15.951Z</time>
      </trkpt>
      <trkpt lat="43.20005" lon="2.45001">
        <ele>130.951136</ele>
        <time>2023-01-05T13:25:17.949Z</time>
      </trkpt>
      <trkpt lat="43.19999" lon="2.45014">
        <ele>130.933207</ele>
        <time>2023-01-05T13:25:19.953Z</time>
      </trkpt>
      <trkpt lat="43.19995" lon="2.45028">
        <ele>130.915648</ele>
        <time>2023-01-05T13:25:21.941Z</time>
      </trkpt>
      <trkpt lat="43.19988" lon="2.45041">
        <ele>130.859582</ele>
        <time>2023-01-05T13:25:23.957Z</time>
      </trkpt>
      <trkpt lat="43.19983" lon="2.45054">
        <ele>130.772887</ele>
        <time>2023-01-05T13:25:25.950Z</time>
      </trkpt>
      <trkpt lat="43.19977" lon="2.45067">
        <ele>130.680461</ele>
        <time>2023-01-05T13:25:27.948Z</time>
      </trkpt>
      <trkpt lat="43.19972" lon="2.45081">
        <ele>130.591183</ele>
        <time>2023-01-05T13:25:29.955Z</time>
      </trkpt>
      <trkpt lat="43.19967" lon="2.45094">
        <ele>130.500288</ele>
        <time>2023-01-05T13:25:31.956Z</time>
      </trkpt>
      <trkpt lat="43.19962" lon="2.45108">
        <ele>130.410098</ele>
        <time>2023-01-05T13:25:33.944Z</time>
      </trkpt>
      <trkpt lat="43.19956" lon="2.45121">
        <ele>130.320017</ele>
        <time>2023-01-05T13:25:35.952Z</time>
      </trkpt>
      <trkpt lat="43.1995" lon="2.45135">
        <ele>130.223495</ele>
        <time>2023-01-05T13:25:37.952Z</time>
      </trkpt>
      <trkpt lat="43.19945" lon="2.45149">
        <ele>130.130073</ele>
        <time>2023-01-05T13:25:39.949Z</time>
      </trkpt>
      <trkpt lat="43.1994" lon="2.45163">
        <ele>130.038649</ele>
        <time>2023-01-05T13:25:41.959Z</time>
      </trkpt>
      <trkpt lat="43.19934" lon="2.45179">
        <ele>129.934235</ele>
        <time>2023-01-05T13:25:43.952Z</time>
      </trkpt>
      <trkpt lat="43.19928" lon="2.45192">
        <ele>129.84028</ele>
        <time>2023-01-05T13:25:45.927Z</time>
      </trkpt>
      <trkpt lat="43.19922" lon="2.45208">
        <ele>129.73766</ele>
        <time>2023-01-05T13:25:47.946Z</time>
      </trkpt>
      <trkpt lat="43.19916" lon="2.45222">
        <ele>129.642563</ele>
        <time>2023-01-05T13:25:49.949Z</time>
      </trkpt>
      <trkpt lat="43.1991" lon="2.45235">
        <ele>129.550644</ele>
        <time>2023-01-05T13:25:51.949Z</time>
      </trkpt>
      <trkpt lat="43.19904" lon="2.45249">
        <ele>129.455664</ele>
        <time>2023-01-05T13:25:53.948Z</time>
      </trkpt>
      <trkpt lat="43.19899" lon="2.45263">
        <ele>129.468332</ele>
        <time>2023-01-05T13:25:55.952Z</time>
      </trkpt>
      <trkpt lat="43.19893" lon="2.45277">
        <ele>129.486104</ele>
        <time>2023-01-05T13:25:57.947Z</time>
      </trkpt>
      <trkpt lat="43.19887" lon="2.4529">
        <ele>129.504001</ele>
        <time>2023-01-05T13:25:59.936Z</time>
      </trkpt>
      <trkpt lat="43.19881" lon="2.45305">
        <ele>129.522695</ele>
        <time>2023-01-05T13:26:01.950Z</time>
      </trkpt>
      <trkpt lat="43.19875" lon="2.45319">
        <ele>129.540577</ele>
        <time>2023-01-05T13:26:03.950Z</time>
      </trkpt>
      <trkpt lat="43.19869" lon="2.45332">
        <ele>129.558527</ele>
        <time>2023-01-05T13:26:05.947Z</time>
      </trkpt>
      <trkpt lat="43.19863" lon="2.45346">
        <ele>129.575747</ele>
        <time>2023-01-05T13:26:07.956Z</time>
      </trkpt>
      <trkpt lat="43.19858" lon="2.45361">
        <ele>129.594246</ele>
        <time>2023-01-05T13:26:09.949Z</time>
      </trkpt>
      <trkpt lat="43.19852" lon="2.45374">
        <ele>129.611932</ele>
        <time>2023-01-05T13:26:11.949Z</time>
      </trkpt>
      <trkpt lat="43.19847" lon="2.45389">
        <ele>129.630453</ele>
        <time>2023-01-05T13:26:13.947Z</time>
      </trkpt>
      <trkpt lat="43.19841" lon="2.45404">
        <ele>129.649197</ele>
        <time>2023-01-05T13:26:15.953Z</time>
      </trkpt>
      <trkpt lat="43.19835" lon="2.45419">
        <ele>129.668211</ele>
        <time>2023-01-05T13:26:17.947Z</time>
      </trkpt>
      <trkpt lat="43.19829" lon="2.45434">
        <ele>129.687396</ele>
        <time>2023-01-05T13:26:19.943Z</time>
      </trkpt>
      <trkpt lat="43.19824" lon="2.45448">
        <ele>129.705647</ele>
        <time>2023-01-05T13:26:21.948Z</time>
      </trkpt>
      <trkpt lat="43.19817" lon="2.45463">
        <ele>129.724936</ele>
        <time>2023-01-05T13:26:23.945Z</time>
      </trkpt>
      <trkpt lat="43.19811" lon="2.45478">
        <ele>129.649984</ele>
        <time>2023-01-05T13:26:25.941Z</time>
      </trkpt>
      <trkpt lat="43.19805" lon="2.45492">
        <ele>129.564821</ele>
        <time>2023-01-05T13:26:27.950Z</time>
      </trkpt>
      <trkpt lat="43.19799" lon="2.45507">
        <ele>129.477662</ele>
        <time>2023-01-05T13:26:29.947Z</time>
      </trkpt>
      <trkpt lat="43.19793" lon="2.45521">
        <ele>129.393831</ele>
        <time>2023-01-05T13:26:31.948Z</time>
      </trkpt>
      <trkpt lat="43.19787" lon="2.45535">
        <ele>129.308669</ele>
        <time>2023-01-05T13:26:33.949Z</time>
      </trkpt>
      <trkpt lat="43.19781" lon="2.4555">
        <ele>129.220715</ele>
        <time>2023-01-05T13:26:35.931Z</time>
      </trkpt>
      <trkpt lat="43.19775" lon="2.45565">
        <ele>129.133103</ele>
        <time>2023-01-05T13:26:37.928Z</time>
      </trkpt>
      <trkpt lat="43.19769" lon="2.4558">
        <ele>129.045518</ele>
        <time>2023-01-05T13:26:39.946Z</time>
      </trkpt>
      <trkpt lat="43.19763" lon="2.45596">
        <ele>128.95241</ele>
        <time>2023-01-05T13:26:41.947Z</time>
      </trkpt>
      <trkpt lat="43.19757" lon="2.4561">
        <ele>128.865105</ele>
        <time>2023-01-05T13:26:43.951Z</time>
      </trkpt>
      <trkpt lat="43.1975" lon="2.45626">
        <ele>128.771909</ele>
        <time>2023-01-05T13:26:45.951Z</time>
      </trkpt>
      <trkpt lat="43.19744" lon="2.45641">
        <ele>128.683955</ele>
        <time>2023-01-05T13:26:47.948Z</time>
      </trkpt>
      <trkpt lat="43.19738" lon="2.45655">
        <ele>128.597453</ele>
        <time>2023-01-05T13:26:49.950Z</time>
      </trkpt>
      <trkpt lat="43.19732" lon="2.4567">
        <ele>128.509253</ele>
        <time>2023-01-05T13:26:51.935Z</time>
      </trkpt>
      <trkpt lat="43.19726" lon="2.45684">
        <ele>128.444155</ele>
        <time>2023-01-05T13:26:53.949Z</time>
      </trkpt>
      <trkpt lat="43.1972" lon="2.45699">
        <ele>128.416597</ele>
        <time>2023-01-05T13:26:55.949Z</time>
      </trkpt>
      <trkpt lat="43.19714" lon="2.45714">
        <ele>128.389745</ele>
        <time>2023-01-05T13:26:57.936Z</time>
      </trkpt>
      <trkpt lat="43.19708" lon="2.45728">
        <ele>128.362611</ele>
        <time>2023-01-05T13:26:59.943Z</time>
      </trkpt>
      <trkpt lat="43.19702" lon="2.45744">
        <ele>128.333348</ele>
        <time>2023-01-05T13:27:01.951Z</time>
      </trkpt>
      <trkpt lat="43.19696" lon="2.45759">
        <ele>128.306165</ele>
        <time>2023-01-05T13:27:03.934Z</time>
      </trkpt>
      <trkpt lat="43.1969" lon="2.45773">
        <ele>128.279984</ele>
        <time>2023-01-05T13:27:05.947Z</time>
      </trkpt>
      <trkpt lat="43.19684" lon="2.45787">
        <ele>128.253774</ele>
        <time>2023-01-05T13:27:07.945Z</time>
      </trkpt>
      <trkpt lat="43.19679" lon="2.45801">
        <ele>128.228345</ele>
        <time>2023-01-05T13:27:09.949Z</time>
      </trkpt>
      <trkpt lat="43.19673" lon="2.45814">
        <ele>128.203273</ele>
        <time>2023-01-05T13:27:11.948Z</time>
      </trkpt>
      <trkpt lat="43.19667" lon="2.45828">
        <ele>128.177441</ele>
        <time>2023-01-05T13:27:13.949Z</time>
      </trkpt>
      <trkpt lat="43.19662" lon="2.45841">
        <ele>128.154074</ele>
        <time>2023-01-05T13:27:15.960Z</time>
      </trkpt>
      <trkpt lat="43.19657" lon="2.45855">
        <ele>128.127936</ele>
        <time>2023-01-05T13:27:17.931Z</time>
      </trkpt>
      <trkpt lat="43.19651" lon="2.45867">
        <ele>128.104273</ele>
        <time>2023-01-05T13:27:19.935Z</time>
      </trkpt>
      <trkpt lat="43.19646" lon="2.45881">
        <ele>128.079944</ele>
        <time>2023-01-05T13:27:21.957Z</time>
      </trkpt>
      <trkpt lat="43.19641" lon="2.45895">
        <ele>128.054547</ele>
        <time>2023-01-05T13:27:23.948Z</time>
      </trkpt>
      <trkpt lat="43.19635" lon="2.45908">
        <ele>128.056459</ele>
        <time>2023-01-05T13:27:25.956Z</time>
      </trkpt>
      <trkpt lat="43.19629" lon="2.45922">
        <ele>128.059676</ele>
        <time>2023-01-05T13:27:27.954Z</time>
      </trkpt>
      <trkpt lat="43.19623" lon="2.45936">
        <ele>128.062992</ele>
        <time>2023-01-05T13:27:29.953Z</time>
      </trkpt>
      <trkpt lat="43.19618" lon="2.4595">
        <ele>128.066217</ele>
        <time>2023-01-05T13:27:31.948Z</time>
      </trkpt>
      <trkpt lat="43.19612" lon="2.45963">
        <ele>128.069488</ele>
        <time>2023-01-05T13:27:33.946Z</time>
      </trkpt>
      <trkpt lat="43.19607" lon="2.45977">
        <ele>128.072749</ele>
        <time>2023-01-05T13:27:35.944Z</time>
      </trkpt>
      <trkpt lat="43.19601" lon="2.45991">
        <ele>128.076038</ele>
        <time>2023-01-05T13:27:37.947Z</time>
      </trkpt>
      <trkpt lat="43.19596" lon="2.46004">
        <ele>128.079236</ele>
        <time>2023-01-05T13:27:39.943Z</time>
      </trkpt>
      <trkpt lat="43.1959" lon="2.46018">
        <ele>128.082494</ele>
        <time>2023-01-05T13:27:41.938Z</time>
      </trkpt>
      <trkpt lat="43.19585" lon="2.46033">
        <ele>128.085797</ele>
        <time>2023-01-05T13:27:43.946Z</time>
      </trkpt>
      <trkpt lat="43.19579" lon="2.46047">
        <ele>128.089197</ele>
        <time>2023-01-05T13:27:45.950Z</time>
      </trkpt>
      <trkpt lat="43.19574" lon="2.4606">
        <ele>128.092426</ele>
        <time>2023-01-05T13:27:47.961Z</time>
      </trkpt>
      <trkpt lat="43.19568" lon="2.46074">
        <ele>128.095666</ele>
        <time>2023-01-05T13:27:49.950Z</time>
      </trkpt>
      <trkpt lat="43.19562" lon="2.46088">
        <ele>128.099027</ele>
        <time>2023-01-05T13:27:51.951Z</time>
      </trkpt>
      <trkpt lat="43.19557" lon="2.46102">
        <ele>128.10238</ele>
        <time>2023-01-05T13:27:53.961Z</time>
      </trkpt>
      <trkpt lat="43.19551" lon="2.46116">
        <ele>128.221623</ele>
        <time>2023-01-05T13:27:55.947Z</time>
      </trkpt>
      <trkpt lat="43.19545" lon="2.46129">
        <ele>128.529815</ele>
        <time>2023-01-05T13:27:57.950Z</time>
      </trkpt>
      <trkpt lat="43.1954" lon="2.46142">
        <ele>128.821138</ele>
        <time>2023-01-05T13:27:59.958Z</time>
      </trkpt>
      <trkpt lat="43.19536" lon="2.46154">
        <ele>129.090942</ele>
        <time>2023-01-05T13:28:01.947Z</time>
      </trkpt>
      <trkpt lat="43.19531" lon="2.46165">
        <ele>129.345708</ele>
        <time>2023-01-05T13:28:03.950Z</time>
      </trkpt>
      <trkpt lat="43.19526" lon="2.46176">
        <ele>129.593918</ele>
        <time>2023-01-05T13:28:05.953Z</time>
      </trkpt>
      <trkpt lat="43.1952" lon="2.46191">
        <ele>129.948985</ele>
        <time>2023-01-05T13:28:08.951Z</time>
      </trkpt>
      <trkpt lat="43.19516" lon="2.46203">
        <ele>130.197839</ele>
        <time>2023-01-05T13:28:10.942Z</time>
      </trkpt>
      <trkpt lat="43.19511" lon="2.46213">
        <ele>130.449144</ele>
        <time>2023-01-05T13:28:12.960Z</time>
      </trkpt>
      <trkpt lat="43.19507" lon="2.46225">
        <ele>130.710059</ele>
        <time>2023-01-05T13:28:14.948Z</time>
      </trkpt>
      <trkpt lat="43.19501" lon="2.46241">
        <ele>131.061254</ele>
        <time>2023-01-05T13:28:17.960Z</time>
      </trkpt>
      <trkpt lat="43.19495" lon="2.46254">
        <ele>131.373098</ele>
        <time>2023-01-05T13:28:20.944Z</time>
      </trkpt>
      <trkpt lat="43.19491" lon="2.46267">
        <ele>131.660175</ele>
        <time>2023-01-05T13:28:23.948Z</time>
      </trkpt>
      <trkpt lat="43.19485" lon="2.46282">
        <ele>131.996441</ele>
        <time>2023-01-05T13:28:26.933Z</time>
      </trkpt>
      <trkpt lat="43.19479" lon="2.46297">
        <ele>132.327033</ele>
        <time>2023-01-05T13:28:29.946Z</time>
      </trkpt>
      <trkpt lat="43.19474" lon="2.46309">
        <ele>132.626316</ele>
        <time>2023-01-05T13:28:32.951Z</time>
      </trkpt>
      <trkpt lat="43.19469" lon="2.4632">
        <ele>132.88524</ele>
        <time>2023-01-05T13:28:35.947Z</time>
      </trkpt>
      <trkpt lat="43.19464" lon="2.46331">
        <ele>133.07207</ele>
        <time>2023-01-05T13:28:38.947Z</time>
      </trkpt>
      <trkpt lat="43.19457" lon="2.46345">
        <ele>133.201257</ele>
        <time>2023-01-05T13:28:42.950Z</time>
      </trkpt>
      <trkpt lat="43.19451" lon="2.46359">
        <ele>133.328131</ele>
        <time>2023-01-05T13:28:46.954Z</time>
      </trkpt>
      <trkpt lat="43.19446" lon="2.46372">
        <ele>133.448293</ele>
        <time>2023-01-05T13:28:50.946Z</time>
      </trkpt>
      <trkpt lat="43.1944" lon="2.46385">
        <ele>133.572276</ele>
        <time>2023-01-05T13:28:54.951Z</time>
      </trkpt>
      <trkpt lat="43.19434" lon="2.46399">
        <ele>133.699946</ele>
        <time>2023-01-05T13:28:58.948Z</time>
      </trkpt>
      <trkpt lat="43.19429" lon="2.4641">
        <ele>133.798121</ele>
        <time>2023-01-05T13:29:01.949Z</time>
      </trkpt>
      <trkpt lat="43.19424" lon="2.46425">
        <ele>133.928709</ele>
        <time>2023-01-05T13:29:05.945Z</time>
      </trkpt>
      <trkpt lat="43.1942" lon="2.46436">
        <ele>134.031781</ele>
        <time>2023-01-05T13:29:08.952Z</time>
      </trkpt>
      <trkpt lat="43.19415" lon="2.46448">
        <ele>134.132853</ele>
        <time>2023-01-05T13:29:11.947Z</time>
      </trkpt>
      <trkpt lat="43.19411" lon="2.4646">
        <ele>134.243351</ele>
        <time>2023-01-05T13:29:14.927Z</time>
      </trkpt>
      <trkpt lat="43.19405" lon="2.46476">
        <ele>134.378175</ele>
        <time>2023-01-05T13:29:17.948Z</time>
      </trkpt>
      <trkpt lat="43.19401" lon="2.46488">
        <ele>134.488674</ele>
        <time>2023-01-05T13:29:19.955Z</time>
      </trkpt>
      <trkpt lat="43.19397" lon="2.46502">
        <ele>134.604778</ele>
        <time>2023-01-05T13:29:21.947Z</time>
      </trkpt>
      <trkpt lat="43.19392" lon="2.46516">
        <ele>134.728484</ele>
        <time>2023-01-05T13:29:23.945Z</time>
      </trkpt>
      <trkpt lat="43.19387" lon="2.4653">
        <ele>134.855271</ele>
        <time>2023-01-05T13:29:25.959Z</time>
      </trkpt>
      <trkpt lat="43.19381" lon="2.46546">
        <ele>134.940658</ele>
        <time>2023-01-05T13:29:27.940Z</time>
      </trkpt>
      <trkpt lat="43.19375" lon="2.46562">
        <ele>134.635987</ele>
        <time>2023-01-05T13:29:29.927Z</time>
      </trkpt>
      <trkpt lat="43.1937" lon="2.46578">
        <ele>134.338941</ele>
        <time>2023-01-05T13:29:31.950Z</time>
      </trkpt>
      <trkpt lat="43.19364" lon="2.46594">
        <ele>134.035281</ele>
        <time>2023-01-05T13:29:33.954Z</time>
      </trkpt>
      <trkpt lat="43.19357" lon="2.4661">
        <ele>133.716748</ele>
        <time>2023-01-05T13:29:35.947Z</time>
      </trkpt>
      <trkpt lat="43.19351" lon="2.46628">
        <ele>133.384006</ele>
        <time>2023-01-05T13:29:37.935Z</time>
      </trkpt>
      <trkpt lat="43.19345" lon="2.46645">
        <ele>133.053269</ele>
        <time>2023-01-05T13:29:39.960Z</time>
      </trkpt>
      <trkpt lat="43.19338" lon="2.46663">
        <ele>132.712262</ele>
        <time>2023-01-05T13:29:41.950Z</time>
      </trkpt>
      <trkpt lat="43.19332" lon="2.46682">
        <ele>132.358058</ele>
        <time>2023-01-05T13:29:43.957Z</time>
      </trkpt>
      <trkpt lat="43.19325" lon="2.467">
        <ele>132.014087</ele>
        <time>2023-01-05T13:29:45.951Z</time>
      </trkpt>
      <trkpt lat="43.19319" lon="2.46718">
        <ele>131.668581</ele>
        <time>2023-01-05T13:29:47.936Z</time>
      </trkpt>
      <trkpt lat="43.19311" lon="2.46736">
        <ele>131.314973</ele>
        <time>2023-01-05T13:29:49.941Z</time>
      </trkpt>
      <trkpt lat="43.19305" lon="2.46755">
        <ele>130.965325</ele>
        <time>2023-01-05T13:29:51.948Z</time>
      </trkpt>
      <trkpt lat="43.19298" lon="2.46774">
        <ele>130.713769</ele>
        <time>2023-01-05T13:29:53.958Z</time>
      </trkpt>
      <trkpt lat="43.19291" lon="2.46792">
        <ele>130.585325</ele>
        <time>2023-01-05T13:29:55.966Z</time>
      </trkpt>
      <trkpt lat="43.19284" lon="2.46809">
        <ele>130.462208</ele>
        <time>2023-01-05T13:29:57.960Z</time>
      </trkpt>
      <trkpt lat="43.19277" lon="2.46826">
        <ele>130.342564</ele>
        <time>2023-01-05T13:29:59.945Z</time>
      </trkpt>
      <trkpt lat="43.19271" lon="2.46844">
        <ele>130.220253</ele>
        <time>2023-01-05T13:30:01.950Z</time>
      </trkpt>
      <trkpt lat="43.19264" lon="2.4686">
        <ele>130.104321</ele>
        <time>2023-01-05T13:30:03.958Z</time>
      </trkpt>
      <trkpt lat="43.19258" lon="2.46877">
        <ele>129.990596</ele>
        <time>2023-01-05T13:30:05.959Z</time>
      </trkpt>
      <trkpt lat="43.19252" lon="2.46893">
        <ele>129.876738</ele>
        <time>2023-01-05T13:30:07.957Z</time>
      </trkpt>
      <trkpt lat="43.19247" lon="2.46909">
        <ele>129.767502</ele>
        <time>2023-01-05T13:30:09.947Z</time>
      </trkpt>
      <trkpt lat="43.19242" lon="2.46925">
        <ele>129.657184</ele>
        <time>2023-01-05T13:30:11.938Z</time>
      </trkpt>
      <trkpt lat="43.19235" lon="2.46943">
        <ele>129.53566</ele>
        <time>2023-01-05T13:30:13.948Z</time>
      </trkpt>
      <trkpt lat="43.19229" lon="2.46959">
        <ele>129.4231</ele>
        <time>2023-01-05T13:30:15.957Z</time>
      </trkpt>
      <trkpt lat="43.19223" lon="2.46975">
        <ele>129.31032</ele>
        <time>2023-01-05T13:30:17.932Z</time>
      </trkpt>
      <trkpt lat="43.19218" lon="2.46991">
        <ele>129.213286</ele>
        <time>2023-01-05T13:30:19.950Z</time>
      </trkpt>
      <trkpt lat="43.19212" lon="2.47007">
        <ele>129.141008</ele>
        <time>2023-01-05T13:30:21.949Z</time>
      </trkpt>
      <trkpt lat="43.19206" lon="2.47023">
        <ele>129.068117</ele>
        <time>2023-01-05T13:30:23.952Z</time>
      </trkpt>
      <trkpt lat="43.192" lon="2.47038">
        <ele>128.997201</ele>
        <time>2023-01-05T13:30:25.958Z</time>
      </trkpt>
      <trkpt lat="43.19194" lon="2.47053">
        <ele>128.927721</ele>
        <time>2023-01-05T13:30:27.956Z</time>
      </trkpt>
      <trkpt lat="43.19189" lon="2.47068">
        <ele>128.860109</ele>
        <time>2023-01-05T13:30:29.953Z</time>
      </trkpt>
      <trkpt lat="43.19184" lon="2.47082">
        <ele>128.796897</ele>
        <time>2023-01-05T13:30:31.953Z</time>
      </trkpt>
      <trkpt lat="43.19179" lon="2.47095">
        <ele>128.736902</ele>
        <time>2023-01-05T13:30:33.947Z</time>
      </trkpt>
      <trkpt lat="43.19174" lon="2.4711">
        <ele>128.669653</ele>
        <time>2023-01-05T13:30:35.949Z</time>
      </trkpt>
      <trkpt lat="43.19169" lon="2.47125">
        <ele>128.601042</ele>
        <time>2023-01-05T13:30:37.953Z</time>
      </trkpt>
      <trkpt lat="43.19164" lon="2.4714">
        <ele>128.532335</ele>
        <time>2023-01-05T13:30:39.947Z</time>
      </trkpt>
      <trkpt lat="43.19158" lon="2.47156">
        <ele>128.460928</ele>
        <time>2023-01-05T13:30:41.947Z</time>
      </trkpt>
      <trkpt lat="43.19152" lon="2.47171">
        <ele>128.392702</ele>
        <time>2023-01-05T13:30:43.957Z</time>
      </trkpt>
      <trkpt lat="43.19147" lon="2.47186">
        <ele>128.322509</ele>
        <time>2023-01-05T13:30:45.949Z</time>
      </trkpt>
      <trkpt lat="43.19142" lon="2.47202">
        <ele>128.250619</ele>
        <time>2023-01-05T13:30:47.954Z</time>
      </trkpt>
      <trkpt lat="43.19136" lon="2.47218">
        <ele>128.180662</ele>
        <time>2023-01-05T13:30:49.951Z</time>
      </trkpt>
      <trkpt lat="43.19131" lon="2.47233">
        <ele>128.11196</ele>
        <time>2023-01-05T13:30:51.956Z</time>
      </trkpt>
      <trkpt lat="43.19125" lon="2.47249">
        <ele>128.03761</ele>
        <time>2023-01-05T13:30:53.931Z</time>
      </trkpt>
      <trkpt lat="43.1912" lon="2.47265">
        <ele>127.966576</ele>
        <time>2023-01-05T13:30:55.949Z</time>
      </trkpt>
      <trkpt lat="43.19114" lon="2.47281">
        <ele>127.893095</ele>
        <time>2023-01-05T13:30:57.951Z</time>
      </trkpt>
      <trkpt lat="43.19108" lon="2.47296">
        <ele>127.820925</ele>
        <time>2023-01-05T13:30:59.948Z</time>
      </trkpt>
      <trkpt lat="43.19101" lon="2.47312">
        <ele>127.747404</ele>
        <time>2023-01-05T13:31:01.963Z</time>
      </trkpt>
      <trkpt lat="43.19096" lon="2.47328">
        <ele>127.674412</ele>
        <time>2023-01-05T13:31:03.951Z</time>
      </trkpt>
      <trkpt lat="43.1909" lon="2.47344">
        <ele>127.603378</ele>
        <time>2023-01-05T13:31:05.952Z</time>
      </trkpt>
      <trkpt lat="43.19084" lon="2.47359">
        <ele>127.531978</ele>
        <time>2023-01-05T13:31:07.951Z</time>
      </trkpt>
      <trkpt lat="43.19079" lon="2.47375">
        <ele>127.460205</ele>
        <time>2023-01-05T13:31:09.952Z</time>
      </trkpt>
      <trkpt lat="43.19073" lon="2.47389">
        <ele>127.393425</ele>
        <time>2023-01-05T13:31:11.936Z</time>
      </trkpt>
      <trkpt lat="43.19067" lon="2.47404">
        <ele>127.323775</ele>
        <time>2023-01-05T13:31:13.954Z</time>
      </trkpt>
      <trkpt lat="43.19061" lon="2.47419">
        <ele>127.254639</ele>
        <time>2023-01-05T13:31:15.949Z</time>
      </trkpt>
      <trkpt lat="43.19056" lon="2.47435">
        <ele>127.221056</ele>
        <time>2023-01-05T13:31:17.958Z</time>
      </trkpt>
      <trkpt lat="43.19051" lon="2.4745">
        <ele>127.214452</ele>
        <time>2023-01-05T13:31:19.948Z</time>
      </trkpt>
      <trkpt lat="43.19045" lon="2.47464">
        <ele>127.207866</ele>
        <time>2023-01-05T13:31:21.961Z</time>
      </trkpt>
      <trkpt lat="43.1904" lon="2.47479">
        <ele>127.201441</ele>
        <time>2023-01-05T13:31:23.958Z</time>
      </trkpt>
      <trkpt lat="43.19035" lon="2.47494">
        <ele>127.195062</ele>
        <time>2023-01-05T13:31:25.950Z</time>
      </trkpt>
      <trkpt lat="43.1903" lon="2.47509">
        <ele>127.188447</ele>
        <time>2023-01-05T13:31:27.967Z</time>
      </trkpt>
      <trkpt lat="43.19024" lon="2.47523">
        <ele>127.181999</ele>
        <time>2023-01-05T13:31:29.942Z</time>
      </trkpt>
      <trkpt lat="43.19019" lon="2.47538">
        <ele>127.175456</ele>
        <time>2023-01-05T13:31:31.948Z</time>
      </trkpt>
      <trkpt lat="43.19014" lon="2.47554">
        <ele>127.168569</ele>
        <time>2023-01-05T13:31:33.951Z</time>
      </trkpt>
      <trkpt lat="43.19008" lon="2.47568">
        <ele>127.162311</ele>
        <time>2023-01-05T13:31:35.959Z</time>
      </trkpt>
      <trkpt lat="43.19003" lon="2.47583">
        <ele>127.155445</ele>
        <time>2023-01-05T13:31:37.949Z</time>
      </trkpt>
      <trkpt lat="43.18997" lon="2.476">
        <ele>127.148213</ele>
        <time>2023-01-05T13:31:39.954Z</time>
      </trkpt>
      <trkpt lat="43.18991" lon="2.47615">
        <ele>127.141361</ele>
        <time>2023-01-05T13:31:41.952Z</time>
      </trkpt>
      <trkpt lat="43.18985" lon="2.4763">
        <ele>127.134741</ele>
        <time>2023-01-05T13:31:43.933Z</time>
      </trkpt>
      <trkpt lat="43.18979" lon="2.47648">
        <ele>127.126973</ele>
        <time>2023-01-05T13:31:45.956Z</time>
      </trkpt>
      <trkpt lat="43.18973" lon="2.47664">
        <ele>127.121538</ele>
        <time>2023-01-05T13:31:47.948Z</time>
      </trkpt>
      <trkpt lat="43.18968" lon="2.47681">
        <ele>127.115764</ele>
        <time>2023-01-05T13:31:49.956Z</time>
      </trkpt>
      <trkpt lat="43.18962" lon="2.47697">
        <ele>127.110281</ele>
        <time>2023-01-05T13:31:51.950Z</time>
      </trkpt>
      <trkpt lat="43.18956" lon="2.47713">
        <ele>127.104981</ele>
        <time>2023-01-05T13:31:53.936Z</time>
      </trkpt>
      <trkpt lat="43.1895" lon="2.4773">
        <ele>127.099281</ele>
        <time>2023-01-05T13:31:55.956Z</time>
      </trkpt>
      <trkpt lat="43.18944" lon="2.47746">
        <ele>127.093782</ele>
        <time>2023-01-05T13:31:57.961Z</time>
      </trkpt>
      <trkpt lat="43.18938" lon="2.47763">
        <ele>127.087891</ele>
        <time>2023-01-05T13:31:59.932Z</time>
      </trkpt>
      <trkpt lat="43.18932" lon="2.4778">
        <ele>127.082164</ele>
        <time>2023-01-05T13:32:01.951Z</time>
      </trkpt>
      <trkpt lat="43.18926" lon="2.47797">
        <ele>127.076437</ele>
        <time>2023-01-05T13:32:03.958Z</time>
      </trkpt>
      <trkpt lat="43.18919" lon="2.47813">
        <ele>127.070861</ele>
        <time>2023-01-05T13:32:05.960Z</time>
      </trkpt>
      <trkpt lat="43.18913" lon="2.47829">
        <ele>127.065334</ele>
        <time>2023-01-05T13:32:07.951Z</time>
      </trkpt>
      <trkpt lat="43.18907" lon="2.47846">
        <ele>127.059631</ele>
        <time>2023-01-05T13:32:09.927Z</time>
      </trkpt>
      <trkpt lat="43.18901" lon="2.47862">
        <ele>127.053966</ele>
        <time>2023-01-05T13:32:11.951Z</time>
      </trkpt>
      <trkpt lat="43.18895" lon="2.4788">
        <ele>127.138843</ele>
        <time>2023-01-05T13:32:13.949Z</time>
      </trkpt>
      <trkpt lat="43.18889" lon="2.47897">
        <ele>127.255727</ele>
        <time>2023-01-05T13:32:15.961Z</time>
      </trkpt>
      <trkpt lat="43.18883" lon="2.47913">
        <ele>127.368316</ele>
        <time>2023-01-05T13:32:17.934Z</time>
      </trkpt>
      <trkpt lat="43.18877" lon="2.47929">
        <ele>127.482941</ele>
        <time>2023-01-05T13:32:19.960Z</time>
      </trkpt>
      <trkpt lat="43.18871" lon="2.47946">
        <ele>127.600246</ele>
        <time>2023-01-05T13:32:21.946Z</time>
      </trkpt>
      <trkpt lat="43.18866" lon="2.47963">
        <ele>127.716411</ele>
        <time>2023-01-05T13:32:23.952Z</time>
      </trkpt>
      <trkpt lat="43.1886" lon="2.47979">
        <ele>127.83085</ele>
        <time>2023-01-05T13:32:25.949Z</time>
      </trkpt>
      <trkpt lat="43.18854" lon="2.47994">
        <ele>127.933657</ele>
        <time>2023-01-05T13:32:27.950Z</time>
      </trkpt>
      <trkpt lat="43.18849" lon="2.48009">
        <ele>128.037444</ele>
        <time>2023-01-05T13:32:29.961Z</time>
      </trkpt>
      <trkpt lat="43.18844" lon="2.48023">
        <ele>128.134998</ele>
        <time>2023-01-05T13:32:31.948Z</time>
      </trkpt>
      <trkpt lat="43.18839" lon="2.48036">
        <ele>128.228082</ele>
        <time>2023-01-05T13:32:33.933Z</time>
      </trkpt>
      <trkpt lat="43.18835" lon="2.48049">
        <ele>128.318554</ele>
        <time>2023-01-05T13:32:35.941Z</time>
      </trkpt>
      <trkpt lat="43.1883" lon="2.48062">
        <ele>128.408323</ele>
        <time>2023-01-05T13:32:37.960Z</time>
      </trkpt>
      <trkpt lat="43.18825" lon="2.48075">
        <ele>128.498092</ele>
        <time>2023-01-05T13:32:39.950Z</time>
      </trkpt>
      <trkpt lat="43.1882" lon="2.48088">
        <ele>128.58967</ele>
        <time>2023-01-05T13:32:41.926Z</time>
      </trkpt>
      <trkpt lat="43.18815" lon="2.48101">
        <ele>128.628932</ele>
        <time>2023-01-05T13:32:43.939Z</time>
      </trkpt>
      <trkpt lat="43.1881" lon="2.48113">
        <ele>128.662398</ele>
        <time>2023-01-05T13:32:45.950Z</time>
      </trkpt>
      <trkpt lat="43.18805" lon="2.48125">
        <ele>128.696114</ele>
        <time>2023-01-05T13:32:47.950Z</time>
      </trkpt>
      <trkpt lat="43.18801" lon="2.48138">
        <ele>128.731318</ele>
        <time>2023-01-05T13:32:49.965Z</time>
      </trkpt>
      <trkpt lat="43.18796" lon="2.48152">
        <ele>128.767957</ele>
        <time>2023-01-05T13:32:51.948Z</time>
      </trkpt>
      <trkpt lat="43.18791" lon="2.48165">
        <ele>128.802434</ele>
        <time>2023-01-05T13:32:53.948Z</time>
      </trkpt>
      <trkpt lat="43.18786" lon="2.48178">
        <ele>128.838796</ele>
        <time>2023-01-05T13:32:55.957Z</time>
      </trkpt>
      <trkpt lat="43.18781" lon="2.48192">
        <ele>128.874578</ele>
        <time>2023-01-05T13:32:57.953Z</time>
      </trkpt>
      <trkpt lat="43.18777" lon="2.48205">
        <ele>128.909196</ele>
        <time>2023-01-05T13:32:59.951Z</time>
      </trkpt>
      <trkpt lat="43.18772" lon="2.48219">
        <ele>128.946696</ele>
        <time>2023-01-05T13:33:01.949Z</time>
      </trkpt>
      <trkpt lat="43.18767" lon="2.48232">
        <ele>128.983121</ele>
        <time>2023-01-05T13:33:03.946Z</time>
      </trkpt>
      <trkpt lat="43.18762" lon="2.48245">
        <ele>129.017521</ele>
        <time>2023-01-05T13:33:05.952Z</time>
      </trkpt>
      <trkpt lat="43.18757" lon="2.48258">
        <ele>129.053033</ele>
        <time>2023-01-05T13:33:07.949Z</time>
      </trkpt>
      <trkpt lat="43.18752" lon="2.48271">
        <ele>129.087385</ele>
        <time>2023-01-05T13:33:09.952Z</time>
      </trkpt>
      <trkpt lat="43.18747" lon="2.48285">
        <ele>129.125181</ele>
        <time>2023-01-05T13:33:11.938Z</time>
      </trkpt>
      <trkpt lat="43.18742" lon="2.48298">
        <ele>129.160518</ele>
        <time>2023-01-05T13:33:13.953Z</time>
      </trkpt>
      <trkpt lat="43.18738" lon="2.4831">
        <ele>129.195017</ele>
        <time>2023-01-05T13:33:15.952Z</time>
      </trkpt>
      <trkpt lat="43.18734" lon="2.48321">
        <ele>129.231201</ele>
        <time>2023-01-05T13:33:17.955Z</time>
      </trkpt>
      <trkpt lat="43.18729" lon="2.48334">
        <ele>129.273593</ele>
        <time>2023-01-05T13:33:19.945Z</time>
      </trkpt>
      <trkpt lat="43.18725" lon="2.48347">
        <ele>129.314047</ele>
        <time>2023-01-05T13:33:21.959Z</time>
      </trkpt>
      <trkpt lat="43.1872" lon="2.48359">
        <ele>129.354242</ele>
        <time>2023-01-05T13:33:23.954Z</time>
      </trkpt>
      <trkpt lat="43.18716" lon="2.48371">
        <ele>129.39366</ele>
        <time>2023-01-05T13:33:25.947Z</time>
      </trkpt>
      <trkpt lat="43.18712" lon="2.48383">
        <ele>129.433299</ele>
        <time>2023-01-05T13:33:27.945Z</time>
      </trkpt>
      <trkpt lat="43.18707" lon="2.48395">
        <ele>129.473369</ele>
        <time>2023-01-05T13:33:29.936Z</time>
      </trkpt>
      <trkpt lat="43.18703" lon="2.48407">
        <ele>129.51424</ele>
        <time>2023-01-05T13:33:31.934Z</time>
      </trkpt>
      <trkpt lat="43.18698" lon="2.4842">
        <ele>129.557161</ele>
        <time>2023-01-05T13:33:33.946Z</time>
      </trkpt>
      <trkpt lat="43.18693" lon="2.48434">
        <ele>129.601605</ele>
        <time>2023-01-05T13:33:35.960Z</time>
      </trkpt>
      <trkpt lat="43.18689" lon="2.48447">
        <ele>129.64505</ele>
        <time>2023-01-05T13:33:37.948Z</time>
      </trkpt>
      <trkpt lat="43.18684" lon="2.48459">
        <ele>129.685212</ele>
        <time>2023-01-05T13:33:39.960Z</time>
      </trkpt>
      <trkpt lat="43.18679" lon="2.48472">
        <ele>129.726379</ele>
        <time>2023-01-05T13:33:41.960Z</time>
      </trkpt>
      <trkpt lat="43.18675" lon="2.48484">
        <ele>129.76725</ele>
        <time>2023-01-05T13:33:43.953Z</time>
      </trkpt>
      <trkpt lat="43.1867" lon="2.48496">
        <ele>129.80875</ele>
        <time>2023-01-05T13:33:45.948Z</time>
      </trkpt>
      <trkpt lat="43.18666" lon="2.48509">
        <ele>129.850873</ele>
        <time>2023-01-05T13:33:47.949Z</time>
      </trkpt>
      <trkpt lat="43.18662" lon="2.48521">
        <ele>129.889444</ele>
        <time>2023-01-05T13:33:49.951Z</time>
      </trkpt>
      <trkpt lat="43.18658" lon="2.48534">
        <ele>129.872743</ele>
        <time>2023-01-05T13:33:51.950Z</time>
      </trkpt>
      <trkpt lat="43.18654" lon="2.48545">
        <ele>129.735982</ele>
        <time>2023-01-05T13:33:53.948Z</time>
      </trkpt>
      <trkpt lat="43.18651" lon="2.48557">
        <ele>129.591039</ele>
        <time>2023-01-05T13:33:55.961Z</time>
      </trkpt>
      <trkpt lat="43.18648" lon="2.48571">
        <ele>129.436385</ele>
        <time>2023-01-05T13:33:57.946Z</time>
      </trkpt>
      <trkpt lat="43.18644" lon="2.48585">
        <ele>129.273337</ele>
        <time>2023-01-05T13:33:59.951Z</time>
      </trkpt>
      <trkpt lat="43.18641" lon="2.48598">
        <ele>129.112832</ele>
        <time>2023-01-05T13:34:01.949Z</time>
      </trkpt>
      <trkpt lat="43.18638" lon="2.48613">
        <ele>128.947552</ele>
        <time>2023-01-05T13:34:03.954Z</time>
      </trkpt>
      <trkpt lat="43.18635" lon="2.48628">
        <ele>128.779447</ele>
        <time>2023-01-05T13:34:05.949Z</time>
      </trkpt>
      <trkpt lat="43.18633" lon="2.48643">
        <ele>128.610233</ele>
        <time>2023-01-05T13:34:07.948Z</time>
      </trkpt>
      <trkpt lat="43.18631" lon="2.48657">
        <ele>128.44596</ele>
        <time>2023-01-05T13:34:09.955Z</time>
      </trkpt>
      <trkpt lat="43.18629" lon="2.48673">
        <ele>128.271686</ele>
        <time>2023-01-05T13:34:11.958Z</time>
      </trkpt>
      <trkpt lat="43.18626" lon="2.48688">
        <ele>128.099241</ele>
        <time>2023-01-05T13:34:13.960Z</time>
      </trkpt>
      <trkpt lat="43.18624" lon="2.48705">
        <ele>127.916266</ele>
        <time>2023-01-05T13:34:15.937Z</time>
      </trkpt>
      <trkpt lat="43.18623" lon="2.4872">
        <ele>127.743978</ele>
        <time>2023-01-05T13:34:17.934Z</time>
      </trkpt>
      <trkpt lat="43.18621" lon="2.48737">
        <ele>127.553813</ele>
        <time>2023-01-05T13:34:19.958Z</time>
      </trkpt>
      <trkpt lat="43.18619" lon="2.48754">
        <ele>127.361038</ele>
        <time>2023-01-05T13:34:21.931Z</time>
      </trkpt>
      <trkpt lat="43.18617" lon="2.48772">
        <ele>127.195009</ele>
        <time>2023-01-05T13:34:23.958Z</time>
      </trkpt>
      <trkpt lat="43.18615" lon="2.48789">
        <ele>127.168967</ele>
        <time>2023-01-05T13:34:25.957Z</time>
      </trkpt>
      <trkpt lat="43.18612" lon="2.48807">
        <ele>127.141462</ele>
        <time>2023-01-05T13:34:27.949Z</time>
      </trkpt>
      <trkpt lat="43.18609" lon="2.48824">
        <ele>127.114674</ele>
        <time>2023-01-05T13:34:29.950Z</time>
      </trkpt>
      <trkpt lat="43.18607" lon="2.48842">
        <ele>127.088221</ele>
        <time>2023-01-05T13:34:31.950Z</time>
      </trkpt>
      <trkpt lat="43.18606" lon="2.4886">
        <ele>127.061084</ele>
        <time>2023-01-05T13:34:33.939Z</time>
      </trkpt>
      <trkpt lat="43.18604" lon="2.48878">
        <ele>127.034121</ele>
        <time>2023-01-05T13:34:35.961Z</time>
      </trkpt>
      <trkpt lat="43.18602" lon="2.48894">
        <ele>127.009078</ele>
        <time>2023-01-05T13:34:37.936Z</time>
      </trkpt>
      <trkpt lat="43.186" lon="2.48912">
        <ele>126.982477</ele>
        <time>2023-01-05T13:34:39.956Z</time>
      </trkpt>
      <trkpt lat="43.18598" lon="2.48929">
        <ele>126.956822</ele>
        <time>2023-01-05T13:34:41.944Z</time>
      </trkpt>
      <trkpt lat="43.18596" lon="2.48946">
        <ele>126.931042</ele>
        <time>2023-01-05T13:34:43.948Z</time>
      </trkpt>
      <trkpt lat="43.18594" lon="2.48963">
        <ele>126.905181</ele>
        <time>2023-01-05T13:34:45.951Z</time>
      </trkpt>
      <trkpt lat="43.18593" lon="2.4898">
        <ele>126.879614</ele>
        <time>2023-01-05T13:34:47.953Z</time>
      </trkpt>
      <trkpt lat="43.18591" lon="2.48998">
        <ele>126.852746</ele>
        <time>2023-01-05T13:34:49.948Z</time>
      </trkpt>
      <trkpt lat="43.18589" lon="2.49016">
        <ele>126.804971</ele>
        <time>2023-01-05T13:34:51.951Z</time>
      </trkpt>
      <trkpt lat="43.18588" lon="2.49034">
        <ele>126.661247</ele>
        <time>2023-01-05T13:34:53.950Z</time>
      </trkpt>
      <trkpt lat="43.18586" lon="2.49052">
        <ele>126.517167</ele>
        <time>2023-01-05T13:34:55.945Z</time>
      </trkpt>
      <trkpt lat="43.18584" lon="2.4907">
        <ele>126.371731</ele>
        <time>2023-01-05T13:34:57.959Z</time>
      </trkpt>
      <trkpt lat="43.18582" lon="2.4909">
        <ele>126.219585</ele>
        <time>2023-01-05T13:34:59.948Z</time>
      </trkpt>
      <trkpt lat="43.18581" lon="2.49108">
        <ele>126.071163</ele>
        <time>2023-01-05T13:35:01.938Z</time>
      </trkpt>
      <trkpt lat="43.18579" lon="2.49127">
        <ele>125.920958</ele>
        <time>2023-01-05T13:35:03.931Z</time>
      </trkpt>
      <trkpt lat="43.18578" lon="2.49146">
        <ele>125.77429</ele>
        <time>2023-01-05T13:35:05.950Z</time>
      </trkpt>
      <trkpt lat="43.18577" lon="2.49165">
        <ele>125.620571</ele>
        <time>2023-01-05T13:35:07.952Z</time>
      </trkpt>
      <trkpt lat="43.18576" lon="2.49185">
        <ele>125.468133</ele>
        <time>2023-01-05T13:35:09.948Z</time>
      </trkpt>
      <trkpt lat="43.18575" lon="2.49203">
        <ele>125.320682</ele>
        <time>2023-01-05T13:35:11.961Z</time>
      </trkpt>
      <trkpt lat="43.18573" lon="2.49222">
        <ele>125.174606</ele>
        <time>2023-01-05T13:35:13.947Z</time>
      </trkpt>
      <trkpt lat="43.18572" lon="2.49241">
        <ele>125.024401</ele>
        <time>2023-01-05T13:35:15.949Z</time>
      </trkpt>
      <trkpt lat="43.18571" lon="2.4926">
        <ele>124.873469</ele>
        <time>2023-01-05T13:35:17.948Z</time>
      </trkpt>
      <trkpt lat="43.1857" lon="2.49278">
        <ele>124.715822</ele>
        <time>2023-01-05T13:35:19.946Z</time>
      </trkpt>
      <trkpt lat="43.18569" lon="2.49296">
        <ele>124.56292</ele>
        <time>2023-01-05T13:35:21.951Z</time>
      </trkpt>
      <trkpt lat="43.18567" lon="2.49315">
        <ele>124.405174</ele>
        <time>2023-01-05T13:35:23.954Z</time>
      </trkpt>
      <trkpt lat="43.18566" lon="2.49332">
        <ele>124.260841</ele>
        <time>2023-01-05T13:35:25.952Z</time>
      </trkpt>
      <trkpt lat="43.18565" lon="2.49349">
        <ele>124.114293</ele>
        <time>2023-01-05T13:35:27.950Z</time>
      </trkpt>
      <trkpt lat="43.18564" lon="2.49366">
        <ele>123.967833</ele>
        <time>2023-01-05T13:35:29.940Z</time>
      </trkpt>
      <trkpt lat="43.18563" lon="2.49383">
        <ele>123.822978</ele>
        <time>2023-01-05T13:35:31.935Z</time>
      </trkpt>
      <trkpt lat="43.18562" lon="2.49401">
        <ele>123.674536</ele>
        <time>2023-01-05T13:35:33.947Z</time>
      </trkpt>
      <trkpt lat="43.1856" lon="2.49418">
        <ele>123.526605</ele>
        <time>2023-01-05T13:35:35.946Z</time>
      </trkpt>
      <trkpt lat="43.18559" lon="2.49435">
        <ele>123.375729</ele>
        <time>2023-01-05T13:35:37.951Z</time>
      </trkpt>
      <trkpt lat="43.18558" lon="2.49454">
        <ele>123.220713</ele>
        <time>2023-01-05T13:35:39.956Z</time>
      </trkpt>
      <trkpt lat="43.18557" lon="2.49473">
        <ele>123.059477</ele>
        <time>2023-01-05T13:35:41.939Z</time>
      </trkpt>
      <trkpt lat="43.18555" lon="2.49491">
        <ele>122.902642</ele>
        <time>2023-01-05T13:35:43.947Z</time>
      </trkpt>
      <trkpt lat="43.18554" lon="2.4951">
        <ele>122.760755</ele>
        <time>2023-01-05T13:35:45.940Z</time>
      </trkpt>
      <trkpt lat="43.18552" lon="2.49529">
        <ele>122.656657</ele>
        <time>2023-01-05T13:35:47.938Z</time>
      </trkpt>
      <trkpt lat="43.18551" lon="2.49548">
        <ele>122.554003</ele>
        <time>2023-01-05T13:35:49.944Z</time>
      </trkpt>
      <trkpt lat="43.1855" lon="2.49567">
        <ele>122.452848</ele>
        <time>2023-01-05T13:35:51.950Z</time>
      </trkpt>
      <trkpt lat="43.18549" lon="2.49587">
        <ele>122.347357</ele>
        <time>2023-01-05T13:35:53.956Z</time>
      </trkpt>
      <trkpt lat="43.18548" lon="2.49606">
        <ele>122.243048</ele>
        <time>2023-01-05T13:35:55.952Z</time>
      </trkpt>
      <trkpt lat="43.18546" lon="2.49626">
        <ele>122.137883</ele>
        <time>2023-01-05T13:35:57.949Z</time>
      </trkpt>
      <trkpt lat="43.18546" lon="2.49646">
        <ele>122.030412</ele>
        <time>2023-01-05T13:35:59.955Z</time>
      </trkpt>
      <trkpt lat="43.18544" lon="2.49665">
        <ele>121.927989</ele>
        <time>2023-01-05T13:36:01.951Z</time>
      </trkpt>
      <trkpt lat="43.18543" lon="2.49684">
        <ele>121.826356</ele>
        <time>2023-01-05T13:36:03.949Z</time>
      </trkpt>
      <trkpt lat="43.18542" lon="2.49703">
        <ele>121.72347</ele>
        <time>2023-01-05T13:36:05.958Z</time>
      </trkpt>
      <trkpt lat="43.18541" lon="2.49722">
        <ele>121.620651</ele>
        <time>2023-01-05T13:36:07.949Z</time>
      </trkpt>
      <trkpt lat="43.1854" lon="2.4974">
        <ele>121.52179</ele>
        <time>2023-01-05T13:36:09.946Z</time>
      </trkpt>
      <trkpt lat="43.18538" lon="2.49759">
        <ele>121.562382</ele>
        <time>2023-01-05T13:36:11.952Z</time>
      </trkpt>
      <trkpt lat="43.18537" lon="2.49778">
        <ele>121.733481</ele>
        <time>2023-01-05T13:36:13.945Z</time>
      </trkpt>
      <trkpt lat="43.18536" lon="2.49796">
        <ele>121.893115</ele>
        <time>2023-01-05T13:36:15.958Z</time>
      </trkpt>
      <trkpt lat="43.18535" lon="2.49814">
        <ele>122.059238</ele>
        <time>2023-01-05T13:36:17.956Z</time>
      </trkpt>
      <trkpt lat="43.18534" lon="2.49832">
        <ele>122.222454</ele>
        <time>2023-01-05T13:36:19.942Z</time>
      </trkpt>
      <trkpt lat="43.18532" lon="2.49851">
        <ele>122.392405</ele>
        <time>2023-01-05T13:36:21.951Z</time>
      </trkpt>
      <trkpt lat="43.18531" lon="2.4987">
        <ele>122.5609</ele>
        <time>2023-01-05T13:36:23.949Z</time>
      </trkpt>
      <trkpt lat="43.1853" lon="2.49889">
        <ele>122.736086</ele>
        <time>2023-01-05T13:36:25.946Z</time>
      </trkpt>
      <trkpt lat="43.18529" lon="2.49908">
        <ele>122.909484</ele>
        <time>2023-01-05T13:36:27.945Z</time>
      </trkpt>
      <trkpt lat="43.18528" lon="2.49927">
        <ele>123.079687</ele>
        <time>2023-01-05T13:36:29.949Z</time>
      </trkpt>
      <trkpt lat="43.18526" lon="2.49946">
        <ele>123.247407</ele>
        <time>2023-01-05T13:36:31.953Z</time>
      </trkpt>
      <trkpt lat="43.18523" lon="2.49963">
        <ele>123.407657</ele>
        <time>2023-01-05T13:36:33.930Z</time>
      </trkpt>
      <trkpt lat="43.18521" lon="2.49981">
        <ele>123.57039</ele>
        <time>2023-01-05T13:36:35.935Z</time>
      </trkpt>
      <trkpt lat="43.18519" lon="2.49999">
        <ele>123.703234</ele>
        <time>2023-01-05T13:36:37.943Z</time>
      </trkpt>
      <trkpt lat="43.18518" lon="2.50016">
        <ele>123.747383</ele>
        <time>2023-01-05T13:36:39.950Z</time>
      </trkpt>
      <trkpt lat="43.18517" lon="2.50034">
        <ele>123.792909</ele>
        <time>2023-01-05T13:36:41.938Z</time>
      </trkpt>
      <trkpt lat="43.18515" lon="2.50051">
        <ele>123.838137</ele>
        <time>2023-01-05T13:36:43.945Z</time>
      </trkpt>
      <trkpt lat="43.18514" lon="2.50068">
        <ele>123.882041</ele>
        <time>2023-01-05T13:36:45.951Z</time>
      </trkpt>
      <trkpt lat="43.18512" lon="2.50086">
        <ele>123.927567</ele>
        <time>2023-01-05T13:36:47.946Z</time>
      </trkpt>
      <trkpt lat="43.18511" lon="2.50103">
        <ele>123.972837</ele>
        <time>2023-01-05T13:36:49.949Z</time>
      </trkpt>
      <trkpt lat="43.1851" lon="2.5012">
        <ele>124.016503</ele>
        <time>2023-01-05T13:36:51.959Z</time>
      </trkpt>
      <trkpt lat="43.18509" lon="2.50136">
        <ele>124.058267</ele>
        <time>2023-01-05T13:36:53.958Z</time>
      </trkpt>
      <trkpt lat="43.18509" lon="2.50153">
        <ele>124.101268</ele>
        <time>2023-01-05T13:36:55.937Z</time>
      </trkpt>
      <trkpt lat="43.18509" lon="2.50169">
        <ele>124.142716</ele>
        <time>2023-01-05T13:36:57.945Z</time>
      </trkpt>
      <trkpt lat="43.1851" lon="2.50186">
        <ele>124.185646</ele>
        <time>2023-01-05T13:36:59.928Z</time>
      </trkpt>
      <trkpt lat="43.18512" lon="2.50203">
        <ele>124.228949</ele>
        <time>2023-01-05T13:37:01.929Z</time>
      </trkpt>
      <trkpt lat="43.18513" lon="2.5022">
        <ele>124.273488</ele>
        <time>2023-01-05T13:37:03.952Z</time>
      </trkpt>
      <trkpt lat="43.18515" lon="2.50237">
        <ele>124.317804</ele>
        <time>2023-01-05T13:37:05.960Z</time>
      </trkpt>
      <trkpt lat="43.18517" lon="2.50254">
        <ele>124.249513</ele>
        <time>2023-01-05T13:37:07.963Z</time>
      </trkpt>
      <trkpt lat="43.18519" lon="2.50272">
        <ele>124.157466</ele>
        <time>2023-01-05T13:37:09.953Z</time>
      </trkpt>
      <trkpt lat="43.1852" lon="2.5029">
        <ele>124.06857</ele>
        <time>2023-01-05T13:37:11.952Z</time>
      </trkpt>
      <trkpt lat="43.1852" lon="2.50307">
        <ele>123.980441</ele>
        <time>2023-01-05T13:37:13.949Z</time>
      </trkpt>
      <trkpt lat="43.18518" lon="2.50323">
        <ele>123.899889</ele>
        <time>2023-01-05T13:37:15.930Z</time>
      </trkpt>
      <trkpt lat="43.18522" lon="2.50338">
        <ele>123.822733</ele>
        <time>2023-01-05T13:37:17.931Z</time>
      </trkpt>
      <trkpt lat="43.1853" lon="2.50349">
        <ele>123.742119</ele>
        <time>2023-01-05T13:37:19.934Z</time>
      </trkpt>
      <trkpt lat="43.1854" lon="2.50357">
        <ele>123.659064</ele>
        <time>2023-01-05T13:37:21.932Z</time>
      </trkpt>
      <trkpt lat="43.18549" lon="2.50367">
        <ele>123.577039</ele>
        <time>2023-01-05T13:37:23.931Z</time>
      </trkpt>
      <trkpt lat="43.18556" lon="2.50381">
        <ele>123.495164</ele>
        <time>2023-01-05T13:37:25.940Z</time>
      </trkpt>
      <trkpt lat="43.18562" lon="2.50396">
        <ele>123.407688</ele>
        <time>2023-01-05T13:37:27.932Z</time>
      </trkpt>
      <trkpt lat="43.18568" lon="2.50412">
        <ele>123.315896</ele>
        <time>2023-01-05T13:37:29.930Z</time>
      </trkpt>
      <trkpt lat="43.18574" lon="2.50428">
        <ele>123.224071</ele>
        <time>2023-01-05T13:37:31.950Z</time>
      </trkpt>
      <trkpt lat="43.18579" lon="2.50445">
        <ele>123.133173</ele>
        <time>2023-01-05T13:37:33.950Z</time>
      </trkpt>
      <trkpt lat="43.18585" lon="2.50462">
        <ele>123.075303</ele>
        <time>2023-01-05T13:37:35.959Z</time>
      </trkpt>
      <trkpt lat="43.1859" lon="2.50479">
        <ele>123.072179</ele>
        <time>2023-01-05T13:37:37.952Z</time>
      </trkpt>
      <trkpt lat="43.18596" lon="2.50496">
        <ele>123.068918</ele>
        <time>2023-01-05T13:37:39.947Z</time>
      </trkpt>
      <trkpt lat="43.18601" lon="2.50514">
        <ele>123.065654</ele>
        <time>2023-01-05T13:37:41.946Z</time>
      </trkpt>
      <trkpt lat="43.18606" lon="2.50532">
        <ele>123.062417</ele>
        <time>2023-01-05T13:37:43.963Z</time>
      </trkpt>
      <trkpt lat="43.18612" lon="2.50549">
        <ele>123.059144</ele>
        <time>2023-01-05T13:37:45.951Z</time>
      </trkpt>
      <trkpt lat="43.18618" lon="2.50567">
        <ele>123.055889</ele>
        <time>2023-01-05T13:37:47.952Z</time>
      </trkpt>
      <trkpt lat="43.18623" lon="2.50584">
        <ele>123.052696</ele>
        <time>2023-01-05T13:37:49.950Z</time>
      </trkpt>
      <trkpt lat="43.18629" lon="2.50601">
        <ele>123.049532</ele>
        <time>2023-01-05T13:37:51.962Z</time>
      </trkpt>
      <trkpt lat="43.18634" lon="2.50618">
        <ele>123.046449</ele>
        <time>2023-01-05T13:37:53.944Z</time>
      </trkpt>
      <trkpt lat="43.1864" lon="2.50634">
        <ele>123.043371</ele>
        <time>2023-01-05T13:37:55.947Z</time>
      </trkpt>
      <trkpt lat="43.18645" lon="2.50651">
        <ele>123.040232</ele>
        <time>2023-01-05T13:37:57.954Z</time>
      </trkpt>
      <trkpt lat="43.18651" lon="2.50668">
        <ele>123.037068</ele>
        <time>2023-01-05T13:37:59.955Z</time>
      </trkpt>
      <trkpt lat="43.18657" lon="2.50684">
        <ele>123.006401</ele>
        <time>2023-01-05T13:38:01.936Z</time>
      </trkpt>
      <trkpt lat="43.18663" lon="2.50701">
        <ele>122.885186</ele>
        <time>2023-01-05T13:38:03.959Z</time>
      </trkpt>
      <trkpt lat="43.18668" lon="2.50717">
        <ele>122.767316</ele>
        <time>2023-01-05T13:38:05.948Z</time>
      </trkpt>
      <trkpt lat="43.18673" lon="2.50733">
        <ele>122.651533</ele>
        <time>2023-01-05T13:38:07.955Z</time>
      </trkpt>
      <trkpt lat="43.18678" lon="2.50749">
        <ele>122.539034</ele>
        <time>2023-01-05T13:38:09.953Z</time>
      </trkpt>
      <trkpt lat="43.18682" lon="2.50765">
        <ele>122.428042</ele>
        <time>2023-01-05T13:38:11.958Z</time>
      </trkpt>
      <trkpt lat="43.18687" lon="2.5078">
        <ele>122.31705</ele>
        <time>2023-01-05T13:38:13.947Z</time>
      </trkpt>
      <trkpt lat="43.18691" lon="2.50796">
        <ele>122.203023</ele>
        <time>2023-01-05T13:38:15.950Z</time>
      </trkpt>
      <trkpt lat="43.18695" lon="2.50813">
        <ele>122.089293</ele>
        <time>2023-01-05T13:38:17.947Z</time>
      </trkpt>
      <trkpt lat="43.187" lon="2.50829">
        <ele>121.97216</ele>
        <time>2023-01-05T13:38:19.963Z</time>
      </trkpt>
      <trkpt lat="43.18705" lon="2.50846">
        <ele>121.852557</ele>
        <time>2023-01-05T13:38:21.947Z</time>
      </trkpt>
      <trkpt lat="43.18709" lon="2.50864">
        <ele>121.730161</ele>
        <time>2023-01-05T13:38:23.950Z</time>
      </trkpt>
      <trkpt lat="43.18713" lon="2.50882">
        <ele>121.607036</ele>
        <time>2023-01-05T13:38:25.948Z</time>
      </trkpt>
      <trkpt lat="43.18717" lon="2.509">
        <ele>121.482022</ele>
        <time>2023-01-05T13:38:27.961Z</time>
      </trkpt>
      <trkpt lat="43.18721" lon="2.50918">
        <ele>121.42219</ele>
        <time>2023-01-05T13:38:29.945Z</time>
      </trkpt>
      <trkpt lat="43.18725" lon="2.50937">
        <ele>121.459047</ele>
        <time>2023-01-05T13:38:31.960Z</time>
      </trkpt>
      <trkpt lat="43.18728" lon="2.50956">
        <ele>121.494885</ele>
        <time>2023-01-05T13:38:33.948Z</time>
      </trkpt>
      <trkpt lat="43.18731" lon="2.50975">
        <ele>121.5313</ele>
        <time>2023-01-05T13:38:35.948Z</time>
      </trkpt>
      <trkpt lat="43.18735" lon="2.50995">
        <ele>121.568375</ele>
        <time>2023-01-05T13:38:37.952Z</time>
      </trkpt>
      <trkpt lat="43.18738" lon="2.51013">
        <ele>121.603706</ele>
        <time>2023-01-05T13:38:39.956Z</time>
      </trkpt>
      <trkpt lat="43.18741" lon="2.51032">
        <ele>121.639466</ele>
        <time>2023-01-05T13:38:41.937Z</time>
      </trkpt>
      <trkpt lat="43.18743" lon="2.51051">
        <ele>121.67603</ele>
        <time>2023-01-05T13:38:43.942Z</time>
      </trkpt>
      <trkpt lat="43.18745" lon="2.5107">
        <ele>121.711556</ele>
        <time>2023-01-05T13:38:45.949Z</time>
      </trkpt>
      <trkpt lat="43.18748" lon="2.5109">
        <ele>121.748486</ele>
        <time>2023-01-05T13:38:47.955Z</time>
      </trkpt>
      <trkpt lat="43.1875" lon="2.51109">
        <ele>121.784342</ele>
        <time>2023-01-05T13:38:49.953Z</time>
      </trkpt>
      <trkpt lat="43.18752" lon="2.51128">
        <ele>121.820933</ele>
        <time>2023-01-05T13:38:51.949Z</time>
      </trkpt>
      <trkpt lat="43.18755" lon="2.51149">
        <ele>121.859107</ele>
        <time>2023-01-05T13:38:53.950Z</time>
      </trkpt>
      <trkpt lat="43.18756" lon="2.51169">
        <ele>121.882191</ele>
        <time>2023-01-05T13:38:55.953Z</time>
      </trkpt>
      <trkpt lat="43.18757" lon="2.51189">
        <ele>121.901769</ele>
        <time>2023-01-05T13:38:57.946Z</time>
      </trkpt>
      <trkpt lat="43.18758" lon="2.51209">
        <ele>121.921332</ele>
        <time>2023-01-05T13:38:59.962Z</time>
      </trkpt>
      <trkpt lat="43.18759" lon="2.51229">
        <ele>121.94062</ele>
        <time>2023-01-05T13:39:01.959Z</time>
      </trkpt>
      <trkpt lat="43.18759" lon="2.51249">
        <ele>121.959765</ele>
        <time>2023-01-05T13:39:03.961Z</time>
      </trkpt>
      <trkpt lat="43.18759" lon="2.51268">
        <ele>121.978813</ele>
        <time>2023-01-05T13:39:05.952Z</time>
      </trkpt>
      <trkpt lat="43.18759" lon="2.51287">
        <ele>121.997571</ele>
        <time>2023-01-05T13:39:07.962Z</time>
      </trkpt>
      <trkpt lat="43.18759" lon="2.51308">
        <ele>122.017202</ele>
        <time>2023-01-05T13:39:09.950Z</time>
      </trkpt>
      <trkpt lat="43.18758" lon="2.51328">
        <ele>122.037225</ele>
        <time>2023-01-05T13:39:11.938Z</time>
      </trkpt>
      <trkpt lat="43.18758" lon="2.51348">
        <ele>122.05649</ele>
        <time>2023-01-05T13:39:13.949Z</time>
      </trkpt>
      <trkpt lat="43.18756" lon="2.51367">
        <ele>122.075423</ele>
        <time>2023-01-05T13:39:15.947Z</time>
      </trkpt>
      <trkpt lat="43.18755" lon="2.51388">
        <ele>122.095022</ele>
        <time>2023-01-05T13:39:17.961Z</time>
      </trkpt>
      <trkpt lat="43.18753" lon="2.51407">
        <ele>122.118348</ele>
        <time>2023-01-05T13:39:19.948Z</time>
      </trkpt>
      <trkpt lat="43.18752" lon="2.51427">
        <ele>122.145985</ele>
        <time>2023-01-05T13:39:21.958Z</time>
      </trkpt>
      <trkpt lat="43.1875" lon="2.51446">
        <ele>122.172853</ele>
        <time>2023-01-05T13:39:23.959Z</time>
      </trkpt>
      <trkpt lat="43.18748" lon="2.51465">
        <ele>122.199894</ele>
        <time>2023-01-05T13:39:25.948Z</time>
      </trkpt>
      <trkpt lat="43.18746" lon="2.51484">
        <ele>122.226576</ele>
        <time>2023-01-05T13:39:27.947Z</time>
      </trkpt>
      <trkpt lat="43.18744" lon="2.51501">
        <ele>122.251249</ele>
        <time>2023-01-05T13:39:29.951Z</time>
      </trkpt>
      <trkpt lat="43.18742" lon="2.51518">
        <ele>122.2752</ele>
        <time>2023-01-05T13:39:31.948Z</time>
      </trkpt>
      <trkpt lat="43.1874" lon="2.51536">
        <ele>122.300245</ele>
        <time>2023-01-05T13:39:33.960Z</time>
      </trkpt>
      <trkpt lat="43.18737" lon="2.51553">
        <ele>122.324917</ele>
        <time>2023-01-05T13:39:35.951Z</time>
      </trkpt>
      <trkpt lat="43.18734" lon="2.5157">
        <ele>122.349674</ele>
        <time>2023-01-05T13:39:37.928Z</time>
      </trkpt>
      <trkpt lat="43.18732" lon="2.51587">
        <ele>122.373895</ele>
        <time>2023-01-05T13:39:39.956Z</time>
      </trkpt>
      <trkpt lat="43.18729" lon="2.51605">
        <ele>122.399941</ele>
        <time>2023-01-05T13:39:41.959Z</time>
      </trkpt>
      <trkpt lat="43.18726" lon="2.51623">
        <ele>122.425468</ele>
        <time>2023-01-05T13:39:43.932Z</time>
      </trkpt>
      <trkpt lat="43.18723" lon="2.5164">
        <ele>122.450635</ele>
        <time>2023-01-05T13:39:45.949Z</time>
      </trkpt>
      <trkpt lat="43.1872" lon="2.51658">
        <ele>122.541655</ele>
        <time>2023-01-05T13:39:47.950Z</time>
      </trkpt>
      <trkpt lat="43.18717" lon="2.51676">
        <ele>122.634444</ele>
        <time>2023-01-05T13:39:49.954Z</time>
      </trkpt>
      <trkpt lat="43.18714" lon="2.51693">
        <ele>122.724942</ele>
        <time>2023-01-05T13:39:51.948Z</time>
      </trkpt>
      <trkpt lat="43.18711" lon="2.5171">
        <ele>122.815729</ele>
        <time>2023-01-05T13:39:53.955Z</time>
      </trkpt>
      <trkpt lat="43.18708" lon="2.51728">
        <ele>122.906172</ele>
        <time>2023-01-05T13:39:55.950Z</time>
      </trkpt>
      <trkpt lat="43.18704" lon="2.51743">
        <ele>122.992115</ele>
        <time>2023-01-05T13:39:57.943Z</time>
      </trkpt>
      <trkpt lat="43.187" lon="2.51758">
        <ele>123.07036</ele>
        <time>2023-01-05T13:39:59.962Z</time>
      </trkpt>
      <trkpt lat="43.18696" lon="2.51772">
        <ele>123.147653</ele>
        <time>2023-01-05T13:40:01.947Z</time>
      </trkpt>
      <trkpt lat="43.18692" lon="2.51785">
        <ele>123.219671</ele>
        <time>2023-01-05T13:40:03.931Z</time>
      </trkpt>
      <trkpt lat="43.18687" lon="2.51797">
        <ele>123.291186</ele>
        <time>2023-01-05T13:40:05.945Z</time>
      </trkpt>
      <trkpt lat="43.18681" lon="2.51808">
        <ele>123.359918</ele>
        <time>2023-01-05T13:40:07.945Z</time>
      </trkpt>
      <trkpt lat="43.18674" lon="2.51815">
        <ele>123.4237</ele>
        <time>2023-01-05T13:40:09.933Z</time>
      </trkpt>
      <trkpt lat="43.18666" lon="2.51822">
        <ele>123.491245</ele>
        <time>2023-01-05T13:40:11.931Z</time>
      </trkpt>
      <trkpt lat="43.1866" lon="2.51833">
        <ele>123.558315</ele>
        <time>2023-01-05T13:40:13.939Z</time>
      </trkpt>
      <trkpt lat="43.18656" lon="2.51845">
        <ele>123.626673</ele>
        <time>2023-01-05T13:40:15.938Z</time>
      </trkpt>
      <trkpt lat="43.18655" lon="2.51858">
        <ele>123.692824</ele>
        <time>2023-01-05T13:40:17.932Z</time>
      </trkpt>
      <trkpt lat="43.18654" lon="2.51872">
        <ele>123.66926</ele>
        <time>2023-01-05T13:40:19.938Z</time>
      </trkpt>
      <trkpt lat="43.18657" lon="2.51885">
        <ele>123.604636</ele>
        <time>2023-01-05T13:40:21.940Z</time>
      </trkpt>
      <trkpt lat="43.18661" lon="2.51896">
        <ele>123.544441</ele>
        <time>2023-01-05T13:40:23.937Z</time>
      </trkpt>
      <trkpt lat="43.18665" lon="2.51909">
        <ele>123.478927</ele>
        <time>2023-01-05T13:40:25.951Z</time>
      </trkpt>
      <trkpt lat="43.18665" lon="2.51922">
        <ele>123.413992</ele>
        <time>2023-01-05T13:40:27.936Z</time>
      </trkpt>
      <trkpt lat="43.18663" lon="2.51935">
        <ele>123.348604</ele>
        <time>2023-01-05T13:40:29.937Z</time>
      </trkpt>
      <trkpt lat="43.1866" lon="2.5195">
        <ele>123.275754</ele>
        <time>2023-01-05T13:40:31.950Z</time>
      </trkpt>
      <trkpt lat="43.18657" lon="2.51966">
        <ele>123.197776</ele>
        <time>2023-01-05T13:40:33.952Z</time>
      </trkpt>
      <trkpt lat="43.18654" lon="2.51982">
        <ele>123.12064</ele>
        <time>2023-01-05T13:40:35.948Z</time>
      </trkpt>
      <trkpt lat="43.1865" lon="2.51996">
        <ele>123.046634</ele>
        <time>2023-01-05T13:40:37.961Z</time>
      </trkpt>
      <trkpt lat="43.18648" lon="2.52011">
        <ele>122.974445</ele>
        <time>2023-01-05T13:40:39.946Z</time>
      </trkpt>
      <trkpt lat="43.18644" lon="2.52025">
        <ele>122.90136</ele>
        <time>2023-01-05T13:40:41.930Z</time>
      </trkpt>
      <trkpt lat="43.1864" lon="2.5204">
        <ele>122.827354</ele>
        <time>2023-01-05T13:40:43.949Z</time>
      </trkpt>
      <trkpt lat="43.18637" lon="2.52054">
        <ele>122.754269</ele>
        <time>2023-01-05T13:40:45.952Z</time>
      </trkpt>
      <trkpt lat="43.18634" lon="2.5207">
        <ele>122.676975</ele>
        <time>2023-01-05T13:40:47.956Z</time>
      </trkpt>
      <trkpt lat="43.18631" lon="2.52086">
        <ele>122.599809</ele>
        <time>2023-01-05T13:40:49.954Z</time>
      </trkpt>
      <trkpt lat="43.18628" lon="2.52103">
        <ele>122.51667</ele>
        <time>2023-01-05T13:40:51.951Z</time>
      </trkpt>
      <trkpt lat="43.18625" lon="2.52119">
        <ele>122.439232</ele>
        <time>2023-01-05T13:40:53.944Z</time>
      </trkpt>
      <trkpt lat="43.18623" lon="2.52135">
        <ele>122.362986</ele>
        <time>2023-01-05T13:40:55.954Z</time>
      </trkpt>
      <trkpt lat="43.18621" lon="2.52152">
        <ele>122.28508</ele>
        <time>2023-01-05T13:40:57.946Z</time>
      </trkpt>
      <trkpt lat="43.18618" lon="2.52167">
        <ele>122.210379</ele>
        <time>2023-01-05T13:40:59.946Z</time>
      </trkpt>
      <trkpt lat="43.18616" lon="2.52184">
        <ele>122.130745</ele>
        <time>2023-01-05T13:41:01.948Z</time>
      </trkpt>
      <trkpt lat="43.18615" lon="2.522">
        <ele>122.056921</ele>
        <time>2023-01-05T13:41:03.954Z</time>
      </trkpt>
      <trkpt lat="43.18614" lon="2.52217">
        <ele>121.980318</ele>
        <time>2023-01-05T13:41:05.947Z</time>
      </trkpt>
      <trkpt lat="43.18614" lon="2.52234">
        <ele>121.900225</ele>
        <time>2023-01-05T13:41:07.931Z</time>
      </trkpt>
      <trkpt lat="43.18614" lon="2.5225">
        <ele>121.822547</ele>
        <time>2023-01-05T13:41:09.952Z</time>
      </trkpt>
      <trkpt lat="43.18614" lon="2.52268">
        <ele>121.741575</ele>
        <time>2023-01-05T13:41:11.953Z</time>
      </trkpt>
      <trkpt lat="43.18614" lon="2.52286">
        <ele>121.658773</ele>
        <time>2023-01-05T13:41:13.956Z</time>
      </trkpt>
      <trkpt lat="43.18615" lon="2.52304">
        <ele>121.575476</ele>
        <time>2023-01-05T13:41:15.954Z</time>
      </trkpt>
      <trkpt lat="43.18615" lon="2.52321">
        <ele>121.493592</ele>
        <time>2023-01-05T13:41:17.948Z</time>
      </trkpt>
      <trkpt lat="43.18616" lon="2.52339">
        <ele>121.410247</ele>
        <time>2023-01-05T13:41:19.933Z</time>
      </trkpt>
      <trkpt lat="43.18616" lon="2.52357">
        <ele>121.36551</ele>
        <time>2023-01-05T13:41:21.939Z</time>
      </trkpt>
      <trkpt lat="43.18617" lon="2.52375">
        <ele>121.331379</ele>
        <time>2023-01-05T13:41:23.946Z</time>
      </trkpt>
      <trkpt lat="43.18618" lon="2.52393">
        <ele>121.296828</ele>
        <time>2023-01-05T13:41:25.935Z</time>
      </trkpt>
      <trkpt lat="43.18618" lon="2.52411">
        <ele>121.262347</ele>
        <time>2023-01-05T13:41:27.959Z</time>
      </trkpt>
      <trkpt lat="43.18619" lon="2.5243">
        <ele>121.227232</ele>
        <time>2023-01-05T13:41:29.957Z</time>
      </trkpt>
      <trkpt lat="43.18619" lon="2.52448">
        <ele>121.193477</ele>
        <time>2023-01-05T13:41:31.957Z</time>
      </trkpt>
      <trkpt lat="43.18621" lon="2.52466">
        <ele>121.159616</ele>
        <time>2023-01-05T13:41:33.951Z</time>
      </trkpt>
      <trkpt lat="43.18621" lon="2.52484">
        <ele>121.124955</ele>
        <time>2023-01-05T13:41:35.944Z</time>
      </trkpt>
      <trkpt lat="43.18621" lon="2.52502">
        <ele>121.090482</ele>
        <time>2023-01-05T13:41:37.950Z</time>
      </trkpt>
      <trkpt lat="43.18621" lon="2.5252">
        <ele>121.056549</ele>
        <time>2023-01-05T13:41:39.957Z</time>
      </trkpt>
      <trkpt lat="43.18622" lon="2.52539">
        <ele>121.021666</ele>
        <time>2023-01-05T13:41:41.960Z</time>
      </trkpt>
      <trkpt lat="43.18623" lon="2.52557">
        <ele>120.987146</ele>
        <time>2023-01-05T13:41:43.952Z</time>
      </trkpt>
      <trkpt lat="43.18623" lon="2.52575">
        <ele>120.953976</ele>
        <time>2023-01-05T13:41:45.958Z</time>
      </trkpt>
      <trkpt lat="43.18623" lon="2.52592">
        <ele>120.920233</ele>
        <time>2023-01-05T13:41:47.960Z</time>
      </trkpt>
      <trkpt lat="43.18624" lon="2.52609">
        <ele>120.876423</ele>
        <time>2023-01-05T13:41:49.951Z</time>
      </trkpt>
      <trkpt lat="43.18625" lon="2.52626">
        <ele>120.833879</ele>
        <time>2023-01-05T13:41:51.948Z</time>
      </trkpt>
      <trkpt lat="43.18625" lon="2.52642">
        <ele>120.791703</ele>
        <time>2023-01-05T13:41:53.951Z</time>
      </trkpt>
      <trkpt lat="43.18625" lon="2.52659">
        <ele>120.750037</ele>
        <time>2023-01-05T13:41:55.948Z</time>
      </trkpt>
      <trkpt lat="43.18625" lon="2.52675">
        <ele>120.708358</ele>
        <time>2023-01-05T13:41:57.949Z</time>
      </trkpt>
      <trkpt lat="43.18626" lon="2.52692">
        <ele>120.665331</ele>
        <time>2023-01-05T13:41:59.955Z</time>
      </trkpt>
      <trkpt lat="43.18626" lon="2.52709">
        <ele>120.62289</ele>
        <time>2023-01-05T13:42:01.949Z</time>
      </trkpt>
      <trkpt lat="43.18627" lon="2.52725">
        <ele>120.581153</ele>
        <time>2023-01-05T13:42:03.952Z</time>
      </trkpt>
      <trkpt lat="43.18627" lon="2.5274">
        <ele>120.54253</ele>
        <time>2023-01-05T13:42:05.956Z</time>
      </trkpt>
      <trkpt lat="43.18628" lon="2.52756">
        <ele>120.503835</ele>
        <time>2023-01-05T13:42:07.951Z</time>
      </trkpt>
      <trkpt lat="43.18628" lon="2.5277">
        <ele>120.466916</ele>
        <time>2023-01-05T13:42:09.949Z</time>
      </trkpt>
      <trkpt lat="43.18629" lon="2.52785">
        <ele>120.43029</ele>
        <time>2023-01-05T13:42:11.949Z</time>
      </trkpt>
      <trkpt lat="43.18629" lon="2.52799">
        <ele>120.393932</ele>
        <time>2023-01-05T13:42:13.949Z</time>
      </trkpt>
      <trkpt lat="43.1863" lon="2.52813">
        <ele>120.358083</ele>
        <time>2023-01-05T13:42:15.956Z</time>
      </trkpt>
      <trkpt lat="43.1863" lon="2.52827">
        <ele>120.32175</ele>
        <time>2023-01-05T13:42:17.950Z</time>
      </trkpt>
      <trkpt lat="43.1863" lon="2.52842">
        <ele>120.302013</ele>
        <time>2023-01-05T13:42:19.948Z</time>
      </trkpt>
      <trkpt lat="43.1863" lon="2.52857">
        <ele>120.308307</ele>
        <time>2023-01-05T13:42:21.960Z</time>
      </trkpt>
      <trkpt lat="43.18631" lon="2.52872">
        <ele>120.314516</ele>
        <time>2023-01-05T13:42:23.950Z</time>
      </trkpt>
      <trkpt lat="43.18631" lon="2.52887">
        <ele>120.321152</ele>
        <time>2023-01-05T13:42:25.959Z</time>
      </trkpt>
      <trkpt lat="43.18631" lon="2.52903">
        <ele>120.327746</ele>
        <time>2023-01-05T13:42:27.953Z</time>
      </trkpt>
      <trkpt lat="43.18632" lon="2.52919">
        <ele>120.33456</ele>
        <time>2023-01-05T13:42:29.954Z</time>
      </trkpt>
      <trkpt lat="43.18633" lon="2.52934">
        <ele>120.341199</ele>
        <time>2023-01-05T13:42:31.948Z</time>
      </trkpt>
      <trkpt lat="43.18633" lon="2.5295">
        <ele>120.347959</ele>
        <time>2023-01-05T13:42:33.937Z</time>
      </trkpt>
      <trkpt lat="43.18633" lon="2.52967">
        <ele>120.355198</ele>
        <time>2023-01-05T13:42:35.952Z</time>
      </trkpt>
      <trkpt lat="43.18634" lon="2.52984">
        <ele>120.362307</ele>
        <time>2023-01-05T13:42:37.949Z</time>
      </trkpt>
      <trkpt lat="43.18634" lon="2.53001">
        <ele>120.369452</ele>
        <time>2023-01-05T13:42:39.953Z</time>
      </trkpt>
      <trkpt lat="43.18635" lon="2.53017">
        <ele>120.376274</ele>
        <time>2023-01-05T13:42:41.928Z</time>
      </trkpt>
      <trkpt lat="43.18636" lon="2.53032">
        <ele>120.382913</ele>
        <time>2023-01-05T13:42:43.953Z</time>
      </trkpt>
      <trkpt lat="43.18636" lon="2.53047">
        <ele>120.38912</ele>
        <time>2023-01-05T13:42:45.954Z</time>
      </trkpt>
      <trkpt lat="43.18637" lon="2.5306">
        <ele>120.394884</ele>
        <time>2023-01-05T13:42:47.949Z</time>
      </trkpt>
      <trkpt lat="43.18637" lon="2.53074">
        <ele>120.40067</ele>
        <time>2023-01-05T13:42:49.943Z</time>
      </trkpt>
      <trkpt lat="43.18637" lon="2.53088">
        <ele>120.423172</ele>
        <time>2023-01-05T13:42:51.938Z</time>
      </trkpt>
      <trkpt lat="43.18637" lon="2.53102">
        <ele>120.471872</ele>
        <time>2023-01-05T13:42:53.934Z</time>
      </trkpt>
      <trkpt lat="43.18638" lon="2.53117">
        <ele>120.521871</ele>
        <time>2023-01-05T13:42:55.952Z</time>
      </trkpt>
      <trkpt lat="43.18638" lon="2.53132">
        <ele>120.571246</ele>
        <time>2023-01-05T13:42:57.957Z</time>
      </trkpt>
      <trkpt lat="43.18638" lon="2.53147">
        <ele>120.623626</ele>
        <time>2023-01-05T13:42:59.956Z</time>
      </trkpt>
      <trkpt lat="43.18639" lon="2.53163">
        <ele>120.676358</ele>
        <time>2023-01-05T13:43:01.959Z</time>
      </trkpt>
      <trkpt lat="43.1864" lon="2.53179">
        <ele>120.729221</ele>
        <time>2023-01-05T13:43:03.956Z</time>
      </trkpt>
      <trkpt lat="43.1864" lon="2.53195">
        <ele>120.785653</ele>
        <time>2023-01-05T13:43:05.946Z</time>
      </trkpt>
      <trkpt lat="43.18641" lon="2.53212">
        <ele>120.842527</ele>
        <time>2023-01-05T13:43:07.953Z</time>
      </trkpt>
      <trkpt lat="43.18641" lon="2.53229">
        <ele>120.901035</ele>
        <time>2023-01-05T13:43:09.947Z</time>
      </trkpt>
      <trkpt lat="43.18641" lon="2.53247">
        <ele>120.959141</ele>
        <time>2023-01-05T13:43:11.958Z</time>
      </trkpt>
      <trkpt lat="43.18642" lon="2.53264">
        <ele>121.017336</ele>
        <time>2023-01-05T13:43:13.950Z</time>
      </trkpt>
      <trkpt lat="43.18643" lon="2.53281">
        <ele>121.075506</ele>
        <time>2023-01-05T13:43:15.932Z</time>
      </trkpt>
      <trkpt lat="43.18644" lon="2.53298">
        <ele>121.13474</ele>
        <time>2023-01-05T13:43:17.930Z</time>
      </trkpt>
      <trkpt lat="43.18644" lon="2.53316">
        <ele>121.193887</ele>
        <time>2023-01-05T13:43:19.950Z</time>
      </trkpt>
      <trkpt lat="43.18644" lon="2.53333">
        <ele>121.271744</ele>
        <time>2023-01-05T13:43:21.958Z</time>
      </trkpt>
      <trkpt lat="43.18645" lon="2.53351">
        <ele>121.40542</ele>
        <time>2023-01-05T13:43:23.949Z</time>
      </trkpt>
      <trkpt lat="43.18645" lon="2.53368">
        <ele>121.534615</ele>
        <time>2023-01-05T13:43:25.954Z</time>
      </trkpt>
      <trkpt lat="43.18645" lon="2.53383">
        <ele>121.653084</ele>
        <time>2023-01-05T13:43:27.958Z</time>
      </trkpt>
      <trkpt lat="43.18646" lon="2.53398">
        <ele>121.768543</ele>
        <time>2023-01-05T13:43:29.952Z</time>
      </trkpt>
      <trkpt lat="43.18646" lon="2.53415">
        <ele>121.893882</ele>
        <time>2023-01-05T13:43:31.947Z</time>
      </trkpt>
      <trkpt lat="43.18647" lon="2.53431">
        <ele>122.017021</ele>
        <time>2023-01-05T13:43:33.959Z</time>
      </trkpt>
      <trkpt lat="43.18647" lon="2.53447">
        <ele>122.13924</ele>
        <time>2023-01-05T13:43:35.953Z</time>
      </trkpt>
      <trkpt lat="43.18648" lon="2.53463">
        <ele>122.265382</ele>
        <time>2023-01-05T13:43:37.953Z</time>
      </trkpt>
      <trkpt lat="43.18648" lon="2.53481">
        <ele>122.398438</ele>
        <time>2023-01-05T13:43:39.941Z</time>
      </trkpt>
      <trkpt lat="43.1865" lon="2.53499">
        <ele>122.53519</ele>
        <time>2023-01-05T13:43:41.946Z</time>
      </trkpt>
      <trkpt lat="43.18651" lon="2.53516">
        <ele>122.67088</ele>
        <time>2023-01-05T13:43:43.958Z</time>
      </trkpt>
      <trkpt lat="43.18651" lon="2.53534">
        <ele>122.803128</ele>
        <time>2023-01-05T13:43:45.959Z</time>
      </trkpt>
      <trkpt lat="43.18651" lon="2.53551">
        <ele>122.93604</ele>
        <time>2023-01-05T13:43:47.950Z</time>
      </trkpt>
      <trkpt lat="43.18651" lon="2.53568">
        <ele>123.06666</ele>
        <time>2023-01-05T13:43:49.940Z</time>
      </trkpt>
      <trkpt lat="43.18652" lon="2.53585">
        <ele>123.165953</ele>
        <time>2023-01-05T13:43:51.951Z</time>
      </trkpt>
      <trkpt lat="43.18652" lon="2.536">
        <ele>123.239732</ele>
        <time>2023-01-05T13:43:53.951Z</time>
      </trkpt>
      <trkpt lat="43.18652" lon="2.53617">
        <ele>123.315873</ele>
        <time>2023-01-05T13:43:55.947Z</time>
      </trkpt>
      <trkpt lat="43.18652" lon="2.53633">
        <ele>123.391993</ele>
        <time>2023-01-05T13:43:57.961Z</time>
      </trkpt>
      <trkpt lat="43.18652" lon="2.53649">
        <ele>123.469522</ele>
        <time>2023-01-05T13:43:59.952Z</time>
      </trkpt>
      <trkpt lat="43.18653" lon="2.53666">
        <ele>123.546133</ele>
        <time>2023-01-05T13:44:01.934Z</time>
      </trkpt>
      <trkpt lat="43.18653" lon="2.53682">
        <ele>123.622318</ele>
        <time>2023-01-05T13:44:03.961Z</time>
      </trkpt>
      <trkpt lat="43.18654" lon="2.53698">
        <ele>123.700953</ele>
        <time>2023-01-05T13:44:05.961Z</time>
      </trkpt>
      <trkpt lat="43.18654" lon="2.53716">
        <ele>123.78134</ele>
        <time>2023-01-05T13:44:07.945Z</time>
      </trkpt>
      <trkpt lat="43.18655" lon="2.53733">
        <ele>123.864595</ele>
        <time>2023-01-05T13:44:09.957Z</time>
      </trkpt>
      <trkpt lat="43.18655" lon="2.53751">
        <ele>123.947759</ele>
        <time>2023-01-05T13:44:11.925Z</time>
      </trkpt>
      <trkpt lat="43.18655" lon="2.53768">
        <ele>124.028585</ele>
        <time>2023-01-05T13:44:13.945Z</time>
      </trkpt>
      <trkpt lat="43.18655" lon="2.53786">
        <ele>124.111282</ele>
        <time>2023-01-05T13:44:15.946Z</time>
      </trkpt>
      <trkpt lat="43.18656" lon="2.53804">
        <ele>124.195918</ele>
        <time>2023-01-05T13:44:17.950Z</time>
      </trkpt>
      <trkpt lat="43.18657" lon="2.53821">
        <ele>124.278916</ele>
        <time>2023-01-05T13:44:19.949Z</time>
      </trkpt>
      <trkpt lat="43.18658" lon="2.53839">
        <ele>124.371871</ele>
        <time>2023-01-05T13:44:21.952Z</time>
      </trkpt>
      <trkpt lat="43.18658" lon="2.53857">
        <ele>124.467007</ele>
        <time>2023-01-05T13:44:23.957Z</time>
      </trkpt>
      <trkpt lat="43.18659" lon="2.53875">
        <ele>124.56285</ele>
        <time>2023-01-05T13:44:25.949Z</time>
      </trkpt>
      <trkpt lat="43.18659" lon="2.53893">
        <ele>124.659551</ele>
        <time>2023-01-05T13:44:27.952Z</time>
      </trkpt>
      <trkpt lat="43.1866" lon="2.53912">
        <ele>124.758408</ele>
        <time>2023-01-05T13:44:29.949Z</time>
      </trkpt>
      <trkpt lat="43.18661" lon="2.5393">
        <ele>124.853108</ele>
        <time>2023-01-05T13:44:31.930Z</time>
      </trkpt>
      <trkpt lat="43.18661" lon="2.53948">
        <ele>124.94939</ele>
        <time>2023-01-05T13:44:33.951Z</time>
      </trkpt>
      <trkpt lat="43.18662" lon="2.53966">
        <ele>125.045637</ele>
        <time>2023-01-05T13:44:35.956Z</time>
      </trkpt>
      <trkpt lat="43.18663" lon="2.53984">
        <ele>125.139898</ele>
        <time>2023-01-05T13:44:37.941Z</time>
      </trkpt>
      <trkpt lat="43.18663" lon="2.54002">
        <ele>125.236071</ele>
        <time>2023-01-05T13:44:39.958Z</time>
      </trkpt>
      <trkpt lat="43.18664" lon="2.5402">
        <ele>125.327949</ele>
        <time>2023-01-05T13:44:41.928Z</time>
      </trkpt>
      <trkpt lat="43.18666" lon="2.54037">
        <ele>125.421269</ele>
        <time>2023-01-05T13:44:43.960Z</time>
      </trkpt>
      <trkpt lat="43.18667" lon="2.54055">
        <ele>125.515158</ele>
        <time>2023-01-05T13:44:45.949Z</time>
      </trkpt>
      <trkpt lat="43.1867" lon="2.54072">
        <ele>125.544571</ele>
        <time>2023-01-05T13:44:47.957Z</time>
      </trkpt>
      <trkpt lat="43.18673" lon="2.5409">
        <ele>125.398801</ele>
        <time>2023-01-05T13:44:49.944Z</time>
      </trkpt>
      <trkpt lat="43.18676" lon="2.54107">
        <ele>125.255681</ele>
        <time>2023-01-05T13:44:51.959Z</time>
      </trkpt>
      <trkpt lat="43.1868" lon="2.54124">
        <ele>125.108114</ele>
        <time>2023-01-05T13:44:53.951Z</time>
      </trkpt>
      <trkpt lat="43.18684" lon="2.54142">
        <ele>124.956515</ele>
        <time>2023-01-05T13:44:55.947Z</time>
      </trkpt>
      <trkpt lat="43.18688" lon="2.54159">
        <ele>124.80801</ele>
        <time>2023-01-05T13:44:57.967Z</time>
      </trkpt>
      <trkpt lat="43.18693" lon="2.54176">
        <ele>124.65641</ele>
        <time>2023-01-05T13:44:59.953Z</time>
      </trkpt>
      <trkpt lat="43.18697" lon="2.54194">
        <ele>124.505845</ele>
        <time>2023-01-05T13:45:01.941Z</time>
      </trkpt>
      <trkpt lat="43.18701" lon="2.54212">
        <ele>124.355148</ele>
        <time>2023-01-05T13:45:03.931Z</time>
      </trkpt>
      <trkpt lat="43.18704" lon="2.5423">
        <ele>124.203285</ele>
        <time>2023-01-05T13:45:05.950Z</time>
      </trkpt>
      <trkpt lat="43.18707" lon="2.54248">
        <ele>124.048528</ele>
        <time>2023-01-05T13:45:07.949Z</time>
      </trkpt>
      <trkpt lat="43.1871" lon="2.54268">
        <ele>123.886787</ele>
        <time>2023-01-05T13:45:09.931Z</time>
      </trkpt>
      <trkpt lat="43.18713" lon="2.54286">
        <ele>123.729907</ele>
        <time>2023-01-05T13:45:11.946Z</time>
      </trkpt>
      <trkpt lat="43.18715" lon="2.54306">
        <ele>123.568107</ele>
        <time>2023-01-05T13:45:13.929Z</time>
      </trkpt>
      <trkpt lat="43.18717" lon="2.54326">
        <ele>123.506525</ele>
        <time>2023-01-05T13:45:15.939Z</time>
      </trkpt>
      <trkpt lat="43.18719" lon="2.54346">
        <ele>123.444452</ele>
        <time>2023-01-05T13:45:17.958Z</time>
      </trkpt>
      <trkpt lat="43.1872" lon="2.54365">
        <ele>123.38285</ele>
        <time>2023-01-05T13:45:19.951Z</time>
      </trkpt>
      <trkpt lat="43.18722" lon="2.54385">
        <ele>123.321142</ele>
        <time>2023-01-05T13:45:21.958Z</time>
      </trkpt>
      <trkpt lat="43.18724" lon="2.54405">
        <ele>123.258663</ele>
        <time>2023-01-05T13:45:23.941Z</time>
      </trkpt>
      <trkpt lat="43.18725" lon="2.54424">
        <ele>123.198699</ele>
        <time>2023-01-05T13:45:25.956Z</time>
      </trkpt>
      <trkpt lat="43.18727" lon="2.54444">
        <ele>123.135956</ele>
        <time>2023-01-05T13:45:27.949Z</time>
      </trkpt>
      <trkpt lat="43.18729" lon="2.54463">
        <ele>123.078122</ele>
        <time>2023-01-05T13:45:29.965Z</time>
      </trkpt>
      <trkpt lat="43.18731" lon="2.54481">
        <ele>123.021208</ele>
        <time>2023-01-05T13:45:31.957Z</time>
      </trkpt>
      <trkpt lat="43.18732" lon="2.54499">
        <ele>122.96477</ele>
        <time>2023-01-05T13:45:33.953Z</time>
      </trkpt>
      <trkpt lat="43.18734" lon="2.54516">
        <ele>122.911485</ele>
        <time>2023-01-05T13:45:35.967Z</time>
      </trkpt>
      <trkpt lat="43.18736" lon="2.54532">
        <ele>122.860412</ele>
        <time>2023-01-05T13:45:37.958Z</time>
      </trkpt>
      <trkpt lat="43.18738" lon="2.54548">
        <ele>122.810685</ele>
        <time>2023-01-05T13:45:39.952Z</time>
      </trkpt>
      <trkpt lat="43.18739" lon="2.54563">
        <ele>122.730987</ele>
        <time>2023-01-05T13:45:41.949Z</time>
      </trkpt>
      <trkpt lat="43.18739" lon="2.54579">
        <ele>122.646247</ele>
        <time>2023-01-05T13:45:43.948Z</time>
      </trkpt>
      <trkpt lat="43.18741" lon="2.54594">
        <ele>122.562804</ele>
        <time>2023-01-05T13:45:45.959Z</time>
      </trkpt>
      <trkpt lat="43.18742" lon="2.54608">
        <ele>122.479449</ele>
        <time>2023-01-05T13:45:47.932Z</time>
      </trkpt>
      <trkpt lat="43.18743" lon="2.54623">
        <ele>122.400912</ele>
        <time>2023-01-05T13:45:49.952Z</time>
      </trkpt>
      <trkpt lat="43.18743" lon="2.54638">
        <ele>122.316114</ele>
        <time>2023-01-05T13:45:52.959Z</time>
      </trkpt>
      <trkpt lat="43.18745" lon="2.54652">
        <ele>122.234783</ele>
        <time>2023-01-05T13:45:55.957Z</time>
      </trkpt>
      <trkpt lat="43.18745" lon="2.54665">
        <ele>122.164683</ele>
        <time>2023-01-05T13:45:58.949Z</time>
      </trkpt>
      <trkpt lat="43.18746" lon="2.54673">
        <ele>122.118868</ele>
        <time>2023-01-05T13:46:11.035Z</time>
      </trkpt>
      <trkpt lat="43.18747" lon="2.54688">
        <ele>122.03496</ele>
        <time>2023-01-05T13:48:23.941Z</time>
      </trkpt>
      <trkpt lat="43.18748" lon="2.547">
        <ele>121.966142</ele>
        <time>2023-01-05T13:48:27.937Z</time>
      </trkpt>
      <trkpt lat="43.18751" lon="2.54714">
        <ele>121.885914</ele>
        <time>2023-01-05T13:48:30.934Z</time>
      </trkpt>
      <trkpt lat="43.18753" lon="2.54727">
        <ele>121.814493</ele>
        <time>2023-01-05T13:48:33.965Z</time>
      </trkpt>
      <trkpt lat="43.18753" lon="2.5474">
        <ele>121.738127</ele>
        <time>2023-01-05T13:48:36.960Z</time>
      </trkpt>
      <trkpt lat="43.18754" lon="2.54755">
        <ele>121.658247</ele>
        <time>2023-01-05T13:48:39.935Z</time>
      </trkpt>
      <trkpt lat="43.18755" lon="2.5477">
        <ele>121.572128</ele>
        <time>2023-01-05T13:48:42.942Z</time>
      </trkpt>
      <trkpt lat="43.18756" lon="2.54786">
        <ele>121.480732</ele>
        <time>2023-01-05T13:48:45.930Z</time>
      </trkpt>
      <trkpt lat="43.18758" lon="2.54804">
        <ele>121.525419</ele>
        <time>2023-01-05T13:48:48.959Z</time>
      </trkpt>
      <trkpt lat="43.18759" lon="2.54823">
        <ele>121.721906</ele>
        <time>2023-01-05T13:48:51.953Z</time>
      </trkpt>
      <trkpt lat="43.18761" lon="2.54841">
        <ele>121.915125</ele>
        <time>2023-01-05T13:48:54.951Z</time>
      </trkpt>
      <trkpt lat="43.18761" lon="2.54854">
        <ele>122.053354</ele>
        <time>2023-01-05T13:48:56.948Z</time>
      </trkpt>
      <trkpt lat="43.18762" lon="2.54868">
        <ele>122.191338</ele>
        <time>2023-01-05T13:48:58.955Z</time>
      </trkpt>
      <trkpt lat="43.18762" lon="2.54881">
        <ele>122.331321</ele>
        <time>2023-01-05T13:49:00.960Z</time>
      </trkpt>
      <trkpt lat="43.18761" lon="2.54894">
        <ele>122.469551</ele>
        <time>2023-01-05T13:49:02.950Z</time>
      </trkpt>
      <trkpt lat="43.18761" lon="2.54907">
        <ele>122.601274</ele>
        <time>2023-01-05T13:49:04.946Z</time>
      </trkpt>
      <trkpt lat="43.18761" lon="2.5492">
        <ele>122.734969</ele>
        <time>2023-01-05T13:49:06.959Z</time>
      </trkpt>
      <trkpt lat="43.18761" lon="2.54937">
        <ele>122.920927</ele>
        <time>2023-01-05T13:49:09.951Z</time>
      </trkpt>
      <trkpt lat="43.18759" lon="2.54955">
        <ele>123.10361</ele>
        <time>2023-01-05T13:49:12.947Z</time>
      </trkpt>
      <trkpt lat="43.18759" lon="2.5497">
        <ele>123.266768</ele>
        <time>2023-01-05T13:49:15.955Z</time>
      </trkpt>
      <trkpt lat="43.18758" lon="2.54983">
        <ele>123.401568</ele>
        <time>2023-01-05T13:49:18.946Z</time>
      </trkpt>
      <trkpt lat="43.18758" lon="2.54998">
        <ele>123.558292</ele>
        <time>2023-01-05T13:49:22.959Z</time>
      </trkpt>
      <trkpt lat="43.18758" lon="2.55011">
        <ele>123.691979</ele>
        <time>2023-01-05T13:49:25.961Z</time>
      </trkpt>
      <trkpt lat="43.18757" lon="2.55025">
        <ele>123.832526</ele>
        <time>2023-01-05T13:49:28.956Z</time>
      </trkpt>
      <trkpt lat="43.18756" lon="2.55038">
        <ele>123.975152</ele>
        <time>2023-01-05T13:49:31.953Z</time>
      </trkpt>
      <trkpt lat="43.18755" lon="2.55051">
        <ele>124.00634</ele>
        <time>2023-01-05T13:49:34.952Z</time>
      </trkpt>
      <trkpt lat="43.18754" lon="2.55065">
        <ele>124.003759</ele>
        <time>2023-01-05T13:49:38.948Z</time>
      </trkpt>
      <trkpt lat="43.18754" lon="2.55078">
        <ele>124.001408</ele>
        <time>2023-01-05T13:49:41.937Z</time>
      </trkpt>
      <trkpt lat="43.18754" lon="2.55092">
        <ele>123.998911</ele>
        <time>2023-01-05T13:49:44.948Z</time>
      </trkpt>
      <trkpt lat="43.18754" lon="2.55107">
        <ele>123.996233</ele>
        <time>2023-01-05T13:49:47.954Z</time>
      </trkpt>
      <trkpt lat="43.18755" lon="2.5512">
        <ele>123.993706</ele>
        <time>2023-01-05T13:49:50.963Z</time>
      </trkpt>
      <trkpt lat="43.18755" lon="2.55135">
        <ele>123.991083</ele>
        <time>2023-01-05T13:49:53.957Z</time>
      </trkpt>
      <trkpt lat="43.18756" lon="2.5515">
        <ele>123.988329</ele>
        <time>2023-01-05T13:49:56.959Z</time>
      </trkpt>
      <trkpt lat="43.18756" lon="2.55164">
        <ele>123.985685</ele>
        <time>2023-01-05T13:49:59.959Z</time>
      </trkpt>
      <trkpt lat="43.18757" lon="2.55178">
        <ele>123.983096</ele>
        <time>2023-01-05T13:50:02.947Z</time>
      </trkpt>
      <trkpt lat="43.18759" lon="2.55192">
        <ele>123.980663</ele>
        <time>2023-01-05T13:50:05.948Z</time>
      </trkpt>
      <trkpt lat="43.1876" lon="2.55205">
        <ele>123.978146</ele>
        <time>2023-01-05T13:50:08.933Z</time>
      </trkpt>
      <trkpt lat="43.18761" lon="2.5522">
        <ele>123.975417</ele>
        <time>2023-01-05T13:50:11.960Z</time>
      </trkpt>
      <trkpt lat="43.18762" lon="2.55236">
        <ele>123.972617</ele>
        <time>2023-01-05T13:50:14.953Z</time>
      </trkpt>
      <trkpt lat="43.18764" lon="2.55252">
        <ele>123.96965</ele>
        <time>2023-01-05T13:50:17.934Z</time>
      </trkpt>
      <trkpt lat="43.18765" lon="2.55271">
        <ele>123.966169</ele>
        <time>2023-01-05T13:50:20.931Z</time>
      </trkpt>
      <trkpt lat="43.18766" lon="2.55288">
        <ele>123.959245</ele>
        <time>2023-01-05T13:50:23.952Z</time>
      </trkpt>
      <trkpt lat="43.18767" lon="2.55306">
        <ele>123.858546</ele>
        <time>2023-01-05T13:50:26.952Z</time>
      </trkpt>
      <trkpt lat="43.18769" lon="2.55323">
        <ele>123.758315</ele>
        <time>2023-01-05T13:50:29.952Z</time>
      </trkpt>
      <trkpt lat="43.1877" lon="2.5534">
        <ele>123.660872</ele>
        <time>2023-01-05T13:50:32.960Z</time>
      </trkpt>
      <trkpt lat="43.18772" lon="2.55359">
        <ele>123.5572</ele>
        <time>2023-01-05T13:50:35.954Z</time>
      </trkpt>
      <trkpt lat="43.18773" lon="2.55371">
        <ele>123.487923</ele>
        <time>2023-01-05T13:50:37.929Z</time>
      </trkpt>
      <trkpt lat="43.18774" lon="2.55388">
        <ele>123.392013</ele>
        <time>2023-01-05T13:50:40.947Z</time>
      </trkpt>
      <trkpt lat="43.18775" lon="2.55405">
        <ele>123.297847</ele>
        <time>2023-01-05T13:50:43.958Z</time>
      </trkpt>
      <trkpt lat="43.18776" lon="2.55421">
        <ele>123.204306</ele>
        <time>2023-01-05T13:50:46.950Z</time>
      </trkpt>
      <trkpt lat="43.18777" lon="2.5544">
        <ele>123.101176</ele>
        <time>2023-01-05T13:50:49.958Z</time>
      </trkpt>
      <trkpt lat="43.18778" lon="2.55458">
        <ele>122.9955</ele>
        <time>2023-01-05T13:50:52.938Z</time>
      </trkpt>
      <trkpt lat="43.18777" lon="2.55471">
        <ele>122.924587</ele>
        <time>2023-01-05T13:50:54.948Z</time>
      </trkpt>
      <trkpt lat="43.18776" lon="2.55484">
        <ele>122.853074</ele>
        <time>2023-01-05T13:50:56.951Z</time>
      </trkpt>
      <trkpt lat="43.18775" lon="2.55502">
        <ele>122.748138</ele>
        <time>2023-01-05T13:50:59.948Z</time>
      </trkpt>
      <trkpt lat="43.18772" lon="2.55521">
        <ele>122.639471</ele>
        <time>2023-01-05T13:51:02.929Z</time>
      </trkpt>
      <trkpt lat="43.18771" lon="2.55536">
        <ele>122.485786</ele>
        <time>2023-01-05T13:51:04.952Z</time>
      </trkpt>
      <trkpt lat="43.18771" lon="2.55551">
        <ele>122.117794</ele>
        <time>2023-01-05T13:51:06.957Z</time>
      </trkpt>
      <trkpt lat="43.18772" lon="2.55567">
        <ele>121.714296</ele>
        <time>2023-01-05T13:51:08.933Z</time>
      </trkpt>
      <trkpt lat="43.18772" lon="2.55583">
        <ele>121.308146</ele>
        <time>2023-01-05T13:51:10.951Z</time>
      </trkpt>
      <trkpt lat="43.18773" lon="2.55599">
        <ele>120.893634</ele>
        <time>2023-01-05T13:51:12.936Z</time>
      </trkpt>
      <trkpt lat="43.18774" lon="2.55616">
        <ele>120.46215</ele>
        <time>2023-01-05T13:51:14.938Z</time>
      </trkpt>
      <trkpt lat="43.18775" lon="2.55634">
        <ele>120.011277</ele>
        <time>2023-01-05T13:51:16.951Z</time>
      </trkpt>
      <trkpt lat="43.18775" lon="2.55652">
        <ele>119.547527</ele>
        <time>2023-01-05T13:51:18.957Z</time>
      </trkpt>
      <trkpt lat="43.18776" lon="2.5567">
        <ele>119.09842</ele>
        <time>2023-01-05T13:51:20.928Z</time>
      </trkpt>
      <trkpt lat="43.18776" lon="2.55687">
        <ele>118.672475</ele>
        <time>2023-01-05T13:51:22.937Z</time>
      </trkpt>
      <trkpt lat="43.18775" lon="2.55702">
        <ele>118.301915</ele>
        <time>2023-01-05T13:51:24.933Z</time>
      </trkpt>
      <trkpt lat="43.18776" lon="2.55714">
        <ele>117.986697</ele>
        <time>2023-01-05T13:51:26.947Z</time>
      </trkpt>
      <trkpt lat="43.18776" lon="2.55728">
        <ele>117.651468</ele>
        <time>2023-01-05T13:51:28.932Z</time>
      </trkpt>
      <trkpt lat="43.18776" lon="2.55741">
        <ele>117.313666</ele>
        <time>2023-01-05T13:51:30.947Z</time>
      </trkpt>
      <trkpt lat="43.18776" lon="2.55755">
        <ele>116.970877</ele>
        <time>2023-01-05T13:51:32.930Z</time>
      </trkpt>
      <trkpt lat="43.18776" lon="2.55769">
        <ele>116.595277</ele>
        <time>2023-01-05T13:51:34.948Z</time>
      </trkpt>
      <trkpt lat="43.18777" lon="2.55784">
        <ele>116.349817</ele>
        <time>2023-01-05T13:51:36.942Z</time>
      </trkpt>
      <trkpt lat="43.18777" lon="2.55799">
        <ele>116.32409</ele>
        <time>2023-01-05T13:51:38.935Z</time>
      </trkpt>
      <trkpt lat="43.18777" lon="2.55815">
        <ele>116.296461</ele>
        <time>2023-01-05T13:51:40.959Z</time>
      </trkpt>
      <trkpt lat="43.18777" lon="2.55831">
        <ele>116.269186</ele>
        <time>2023-01-05T13:51:42.960Z</time>
      </trkpt>
      <trkpt lat="43.18778" lon="2.55848">
        <ele>116.241043</ele>
        <time>2023-01-05T13:51:44.940Z</time>
      </trkpt>
      <trkpt lat="43.18778" lon="2.55864">
        <ele>116.213365</ele>
        <time>2023-01-05T13:51:46.955Z</time>
      </trkpt>
      <trkpt lat="43.18778" lon="2.5588">
        <ele>116.185751</ele>
        <time>2023-01-05T13:51:48.947Z</time>
      </trkpt>
      <trkpt lat="43.18778" lon="2.55896">
        <ele>116.158481</ele>
        <time>2023-01-05T13:51:50.960Z</time>
      </trkpt>
      <trkpt lat="43.18778" lon="2.55913">
        <ele>116.128972</ele>
        <time>2023-01-05T13:51:52.951Z</time>
      </trkpt>
      <trkpt lat="43.18777" lon="2.55931">
        <ele>116.098825</ele>
        <time>2023-01-05T13:51:54.934Z</time>
      </trkpt>
      <trkpt lat="43.18776" lon="2.55948">
        <ele>116.069094</ele>
        <time>2023-01-05T13:51:56.933Z</time>
      </trkpt>
      <trkpt lat="43.18775" lon="2.55965">
        <ele>116.039035</ele>
        <time>2023-01-05T13:51:58.932Z</time>
      </trkpt>
      <trkpt lat="43.18774" lon="2.55982">
        <ele>116.010176</ele>
        <time>2023-01-05T13:52:00.941Z</time>
      </trkpt>
      <trkpt lat="43.18773" lon="2.56">
        <ele>115.979402</ele>
        <time>2023-01-05T13:52:02.955Z</time>
      </trkpt>
      <trkpt lat="43.18772" lon="2.56018">
        <ele>115.948473</ele>
        <time>2023-01-05T13:52:04.949Z</time>
      </trkpt>
      <trkpt lat="43.18771" lon="2.56036">
        <ele>115.93976</ele>
        <time>2023-01-05T13:52:06.936Z</time>
      </trkpt>
      <trkpt lat="43.18771" lon="2.56055">
        <ele>115.945253</ele>
        <time>2023-01-05T13:52:08.960Z</time>
      </trkpt>
      <trkpt lat="43.1877" lon="2.56072">
        <ele>115.950659</ele>
        <time>2023-01-05T13:52:10.936Z</time>
      </trkpt>
      <trkpt lat="43.18769" lon="2.5609">
        <ele>115.956109</ele>
        <time>2023-01-05T13:52:12.961Z</time>
      </trkpt>
      <trkpt lat="43.18768" lon="2.56109">
        <ele>115.961834</ele>
        <time>2023-01-05T13:52:14.952Z</time>
      </trkpt>
      <trkpt lat="43.18768" lon="2.56128">
        <ele>115.967541</ele>
        <time>2023-01-05T13:52:16.961Z</time>
      </trkpt>
      <trkpt lat="43.18767" lon="2.56146">
        <ele>115.9731</ele>
        <time>2023-01-05T13:52:18.964Z</time>
      </trkpt>
      <trkpt lat="43.18766" lon="2.56164">
        <ele>115.978566</ele>
        <time>2023-01-05T13:52:20.938Z</time>
      </trkpt>
      <trkpt lat="43.18766" lon="2.56181">
        <ele>115.983815</ele>
        <time>2023-01-05T13:52:22.958Z</time>
      </trkpt>
      <trkpt lat="43.18765" lon="2.56198">
        <ele>115.988962</ele>
        <time>2023-01-05T13:52:24.945Z</time>
      </trkpt>
      <trkpt lat="43.18764" lon="2.56215">
        <ele>115.994061</ele>
        <time>2023-01-05T13:52:26.943Z</time>
      </trkpt>
      <trkpt lat="43.18763" lon="2.56232">
        <ele>115.999252</ele>
        <time>2023-01-05T13:52:28.950Z</time>
      </trkpt>
      <trkpt lat="43.18763" lon="2.56248">
        <ele>116.00411</ele>
        <time>2023-01-05T13:52:30.948Z</time>
      </trkpt>
      <trkpt lat="43.18762" lon="2.56264">
        <ele>116.009003</ele>
        <time>2023-01-05T13:52:32.938Z</time>
      </trkpt>
      <trkpt lat="43.18761" lon="2.5628">
        <ele>116.065417</ele>
        <time>2023-01-05T13:52:34.938Z</time>
      </trkpt>
      <trkpt lat="43.1876" lon="2.56297">
        <ele>116.160761</ele>
        <time>2023-01-05T13:52:36.951Z</time>
      </trkpt>
      <trkpt lat="43.1876" lon="2.56313">
        <ele>116.25944</ele>
        <time>2023-01-05T13:52:38.965Z</time>
      </trkpt>
      <trkpt lat="43.1876" lon="2.5633">
        <ele>116.356381</ele>
        <time>2023-01-05T13:52:40.951Z</time>
      </trkpt>
      <trkpt lat="43.18758" lon="2.56347">
        <ele>116.454416</ele>
        <time>2023-01-05T13:52:42.945Z</time>
      </trkpt>
      <trkpt lat="43.18758" lon="2.56363">
        <ele>116.550771</ele>
        <time>2023-01-05T13:52:44.950Z</time>
      </trkpt>
      <trkpt lat="43.18757" lon="2.56379">
        <ele>116.645395</ele>
        <time>2023-01-05T13:52:46.947Z</time>
      </trkpt>
      <trkpt lat="43.18758" lon="2.56396">
        <ele>116.745809</ele>
        <time>2023-01-05T13:52:48.946Z</time>
      </trkpt>
      <trkpt lat="43.18756" lon="2.56413">
        <ele>116.843447</ele>
        <time>2023-01-05T13:52:50.934Z</time>
      </trkpt>
      <trkpt lat="43.18755" lon="2.5643">
        <ele>116.945877</ele>
        <time>2023-01-05T13:52:52.951Z</time>
      </trkpt>
      <trkpt lat="43.18755" lon="2.56447">
        <ele>117.043365</ele>
        <time>2023-01-05T13:52:54.935Z</time>
      </trkpt>
      <trkpt lat="43.18755" lon="2.56463">
        <ele>117.140843</ele>
        <time>2023-01-05T13:52:56.953Z</time>
      </trkpt>
      <trkpt lat="43.18755" lon="2.56478">
        <ele>117.227195</ele>
        <time>2023-01-05T13:52:58.947Z</time>
      </trkpt>
      <trkpt lat="43.18753" lon="2.56492">
        <ele>117.311135</ele>
        <time>2023-01-05T13:53:00.956Z</time>
      </trkpt>
      <trkpt lat="43.18752" lon="2.56506">
        <ele>117.393326</ele>
        <time>2023-01-05T13:53:02.949Z</time>
      </trkpt>
      <trkpt lat="43.18749" lon="2.56519">
        <ele>117.449618</ele>
        <time>2023-01-05T13:53:04.931Z</time>
      </trkpt>
      <trkpt lat="43.18744" lon="2.56531">
        <ele>117.394452</ele>
        <time>2023-01-05T13:53:06.938Z</time>
      </trkpt>
      <trkpt lat="43.18738" lon="2.56541">
        <ele>117.342164</ele>
        <time>2023-01-05T13:53:08.946Z</time>
      </trkpt>
      <trkpt lat="43.18734" lon="2.56553">
        <ele>117.290548</ele>
        <time>2023-01-05T13:53:10.962Z</time>
      </trkpt>
      <trkpt lat="43.18735" lon="2.56567">
        <ele>117.235687</ele>
        <time>2023-01-05T13:53:12.932Z</time>
      </trkpt>
      <trkpt lat="43.18739" lon="2.5658">
        <ele>117.182372</ele>
        <time>2023-01-05T13:53:14.930Z</time>
      </trkpt>
      <trkpt lat="43.18745" lon="2.56591">
        <ele>117.128316</ele>
        <time>2023-01-05T13:53:16.938Z</time>
      </trkpt>
      <trkpt lat="43.18747" lon="2.56605">
        <ele>117.072372</ele>
        <time>2023-01-05T13:53:18.934Z</time>
      </trkpt>
      <trkpt lat="43.18747" lon="2.5662">
        <ele>117.014256</ele>
        <time>2023-01-05T13:53:20.950Z</time>
      </trkpt>
      <trkpt lat="43.18748" lon="2.56635">
        <ele>116.954819</ele>
        <time>2023-01-05T13:53:22.940Z</time>
      </trkpt>
      <trkpt lat="43.18748" lon="2.5665">
        <ele>116.896321</ele>
        <time>2023-01-05T13:53:24.951Z</time>
      </trkpt>
      <trkpt lat="43.18747" lon="2.56665">
        <ele>116.835006</ele>
        <time>2023-01-05T13:53:26.934Z</time>
      </trkpt>
      <trkpt lat="43.18747" lon="2.5668">
        <ele>116.776</ele>
        <time>2023-01-05T13:53:28.959Z</time>
      </trkpt>
      <trkpt lat="43.18746" lon="2.56696">
        <ele>116.714264</ele>
        <time>2023-01-05T13:53:30.959Z</time>
      </trkpt>
      <trkpt lat="43.18745" lon="2.56711">
        <ele>116.654568</ele>
        <time>2023-01-05T13:53:32.945Z</time>
      </trkpt>
      <trkpt lat="43.18744" lon="2.56726">
        <ele>116.592802</ele>
        <time>2023-01-05T13:53:34.948Z</time>
      </trkpt>
      <trkpt lat="43.18743" lon="2.56742">
        <ele>116.53064</ele>
        <time>2023-01-05T13:53:36.950Z</time>
      </trkpt>
      <trkpt lat="43.18743" lon="2.56757">
        <ele>116.501672</ele>
        <time>2023-01-05T13:53:38.948Z</time>
      </trkpt>
      <trkpt lat="43.18743" lon="2.56771">
        <ele>116.576501</ele>
        <time>2023-01-05T13:53:40.926Z</time>
      </trkpt>
      <trkpt lat="43.18742" lon="2.56787">
        <ele>116.655905</ele>
        <time>2023-01-05T13:53:42.952Z</time>
      </trkpt>
      <trkpt lat="43.18741" lon="2.56802">
        <ele>116.734947</ele>
        <time>2023-01-05T13:53:44.951Z</time>
      </trkpt>
      <trkpt lat="43.18741" lon="2.56818">
        <ele>116.813802</ele>
        <time>2023-01-05T13:53:46.951Z</time>
      </trkpt>
      <trkpt lat="43.18741" lon="2.56833">
        <ele>116.890676</ele>
        <time>2023-01-05T13:53:48.952Z</time>
      </trkpt>
      <trkpt lat="43.1874" lon="2.56848">
        <ele>116.969569</ele>
        <time>2023-01-05T13:53:50.932Z</time>
      </trkpt>
      <trkpt lat="43.18739" lon="2.56864">
        <ele>117.049174</ele>
        <time>2023-01-05T13:53:52.950Z</time>
      </trkpt>
      <trkpt lat="43.18738" lon="2.56879">
        <ele>117.130432</ele>
        <time>2023-01-05T13:53:54.943Z</time>
      </trkpt>
      <trkpt lat="43.18737" lon="2.56896">
        <ele>117.21356</ele>
        <time>2023-01-05T13:53:56.957Z</time>
      </trkpt>
      <trkpt lat="43.18736" lon="2.56911">
        <ele>117.294309</ele>
        <time>2023-01-05T13:53:58.955Z</time>
      </trkpt>
      <trkpt lat="43.18735" lon="2.56927">
        <ele>117.374424</ele>
        <time>2023-01-05T13:54:00.959Z</time>
      </trkpt>
      <trkpt lat="43.18735" lon="2.56942">
        <ele>117.453009</ele>
        <time>2023-01-05T13:54:02.931Z</time>
      </trkpt>
      <trkpt lat="43.18734" lon="2.56957">
        <ele>117.531494</ele>
        <time>2023-01-05T13:54:04.959Z</time>
      </trkpt>
      <trkpt lat="43.18733" lon="2.56973">
        <ele>117.611511</ele>
        <time>2023-01-05T13:54:06.962Z</time>
      </trkpt>
      <trkpt lat="43.18733" lon="2.56989">
        <ele>117.690977</ele>
        <time>2023-01-05T13:54:08.952Z</time>
      </trkpt>
      <trkpt lat="43.18732" lon="2.57004">
        <ele>117.789918</ele>
        <time>2023-01-05T13:54:10.949Z</time>
      </trkpt>
      <trkpt lat="43.18731" lon="2.57019">
        <ele>117.935221</ele>
        <time>2023-01-05T13:54:12.957Z</time>
      </trkpt>
      <trkpt lat="43.18731" lon="2.57035">
        <ele>118.087087</ele>
        <time>2023-01-05T13:54:14.960Z</time>
      </trkpt>
      <trkpt lat="43.1873" lon="2.5705">
        <ele>118.239069</ele>
        <time>2023-01-05T13:54:16.962Z</time>
      </trkpt>
      <trkpt lat="43.18729" lon="2.57065">
        <ele>118.383261</ele>
        <time>2023-01-05T13:54:18.940Z</time>
      </trkpt>
      <trkpt lat="43.1873" lon="2.57081">
        <ele>118.53504</ele>
        <time>2023-01-05T13:54:20.951Z</time>
      </trkpt>
      <trkpt lat="43.18729" lon="2.57095">
        <ele>118.672415</ele>
        <time>2023-01-05T13:54:22.960Z</time>
      </trkpt>
      <trkpt lat="43.18729" lon="2.5711">
        <ele>118.812745</ele>
        <time>2023-01-05T13:54:24.960Z</time>
      </trkpt>
      <trkpt lat="43.18728" lon="2.57124">
        <ele>118.951213</ele>
        <time>2023-01-05T13:54:26.968Z</time>
      </trkpt>
      <trkpt lat="43.18727" lon="2.57138">
        <ele>119.090823</ele>
        <time>2023-01-05T13:54:28.962Z</time>
      </trkpt>
      <trkpt lat="43.18727" lon="2.57152">
        <ele>119.223587</ele>
        <time>2023-01-05T13:54:30.936Z</time>
      </trkpt>
      <trkpt lat="43.18726" lon="2.57165">
        <ele>119.353559</ele>
        <time>2023-01-05T13:54:32.947Z</time>
      </trkpt>
      <trkpt lat="43.18726" lon="2.57179">
        <ele>119.488925</ele>
        <time>2023-01-05T13:54:34.952Z</time>
      </trkpt>
      <trkpt lat="43.18726" lon="2.57192">
        <ele>119.611761</ele>
        <time>2023-01-05T13:54:36.957Z</time>
      </trkpt>
      <trkpt lat="43.18726" lon="2.57206">
        <ele>119.749264</ele>
        <time>2023-01-05T13:54:38.935Z</time>
      </trkpt>
      <trkpt lat="43.18725" lon="2.57221">
        <ele>119.886851</ele>
        <time>2023-01-05T13:54:40.953Z</time>
      </trkpt>
      <trkpt lat="43.18724" lon="2.57235">
        <ele>120.027924</ele>
        <time>2023-01-05T13:54:42.947Z</time>
      </trkpt>
      <trkpt lat="43.18724" lon="2.57249">
        <ele>120.167452</ele>
        <time>2023-01-05T13:54:44.957Z</time>
      </trkpt>
      <trkpt lat="43.18723" lon="2.57264">
        <ele>120.329592</ele>
        <time>2023-01-05T13:54:46.956Z</time>
      </trkpt>
      <trkpt lat="43.18722" lon="2.57279">
        <ele>120.492381</ele>
        <time>2023-01-05T13:54:48.960Z</time>
      </trkpt>
      <trkpt lat="43.18722" lon="2.57293">
        <ele>120.653933</ele>
        <time>2023-01-05T13:54:50.965Z</time>
      </trkpt>
      <trkpt lat="43.18721" lon="2.57308">
        <ele>120.811441</ele>
        <time>2023-01-05T13:54:52.951Z</time>
      </trkpt>
      <trkpt lat="43.18721" lon="2.57321">
        <ele>120.957575</ele>
        <time>2023-01-05T13:54:54.956Z</time>
      </trkpt>
      <trkpt lat="43.18721" lon="2.57334">
        <ele>121.098157</ele>
        <time>2023-01-05T13:54:56.952Z</time>
      </trkpt>
      <trkpt lat="43.1872" lon="2.57347">
        <ele>121.247584</ele>
        <time>2023-01-05T13:54:58.952Z</time>
      </trkpt>
      <trkpt lat="43.1872" lon="2.57362">
        <ele>121.405758</ele>
        <time>2023-01-05T13:55:00.941Z</time>
      </trkpt>
      <trkpt lat="43.18719" lon="2.57377">
        <ele>121.569733</ele>
        <time>2023-01-05T13:55:02.949Z</time>
      </trkpt>
      <trkpt lat="43.18719" lon="2.57391">
        <ele>121.733542</ele>
        <time>2023-01-05T13:55:04.954Z</time>
      </trkpt>
      <trkpt lat="43.18718" lon="2.57407">
        <ele>121.90254</ele>
        <time>2023-01-05T13:55:06.958Z</time>
      </trkpt>
      <trkpt lat="43.18716" lon="2.57422">
        <ele>122.067729</ele>
        <time>2023-01-05T13:55:08.951Z</time>
      </trkpt>
      <trkpt lat="43.18715" lon="2.57437">
        <ele>122.23315</ele>
        <time>2023-01-05T13:55:10.961Z</time>
      </trkpt>
      <trkpt lat="43.18713" lon="2.57452">
        <ele>122.400352</ele>
        <time>2023-01-05T13:55:12.958Z</time>
      </trkpt>
      <trkpt lat="43.18711" lon="2.57466">
        <ele>122.562706</ele>
        <time>2023-01-05T13:55:14.963Z</time>
      </trkpt>
      <trkpt lat="43.18709" lon="2.57481">
        <ele>122.72342</ele>
        <time>2023-01-05T13:55:16.954Z</time>
      </trkpt>
      <trkpt lat="43.18707" lon="2.57494">
        <ele>122.861473</ele>
        <time>2023-01-05T13:55:18.950Z</time>
      </trkpt>
      <trkpt lat="43.18705" lon="2.57507">
        <ele>122.939975</ele>
        <time>2023-01-05T13:55:20.955Z</time>
      </trkpt>
      <trkpt lat="43.18703" lon="2.5752">
        <ele>123.017328</ele>
        <time>2023-01-05T13:55:22.954Z</time>
      </trkpt>
      <trkpt lat="43.18701" lon="2.57534">
        <ele>123.098022</ele>
        <time>2023-01-05T13:55:24.957Z</time>
      </trkpt>
      <trkpt lat="43.18699" lon="2.57547">
        <ele>123.175468</ele>
        <time>2023-01-05T13:55:26.961Z</time>
      </trkpt>
      <trkpt lat="43.18697" lon="2.5756">
        <ele>123.253136</ele>
        <time>2023-01-05T13:55:28.950Z</time>
      </trkpt>
      <trkpt lat="43.18695" lon="2.57572">
        <ele>123.327779</ele>
        <time>2023-01-05T13:55:30.959Z</time>
      </trkpt>
      <trkpt lat="43.18693" lon="2.57586">
        <ele>123.40733</ele>
        <time>2023-01-05T13:55:32.949Z</time>
      </trkpt>
      <trkpt lat="43.18691" lon="2.57599">
        <ele>123.486003</ele>
        <time>2023-01-05T13:55:34.953Z</time>
      </trkpt>
      <trkpt lat="43.18689" lon="2.57613">
        <ele>123.567801</ele>
        <time>2023-01-05T13:55:36.958Z</time>
      </trkpt>
      <trkpt lat="43.18686" lon="2.57626">
        <ele>123.650735</ele>
        <time>2023-01-05T13:55:38.941Z</time>
      </trkpt>
      <trkpt lat="43.18684" lon="2.5764">
        <ele>123.732171</ele>
        <time>2023-01-05T13:55:40.949Z</time>
      </trkpt>
      <trkpt lat="43.18681" lon="2.57654">
        <ele>123.816471</ele>
        <time>2023-01-05T13:55:42.957Z</time>
      </trkpt>
      <trkpt lat="43.18679" lon="2.57668">
        <ele>123.903051</ele>
        <time>2023-01-05T13:55:44.957Z</time>
      </trkpt>
      <trkpt lat="43.18677" lon="2.57683">
        <ele>123.988084</ele>
        <time>2023-01-05T13:55:46.954Z</time>
      </trkpt>
      <trkpt lat="43.18674" lon="2.57697">
        <ele>124.075206</ele>
        <time>2023-01-05T13:55:48.960Z</time>
      </trkpt>
      <trkpt lat="43.18671" lon="2.57711">
        <ele>124.160992</ele>
        <time>2023-01-05T13:55:50.962Z</time>
      </trkpt>
      <trkpt lat="43.18669" lon="2.57726">
        <ele>124.249801</ele>
        <time>2023-01-05T13:55:52.957Z</time>
      </trkpt>
      <trkpt lat="43.18667" lon="2.5774">
        <ele>124.325184</ele>
        <time>2023-01-05T13:55:54.950Z</time>
      </trkpt>
      <trkpt lat="43.18664" lon="2.57756">
        <ele>124.401047</ele>
        <time>2023-01-05T13:55:56.950Z</time>
      </trkpt>
      <trkpt lat="43.18662" lon="2.5777">
        <ele>124.471637</ele>
        <time>2023-01-05T13:55:58.949Z</time>
      </trkpt>
      <trkpt lat="43.1866" lon="2.57783">
        <ele>124.536873</ele>
        <time>2023-01-05T13:56:00.953Z</time>
      </trkpt>
      <trkpt lat="43.18657" lon="2.57796">
        <ele>124.601585</ele>
        <time>2023-01-05T13:56:02.950Z</time>
      </trkpt>
      <trkpt lat="43.18655" lon="2.5781">
        <ele>124.668823</ele>
        <time>2023-01-05T13:56:04.958Z</time>
      </trkpt>
      <trkpt lat="43.18653" lon="2.57823">
        <ele>124.733879</ele>
        <time>2023-01-05T13:56:06.958Z</time>
      </trkpt>
      <trkpt lat="43.1865" lon="2.57837">
        <ele>124.802184</ele>
        <time>2023-01-05T13:56:08.960Z</time>
      </trkpt>
      <trkpt lat="43.18648" lon="2.57852">
        <ele>124.872164</ele>
        <time>2023-01-05T13:56:10.948Z</time>
      </trkpt>
      <trkpt lat="43.18646" lon="2.57865">
        <ele>124.936556</ele>
        <time>2023-01-05T13:56:12.947Z</time>
      </trkpt>
      <trkpt lat="43.18644" lon="2.57879">
        <ele>125.00614</ele>
        <time>2023-01-05T13:56:14.955Z</time>
      </trkpt>
      <trkpt lat="43.18641" lon="2.57893">
        <ele>125.074093</ele>
        <time>2023-01-05T13:56:16.947Z</time>
      </trkpt>
      <trkpt lat="43.18639" lon="2.57907">
        <ele>125.143298</ele>
        <time>2023-01-05T13:56:18.954Z</time>
      </trkpt>
      <trkpt lat="43.18637" lon="2.57922">
        <ele>125.214642</ele>
        <time>2023-01-05T13:56:20.961Z</time>
      </trkpt>
      <trkpt lat="43.18634" lon="2.57936">
        <ele>125.28616</ele>
        <time>2023-01-05T13:56:22.942Z</time>
      </trkpt>
      <trkpt lat="43.18632" lon="2.5795">
        <ele>125.356338</ele>
        <time>2023-01-05T13:56:24.963Z</time>
      </trkpt>
      <trkpt lat="43.1863" lon="2.57965">
        <ele>125.427395</ele>
        <time>2023-01-05T13:56:26.945Z</time>
      </trkpt>
      <trkpt lat="43.18627" lon="2.5798">
        <ele>125.557729</ele>
        <time>2023-01-05T13:56:28.951Z</time>
      </trkpt>
      <trkpt lat="43.18625" lon="2.57994">
        <ele>125.743475</ele>
        <time>2023-01-05T13:56:30.959Z</time>
      </trkpt>
      <trkpt lat="43.18622" lon="2.58009">
        <ele>125.925554</ele>
        <time>2023-01-05T13:56:32.949Z</time>
      </trkpt>
      <trkpt lat="43.18619" lon="2.58023">
        <ele>126.109677</ele>
        <time>2023-01-05T13:56:34.943Z</time>
      </trkpt>
      <trkpt lat="43.18618" lon="2.58038">
        <ele>126.296269</ele>
        <time>2023-01-05T13:56:36.959Z</time>
      </trkpt>
      <trkpt lat="43.18615" lon="2.58052">
        <ele>126.479967</ele>
        <time>2023-01-05T13:56:38.951Z</time>
      </trkpt>
      <trkpt lat="43.18613" lon="2.58067">
        <ele>126.666921</ele>
        <time>2023-01-05T13:56:40.936Z</time>
      </trkpt>
      <trkpt lat="43.1861" lon="2.58082">
        <ele>126.851002</ele>
        <time>2023-01-05T13:56:42.950Z</time>
      </trkpt>
      <trkpt lat="43.18608" lon="2.58096">
        <ele>127.036748</ele>
        <time>2023-01-05T13:56:44.951Z</time>
      </trkpt>
      <trkpt lat="43.18606" lon="2.58112">
        <ele>127.230958</ele>
        <time>2023-01-05T13:56:46.959Z</time>
      </trkpt>
      <trkpt lat="43.18604" lon="2.58126">
        <ele>127.412387</ele>
        <time>2023-01-05T13:56:48.957Z</time>
      </trkpt>
      <trkpt lat="43.18601" lon="2.58141">
        <ele>127.60207</ele>
        <time>2023-01-05T13:56:50.949Z</time>
      </trkpt>
      <trkpt lat="43.18599" lon="2.58156">
        <ele>127.786258</ele>
        <time>2023-01-05T13:56:52.958Z</time>
      </trkpt>
      <trkpt lat="43.18596" lon="2.5817">
        <ele>127.967139</ele>
        <time>2023-01-05T13:56:54.955Z</time>
      </trkpt>
      <trkpt lat="43.18594" lon="2.58185">
        <ele>128.152423</ele>
        <time>2023-01-05T13:56:56.948Z</time>
      </trkpt>
      <trkpt lat="43.18592" lon="2.58199">
        <ele>128.33143</ele>
        <time>2023-01-05T13:56:58.953Z</time>
      </trkpt>
      <trkpt lat="43.1859" lon="2.58213">
        <ele>128.505846</ele>
        <time>2023-01-05T13:57:00.952Z</time>
      </trkpt>
      <trkpt lat="43.18588" lon="2.58226">
        <ele>128.662778</ele>
        <time>2023-01-05T13:57:02.951Z</time>
      </trkpt>
      <trkpt lat="43.18586" lon="2.5824">
        <ele>128.816645</ele>
        <time>2023-01-05T13:57:04.967Z</time>
      </trkpt>
      <trkpt lat="43.18583" lon="2.58253">
        <ele>128.970271</ele>
        <time>2023-01-05T13:57:06.959Z</time>
      </trkpt>
      <trkpt lat="43.18582" lon="2.58266">
        <ele>129.122248</ele>
        <time>2023-01-05T13:57:08.967Z</time>
      </trkpt>
      <trkpt lat="43.1858" lon="2.58279">
        <ele>129.273389</ele>
        <time>2023-01-05T13:57:10.957Z</time>
      </trkpt>
      <trkpt lat="43.18578" lon="2.58292">
        <ele>129.423752</ele>
        <time>2023-01-05T13:57:12.961Z</time>
      </trkpt>
      <trkpt lat="43.18575" lon="2.58305">
        <ele>129.577011</ele>
        <time>2023-01-05T13:57:14.961Z</time>
      </trkpt>
      <trkpt lat="43.18573" lon="2.58318">
        <ele>129.72706</ele>
        <time>2023-01-05T13:57:16.954Z</time>
      </trkpt>
      <trkpt lat="43.18571" lon="2.58331">
        <ele>129.872358</ele>
        <time>2023-01-05T13:57:18.964Z</time>
      </trkpt>
      <trkpt lat="43.18569" lon="2.58344">
        <ele>130.023499</ele>
        <time>2023-01-05T13:57:20.935Z</time>
      </trkpt>
      <trkpt lat="43.18566" lon="2.58356">
        <ele>130.171803</ele>
        <time>2023-01-05T13:57:22.959Z</time>
      </trkpt>
      <trkpt lat="43.18564" lon="2.5837">
        <ele>130.325812</ele>
        <time>2023-01-05T13:57:24.961Z</time>
      </trkpt>
      <trkpt lat="43.18562" lon="2.58383">
        <ele>130.476518</ele>
        <time>2023-01-05T13:57:26.953Z</time>
      </trkpt>
      <trkpt lat="43.18559" lon="2.58396">
        <ele>130.631627</ele>
        <time>2023-01-05T13:57:28.959Z</time>
      </trkpt>
      <trkpt lat="43.18557" lon="2.58409">
        <ele>130.783874</ele>
        <time>2023-01-05T13:57:30.959Z</time>
      </trkpt>
      <trkpt lat="43.18555" lon="2.58422">
        <ele>130.93534</ele>
        <time>2023-01-05T13:57:32.952Z</time>
      </trkpt>
      <trkpt lat="43.18553" lon="2.58436">
        <ele>131.08728</ele>
        <time>2023-01-05T13:57:34.955Z</time>
      </trkpt>
      <trkpt lat="43.18551" lon="2.58449">
        <ele>131.238716</ele>
        <time>2023-01-05T13:57:36.952Z</time>
      </trkpt>
      <trkpt lat="43.18548" lon="2.58461">
        <ele>131.44369</ele>
        <time>2023-01-05T13:57:38.949Z</time>
      </trkpt>
      <trkpt lat="43.18546" lon="2.58474">
        <ele>131.683489</ele>
        <time>2023-01-05T13:57:40.956Z</time>
      </trkpt>
      <trkpt lat="43.18544" lon="2.58487">
        <ele>131.920536</ele>
        <time>2023-01-05T13:57:42.958Z</time>
      </trkpt>
      <trkpt lat="43.18541" lon="2.585">
        <ele>132.164965</ele>
        <time>2023-01-05T13:57:44.964Z</time>
      </trkpt>
      <trkpt lat="43.18539" lon="2.58513">
        <ele>132.405296</ele>
        <time>2023-01-05T13:57:46.959Z</time>
      </trkpt>
      <trkpt lat="43.18538" lon="2.58525">
        <ele>132.638753</ele>
        <time>2023-01-05T13:57:48.956Z</time>
      </trkpt>
      <trkpt lat="43.18535" lon="2.58538">
        <ele>132.870269</ele>
        <time>2023-01-05T13:57:50.965Z</time>
      </trkpt>
      <trkpt lat="43.18533" lon="2.5855">
        <ele>133.108291</ele>
        <time>2023-01-05T13:57:52.961Z</time>
      </trkpt>
      <trkpt lat="43.1853" lon="2.58568">
        <ele>133.439389</ele>
        <time>2023-01-05T13:57:55.954Z</time>
      </trkpt>
      <trkpt lat="43.18528" lon="2.58586">
        <ele>133.76997</ele>
        <time>2023-01-05T13:57:58.964Z</time>
      </trkpt>
      <trkpt lat="43.18526" lon="2.58598">
        <ele>133.995359</ele>
        <time>2023-01-05T13:58:00.959Z</time>
      </trkpt>
      <trkpt lat="43.18524" lon="2.58611">
        <ele>134.225249</ele>
        <time>2023-01-05T13:58:02.950Z</time>
      </trkpt>
      <trkpt lat="43.18522" lon="2.58623">
        <ele>134.450304</ele>
        <time>2023-01-05T13:58:04.960Z</time>
      </trkpt>
      <trkpt lat="43.18521" lon="2.58635">
        <ele>134.682051</ele>
        <time>2023-01-05T13:58:06.934Z</time>
      </trkpt>
      <trkpt lat="43.18519" lon="2.58648">
        <ele>134.915509</ele>
        <time>2023-01-05T13:58:08.963Z</time>
      </trkpt>
      <trkpt lat="43.18517" lon="2.58664">
        <ele>135.218863</ele>
        <time>2023-01-05T13:58:11.962Z</time>
      </trkpt>
      <trkpt lat="43.18517" lon="2.58679">
        <ele>135.484378</ele>
        <time>2023-01-05T13:58:14.942Z</time>
      </trkpt>
      <trkpt lat="43.18516" lon="2.58694">
        <ele>135.760067</ele>
        <time>2023-01-05T13:58:17.954Z</time>
      </trkpt>
      <trkpt lat="43.18515" lon="2.5871">
        <ele>135.848382</ele>
        <time>2023-01-05T13:58:20.954Z</time>
      </trkpt>
      <trkpt lat="43.18515" lon="2.58726">
        <ele>135.920021</ele>
        <time>2023-01-05T13:58:23.937Z</time>
      </trkpt>
      <trkpt lat="43.18516" lon="2.58742">
        <ele>135.989936</ele>
        <time>2023-01-05T13:58:26.951Z</time>
      </trkpt>
      <trkpt lat="43.18517" lon="2.58759">
        <ele>136.06395</ele>
        <time>2023-01-05T13:58:29.952Z</time>
      </trkpt>
      <trkpt lat="43.18517" lon="2.58776">
        <ele>136.139258</ele>
        <time>2023-01-05T13:58:32.939Z</time>
      </trkpt>
      <trkpt lat="43.18518" lon="2.58792">
        <ele>136.212476</ele>
        <time>2023-01-05T13:58:35.956Z</time>
      </trkpt>
      <trkpt lat="43.1852" lon="2.58808">
        <ele>136.28653</ele>
        <time>2023-01-05T13:58:38.950Z</time>
      </trkpt>
      <trkpt lat="43.18522" lon="2.58826">
        <ele>136.365685</ele>
        <time>2023-01-05T13:58:41.937Z</time>
      </trkpt>
      <trkpt lat="43.18524" lon="2.58844">
        <ele>136.448196</ele>
        <time>2023-01-05T13:58:44.950Z</time>
      </trkpt>
      <trkpt lat="43.18526" lon="2.58857">
        <ele>136.50685</ele>
        <time>2023-01-05T13:58:46.950Z</time>
      </trkpt>
      <trkpt lat="43.18528" lon="2.5887">
        <ele>136.566657</ele>
        <time>2023-01-05T13:58:48.958Z</time>
      </trkpt>
      <trkpt lat="43.1853" lon="2.58883">
        <ele>136.625332</ele>
        <time>2023-01-05T13:58:50.936Z</time>
      </trkpt>
      <trkpt lat="43.18533" lon="2.58897">
        <ele>136.689315</ele>
        <time>2023-01-05T13:58:52.951Z</time>
      </trkpt>
      <trkpt lat="43.18536" lon="2.58912">
        <ele>136.756114</ele>
        <time>2023-01-05T13:58:54.949Z</time>
      </trkpt>
      <trkpt lat="43.18539" lon="2.58926">
        <ele>136.823088</ele>
        <time>2023-01-05T13:58:56.951Z</time>
      </trkpt>
      <trkpt lat="43.18542" lon="2.5894">
        <ele>136.825201</ele>
        <time>2023-01-05T13:58:58.956Z</time>
      </trkpt>
      <trkpt lat="43.18546" lon="2.58955">
        <ele>136.502247</ele>
        <time>2023-01-05T13:59:00.950Z</time>
      </trkpt>
      <trkpt lat="43.1855" lon="2.5897">
        <ele>136.163752</ele>
        <time>2023-01-05T13:59:02.942Z</time>
      </trkpt>
      <trkpt lat="43.18555" lon="2.58986">
        <ele>135.807206</ele>
        <time>2023-01-05T13:59:04.953Z</time>
      </trkpt>
      <trkpt lat="43.1856" lon="2.59002">
        <ele>135.443814</ele>
        <time>2023-01-05T13:59:06.939Z</time>
      </trkpt>
      <trkpt lat="43.18565" lon="2.59017">
        <ele>135.093938</ele>
        <time>2023-01-05T13:59:08.955Z</time>
      </trkpt>
      <trkpt lat="43.1857" lon="2.59033">
        <ele>134.733808</ele>
        <time>2023-01-05T13:59:10.928Z</time>
      </trkpt>
      <trkpt lat="43.18575" lon="2.59049">
        <ele>134.378303</ele>
        <time>2023-01-05T13:59:12.953Z</time>
      </trkpt>
      <trkpt lat="43.18581" lon="2.59066">
        <ele>134.001992</ele>
        <time>2023-01-05T13:59:14.950Z</time>
      </trkpt>
      <trkpt lat="43.18586" lon="2.59083">
        <ele>133.603981</ele>
        <time>2023-01-05T13:59:16.952Z</time>
      </trkpt>
      <trkpt lat="43.18593" lon="2.59101">
        <ele>133.197438</ele>
        <time>2023-01-05T13:59:18.957Z</time>
      </trkpt>
      <trkpt lat="43.18598" lon="2.59119">
        <ele>132.781172</ele>
        <time>2023-01-05T13:59:20.959Z</time>
      </trkpt>
      <trkpt lat="43.18605" lon="2.59139">
        <ele>132.339002</ele>
        <time>2023-01-05T13:59:22.957Z</time>
      </trkpt>
      <trkpt lat="43.18611" lon="2.59157">
        <ele>131.907462</ele>
        <time>2023-01-05T13:59:24.950Z</time>
      </trkpt>
      <trkpt lat="43.18617" lon="2.59177">
        <ele>131.505098</ele>
        <time>2023-01-05T13:59:26.933Z</time>
      </trkpt>
      <trkpt lat="43.18623" lon="2.59197">
        <ele>131.110935</ele>
        <time>2023-01-05T13:59:28.956Z</time>
      </trkpt>
      <trkpt lat="43.1863" lon="2.59217">
        <ele>130.70898</ele>
        <time>2023-01-05T13:59:30.936Z</time>
      </trkpt>
      <trkpt lat="43.18636" lon="2.59237">
        <ele>130.30101</ele>
        <time>2023-01-05T13:59:32.952Z</time>
      </trkpt>
      <trkpt lat="43.18644" lon="2.59258">
        <ele>129.884463</ele>
        <time>2023-01-05T13:59:34.958Z</time>
      </trkpt>
      <trkpt lat="43.18651" lon="2.59279">
        <ele>129.452596</ele>
        <time>2023-01-05T13:59:36.951Z</time>
      </trkpt>
      <trkpt lat="43.18658" lon="2.593">
        <ele>129.038613</ele>
        <time>2023-01-05T13:59:38.949Z</time>
      </trkpt>
      <trkpt lat="43.18664" lon="2.59321">
        <ele>128.614219</ele>
        <time>2023-01-05T13:59:40.962Z</time>
      </trkpt>
      <trkpt lat="43.18671" lon="2.59343">
        <ele>128.190488</ele>
        <time>2023-01-05T13:59:42.951Z</time>
      </trkpt>
      <trkpt lat="43.18678" lon="2.59364">
        <ele>127.77643</ele>
        <time>2023-01-05T13:59:44.958Z</time>
      </trkpt>
      <trkpt lat="43.18685" lon="2.59384">
        <ele>127.360785</ele>
        <time>2023-01-05T13:59:46.958Z</time>
      </trkpt>
      <trkpt lat="43.18691" lon="2.59405">
        <ele>127.256438</ele>
        <time>2023-01-05T13:59:48.958Z</time>
      </trkpt>
      <trkpt lat="43.18697" lon="2.59425">
        <ele>127.254257</ele>
        <time>2023-01-05T13:59:50.951Z</time>
      </trkpt>
      <trkpt lat="43.18704" lon="2.59445">
        <ele>127.252138</ele>
        <time>2023-01-05T13:59:52.953Z</time>
      </trkpt>
      <trkpt lat="43.1871" lon="2.59464">
        <ele>127.25009</ele>
        <time>2023-01-05T13:59:54.950Z</time>
      </trkpt>
      <trkpt lat="43.18717" lon="2.59483">
        <ele>127.248079</ele>
        <time>2023-01-05T13:59:56.958Z</time>
      </trkpt>
      <trkpt lat="43.18723" lon="2.59502">
        <ele>127.246047</ele>
        <time>2023-01-05T13:59:58.950Z</time>
      </trkpt>
      <trkpt lat="43.18729" lon="2.5952">
        <ele>127.244115</ele>
        <time>2023-01-05T14:00:00.961Z</time>
      </trkpt>
      <trkpt lat="43.18735" lon="2.59538">
        <ele>127.242155</ele>
        <time>2023-01-05T14:00:02.935Z</time>
      </trkpt>
      <trkpt lat="43.18741" lon="2.59557">
        <ele>127.240196</ele>
        <time>2023-01-05T14:00:04.954Z</time>
      </trkpt>
      <trkpt lat="43.18746" lon="2.59574">
        <ele>127.238311</ele>
        <time>2023-01-05T14:00:06.935Z</time>
      </trkpt>
      <trkpt lat="43.18752" lon="2.59593">
        <ele>127.236349</ele>
        <time>2023-01-05T14:00:08.960Z</time>
      </trkpt>
      <trkpt lat="43.18758" lon="2.59611">
        <ele>127.23437</ele>
        <time>2023-01-05T14:00:10.946Z</time>
      </trkpt>
      <trkpt lat="43.18765" lon="2.59629">
        <ele>127.366714</ele>
        <time>2023-01-05T14:00:12.959Z</time>
      </trkpt>
      <trkpt lat="43.18771" lon="2.59648">
        <ele>127.531211</ele>
        <time>2023-01-05T14:00:14.934Z</time>
      </trkpt>
      <trkpt lat="43.18776" lon="2.59666">
        <ele>127.68958</ele>
        <time>2023-01-05T14:00:16.961Z</time>
      </trkpt>
      <trkpt lat="43.18782" lon="2.59683">
        <ele>127.846493</ele>
        <time>2023-01-05T14:00:18.962Z</time>
      </trkpt>
      <trkpt lat="43.18787" lon="2.59701">
        <ele>127.999636</ele>
        <time>2023-01-05T14:00:20.934Z</time>
      </trkpt>
      <trkpt lat="43.18793" lon="2.59717">
        <ele>128.145952</ele>
        <time>2023-01-05T14:00:22.952Z</time>
      </trkpt>
      <trkpt lat="43.18798" lon="2.59734">
        <ele>128.295964</ele>
        <time>2023-01-05T14:00:24.952Z</time>
      </trkpt>
      <trkpt lat="43.18803" lon="2.5975">
        <ele>128.444161</ele>
        <time>2023-01-05T14:00:26.959Z</time>
      </trkpt>
      <trkpt lat="43.18809" lon="2.59768">
        <ele>128.597629</ele>
        <time>2023-01-05T14:00:28.963Z</time>
      </trkpt>
      <trkpt lat="43.18814" lon="2.59785">
        <ele>128.755401</ele>
        <time>2023-01-05T14:00:30.948Z</time>
      </trkpt>
      <trkpt lat="43.1882" lon="2.59803">
        <ele>128.911368</ele>
        <time>2023-01-05T14:00:32.956Z</time>
      </trkpt>
      <trkpt lat="43.18826" lon="2.59821">
        <ele>129.073173</ele>
        <time>2023-01-05T14:00:34.968Z</time>
      </trkpt>
      <trkpt lat="43.18831" lon="2.59839">
        <ele>129.23303</ele>
        <time>2023-01-05T14:00:36.957Z</time>
      </trkpt>
      <trkpt lat="43.18837" lon="2.59857">
        <ele>129.068988</ele>
        <time>2023-01-05T14:00:38.944Z</time>
      </trkpt>
      <trkpt lat="43.18842" lon="2.59874">
        <ele>128.875724</ele>
        <time>2023-01-05T14:00:40.949Z</time>
      </trkpt>
      <trkpt lat="43.18848" lon="2.59892">
        <ele>128.673683</ele>
        <time>2023-01-05T14:00:42.957Z</time>
      </trkpt>
      <trkpt lat="43.18854" lon="2.5991">
        <ele>128.470512</ele>
        <time>2023-01-05T14:00:44.956Z</time>
      </trkpt>
      <trkpt lat="43.1886" lon="2.59927">
        <ele>128.278989</ele>
        <time>2023-01-05T14:00:46.948Z</time>
      </trkpt>
      <trkpt lat="43.18865" lon="2.59944">
        <ele>128.087235</ele>
        <time>2023-01-05T14:00:48.938Z</time>
      </trkpt>
      <trkpt lat="43.1887" lon="2.59961">
        <ele>127.899802</ele>
        <time>2023-01-05T14:00:50.961Z</time>
      </trkpt>
      <trkpt lat="43.18876" lon="2.59978">
        <ele>127.711281</ele>
        <time>2023-01-05T14:00:52.958Z</time>
      </trkpt>
      <trkpt lat="43.18881" lon="2.59994">
        <ele>127.531771</ele>
        <time>2023-01-05T14:00:54.958Z</time>
      </trkpt>
      <trkpt lat="43.18886" lon="2.6001">
        <ele>127.353937</ele>
        <time>2023-01-05T14:00:56.957Z</time>
      </trkpt>
      <trkpt lat="43.18891" lon="2.60025">
        <ele>127.175128</ele>
        <time>2023-01-05T14:00:58.961Z</time>
      </trkpt>
      <trkpt lat="43.18897" lon="2.60041">
        <ele>126.995713</ele>
        <time>2023-01-05T14:01:00.954Z</time>
      </trkpt>
      <trkpt lat="43.18902" lon="2.60058">
        <ele>126.805853</ele>
        <time>2023-01-05T14:01:02.935Z</time>
      </trkpt>
      <trkpt lat="43.18908" lon="2.60076">
        <ele>126.590885</ele>
        <time>2023-01-05T14:01:04.960Z</time>
      </trkpt>
      <trkpt lat="43.18914" lon="2.60093">
        <ele>126.359248</ele>
        <time>2023-01-05T14:01:06.940Z</time>
      </trkpt>
      <trkpt lat="43.1892" lon="2.60111">
        <ele>126.11815</ele>
        <time>2023-01-05T14:01:08.957Z</time>
      </trkpt>
      <trkpt lat="43.18926" lon="2.60129">
        <ele>125.876351</ele>
        <time>2023-01-05T14:01:10.954Z</time>
      </trkpt>
      <trkpt lat="43.18932" lon="2.60148">
        <ele>125.628412</ele>
        <time>2023-01-05T14:01:12.962Z</time>
      </trkpt>
      <trkpt lat="43.18938" lon="2.60167">
        <ele>125.374072</ele>
        <time>2023-01-05T14:01:14.959Z</time>
      </trkpt>
      <trkpt lat="43.18945" lon="2.60187">
        <ele>125.115612</ele>
        <time>2023-01-05T14:01:16.963Z</time>
      </trkpt>
      <trkpt lat="43.18951" lon="2.60206">
        <ele>124.861927</ele>
        <time>2023-01-05T14:01:18.956Z</time>
      </trkpt>
      <trkpt lat="43.18957" lon="2.60225">
        <ele>124.611116</ele>
        <time>2023-01-05T14:01:20.966Z</time>
      </trkpt>
      <trkpt lat="43.18963" lon="2.60244">
        <ele>124.356956</ele>
        <time>2023-01-05T14:01:22.961Z</time>
      </trkpt>
      <trkpt lat="43.1897" lon="2.60264">
        <ele>124.08794</ele>
        <time>2023-01-05T14:01:24.958Z</time>
      </trkpt>
      <trkpt lat="43.18977" lon="2.60284">
        <ele>123.82496</ele>
        <time>2023-01-05T14:01:26.963Z</time>
      </trkpt>
      <trkpt lat="43.18983" lon="2.60304">
        <ele>123.550705</ele>
        <time>2023-01-05T14:01:28.960Z</time>
      </trkpt>
      <trkpt lat="43.18989" lon="2.60323">
        <ele>123.277533</ele>
        <time>2023-01-05T14:01:30.951Z</time>
      </trkpt>
      <trkpt lat="43.18995" lon="2.60342">
        <ele>123.002847</ele>
        <time>2023-01-05T14:01:32.948Z</time>
      </trkpt>
      <trkpt lat="43.19001" lon="2.60362">
        <ele>122.722459</ele>
        <time>2023-01-05T14:01:34.963Z</time>
      </trkpt>
      <trkpt lat="43.19008" lon="2.60381">
        <ele>122.445137</ele>
        <time>2023-01-05T14:01:36.963Z</time>
      </trkpt>
      <trkpt lat="43.19014" lon="2.604">
        <ele>122.166184</ele>
        <time>2023-01-05T14:01:38.961Z</time>
      </trkpt>
      <trkpt lat="43.19021" lon="2.6042">
        <ele>121.885294</ele>
        <time>2023-01-05T14:01:40.945Z</time>
      </trkpt>
      <trkpt lat="43.19027" lon="2.60439">
        <ele>121.611397</ele>
        <time>2023-01-05T14:01:42.956Z</time>
      </trkpt>
      <trkpt lat="43.19033" lon="2.60458">
        <ele>121.332545</ele>
        <time>2023-01-05T14:01:44.948Z</time>
      </trkpt>
      <trkpt lat="43.1904" lon="2.60477">
        <ele>121.057168</ele>
        <time>2023-01-05T14:01:46.959Z</time>
      </trkpt>
      <trkpt lat="43.19045" lon="2.60496">
        <ele>120.789906</ele>
        <time>2023-01-05T14:01:48.949Z</time>
      </trkpt>
      <trkpt lat="43.19052" lon="2.60515">
        <ele>120.524789</ele>
        <time>2023-01-05T14:01:50.949Z</time>
      </trkpt>
      <trkpt lat="43.19057" lon="2.60533">
        <ele>120.54924</ele>
        <time>2023-01-05T14:01:52.954Z</time>
      </trkpt>
      <trkpt lat="43.19062" lon="2.60551">
        <ele>120.598235</ele>
        <time>2023-01-05T14:01:54.967Z</time>
      </trkpt>
      <trkpt lat="43.19068" lon="2.60569">
        <ele>120.646217</ele>
        <time>2023-01-05T14:01:56.960Z</time>
      </trkpt>
      <trkpt lat="43.19074" lon="2.60587">
        <ele>120.6956</ele>
        <time>2023-01-05T14:01:58.959Z</time>
      </trkpt>
      <trkpt lat="43.19079" lon="2.60606">
        <ele>120.744984</ele>
        <time>2023-01-05T14:02:00.932Z</time>
      </trkpt>
      <trkpt lat="43.19085" lon="2.60625">
        <ele>120.796356</ele>
        <time>2023-01-05T14:02:02.944Z</time>
      </trkpt>
      <trkpt lat="43.19091" lon="2.60644">
        <ele>120.847667</ele>
        <time>2023-01-05T14:02:04.945Z</time>
      </trkpt>
      <trkpt lat="43.19096" lon="2.60664">
        <ele>120.899544</ele>
        <time>2023-01-05T14:02:06.957Z</time>
      </trkpt>
      <trkpt lat="43.19102" lon="2.60683">
        <ele>120.950718</ele>
        <time>2023-01-05T14:02:08.953Z</time>
      </trkpt>
      <trkpt lat="43.19106" lon="2.60702">
        <ele>121.000405</ele>
        <time>2023-01-05T14:02:10.941Z</time>
      </trkpt>
      <trkpt lat="43.19111" lon="2.60722">
        <ele>121.051737</ele>
        <time>2023-01-05T14:02:12.938Z</time>
      </trkpt>
      <trkpt lat="43.19116" lon="2.60741">
        <ele>121.100732</ele>
        <time>2023-01-05T14:02:14.961Z</time>
      </trkpt>
      <trkpt lat="43.19121" lon="2.60759">
        <ele>121.340929</ele>
        <time>2023-01-05T14:02:16.961Z</time>
      </trkpt>
      <trkpt lat="43.19125" lon="2.60778">
        <ele>121.643721</ele>
        <time>2023-01-05T14:02:18.964Z</time>
      </trkpt>
      <trkpt lat="43.1913" lon="2.60795">
        <ele>121.935956</ele>
        <time>2023-01-05T14:02:20.939Z</time>
      </trkpt>
      <trkpt lat="43.19134" lon="2.60813">
        <ele>122.22414</ele>
        <time>2023-01-05T14:02:22.953Z</time>
      </trkpt>
      <trkpt lat="43.19137" lon="2.60829">
        <ele>122.4988</ele>
        <time>2023-01-05T14:02:24.954Z</time>
      </trkpt>
      <trkpt lat="43.19141" lon="2.60846">
        <ele>122.774562</ele>
        <time>2023-01-05T14:02:26.962Z</time>
      </trkpt>
      <trkpt lat="43.19144" lon="2.60862">
        <ele>123.032807</ele>
        <time>2023-01-05T14:02:28.950Z</time>
      </trkpt>
      <trkpt lat="43.19148" lon="2.60877">
        <ele>123.28559</ele>
        <time>2023-01-05T14:02:30.963Z</time>
      </trkpt>
      <trkpt lat="43.1915" lon="2.60892">
        <ele>123.531501</ele>
        <time>2023-01-05T14:02:32.965Z</time>
      </trkpt>
      <trkpt lat="43.19153" lon="2.60907">
        <ele>123.763598</ele>
        <time>2023-01-05T14:02:34.956Z</time>
      </trkpt>
      <trkpt lat="43.19156" lon="2.60921">
        <ele>123.998753</ele>
        <time>2023-01-05T14:02:36.966Z</time>
      </trkpt>
      <trkpt lat="43.19158" lon="2.60935">
        <ele>124.219675</ele>
        <time>2023-01-05T14:02:38.967Z</time>
      </trkpt>
      <trkpt lat="43.1916" lon="2.60948">
        <ele>124.432444</ele>
        <time>2023-01-05T14:02:40.967Z</time>
      </trkpt>
      <trkpt lat="43.19162" lon="2.60961">
        <ele>124.641129</ele>
        <time>2023-01-05T14:02:42.952Z</time>
      </trkpt>
      <trkpt lat="43.19164" lon="2.60974">
        <ele>124.857656</ele>
        <time>2023-01-05T14:02:44.957Z</time>
      </trkpt>
      <trkpt lat="43.19166" lon="2.60987">
        <ele>125.065937</ele>
        <time>2023-01-05T14:02:46.953Z</time>
      </trkpt>
      <trkpt lat="43.19169" lon="2.60999">
        <ele>125.252829</ele>
        <time>2023-01-05T14:02:48.953Z</time>
      </trkpt>
      <trkpt lat="43.1917" lon="2.61012">
        <ele>125.446255</ele>
        <time>2023-01-05T14:02:50.935Z</time>
      </trkpt>
      <trkpt lat="43.19172" lon="2.61025">
        <ele>125.646755</ele>
        <time>2023-01-05T14:02:52.963Z</time>
      </trkpt>
      <trkpt lat="43.19175" lon="2.61043">
        <ele>125.93002</ele>
        <time>2023-01-05T14:02:55.939Z</time>
      </trkpt>
      <trkpt lat="43.19178" lon="2.6106">
        <ele>126.193711</ele>
        <time>2023-01-05T14:02:58.951Z</time>
      </trkpt>
      <trkpt lat="43.19181" lon="2.61077">
        <ele>126.464214</ele>
        <time>2023-01-05T14:03:01.952Z</time>
      </trkpt>
      <trkpt lat="43.19183" lon="2.61096">
        <ele>126.74835</ele>
        <time>2023-01-05T14:03:04.961Z</time>
      </trkpt>
      <trkpt lat="43.19185" lon="2.61109">
        <ele>126.949656</ele>
        <time>2023-01-05T14:03:06.948Z</time>
      </trkpt>
      <trkpt lat="43.19186" lon="2.61122">
        <ele>127.152793</ele>
        <time>2023-01-05T14:03:08.953Z</time>
      </trkpt>
      <trkpt lat="43.19188" lon="2.61135">
        <ele>127.352285</ele>
        <time>2023-01-05T14:03:10.961Z</time>
      </trkpt>
      <trkpt lat="43.19189" lon="2.61149">
        <ele>127.562913</ele>
        <time>2023-01-05T14:03:12.955Z</time>
      </trkpt>
      <trkpt lat="43.19191" lon="2.61162">
        <ele>127.763906</ele>
        <time>2023-01-05T14:03:14.949Z</time>
      </trkpt>
      <trkpt lat="43.19192" lon="2.61175">
        <ele>127.965597</ele>
        <time>2023-01-05T14:03:16.961Z</time>
      </trkpt>
      <trkpt lat="43.19193" lon="2.61189">
        <ele>128.173936</ele>
        <time>2023-01-05T14:03:18.948Z</time>
      </trkpt>
      <trkpt lat="43.19195" lon="2.61202">
        <ele>128.384245</ele>
        <time>2023-01-05T14:03:20.956Z</time>
      </trkpt>
      <trkpt lat="43.19196" lon="2.61216">
        <ele>128.595481</ele>
        <time>2023-01-05T14:03:22.963Z</time>
      </trkpt>
      <trkpt lat="43.19197" lon="2.6123">
        <ele>128.744287</ele>
        <time>2023-01-05T14:03:24.957Z</time>
      </trkpt>
      <trkpt lat="43.19199" lon="2.61245">
        <ele>128.744068</ele>
        <time>2023-01-05T14:03:26.953Z</time>
      </trkpt>
      <trkpt lat="43.19199" lon="2.61259">
        <ele>128.743853</ele>
        <time>2023-01-05T14:03:28.953Z</time>
      </trkpt>
      <trkpt lat="43.19201" lon="2.61273">
        <ele>128.743636</ele>
        <time>2023-01-05T14:03:30.946Z</time>
      </trkpt>
      <trkpt lat="43.19202" lon="2.61288">
        <ele>128.743409</ele>
        <time>2023-01-05T14:03:32.962Z</time>
      </trkpt>
      <trkpt lat="43.19202" lon="2.61303">
        <ele>128.743178</ele>
        <time>2023-01-05T14:03:34.963Z</time>
      </trkpt>
      <trkpt lat="43.19203" lon="2.61318">
        <ele>128.74295</ele>
        <time>2023-01-05T14:03:36.951Z</time>
      </trkpt>
      <trkpt lat="43.19205" lon="2.61332">
        <ele>128.742732</ele>
        <time>2023-01-05T14:03:38.956Z</time>
      </trkpt>
      <trkpt lat="43.19206" lon="2.61348">
        <ele>128.742486</ele>
        <time>2023-01-05T14:03:40.961Z</time>
      </trkpt>
      <trkpt lat="43.19207" lon="2.61364">
        <ele>128.742242</ele>
        <time>2023-01-05T14:03:42.963Z</time>
      </trkpt>
      <trkpt lat="43.19208" lon="2.6138">
        <ele>128.742003</ele>
        <time>2023-01-05T14:03:44.956Z</time>
      </trkpt>
      <trkpt lat="43.19208" lon="2.61397">
        <ele>128.741741</ele>
        <time>2023-01-05T14:03:46.941Z</time>
      </trkpt>
      <trkpt lat="43.19208" lon="2.61414">
        <ele>128.741486</ele>
        <time>2023-01-05T14:03:48.935Z</time>
      </trkpt>
      <trkpt lat="43.19209" lon="2.61431">
        <ele>128.741231</ele>
        <time>2023-01-05T14:03:50.960Z</time>
      </trkpt>
      <trkpt lat="43.19209" lon="2.61448">
        <ele>128.740974</ele>
        <time>2023-01-05T14:03:52.959Z</time>
      </trkpt>
      <trkpt lat="43.1921" lon="2.61466">
        <ele>128.740707</ele>
        <time>2023-01-05T14:03:54.953Z</time>
      </trkpt>
      <trkpt lat="43.1921" lon="2.61483">
        <ele>128.580735</ele>
        <time>2023-01-05T14:03:56.960Z</time>
      </trkpt>
      <trkpt lat="43.1921" lon="2.61501">
        <ele>128.326207</ele>
        <time>2023-01-05T14:03:58.952Z</time>
      </trkpt>
      <trkpt lat="43.19211" lon="2.6152">
        <ele>128.061736</ele>
        <time>2023-01-05T14:04:00.953Z</time>
      </trkpt>
      <trkpt lat="43.19211" lon="2.61538">
        <ele>127.798729</ele>
        <time>2023-01-05T14:04:02.936Z</time>
      </trkpt>
      <trkpt lat="43.19211" lon="2.61558">
        <ele>127.521642</ele>
        <time>2023-01-05T14:04:04.951Z</time>
      </trkpt>
      <trkpt lat="43.19211" lon="2.61578">
        <ele>127.240294</ele>
        <time>2023-01-05T14:04:06.951Z</time>
      </trkpt>
      <trkpt lat="43.19211" lon="2.61598">
        <ele>126.960326</ele>
        <time>2023-01-05T14:04:08.951Z</time>
      </trkpt>
      <trkpt lat="43.19211" lon="2.61619">
        <ele>126.657775</ele>
        <time>2023-01-05T14:04:10.930Z</time>
      </trkpt>
      <trkpt lat="43.19211" lon="2.61641">
        <ele>126.342502</ele>
        <time>2023-01-05T14:04:12.956Z</time>
      </trkpt>
      <trkpt lat="43.19211" lon="2.61663">
        <ele>126.035735</ele>
        <time>2023-01-05T14:04:14.951Z</time>
      </trkpt>
      <trkpt lat="43.19211" lon="2.61686">
        <ele>125.714831</ele>
        <time>2023-01-05T14:04:16.958Z</time>
      </trkpt>
      <trkpt lat="43.19211" lon="2.6171">
        <ele>125.376958</ele>
        <time>2023-01-05T14:04:18.957Z</time>
      </trkpt>
      <trkpt lat="43.19211" lon="2.61734">
        <ele>124.968559</ele>
        <time>2023-01-05T14:04:20.953Z</time>
      </trkpt>
      <trkpt lat="43.19211" lon="2.61747">
        <ele>124.744108</ele>
        <time>2023-01-05T14:04:21.966Z</time>
      </trkpt>
      <trkpt lat="43.19212" lon="2.6176">
        <ele>124.505179</ele>
        <time>2023-01-05T14:04:22.934Z</time>
      </trkpt>
      <trkpt lat="43.19211" lon="2.61772">
        <ele>124.28247</ele>
        <time>2023-01-05T14:04:23.955Z</time>
      </trkpt>
      <trkpt lat="43.19212" lon="2.61785">
        <ele>124.050785</ele>
        <time>2023-01-05T14:04:24.957Z</time>
      </trkpt>
      <trkpt lat="43.19212" lon="2.61798">
        <ele>123.815561</ele>
        <time>2023-01-05T14:04:25.954Z</time>
      </trkpt>
      <trkpt lat="43.19212" lon="2.61812">
        <ele>123.569515</ele>
        <time>2023-01-05T14:04:26.954Z</time>
      </trkpt>
      <trkpt lat="43.19212" lon="2.61826">
        <ele>123.323517</ele>
        <time>2023-01-05T14:04:27.950Z</time>
      </trkpt>
      <trkpt lat="43.19212" lon="2.61839">
        <ele>123.088293</ele>
        <time>2023-01-05T14:04:28.949Z</time>
      </trkpt>
      <trkpt lat="43.19212" lon="2.61853">
        <ele>122.838693</ele>
        <time>2023-01-05T14:04:29.958Z</time>
      </trkpt>
      <trkpt lat="43.19212" lon="2.61866">
        <ele>122.594478</ele>
        <time>2023-01-05T14:04:30.946Z</time>
      </trkpt>
      <trkpt lat="43.19211" lon="2.6188">
        <ele>122.346245</ele>
        <time>2023-01-05T14:04:31.961Z</time>
      </trkpt>
      <trkpt lat="43.19211" lon="2.61894">
        <ele>122.10005</ele>
        <time>2023-01-05T14:04:32.959Z</time>
      </trkpt>
      <trkpt lat="43.19211" lon="2.61908">
        <ele>121.846823</ele>
        <time>2023-01-05T14:04:33.952Z</time>
      </trkpt>
      <trkpt lat="43.19211" lon="2.61922">
        <ele>121.589863</ele>
        <time>2023-01-05T14:04:34.952Z</time>
      </trkpt>
      <trkpt lat="43.19211" lon="2.61937">
        <ele>121.331284</ele>
        <time>2023-01-05T14:04:35.961Z</time>
      </trkpt>
      <trkpt lat="43.19211" lon="2.61951">
        <ele>121.07091</ele>
        <time>2023-01-05T14:04:36.955Z</time>
      </trkpt>
      <trkpt lat="43.19211" lon="2.61966">
        <ele>120.815136</ele>
        <time>2023-01-05T14:04:37.953Z</time>
      </trkpt>
      <trkpt lat="43.19211" lon="2.6198">
        <ele>120.587121</ele>
        <time>2023-01-05T14:04:38.958Z</time>
      </trkpt>
      <trkpt lat="43.1921" lon="2.61994">
        <ele>120.357481</ele>
        <time>2023-01-05T14:04:39.960Z</time>
      </trkpt>
      <trkpt lat="43.19211" lon="2.62009">
        <ele>120.126246</ele>
        <time>2023-01-05T14:04:40.955Z</time>
      </trkpt>
      <trkpt lat="43.19211" lon="2.62024">
        <ele>119.890259</ele>
        <time>2023-01-05T14:04:41.968Z</time>
      </trkpt>
      <trkpt lat="43.19211" lon="2.62039">
        <ele>119.647895</ele>
        <time>2023-01-05T14:04:42.930Z</time>
      </trkpt>
      <trkpt lat="43.19211" lon="2.62054">
        <ele>119.40873</ele>
        <time>2023-01-05T14:04:43.936Z</time>
      </trkpt>
      <trkpt lat="43.19211" lon="2.62069">
        <ele>119.172753</ele>
        <time>2023-01-05T14:04:44.937Z</time>
      </trkpt>
      <trkpt lat="43.19211" lon="2.62084">
        <ele>118.925606</ele>
        <time>2023-01-05T14:04:45.937Z</time>
      </trkpt>
      <trkpt lat="43.19211" lon="2.62099">
        <ele>118.680023</ele>
        <time>2023-01-05T14:04:46.963Z</time>
      </trkpt>
      <trkpt lat="43.19211" lon="2.62114">
        <ele>118.442362</ele>
        <time>2023-01-05T14:04:47.952Z</time>
      </trkpt>
      <trkpt lat="43.19211" lon="2.6213">
        <ele>118.198403</ele>
        <time>2023-01-05T14:04:48.952Z</time>
      </trkpt>
      <trkpt lat="43.19212" lon="2.62145">
        <ele>117.949585</ele>
        <time>2023-01-05T14:04:49.963Z</time>
      </trkpt>
      <trkpt lat="43.19212" lon="2.62161">
        <ele>117.705636</ele>
        <time>2023-01-05T14:04:50.935Z</time>
      </trkpt>
      <trkpt lat="43.19212" lon="2.62176">
        <ele>117.463124</ele>
        <time>2023-01-05T14:04:51.939Z</time>
      </trkpt>
      <trkpt lat="43.19212" lon="2.62191">
        <ele>117.219018</ele>
        <time>2023-01-05T14:04:52.937Z</time>
      </trkpt>
      <trkpt lat="43.19212" lon="2.62206">
        <ele>116.978248</ele>
        <time>2023-01-05T14:04:53.963Z</time>
      </trkpt>
      <trkpt lat="43.19212" lon="2.62221">
        <ele>116.799742</ele>
        <time>2023-01-05T14:04:54.932Z</time>
      </trkpt>
      <trkpt lat="43.19212" lon="2.62235">
        <ele>116.650329</ele>
        <time>2023-01-05T14:04:55.947Z</time>
      </trkpt>
      <trkpt lat="43.19212" lon="2.6225">
        <ele>116.503984</ele>
        <time>2023-01-05T14:04:56.962Z</time>
      </trkpt>
      <trkpt lat="43.19212" lon="2.62265">
        <ele>116.351522</ele>
        <time>2023-01-05T14:04:57.964Z</time>
      </trkpt>
      <trkpt lat="43.19213" lon="2.6228">
        <ele>116.198013</ele>
        <time>2023-01-05T14:04:58.958Z</time>
      </trkpt>
      <trkpt lat="43.19213" lon="2.62294">
        <ele>116.051615</ele>
        <time>2023-01-05T14:04:59.951Z</time>
      </trkpt>
      <trkpt lat="43.19213" lon="2.62308">
        <ele>115.906233</ele>
        <time>2023-01-05T14:05:00.935Z</time>
      </trkpt>
      <trkpt lat="43.19213" lon="2.62323">
        <ele>115.75684</ele>
        <time>2023-01-05T14:05:01.953Z</time>
      </trkpt>
      <trkpt lat="43.19213" lon="2.62338">
        <ele>115.60643</ele>
        <time>2023-01-05T14:05:02.967Z</time>
      </trkpt>
      <trkpt lat="43.19213" lon="2.62352">
        <ele>115.459049</ele>
        <time>2023-01-05T14:05:03.963Z</time>
      </trkpt>
      <trkpt lat="43.19212" lon="2.62367">
        <ele>115.315698</ele>
        <time>2023-01-05T14:05:04.948Z</time>
      </trkpt>
      <trkpt lat="43.19213" lon="2.62381">
        <ele>115.1693</ele>
        <time>2023-01-05T14:05:05.960Z</time>
      </trkpt>
      <trkpt lat="43.19213" lon="2.62395">
        <ele>115.023971</ele>
        <time>2023-01-05T14:05:06.955Z</time>
      </trkpt>
      <trkpt lat="43.19213" lon="2.6241">
        <ele>114.878623</ele>
        <time>2023-01-05T14:05:07.946Z</time>
      </trkpt>
      <trkpt lat="43.19212" lon="2.62423">
        <ele>114.740302</ele>
        <time>2023-01-05T14:05:08.936Z</time>
      </trkpt>
      <trkpt lat="43.19212" lon="2.62437">
        <ele>114.598028</ele>
        <time>2023-01-05T14:05:09.962Z</time>
      </trkpt>
      <trkpt lat="43.19212" lon="2.62451">
        <ele>114.460829</ele>
        <time>2023-01-05T14:05:10.948Z</time>
      </trkpt>
      <trkpt lat="43.19212" lon="2.62464">
        <ele>114.359487</ele>
        <time>2023-01-05T14:05:11.965Z</time>
      </trkpt>
      <trkpt lat="43.19211" lon="2.62477">
        <ele>114.304837</ele>
        <time>2023-01-05T14:05:12.962Z</time>
      </trkpt>
      <trkpt lat="43.19211" lon="2.6249">
        <ele>114.252718</ele>
        <time>2023-01-05T14:05:13.931Z</time>
      </trkpt>
      <trkpt lat="43.19211" lon="2.62503">
        <ele>114.200189</ele>
        <time>2023-01-05T14:05:14.954Z</time>
      </trkpt>
      <trkpt lat="43.19211" lon="2.62516">
        <ele>114.145612</ele>
        <time>2023-01-05T14:05:15.957Z</time>
      </trkpt>
      <trkpt lat="43.19212" lon="2.62529">
        <ele>114.094289</ele>
        <time>2023-01-05T14:05:16.956Z</time>
      </trkpt>
      <trkpt lat="43.19212" lon="2.62542">
        <ele>114.039275</ele>
        <time>2023-01-05T14:05:17.962Z</time>
      </trkpt>
      <trkpt lat="43.19212" lon="2.62555">
        <ele>113.986746</ele>
        <time>2023-01-05T14:05:18.953Z</time>
      </trkpt>
      <trkpt lat="43.19212" lon="2.62567">
        <ele>113.935833</ele>
        <time>2023-01-05T14:05:19.944Z</time>
      </trkpt>
      <trkpt lat="43.19212" lon="2.6258">
        <ele>113.884511</ele>
        <time>2023-01-05T14:05:20.966Z</time>
      </trkpt>
      <trkpt lat="43.19212" lon="2.62592">
        <ele>113.833614</ele>
        <time>2023-01-05T14:05:21.953Z</time>
      </trkpt>
      <trkpt lat="43.19212" lon="2.62616">
        <ele>113.736357</ele>
        <time>2023-01-05T14:05:23.954Z</time>
      </trkpt>
      <trkpt lat="43.19213" lon="2.62639">
        <ele>113.641948</ele>
        <time>2023-01-05T14:05:25.953Z</time>
      </trkpt>
      <trkpt lat="43.19213" lon="2.62662">
        <ele>113.547975</ele>
        <time>2023-01-05T14:05:27.954Z</time>
      </trkpt>
      <trkpt lat="43.19212" lon="2.62684">
        <ele>113.455173</ele>
        <time>2023-01-05T14:05:29.951Z</time>
      </trkpt>
      <trkpt lat="43.19212" lon="2.62707">
        <ele>113.368343</ele>
        <time>2023-01-05T14:05:31.957Z</time>
      </trkpt>
      <trkpt lat="43.19213" lon="2.62728">
        <ele>113.347815</ele>
        <time>2023-01-05T14:05:33.957Z</time>
      </trkpt>
      <trkpt lat="43.19212" lon="2.62748">
        <ele>113.32776</ele>
        <time>2023-01-05T14:05:35.961Z</time>
      </trkpt>
      <trkpt lat="43.19212" lon="2.62768">
        <ele>113.308303</ele>
        <time>2023-01-05T14:05:37.941Z</time>
      </trkpt>
      <trkpt lat="43.19212" lon="2.62788">
        <ele>113.288849</ele>
        <time>2023-01-05T14:05:39.953Z</time>
      </trkpt>
      <trkpt lat="43.19213" lon="2.62809">
        <ele>113.269292</ele>
        <time>2023-01-05T14:05:41.964Z</time>
      </trkpt>
      <trkpt lat="43.19213" lon="2.62828">
        <ele>113.25081</ele>
        <time>2023-01-05T14:05:43.966Z</time>
      </trkpt>
      <trkpt lat="43.19212" lon="2.62846">
        <ele>113.232612</ele>
        <time>2023-01-05T14:05:45.960Z</time>
      </trkpt>
      <trkpt lat="43.19213" lon="2.62865">
        <ele>113.214507</ele>
        <time>2023-01-05T14:05:47.956Z</time>
      </trkpt>
      <trkpt lat="43.19212" lon="2.62883">
        <ele>113.197179</ele>
        <time>2023-01-05T14:05:49.954Z</time>
      </trkpt>
      <trkpt lat="43.19213" lon="2.62901">
        <ele>113.179473</ele>
        <time>2023-01-05T14:05:51.962Z</time>
      </trkpt>
      <trkpt lat="43.19212" lon="2.62919">
        <ele>113.16206</ele>
        <time>2023-01-05T14:05:53.933Z</time>
      </trkpt>
      <trkpt lat="43.19212" lon="2.62937">
        <ele>113.144737</ele>
        <time>2023-01-05T14:05:55.938Z</time>
      </trkpt>
      <trkpt lat="43.19212" lon="2.62955">
        <ele>113.130394</ele>
        <time>2023-01-05T14:05:57.966Z</time>
      </trkpt>
      <trkpt lat="43.19212" lon="2.62973">
        <ele>113.132364</ele>
        <time>2023-01-05T14:05:59.965Z</time>
      </trkpt>
      <trkpt lat="43.19212" lon="2.62991">
        <ele>113.134281</ele>
        <time>2023-01-05T14:06:01.954Z</time>
      </trkpt>
      <trkpt lat="43.19212" lon="2.63009">
        <ele>113.136155</ele>
        <time>2023-01-05T14:06:03.963Z</time>
      </trkpt>
      <trkpt lat="43.19212" lon="2.63028">
        <ele>113.138167</ele>
        <time>2023-01-05T14:06:05.961Z</time>
      </trkpt>
      <trkpt lat="43.19212" lon="2.63047">
        <ele>113.140159</ele>
        <time>2023-01-05T14:06:07.966Z</time>
      </trkpt>
      <trkpt lat="43.19212" lon="2.63066">
        <ele>113.14216</ele>
        <time>2023-01-05T14:06:09.966Z</time>
      </trkpt>
      <trkpt lat="43.19212" lon="2.63085">
        <ele>113.144152</ele>
        <time>2023-01-05T14:06:11.962Z</time>
      </trkpt>
      <trkpt lat="43.19212" lon="2.63103">
        <ele>113.146132</ele>
        <time>2023-01-05T14:06:13.948Z</time>
      </trkpt>
      <trkpt lat="43.19212" lon="2.6312">
        <ele>113.147922</ele>
        <time>2023-01-05T14:06:15.968Z</time>
      </trkpt>
      <trkpt lat="43.19213" lon="2.63138">
        <ele>113.149839</ele>
        <time>2023-01-05T14:06:17.953Z</time>
      </trkpt>
      <trkpt lat="43.19213" lon="2.63156">
        <ele>113.151692</ele>
        <time>2023-01-05T14:06:19.937Z</time>
      </trkpt>
      <trkpt lat="43.19213" lon="2.63173">
        <ele>113.153514</ele>
        <time>2023-01-05T14:06:21.951Z</time>
      </trkpt>
      <trkpt lat="43.19213" lon="2.63191">
        <ele>113.155409</ele>
        <time>2023-01-05T14:06:23.962Z</time>
      </trkpt>
      <trkpt lat="43.19213" lon="2.63208">
        <ele>113.114348</ele>
        <time>2023-01-05T14:06:25.948Z</time>
      </trkpt>
      <trkpt lat="43.19213" lon="2.63227">
        <ele>113.036553</ele>
        <time>2023-01-05T14:06:27.956Z</time>
      </trkpt>
      <trkpt lat="43.19213" lon="2.63245">
        <ele>112.960875</ele>
        <time>2023-01-05T14:06:29.956Z</time>
      </trkpt>
      <trkpt lat="43.19213" lon="2.63262">
        <ele>112.886895</ele>
        <time>2023-01-05T14:06:31.948Z</time>
      </trkpt>
      <trkpt lat="43.19212" lon="2.63279">
        <ele>112.81529</ele>
        <time>2023-01-05T14:06:33.945Z</time>
      </trkpt>
      <trkpt lat="43.19212" lon="2.63298">
        <ele>112.737477</ele>
        <time>2023-01-05T14:06:35.963Z</time>
      </trkpt>
      <trkpt lat="43.19212" lon="2.63316">
        <ele>112.661395</ele>
        <time>2023-01-05T14:06:37.944Z</time>
      </trkpt>
      <trkpt lat="43.19211" lon="2.63334">
        <ele>112.585681</ele>
        <time>2023-01-05T14:06:39.939Z</time>
      </trkpt>
      <trkpt lat="43.1921" lon="2.63352">
        <ele>112.510264</ele>
        <time>2023-01-05T14:06:41.948Z</time>
      </trkpt>
      <trkpt lat="43.19209" lon="2.6337">
        <ele>112.434847</ele>
        <time>2023-01-05T14:06:43.935Z</time>
      </trkpt>
      <trkpt lat="43.19209" lon="2.63387">
        <ele>112.362493</ele>
        <time>2023-01-05T14:06:45.962Z</time>
      </trkpt>
      <trkpt lat="43.19207" lon="2.63404">
        <ele>112.290165</ele>
        <time>2023-01-05T14:06:47.949Z</time>
      </trkpt>
      <trkpt lat="43.19206" lon="2.63421">
        <ele>112.218255</ele>
        <time>2023-01-05T14:06:49.958Z</time>
      </trkpt>
      <trkpt lat="43.19205" lon="2.63437">
        <ele>112.151684</ele>
        <time>2023-01-05T14:06:51.963Z</time>
      </trkpt>
      <trkpt lat="43.19204" lon="2.63453">
        <ele>112.140245</ele>
        <time>2023-01-05T14:06:53.947Z</time>
      </trkpt>
      <trkpt lat="43.19202" lon="2.63468">
        <ele>112.179721</ele>
        <time>2023-01-05T14:06:55.957Z</time>
      </trkpt>
      <trkpt lat="43.19201" lon="2.63484">
        <ele>112.221229</ele>
        <time>2023-01-05T14:06:57.957Z</time>
      </trkpt>
      <trkpt lat="43.192" lon="2.63501">
        <ele>112.263541</ele>
        <time>2023-01-05T14:06:59.958Z</time>
      </trkpt>
      <trkpt lat="43.19199" lon="2.63518">
        <ele>112.3073</ele>
        <time>2023-01-05T14:07:01.947Z</time>
      </trkpt>
      <trkpt lat="43.19197" lon="2.63534">
        <ele>112.349825</ele>
        <time>2023-01-05T14:07:03.957Z</time>
      </trkpt>
      <trkpt lat="43.19196" lon="2.63551">
        <ele>112.393839</ele>
        <time>2023-01-05T14:07:05.961Z</time>
      </trkpt>
      <trkpt lat="43.19194" lon="2.63568">
        <ele>112.436912</ele>
        <time>2023-01-05T14:07:07.935Z</time>
      </trkpt>
      <trkpt lat="43.19192" lon="2.63585">
        <ele>112.481649</ele>
        <time>2023-01-05T14:07:09.948Z</time>
      </trkpt>
      <trkpt lat="43.19191" lon="2.63602">
        <ele>112.525626</ele>
        <time>2023-01-05T14:07:11.956Z</time>
      </trkpt>
      <trkpt lat="43.19189" lon="2.63619">
        <ele>112.568955</ele>
        <time>2023-01-05T14:07:13.952Z</time>
      </trkpt>
      <trkpt lat="43.19187" lon="2.63635">
        <ele>112.611078</ele>
        <time>2023-01-05T14:07:15.960Z</time>
      </trkpt>
      <trkpt lat="43.19184" lon="2.63652">
        <ele>112.655119</ele>
        <time>2023-01-05T14:07:17.953Z</time>
      </trkpt>
      <trkpt lat="43.19182" lon="2.63669">
        <ele>112.700522</ele>
        <time>2023-01-05T14:07:19.959Z</time>
      </trkpt>
      <trkpt lat="43.1918" lon="2.63687">
        <ele>112.745354</ele>
        <time>2023-01-05T14:07:21.951Z</time>
      </trkpt>
      <trkpt lat="43.19178" lon="2.63703">
        <ele>112.763054</ele>
        <time>2023-01-05T14:07:23.955Z</time>
      </trkpt>
      <trkpt lat="43.19176" lon="2.6372">
        <ele>112.777552</ele>
        <time>2023-01-05T14:07:25.950Z</time>
      </trkpt>
      <trkpt lat="43.19173" lon="2.63737">
        <ele>112.792559</ele>
        <time>2023-01-05T14:07:27.938Z</time>
      </trkpt>
      <trkpt lat="43.1917" lon="2.63754">
        <ele>112.807141</ele>
        <time>2023-01-05T14:07:29.955Z</time>
      </trkpt>
      <trkpt lat="43.19167" lon="2.63771">
        <ele>112.821933</ele>
        <time>2023-01-05T14:07:31.958Z</time>
      </trkpt>
      <trkpt lat="43.19164" lon="2.63788">
        <ele>112.83664</ele>
        <time>2023-01-05T14:07:33.950Z</time>
      </trkpt>
      <trkpt lat="43.19161" lon="2.63805">
        <ele>112.851156</ele>
        <time>2023-01-05T14:07:35.964Z</time>
      </trkpt>
      <trkpt lat="43.19158" lon="2.63823">
        <ele>112.866303</ele>
        <time>2023-01-05T14:07:37.952Z</time>
      </trkpt>
      <trkpt lat="43.19155" lon="2.6384">
        <ele>112.881237</ele>
        <time>2023-01-05T14:07:39.958Z</time>
      </trkpt>
      <trkpt lat="43.19152" lon="2.63857">
        <ele>112.895704</ele>
        <time>2023-01-05T14:07:41.953Z</time>
      </trkpt>
      <trkpt lat="43.19148" lon="2.63873">
        <ele>112.909928</ele>
        <time>2023-01-05T14:07:43.953Z</time>
      </trkpt>
      <trkpt lat="43.19146" lon="2.63887">
        <ele>112.922538</ele>
        <time>2023-01-05T14:07:45.975Z</time>
      </trkpt>
      <trkpt lat="43.19142" lon="2.63902">
        <ele>112.935301</ele>
        <time>2023-01-05T14:07:47.968Z</time>
      </trkpt>
      <trkpt lat="43.19139" lon="2.63917">
        <ele>112.948268</ele>
        <time>2023-01-05T14:07:49.956Z</time>
      </trkpt>
      <trkpt lat="43.19136" lon="2.63931">
        <ele>112.976069</ele>
        <time>2023-01-05T14:07:51.958Z</time>
      </trkpt>
      <trkpt lat="43.19133" lon="2.63944">
        <ele>113.058324</ele>
        <time>2023-01-05T14:07:53.961Z</time>
      </trkpt>
      <trkpt lat="43.19131" lon="2.63958">
        <ele>113.144181</ele>
        <time>2023-01-05T14:07:55.958Z</time>
      </trkpt>
      <trkpt lat="43.19128" lon="2.63972">
        <ele>113.228425</ele>
        <time>2023-01-05T14:07:57.958Z</time>
      </trkpt>
      <trkpt lat="43.19124" lon="2.63987">
        <ele>113.319358</ele>
        <time>2023-01-05T14:07:59.953Z</time>
      </trkpt>
      <trkpt lat="43.19121" lon="2.64001">
        <ele>113.408762</ele>
        <time>2023-01-05T14:08:01.950Z</time>
      </trkpt>
      <trkpt lat="43.19117" lon="2.64016">
        <ele>113.502437</ele>
        <time>2023-01-05T14:08:03.961Z</time>
      </trkpt>
      <trkpt lat="43.19113" lon="2.64031">
        <ele>113.598883</ele>
        <time>2023-01-05T14:08:05.958Z</time>
      </trkpt>
      <trkpt lat="43.19109" lon="2.64046">
        <ele>113.693759</ele>
        <time>2023-01-05T14:08:07.959Z</time>
      </trkpt>
      <trkpt lat="43.19106" lon="2.64061">
        <ele>113.785255</ele>
        <time>2023-01-05T14:08:09.958Z</time>
      </trkpt>
      <trkpt lat="43.19101" lon="2.64075">
        <ele>113.878063</ele>
        <time>2023-01-05T14:08:11.959Z</time>
      </trkpt>
      <trkpt lat="43.19098" lon="2.6409">
        <ele>113.967574</ele>
        <time>2023-01-05T14:08:13.959Z</time>
      </trkpt>
      <trkpt lat="43.19093" lon="2.64106">
        <ele>114.069304</ele>
        <time>2023-01-05T14:08:15.964Z</time>
      </trkpt>
      <trkpt lat="43.19089" lon="2.64121">
        <ele>114.165144</ele>
        <time>2023-01-05T14:08:17.951Z</time>
      </trkpt>
      <trkpt lat="43.19085" lon="2.64135">
        <ele>114.255214</ele>
        <time>2023-01-05T14:08:19.946Z</time>
      </trkpt>
      <trkpt lat="43.19081" lon="2.64149">
        <ele>114.344993</ele>
        <time>2023-01-05T14:08:21.961Z</time>
      </trkpt>
      <trkpt lat="43.19078" lon="2.64163">
        <ele>114.433736</ele>
        <time>2023-01-05T14:08:23.937Z</time>
      </trkpt>
      <trkpt lat="43.19074" lon="2.64176">
        <ele>114.545225</ele>
        <time>2023-01-05T14:08:25.956Z</time>
      </trkpt>
      <trkpt lat="43.1907" lon="2.64188">
        <ele>114.656195</ele>
        <time>2023-01-05T14:08:27.960Z</time>
      </trkpt>
      <trkpt lat="43.19066" lon="2.64202">
        <ele>114.771488</ele>
        <time>2023-01-05T14:08:29.949Z</time>
      </trkpt>
      <trkpt lat="43.19062" lon="2.64215">
        <ele>114.886143</ele>
        <time>2023-01-05T14:08:31.963Z</time>
      </trkpt>
      <trkpt lat="43.19058" lon="2.64229">
        <ele>115.007155</ele>
        <time>2023-01-05T14:08:33.963Z</time>
      </trkpt>
      <trkpt lat="43.19053" lon="2.64243">
        <ele>115.131986</ele>
        <time>2023-01-05T14:08:35.959Z</time>
      </trkpt>
      <trkpt lat="43.19049" lon="2.64257">
        <ele>115.253122</ele>
        <time>2023-01-05T14:08:37.951Z</time>
      </trkpt>
      <trkpt lat="43.19044" lon="2.6427">
        <ele>115.375621</ele>
        <time>2023-01-05T14:08:39.955Z</time>
      </trkpt>
      <trkpt lat="43.19038" lon="2.64284">
        <ele>115.501583</ele>
        <time>2023-01-05T14:08:41.957Z</time>
      </trkpt>
      <trkpt lat="43.19033" lon="2.64298">
        <ele>115.629167</ele>
        <time>2023-01-05T14:08:43.954Z</time>
      </trkpt>
      <trkpt lat="43.19028" lon="2.64312">
        <ele>115.750453</ele>
        <time>2023-01-05T14:08:45.946Z</time>
      </trkpt>
      <trkpt lat="43.19023" lon="2.64326">
        <ele>115.877065</ele>
        <time>2023-01-05T14:08:47.962Z</time>
      </trkpt>
      <trkpt lat="43.19018" lon="2.64341">
        <ele>116.008254</ele>
        <time>2023-01-05T14:08:49.961Z</time>
      </trkpt>
      <trkpt lat="43.19013" lon="2.64355">
        <ele>116.138457</ele>
        <time>2023-01-05T14:08:51.950Z</time>
      </trkpt>
      <trkpt lat="43.19008" lon="2.64371">
        <ele>116.276413</ele>
        <time>2023-01-05T14:08:53.960Z</time>
      </trkpt>
      <trkpt lat="43.19003" lon="2.64386">
        <ele>116.403871</ele>
        <time>2023-01-05T14:08:55.966Z</time>
      </trkpt>
      <trkpt lat="43.18998" lon="2.64401">
        <ele>116.431319</ele>
        <time>2023-01-05T14:08:57.963Z</time>
      </trkpt>
      <trkpt lat="43.18993" lon="2.64416">
        <ele>116.45802</ele>
        <time>2023-01-05T14:08:59.971Z</time>
      </trkpt>
      <trkpt lat="43.18987" lon="2.64431">
        <ele>116.485266</ele>
        <time>2023-01-05T14:09:01.949Z</time>
      </trkpt>
      <trkpt lat="43.18982" lon="2.64443">
        <ele>116.509514</ele>
        <time>2023-01-05T14:09:03.961Z</time>
      </trkpt>
      <trkpt lat="43.18978" lon="2.64457">
        <ele>116.533904</ele>
        <time>2023-01-05T14:09:05.956Z</time>
      </trkpt>
      <trkpt lat="43.18972" lon="2.64471">
        <ele>116.559881</ele>
        <time>2023-01-05T14:09:07.958Z</time>
      </trkpt>
      <trkpt lat="43.18967" lon="2.64484">
        <ele>116.584562</ele>
        <time>2023-01-05T14:09:09.955Z</time>
      </trkpt>
      <trkpt lat="43.18962" lon="2.64498">
        <ele>116.609979</ele>
        <time>2023-01-05T14:09:11.959Z</time>
      </trkpt>
      <trkpt lat="43.18958" lon="2.64512">
        <ele>116.63525</ele>
        <time>2023-01-05T14:09:13.937Z</time>
      </trkpt>
      <trkpt lat="43.18953" lon="2.64526">
        <ele>116.661423</ele>
        <time>2023-01-05T14:09:15.957Z</time>
      </trkpt>
      <trkpt lat="43.18948" lon="2.64541">
        <ele>116.687656</ele>
        <time>2023-01-05T14:09:17.953Z</time>
      </trkpt>
      <trkpt lat="43.18944" lon="2.64556">
        <ele>116.714017</ele>
        <time>2023-01-05T14:09:19.953Z</time>
      </trkpt>
      <trkpt lat="43.18939" lon="2.6457">
        <ele>116.74077</ele>
        <time>2023-01-05T14:09:21.960Z</time>
      </trkpt>
      <trkpt lat="43.18934" lon="2.64585">
        <ele>116.766914</ele>
        <time>2023-01-05T14:09:23.969Z</time>
      </trkpt>
      <trkpt lat="43.18929" lon="2.64599">
        <ele>116.793289</ele>
        <time>2023-01-05T14:09:25.961Z</time>
      </trkpt>
      <trkpt lat="43.18923" lon="2.64613">
        <ele>116.836249</ele>
        <time>2023-01-05T14:09:27.962Z</time>
      </trkpt>
      <trkpt lat="43.18917" lon="2.64628">
        <ele>116.900428</ele>
        <time>2023-01-05T14:09:29.961Z</time>
      </trkpt>
      <trkpt lat="43.18912" lon="2.64642">
        <ele>116.961764</ele>
        <time>2023-01-05T14:09:31.951Z</time>
      </trkpt>
      <trkpt lat="43.18907" lon="2.64656">
        <ele>117.025783</ele>
        <time>2023-01-05T14:09:33.967Z</time>
      </trkpt>
      <trkpt lat="43.18902" lon="2.64671">
        <ele>117.089801</ele>
        <time>2023-01-05T14:09:35.956Z</time>
      </trkpt>
      <trkpt lat="43.18897" lon="2.64685">
        <ele>117.149104</ele>
        <time>2023-01-05T14:09:37.953Z</time>
      </trkpt>
      <trkpt lat="43.18892" lon="2.64698">
        <ele>117.208452</ele>
        <time>2023-01-05T14:09:39.956Z</time>
      </trkpt>
      <trkpt lat="43.18887" lon="2.64711">
        <ele>117.26398</ele>
        <time>2023-01-05T14:09:41.944Z</time>
      </trkpt>
      <trkpt lat="43.18883" lon="2.64723">
        <ele>117.316365</ele>
        <time>2023-01-05T14:09:43.950Z</time>
      </trkpt>
      <trkpt lat="43.18879" lon="2.64735">
        <ele>117.372131</ele>
        <time>2023-01-05T14:09:45.951Z</time>
      </trkpt>
      <trkpt lat="43.18874" lon="2.64749">
        <ele>117.430961</ele>
        <time>2023-01-05T14:09:47.940Z</time>
      </trkpt>
      <trkpt lat="43.18869" lon="2.64763">
        <ele>117.489918</ele>
        <time>2023-01-05T14:09:49.942Z</time>
      </trkpt>
      <trkpt lat="43.18865" lon="2.64776">
        <ele>117.548518</ele>
        <time>2023-01-05T14:09:51.953Z</time>
      </trkpt>
      <trkpt lat="43.1886" lon="2.64789">
        <ele>117.607961</ele>
        <time>2023-01-05T14:09:53.949Z</time>
      </trkpt>
      <trkpt lat="43.18855" lon="2.64803">
        <ele>117.667309</ele>
        <time>2023-01-05T14:09:55.965Z</time>
      </trkpt>
      <trkpt lat="43.1885" lon="2.64818">
        <ele>117.730163</ele>
        <time>2023-01-05T14:09:57.964Z</time>
      </trkpt>
      <trkpt lat="43.18845" lon="2.64832">
        <ele>117.765295</ele>
        <time>2023-01-05T14:09:59.965Z</time>
      </trkpt>
      <trkpt lat="43.1884" lon="2.64846">
        <ele>117.703927</ele>
        <time>2023-01-05T14:10:01.967Z</time>
      </trkpt>
      <trkpt lat="43.18835" lon="2.64861">
        <ele>117.642063</ele>
        <time>2023-01-05T14:10:03.965Z</time>
      </trkpt>
      <trkpt lat="43.1883" lon="2.64876">
        <ele>117.580028</ele>
        <time>2023-01-05T14:10:05.959Z</time>
      </trkpt>
      <trkpt lat="43.18825" lon="2.6489">
        <ele>117.521411</ele>
        <time>2023-01-05T14:10:07.952Z</time>
      </trkpt>
      <trkpt lat="43.1882" lon="2.64904">
        <ele>117.461562</ele>
        <time>2023-01-05T14:10:09.962Z</time>
      </trkpt>
      <trkpt lat="43.18815" lon="2.64916">
        <ele>117.40815</ele>
        <time>2023-01-05T14:10:11.966Z</time>
      </trkpt>
      <trkpt lat="43.18811" lon="2.64929">
        <ele>117.355136</ele>
        <time>2023-01-05T14:10:13.952Z</time>
      </trkpt>
      <trkpt lat="43.18806" lon="2.64942">
        <ele>117.300072</ele>
        <time>2023-01-05T14:10:15.959Z</time>
      </trkpt>
      <trkpt lat="43.18801" lon="2.64955">
        <ele>117.242563</ele>
        <time>2023-01-05T14:10:17.966Z</time>
      </trkpt>
      <trkpt lat="43.18797" lon="2.64969">
        <ele>117.184673</ele>
        <time>2023-01-05T14:10:19.963Z</time>
      </trkpt>
      <trkpt lat="43.18792" lon="2.64983">
        <ele>117.125609</ele>
        <time>2023-01-05T14:10:21.962Z</time>
      </trkpt>
      <trkpt lat="43.18787" lon="2.64997">
        <ele>117.067305</ele>
        <time>2023-01-05T14:10:23.955Z</time>
      </trkpt>
      <trkpt lat="43.18782" lon="2.65011">
        <ele>117.004813</ele>
        <time>2023-01-05T14:10:25.938Z</time>
      </trkpt>
      <trkpt lat="43.18777" lon="2.65026">
        <ele>116.942552</ele>
        <time>2023-01-05T14:10:27.960Z</time>
      </trkpt>
      <trkpt lat="43.18771" lon="2.65041">
        <ele>116.87925</ele>
        <time>2023-01-05T14:10:29.957Z</time>
      </trkpt>
      <trkpt lat="43.18766" lon="2.65056">
        <ele>116.83895</ele>
        <time>2023-01-05T14:10:31.961Z</time>
      </trkpt>
      <trkpt lat="43.1876" lon="2.65071">
        <ele>116.838994</ele>
        <time>2023-01-05T14:10:33.953Z</time>
      </trkpt>
      <trkpt lat="43.18755" lon="2.65085">
        <ele>116.839036</ele>
        <time>2023-01-05T14:10:35.955Z</time>
      </trkpt>
      <trkpt lat="43.1875" lon="2.65099">
        <ele>116.839078</ele>
        <time>2023-01-05T14:10:37.968Z</time>
      </trkpt>
      <trkpt lat="43.18745" lon="2.65113">
        <ele>116.839119</ele>
        <time>2023-01-05T14:10:39.954Z</time>
      </trkpt>
      <trkpt lat="43.1874" lon="2.65126">
        <ele>116.839158</ele>
        <time>2023-01-05T14:10:41.957Z</time>
      </trkpt>
      <trkpt lat="43.18736" lon="2.6514">
        <ele>116.839197</ele>
        <time>2023-01-05T14:10:43.942Z</time>
      </trkpt>
      <trkpt lat="43.18731" lon="2.65154">
        <ele>116.839239</ele>
        <time>2023-01-05T14:10:45.964Z</time>
      </trkpt>
      <trkpt lat="43.18727" lon="2.65169">
        <ele>116.83928</ele>
        <time>2023-01-05T14:10:47.967Z</time>
      </trkpt>
      <trkpt lat="43.18721" lon="2.65184">
        <ele>116.839324</ele>
        <time>2023-01-05T14:10:49.962Z</time>
      </trkpt>
      <trkpt lat="43.18716" lon="2.65199">
        <ele>116.839368</ele>
        <time>2023-01-05T14:10:51.959Z</time>
      </trkpt>
      <trkpt lat="43.1871" lon="2.65214">
        <ele>116.839412</ele>
        <time>2023-01-05T14:10:53.948Z</time>
      </trkpt>
      <trkpt lat="43.18705" lon="2.65229">
        <ele>116.839456</ele>
        <time>2023-01-05T14:10:55.961Z</time>
      </trkpt>
      <trkpt lat="43.187" lon="2.65244">
        <ele>116.839501</ele>
        <time>2023-01-05T14:10:57.963Z</time>
      </trkpt>
      <trkpt lat="43.18695" lon="2.65259">
        <ele>116.839544</ele>
        <time>2023-01-05T14:10:59.957Z</time>
      </trkpt>
      <trkpt lat="43.1869" lon="2.65273">
        <ele>116.84117</ele>
        <time>2023-01-05T14:11:01.963Z</time>
      </trkpt>
      <trkpt lat="43.18685" lon="2.65286">
        <ele>116.976716</ele>
        <time>2023-01-05T14:11:03.981Z</time>
      </trkpt>
      <trkpt lat="43.1868" lon="2.653">
        <ele>117.113687</ele>
        <time>2023-01-05T14:11:05.936Z</time>
      </trkpt>
      <trkpt lat="43.18676" lon="2.65313">
        <ele>117.243028</ele>
        <time>2023-01-05T14:11:07.957Z</time>
      </trkpt>
      <trkpt lat="43.18672" lon="2.65326">
        <ele>117.373416</ele>
        <time>2023-01-05T14:11:09.959Z</time>
      </trkpt>
      <trkpt lat="43.18668" lon="2.6534">
        <ele>117.507129</ele>
        <time>2023-01-05T14:11:11.963Z</time>
      </trkpt>
      <trkpt lat="43.18663" lon="2.65353">
        <ele>117.645941</ele>
        <time>2023-01-05T14:11:13.965Z</time>
      </trkpt>
      <trkpt lat="43.18657" lon="2.65366">
        <ele>117.778704</ele>
        <time>2023-01-05T14:11:15.957Z</time>
      </trkpt>
      <trkpt lat="43.18652" lon="2.6538">
        <ele>117.917042</ele>
        <time>2023-01-05T14:11:17.961Z</time>
      </trkpt>
      <trkpt lat="43.18648" lon="2.65393">
        <ele>118.050713</ele>
        <time>2023-01-05T14:11:19.938Z</time>
      </trkpt>
      <trkpt lat="43.18643" lon="2.65407">
        <ele>118.185524</ele>
        <time>2023-01-05T14:11:21.963Z</time>
      </trkpt>
      <trkpt lat="43.18638" lon="2.65421">
        <ele>118.325697</ele>
        <time>2023-01-05T14:11:23.955Z</time>
      </trkpt>
      <trkpt lat="43.18633" lon="2.65435">
        <ele>118.466687</ele>
        <time>2023-01-05T14:11:25.950Z</time>
      </trkpt>
      <trkpt lat="43.18628" lon="2.65448">
        <ele>118.607434</ele>
        <time>2023-01-05T14:11:27.954Z</time>
      </trkpt>
      <trkpt lat="43.18624" lon="2.65462">
        <ele>118.744095</ele>
        <time>2023-01-05T14:11:29.949Z</time>
      </trkpt>
      <trkpt lat="43.18618" lon="2.65476">
        <ele>118.888418</ele>
        <time>2023-01-05T14:11:31.957Z</time>
      </trkpt>
      <trkpt lat="43.18613" lon="2.6549">
        <ele>119.02273</ele>
        <time>2023-01-05T14:11:33.949Z</time>
      </trkpt>
      <trkpt lat="43.18609" lon="2.65503">
        <ele>119.186527</ele>
        <time>2023-01-05T14:11:35.949Z</time>
      </trkpt>
      <trkpt lat="43.18604" lon="2.65516">
        <ele>119.370147</ele>
        <time>2023-01-05T14:11:37.957Z</time>
      </trkpt>
      <trkpt lat="43.18599" lon="2.65529">
        <ele>119.548483</ele>
        <time>2023-01-05T14:11:39.940Z</time>
      </trkpt>
      <trkpt lat="43.18595" lon="2.65541">
        <ele>119.716832</ele>
        <time>2023-01-05T14:11:41.932Z</time>
      </trkpt>
      <trkpt lat="43.18591" lon="2.65553">
        <ele>119.880303</ele>
        <time>2023-01-05T14:11:43.951Z</time>
      </trkpt>
      <trkpt lat="43.18588" lon="2.65565">
        <ele>120.039488</ele>
        <time>2023-01-05T14:11:45.957Z</time>
      </trkpt>
      <trkpt lat="43.18584" lon="2.65578">
        <ele>120.203897</ele>
        <time>2023-01-05T14:11:47.938Z</time>
      </trkpt>
      <trkpt lat="43.1858" lon="2.6559">
        <ele>120.367275</ele>
        <time>2023-01-05T14:11:49.966Z</time>
      </trkpt>
      <trkpt lat="43.18577" lon="2.65602">
        <ele>120.525644</ele>
        <time>2023-01-05T14:11:51.958Z</time>
      </trkpt>
      <trkpt lat="43.18572" lon="2.65615">
        <ele>120.700778</ele>
        <time>2023-01-05T14:11:53.956Z</time>
      </trkpt>
      <trkpt lat="43.18569" lon="2.65627">
        <ele>120.859437</ele>
        <time>2023-01-05T14:11:55.953Z</time>
      </trkpt>
      <trkpt lat="43.18564" lon="2.65642">
        <ele>121.068882</ele>
        <time>2023-01-05T14:11:58.950Z</time>
      </trkpt>
      <trkpt lat="43.1856" lon="2.65657">
        <ele>121.27335</ele>
        <time>2023-01-05T14:12:01.953Z</time>
      </trkpt>
      <trkpt lat="43.18556" lon="2.65674">
        <ele>121.484832</ele>
        <time>2023-01-05T14:12:04.946Z</time>
      </trkpt>
      <trkpt lat="43.18552" lon="2.6569">
        <ele>121.699202</ele>
        <time>2023-01-05T14:12:07.966Z</time>
      </trkpt>
      <trkpt lat="43.18547" lon="2.65707">
        <ele>121.917025</ele>
        <time>2023-01-05T14:12:10.964Z</time>
      </trkpt>
      <trkpt lat="43.18542" lon="2.65723">
        <ele>122.128514</ele>
        <time>2023-01-05T14:12:13.945Z</time>
      </trkpt>
      <trkpt lat="43.18538" lon="2.6574">
        <ele>122.181723</ele>
        <time>2023-01-05T14:12:16.954Z</time>
      </trkpt>
      <trkpt lat="43.18535" lon="2.65757">
        <ele>122.233419</ele>
        <time>2023-01-05T14:12:19.964Z</time>
      </trkpt>
      <trkpt lat="43.18531" lon="2.65773">
        <ele>122.286038</ele>
        <time>2023-01-05T14:12:22.949Z</time>
      </trkpt>
      <trkpt lat="43.18526" lon="2.6579">
        <ele>122.339945</ele>
        <time>2023-01-05T14:12:25.964Z</time>
      </trkpt>
      <trkpt lat="43.18522" lon="2.65802">
        <ele>122.379058</ele>
        <time>2023-01-05T14:12:27.965Z</time>
      </trkpt>
      <trkpt lat="43.1852" lon="2.65814">
        <ele>122.416547</ele>
        <time>2023-01-05T14:12:29.956Z</time>
      </trkpt>
      <trkpt lat="43.18517" lon="2.65826">
        <ele>122.45397</ele>
        <time>2023-01-05T14:12:31.962Z</time>
      </trkpt>
      <trkpt lat="43.18513" lon="2.65839">
        <ele>122.494209</ele>
        <time>2023-01-05T14:12:33.959Z</time>
      </trkpt>
      <trkpt lat="43.18511" lon="2.65852">
        <ele>122.534578</ele>
        <time>2023-01-05T14:12:35.969Z</time>
      </trkpt>
      <trkpt lat="43.18508" lon="2.65865">
        <ele>122.576803</ele>
        <time>2023-01-05T14:12:37.960Z</time>
      </trkpt>
      <trkpt lat="43.18505" lon="2.65879">
        <ele>122.618903</ele>
        <time>2023-01-05T14:12:39.960Z</time>
      </trkpt>
      <trkpt lat="43.18502" lon="2.65892">
        <ele>122.660881</ele>
        <time>2023-01-05T14:12:41.961Z</time>
      </trkpt>
      <trkpt lat="43.18498" lon="2.65906">
        <ele>122.704366</ele>
        <time>2023-01-05T14:12:43.965Z</time>
      </trkpt>
      <trkpt lat="43.18494" lon="2.65919">
        <ele>122.747732</ele>
        <time>2023-01-05T14:12:45.951Z</time>
      </trkpt>
      <trkpt lat="43.18491" lon="2.65933">
        <ele>122.791548</ele>
        <time>2023-01-05T14:12:47.961Z</time>
      </trkpt>
      <trkpt lat="43.18488" lon="2.65947">
        <ele>122.833526</ele>
        <time>2023-01-05T14:12:49.949Z</time>
      </trkpt>
      <trkpt lat="43.18485" lon="2.6596">
        <ele>122.869602</ele>
        <time>2023-01-05T14:12:51.960Z</time>
      </trkpt>
      <trkpt lat="43.18482" lon="2.65973">
        <ele>122.890384</ele>
        <time>2023-01-05T14:12:53.955Z</time>
      </trkpt>
      <trkpt lat="43.18479" lon="2.65986">
        <ele>122.910942</ele>
        <time>2023-01-05T14:12:55.967Z</time>
      </trkpt>
      <trkpt lat="43.18476" lon="2.66">
        <ele>122.931912</ele>
        <time>2023-01-05T14:12:57.963Z</time>
      </trkpt>
      <trkpt lat="43.18473" lon="2.66011">
        <ele>122.951254</ele>
        <time>2023-01-05T14:12:59.959Z</time>
      </trkpt>
      <trkpt lat="43.1847" lon="2.66025">
        <ele>122.972962</ele>
        <time>2023-01-05T14:13:01.961Z</time>
      </trkpt>
      <trkpt lat="43.18466" lon="2.66039">
        <ele>122.994569</ele>
        <time>2023-01-05T14:13:03.956Z</time>
      </trkpt>
      <trkpt lat="43.18463" lon="2.66053">
        <ele>123.016769</ele>
        <time>2023-01-05T14:13:05.959Z</time>
      </trkpt>
      <trkpt lat="43.1846" lon="2.66066">
        <ele>123.038368</ele>
        <time>2023-01-05T14:13:07.942Z</time>
      </trkpt>
      <trkpt lat="43.18456" lon="2.66081">
        <ele>123.062096</ele>
        <time>2023-01-05T14:13:09.956Z</time>
      </trkpt>
      <trkpt lat="43.18452" lon="2.66095">
        <ele>123.084756</ele>
        <time>2023-01-05T14:13:11.936Z</time>
      </trkpt>
      <trkpt lat="43.18449" lon="2.66111">
        <ele>123.108785</ele>
        <time>2023-01-05T14:13:13.957Z</time>
      </trkpt>
      <trkpt lat="43.18446" lon="2.66126">
        <ele>123.132779</ele>
        <time>2023-01-05T14:13:15.965Z</time>
      </trkpt>
      <trkpt lat="43.18442" lon="2.66141">
        <ele>123.156441</ele>
        <time>2023-01-05T14:13:17.958Z</time>
      </trkpt>
      <trkpt lat="43.18439" lon="2.66156">
        <ele>123.180841</ele>
        <time>2023-01-05T14:13:19.962Z</time>
      </trkpt>
      <trkpt lat="43.18435" lon="2.66173">
        <ele>123.207118</ele>
        <time>2023-01-05T14:13:21.953Z</time>
      </trkpt>
      <trkpt lat="43.18431" lon="2.66189">
        <ele>123.232693</ele>
        <time>2023-01-05T14:13:23.966Z</time>
      </trkpt>
      <trkpt lat="43.18428" lon="2.66205">
        <ele>123.263495</ele>
        <time>2023-01-05T14:13:25.966Z</time>
      </trkpt>
      <trkpt lat="43.18424" lon="2.66222">
        <ele>123.295011</ele>
        <time>2023-01-05T14:13:27.960Z</time>
      </trkpt>
      <trkpt lat="43.1842" lon="2.66238">
        <ele>123.326653</ele>
        <time>2023-01-05T14:13:29.953Z</time>
      </trkpt>
      <trkpt lat="43.18416" lon="2.66255">
        <ele>123.359128</ele>
        <time>2023-01-05T14:13:31.950Z</time>
      </trkpt>
      <trkpt lat="43.18413" lon="2.66271">
        <ele>123.390896</ele>
        <time>2023-01-05T14:13:33.956Z</time>
      </trkpt>
      <trkpt lat="43.18409" lon="2.66287">
        <ele>123.42237</ele>
        <time>2023-01-05T14:13:35.945Z</time>
      </trkpt>
      <trkpt lat="43.18405" lon="2.66303">
        <ele>123.453784</ele>
        <time>2023-01-05T14:13:37.971Z</time>
      </trkpt>
      <trkpt lat="43.184" lon="2.66319">
        <ele>123.485346</ele>
        <time>2023-01-05T14:13:39.963Z</time>
      </trkpt>
      <trkpt lat="43.18396" lon="2.66334">
        <ele>123.515799</ele>
        <time>2023-01-05T14:13:41.959Z</time>
      </trkpt>
      <trkpt lat="43.18392" lon="2.6635">
        <ele>123.54606</ele>
        <time>2023-01-05T14:13:43.964Z</time>
      </trkpt>
      <trkpt lat="43.18388" lon="2.66366">
        <ele>123.577198</ele>
        <time>2023-01-05T14:13:45.963Z</time>
      </trkpt>
      <trkpt lat="43.18385" lon="2.66382">
        <ele>123.607655</ele>
        <time>2023-01-05T14:13:47.958Z</time>
      </trkpt>
      <trkpt lat="43.18381" lon="2.66398">
        <ele>123.638522</ele>
        <time>2023-01-05T14:13:49.954Z</time>
      </trkpt>
      <trkpt lat="43.18377" lon="2.66414">
        <ele>123.670338</ele>
        <time>2023-01-05T14:13:51.964Z</time>
      </trkpt>
      <trkpt lat="43.18373" lon="2.66428">
        <ele>123.726338</ele>
        <time>2023-01-05T14:13:53.938Z</time>
      </trkpt>
      <trkpt lat="43.1837" lon="2.66443">
        <ele>123.861725</ele>
        <time>2023-01-05T14:13:55.962Z</time>
      </trkpt>
      <trkpt lat="43.18366" lon="2.66457">
        <ele>123.996818</ele>
        <time>2023-01-05T14:13:57.961Z</time>
      </trkpt>
      <trkpt lat="43.18363" lon="2.66471">
        <ele>124.127169</ele>
        <time>2023-01-05T14:13:59.953Z</time>
      </trkpt>
      <trkpt lat="43.18359" lon="2.66485">
        <ele>124.255868</ele>
        <time>2023-01-05T14:14:01.937Z</time>
      </trkpt>
      <trkpt lat="43.18355" lon="2.66498">
        <ele>124.384973</ele>
        <time>2023-01-05T14:14:03.962Z</time>
      </trkpt>
      <trkpt lat="43.18352" lon="2.66513">
        <ele>124.523826</ele>
        <time>2023-01-05T14:14:05.935Z</time>
      </trkpt>
      <trkpt lat="43.18348" lon="2.66528">
        <ele>124.662133</ele>
        <time>2023-01-05T14:14:07.939Z</time>
      </trkpt>
      <trkpt lat="43.18345" lon="2.66543">
        <ele>124.803181</ele>
        <time>2023-01-05T14:14:09.957Z</time>
      </trkpt>
      <trkpt lat="43.18341" lon="2.66558">
        <ele>124.939379</ele>
        <time>2023-01-05T14:14:11.964Z</time>
      </trkpt>
      <trkpt lat="43.18338" lon="2.66572">
        <ele>125.073766</ele>
        <time>2023-01-05T14:14:13.954Z</time>
      </trkpt>
      <trkpt lat="43.18335" lon="2.66588">
        <ele>125.217568</ele>
        <time>2023-01-05T14:14:15.959Z</time>
      </trkpt>
      <trkpt lat="43.18332" lon="2.66602">
        <ele>125.350112</ele>
        <time>2023-01-05T14:14:17.937Z</time>
      </trkpt>
      <trkpt lat="43.18329" lon="2.66617">
        <ele>125.490181</ele>
        <time>2023-01-05T14:14:19.954Z</time>
      </trkpt>
      <trkpt lat="43.18325" lon="2.66632">
        <ele>125.630156</ele>
        <time>2023-01-05T14:14:21.951Z</time>
      </trkpt>
      <trkpt lat="43.18321" lon="2.66648">
        <ele>125.778906</ele>
        <time>2023-01-05T14:14:23.951Z</time>
      </trkpt>
      <trkpt lat="43.18317" lon="2.66663">
        <ele>125.92949</ele>
        <time>2023-01-05T14:14:25.961Z</time>
      </trkpt>
      <trkpt lat="43.18314" lon="2.66677">
        <ele>126.107221</ele>
        <time>2023-01-05T14:14:27.954Z</time>
      </trkpt>
      <trkpt lat="43.1831" lon="2.66693">
        <ele>126.302921</ele>
        <time>2023-01-05T14:14:29.962Z</time>
      </trkpt>
      <trkpt lat="43.18306" lon="2.66708">
        <ele>126.480664</ele>
        <time>2023-01-05T14:14:31.957Z</time>
      </trkpt>
      <trkpt lat="43.18303" lon="2.66723">
        <ele>126.663375</ele>
        <time>2023-01-05T14:14:33.961Z</time>
      </trkpt>
      <trkpt lat="43.18299" lon="2.66737">
        <ele>126.84221</ele>
        <time>2023-01-05T14:14:35.963Z</time>
      </trkpt>
      <trkpt lat="43.18295" lon="2.66751">
        <ele>127.007986</ele>
        <time>2023-01-05T14:14:37.973Z</time>
      </trkpt>
      <trkpt lat="43.18291" lon="2.66765">
        <ele>127.181471</ele>
        <time>2023-01-05T14:14:39.965Z</time>
      </trkpt>
      <trkpt lat="43.18288" lon="2.66778">
        <ele>127.340339</ele>
        <time>2023-01-05T14:14:41.950Z</time>
      </trkpt>
      <trkpt lat="43.18286" lon="2.66792">
        <ele>127.510858</ele>
        <time>2023-01-05T14:14:43.958Z</time>
      </trkpt>
      <trkpt lat="43.18282" lon="2.66806">
        <ele>127.681527</ele>
        <time>2023-01-05T14:14:45.963Z</time>
      </trkpt>
      <trkpt lat="43.18279" lon="2.6682">
        <ele>127.851763</ele>
        <time>2023-01-05T14:14:47.967Z</time>
      </trkpt>
      <trkpt lat="43.18276" lon="2.66835">
        <ele>128.028617</ele>
        <time>2023-01-05T14:14:49.959Z</time>
      </trkpt>
      <trkpt lat="43.18272" lon="2.6685">
        <ele>128.208153</ele>
        <time>2023-01-05T14:14:51.966Z</time>
      </trkpt>
      <trkpt lat="43.18269" lon="2.66864">
        <ele>128.383776</ele>
        <time>2023-01-05T14:14:53.956Z</time>
      </trkpt>
      <trkpt lat="43.18266" lon="2.66879">
        <ele>128.560684</ele>
        <time>2023-01-05T14:14:55.939Z</time>
      </trkpt>
      <trkpt lat="43.18263" lon="2.66893">
        <ele>128.732021</ele>
        <time>2023-01-05T14:14:57.963Z</time>
      </trkpt>
      <trkpt lat="43.18258" lon="2.66907">
        <ele>128.768425</ele>
        <time>2023-01-05T14:14:59.957Z</time>
      </trkpt>
      <trkpt lat="43.18255" lon="2.66922">
        <ele>128.800363</ele>
        <time>2023-01-05T14:15:01.962Z</time>
      </trkpt>
      <trkpt lat="43.18252" lon="2.66937">
        <ele>128.83152</ele>
        <time>2023-01-05T14:15:03.965Z</time>
      </trkpt>
      <trkpt lat="43.18248" lon="2.66953">
        <ele>128.864097</ele>
        <time>2023-01-05T14:15:05.958Z</time>
      </trkpt>
      <trkpt lat="43.18244" lon="2.66968">
        <ele>128.896861</ele>
        <time>2023-01-05T14:15:07.964Z</time>
      </trkpt>
      <trkpt lat="43.1824" lon="2.66984">
        <ele>128.928664</ele>
        <time>2023-01-05T14:15:09.957Z</time>
      </trkpt>
      <trkpt lat="43.18237" lon="2.66999">
        <ele>128.959937</ele>
        <time>2023-01-05T14:15:11.957Z</time>
      </trkpt>
      <trkpt lat="43.18234" lon="2.67013">
        <ele>128.988848</ele>
        <time>2023-01-05T14:15:13.935Z</time>
      </trkpt>
      <trkpt lat="43.1823" lon="2.67027">
        <ele>129.018173</ele>
        <time>2023-01-05T14:15:15.949Z</time>
      </trkpt>
      <trkpt lat="43.18227" lon="2.67041">
        <ele>129.047222</ele>
        <time>2023-01-05T14:15:17.969Z</time>
      </trkpt>
      <trkpt lat="43.18224" lon="2.67055">
        <ele>129.076401</ele>
        <time>2023-01-05T14:15:19.961Z</time>
      </trkpt>
      <trkpt lat="43.1822" lon="2.67069">
        <ele>129.105999</ele>
        <time>2023-01-05T14:15:21.957Z</time>
      </trkpt>
      <trkpt lat="43.18216" lon="2.67084">
        <ele>129.1371</ele>
        <time>2023-01-05T14:15:23.961Z</time>
      </trkpt>
      <trkpt lat="43.18212" lon="2.671">
        <ele>129.170709</ele>
        <time>2023-01-05T14:15:25.967Z</time>
      </trkpt>
      <trkpt lat="43.18208" lon="2.67116">
        <ele>129.204186</ele>
        <time>2023-01-05T14:15:27.964Z</time>
      </trkpt>
      <trkpt lat="43.18204" lon="2.67132">
        <ele>129.201635</ele>
        <time>2023-01-05T14:15:29.963Z</time>
      </trkpt>
      <trkpt lat="43.18201" lon="2.67147">
        <ele>129.104755</ele>
        <time>2023-01-05T14:15:31.946Z</time>
      </trkpt>
      <trkpt lat="43.18198" lon="2.67163">
        <ele>129.011477</ele>
        <time>2023-01-05T14:15:33.967Z</time>
      </trkpt>
      <trkpt lat="43.18194" lon="2.67178">
        <ele>128.918829</ele>
        <time>2023-01-05T14:15:35.963Z</time>
      </trkpt>
      <trkpt lat="43.1819" lon="2.67193">
        <ele>128.822889</ele>
        <time>2023-01-05T14:15:37.959Z</time>
      </trkpt>
      <trkpt lat="43.18187" lon="2.67208">
        <ele>128.729371</ele>
        <time>2023-01-05T14:15:39.966Z</time>
      </trkpt>
      <trkpt lat="43.18183" lon="2.67224">
        <ele>128.63497</ele>
        <time>2023-01-05T14:15:41.964Z</time>
      </trkpt>
      <trkpt lat="43.1818" lon="2.67239">
        <ele>128.538726</ele>
        <time>2023-01-05T14:15:43.964Z</time>
      </trkpt>
      <trkpt lat="43.18176" lon="2.67254">
        <ele>128.447502</ele>
        <time>2023-01-05T14:15:45.963Z</time>
      </trkpt>
      <trkpt lat="43.18172" lon="2.6727">
        <ele>128.348526</ele>
        <time>2023-01-05T14:15:47.963Z</time>
      </trkpt>
      <trkpt lat="43.18168" lon="2.67285">
        <ele>128.253888</ele>
        <time>2023-01-05T14:15:49.958Z</time>
      </trkpt>
      <trkpt lat="43.18165" lon="2.673">
        <ele>128.16117</ele>
        <time>2023-01-05T14:15:51.960Z</time>
      </trkpt>
      <trkpt lat="43.18162" lon="2.67317">
        <ele>128.063474</ele>
        <time>2023-01-05T14:15:53.953Z</time>
      </trkpt>
      <trkpt lat="43.18158" lon="2.67333">
        <ele>127.962515</ele>
        <time>2023-01-05T14:15:55.949Z</time>
      </trkpt>
      <trkpt lat="43.18153" lon="2.67349">
        <ele>127.859711</ele>
        <time>2023-01-05T14:15:57.963Z</time>
      </trkpt>
      <trkpt lat="43.18149" lon="2.67367">
        <ele>127.74173</ele>
        <time>2023-01-05T14:15:59.960Z</time>
      </trkpt>
      <trkpt lat="43.18144" lon="2.67385">
        <ele>127.58846</ele>
        <time>2023-01-05T14:16:01.958Z</time>
      </trkpt>
      <trkpt lat="43.1814" lon="2.67403">
        <ele>127.439932</ele>
        <time>2023-01-05T14:16:03.963Z</time>
      </trkpt>
      <trkpt lat="43.18135" lon="2.67422">
        <ele>127.280434</ele>
        <time>2023-01-05T14:16:05.960Z</time>
      </trkpt>
      <trkpt lat="43.1813" lon="2.67441">
        <ele>127.123515</ele>
        <time>2023-01-05T14:16:07.944Z</time>
      </trkpt>
      <trkpt lat="43.18126" lon="2.67461">
        <ele>126.963445</ele>
        <time>2023-01-05T14:16:09.964Z</time>
      </trkpt>
      <trkpt lat="43.18121" lon="2.6748">
        <ele>126.804631</ele>
        <time>2023-01-05T14:16:11.951Z</time>
      </trkpt>
      <trkpt lat="43.18116" lon="2.675">
        <ele>126.639929</ele>
        <time>2023-01-05T14:16:13.963Z</time>
      </trkpt>
      <trkpt lat="43.18112" lon="2.6752">
        <ele>126.4773</ele>
        <time>2023-01-05T14:16:15.961Z</time>
      </trkpt>
      <trkpt lat="43.18107" lon="2.67539">
        <ele>126.31542</ele>
        <time>2023-01-05T14:16:17.965Z</time>
      </trkpt>
      <trkpt lat="43.18103" lon="2.67559">
        <ele>126.151721</ele>
        <time>2023-01-05T14:16:19.963Z</time>
      </trkpt>
      <trkpt lat="43.18098" lon="2.67579">
        <ele>125.986275</ele>
        <time>2023-01-05T14:16:21.963Z</time>
      </trkpt>
      <trkpt lat="43.18094" lon="2.67599">
        <ele>125.836934</ele>
        <time>2023-01-05T14:16:23.952Z</time>
      </trkpt>
      <trkpt lat="43.1809" lon="2.67619">
        <ele>125.768403</ele>
        <time>2023-01-05T14:16:25.964Z</time>
      </trkpt>
      <trkpt lat="43.18086" lon="2.67639">
        <ele>125.699957</ele>
        <time>2023-01-05T14:16:27.959Z</time>
      </trkpt>
      <trkpt lat="43.18083" lon="2.67658">
        <ele>125.634624</ele>
        <time>2023-01-05T14:16:29.938Z</time>
      </trkpt>
      <trkpt lat="43.1808" lon="2.67679">
        <ele>125.564525</ele>
        <time>2023-01-05T14:16:31.954Z</time>
      </trkpt>
      <trkpt lat="43.18077" lon="2.67699">
        <ele>125.495725</ele>
        <time>2023-01-05T14:16:33.952Z</time>
      </trkpt>
      <trkpt lat="43.18074" lon="2.6772">
        <ele>125.426865</ele>
        <time>2023-01-05T14:16:35.954Z</time>
      </trkpt>
      <trkpt lat="43.18071" lon="2.6774">
        <ele>125.358065</ele>
        <time>2023-01-05T14:16:37.958Z</time>
      </trkpt>
      <trkpt lat="43.18068" lon="2.67762">
        <ele>125.285535</ele>
        <time>2023-01-05T14:16:39.957Z</time>
      </trkpt>
      <trkpt lat="43.18065" lon="2.67783">
        <ele>125.213712</ele>
        <time>2023-01-05T14:16:41.950Z</time>
      </trkpt>
      <trkpt lat="43.18063" lon="2.67804">
        <ele>125.141629</ele>
        <time>2023-01-05T14:16:43.959Z</time>
      </trkpt>
      <trkpt lat="43.18061" lon="2.67825">
        <ele>125.0721</ele>
        <time>2023-01-05T14:16:45.959Z</time>
      </trkpt>
      <trkpt lat="43.18059" lon="2.67846">
        <ele>125.154461</ele>
        <time>2023-01-05T14:16:47.959Z</time>
      </trkpt>
      <trkpt lat="43.18058" lon="2.67866">
        <ele>125.488186</ele>
        <time>2023-01-05T14:16:49.956Z</time>
      </trkpt>
      <trkpt lat="43.18057" lon="2.67886">
        <ele>125.818261</ele>
        <time>2023-01-05T14:16:51.959Z</time>
      </trkpt>
      <trkpt lat="43.18056" lon="2.67905">
        <ele>126.12818</ele>
        <time>2023-01-05T14:16:53.959Z</time>
      </trkpt>
      <trkpt lat="43.18056" lon="2.67923">
        <ele>126.429378</ele>
        <time>2023-01-05T14:16:55.962Z</time>
      </trkpt>
      <trkpt lat="43.18056" lon="2.67941">
        <ele>126.717385</ele>
        <time>2023-01-05T14:16:57.955Z</time>
      </trkpt>
      <trkpt lat="43.18056" lon="2.67957">
        <ele>126.995546</ele>
        <time>2023-01-05T14:16:59.957Z</time>
      </trkpt>
      <trkpt lat="43.18055" lon="2.67974">
        <ele>127.264402</ele>
        <time>2023-01-05T14:17:01.953Z</time>
      </trkpt>
      <trkpt lat="43.18055" lon="2.67989">
        <ele>127.521172</ele>
        <time>2023-01-05T14:17:03.966Z</time>
      </trkpt>
      <trkpt lat="43.18055" lon="2.68004">
        <ele>127.766392</ele>
        <time>2023-01-05T14:17:05.961Z</time>
      </trkpt>
      <trkpt lat="43.18056" lon="2.68018">
        <ele>127.998612</ele>
        <time>2023-01-05T14:17:07.953Z</time>
      </trkpt>
      <trkpt lat="43.18056" lon="2.68032">
        <ele>128.217909</ele>
        <time>2023-01-05T14:17:09.967Z</time>
      </trkpt>
      <trkpt lat="43.18057" lon="2.68044">
        <ele>128.424857</ele>
        <time>2023-01-05T14:17:11.962Z</time>
      </trkpt>
      <trkpt lat="43.18058" lon="2.68057">
        <ele>128.630713</ele>
        <time>2023-01-05T14:17:13.955Z</time>
      </trkpt>
      <trkpt lat="43.18059" lon="2.68069">
        <ele>128.835789</ele>
        <time>2023-01-05T14:17:15.962Z</time>
      </trkpt>
      <trkpt lat="43.18061" lon="2.68086">
        <ele>129.146634</ele>
        <time>2023-01-05T14:17:18.958Z</time>
      </trkpt>
      <trkpt lat="43.18063" lon="2.68102">
        <ele>129.641878</ele>
        <time>2023-01-05T14:17:21.962Z</time>
      </trkpt>
      <trkpt lat="43.18064" lon="2.68118">
        <ele>130.10471</ele>
        <time>2023-01-05T14:17:24.933Z</time>
      </trkpt>
      <trkpt lat="43.18066" lon="2.68133">
        <ele>130.566619</ele>
        <time>2023-01-05T14:17:27.939Z</time>
      </trkpt>
      <trkpt lat="43.18067" lon="2.68147">
        <ele>131.011975</ele>
        <time>2023-01-05T14:17:30.962Z</time>
      </trkpt>
      <trkpt lat="43.18069" lon="2.68161">
        <ele>131.431623</ele>
        <time>2023-01-05T14:17:33.939Z</time>
      </trkpt>
      <trkpt lat="43.1807" lon="2.68174">
        <ele>131.831222</ele>
        <time>2023-01-05T14:17:36.965Z</time>
      </trkpt>
      <trkpt lat="43.18071" lon="2.68188">
        <ele>132.240786</ele>
        <time>2023-01-05T14:17:39.949Z</time>
      </trkpt>
      <trkpt lat="43.18073" lon="2.68203">
        <ele>132.695041</ele>
        <time>2023-01-05T14:17:43.964Z</time>
      </trkpt>
      <trkpt lat="43.18075" lon="2.68216">
        <ele>133.108161</ele>
        <time>2023-01-05T14:17:47.942Z</time>
      </trkpt>
      <trkpt lat="43.18077" lon="2.68231">
        <ele>133.553531</ele>
        <time>2023-01-05T14:17:51.959Z</time>
      </trkpt>
      <trkpt lat="43.18078" lon="2.68245">
        <ele>133.98272</ele>
        <time>2023-01-05T14:17:55.967Z</time>
      </trkpt>
      <trkpt lat="43.18079" lon="2.6826">
        <ele>134.423409</ele>
        <time>2023-01-05T14:17:59.964Z</time>
      </trkpt>
      <trkpt lat="43.1808" lon="2.68274">
        <ele>134.87129</ele>
        <time>2023-01-05T14:18:03.962Z</time>
      </trkpt>
      <trkpt lat="43.18082" lon="2.68289">
        <ele>135.319172</ele>
        <time>2023-01-05T14:18:07.965Z</time>
      </trkpt>
      <trkpt lat="43.18082" lon="2.68304">
        <ele>135.776638</ele>
        <time>2023-01-05T14:18:11.965Z</time>
      </trkpt>
      <trkpt lat="43.18084" lon="2.68319">
        <ele>136.226641</ele>
        <time>2023-01-05T14:18:15.962Z</time>
      </trkpt>
      <trkpt lat="43.18086" lon="2.68334">
        <ele>136.628402</ele>
        <time>2023-01-05T14:18:19.963Z</time>
      </trkpt>
      <trkpt lat="43.18087" lon="2.68349">
        <ele>136.923067</ele>
        <time>2023-01-05T14:18:23.947Z</time>
      </trkpt>
      <trkpt lat="43.18089" lon="2.68365">
        <ele>137.229002</ele>
        <time>2023-01-05T14:18:27.962Z</time>
      </trkpt>
      <trkpt lat="43.1809" lon="2.6838">
        <ele>137.526761</ele>
        <time>2023-01-05T14:18:31.962Z</time>
      </trkpt>
      <trkpt lat="43.18091" lon="2.68395">
        <ele>137.830031</ele>
        <time>2023-01-05T14:18:35.952Z</time>
      </trkpt>
      <trkpt lat="43.18092" lon="2.68407">
        <ele>138.072674</ele>
        <time>2023-01-05T14:18:38.946Z</time>
      </trkpt>
      <trkpt lat="43.18093" lon="2.6842">
        <ele>138.31946</ele>
        <time>2023-01-05T14:18:41.964Z</time>
      </trkpt>
      <trkpt lat="43.18095" lon="2.68436">
        <ele>138.637258</ele>
        <time>2023-01-05T14:18:45.933Z</time>
      </trkpt>
      <trkpt lat="43.18097" lon="2.68451">
        <ele>138.949828</ele>
        <time>2023-01-05T14:18:49.964Z</time>
      </trkpt>
      <trkpt lat="43.18099" lon="2.68467">
        <ele>139.266702</ele>
        <time>2023-01-05T14:18:53.973Z</time>
      </trkpt>
      <trkpt lat="43.18101" lon="2.68482">
        <ele>139.554509</ele>
        <time>2023-01-05T14:18:57.956Z</time>
      </trkpt>
      <trkpt lat="43.18103" lon="2.68497">
        <ele>139.860836</ele>
        <time>2023-01-05T14:19:01.961Z</time>
      </trkpt>
      <trkpt lat="43.18104" lon="2.68509">
        <ele>140.106848</ele>
        <time>2023-01-05T14:19:04.967Z</time>
      </trkpt>
      <trkpt lat="43.18105" lon="2.68522">
        <ele>140.350254</ele>
        <time>2023-01-05T14:19:07.958Z</time>
      </trkpt>
      <trkpt lat="43.18106" lon="2.68535">
        <ele>140.606756</ele>
        <time>2023-01-05T14:19:10.966Z</time>
      </trkpt>
      <trkpt lat="43.18108" lon="2.68548">
        <ele>140.867986</ele>
        <time>2023-01-05T14:19:13.940Z</time>
      </trkpt>
      <trkpt lat="43.18109" lon="2.68561">
        <ele>141.122543</ele>
        <time>2023-01-05T14:19:16.960Z</time>
      </trkpt>
      <trkpt lat="43.18111" lon="2.68574">
        <ele>141.371666</ele>
        <time>2023-01-05T14:19:19.963Z</time>
      </trkpt>
      <trkpt lat="43.18112" lon="2.68588">
        <ele>141.466851</ele>
        <time>2023-01-05T14:19:22.964Z</time>
      </trkpt>
      <trkpt lat="43.18114" lon="2.68602">
        <ele>141.568388</ele>
        <time>2023-01-05T14:19:25.932Z</time>
      </trkpt>
      <trkpt lat="43.18116" lon="2.68617">
        <ele>141.677467</ele>
        <time>2023-01-05T14:19:28.958Z</time>
      </trkpt>
      <trkpt lat="43.18117" lon="2.68633">
        <ele>141.794407</ele>
        <time>2023-01-05T14:19:31.951Z</time>
      </trkpt>
      <trkpt lat="43.18119" lon="2.6865">
        <ele>141.911907</ele>
        <time>2023-01-05T14:19:34.959Z</time>
      </trkpt>
      <trkpt lat="43.18121" lon="2.68664">
        <ele>142.016632</ele>
        <time>2023-01-05T14:19:37.966Z</time>
      </trkpt>
      <trkpt lat="43.18122" lon="2.68677">
        <ele>142.110693</ele>
        <time>2023-01-05T14:19:40.963Z</time>
      </trkpt>
      <trkpt lat="43.18123" lon="2.6869">
        <ele>142.199299</ele>
        <time>2023-01-05T14:19:43.968Z</time>
      </trkpt>
      <trkpt lat="43.18125" lon="2.68703">
        <ele>142.295187</ele>
        <time>2023-01-05T14:19:46.965Z</time>
      </trkpt>
      <trkpt lat="43.18126" lon="2.68718">
        <ele>142.403017</ele>
        <time>2023-01-05T14:19:49.957Z</time>
      </trkpt>
      <trkpt lat="43.18128" lon="2.68735">
        <ele>142.520963</ele>
        <time>2023-01-05T14:19:52.962Z</time>
      </trkpt>
      <trkpt lat="43.1813" lon="2.68751">
        <ele>142.639736</ele>
        <time>2023-01-05T14:19:55.962Z</time>
      </trkpt>
      <trkpt lat="43.18132" lon="2.68768">
        <ele>142.76274</ele>
        <time>2023-01-05T14:19:58.953Z</time>
      </trkpt>
      <trkpt lat="43.18133" lon="2.68786">
        <ele>142.886697</ele>
        <time>2023-01-05T14:20:01.963Z</time>
      </trkpt>
      <trkpt lat="43.18135" lon="2.68798">
        <ele>142.975558</ele>
        <time>2023-01-05T14:20:03.941Z</time>
      </trkpt>
      <trkpt lat="43.18136" lon="2.68811">
        <ele>143.068634</ele>
        <time>2023-01-05T14:20:05.971Z</time>
      </trkpt>
      <trkpt lat="43.18138" lon="2.68824">
        <ele>143.072377</ele>
        <time>2023-01-05T14:20:07.959Z</time>
      </trkpt>
      <trkpt lat="43.18139" lon="2.68839">
        <ele>143.008363</ele>
        <time>2023-01-05T14:20:09.956Z</time>
      </trkpt>
      <trkpt lat="43.1814" lon="2.68852">
        <ele>142.946627</ele>
        <time>2023-01-05T14:20:11.965Z</time>
      </trkpt>
      <trkpt lat="43.18142" lon="2.68866">
        <ele>142.885844</ele>
        <time>2023-01-05T14:20:13.956Z</time>
      </trkpt>
      <trkpt lat="43.18143" lon="2.68879">
        <ele>142.825134</ele>
        <time>2023-01-05T14:20:15.960Z</time>
      </trkpt>
      <trkpt lat="43.18144" lon="2.68893">
        <ele>142.764279</ele>
        <time>2023-01-05T14:20:17.939Z</time>
      </trkpt>
      <trkpt lat="43.18146" lon="2.68906">
        <ele>142.70694</ele>
        <time>2023-01-05T14:20:19.963Z</time>
      </trkpt>
      <trkpt lat="43.18147" lon="2.68918">
        <ele>142.65083</ele>
        <time>2023-01-05T14:20:21.939Z</time>
      </trkpt>
      <trkpt lat="43.18149" lon="2.68936">
        <ele>142.572143</ele>
        <time>2023-01-05T14:20:24.962Z</time>
      </trkpt>
      <trkpt lat="43.18151" lon="2.68953">
        <ele>142.493894</ele>
        <time>2023-01-05T14:20:27.959Z</time>
      </trkpt>
      <trkpt lat="43.18154" lon="2.6897">
        <ele>142.416865</ele>
        <time>2023-01-05T14:20:30.967Z</time>
      </trkpt>
      <trkpt lat="43.18158" lon="2.68988">
        <ele>142.334828</ele>
        <time>2023-01-05T14:20:33.963Z</time>
      </trkpt>
      <trkpt lat="43.18161" lon="2.69">
        <ele>142.278739</ele>
        <time>2023-01-05T14:20:35.937Z</time>
      </trkpt>
      <trkpt lat="43.18164" lon="2.69013">
        <ele>142.215336</ele>
        <time>2023-01-05T14:20:37.934Z</time>
      </trkpt>
      <trkpt lat="43.18167" lon="2.69028">
        <ele>142.149635</ele>
        <time>2023-01-05T14:20:39.956Z</time>
      </trkpt>
      <trkpt lat="43.18171" lon="2.69042">
        <ele>142.082525</ele>
        <time>2023-01-05T14:20:41.958Z</time>
      </trkpt>
      <trkpt lat="43.18175" lon="2.69057">
        <ele>142.011424</ele>
        <time>2023-01-05T14:20:43.953Z</time>
      </trkpt>
      <trkpt lat="43.1818" lon="2.69071">
        <ele>141.901214</ele>
        <time>2023-01-05T14:20:45.965Z</time>
      </trkpt>
      <trkpt lat="43.18185" lon="2.69087">
        <ele>141.785356</ele>
        <time>2023-01-05T14:20:47.963Z</time>
      </trkpt>
      <trkpt lat="43.1819" lon="2.69102">
        <ele>141.671091</ele>
        <time>2023-01-05T14:20:49.963Z</time>
      </trkpt>
      <trkpt lat="43.18196" lon="2.69116">
        <ele>141.562694</ele>
        <time>2023-01-05T14:20:51.966Z</time>
      </trkpt>
      <trkpt lat="43.18201" lon="2.69132">
        <ele>141.443296</ele>
        <time>2023-01-05T14:20:53.936Z</time>
      </trkpt>
      <trkpt lat="43.18207" lon="2.69147">
        <ele>141.324513</ele>
        <time>2023-01-05T14:20:55.960Z</time>
      </trkpt>
      <trkpt lat="43.18212" lon="2.69163">
        <ele>141.207532</ele>
        <time>2023-01-05T14:20:57.942Z</time>
      </trkpt>
      <trkpt lat="43.18217" lon="2.69178">
        <ele>141.093189</ele>
        <time>2023-01-05T14:20:59.952Z</time>
      </trkpt>
      <trkpt lat="43.18223" lon="2.69193">
        <ele>140.976236</ele>
        <time>2023-01-05T14:21:01.968Z</time>
      </trkpt>
      <trkpt lat="43.18228" lon="2.69209">
        <ele>140.856998</ele>
        <time>2023-01-05T14:21:03.957Z</time>
      </trkpt>
      <trkpt lat="43.18233" lon="2.69225">
        <ele>140.736792</ele>
        <time>2023-01-05T14:21:05.966Z</time>
      </trkpt>
      <trkpt lat="43.18239" lon="2.6924">
        <ele>140.621507</ele>
        <time>2023-01-05T14:21:07.956Z</time>
      </trkpt>
      <trkpt lat="43.18244" lon="2.69256">
        <ele>140.499452</ele>
        <time>2023-01-05T14:21:09.944Z</time>
      </trkpt>
      <trkpt lat="43.1825" lon="2.69272">
        <ele>140.379205</ele>
        <time>2023-01-05T14:21:11.952Z</time>
      </trkpt>
      <trkpt lat="43.18256" lon="2.69288">
        <ele>140.278364</ele>
        <time>2023-01-05T14:21:13.956Z</time>
      </trkpt>
      <trkpt lat="43.18262" lon="2.69304">
        <ele>140.19198</ele>
        <time>2023-01-05T14:21:15.960Z</time>
      </trkpt>
      <trkpt lat="43.18267" lon="2.6932">
        <ele>140.107908</ele>
        <time>2023-01-05T14:21:17.965Z</time>
      </trkpt>
      <trkpt lat="43.18273" lon="2.69337">
        <ele>140.015757</ele>
        <time>2023-01-05T14:21:19.961Z</time>
      </trkpt>
      <trkpt lat="43.18279" lon="2.69354">
        <ele>139.924471</ele>
        <time>2023-01-05T14:21:21.968Z</time>
      </trkpt>
      <trkpt lat="43.18285" lon="2.69371">
        <ele>139.832461</ele>
        <time>2023-01-05T14:21:23.964Z</time>
      </trkpt>
      <trkpt lat="43.18292" lon="2.69388">
        <ele>139.738862</ele>
        <time>2023-01-05T14:21:25.965Z</time>
      </trkpt>
      <trkpt lat="43.18298" lon="2.69405">
        <ele>139.644909</ele>
        <time>2023-01-05T14:21:27.966Z</time>
      </trkpt>
      <trkpt lat="43.18305" lon="2.69423">
        <ele>139.548134</ele>
        <time>2023-01-05T14:21:29.964Z</time>
      </trkpt>
      <trkpt lat="43.18311" lon="2.69442">
        <ele>139.449324</ele>
        <time>2023-01-05T14:21:31.967Z</time>
      </trkpt>
      <trkpt lat="43.18318" lon="2.6946">
        <ele>139.35096</ele>
        <time>2023-01-05T14:21:33.954Z</time>
      </trkpt>
      <trkpt lat="43.18325" lon="2.69478">
        <ele>139.253288</ele>
        <time>2023-01-05T14:21:35.962Z</time>
      </trkpt>
      <trkpt lat="43.18331" lon="2.69497">
        <ele>139.153902</ele>
        <time>2023-01-05T14:21:37.957Z</time>
      </trkpt>
      <trkpt lat="43.18337" lon="2.69515">
        <ele>139.103112</ele>
        <time>2023-01-05T14:21:39.957Z</time>
      </trkpt>
      <trkpt lat="43.18344" lon="2.69534">
        <ele>139.060485</ele>
        <time>2023-01-05T14:21:41.938Z</time>
      </trkpt>
      <trkpt lat="43.1835" lon="2.69552">
        <ele>139.018665</ele>
        <time>2023-01-05T14:21:43.948Z</time>
      </trkpt>
      <trkpt lat="43.18357" lon="2.6957">
        <ele>138.976412</ele>
        <time>2023-01-05T14:21:45.964Z</time>
      </trkpt>
      <trkpt lat="43.18363" lon="2.69588">
        <ele>138.935519</ele>
        <time>2023-01-05T14:21:47.957Z</time>
      </trkpt>
      <trkpt lat="43.1837" lon="2.69606">
        <ele>138.894149</ele>
        <time>2023-01-05T14:21:49.966Z</time>
      </trkpt>
      <trkpt lat="43.18376" lon="2.69623">
        <ele>138.853254</ele>
        <time>2023-01-05T14:21:51.957Z</time>
      </trkpt>
      <trkpt lat="43.18383" lon="2.69641">
        <ele>138.812383</ele>
        <time>2023-01-05T14:21:53.957Z</time>
      </trkpt>
      <trkpt lat="43.18388" lon="2.69659">
        <ele>138.773213</ele>
        <time>2023-01-05T14:21:55.952Z</time>
      </trkpt>
      <trkpt lat="43.18395" lon="2.69676">
        <ele>138.731929</ele>
        <time>2023-01-05T14:21:57.961Z</time>
      </trkpt>
      <trkpt lat="43.18402" lon="2.69695">
        <ele>138.689489</ele>
        <time>2023-01-05T14:21:59.964Z</time>
      </trkpt>
      <trkpt lat="43.18408" lon="2.69713">
        <ele>138.648102</ele>
        <time>2023-01-05T14:22:01.965Z</time>
      </trkpt>
      <trkpt lat="43.18414" lon="2.69731">
        <ele>138.64058</ele>
        <time>2023-01-05T14:22:03.956Z</time>
      </trkpt>
      <trkpt lat="43.18421" lon="2.69749">
        <ele>138.665246</ele>
        <time>2023-01-05T14:22:05.962Z</time>
      </trkpt>
      <trkpt lat="43.18427" lon="2.69767">
        <ele>138.688821</ele>
        <time>2023-01-05T14:22:07.955Z</time>
      </trkpt>
      <trkpt lat="43.18434" lon="2.69785">
        <ele>138.71272</ele>
        <time>2023-01-05T14:22:09.964Z</time>
      </trkpt>
      <trkpt lat="43.1844" lon="2.69802">
        <ele>138.736121</ele>
        <time>2023-01-05T14:22:11.933Z</time>
      </trkpt>
      <trkpt lat="43.18446" lon="2.6982">
        <ele>138.759732</ele>
        <time>2023-01-05T14:22:13.955Z</time>
      </trkpt>
      <trkpt lat="43.18453" lon="2.69837">
        <ele>138.782555</ele>
        <time>2023-01-05T14:22:15.961Z</time>
      </trkpt>
      <trkpt lat="43.18458" lon="2.69853">
        <ele>138.80458</ele>
        <time>2023-01-05T14:22:17.963Z</time>
      </trkpt>
      <trkpt lat="43.18465" lon="2.6987">
        <ele>138.826792</ele>
        <time>2023-01-05T14:22:19.964Z</time>
      </trkpt>
      <trkpt lat="43.1847" lon="2.69886">
        <ele>138.848458</ele>
        <time>2023-01-05T14:22:21.952Z</time>
      </trkpt>
      <trkpt lat="43.18476" lon="2.69902">
        <ele>138.869876</ele>
        <time>2023-01-05T14:22:23.961Z</time>
      </trkpt>
      <trkpt lat="43.18482" lon="2.69919">
        <ele>138.891831</ele>
        <time>2023-01-05T14:22:25.965Z</time>
      </trkpt>
      <trkpt lat="43.18487" lon="2.69935">
        <ele>138.913316</ele>
        <time>2023-01-05T14:22:27.959Z</time>
      </trkpt>
      <trkpt lat="43.18493" lon="2.69951">
        <ele>138.834066</ele>
        <time>2023-01-05T14:22:29.958Z</time>
      </trkpt>
      <trkpt lat="43.18499" lon="2.69967">
        <ele>138.649433</ele>
        <time>2023-01-05T14:22:31.954Z</time>
      </trkpt>
      <trkpt lat="43.18505" lon="2.69983">
        <ele>138.466291</ele>
        <time>2023-01-05T14:22:33.960Z</time>
      </trkpt>
      <trkpt lat="43.18511" lon="2.69998">
        <ele>138.282234</ele>
        <time>2023-01-05T14:22:35.962Z</time>
      </trkpt>
      <trkpt lat="43.18516" lon="2.70015">
        <ele>138.098195</ele>
        <time>2023-01-05T14:22:37.962Z</time>
      </trkpt>
      <trkpt lat="43.18522" lon="2.70031">
        <ele>137.910963</ele>
        <time>2023-01-05T14:22:39.965Z</time>
      </trkpt>
      <trkpt lat="43.18527" lon="2.70047">
        <ele>137.730917</ele>
        <time>2023-01-05T14:22:41.959Z</time>
      </trkpt>
      <trkpt lat="43.18532" lon="2.70064">
        <ele>137.538384</ele>
        <time>2023-01-05T14:22:43.962Z</time>
      </trkpt>
      <trkpt lat="43.18537" lon="2.70081">
        <ele>137.349257</ele>
        <time>2023-01-05T14:22:45.961Z</time>
      </trkpt>
      <trkpt lat="43.18542" lon="2.70099">
        <ele>137.152174</ele>
        <time>2023-01-05T14:22:47.942Z</time>
      </trkpt>
      <trkpt lat="43.18547" lon="2.70116">
        <ele>136.958942</ele>
        <time>2023-01-05T14:22:49.957Z</time>
      </trkpt>
      <trkpt lat="43.18553" lon="2.70134">
        <ele>136.758903</ele>
        <time>2023-01-05T14:22:51.960Z</time>
      </trkpt>
      <trkpt lat="43.18557" lon="2.70153">
        <ele>136.558443</ele>
        <time>2023-01-05T14:22:53.963Z</time>
      </trkpt>
      <trkpt lat="43.18562" lon="2.70171">
        <ele>136.348069</ele>
        <time>2023-01-05T14:22:55.954Z</time>
      </trkpt>
      <trkpt lat="43.18567" lon="2.70189">
        <ele>135.972307</ele>
        <time>2023-01-05T14:22:57.965Z</time>
      </trkpt>
      <trkpt lat="43.18571" lon="2.70208">
        <ele>135.601392</ele>
        <time>2023-01-05T14:22:59.958Z</time>
      </trkpt>
      <trkpt lat="43.18574" lon="2.70227">
        <ele>135.23036</ele>
        <time>2023-01-05T14:23:01.967Z</time>
      </trkpt>
      <trkpt lat="43.18578" lon="2.70247">
        <ele>134.838345</ele>
        <time>2023-01-05T14:23:03.967Z</time>
      </trkpt>
      <trkpt lat="43.18581" lon="2.70265">
        <ele>134.472312</ele>
        <time>2023-01-05T14:23:05.954Z</time>
      </trkpt>
      <trkpt lat="43.18585" lon="2.70285">
        <ele>134.087052</ele>
        <time>2023-01-05T14:23:07.954Z</time>
      </trkpt>
      <trkpt lat="43.18588" lon="2.70305">
        <ele>133.689282</ele>
        <time>2023-01-05T14:23:09.936Z</time>
      </trkpt>
      <trkpt lat="43.18591" lon="2.70326">
        <ele>133.29338</ele>
        <time>2023-01-05T14:23:11.973Z</time>
      </trkpt>
      <trkpt lat="43.18594" lon="2.70347">
        <ele>132.879131</ele>
        <time>2023-01-05T14:23:13.956Z</time>
      </trkpt>
      <trkpt lat="43.18597" lon="2.70368">
        <ele>132.472091</ele>
        <time>2023-01-05T14:23:15.967Z</time>
      </trkpt>
      <trkpt lat="43.18601" lon="2.7039">
        <ele>132.04095</ele>
        <time>2023-01-05T14:23:17.953Z</time>
      </trkpt>
      <trkpt lat="43.18604" lon="2.70411">
        <ele>131.635912</ele>
        <time>2023-01-05T14:23:19.959Z</time>
      </trkpt>
      <trkpt lat="43.18606" lon="2.70432">
        <ele>131.37214</ele>
        <time>2023-01-05T14:23:21.938Z</time>
      </trkpt>
      <trkpt lat="43.18608" lon="2.70453">
        <ele>131.101909</ele>
        <time>2023-01-05T14:23:23.966Z</time>
      </trkpt>
      <trkpt lat="43.18611" lon="2.70476">
        <ele>130.818047</ele>
        <time>2023-01-05T14:23:25.953Z</time>
      </trkpt>
      <trkpt lat="43.18614" lon="2.70498">
        <ele>130.539084</ele>
        <time>2023-01-05T14:23:27.964Z</time>
      </trkpt>
      <trkpt lat="43.18616" lon="2.70519">
        <ele>130.265882</ele>
        <time>2023-01-05T14:23:29.969Z</time>
      </trkpt>
      <trkpt lat="43.18618" lon="2.70539">
        <ele>130.007319</ele>
        <time>2023-01-05T14:23:31.967Z</time>
      </trkpt>
      <trkpt lat="43.1862" lon="2.70561">
        <ele>129.732326</ele>
        <time>2023-01-05T14:23:33.963Z</time>
      </trkpt>
      <trkpt lat="43.18622" lon="2.70582">
        <ele>129.462596</ele>
        <time>2023-01-05T14:23:35.956Z</time>
      </trkpt>
      <trkpt lat="43.18624" lon="2.70604">
        <ele>129.189062</ele>
        <time>2023-01-05T14:23:37.963Z</time>
      </trkpt>
      <trkpt lat="43.18626" lon="2.70625">
        <ele>128.924565</ele>
        <time>2023-01-05T14:23:39.967Z</time>
      </trkpt>
      <trkpt lat="43.18628" lon="2.70646">
        <ele>128.654335</ele>
        <time>2023-01-05T14:23:41.964Z</time>
      </trkpt>
      <trkpt lat="43.18631" lon="2.70666">
        <ele>128.355621</ele>
        <time>2023-01-05T14:23:43.955Z</time>
      </trkpt>
      <trkpt lat="43.18633" lon="2.70686">
        <ele>128.045953</ele>
        <time>2023-01-05T14:23:45.952Z</time>
      </trkpt>
      <trkpt lat="43.18635" lon="2.70706">
        <ele>127.740878</ele>
        <time>2023-01-05T14:23:47.962Z</time>
      </trkpt>
      <trkpt lat="43.18637" lon="2.70725">
        <ele>127.432428</ele>
        <time>2023-01-05T14:23:49.937Z</time>
      </trkpt>
      <trkpt lat="43.18639" lon="2.70745">
        <ele>127.13436</ele>
        <time>2023-01-05T14:23:51.961Z</time>
      </trkpt>
      <trkpt lat="43.18641" lon="2.70764">
        <ele>126.830498</ele>
        <time>2023-01-05T14:23:53.964Z</time>
      </trkpt>
      <trkpt lat="43.18643" lon="2.70783">
        <ele>126.526549</ele>
        <time>2023-01-05T14:23:55.966Z</time>
      </trkpt>
      <trkpt lat="43.18645" lon="2.70803">
        <ele>126.213184</ele>
        <time>2023-01-05T14:23:57.954Z</time>
      </trkpt>
      <trkpt lat="43.18648" lon="2.70825">
        <ele>125.880811</ele>
        <time>2023-01-05T14:23:59.970Z</time>
      </trkpt>
      <trkpt lat="43.18649" lon="2.70845">
        <ele>125.564315</ele>
        <time>2023-01-05T14:24:01.937Z</time>
      </trkpt>
      <trkpt lat="43.18652" lon="2.70865">
        <ele>125.246031</ele>
        <time>2023-01-05T14:24:03.950Z</time>
      </trkpt>
      <trkpt lat="43.18654" lon="2.70885">
        <ele>124.930237</ele>
        <time>2023-01-05T14:24:05.956Z</time>
      </trkpt>
      <trkpt lat="43.18656" lon="2.70906">
        <ele>124.620607</ele>
        <time>2023-01-05T14:24:07.961Z</time>
      </trkpt>
      <trkpt lat="43.18658" lon="2.70924">
        <ele>124.33736</ele>
        <time>2023-01-05T14:24:09.963Z</time>
      </trkpt>
      <trkpt lat="43.18659" lon="2.70944">
        <ele>124.036869</ele>
        <time>2023-01-05T14:24:11.963Z</time>
      </trkpt>
      <trkpt lat="43.18661" lon="2.70965">
        <ele>123.724555</ele>
        <time>2023-01-05T14:24:13.960Z</time>
      </trkpt>
      <trkpt lat="43.18663" lon="2.70984">
        <ele>123.435597</ele>
        <time>2023-01-05T14:24:15.957Z</time>
      </trkpt>
      <trkpt lat="43.18666" lon="2.71004">
        <ele>123.145708</ele>
        <time>2023-01-05T14:24:17.962Z</time>
      </trkpt>
      <trkpt lat="43.18668" lon="2.71022">
        <ele>122.865597</ele>
        <time>2023-01-05T14:24:19.953Z</time>
      </trkpt>
      <trkpt lat="43.1867" lon="2.71041">
        <ele>122.587463</ele>
        <time>2023-01-05T14:24:21.958Z</time>
      </trkpt>
      <trkpt lat="43.18672" lon="2.7106">
        <ele>122.301455</ele>
        <time>2023-01-05T14:24:23.963Z</time>
      </trkpt>
      <trkpt lat="43.18674" lon="2.71079">
        <ele>122.009254</ele>
        <time>2023-01-05T14:24:25.955Z</time>
      </trkpt>
      <trkpt lat="43.18676" lon="2.71099">
        <ele>121.712224</ele>
        <time>2023-01-05T14:24:27.962Z</time>
      </trkpt>
      <trkpt lat="43.18678" lon="2.71119">
        <ele>121.404681</ele>
        <time>2023-01-05T14:24:29.965Z</time>
      </trkpt>
      <trkpt lat="43.1868" lon="2.71139">
        <ele>121.115509</ele>
        <time>2023-01-05T14:24:31.962Z</time>
      </trkpt>
      <trkpt lat="43.18682" lon="2.71159">
        <ele>121.041533</ele>
        <time>2023-01-05T14:24:33.939Z</time>
      </trkpt>
      <trkpt lat="43.18684" lon="2.71179">
        <ele>121.005868</ele>
        <time>2023-01-05T14:24:35.966Z</time>
      </trkpt>
      <trkpt lat="43.18685" lon="2.71198">
        <ele>120.972244</ele>
        <time>2023-01-05T14:24:37.968Z</time>
      </trkpt>
      <trkpt lat="43.18688" lon="2.71217">
        <ele>120.937721</ele>
        <time>2023-01-05T14:24:39.954Z</time>
      </trkpt>
      <trkpt lat="43.18689" lon="2.71236">
        <ele>120.904272</ele>
        <time>2023-01-05T14:24:41.954Z</time>
      </trkpt>
      <trkpt lat="43.18691" lon="2.71255">
        <ele>120.870503</ele>
        <time>2023-01-05T14:24:43.959Z</time>
      </trkpt>
      <trkpt lat="43.18693" lon="2.71274">
        <ele>120.837955</ele>
        <time>2023-01-05T14:24:45.960Z</time>
      </trkpt>
      <trkpt lat="43.18695" lon="2.71291">
        <ele>120.806878</ele>
        <time>2023-01-05T14:24:47.967Z</time>
      </trkpt>
      <trkpt lat="43.18696" lon="2.71309">
        <ele>120.776354</ele>
        <time>2023-01-05T14:24:49.965Z</time>
      </trkpt>
      <trkpt lat="43.18697" lon="2.71326">
        <ele>120.746505</ele>
        <time>2023-01-05T14:24:51.936Z</time>
      </trkpt>
      <trkpt lat="43.18699" lon="2.71341">
        <ele>120.718416</ele>
        <time>2023-01-05T14:24:53.959Z</time>
      </trkpt>
      <trkpt lat="43.18701" lon="2.71357">
        <ele>120.690068</ele>
        <time>2023-01-05T14:24:55.944Z</time>
      </trkpt>
      <trkpt lat="43.18703" lon="2.71372">
        <ele>120.663361</ele>
        <time>2023-01-05T14:24:57.964Z</time>
      </trkpt>
      <trkpt lat="43.18704" lon="2.71386">
        <ele>120.642447</ele>
        <time>2023-01-05T14:24:59.953Z</time>
      </trkpt>
      <trkpt lat="43.18706" lon="2.714">
        <ele>120.7194</ele>
        <time>2023-01-05T14:25:01.957Z</time>
      </trkpt>
      <trkpt lat="43.18707" lon="2.71412">
        <ele>120.793657</ele>
        <time>2023-01-05T14:25:03.960Z</time>
      </trkpt>
      <trkpt lat="43.18708" lon="2.71425">
        <ele>120.866048</ele>
        <time>2023-01-05T14:25:05.936Z</time>
      </trkpt>
      <trkpt lat="43.1871" lon="2.71444">
        <ele>120.974117</ele>
        <time>2023-01-05T14:25:08.940Z</time>
      </trkpt>
      <trkpt lat="43.18711" lon="2.71457">
        <ele>121.048949</ele>
        <time>2023-01-05T14:25:10.953Z</time>
      </trkpt>
      <trkpt lat="43.18712" lon="2.7147">
        <ele>121.124055</ele>
        <time>2023-01-05T14:25:12.949Z</time>
      </trkpt>
      <trkpt lat="43.18714" lon="2.71488">
        <ele>121.226511</ele>
        <time>2023-01-05T14:25:15.937Z</time>
      </trkpt>
      <trkpt lat="43.18716" lon="2.71504">
        <ele>121.320243</ele>
        <time>2023-01-05T14:25:19.937Z</time>
      </trkpt>
      <trkpt lat="43.18718" lon="2.71518">
        <ele>121.402743</ele>
        <time>2023-01-05T14:25:22.958Z</time>
      </trkpt>
      <trkpt lat="43.18719" lon="2.71533">
        <ele>121.489595</ele>
        <time>2023-01-05T14:25:25.963Z</time>
      </trkpt>
      <trkpt lat="43.18721" lon="2.71549">
        <ele>121.581009</ele>
        <time>2023-01-05T14:25:28.955Z</time>
      </trkpt>
      <trkpt lat="43.18723" lon="2.71566">
        <ele>121.680035</ele>
        <time>2023-01-05T14:25:31.956Z</time>
      </trkpt>
      <trkpt lat="43.18724" lon="2.71583">
        <ele>121.780048</ele>
        <time>2023-01-05T14:25:34.939Z</time>
      </trkpt>
      <trkpt lat="43.18725" lon="2.71597">
        <ele>121.857152</ele>
        <time>2023-01-05T14:25:38.945Z</time>
      </trkpt>
      <trkpt lat="43.18726" lon="2.71598">
        <ele>121.86522</ele>
        <time>2023-01-05T14:26:06.264Z</time>
      </trkpt>
      <trkpt lat="43.18731" lon="2.71613">
        <ele>121.962657</ele>
        <time>2023-01-05T14:28:37.945Z</time>
      </trkpt>
      <trkpt lat="43.18733" lon="2.71626">
        <ele>122.034715</ele>
        <time>2023-01-05T14:28:41.957Z</time>
      </trkpt>
      <trkpt lat="43.18735" lon="2.71642">
        <ele>122.013356</ele>
        <time>2023-01-05T14:28:45.964Z</time>
      </trkpt>
      <trkpt lat="43.18736" lon="2.71658">
        <ele>121.970287</ele>
        <time>2023-01-05T14:28:49.938Z</time>
      </trkpt>
      <trkpt lat="43.18738" lon="2.71672">
        <ele>121.930756</ele>
        <time>2023-01-05T14:28:54.938Z</time>
      </trkpt>
      <trkpt lat="43.18739" lon="2.71684">
        <ele>121.897486</ele>
        <time>2023-01-05T14:28:57.946Z</time>
      </trkpt>
      <trkpt lat="43.1874" lon="2.71698">
        <ele>121.859617</ele>
        <time>2023-01-05T14:29:00.948Z</time>
      </trkpt>
      <trkpt lat="43.18742" lon="2.71712">
        <ele>121.822009</ele>
        <time>2023-01-05T14:29:03.948Z</time>
      </trkpt>
      <trkpt lat="43.18743" lon="2.71726">
        <ele>121.782405</ele>
        <time>2023-01-05T14:29:06.953Z</time>
      </trkpt>
      <trkpt lat="43.18745" lon="2.71742">
        <ele>121.740774</ele>
        <time>2023-01-05T14:29:09.941Z</time>
      </trkpt>
      <trkpt lat="43.18746" lon="2.71758">
        <ele>121.69647</ele>
        <time>2023-01-05T14:29:12.946Z</time>
      </trkpt>
      <trkpt lat="43.18748" lon="2.71775">
        <ele>121.651048</ele>
        <time>2023-01-05T14:29:15.948Z</time>
      </trkpt>
      <trkpt lat="43.18749" lon="2.71792">
        <ele>121.603305</ele>
        <time>2023-01-05T14:29:18.956Z</time>
      </trkpt>
      <trkpt lat="43.18751" lon="2.7181">
        <ele>121.554626</ele>
        <time>2023-01-05T14:29:21.952Z</time>
      </trkpt>
      <trkpt lat="43.18754" lon="2.71829">
        <ele>121.502992</ele>
        <time>2023-01-05T14:29:24.940Z</time>
      </trkpt>
      <trkpt lat="43.18756" lon="2.71841">
        <ele>121.468888</ele>
        <time>2023-01-05T14:29:26.954Z</time>
      </trkpt>
      <trkpt lat="43.18756" lon="2.71855">
        <ele>121.433198</ele>
        <time>2023-01-05T14:29:28.966Z</time>
      </trkpt>
      <trkpt lat="43.18757" lon="2.71867">
        <ele>121.399726</ele>
        <time>2023-01-05T14:29:30.937Z</time>
      </trkpt>
      <trkpt lat="43.18758" lon="2.7188">
        <ele>121.268153</ele>
        <time>2023-01-05T14:29:32.964Z</time>
      </trkpt>
      <trkpt lat="43.18759" lon="2.71893">
        <ele>121.050525</ele>
        <time>2023-01-05T14:29:34.953Z</time>
      </trkpt>
      <trkpt lat="43.1876" lon="2.71906">
        <ele>120.829592</ele>
        <time>2023-01-05T14:29:36.959Z</time>
      </trkpt>
      <trkpt lat="43.18761" lon="2.71918">
        <ele>120.62488</ele>
        <time>2023-01-05T14:29:38.947Z</time>
      </trkpt>
      <trkpt lat="43.18763" lon="2.71931">
        <ele>120.399082</ele>
        <time>2023-01-05T14:29:40.952Z</time>
      </trkpt>
      <trkpt lat="43.18764" lon="2.71948">
        <ele>120.113986</ele>
        <time>2023-01-05T14:29:43.952Z</time>
      </trkpt>
      <trkpt lat="43.18765" lon="2.71961">
        <ele>119.902944</ele>
        <time>2023-01-05T14:29:45.955Z</time>
      </trkpt>
      <trkpt lat="43.18767" lon="2.71973">
        <ele>119.695177</ele>
        <time>2023-01-05T14:29:47.944Z</time>
      </trkpt>
      <trkpt lat="43.18768" lon="2.71986">
        <ele>119.482498</ele>
        <time>2023-01-05T14:29:49.960Z</time>
      </trkpt>
      <trkpt lat="43.1877" lon="2.71999">
        <ele>119.262649</ele>
        <time>2023-01-05T14:29:51.961Z</time>
      </trkpt>
      <trkpt lat="43.18772" lon="2.72016">
        <ele>118.978297</ele>
        <time>2023-01-05T14:29:54.963Z</time>
      </trkpt>
      <trkpt lat="43.18773" lon="2.72029">
        <ele>118.76234</ele>
        <time>2023-01-05T14:29:56.942Z</time>
      </trkpt>
      <trkpt lat="43.18775" lon="2.72042">
        <ele>118.542172</ele>
        <time>2023-01-05T14:29:58.965Z</time>
      </trkpt>
      <trkpt lat="43.18776" lon="2.72055">
        <ele>118.320359</ele>
        <time>2023-01-05T14:30:00.967Z</time>
      </trkpt>
      <trkpt lat="43.18778" lon="2.7207">
        <ele>118.063646</ele>
        <time>2023-01-05T14:30:02.957Z</time>
      </trkpt>
      <trkpt lat="43.18779" lon="2.72085">
        <ele>117.80991</ele>
        <time>2023-01-05T14:30:04.964Z</time>
      </trkpt>
      <trkpt lat="43.18781" lon="2.72101">
        <ele>117.543984</ele>
        <time>2023-01-05T14:30:06.942Z</time>
      </trkpt>
      <trkpt lat="43.18783" lon="2.72118">
        <ele>117.269112</ele>
        <time>2023-01-05T14:30:08.966Z</time>
      </trkpt>
      <trkpt lat="43.18785" lon="2.72135">
        <ele>117.073595</ele>
        <time>2023-01-05T14:30:10.970Z</time>
      </trkpt>
      <trkpt lat="43.18786" lon="2.72151">
        <ele>116.883124</ele>
        <time>2023-01-05T14:30:12.954Z</time>
      </trkpt>
      <trkpt lat="43.18788" lon="2.72166">
        <ele>116.703401</ele>
        <time>2023-01-05T14:30:14.957Z</time>
      </trkpt>
      <trkpt lat="43.18789" lon="2.72183">
        <ele>116.50991</ele>
        <time>2023-01-05T14:30:16.952Z</time>
      </trkpt>
      <trkpt lat="43.18791" lon="2.72198">
        <ele>116.334062</ele>
        <time>2023-01-05T14:30:18.959Z</time>
      </trkpt>
      <trkpt lat="43.18793" lon="2.72214">
        <ele>116.144503</ele>
        <time>2023-01-05T14:30:20.954Z</time>
      </trkpt>
      <trkpt lat="43.18794" lon="2.72232">
        <ele>115.941023</ele>
        <time>2023-01-05T14:30:22.960Z</time>
      </trkpt>
      <trkpt lat="43.18796" lon="2.72247">
        <ele>115.7578</ele>
        <time>2023-01-05T14:30:24.965Z</time>
      </trkpt>
      <trkpt lat="43.18798" lon="2.72264">
        <ele>115.562748</ele>
        <time>2023-01-05T14:30:26.946Z</time>
      </trkpt>
      <trkpt lat="43.188" lon="2.7228">
        <ele>115.372495</ele>
        <time>2023-01-05T14:30:28.958Z</time>
      </trkpt>
      <trkpt lat="43.18801" lon="2.72297">
        <ele>115.174929</ele>
        <time>2023-01-05T14:30:30.965Z</time>
      </trkpt>
      <trkpt lat="43.18803" lon="2.72313">
        <ele>114.983925</ele>
        <time>2023-01-05T14:30:32.956Z</time>
      </trkpt>
      <trkpt lat="43.18804" lon="2.7233">
        <ele>114.790434</ele>
        <time>2023-01-05T14:30:34.959Z</time>
      </trkpt>
      <trkpt lat="43.18806" lon="2.72345">
        <ele>114.614587</ele>
        <time>2023-01-05T14:30:36.958Z</time>
      </trkpt>
      <trkpt lat="43.18808" lon="2.7236">
        <ele>114.437847</ele>
        <time>2023-01-05T14:30:38.938Z</time>
      </trkpt>
      <trkpt lat="43.18809" lon="2.72376">
        <ele>114.473133</ele>
        <time>2023-01-05T14:30:40.959Z</time>
      </trkpt>
      <trkpt lat="43.1881" lon="2.72392">
        <ele>114.51909</ele>
        <time>2023-01-05T14:30:42.965Z</time>
      </trkpt>
      <trkpt lat="43.18812" lon="2.72408">
        <ele>114.566341</ele>
        <time>2023-01-05T14:30:44.948Z</time>
      </trkpt>
      <trkpt lat="43.18814" lon="2.72423">
        <ele>114.610565</ele>
        <time>2023-01-05T14:30:46.962Z</time>
      </trkpt>
      <trkpt lat="43.18815" lon="2.72439">
        <ele>114.656948</ele>
        <time>2023-01-05T14:30:48.955Z</time>
      </trkpt>
      <trkpt lat="43.18817" lon="2.72454">
        <ele>114.701306</ele>
        <time>2023-01-05T14:30:50.967Z</time>
      </trkpt>
      <trkpt lat="43.18818" lon="2.7247">
        <ele>114.746071</ele>
        <time>2023-01-05T14:30:52.958Z</time>
      </trkpt>
      <trkpt lat="43.18819" lon="2.72485">
        <ele>114.789444</ele>
        <time>2023-01-05T14:30:54.961Z</time>
      </trkpt>
      <trkpt lat="43.18821" lon="2.72499">
        <ele>114.832949</ele>
        <time>2023-01-05T14:30:56.962Z</time>
      </trkpt>
      <trkpt lat="43.18823" lon="2.72514">
        <ele>114.877173</ele>
        <time>2023-01-05T14:30:58.959Z</time>
      </trkpt>
      <trkpt lat="43.18825" lon="2.72529">
        <ele>114.919398</ele>
        <time>2023-01-05T14:31:00.935Z</time>
      </trkpt>
      <trkpt lat="43.18826" lon="2.72543">
        <ele>114.960242</ele>
        <time>2023-01-05T14:31:02.960Z</time>
      </trkpt>
      <trkpt lat="43.18827" lon="2.72556">
        <ele>114.997366</ele>
        <time>2023-01-05T14:31:04.936Z</time>
      </trkpt>
      <trkpt lat="43.18829" lon="2.72569">
        <ele>115.036962</ele>
        <time>2023-01-05T14:31:06.958Z</time>
      </trkpt>
      <trkpt lat="43.1883" lon="2.72582">
        <ele>115.075775</ele>
        <time>2023-01-05T14:31:08.939Z</time>
      </trkpt>
      <trkpt lat="43.18831" lon="2.72596">
        <ele>115.116109</ele>
        <time>2023-01-05T14:31:10.943Z</time>
      </trkpt>
      <trkpt lat="43.18833" lon="2.7261">
        <ele>115.259207</ele>
        <time>2023-01-05T14:31:12.959Z</time>
      </trkpt>
      <trkpt lat="43.18834" lon="2.72623">
        <ele>115.605882</ele>
        <time>2023-01-05T14:31:14.970Z</time>
      </trkpt>
      <trkpt lat="43.18836" lon="2.72636">
        <ele>115.945</ele>
        <time>2023-01-05T14:31:16.955Z</time>
      </trkpt>
      <trkpt lat="43.18837" lon="2.72649">
        <ele>116.2816</ele>
        <time>2023-01-05T14:31:18.947Z</time>
      </trkpt>
      <trkpt lat="43.18839" lon="2.72662">
        <ele>116.615818</ele>
        <time>2023-01-05T14:31:20.968Z</time>
      </trkpt>
      <trkpt lat="43.18841" lon="2.72675">
        <ele>116.952533</ele>
        <time>2023-01-05T14:31:22.951Z</time>
      </trkpt>
      <trkpt lat="43.18844" lon="2.72693">
        <ele>117.426034</ele>
        <time>2023-01-05T14:31:25.960Z</time>
      </trkpt>
      <trkpt lat="43.18846" lon="2.72711">
        <ele>117.899005</ele>
        <time>2023-01-05T14:31:28.961Z</time>
      </trkpt>
      <trkpt lat="43.18849" lon="2.72727">
        <ele>118.322592</ele>
        <time>2023-01-05T14:31:31.948Z</time>
      </trkpt>
      <trkpt lat="43.18852" lon="2.72743">
        <ele>118.722167</ele>
        <time>2023-01-05T14:31:34.958Z</time>
      </trkpt>
      <trkpt lat="43.18856" lon="2.72756">
        <ele>119.088113</ele>
        <time>2023-01-05T14:31:37.963Z</time>
      </trkpt>
      <trkpt lat="43.18859" lon="2.72769">
        <ele>119.444318</ele>
        <time>2023-01-05T14:31:40.965Z</time>
      </trkpt>
      <trkpt lat="43.18863" lon="2.72782">
        <ele>119.798503</ele>
        <time>2023-01-05T14:31:43.966Z</time>
      </trkpt>
      <trkpt lat="43.18866" lon="2.72795">
        <ele>120.151113</ele>
        <time>2023-01-05T14:31:46.947Z</time>
      </trkpt>
      <trkpt lat="43.1887" lon="2.72807">
        <ele>120.482406</ele>
        <time>2023-01-05T14:31:49.945Z</time>
      </trkpt>
      <trkpt lat="43.18874" lon="2.72819">
        <ele>120.816427</ele>
        <time>2023-01-05T14:31:52.953Z</time>
      </trkpt>
      <trkpt lat="43.18877" lon="2.72831">
        <ele>121.135621</ele>
        <time>2023-01-05T14:31:55.954Z</time>
      </trkpt>
      <trkpt lat="43.18882" lon="2.72846">
        <ele>121.565608</ele>
        <time>2023-01-05T14:31:59.958Z</time>
      </trkpt>
      <trkpt lat="43.18886" lon="2.72859">
        <ele>122.000688</ele>
        <time>2023-01-05T14:32:03.966Z</time>
      </trkpt>
      <trkpt lat="43.18891" lon="2.72872">
        <ele>122.414128</ele>
        <time>2023-01-05T14:32:07.965Z</time>
      </trkpt>
      <trkpt lat="43.18896" lon="2.72884">
        <ele>122.807235</ele>
        <time>2023-01-05T14:32:11.966Z</time>
      </trkpt>
      <trkpt lat="43.18901" lon="2.72895">
        <ele>123.188905</ele>
        <time>2023-01-05T14:32:15.944Z</time>
      </trkpt>
      <trkpt lat="43.18906" lon="2.72907">
        <ele>123.591541</ele>
        <time>2023-01-05T14:32:19.963Z</time>
      </trkpt>
      <trkpt lat="43.18911" lon="2.72919">
        <ele>124.003749</ele>
        <time>2023-01-05T14:32:23.940Z</time>
      </trkpt>
      <trkpt lat="43.18917" lon="2.72932">
        <ele>124.432036</ele>
        <time>2023-01-05T14:32:27.961Z</time>
      </trkpt>
      <trkpt lat="43.18922" lon="2.72944">
        <ele>124.856353</ele>
        <time>2023-01-05T14:32:31.962Z</time>
      </trkpt>
      <trkpt lat="43.18927" lon="2.72957">
        <ele>125.280923</ele>
        <time>2023-01-05T14:32:35.963Z</time>
      </trkpt>
      <trkpt lat="43.18933" lon="2.72968">
        <ele>125.672082</ele>
        <time>2023-01-05T14:32:39.965Z</time>
      </trkpt>
      <trkpt lat="43.18939" lon="2.72979">
        <ele>126.084838</ele>
        <time>2023-01-05T14:32:43.952Z</time>
      </trkpt>
      <trkpt lat="43.18946" lon="2.7299">
        <ele>126.499378</ele>
        <time>2023-01-05T14:32:47.961Z</time>
      </trkpt>
      <trkpt lat="43.18953" lon="2.73001">
        <ele>126.932182</ele>
        <time>2023-01-05T14:32:51.970Z</time>
      </trkpt>
      <trkpt lat="43.1896" lon="2.73012">
        <ele>127.363344</ele>
        <time>2023-01-05T14:32:55.967Z</time>
      </trkpt>
      <trkpt lat="43.18967" lon="2.73023">
        <ele>127.793502</ele>
        <time>2023-01-05T14:32:59.955Z</time>
      </trkpt>
      <trkpt lat="43.18975" lon="2.73033">
        <ele>128.21129</ele>
        <time>2023-01-05T14:33:03.938Z</time>
      </trkpt>
      <trkpt lat="43.18982" lon="2.73043">
        <ele>128.622785</ele>
        <time>2023-01-05T14:33:07.963Z</time>
      </trkpt>
      <trkpt lat="43.18989" lon="2.73053">
        <ele>128.804625</ele>
        <time>2023-01-05T14:33:11.950Z</time>
      </trkpt>
      <trkpt lat="43.18996" lon="2.73063">
        <ele>128.988783</ele>
        <time>2023-01-05T14:33:15.957Z</time>
      </trkpt>
      <trkpt lat="43.19003" lon="2.73073">
        <ele>129.17567</ele>
        <time>2023-01-05T14:33:19.965Z</time>
      </trkpt>
      <trkpt lat="43.1901" lon="2.73083">
        <ele>129.356893</ele>
        <time>2023-01-05T14:33:23.962Z</time>
      </trkpt>
      <trkpt lat="43.19018" lon="2.73094">
        <ele>129.549116</ele>
        <time>2023-01-05T14:33:27.967Z</time>
      </trkpt>
      <trkpt lat="43.19025" lon="2.73104">
        <ele>129.739733</ele>
        <time>2023-01-05T14:33:31.961Z</time>
      </trkpt>
      <trkpt lat="43.19033" lon="2.73114">
        <ele>129.936245</ele>
        <time>2023-01-05T14:33:35.956Z</time>
      </trkpt>
      <trkpt lat="43.19042" lon="2.73125">
        <ele>130.142983</ele>
        <time>2023-01-05T14:33:39.953Z</time>
      </trkpt>
      <trkpt lat="43.19048" lon="2.73134">
        <ele>130.306955</ele>
        <time>2023-01-05T14:33:42.955Z</time>
      </trkpt>
      <trkpt lat="43.19055" lon="2.73144">
        <ele>130.480991</ele>
        <time>2023-01-05T14:33:45.960Z</time>
      </trkpt>
      <trkpt lat="43.19062" lon="2.73153">
        <ele>130.659443</ele>
        <time>2023-01-05T14:33:48.937Z</time>
      </trkpt>
      <trkpt lat="43.19069" lon="2.73165">
        <ele>130.861833</ele>
        <time>2023-01-05T14:33:51.940Z</time>
      </trkpt>
      <trkpt lat="43.19077" lon="2.73176">
        <ele>131.06858</ele>
        <time>2023-01-05T14:33:54.967Z</time>
      </trkpt>
      <trkpt lat="43.19085" lon="2.73188">
        <ele>131.278263</ele>
        <time>2023-01-05T14:33:57.959Z</time>
      </trkpt>
      <trkpt lat="43.19092" lon="2.73201">
        <ele>131.484048</ele>
        <time>2023-01-05T14:34:00.968Z</time>
      </trkpt>
      <trkpt lat="43.19099" lon="2.73213">
        <ele>131.693971</ele>
        <time>2023-01-05T14:34:03.959Z</time>
      </trkpt>
      <trkpt lat="43.19106" lon="2.73226">
        <ele>131.812448</ele>
        <time>2023-01-05T14:34:06.933Z</time>
      </trkpt>
      <trkpt lat="43.19114" lon="2.73239">
        <ele>131.554247</ele>
        <time>2023-01-05T14:34:09.966Z</time>
      </trkpt>
      <trkpt lat="43.19122" lon="2.73253">
        <ele>131.272365</ele>
        <time>2023-01-05T14:34:12.966Z</time>
      </trkpt>
      <trkpt lat="43.1913" lon="2.73268">
        <ele>130.991781</ele>
        <time>2023-01-05T14:34:15.962Z</time>
      </trkpt>
      <trkpt lat="43.19135" lon="2.73278">
        <ele>130.793857</ele>
        <time>2023-01-05T14:34:17.966Z</time>
      </trkpt>
      <trkpt lat="43.1914" lon="2.73289">
        <ele>130.600919</ele>
        <time>2023-01-05T14:34:19.957Z</time>
      </trkpt>
      <trkpt lat="43.19146" lon="2.73299">
        <ele>130.406765</ele>
        <time>2023-01-05T14:34:21.947Z</time>
      </trkpt>
      <trkpt lat="43.19154" lon="2.73313">
        <ele>130.124825</ele>
        <time>2023-01-05T14:34:24.954Z</time>
      </trkpt>
      <trkpt lat="43.19162" lon="2.73327">
        <ele>129.845233</ele>
        <time>2023-01-05T14:34:27.957Z</time>
      </trkpt>
      <trkpt lat="43.19167" lon="2.73338">
        <ele>129.64731</ele>
        <time>2023-01-05T14:34:29.969Z</time>
      </trkpt>
      <trkpt lat="43.19173" lon="2.73349">
        <ele>129.430349</ele>
        <time>2023-01-05T14:34:31.949Z</time>
      </trkpt>
      <trkpt lat="43.19179" lon="2.7336">
        <ele>129.216148</ele>
        <time>2023-01-05T14:34:33.971Z</time>
      </trkpt>
      <trkpt lat="43.19185" lon="2.73373">
        <ele>128.976745</ele>
        <time>2023-01-05T14:34:35.940Z</time>
      </trkpt>
      <trkpt lat="43.19192" lon="2.73386">
        <ele>128.728628</ele>
        <time>2023-01-05T14:34:37.968Z</time>
      </trkpt>
      <trkpt lat="43.19199" lon="2.73401">
        <ele>128.455557</ele>
        <time>2023-01-05T14:34:39.968Z</time>
      </trkpt>
      <trkpt lat="43.19207" lon="2.73415">
        <ele>128.176224</ele>
        <time>2023-01-05T14:34:41.957Z</time>
      </trkpt>
      <trkpt lat="43.19215" lon="2.73429">
        <ele>127.772064</ele>
        <time>2023-01-05T14:34:43.963Z</time>
      </trkpt>
      <trkpt lat="43.19224" lon="2.73446">
        <ele>127.177784</ele>
        <time>2023-01-05T14:34:45.958Z</time>
      </trkpt>
      <trkpt lat="43.19233" lon="2.73464">
        <ele>126.564912</ele>
        <time>2023-01-05T14:34:47.953Z</time>
      </trkpt>
      <trkpt lat="43.19242" lon="2.73482">
        <ele>125.954242</ele>
        <time>2023-01-05T14:34:49.939Z</time>
      </trkpt>
      <trkpt lat="43.19251" lon="2.735">
        <ele>125.327784</ele>
        <time>2023-01-05T14:34:51.962Z</time>
      </trkpt>
      <trkpt lat="43.19259" lon="2.73518">
        <ele>124.711879</ele>
        <time>2023-01-05T14:34:53.957Z</time>
      </trkpt>
      <trkpt lat="43.19269" lon="2.73536">
        <ele>124.057703</ele>
        <time>2023-01-05T14:34:55.962Z</time>
      </trkpt>
      <trkpt lat="43.19279" lon="2.73556">
        <ele>123.3846</ele>
        <time>2023-01-05T14:34:57.960Z</time>
      </trkpt>
      <trkpt lat="43.19289" lon="2.73574">
        <ele>122.725632</ele>
        <time>2023-01-05T14:34:59.957Z</time>
      </trkpt>
      <trkpt lat="43.19294" lon="2.73584">
        <ele>122.364985</ele>
        <time>2023-01-05T14:35:00.939Z</time>
      </trkpt>
      <trkpt lat="43.19299" lon="2.73595">
        <ele>122.004231</ele>
        <time>2023-01-05T14:35:01.964Z</time>
      </trkpt>
      <trkpt lat="43.19309" lon="2.73616">
        <ele>121.282158</ele>
        <time>2023-01-05T14:35:03.964Z</time>
      </trkpt>
      <trkpt lat="43.19314" lon="2.73628">
        <ele>120.928413</ele>
        <time>2023-01-05T14:35:04.961Z</time>
      </trkpt>
      <trkpt lat="43.19318" lon="2.73639">
        <ele>120.663852</ele>
        <time>2023-01-05T14:35:05.969Z</time>
      </trkpt>
      <trkpt lat="43.19323" lon="2.73651">
        <ele>120.385056</ele>
        <time>2023-01-05T14:35:06.955Z</time>
      </trkpt>
      <trkpt lat="43.19328" lon="2.73663">
        <ele>120.111576</ele>
        <time>2023-01-05T14:35:07.968Z</time>
      </trkpt>
      <trkpt lat="43.19332" lon="2.73676">
        <ele>119.827751</ele>
        <time>2023-01-05T14:35:08.957Z</time>
      </trkpt>
      <trkpt lat="43.19337" lon="2.73689">
        <ele>119.539703</ele>
        <time>2023-01-05T14:35:09.951Z</time>
      </trkpt>
      <trkpt lat="43.19341" lon="2.73701">
        <ele>119.249828</ele>
        <time>2023-01-05T14:35:10.964Z</time>
      </trkpt>
      <trkpt lat="43.19345" lon="2.73715">
        <ele>118.954916</ele>
        <time>2023-01-05T14:35:11.956Z</time>
      </trkpt>
      <trkpt lat="43.1935" lon="2.73728">
        <ele>118.659259</ele>
        <time>2023-01-05T14:35:12.960Z</time>
      </trkpt>
      <trkpt lat="43.19354" lon="2.73742">
        <ele>118.355808</ele>
        <time>2023-01-05T14:35:13.960Z</time>
      </trkpt>
      <trkpt lat="43.19358" lon="2.73755">
        <ele>118.057497</ele>
        <time>2023-01-05T14:35:14.935Z</time>
      </trkpt>
      <trkpt lat="43.19362" lon="2.73769">
        <ele>117.756244</ele>
        <time>2023-01-05T14:35:15.966Z</time>
      </trkpt>
      <trkpt lat="43.19367" lon="2.73783">
        <ele>117.453904</ele>
        <time>2023-01-05T14:35:16.936Z</time>
      </trkpt>
      <trkpt lat="43.19371" lon="2.73797">
        <ele>117.144319</ele>
        <time>2023-01-05T14:35:17.949Z</time>
      </trkpt>
      <trkpt lat="43.19374" lon="2.73811">
        <ele>116.840562</ele>
        <time>2023-01-05T14:35:18.942Z</time>
      </trkpt>
      <trkpt lat="43.19378" lon="2.73825">
        <ele>116.544332</ele>
        <time>2023-01-05T14:35:19.957Z</time>
      </trkpt>
      <trkpt lat="43.19382" lon="2.73838">
        <ele>116.251</ele>
        <time>2023-01-05T14:35:20.938Z</time>
      </trkpt>
      <trkpt lat="43.19386" lon="2.73852">
        <ele>115.972191</ele>
        <time>2023-01-05T14:35:21.950Z</time>
      </trkpt>
      <trkpt lat="43.19389" lon="2.73865">
        <ele>115.859763</ele>
        <time>2023-01-05T14:35:22.960Z</time>
      </trkpt>
      <trkpt lat="43.19393" lon="2.73877">
        <ele>115.750954</ele>
        <time>2023-01-05T14:35:23.964Z</time>
      </trkpt>
      <trkpt lat="43.19397" lon="2.73889">
        <ele>115.640648</ele>
        <time>2023-01-05T14:35:24.958Z</time>
      </trkpt>
      <trkpt lat="43.19401" lon="2.73901">
        <ele>115.534857</ele>
        <time>2023-01-05T14:35:25.955Z</time>
      </trkpt>
      <trkpt lat="43.19406" lon="2.73912">
        <ele>115.429067</ele>
        <time>2023-01-05T14:35:26.960Z</time>
      </trkpt>
      <trkpt lat="43.1941" lon="2.73924">
        <ele>115.323179</ele>
        <time>2023-01-05T14:35:27.966Z</time>
      </trkpt>
      <trkpt lat="43.19415" lon="2.73935">
        <ele>115.216356</ele>
        <time>2023-01-05T14:35:28.962Z</time>
      </trkpt>
      <trkpt lat="43.1942" lon="2.73945">
        <ele>115.115281</ele>
        <time>2023-01-05T14:35:29.963Z</time>
      </trkpt>
      <trkpt lat="43.19425" lon="2.73956">
        <ele>115.012905</ele>
        <time>2023-01-05T14:35:30.966Z</time>
      </trkpt>
      <trkpt lat="43.19436" lon="2.73975">
        <ele>114.812201</ele>
        <time>2023-01-05T14:35:32.943Z</time>
      </trkpt>
      <trkpt lat="43.19447" lon="2.73992">
        <ele>114.622332</ele>
        <time>2023-01-05T14:35:34.939Z</time>
      </trkpt>
      <trkpt lat="43.19459" lon="2.74009">
        <ele>114.435692</ele>
        <time>2023-01-05T14:35:36.938Z</time>
      </trkpt>
      <trkpt lat="43.19471" lon="2.74024">
        <ele>114.255436</ele>
        <time>2023-01-05T14:35:38.957Z</time>
      </trkpt>
      <trkpt lat="43.19483" lon="2.74035">
        <ele>114.091399</ele>
        <time>2023-01-05T14:35:40.943Z</time>
      </trkpt>
      <trkpt lat="43.19494" lon="2.74047">
        <ele>113.988681</ele>
        <time>2023-01-05T14:35:42.957Z</time>
      </trkpt>
      <trkpt lat="43.19506" lon="2.74058">
        <ele>114.097768</ele>
        <time>2023-01-05T14:35:44.964Z</time>
      </trkpt>
      <trkpt lat="43.19518" lon="2.74068">
        <ele>114.201553</ele>
        <time>2023-01-05T14:35:46.956Z</time>
      </trkpt>
      <trkpt lat="43.1953" lon="2.74079">
        <ele>114.308139</ele>
        <time>2023-01-05T14:35:48.964Z</time>
      </trkpt>
      <trkpt lat="43.19542" lon="2.7409">
        <ele>114.416268</ele>
        <time>2023-01-05T14:35:50.958Z</time>
      </trkpt>
      <trkpt lat="43.19554" lon="2.74101">
        <ele>114.531591</ele>
        <time>2023-01-05T14:35:52.961Z</time>
      </trkpt>
      <trkpt lat="43.19567" lon="2.74112">
        <ele>114.642847</ele>
        <time>2023-01-05T14:35:54.953Z</time>
      </trkpt>
      <trkpt lat="43.19579" lon="2.74123">
        <ele>114.750066</ele>
        <time>2023-01-05T14:35:56.962Z</time>
      </trkpt>
      <trkpt lat="43.1959" lon="2.74134">
        <ele>114.85726</ele>
        <time>2023-01-05T14:35:58.962Z</time>
      </trkpt>
      <trkpt lat="43.19602" lon="2.74145">
        <ele>114.965069</ele>
        <time>2023-01-05T14:36:00.956Z</time>
      </trkpt>
      <trkpt lat="43.19613" lon="2.74155">
        <ele>115.065087</ele>
        <time>2023-01-05T14:36:02.963Z</time>
      </trkpt>
      <trkpt lat="43.19623" lon="2.74165">
        <ele>115.160797</ele>
        <time>2023-01-05T14:36:04.935Z</time>
      </trkpt>
      <trkpt lat="43.19633" lon="2.74176">
        <ele>115.2559</ele>
        <time>2023-01-05T14:36:06.952Z</time>
      </trkpt>
      <trkpt lat="43.19642" lon="2.74187">
        <ele>115.272094</ele>
        <time>2023-01-05T14:36:08.942Z</time>
      </trkpt>
      <trkpt lat="43.19651" lon="2.74198">
        <ele>115.065973</ele>
        <time>2023-01-05T14:36:10.966Z</time>
      </trkpt>
      <trkpt lat="43.19659" lon="2.74209">
        <ele>114.869784</ele>
        <time>2023-01-05T14:36:12.965Z</time>
      </trkpt>
      <trkpt lat="43.19667" lon="2.74221">
        <ele>114.668161</ele>
        <time>2023-01-05T14:36:14.967Z</time>
      </trkpt>
      <trkpt lat="43.19675" lon="2.74233">
        <ele>114.466083</ele>
        <time>2023-01-05T14:36:16.968Z</time>
      </trkpt>
      <trkpt lat="43.19682" lon="2.74245">
        <ele>114.26691</ele>
        <time>2023-01-05T14:36:18.968Z</time>
      </trkpt>
      <trkpt lat="43.19688" lon="2.74257">
        <ele>114.081039</ele>
        <time>2023-01-05T14:36:20.957Z</time>
      </trkpt>
      <trkpt lat="43.19696" lon="2.7427">
        <ele>113.878523</ele>
        <time>2023-01-05T14:36:22.957Z</time>
      </trkpt>
      <trkpt lat="43.19703" lon="2.74282">
        <ele>113.681231</ele>
        <time>2023-01-05T14:36:24.966Z</time>
      </trkpt>
      <trkpt lat="43.1971" lon="2.74295">
        <ele>113.47688</ele>
        <time>2023-01-05T14:36:26.941Z</time>
      </trkpt>
      <trkpt lat="43.19718" lon="2.74309">
        <ele>113.244269</ele>
        <time>2023-01-05T14:36:28.962Z</time>
      </trkpt>
      <trkpt lat="43.19726" lon="2.74323">
        <ele>113.024789</ele>
        <time>2023-01-05T14:36:30.960Z</time>
      </trkpt>
      <trkpt lat="43.19734" lon="2.74338">
        <ele>112.797264</ele>
        <time>2023-01-05T14:36:32.965Z</time>
      </trkpt>
      <trkpt lat="43.19743" lon="2.74353">
        <ele>112.553477</ele>
        <time>2023-01-05T14:36:34.964Z</time>
      </trkpt>
      <trkpt lat="43.19751" lon="2.74368">
        <ele>112.314775</ele>
        <time>2023-01-05T14:36:36.940Z</time>
      </trkpt>
      <trkpt lat="43.1976" lon="2.74384">
        <ele>112.0937</ele>
        <time>2023-01-05T14:36:38.940Z</time>
      </trkpt>
      <trkpt lat="43.19768" lon="2.74401">
        <ele>111.885706</ele>
        <time>2023-01-05T14:36:40.950Z</time>
      </trkpt>
      <trkpt lat="43.19776" lon="2.74418">
        <ele>111.673748</ele>
        <time>2023-01-05T14:36:42.963Z</time>
      </trkpt>
      <trkpt lat="43.19784" lon="2.74436">
        <ele>111.459217</ele>
        <time>2023-01-05T14:36:44.944Z</time>
      </trkpt>
      <trkpt lat="43.19791" lon="2.74455">
        <ele>111.247266</ele>
        <time>2023-01-05T14:36:46.967Z</time>
      </trkpt>
      <trkpt lat="43.19798" lon="2.74474">
        <ele>111.027846</ele>
        <time>2023-01-05T14:36:48.958Z</time>
      </trkpt>
      <trkpt lat="43.19804" lon="2.74493">
        <ele>110.808598</ele>
        <time>2023-01-05T14:36:50.955Z</time>
      </trkpt>
      <trkpt lat="43.1981" lon="2.74513">
        <ele>110.595072</ele>
        <time>2023-01-05T14:36:52.963Z</time>
      </trkpt>
      <trkpt lat="43.19814" lon="2.74532">
        <ele>110.383956</ele>
        <time>2023-01-05T14:36:54.969Z</time>
      </trkpt>
      <trkpt lat="43.19819" lon="2.74552">
        <ele>110.170766</ele>
        <time>2023-01-05T14:36:56.956Z</time>
      </trkpt>
      <trkpt lat="43.19822" lon="2.74572">
        <ele>109.959008</ele>
        <time>2023-01-05T14:36:58.971Z</time>
      </trkpt>
      <trkpt lat="43.19825" lon="2.74592">
        <ele>109.752137</ele>
        <time>2023-01-05T14:37:00.957Z</time>
      </trkpt>
      <trkpt lat="43.19827" lon="2.74611">
        <ele>109.547695</ele>
        <time>2023-01-05T14:37:02.937Z</time>
      </trkpt>
      <trkpt lat="43.1983" lon="2.74632">
        <ele>109.332781</ele>
        <time>2023-01-05T14:37:04.956Z</time>
      </trkpt>
      <trkpt lat="43.19831" lon="2.74653">
        <ele>109.121765</ele>
        <time>2023-01-05T14:37:06.956Z</time>
      </trkpt>
      <trkpt lat="43.19834" lon="2.74674">
        <ele>108.908652</ele>
        <time>2023-01-05T14:37:08.966Z</time>
      </trkpt>
      <trkpt lat="43.19835" lon="2.74694">
        <ele>108.701088</ele>
        <time>2023-01-05T14:37:10.964Z</time>
      </trkpt>
      <trkpt lat="43.19838" lon="2.74715">
        <ele>108.493053</ele>
        <time>2023-01-05T14:37:12.963Z</time>
      </trkpt>
      <trkpt lat="43.1984" lon="2.74735">
        <ele>108.282729</ele>
        <time>2023-01-05T14:37:14.939Z</time>
      </trkpt>
      <trkpt lat="43.19844" lon="2.74755">
        <ele>108.077144</ele>
        <time>2023-01-05T14:37:16.939Z</time>
      </trkpt>
      <trkpt lat="43.19849" lon="2.74774">
        <ele>107.874232</ele>
        <time>2023-01-05T14:37:18.942Z</time>
      </trkpt>
      <trkpt lat="43.19854" lon="2.74791">
        <ele>107.681732</ele>
        <time>2023-01-05T14:37:20.959Z</time>
      </trkpt>
      <trkpt lat="43.1986" lon="2.74808">
        <ele>107.488883</ele>
        <time>2023-01-05T14:37:22.938Z</time>
      </trkpt>
      <trkpt lat="43.19866" lon="2.74824">
        <ele>107.304009</ele>
        <time>2023-01-05T14:37:24.968Z</time>
      </trkpt>
      <trkpt lat="43.19873" lon="2.74839">
        <ele>107.123662</ele>
        <time>2023-01-05T14:37:26.937Z</time>
      </trkpt>
      <trkpt lat="43.19879" lon="2.74853">
        <ele>106.940836</ele>
        <time>2023-01-05T14:37:28.963Z</time>
      </trkpt>
      <trkpt lat="43.19887" lon="2.74868">
        <ele>106.739518</ele>
        <time>2023-01-05T14:37:30.938Z</time>
      </trkpt>
      <trkpt lat="43.19894" lon="2.74883">
        <ele>106.538226</ele>
        <time>2023-01-05T14:37:32.939Z</time>
      </trkpt>
      <trkpt lat="43.19903" lon="2.74896">
        <ele>106.337445</ele>
        <time>2023-01-05T14:37:34.957Z</time>
      </trkpt>
      <trkpt lat="43.19911" lon="2.7491">
        <ele>106.136537</ele>
        <time>2023-01-05T14:37:36.945Z</time>
      </trkpt>
      <trkpt lat="43.19921" lon="2.74924">
        <ele>105.925693</ele>
        <time>2023-01-05T14:37:38.957Z</time>
      </trkpt>
      <trkpt lat="43.1993" lon="2.74939">
        <ele>105.709718</ele>
        <time>2023-01-05T14:37:40.964Z</time>
      </trkpt>
      <trkpt lat="43.19941" lon="2.74952">
        <ele>105.490532</ele>
        <time>2023-01-05T14:37:42.964Z</time>
      </trkpt>
      <trkpt lat="43.19952" lon="2.74964">
        <ele>105.278023</ele>
        <time>2023-01-05T14:37:44.938Z</time>
      </trkpt>
      <trkpt lat="43.19963" lon="2.74975">
        <ele>105.067161</ele>
        <time>2023-01-05T14:37:46.939Z</time>
      </trkpt>
      <trkpt lat="43.19973" lon="2.74983">
        <ele>104.88869</ele>
        <time>2023-01-05T14:37:48.960Z</time>
      </trkpt>
      <trkpt lat="43.19983" lon="2.74992">
        <ele>104.702136</ele>
        <time>2023-01-05T14:37:50.964Z</time>
      </trkpt>
      <trkpt lat="43.19993" lon="2.75">
        <ele>104.528435</ele>
        <time>2023-01-05T14:37:52.966Z</time>
      </trkpt>
      <trkpt lat="43.20003" lon="2.75009">
        <ele>104.25304</ele>
        <time>2023-01-05T14:37:54.967Z</time>
      </trkpt>
      <trkpt lat="43.20013" lon="2.75016">
        <ele>103.935654</ele>
        <time>2023-01-05T14:37:56.966Z</time>
      </trkpt>
      <trkpt lat="43.20023" lon="2.75024">
        <ele>103.59305</ele>
        <time>2023-01-05T14:37:58.968Z</time>
      </trkpt>
      <trkpt lat="43.20034" lon="2.75031">
        <ele>103.236807</ele>
        <time>2023-01-05T14:38:00.958Z</time>
      </trkpt>
      <trkpt lat="43.20044" lon="2.75037">
        <ele>102.893957</ele>
        <time>2023-01-05T14:38:02.956Z</time>
      </trkpt>
      <trkpt lat="43.20055" lon="2.75045">
        <ele>102.535923</ele>
        <time>2023-01-05T14:38:04.958Z</time>
      </trkpt>
      <trkpt lat="43.20066" lon="2.75052">
        <ele>102.194671</ele>
        <time>2023-01-05T14:38:06.958Z</time>
      </trkpt>
      <trkpt lat="43.20075" lon="2.75059">
        <ele>101.879894</ele>
        <time>2023-01-05T14:38:08.947Z</time>
      </trkpt>
      <trkpt lat="43.20084" lon="2.75064">
        <ele>101.606262</ele>
        <time>2023-01-05T14:38:10.961Z</time>
      </trkpt>
      <trkpt lat="43.20092" lon="2.7507">
        <ele>101.325448</ele>
        <time>2023-01-05T14:38:12.964Z</time>
      </trkpt>
      <trkpt lat="43.20104" lon="2.75077">
        <ele>100.947789</ele>
        <time>2023-01-05T14:38:14.959Z</time>
      </trkpt>
      <trkpt lat="43.20115" lon="2.75084">
        <ele>100.603154</ele>
        <time>2023-01-05T14:38:16.947Z</time>
      </trkpt>
      <trkpt lat="43.20124" lon="2.7509">
        <ele>100.301253</ele>
        <time>2023-01-05T14:38:18.948Z</time>
      </trkpt>
      <trkpt lat="43.20134" lon="2.75097">
        <ele>99.962629</ele>
        <time>2023-01-05T14:38:20.950Z</time>
      </trkpt>
      <trkpt lat="43.20144" lon="2.75105">
        <ele>99.630869</ele>
        <time>2023-01-05T14:38:22.965Z</time>
      </trkpt>
      <trkpt lat="43.20155" lon="2.75111">
        <ele>99.298355</ele>
        <time>2023-01-05T14:38:24.963Z</time>
      </trkpt>
      <trkpt lat="43.20166" lon="2.75116">
        <ele>99.248829</ele>
        <time>2023-01-05T14:38:26.968Z</time>
      </trkpt>
      <trkpt lat="43.20175" lon="2.75124">
        <ele>99.375894</ele>
        <time>2023-01-05T14:38:28.966Z</time>
      </trkpt>
      <trkpt lat="43.20185" lon="2.7513">
        <ele>99.503913</ele>
        <time>2023-01-05T14:38:30.966Z</time>
      </trkpt>
      <trkpt lat="43.20195" lon="2.75137">
        <ele>99.634454</ele>
        <time>2023-01-05T14:38:32.941Z</time>
      </trkpt>
      <trkpt lat="43.20206" lon="2.75143">
        <ele>99.776032</ele>
        <time>2023-01-05T14:38:34.935Z</time>
      </trkpt>
      <trkpt lat="43.20217" lon="2.75148">
        <ele>99.90374</ele>
        <time>2023-01-05T14:38:36.962Z</time>
      </trkpt>
      <trkpt lat="43.20227" lon="2.75154">
        <ele>100.03016</ele>
        <time>2023-01-05T14:38:38.968Z</time>
      </trkpt>
      <trkpt lat="43.20236" lon="2.75159">
        <ele>100.151056</ele>
        <time>2023-01-05T14:38:40.962Z</time>
      </trkpt>
      <trkpt lat="43.20246" lon="2.75164">
        <ele>100.271509</ele>
        <time>2023-01-05T14:38:42.958Z</time>
      </trkpt>
      <trkpt lat="43.20258" lon="2.75171">
        <ele>100.429067</ele>
        <time>2023-01-05T14:38:45.967Z</time>
      </trkpt>
      <trkpt lat="43.20268" lon="2.75184">
        <ele>100.594886</ele>
        <time>2023-01-05T14:38:48.950Z</time>
      </trkpt>
      <trkpt lat="43.20276" lon="2.75194">
        <ele>100.723495</ele>
        <time>2023-01-05T14:38:50.958Z</time>
      </trkpt>
      <trkpt lat="43.20286" lon="2.75198">
        <ele>100.83867</ele>
        <time>2023-01-05T14:38:52.947Z</time>
      </trkpt>
      <trkpt lat="43.20295" lon="2.75199">
        <ele>100.950752</ele>
        <time>2023-01-05T14:38:54.943Z</time>
      </trkpt>
      <trkpt lat="43.20304" lon="2.75202">
        <ele>101.060846</ele>
        <time>2023-01-05T14:38:56.947Z</time>
      </trkpt>
      <trkpt lat="43.20313" lon="2.75207">
        <ele>101.176481</ele>
        <time>2023-01-05T14:38:58.951Z</time>
      </trkpt>
      <trkpt lat="43.20322" lon="2.75214">
        <ele>101.298057</ele>
        <time>2023-01-05T14:39:00.958Z</time>
      </trkpt>
      <trkpt lat="43.20331" lon="2.7522">
        <ele>101.450918</ele>
        <time>2023-01-05T14:39:02.955Z</time>
      </trkpt>
      <trkpt lat="43.20342" lon="2.75226">
        <ele>101.613723</ele>
        <time>2023-01-05T14:39:04.959Z</time>
      </trkpt>
      <trkpt lat="43.20351" lon="2.75232">
        <ele>101.762996</ele>
        <time>2023-01-05T14:39:06.964Z</time>
      </trkpt>
      <trkpt lat="43.2036" lon="2.75236">
        <ele>101.90364</ele>
        <time>2023-01-05T14:39:08.965Z</time>
      </trkpt>
      <trkpt lat="43.20371" lon="2.75243">
        <ele>102.08811</ele>
        <time>2023-01-05T14:39:11.967Z</time>
      </trkpt>
      <trkpt lat="43.2038" lon="2.7525">
        <ele>102.244228</ele>
        <time>2023-01-05T14:39:13.940Z</time>
      </trkpt>
      <trkpt lat="43.20388" lon="2.75256">
        <ele>102.382057</ele>
        <time>2023-01-05T14:39:15.958Z</time>
      </trkpt>
      <trkpt lat="43.20397" lon="2.75262">
        <ele>102.525086</ele>
        <time>2023-01-05T14:39:17.965Z</time>
      </trkpt>
      <trkpt lat="43.20405" lon="2.75269">
        <ele>102.660436</ele>
        <time>2023-01-05T14:39:19.963Z</time>
      </trkpt>
      <trkpt lat="43.20412" lon="2.75276">
        <ele>102.794967</ele>
        <time>2023-01-05T14:39:21.963Z</time>
      </trkpt>
      <trkpt lat="43.2042" lon="2.75284">
        <ele>102.944174</ele>
        <time>2023-01-05T14:39:23.958Z</time>
      </trkpt>
      <trkpt lat="43.20428" lon="2.75292">
        <ele>103.094114</ele>
        <time>2023-01-05T14:39:25.959Z</time>
      </trkpt>
      <trkpt lat="43.20436" lon="2.75301">
        <ele>103.245967</ele>
        <time>2023-01-05T14:39:27.934Z</time>
      </trkpt>
      <trkpt lat="43.20444" lon="2.7531">
        <ele>103.397821</ele>
        <time>2023-01-05T14:39:29.942Z</time>
      </trkpt>
      <trkpt lat="43.20451" lon="2.75321">
        <ele>103.554682</ele>
        <time>2023-01-05T14:39:31.938Z</time>
      </trkpt>
      <trkpt lat="43.20459" lon="2.75332">
        <ele>103.718722</ele>
        <time>2023-01-05T14:39:33.965Z</time>
      </trkpt>
      <trkpt lat="43.20465" lon="2.75344">
        <ele>103.882989</ele>
        <time>2023-01-05T14:39:35.944Z</time>
      </trkpt>
      <trkpt lat="43.20473" lon="2.75357">
        <ele>103.951695</ele>
        <time>2023-01-05T14:39:37.960Z</time>
      </trkpt>
      <trkpt lat="43.2048" lon="2.75371">
        <ele>103.965182</ele>
        <time>2023-01-05T14:39:39.954Z</time>
      </trkpt>
      <trkpt lat="43.20486" lon="2.75384">
        <ele>103.977456</ele>
        <time>2023-01-05T14:39:41.967Z</time>
      </trkpt>
      <trkpt lat="43.20492" lon="2.75397">
        <ele>103.990465</ele>
        <time>2023-01-05T14:39:43.947Z</time>
      </trkpt>
      <trkpt lat="43.20498" lon="2.75412">
        <ele>104.003226</ele>
        <time>2023-01-05T14:39:45.969Z</time>
      </trkpt>
      <trkpt lat="43.20502" lon="2.75425">
        <ele>104.015184</ele>
        <time>2023-01-05T14:39:47.957Z</time>
      </trkpt>
      <trkpt lat="43.20506" lon="2.7544">
        <ele>104.027393</ele>
        <time>2023-01-05T14:39:49.964Z</time>
      </trkpt>
      <trkpt lat="43.20509" lon="2.75455">
        <ele>104.039693</ele>
        <time>2023-01-05T14:39:51.958Z</time>
      </trkpt>
      <trkpt lat="43.20513" lon="2.7547">
        <ele>104.05216</ele>
        <time>2023-01-05T14:39:53.969Z</time>
      </trkpt>
      <trkpt lat="43.20516" lon="2.75485">
        <ele>104.064688</ele>
        <time>2023-01-05T14:39:55.962Z</time>
      </trkpt>
      <trkpt lat="43.20519" lon="2.755">
        <ele>104.077156</ele>
        <time>2023-01-05T14:39:57.967Z</time>
      </trkpt>
      <trkpt lat="43.20521" lon="2.75516">
        <ele>104.089862</ele>
        <time>2023-01-05T14:39:59.961Z</time>
      </trkpt>
      <trkpt lat="43.20523" lon="2.75532">
        <ele>104.102998</ele>
        <time>2023-01-05T14:40:01.964Z</time>
      </trkpt>
      <trkpt lat="43.20525" lon="2.75548">
        <ele>104.116075</ele>
        <time>2023-01-05T14:40:03.970Z</time>
      </trkpt>
      <trkpt lat="43.20526" lon="2.75564">
        <ele>104.128926</ele>
        <time>2023-01-05T14:40:05.965Z</time>
      </trkpt>
      <trkpt lat="43.20527" lon="2.75581">
        <ele>104.059146</ele>
        <time>2023-01-05T14:40:07.942Z</time>
      </trkpt>
      <trkpt lat="43.20526" lon="2.75599">
        <ele>103.701877</ele>
        <time>2023-01-05T14:40:09.939Z</time>
      </trkpt>
      <trkpt lat="43.20524" lon="2.75617">
        <ele>103.32959</ele>
        <time>2023-01-05T14:40:11.940Z</time>
      </trkpt>
      <trkpt lat="43.20522" lon="2.75635">
        <ele>102.948704</ele>
        <time>2023-01-05T14:40:13.946Z</time>
      </trkpt>
      <trkpt lat="43.20518" lon="2.75654">
        <ele>102.548924</ele>
        <time>2023-01-05T14:40:15.940Z</time>
      </trkpt>
      <trkpt lat="43.20514" lon="2.75673">
        <ele>102.140787</ele>
        <time>2023-01-05T14:40:17.963Z</time>
      </trkpt>
      <trkpt lat="43.20509" lon="2.75691">
        <ele>101.764064</ele>
        <time>2023-01-05T14:40:19.959Z</time>
      </trkpt>
      <trkpt lat="43.20503" lon="2.75709">
        <ele>101.352393</ele>
        <time>2023-01-05T14:40:21.970Z</time>
      </trkpt>
      <trkpt lat="43.20497" lon="2.75727">
        <ele>100.937689</ele>
        <time>2023-01-05T14:40:23.961Z</time>
      </trkpt>
      <trkpt lat="43.2049" lon="2.75746">
        <ele>100.509371</ele>
        <time>2023-01-05T14:40:25.967Z</time>
      </trkpt>
      <trkpt lat="43.20483" lon="2.75764">
        <ele>100.085438</ele>
        <time>2023-01-05T14:40:27.966Z</time>
      </trkpt>
      <trkpt lat="43.20476" lon="2.75782">
        <ele>99.672576</ele>
        <time>2023-01-05T14:40:29.958Z</time>
      </trkpt>
      <trkpt lat="43.2047" lon="2.75799">
        <ele>99.287681</ele>
        <time>2023-01-05T14:40:31.937Z</time>
      </trkpt>
      <trkpt lat="43.20463" lon="2.75817">
        <ele>99.048139</ele>
        <time>2023-01-05T14:40:33.951Z</time>
      </trkpt>
      <trkpt lat="43.20457" lon="2.75835">
        <ele>98.942329</ele>
        <time>2023-01-05T14:40:35.938Z</time>
      </trkpt>
      <trkpt lat="43.2045" lon="2.75853">
        <ele>98.836832</ele>
        <time>2023-01-05T14:40:37.938Z</time>
      </trkpt>
      <trkpt lat="43.20444" lon="2.75871">
        <ele>98.732135</ele>
        <time>2023-01-05T14:40:39.959Z</time>
      </trkpt>
      <trkpt lat="43.20438" lon="2.75889">
        <ele>98.629938</ele>
        <time>2023-01-05T14:40:41.963Z</time>
      </trkpt>
      <trkpt lat="43.20432" lon="2.75906">
        <ele>98.533212</ele>
        <time>2023-01-05T14:40:43.962Z</time>
      </trkpt>
      <trkpt lat="43.20427" lon="2.75922">
        <ele>98.438699</ele>
        <time>2023-01-05T14:40:45.940Z</time>
      </trkpt>
      <trkpt lat="43.20422" lon="2.75939">
        <ele>98.343011</ele>
        <time>2023-01-05T14:40:47.941Z</time>
      </trkpt>
      <trkpt lat="43.20417" lon="2.75956">
        <ele>98.247936</ele>
        <time>2023-01-05T14:40:49.940Z</time>
      </trkpt>
      <trkpt lat="43.20411" lon="2.75971">
        <ele>98.164368</ele>
        <time>2023-01-05T14:40:51.969Z</time>
      </trkpt>
      <trkpt lat="43.20406" lon="2.75987">
        <ele>98.070057</ele>
        <time>2023-01-05T14:40:53.968Z</time>
      </trkpt>
      <trkpt lat="43.204" lon="2.76003">
        <ele>97.975846</ele>
        <time>2023-01-05T14:40:55.969Z</time>
      </trkpt>
      <trkpt lat="43.20395" lon="2.7602">
        <ele>97.879714</ele>
        <time>2023-01-05T14:40:57.935Z</time>
      </trkpt>
      <trkpt lat="43.20389" lon="2.76036">
        <ele>97.792639</ele>
        <time>2023-01-05T14:40:59.955Z</time>
      </trkpt>
      <trkpt lat="43.20384" lon="2.76053">
        <ele>97.719171</ele>
        <time>2023-01-05T14:41:01.965Z</time>
      </trkpt>
      <trkpt lat="43.20379" lon="2.7607">
        <ele>97.647054</ele>
        <time>2023-01-05T14:41:03.963Z</time>
      </trkpt>
      <trkpt lat="43.20374" lon="2.76086">
        <ele>97.577039</ele>
        <time>2023-01-05T14:41:05.950Z</time>
      </trkpt>
      <trkpt lat="43.20368" lon="2.76101">
        <ele>97.509432</ele>
        <time>2023-01-05T14:41:07.945Z</time>
      </trkpt>
      <trkpt lat="43.20362" lon="2.76116">
        <ele>97.441749</ele>
        <time>2023-01-05T14:41:09.961Z</time>
      </trkpt>
      <trkpt lat="43.20356" lon="2.76128">
        <ele>97.385173</ele>
        <time>2023-01-05T14:41:11.963Z</time>
      </trkpt>
      <trkpt lat="43.2035" lon="2.76143">
        <ele>97.31543</ele>
        <time>2023-01-05T14:41:14.967Z</time>
      </trkpt>
      <trkpt lat="43.20345" lon="2.76156">
        <ele>97.256778</ele>
        <time>2023-01-05T14:41:18.964Z</time>
      </trkpt>
      <trkpt lat="43.20341" lon="2.76168">
        <ele>97.203093</ele>
        <time>2023-01-05T14:41:21.939Z</time>
      </trkpt>
      <trkpt lat="43.20335" lon="2.76182">
        <ele>97.138825</ele>
        <time>2023-01-05T14:41:24.963Z</time>
      </trkpt>
      <trkpt lat="43.20329" lon="2.76198">
        <ele>97.065618</ele>
        <time>2023-01-05T14:41:27.961Z</time>
      </trkpt>
      <trkpt lat="43.20324" lon="2.76211">
        <ele>97.008982</ele>
        <time>2023-01-05T14:41:29.956Z</time>
      </trkpt>
      <trkpt lat="43.2032" lon="2.76224">
        <ele>96.951516</ele>
        <time>2023-01-05T14:41:31.940Z</time>
      </trkpt>
      <trkpt lat="43.20317" lon="2.76238">
        <ele>96.891568</ele>
        <time>2023-01-05T14:41:33.956Z</time>
      </trkpt>
      <trkpt lat="43.20313" lon="2.76252">
        <ele>96.834102</ele>
        <time>2023-01-05T14:41:35.962Z</time>
      </trkpt>
      <trkpt lat="43.20311" lon="2.76267">
        <ele>96.66116</ele>
        <time>2023-01-05T14:41:37.941Z</time>
      </trkpt>
      <trkpt lat="43.20309" lon="2.76282">
        <ele>96.490582</ele>
        <time>2023-01-05T14:41:39.966Z</time>
      </trkpt>
      <trkpt lat="43.20306" lon="2.76295">
        <ele>96.329099</ele>
        <time>2023-01-05T14:41:41.965Z</time>
      </trkpt>
      <trkpt lat="43.20305" lon="2.76309">
        <ele>96.161744</ele>
        <time>2023-01-05T14:41:43.946Z</time>
      </trkpt>
      <trkpt lat="43.20303" lon="2.76325">
        <ele>95.980477</ele>
        <time>2023-01-05T14:41:45.967Z</time>
      </trkpt>
      <trkpt lat="43.20301" lon="2.76339">
        <ele>95.81403</ele>
        <time>2023-01-05T14:41:47.961Z</time>
      </trkpt>
      <trkpt lat="43.20299" lon="2.76354">
        <ele>95.641671</ele>
        <time>2023-01-05T14:41:49.949Z</time>
      </trkpt>
      <trkpt lat="43.20298" lon="2.76368">
        <ele>95.473868</ele>
        <time>2023-01-05T14:41:51.965Z</time>
      </trkpt>
      <trkpt lat="43.20297" lon="2.76383">
        <ele>95.29819</ele>
        <time>2023-01-05T14:41:53.960Z</time>
      </trkpt>
      <trkpt lat="43.20295" lon="2.76399">
        <ele>95.115988</ele>
        <time>2023-01-05T14:41:55.942Z</time>
      </trkpt>
      <trkpt lat="43.20293" lon="2.76415">
        <ele>94.927808</ele>
        <time>2023-01-05T14:41:57.960Z</time>
      </trkpt>
      <trkpt lat="43.20289" lon="2.76429">
        <ele>94.757047</ele>
        <time>2023-01-05T14:41:59.968Z</time>
      </trkpt>
      <trkpt lat="43.20286" lon="2.76442">
        <ele>94.599963</ele>
        <time>2023-01-05T14:42:01.958Z</time>
      </trkpt>
      <trkpt lat="43.20283" lon="2.76459">
        <ele>94.404652</ele>
        <time>2023-01-05T14:42:04.945Z</time>
      </trkpt>
      <trkpt lat="43.20281" lon="2.76471">
        <ele>94.253108</ele>
        <time>2023-01-05T14:42:09.957Z</time>
      </trkpt>
      <trkpt lat="43.20277" lon="2.7649">
        <ele>94.027689</ele>
        <time>2023-01-05T14:42:35.969Z</time>
      </trkpt>
      <trkpt lat="43.20274" lon="2.76506">
        <ele>93.825806</ele>
        <time>2023-01-05T14:42:38.963Z</time>
      </trkpt>
      <trkpt lat="43.2027" lon="2.76519">
        <ele>93.658686</ele>
        <time>2023-01-05T14:42:40.964Z</time>
      </trkpt>
      <trkpt lat="43.20267" lon="2.76531">
        <ele>93.499668</ele>
        <time>2023-01-05T14:42:42.970Z</time>
      </trkpt>
      <trkpt lat="43.20264" lon="2.76544">
        <ele>93.330223</ele>
        <time>2023-01-05T14:42:44.965Z</time>
      </trkpt>
      <trkpt lat="43.2026" lon="2.76558">
        <ele>93.147555</ele>
        <time>2023-01-05T14:42:46.959Z</time>
      </trkpt>
      <trkpt lat="43.20257" lon="2.76573">
        <ele>92.965957</ele>
        <time>2023-01-05T14:42:48.941Z</time>
      </trkpt>
      <trkpt lat="43.20253" lon="2.76587">
        <ele>92.770557</ele>
        <time>2023-01-05T14:42:50.964Z</time>
      </trkpt>
      <trkpt lat="43.20249" lon="2.76602">
        <ele>92.581003</ele>
        <time>2023-01-05T14:42:52.966Z</time>
      </trkpt>
      <trkpt lat="43.20246" lon="2.76617">
        <ele>92.390965</ele>
        <time>2023-01-05T14:42:54.964Z</time>
      </trkpt>
      <trkpt lat="43.20242" lon="2.76632">
        <ele>92.193886</ele>
        <time>2023-01-05T14:42:56.951Z</time>
      </trkpt>
      <trkpt lat="43.20239" lon="2.76647">
        <ele>92.004741</ele>
        <time>2023-01-05T14:42:58.957Z</time>
      </trkpt>
      <trkpt lat="43.20236" lon="2.76662">
        <ele>91.813523</ele>
        <time>2023-01-05T14:43:00.966Z</time>
      </trkpt>
      <trkpt lat="43.20233" lon="2.76678">
        <ele>91.611316</ele>
        <time>2023-01-05T14:43:02.962Z</time>
      </trkpt>
      <trkpt lat="43.2023" lon="2.76693">
        <ele>91.42055</ele>
        <time>2023-01-05T14:43:04.964Z</time>
      </trkpt>
      <trkpt lat="43.20227" lon="2.76709">
        <ele>91.221408</ele>
        <time>2023-01-05T14:43:06.963Z</time>
      </trkpt>
      <trkpt lat="43.20226" lon="2.76725">
        <ele>91.019216</ele>
        <time>2023-01-05T14:43:08.956Z</time>
      </trkpt>
      <trkpt lat="43.20225" lon="2.76741">
        <ele>90.937775</ele>
        <time>2023-01-05T14:43:10.959Z</time>
      </trkpt>
      <trkpt lat="43.20224" lon="2.76757">
        <ele>90.904511</ele>
        <time>2023-01-05T14:43:12.963Z</time>
      </trkpt>
      <trkpt lat="43.20222" lon="2.76774">
        <ele>90.870079</ele>
        <time>2023-01-05T14:43:14.959Z</time>
      </trkpt>
      <trkpt lat="43.20222" lon="2.7679">
        <ele>90.83753</ele>
        <time>2023-01-05T14:43:16.961Z</time>
      </trkpt>
      <trkpt lat="43.20223" lon="2.76805">
        <ele>90.806219</ele>
        <time>2023-01-05T14:43:18.973Z</time>
      </trkpt>
      <trkpt lat="43.20223" lon="2.76819">
        <ele>90.776565</ele>
        <time>2023-01-05T14:43:20.964Z</time>
      </trkpt>
      <trkpt lat="43.20223" lon="2.76834">
        <ele>90.745467</ele>
        <time>2023-01-05T14:43:22.956Z</time>
      </trkpt>
      <trkpt lat="43.20223" lon="2.76848">
        <ele>90.716021</ele>
        <time>2023-01-05T14:43:24.961Z</time>
      </trkpt>
      <trkpt lat="43.20223" lon="2.76863">
        <ele>90.684916</ele>
        <time>2023-01-05T14:43:26.938Z</time>
      </trkpt>
      <trkpt lat="43.20224" lon="2.76879">
        <ele>90.651673</ele>
        <time>2023-01-05T14:43:28.957Z</time>
      </trkpt>
      <trkpt lat="43.20225" lon="2.76895">
        <ele>90.618477</ele>
        <time>2023-01-05T14:43:30.960Z</time>
      </trkpt>
      <trkpt lat="43.20226" lon="2.76911">
        <ele>90.584959</ele>
        <time>2023-01-05T14:43:32.956Z</time>
      </trkpt>
      <trkpt lat="43.20226" lon="2.76927">
        <ele>90.551575</ele>
        <time>2023-01-05T14:43:34.962Z</time>
      </trkpt>
      <trkpt lat="43.20225" lon="2.76944">
        <ele>90.517344</ele>
        <time>2023-01-05T14:43:36.963Z</time>
      </trkpt>
      <trkpt lat="43.20226" lon="2.7696">
        <ele>90.484549</ele>
        <time>2023-01-05T14:43:38.969Z</time>
      </trkpt>
      <trkpt lat="43.20225" lon="2.76976">
        <ele>90.451586</ele>
        <time>2023-01-05T14:43:40.964Z</time>
      </trkpt>
      <trkpt lat="43.20226" lon="2.76991">
        <ele>90.543525</ele>
        <time>2023-01-05T14:43:42.960Z</time>
      </trkpt>
      <trkpt lat="43.20227" lon="2.77008">
        <ele>90.643248</ele>
        <time>2023-01-05T14:43:44.955Z</time>
      </trkpt>
      <trkpt lat="43.20227" lon="2.77025">
        <ele>90.742948</ele>
        <time>2023-01-05T14:43:46.955Z</time>
      </trkpt>
      <trkpt lat="43.20227" lon="2.77042">
        <ele>90.841461</ele>
        <time>2023-01-05T14:43:48.963Z</time>
      </trkpt>
      <trkpt lat="43.20227" lon="2.77058">
        <ele>90.939355</ele>
        <time>2023-01-05T14:43:50.966Z</time>
      </trkpt>
      <trkpt lat="43.20227" lon="2.77075">
        <ele>91.040834</ele>
        <time>2023-01-05T14:43:52.964Z</time>
      </trkpt>
      <trkpt lat="43.20228" lon="2.77092">
        <ele>91.142443</ele>
        <time>2023-01-05T14:43:54.965Z</time>
      </trkpt>
      <trkpt lat="43.20227" lon="2.77109">
        <ele>91.243906</ele>
        <time>2023-01-05T14:43:56.968Z</time>
      </trkpt>
      <trkpt lat="43.20228" lon="2.77127">
        <ele>91.348944</ele>
        <time>2023-01-05T14:43:58.963Z</time>
      </trkpt>
      <trkpt lat="43.20228" lon="2.77145">
        <ele>91.453953</ele>
        <time>2023-01-05T14:44:00.964Z</time>
      </trkpt>
      <trkpt lat="43.20228" lon="2.77161">
        <ele>91.553033</ele>
        <time>2023-01-05T14:44:02.961Z</time>
      </trkpt>
      <trkpt lat="43.20228" lon="2.77177">
        <ele>91.648044</ele>
        <time>2023-01-05T14:44:04.966Z</time>
      </trkpt>
      <trkpt lat="43.20229" lon="2.77194">
        <ele>91.745507</ele>
        <time>2023-01-05T14:44:06.944Z</time>
      </trkpt>
      <trkpt lat="43.20229" lon="2.77209">
        <ele>91.838147</ele>
        <time>2023-01-05T14:44:08.966Z</time>
      </trkpt>
      <trkpt lat="43.2023" lon="2.77223">
        <ele>91.927138</ele>
        <time>2023-01-05T14:44:10.965Z</time>
      </trkpt>
      <trkpt lat="43.20231" lon="2.77237">
        <ele>92.102179</ele>
        <time>2023-01-05T14:44:12.963Z</time>
      </trkpt>
      <trkpt lat="43.20231" lon="2.77251">
        <ele>92.275471</ele>
        <time>2023-01-05T14:44:14.964Z</time>
      </trkpt>
      <trkpt lat="43.20231" lon="2.77264">
        <ele>92.431316</ele>
        <time>2023-01-05T14:44:16.963Z</time>
      </trkpt>
      <trkpt lat="43.20232" lon="2.77276">
        <ele>92.588603</ele>
        <time>2023-01-05T14:44:18.960Z</time>
      </trkpt>
      <trkpt lat="43.20232" lon="2.77289">
        <ele>92.744495</ele>
        <time>2023-01-05T14:44:20.958Z</time>
      </trkpt>
      <trkpt lat="43.20232" lon="2.77307">
        <ele>92.97387</ele>
        <time>2023-01-05T14:44:23.969Z</time>
      </trkpt>
      <trkpt lat="43.20233" lon="2.7732">
        <ele>93.136055</ele>
        <time>2023-01-05T14:44:25.952Z</time>
      </trkpt>
      <trkpt lat="43.20233" lon="2.77333">
        <ele>93.293258</ele>
        <time>2023-01-05T14:44:27.937Z</time>
      </trkpt>
      <trkpt lat="43.20233" lon="2.77346">
        <ele>93.453034</ele>
        <time>2023-01-05T14:44:29.963Z</time>
      </trkpt>
      <trkpt lat="43.20233" lon="2.77358">
        <ele>93.607605</ele>
        <time>2023-01-05T14:44:31.946Z</time>
      </trkpt>
      <trkpt lat="43.20234" lon="2.77376">
        <ele>93.834873</ele>
        <time>2023-01-05T14:44:34.958Z</time>
      </trkpt>
      <trkpt lat="43.20235" lon="2.77389">
        <ele>93.989897</ele>
        <time>2023-01-05T14:44:36.937Z</time>
      </trkpt>
      <trkpt lat="43.20236" lon="2.77401">
        <ele>94.14788</ele>
        <time>2023-01-05T14:44:38.965Z</time>
      </trkpt>
      <trkpt lat="43.20237" lon="2.7742">
        <ele>94.377617</ele>
        <time>2023-01-05T14:44:41.968Z</time>
      </trkpt>
      <trkpt lat="43.20238" lon="2.77432">
        <ele>94.539317</ele>
        <time>2023-01-05T14:44:43.966Z</time>
      </trkpt>
      <trkpt lat="43.2024" lon="2.77445">
        <ele>94.695235</ele>
        <time>2023-01-05T14:44:45.961Z</time>
      </trkpt>
      <trkpt lat="43.20241" lon="2.77457">
        <ele>94.853411</ele>
        <time>2023-01-05T14:44:47.961Z</time>
      </trkpt>
      <trkpt lat="43.20242" lon="2.7747">
        <ele>94.981168</ele>
        <time>2023-01-05T14:44:49.959Z</time>
      </trkpt>
      <trkpt lat="43.20243" lon="2.77483">
        <ele>94.903111</ele>
        <time>2023-01-05T14:44:51.958Z</time>
      </trkpt>
      <trkpt lat="43.20245" lon="2.77496">
        <ele>94.823155</ele>
        <time>2023-01-05T14:44:53.966Z</time>
      </trkpt>
      <trkpt lat="43.20247" lon="2.7751">
        <ele>94.738118</ele>
        <time>2023-01-05T14:44:55.939Z</time>
      </trkpt>
      <trkpt lat="43.20249" lon="2.77525">
        <ele>94.652191</ele>
        <time>2023-01-05T14:44:57.938Z</time>
      </trkpt>
      <trkpt lat="43.20251" lon="2.77539">
        <ele>94.562672</ele>
        <time>2023-01-05T14:44:59.960Z</time>
      </trkpt>
      <trkpt lat="43.20253" lon="2.77555">
        <ele>94.470761</ele>
        <time>2023-01-05T14:45:01.962Z</time>
      </trkpt>
      <trkpt lat="43.20254" lon="2.77569">
        <ele>94.385763</ele>
        <time>2023-01-05T14:45:03.936Z</time>
      </trkpt>
      <trkpt lat="43.20253" lon="2.77583">
        <ele>94.304413</ele>
        <time>2023-01-05T14:45:05.958Z</time>
      </trkpt>
      <trkpt lat="43.20253" lon="2.77596">
        <ele>94.222536</ele>
        <time>2023-01-05T14:45:07.950Z</time>
      </trkpt>
      <trkpt lat="43.20253" lon="2.7761">
        <ele>94.143</ele>
        <time>2023-01-05T14:45:09.963Z</time>
      </trkpt>
      <trkpt lat="43.20252" lon="2.77623">
        <ele>94.064208</ele>
        <time>2023-01-05T14:45:11.965Z</time>
      </trkpt>
      <trkpt lat="43.20249" lon="2.77636">
        <ele>93.986601</ele>
        <time>2023-01-05T14:45:13.958Z</time>
      </trkpt>
      <trkpt lat="43.20246" lon="2.77648">
        <ele>93.909398</ele>
        <time>2023-01-05T14:45:15.963Z</time>
      </trkpt>
      <trkpt lat="43.20239" lon="2.77657">
        <ele>93.831345</ele>
        <time>2023-01-05T14:45:17.944Z</time>
      </trkpt>
      <trkpt lat="43.2023" lon="2.77663">
        <ele>93.752172</ele>
        <time>2023-01-05T14:45:19.943Z</time>
      </trkpt>
      <trkpt lat="43.20224" lon="2.77673">
        <ele>93.674053</ele>
        <time>2023-01-05T14:45:21.963Z</time>
      </trkpt>
      <trkpt lat="43.2022" lon="2.77685">
        <ele>93.593499</ele>
        <time>2023-01-05T14:45:23.941Z</time>
      </trkpt>
      <trkpt lat="43.20222" lon="2.77699">
        <ele>93.517548</ele>
        <time>2023-01-05T14:45:25.950Z</time>
      </trkpt>
      <trkpt lat="43.20228" lon="2.77709">
        <ele>93.453917</ele>
        <time>2023-01-05T14:45:27.941Z</time>
      </trkpt>
      <trkpt lat="43.20233" lon="2.77719">
        <ele>93.395589</ele>
        <time>2023-01-05T14:45:29.942Z</time>
      </trkpt>
      <trkpt lat="43.20238" lon="2.77732">
        <ele>93.329262</ele>
        <time>2023-01-05T14:45:31.943Z</time>
      </trkpt>
      <trkpt lat="43.2024" lon="2.77747">
        <ele>93.256087</ele>
        <time>2023-01-05T14:45:33.940Z</time>
      </trkpt>
      <trkpt lat="43.20242" lon="2.77763">
        <ele>93.183644</ele>
        <time>2023-01-05T14:45:35.941Z</time>
      </trkpt>
      <trkpt lat="43.20244" lon="2.77778">
        <ele>93.109174</ele>
        <time>2023-01-05T14:45:37.965Z</time>
      </trkpt>
      <trkpt lat="43.20246" lon="2.77794">
        <ele>93.034937</ele>
        <time>2023-01-05T14:45:39.956Z</time>
      </trkpt>
      <trkpt lat="43.20249" lon="2.7781">
        <ele>92.957361</ele>
        <time>2023-01-05T14:45:41.965Z</time>
      </trkpt>
      <trkpt lat="43.20252" lon="2.77826">
        <ele>92.882031</ele>
        <time>2023-01-05T14:45:43.963Z</time>
      </trkpt>
      <trkpt lat="43.20255" lon="2.77842">
        <ele>92.803818</ele>
        <time>2023-01-05T14:45:45.964Z</time>
      </trkpt>
      <trkpt lat="43.20259" lon="2.77857">
        <ele>92.728062</ele>
        <time>2023-01-05T14:45:47.967Z</time>
      </trkpt>
      <trkpt lat="43.20263" lon="2.77873">
        <ele>92.649016</ele>
        <time>2023-01-05T14:45:49.965Z</time>
      </trkpt>
      <trkpt lat="43.20267" lon="2.77888">
        <ele>92.573219</ele>
        <time>2023-01-05T14:45:51.966Z</time>
      </trkpt>
      <trkpt lat="43.20271" lon="2.77903">
        <ele>92.499655</ele>
        <time>2023-01-05T14:45:53.947Z</time>
      </trkpt>
      <trkpt lat="43.20275" lon="2.77919">
        <ele>92.42061</ele>
        <time>2023-01-05T14:45:55.957Z</time>
      </trkpt>
      <trkpt lat="43.20279" lon="2.77936">
        <ele>92.284528</ele>
        <time>2023-01-05T14:45:57.963Z</time>
      </trkpt>
      <trkpt lat="43.20283" lon="2.77952">
        <ele>92.074514</ele>
        <time>2023-01-05T14:45:59.937Z</time>
      </trkpt>
      <trkpt lat="43.20287" lon="2.77969">
        <ele>91.859419</ele>
        <time>2023-01-05T14:46:01.960Z</time>
      </trkpt>
      <trkpt lat="43.20292" lon="2.77987">
        <ele>91.637505</ele>
        <time>2023-01-05T14:46:03.967Z</time>
      </trkpt>
      <trkpt lat="43.20296" lon="2.78003">
        <ele>91.432023</ele>
        <time>2023-01-05T14:46:05.966Z</time>
      </trkpt>
      <trkpt lat="43.203" lon="2.78019">
        <ele>91.228669</ele>
        <time>2023-01-05T14:46:07.962Z</time>
      </trkpt>
      <trkpt lat="43.20304" lon="2.78037">
        <ele>91.003336</ele>
        <time>2023-01-05T14:46:09.961Z</time>
      </trkpt>
      <trkpt lat="43.20309" lon="2.78054">
        <ele>90.786004</ele>
        <time>2023-01-05T14:46:11.939Z</time>
      </trkpt>
      <trkpt lat="43.20313" lon="2.78071">
        <ele>90.56562</ele>
        <time>2023-01-05T14:46:13.955Z</time>
      </trkpt>
      <trkpt lat="43.20317" lon="2.78089">
        <ele>90.338512</ele>
        <time>2023-01-05T14:46:15.967Z</time>
      </trkpt>
      <trkpt lat="43.20321" lon="2.78107">
        <ele>90.107469</ele>
        <time>2023-01-05T14:46:17.940Z</time>
      </trkpt>
      <trkpt lat="43.20325" lon="2.78123">
        <ele>89.903601</ele>
        <time>2023-01-05T14:46:19.961Z</time>
      </trkpt>
      <trkpt lat="43.20329" lon="2.78141">
        <ele>89.685801</ele>
        <time>2023-01-05T14:46:21.965Z</time>
      </trkpt>
      <trkpt lat="43.20333" lon="2.78159">
        <ele>89.461082</ele>
        <time>2023-01-05T14:46:23.960Z</time>
      </trkpt>
      <trkpt lat="43.20338" lon="2.78176">
        <ele>89.487528</ele>
        <time>2023-01-05T14:46:25.967Z</time>
      </trkpt>
      <trkpt lat="43.20342" lon="2.78194">
        <ele>89.601624</ele>
        <time>2023-01-05T14:46:27.965Z</time>
      </trkpt>
      <trkpt lat="43.20346" lon="2.78212">
        <ele>89.716479</ele>
        <time>2023-01-05T14:46:29.949Z</time>
      </trkpt>
      <trkpt lat="43.20351" lon="2.78231">
        <ele>89.83186</ele>
        <time>2023-01-05T14:46:31.967Z</time>
      </trkpt>
      <trkpt lat="43.20356" lon="2.78248">
        <ele>89.943339</ele>
        <time>2023-01-05T14:46:33.962Z</time>
      </trkpt>
      <trkpt lat="43.2036" lon="2.78266">
        <ele>90.055168</ele>
        <time>2023-01-05T14:46:35.959Z</time>
      </trkpt>
      <trkpt lat="43.20364" lon="2.78285">
        <ele>90.169764</ele>
        <time>2023-01-05T14:46:37.965Z</time>
      </trkpt>
      <trkpt lat="43.20369" lon="2.78303">
        <ele>90.284618</ele>
        <time>2023-01-05T14:46:39.960Z</time>
      </trkpt>
      <trkpt lat="43.20374" lon="2.78322">
        <ele>90.404469</ele>
        <time>2023-01-05T14:46:41.963Z</time>
      </trkpt>
      <trkpt lat="43.20378" lon="2.7834">
        <ele>90.51963</ele>
        <time>2023-01-05T14:46:43.964Z</time>
      </trkpt>
      <trkpt lat="43.20382" lon="2.78359">
        <ele>90.635996</ele>
        <time>2023-01-05T14:46:45.964Z</time>
      </trkpt>
      <trkpt lat="43.20388" lon="2.78378">
        <ele>90.756978</ele>
        <time>2023-01-05T14:46:47.937Z</time>
      </trkpt>
      <trkpt lat="43.20392" lon="2.78395">
        <ele>90.866045</ele>
        <time>2023-01-05T14:46:49.959Z</time>
      </trkpt>
      <trkpt lat="43.20396" lon="2.78413">
        <ele>90.878095</ele>
        <time>2023-01-05T14:46:51.965Z</time>
      </trkpt>
      <trkpt lat="43.204" lon="2.78431">
        <ele>90.883542</ele>
        <time>2023-01-05T14:46:53.940Z</time>
      </trkpt>
      <trkpt lat="43.20405" lon="2.78448">
        <ele>90.888862</ele>
        <time>2023-01-05T14:46:55.967Z</time>
      </trkpt>
      <trkpt lat="43.20409" lon="2.78467">
        <ele>90.894494</ele>
        <time>2023-01-05T14:46:57.962Z</time>
      </trkpt>
      <trkpt lat="43.20414" lon="2.78484">
        <ele>90.899923</ele>
        <time>2023-01-05T14:46:59.959Z</time>
      </trkpt>
      <trkpt lat="43.20419" lon="2.78503">
        <ele>90.905569</ele>
        <time>2023-01-05T14:47:01.967Z</time>
      </trkpt>
      <trkpt lat="43.20423" lon="2.7852">
        <ele>90.910984</ele>
        <time>2023-01-05T14:47:03.967Z</time>
      </trkpt>
      <trkpt lat="43.20428" lon="2.78538">
        <ele>90.916453</ele>
        <time>2023-01-05T14:47:05.981Z</time>
      </trkpt>
      <trkpt lat="43.20432" lon="2.78556">
        <ele>90.92187</ele>
        <time>2023-01-05T14:47:07.966Z</time>
      </trkpt>
      <trkpt lat="43.20436" lon="2.78574">
        <ele>90.927192</ele>
        <time>2023-01-05T14:47:09.948Z</time>
      </trkpt>
      <trkpt lat="43.20441" lon="2.78591">
        <ele>90.93258</ele>
        <time>2023-01-05T14:47:11.958Z</time>
      </trkpt>
      <trkpt lat="43.20445" lon="2.78608">
        <ele>90.937818</ele>
        <time>2023-01-05T14:47:13.953Z</time>
      </trkpt>
      <trkpt lat="43.2045" lon="2.78627">
        <ele>90.943423</ele>
        <time>2023-01-05T14:47:15.962Z</time>
      </trkpt>
      <trkpt lat="43.20454" lon="2.78645">
        <ele>90.712249</ele>
        <time>2023-01-05T14:47:17.942Z</time>
      </trkpt>
      <trkpt lat="43.20458" lon="2.78663">
        <ele>90.445098</ele>
        <time>2023-01-05T14:47:19.964Z</time>
      </trkpt>
      <trkpt lat="43.20463" lon="2.78681">
        <ele>90.165194</ele>
        <time>2023-01-05T14:47:21.964Z</time>
      </trkpt>
      <trkpt lat="43.20467" lon="2.78701">
        <ele>89.872805</ele>
        <time>2023-01-05T14:47:23.935Z</time>
      </trkpt>
      <trkpt lat="43.20472" lon="2.7872">
        <ele>89.580016</ele>
        <time>2023-01-05T14:47:25.962Z</time>
      </trkpt>
      <trkpt lat="43.20476" lon="2.78739">
        <ele>89.297999</ele>
        <time>2023-01-05T14:47:27.958Z</time>
      </trkpt>
      <trkpt lat="43.2048" lon="2.78758">
        <ele>89.010302</ele>
        <time>2023-01-05T14:47:29.963Z</time>
      </trkpt>
      <trkpt lat="43.20485" lon="2.78777">
        <ele>88.721448</ele>
        <time>2023-01-05T14:47:31.959Z</time>
      </trkpt>
      <trkpt lat="43.20489" lon="2.78796">
        <ele>88.43882</ele>
        <time>2023-01-05T14:47:33.956Z</time>
      </trkpt>
      <trkpt lat="43.20494" lon="2.78815">
        <ele>88.153613</ele>
        <time>2023-01-05T14:47:35.966Z</time>
      </trkpt>
      <trkpt lat="43.20499" lon="2.78835">
        <ele>87.848517</ele>
        <time>2023-01-05T14:47:37.948Z</time>
      </trkpt>
      <trkpt lat="43.20503" lon="2.78854">
        <ele>87.55807</ele>
        <time>2023-01-05T14:47:39.959Z</time>
      </trkpt>
      <trkpt lat="43.20509" lon="2.78875">
        <ele>87.431812</ele>
        <time>2023-01-05T14:47:41.969Z</time>
      </trkpt>
      <trkpt lat="43.20513" lon="2.78895">
        <ele>87.488984</ele>
        <time>2023-01-05T14:47:43.967Z</time>
      </trkpt>
      <trkpt lat="43.20518" lon="2.78913">
        <ele>87.54215</ele>
        <time>2023-01-05T14:47:45.967Z</time>
      </trkpt>
      <trkpt lat="43.20523" lon="2.78933">
        <ele>87.59863</ele>
        <time>2023-01-05T14:47:47.941Z</time>
      </trkpt>
      <trkpt lat="43.20528" lon="2.78952">
        <ele>87.651169</ele>
        <time>2023-01-05T14:47:49.956Z</time>
      </trkpt>
      <trkpt lat="43.20532" lon="2.78971">
        <ele>87.704887</ele>
        <time>2023-01-05T14:47:51.964Z</time>
      </trkpt>
      <trkpt lat="43.20537" lon="2.78989">
        <ele>87.75679</ele>
        <time>2023-01-05T14:47:53.967Z</time>
      </trkpt>
      <trkpt lat="43.20542" lon="2.79008">
        <ele>87.812643</ele>
        <time>2023-01-05T14:47:55.961Z</time>
      </trkpt>
      <trkpt lat="43.20546" lon="2.79027">
        <ele>87.865477</ele>
        <time>2023-01-05T14:47:57.966Z</time>
      </trkpt>
      <trkpt lat="43.2055" lon="2.79047">
        <ele>87.921818</ele>
        <time>2023-01-05T14:47:59.964Z</time>
      </trkpt>
      <trkpt lat="43.20555" lon="2.79067">
        <ele>87.977702</ele>
        <time>2023-01-05T14:48:01.959Z</time>
      </trkpt>
      <trkpt lat="43.20559" lon="2.79086">
        <ele>88.032232</ele>
        <time>2023-01-05T14:48:03.969Z</time>
      </trkpt>
      <trkpt lat="43.20563" lon="2.79106">
        <ele>88.093036</ele>
        <time>2023-01-05T14:48:05.967Z</time>
      </trkpt>
      <trkpt lat="43.20567" lon="2.79125">
        <ele>88.168484</ele>
        <time>2023-01-05T14:48:07.943Z</time>
      </trkpt>
      <trkpt lat="43.20572" lon="2.79144">
        <ele>88.240982</ele>
        <time>2023-01-05T14:48:09.950Z</time>
      </trkpt>
      <trkpt lat="43.20577" lon="2.79164">
        <ele>88.317648</ele>
        <time>2023-01-05T14:48:11.968Z</time>
      </trkpt>
      <trkpt lat="43.20582" lon="2.79184">
        <ele>88.395508</ele>
        <time>2023-01-05T14:48:13.965Z</time>
      </trkpt>
      <trkpt lat="43.20586" lon="2.79204">
        <ele>88.470844</ele>
        <time>2023-01-05T14:48:15.961Z</time>
      </trkpt>
      <trkpt lat="43.20591" lon="2.79223">
        <ele>88.546655</ele>
        <time>2023-01-05T14:48:17.967Z</time>
      </trkpt>
      <trkpt lat="43.20596" lon="2.79243">
        <ele>88.622188</ele>
        <time>2023-01-05T14:48:19.965Z</time>
      </trkpt>
      <trkpt lat="43.20601" lon="2.79262">
        <ele>88.695596</ele>
        <time>2023-01-05T14:48:21.958Z</time>
      </trkpt>
      <trkpt lat="43.20606" lon="2.7928">
        <ele>88.767441</ele>
        <time>2023-01-05T14:48:23.963Z</time>
      </trkpt>
      <trkpt lat="43.20611" lon="2.79299">
        <ele>88.841733</ele>
        <time>2023-01-05T14:48:25.965Z</time>
      </trkpt>
      <trkpt lat="43.20616" lon="2.79319">
        <ele>88.916343</ele>
        <time>2023-01-05T14:48:27.944Z</time>
      </trkpt>
      <trkpt lat="43.2062" lon="2.79338">
        <ele>88.980324</ele>
        <time>2023-01-05T14:48:29.964Z</time>
      </trkpt>
      <trkpt lat="43.20624" lon="2.79358">
        <ele>89.016733</ele>
        <time>2023-01-05T14:48:31.961Z</time>
      </trkpt>
      <trkpt lat="43.20628" lon="2.79377">
        <ele>89.052468</ele>
        <time>2023-01-05T14:48:33.961Z</time>
      </trkpt>
      <trkpt lat="43.20632" lon="2.79396">
        <ele>89.087708</ele>
        <time>2023-01-05T14:48:35.957Z</time>
      </trkpt>
      <trkpt lat="43.20635" lon="2.79416">
        <ele>89.124016</ele>
        <time>2023-01-05T14:48:37.961Z</time>
      </trkpt>
      <trkpt lat="43.20639" lon="2.79435">
        <ele>89.160289</ele>
        <time>2023-01-05T14:48:39.967Z</time>
      </trkpt>
      <trkpt lat="43.20642" lon="2.79454">
        <ele>89.195328</ele>
        <time>2023-01-05T14:48:41.965Z</time>
      </trkpt>
      <trkpt lat="43.20646" lon="2.79474">
        <ele>89.231695</ele>
        <time>2023-01-05T14:48:43.967Z</time>
      </trkpt>
      <trkpt lat="43.2065" lon="2.79493">
        <ele>89.266391</ele>
        <time>2023-01-05T14:48:45.962Z</time>
      </trkpt>
      <trkpt lat="43.20653" lon="2.79511">
        <ele>89.301047</ele>
        <time>2023-01-05T14:48:47.967Z</time>
      </trkpt>
      <trkpt lat="43.20657" lon="2.79529">
        <ele>89.33434</ele>
        <time>2023-01-05T14:48:49.965Z</time>
      </trkpt>
      <trkpt lat="43.2066" lon="2.79548">
        <ele>89.36839</ele>
        <time>2023-01-05T14:48:51.966Z</time>
      </trkpt>
      <trkpt lat="43.20663" lon="2.79566">
        <ele>89.401859</ele>
        <time>2023-01-05T14:48:53.949Z</time>
      </trkpt>
      <trkpt lat="43.20667" lon="2.79583">
        <ele>89.301462</ele>
        <time>2023-01-05T14:48:55.967Z</time>
      </trkpt>
      <trkpt lat="43.2067" lon="2.79601">
        <ele>89.138992</ele>
        <time>2023-01-05T14:48:57.963Z</time>
      </trkpt>
      <trkpt lat="43.20672" lon="2.79619">
        <ele>88.976746</ele>
        <time>2023-01-05T14:48:59.957Z</time>
      </trkpt>
      <trkpt lat="43.20675" lon="2.79638">
        <ele>88.808822</ele>
        <time>2023-01-05T14:49:01.962Z</time>
      </trkpt>
      <trkpt lat="43.20676" lon="2.79656">
        <ele>88.648318</ele>
        <time>2023-01-05T14:49:03.964Z</time>
      </trkpt>
      <trkpt lat="43.20679" lon="2.79674">
        <ele>88.486485</ele>
        <time>2023-01-05T14:49:05.961Z</time>
      </trkpt>
      <trkpt lat="43.20681" lon="2.79692">
        <ele>88.325327</ele>
        <time>2023-01-05T14:49:07.961Z</time>
      </trkpt>
      <trkpt lat="43.20683" lon="2.7971">
        <ele>88.161598</ele>
        <time>2023-01-05T14:49:09.966Z</time>
      </trkpt>
      <trkpt lat="43.20684" lon="2.79728">
        <ele>88.003739</ele>
        <time>2023-01-05T14:49:11.966Z</time>
      </trkpt>
      <trkpt lat="43.20686" lon="2.79747">
        <ele>87.836331</ele>
        <time>2023-01-05T14:49:13.968Z</time>
      </trkpt>
      <trkpt lat="43.20689" lon="2.79765">
        <ele>87.665565</ele>
        <time>2023-01-05T14:49:15.967Z</time>
      </trkpt>
      <trkpt lat="43.20692" lon="2.79785">
        <ele>87.489798</ele>
        <time>2023-01-05T14:49:17.960Z</time>
      </trkpt>
      <trkpt lat="43.20694" lon="2.79805">
        <ele>87.308881</ele>
        <time>2023-01-05T14:49:19.959Z</time>
      </trkpt>
      <trkpt lat="43.20696" lon="2.79825">
        <ele>87.111957</ele>
        <time>2023-01-05T14:49:21.958Z</time>
      </trkpt>
      <trkpt lat="43.20699" lon="2.79846">
        <ele>86.895567</ele>
        <time>2023-01-05T14:49:23.967Z</time>
      </trkpt>
      <trkpt lat="43.20702" lon="2.79865">
        <ele>86.687532</ele>
        <time>2023-01-05T14:49:25.966Z</time>
      </trkpt>
      <trkpt lat="43.20705" lon="2.79885">
        <ele>86.478483</ele>
        <time>2023-01-05T14:49:27.963Z</time>
      </trkpt>
      <trkpt lat="43.20707" lon="2.79904">
        <ele>86.277305</ele>
        <time>2023-01-05T14:49:29.951Z</time>
      </trkpt>
      <trkpt lat="43.20709" lon="2.79924">
        <ele>86.070129</ele>
        <time>2023-01-05T14:49:31.960Z</time>
      </trkpt>
      <trkpt lat="43.20712" lon="2.79944">
        <ele>85.862159</ele>
        <time>2023-01-05T14:49:33.965Z</time>
      </trkpt>
      <trkpt lat="43.20714" lon="2.79963">
        <ele>85.660332</ele>
        <time>2023-01-05T14:49:35.963Z</time>
      </trkpt>
      <trkpt lat="43.20716" lon="2.79982">
        <ele>85.456459</ele>
        <time>2023-01-05T14:49:37.958Z</time>
      </trkpt>
      <trkpt lat="43.20718" lon="2.80002">
        <ele>85.251548</ele>
        <time>2023-01-05T14:49:39.962Z</time>
      </trkpt>
      <trkpt lat="43.2072" lon="2.80021">
        <ele>85.052215</ele>
        <time>2023-01-05T14:49:41.963Z</time>
      </trkpt>
      <trkpt lat="43.20722" lon="2.8004">
        <ele>84.852664</ele>
        <time>2023-01-05T14:49:43.966Z</time>
      </trkpt>
      <trkpt lat="43.20726" lon="2.8006">
        <ele>84.653168</ele>
        <time>2023-01-05T14:49:45.963Z</time>
      </trkpt>
      <trkpt lat="43.20728" lon="2.80081">
        <ele>84.537091</ele>
        <time>2023-01-05T14:49:47.949Z</time>
      </trkpt>
      <trkpt lat="43.20731" lon="2.80101">
        <ele>84.423005</ele>
        <time>2023-01-05T14:49:49.958Z</time>
      </trkpt>
      <trkpt lat="43.20733" lon="2.80123">
        <ele>84.304481</ele>
        <time>2023-01-05T14:49:51.952Z</time>
      </trkpt>
      <trkpt lat="43.20736" lon="2.80144">
        <ele>84.18571</ele>
        <time>2023-01-05T14:49:53.966Z</time>
      </trkpt>
      <trkpt lat="43.20737" lon="2.80164">
        <ele>84.073504</ele>
        <time>2023-01-05T14:49:55.964Z</time>
      </trkpt>
      <trkpt lat="43.2074" lon="2.80186">
        <ele>83.9539</ele>
        <time>2023-01-05T14:49:57.963Z</time>
      </trkpt>
      <trkpt lat="43.20743" lon="2.80208">
        <ele>83.832175</ele>
        <time>2023-01-05T14:49:59.967Z</time>
      </trkpt>
      <trkpt lat="43.20746" lon="2.80229">
        <ele>83.714482</ele>
        <time>2023-01-05T14:50:01.966Z</time>
      </trkpt>
      <trkpt lat="43.20748" lon="2.80251">
        <ele>83.593966</ele>
        <time>2023-01-05T14:50:03.958Z</time>
      </trkpt>
      <trkpt lat="43.20751" lon="2.80272">
        <ele>83.474781</ele>
        <time>2023-01-05T14:50:05.968Z</time>
      </trkpt>
      <trkpt lat="43.20754" lon="2.80293">
        <ele>83.357495</ele>
        <time>2023-01-05T14:50:07.967Z</time>
      </trkpt>
      <trkpt lat="43.20757" lon="2.80314">
        <ele>83.260549</ele>
        <time>2023-01-05T14:50:09.964Z</time>
      </trkpt>
      <trkpt lat="43.20759" lon="2.80335">
        <ele>83.174467</ele>
        <time>2023-01-05T14:50:11.957Z</time>
      </trkpt>
      <trkpt lat="43.20761" lon="2.80355">
        <ele>83.092058</ele>
        <time>2023-01-05T14:50:13.961Z</time>
      </trkpt>
      <trkpt lat="43.20763" lon="2.80375">
        <ele>83.008102</ele>
        <time>2023-01-05T14:50:15.962Z</time>
      </trkpt>
      <trkpt lat="43.20766" lon="2.80395">
        <ele>82.923955</ele>
        <time>2023-01-05T14:50:17.964Z</time>
      </trkpt>
      <trkpt lat="43.20769" lon="2.80415">
        <ele>82.8399</ele>
        <time>2023-01-05T14:50:19.956Z</time>
      </trkpt>
      <trkpt lat="43.20771" lon="2.80436">
        <ele>82.752598</ele>
        <time>2023-01-05T14:50:21.966Z</time>
      </trkpt>
      <trkpt lat="43.20774" lon="2.80457">
        <ele>82.664796</ele>
        <time>2023-01-05T14:50:23.941Z</time>
      </trkpt>
      <trkpt lat="43.20776" lon="2.80479">
        <ele>82.573592</ele>
        <time>2023-01-05T14:50:25.953Z</time>
      </trkpt>
      <trkpt lat="43.20779" lon="2.805">
        <ele>82.482038</ele>
        <time>2023-01-05T14:50:27.962Z</time>
      </trkpt>
      <trkpt lat="43.20781" lon="2.80523">
        <ele>82.388543</ele>
        <time>2023-01-05T14:50:29.953Z</time>
      </trkpt>
      <trkpt lat="43.20784" lon="2.80545">
        <ele>82.298945</ele>
        <time>2023-01-05T14:50:31.964Z</time>
      </trkpt>
      <trkpt lat="43.20787" lon="2.80566">
        <ele>82.375334</ele>
        <time>2023-01-05T14:50:33.936Z</time>
      </trkpt>
      <trkpt lat="43.2079" lon="2.80587">
        <ele>82.453385</ele>
        <time>2023-01-05T14:50:35.947Z</time>
      </trkpt>
      <trkpt lat="43.20792" lon="2.8061">
        <ele>82.534911</ele>
        <time>2023-01-05T14:50:37.957Z</time>
      </trkpt>
      <trkpt lat="43.20795" lon="2.80632">
        <ele>82.616138</ele>
        <time>2023-01-05T14:50:39.964Z</time>
      </trkpt>
      <trkpt lat="43.20798" lon="2.80654">
        <ele>82.695619</ele>
        <time>2023-01-05T14:50:41.939Z</time>
      </trkpt>
      <trkpt lat="43.208" lon="2.80675">
        <ele>82.771638</ele>
        <time>2023-01-05T14:50:43.964Z</time>
      </trkpt>
      <trkpt lat="43.20802" lon="2.80696">
        <ele>82.847657</ele>
        <time>2023-01-05T14:50:45.962Z</time>
      </trkpt>
      <trkpt lat="43.20805" lon="2.80717">
        <ele>82.922477</ele>
        <time>2023-01-05T14:50:47.964Z</time>
      </trkpt>
      <trkpt lat="43.20807" lon="2.80738">
        <ele>82.998211</ele>
        <time>2023-01-05T14:50:49.963Z</time>
      </trkpt>
      <trkpt lat="43.20809" lon="2.80758">
        <ele>83.072326</ele>
        <time>2023-01-05T14:50:51.956Z</time>
      </trkpt>
      <trkpt lat="43.20812" lon="2.80779">
        <ele>83.145817</ele>
        <time>2023-01-05T14:50:53.957Z</time>
      </trkpt>
      <trkpt lat="43.20814" lon="2.80798">
        <ele>83.132124</ele>
        <time>2023-01-05T14:50:55.967Z</time>
      </trkpt>
      <trkpt lat="43.20817" lon="2.80818">
        <ele>83.041984</ele>
        <time>2023-01-05T14:50:57.943Z</time>
      </trkpt>
      <trkpt lat="43.20819" lon="2.80838">
        <ele>82.952926</ele>
        <time>2023-01-05T14:50:59.964Z</time>
      </trkpt>
      <trkpt lat="43.20821" lon="2.80858">
        <ele>82.862544</ele>
        <time>2023-01-05T14:51:01.967Z</time>
      </trkpt>
      <trkpt lat="43.20824" lon="2.80878">
        <ele>82.77054</ele>
        <time>2023-01-05T14:51:03.932Z</time>
      </trkpt>
      <trkpt lat="43.20826" lon="2.80899">
        <ele>82.676536</ele>
        <time>2023-01-05T14:51:05.962Z</time>
      </trkpt>
      <trkpt lat="43.20829" lon="2.8092">
        <ele>82.580909</ele>
        <time>2023-01-05T14:51:07.965Z</time>
      </trkpt>
      <trkpt lat="43.20831" lon="2.80941">
        <ele>82.488025</ele>
        <time>2023-01-05T14:51:09.968Z</time>
      </trkpt>
      <trkpt lat="43.20834" lon="2.80962">
        <ele>82.393382</ele>
        <time>2023-01-05T14:51:11.968Z</time>
      </trkpt>
      <trkpt lat="43.20836" lon="2.80982">
        <ele>82.299121</ele>
        <time>2023-01-05T14:51:13.969Z</time>
      </trkpt>
      <trkpt lat="43.20839" lon="2.81004">
        <ele>82.201189</ele>
        <time>2023-01-05T14:51:15.960Z</time>
      </trkpt>
      <trkpt lat="43.20842" lon="2.81025">
        <ele>82.107968</ele>
        <time>2023-01-05T14:51:17.940Z</time>
      </trkpt>
      <trkpt lat="43.20844" lon="2.81046">
        <ele>82.024488</ele>
        <time>2023-01-05T14:51:19.963Z</time>
      </trkpt>
      <trkpt lat="43.20846" lon="2.81067">
        <ele>81.948613</ele>
        <time>2023-01-05T14:51:21.967Z</time>
      </trkpt>
      <trkpt lat="43.20849" lon="2.81087">
        <ele>81.874626</ele>
        <time>2023-01-05T14:51:23.965Z</time>
      </trkpt>
      <trkpt lat="43.20852" lon="2.81108">
        <ele>81.797161</ele>
        <time>2023-01-05T14:51:25.958Z</time>
      </trkpt>
      <trkpt lat="43.20855" lon="2.81128">
        <ele>81.720948</ele>
        <time>2023-01-05T14:51:27.965Z</time>
      </trkpt>
      <trkpt lat="43.20857" lon="2.81149">
        <ele>81.644358</ele>
        <time>2023-01-05T14:51:29.965Z</time>
      </trkpt>
      <trkpt lat="43.20859" lon="2.81169">
        <ele>81.570495</ele>
        <time>2023-01-05T14:51:31.965Z</time>
      </trkpt>
      <trkpt lat="43.20862" lon="2.81189">
        <ele>81.497396</ele>
        <time>2023-01-05T14:51:33.953Z</time>
      </trkpt>
      <trkpt lat="43.20864" lon="2.81208">
        <ele>81.427149</ele>
        <time>2023-01-05T14:51:35.941Z</time>
      </trkpt>
      <trkpt lat="43.20867" lon="2.81227">
        <ele>81.359039</ele>
        <time>2023-01-05T14:51:37.957Z</time>
      </trkpt>
      <trkpt lat="43.20869" lon="2.81246">
        <ele>81.290304</ele>
        <time>2023-01-05T14:51:39.954Z</time>
      </trkpt>
      <trkpt lat="43.20871" lon="2.81265">
        <ele>81.219805</ele>
        <time>2023-01-05T14:51:41.962Z</time>
      </trkpt>
      <trkpt lat="43.20873" lon="2.81284">
        <ele>81.132196</ele>
        <time>2023-01-05T14:51:43.966Z</time>
      </trkpt>
      <trkpt lat="43.20875" lon="2.81304">
        <ele>81.027239</ele>
        <time>2023-01-05T14:51:45.948Z</time>
      </trkpt>
      <trkpt lat="43.20878" lon="2.81324">
        <ele>80.9167</ele>
        <time>2023-01-05T14:51:47.968Z</time>
      </trkpt>
      <trkpt lat="43.2088" lon="2.81343">
        <ele>80.811213</ele>
        <time>2023-01-05T14:51:49.968Z</time>
      </trkpt>
      <trkpt lat="43.20883" lon="2.81364">
        <ele>80.699748</ele>
        <time>2023-01-05T14:51:51.968Z</time>
      </trkpt>
      <trkpt lat="43.20885" lon="2.81384">
        <ele>80.588526</ele>
        <time>2023-01-05T14:51:53.947Z</time>
      </trkpt>
      <trkpt lat="43.20888" lon="2.81405">
        <ele>80.476245</ele>
        <time>2023-01-05T14:51:55.959Z</time>
      </trkpt>
      <trkpt lat="43.2089" lon="2.81426">
        <ele>80.36279</ele>
        <time>2023-01-05T14:51:57.967Z</time>
      </trkpt>
      <trkpt lat="43.20892" lon="2.81447">
        <ele>80.248279</ele>
        <time>2023-01-05T14:51:59.968Z</time>
      </trkpt>
      <trkpt lat="43.20895" lon="2.81468">
        <ele>80.132994</ele>
        <time>2023-01-05T14:52:01.973Z</time>
      </trkpt>
      <trkpt lat="43.20898" lon="2.81489">
        <ele>80.021268</ele>
        <time>2023-01-05T14:52:03.963Z</time>
      </trkpt>
      <trkpt lat="43.209" lon="2.8151">
        <ele>79.908252</ele>
        <time>2023-01-05T14:52:05.969Z</time>
      </trkpt>
      <trkpt lat="43.20902" lon="2.81531">
        <ele>79.942441</ele>
        <time>2023-01-05T14:52:07.969Z</time>
      </trkpt>
      <trkpt lat="43.20905" lon="2.81551">
        <ele>80.07524</ele>
        <time>2023-01-05T14:52:09.968Z</time>
      </trkpt>
      <trkpt lat="43.20907" lon="2.8157">
        <ele>80.198102</ele>
        <time>2023-01-05T14:52:11.968Z</time>
      </trkpt>
      <trkpt lat="43.20909" lon="2.8159">
        <ele>80.326359</ele>
        <time>2023-01-05T14:52:13.966Z</time>
      </trkpt>
      <trkpt lat="43.20912" lon="2.8161">
        <ele>80.455868</ele>
        <time>2023-01-05T14:52:15.967Z</time>
      </trkpt>
      <trkpt lat="43.20915" lon="2.8163">
        <ele>80.581623</ele>
        <time>2023-01-05T14:52:17.967Z</time>
      </trkpt>
      <trkpt lat="43.20917" lon="2.81649">
        <ele>80.708943</ele>
        <time>2023-01-05T14:52:19.942Z</time>
      </trkpt>
      <trkpt lat="43.20919" lon="2.81669">
        <ele>80.835587</ele>
        <time>2023-01-05T14:52:21.963Z</time>
      </trkpt>
      <trkpt lat="43.20922" lon="2.81689">
        <ele>80.967601</ele>
        <time>2023-01-05T14:52:23.967Z</time>
      </trkpt>
      <trkpt lat="43.20925" lon="2.8171">
        <ele>81.100716</ele>
        <time>2023-01-05T14:52:25.965Z</time>
      </trkpt>
      <trkpt lat="43.20927" lon="2.8173">
        <ele>81.229501</ele>
        <time>2023-01-05T14:52:27.967Z</time>
      </trkpt>
      <trkpt lat="43.20929" lon="2.8175">
        <ele>81.360734</ele>
        <time>2023-01-05T14:52:29.971Z</time>
      </trkpt>
      <trkpt lat="43.20932" lon="2.81771">
        <ele>81.407046</ele>
        <time>2023-01-05T14:52:31.956Z</time>
      </trkpt>
      <trkpt lat="43.20935" lon="2.81791">
        <ele>81.347843</ele>
        <time>2023-01-05T14:52:33.966Z</time>
      </trkpt>
      <trkpt lat="43.20937" lon="2.81811">
        <ele>81.291296</ele>
        <time>2023-01-05T14:52:35.962Z</time>
      </trkpt>
      <trkpt lat="43.2094" lon="2.8183">
        <ele>81.235951</ele>
        <time>2023-01-05T14:52:37.965Z</time>
      </trkpt>
      <trkpt lat="43.20942" lon="2.81849">
        <ele>81.179745</ele>
        <time>2023-01-05T14:52:39.961Z</time>
      </trkpt>
      <trkpt lat="43.20944" lon="2.81869">
        <ele>81.122354</ele>
        <time>2023-01-05T14:52:41.965Z</time>
      </trkpt>
      <trkpt lat="43.20947" lon="2.81889">
        <ele>81.066305</ele>
        <time>2023-01-05T14:52:43.949Z</time>
      </trkpt>
      <trkpt lat="43.20949" lon="2.81908">
        <ele>81.011098</ele>
        <time>2023-01-05T14:52:45.968Z</time>
      </trkpt>
      <trkpt lat="43.20952" lon="2.81927">
        <ele>80.955543</ele>
        <time>2023-01-05T14:52:47.968Z</time>
      </trkpt>
      <trkpt lat="43.20954" lon="2.81944">
        <ele>80.905368</ele>
        <time>2023-01-05T14:52:49.977Z</time>
      </trkpt>
      <trkpt lat="43.20956" lon="2.81962">
        <ele>80.853662</ele>
        <time>2023-01-05T14:52:51.940Z</time>
      </trkpt>
      <trkpt lat="43.20958" lon="2.81979">
        <ele>80.80434</ele>
        <time>2023-01-05T14:52:53.961Z</time>
      </trkpt>
      <trkpt lat="43.2096" lon="2.81997">
        <ele>80.753408</ele>
        <time>2023-01-05T14:52:55.971Z</time>
      </trkpt>
      <trkpt lat="43.20963" lon="2.82015">
        <ele>80.668397</ele>
        <time>2023-01-05T14:52:57.954Z</time>
      </trkpt>
      <trkpt lat="43.20965" lon="2.82033">
        <ele>80.555791</ele>
        <time>2023-01-05T14:52:59.967Z</time>
      </trkpt>
      <trkpt lat="43.20967" lon="2.82052">
        <ele>80.440907</ele>
        <time>2023-01-05T14:53:01.967Z</time>
      </trkpt>
      <trkpt lat="43.20969" lon="2.8207">
        <ele>80.325892</ele>
        <time>2023-01-05T14:53:03.963Z</time>
      </trkpt>
      <trkpt lat="43.20972" lon="2.82089">
        <ele>80.206845</ele>
        <time>2023-01-05T14:53:05.943Z</time>
      </trkpt>
      <trkpt lat="43.20975" lon="2.82109">
        <ele>80.087163</ele>
        <time>2023-01-05T14:53:07.944Z</time>
      </trkpt>
      <trkpt lat="43.20977" lon="2.82128">
        <ele>79.965711</ele>
        <time>2023-01-05T14:53:09.961Z</time>
      </trkpt>
      <trkpt lat="43.20979" lon="2.82148">
        <ele>79.844627</ele>
        <time>2023-01-05T14:53:11.939Z</time>
      </trkpt>
      <trkpt lat="43.20981" lon="2.82168">
        <ele>79.720909</ele>
        <time>2023-01-05T14:53:13.949Z</time>
      </trkpt>
      <trkpt lat="43.20983" lon="2.82187">
        <ele>79.599865</ele>
        <time>2023-01-05T14:53:15.962Z</time>
      </trkpt>
      <trkpt lat="43.20986" lon="2.82208">
        <ele>79.475677</ele>
        <time>2023-01-05T14:53:17.965Z</time>
      </trkpt>
      <trkpt lat="43.20988" lon="2.82227">
        <ele>79.355725</ele>
        <time>2023-01-05T14:53:19.965Z</time>
      </trkpt>
      <trkpt lat="43.2099" lon="2.82247">
        <ele>79.231297</ele>
        <time>2023-01-05T14:53:21.959Z</time>
      </trkpt>
      <trkpt lat="43.20993" lon="2.82267">
        <ele>79.12331</ele>
        <time>2023-01-05T14:53:23.952Z</time>
      </trkpt>
      <trkpt lat="43.20996" lon="2.82288">
        <ele>79.015104</ele>
        <time>2023-01-05T14:53:25.966Z</time>
      </trkpt>
      <trkpt lat="43.20998" lon="2.82309">
        <ele>78.906784</ele>
        <time>2023-01-05T14:53:27.956Z</time>
      </trkpt>
      <trkpt lat="43.21001" lon="2.82329">
        <ele>78.798854</ele>
        <time>2023-01-05T14:53:29.962Z</time>
      </trkpt>
      <trkpt lat="43.21003" lon="2.82349">
        <ele>78.694436</ele>
        <time>2023-01-05T14:53:31.963Z</time>
      </trkpt>
      <trkpt lat="43.21006" lon="2.8237">
        <ele>78.586625</ele>
        <time>2023-01-05T14:53:33.959Z</time>
      </trkpt>
      <trkpt lat="43.21008" lon="2.8239">
        <ele>78.481869</ele>
        <time>2023-01-05T14:53:35.967Z</time>
      </trkpt>
      <trkpt lat="43.2101" lon="2.82409">
        <ele>78.381532</ele>
        <time>2023-01-05T14:53:37.966Z</time>
      </trkpt>
      <trkpt lat="43.21012" lon="2.82427">
        <ele>78.285896</ele>
        <time>2023-01-05T14:53:39.967Z</time>
      </trkpt>
      <trkpt lat="43.21015" lon="2.82446">
        <ele>78.188109</ele>
        <time>2023-01-05T14:53:41.944Z</time>
      </trkpt>
      <trkpt lat="43.21017" lon="2.82464">
        <ele>78.093259</ele>
        <time>2023-01-05T14:53:43.963Z</time>
      </trkpt>
      <trkpt lat="43.21019" lon="2.82482">
        <ele>77.999934</ele>
        <time>2023-01-05T14:53:45.957Z</time>
      </trkpt>
      <trkpt lat="43.21022" lon="2.825">
        <ele>77.845518</ele>
        <time>2023-01-05T14:53:47.961Z</time>
      </trkpt>
      <trkpt lat="43.21024" lon="2.82518">
        <ele>77.629966</ele>
        <time>2023-01-05T14:53:49.965Z</time>
      </trkpt>
      <trkpt lat="43.21026" lon="2.82538">
        <ele>77.400864</ele>
        <time>2023-01-05T14:53:51.956Z</time>
      </trkpt>
      <trkpt lat="43.21028" lon="2.82556">
        <ele>77.181575</ele>
        <time>2023-01-05T14:53:53.965Z</time>
      </trkpt>
      <trkpt lat="43.2103" lon="2.82576">
        <ele>76.946912</ele>
        <time>2023-01-05T14:53:55.965Z</time>
      </trkpt>
      <trkpt lat="43.21033" lon="2.82594">
        <ele>76.722452</ele>
        <time>2023-01-05T14:53:57.966Z</time>
      </trkpt>
      <trkpt lat="43.21035" lon="2.82614">
        <ele>76.484686</ele>
        <time>2023-01-05T14:53:59.966Z</time>
      </trkpt>
      <trkpt lat="43.21038" lon="2.82633">
        <ele>76.261907</ele>
        <time>2023-01-05T14:54:01.962Z</time>
      </trkpt>
      <trkpt lat="43.21039" lon="2.82651">
        <ele>76.043525</ele>
        <time>2023-01-05T14:54:03.963Z</time>
      </trkpt>
      <trkpt lat="43.21041" lon="2.82669">
        <ele>75.834699</ele>
        <time>2023-01-05T14:54:05.965Z</time>
      </trkpt>
      <trkpt lat="43.21044" lon="2.82686">
        <ele>75.634587</ele>
        <time>2023-01-05T14:54:07.969Z</time>
      </trkpt>
      <trkpt lat="43.21046" lon="2.82704">
        <ele>75.416521</ele>
        <time>2023-01-05T14:54:09.965Z</time>
      </trkpt>
      <trkpt lat="43.21049" lon="2.82721">
        <ele>75.205563</ele>
        <time>2023-01-05T14:54:11.969Z</time>
      </trkpt>
      <trkpt lat="43.21052" lon="2.82739">
        <ele>75.068081</ele>
        <time>2023-01-05T14:54:13.942Z</time>
      </trkpt>
      <trkpt lat="43.21053" lon="2.82757">
        <ele>75.157621</ele>
        <time>2023-01-05T14:54:15.961Z</time>
      </trkpt>
      <trkpt lat="43.21055" lon="2.82774">
        <ele>75.244875</ele>
        <time>2023-01-05T14:54:17.942Z</time>
      </trkpt>
      <trkpt lat="43.21058" lon="2.82791">
        <ele>75.330375</ele>
        <time>2023-01-05T14:54:19.964Z</time>
      </trkpt>
      <trkpt lat="43.21059" lon="2.82807">
        <ele>75.412648</ele>
        <time>2023-01-05T14:54:21.939Z</time>
      </trkpt>
      <trkpt lat="43.21061" lon="2.82824">
        <ele>75.499518</ele>
        <time>2023-01-05T14:54:23.963Z</time>
      </trkpt>
      <trkpt lat="43.21063" lon="2.8284">
        <ele>75.583677</ele>
        <time>2023-01-05T14:54:25.964Z</time>
      </trkpt>
      <trkpt lat="43.21066" lon="2.82857">
        <ele>75.670205</ele>
        <time>2023-01-05T14:54:27.965Z</time>
      </trkpt>
      <trkpt lat="43.21068" lon="2.82874">
        <ele>75.754591</ele>
        <time>2023-01-05T14:54:29.965Z</time>
      </trkpt>
      <trkpt lat="43.2107" lon="2.8289">
        <ele>75.840467</ele>
        <time>2023-01-05T14:54:31.950Z</time>
      </trkpt>
      <trkpt lat="43.21072" lon="2.82908">
        <ele>75.929711</ele>
        <time>2023-01-05T14:54:33.965Z</time>
      </trkpt>
      <trkpt lat="43.21074" lon="2.82926">
        <ele>76.020173</ele>
        <time>2023-01-05T14:54:35.940Z</time>
      </trkpt>
      <trkpt lat="43.21076" lon="2.82944">
        <ele>76.112903</ele>
        <time>2023-01-05T14:54:37.964Z</time>
      </trkpt>
      <trkpt lat="43.21078" lon="2.82961">
        <ele>76.202754</ele>
        <time>2023-01-05T14:54:39.967Z</time>
      </trkpt>
      <trkpt lat="43.2108" lon="2.8298">
        <ele>76.285196</ele>
        <time>2023-01-05T14:54:41.966Z</time>
      </trkpt>
      <trkpt lat="43.21083" lon="2.82997">
        <ele>76.256701</ele>
        <time>2023-01-05T14:54:43.946Z</time>
      </trkpt>
      <trkpt lat="43.21085" lon="2.83015">
        <ele>76.227731</ele>
        <time>2023-01-05T14:54:45.946Z</time>
      </trkpt>
      <trkpt lat="43.21087" lon="2.83033">
        <ele>76.198197</ele>
        <time>2023-01-05T14:54:47.964Z</time>
      </trkpt>
      <trkpt lat="43.21089" lon="2.83052">
        <ele>76.168594</ele>
        <time>2023-01-05T14:54:49.965Z</time>
      </trkpt>
      <trkpt lat="43.21092" lon="2.8307">
        <ele>76.138992</ele>
        <time>2023-01-05T14:54:51.975Z</time>
      </trkpt>
      <trkpt lat="43.21094" lon="2.83088">
        <ele>76.108683</ele>
        <time>2023-01-05T14:54:53.946Z</time>
      </trkpt>
      <trkpt lat="43.21096" lon="2.83107">
        <ele>76.079052</ele>
        <time>2023-01-05T14:54:55.963Z</time>
      </trkpt>
      <trkpt lat="43.21098" lon="2.83123">
        <ele>76.051738</ele>
        <time>2023-01-05T14:54:57.963Z</time>
      </trkpt>
      <trkpt lat="43.211" lon="2.83141">
        <ele>76.023164</ele>
        <time>2023-01-05T14:54:59.966Z</time>
      </trkpt>
      <trkpt lat="43.21102" lon="2.83159">
        <ele>75.993438</ele>
        <time>2023-01-05T14:55:01.964Z</time>
      </trkpt>
      <trkpt lat="43.21105" lon="2.83177">
        <ele>75.964666</ele>
        <time>2023-01-05T14:55:03.962Z</time>
      </trkpt>
      <trkpt lat="43.21107" lon="2.83193">
        <ele>75.938143</ele>
        <time>2023-01-05T14:55:05.963Z</time>
      </trkpt>
      <trkpt lat="43.21109" lon="2.83209">
        <ele>75.912688</ele>
        <time>2023-01-05T14:55:07.964Z</time>
      </trkpt>
      <trkpt lat="43.21111" lon="2.83225">
        <ele>75.895007</ele>
        <time>2023-01-05T14:55:09.966Z</time>
      </trkpt>
      <trkpt lat="43.21113" lon="2.83242">
        <ele>75.907563</ele>
        <time>2023-01-05T14:55:11.968Z</time>
      </trkpt>
      <trkpt lat="43.21115" lon="2.8326">
        <ele>75.920892</ele>
        <time>2023-01-05T14:55:13.967Z</time>
      </trkpt>
      <trkpt lat="43.21117" lon="2.83278">
        <ele>75.934634</ele>
        <time>2023-01-05T14:55:15.963Z</time>
      </trkpt>
      <trkpt lat="43.21119" lon="2.83296">
        <ele>75.948005</ele>
        <time>2023-01-05T14:55:17.968Z</time>
      </trkpt>
      <trkpt lat="43.21122" lon="2.83314">
        <ele>75.961403</ele>
        <time>2023-01-05T14:55:19.968Z</time>
      </trkpt>
      <trkpt lat="43.21125" lon="2.83332">
        <ele>75.974698</ele>
        <time>2023-01-05T14:55:21.966Z</time>
      </trkpt>
      <trkpt lat="43.21127" lon="2.8335">
        <ele>75.988096</ele>
        <time>2023-01-05T14:55:23.968Z</time>
      </trkpt>
      <trkpt lat="43.21129" lon="2.83367">
        <ele>76.001115</ele>
        <time>2023-01-05T14:55:25.967Z</time>
      </trkpt>
      <trkpt lat="43.21132" lon="2.83385">
        <ele>76.014477</ele>
        <time>2023-01-05T14:55:27.962Z</time>
      </trkpt>
      <trkpt lat="43.21134" lon="2.83403">
        <ele>76.027771</ele>
        <time>2023-01-05T14:55:29.961Z</time>
      </trkpt>
      <trkpt lat="43.21136" lon="2.83421">
        <ele>76.040969</ele>
        <time>2023-01-05T14:55:31.954Z</time>
      </trkpt>
      <trkpt lat="43.21138" lon="2.83438">
        <ele>76.053919</ele>
        <time>2023-01-05T14:55:33.961Z</time>
      </trkpt>
      <trkpt lat="43.2114" lon="2.83455">
        <ele>76.06662</ele>
        <time>2023-01-05T14:55:35.963Z</time>
      </trkpt>
      <trkpt lat="43.21142" lon="2.83473">
        <ele>76.024416</ele>
        <time>2023-01-05T14:55:37.965Z</time>
      </trkpt>
      <trkpt lat="43.21145" lon="2.83491">
        <ele>75.919137</ele>
        <time>2023-01-05T14:55:39.964Z</time>
      </trkpt>
      <trkpt lat="43.21146" lon="2.83509">
        <ele>75.819171</ele>
        <time>2023-01-05T14:55:41.966Z</time>
      </trkpt>
      <trkpt lat="43.21148" lon="2.83526">
        <ele>75.72009</ele>
        <time>2023-01-05T14:55:43.966Z</time>
      </trkpt>
      <trkpt lat="43.2115" lon="2.83544">
        <ele>75.620332</ele>
        <time>2023-01-05T14:55:45.969Z</time>
      </trkpt>
      <trkpt lat="43.21153" lon="2.83562">
        <ele>75.520018</ele>
        <time>2023-01-05T14:55:47.967Z</time>
      </trkpt>
      <trkpt lat="43.21154" lon="2.8358">
        <ele>75.417926</ele>
        <time>2023-01-05T14:55:49.962Z</time>
      </trkpt>
      <trkpt lat="43.21155" lon="2.83596">
        <ele>75.326335</ele>
        <time>2023-01-05T14:55:51.957Z</time>
      </trkpt>
      <trkpt lat="43.21157" lon="2.83612">
        <ele>75.232375</ele>
        <time>2023-01-05T14:55:53.971Z</time>
      </trkpt>
      <trkpt lat="43.2116" lon="2.83629">
        <ele>75.137256</ele>
        <time>2023-01-05T14:55:55.965Z</time>
      </trkpt>
      <trkpt lat="43.21163" lon="2.83646">
        <ele>75.039157</ele>
        <time>2023-01-05T14:55:57.964Z</time>
      </trkpt>
      <trkpt lat="43.21165" lon="2.83663">
        <ele>74.942854</ele>
        <time>2023-01-05T14:55:59.966Z</time>
      </trkpt>
      <trkpt lat="43.21167" lon="2.8368">
        <ele>74.842413</ele>
        <time>2023-01-05T14:56:01.966Z</time>
      </trkpt>
      <trkpt lat="43.21169" lon="2.83699">
        <ele>74.737327</ele>
        <time>2023-01-05T14:56:03.964Z</time>
      </trkpt>
      <trkpt lat="43.21171" lon="2.83718">
        <ele>74.649601</ele>
        <time>2023-01-05T14:56:05.944Z</time>
      </trkpt>
      <trkpt lat="43.21173" lon="2.83737">
        <ele>74.585196</ele>
        <time>2023-01-05T14:56:07.965Z</time>
      </trkpt>
      <trkpt lat="43.21176" lon="2.83756">
        <ele>74.520792</ele>
        <time>2023-01-05T14:56:09.964Z</time>
      </trkpt>
      <trkpt lat="43.21178" lon="2.83774">
        <ele>74.457344</ele>
        <time>2023-01-05T14:56:11.955Z</time>
      </trkpt>
      <trkpt lat="43.2118" lon="2.83793">
        <ele>74.39127</ele>
        <time>2023-01-05T14:56:13.949Z</time>
      </trkpt>
      <trkpt lat="43.21182" lon="2.83812">
        <ele>74.326343</ele>
        <time>2023-01-05T14:56:15.967Z</time>
      </trkpt>
      <trkpt lat="43.21185" lon="2.83831">
        <ele>74.260934</ele>
        <time>2023-01-05T14:56:17.966Z</time>
      </trkpt>
      <trkpt lat="43.21187" lon="2.8385">
        <ele>74.195935</ele>
        <time>2023-01-05T14:56:19.962Z</time>
      </trkpt>
      <trkpt lat="43.21189" lon="2.8387">
        <ele>74.128723</ele>
        <time>2023-01-05T14:56:21.952Z</time>
      </trkpt>
      <trkpt lat="43.21191" lon="2.83889">
        <ele>74.062382</ele>
        <time>2023-01-05T14:56:23.963Z</time>
      </trkpt>
      <trkpt lat="43.21194" lon="2.83909">
        <ele>73.993886</ele>
        <time>2023-01-05T14:56:25.966Z</time>
      </trkpt>
      <trkpt lat="43.21197" lon="2.83928">
        <ele>73.926337</ele>
        <time>2023-01-05T14:56:27.964Z</time>
      </trkpt>
      <trkpt lat="43.21199" lon="2.83948">
        <ele>73.859188</ele>
        <time>2023-01-05T14:56:29.954Z</time>
      </trkpt>
      <trkpt lat="43.21202" lon="2.83967">
        <ele>73.850619</ele>
        <time>2023-01-05T14:56:31.962Z</time>
      </trkpt>
      <trkpt lat="43.21204" lon="2.83986">
        <ele>73.854459</ele>
        <time>2023-01-05T14:56:33.964Z</time>
      </trkpt>
      <trkpt lat="43.21206" lon="2.84005">
        <ele>73.858286</ele>
        <time>2023-01-05T14:56:35.968Z</time>
      </trkpt>
      <trkpt lat="43.21208" lon="2.84024">
        <ele>73.862074</ele>
        <time>2023-01-05T14:56:37.965Z</time>
      </trkpt>
      <trkpt lat="43.21211" lon="2.84042">
        <ele>73.865801</ele>
        <time>2023-01-05T14:56:39.966Z</time>
      </trkpt>
      <trkpt lat="43.21213" lon="2.8406">
        <ele>73.869466</ele>
        <time>2023-01-05T14:56:41.970Z</time>
      </trkpt>
      <trkpt lat="43.21215" lon="2.84078">
        <ele>73.872937</ele>
        <time>2023-01-05T14:56:43.967Z</time>
      </trkpt>
      <trkpt lat="43.21217" lon="2.84095">
        <ele>73.876389</ele>
        <time>2023-01-05T14:56:45.967Z</time>
      </trkpt>
      <trkpt lat="43.21219" lon="2.84112">
        <ele>73.879848</ele>
        <time>2023-01-05T14:56:47.966Z</time>
      </trkpt>
      <trkpt lat="43.21221" lon="2.84129">
        <ele>73.883295</ele>
        <time>2023-01-05T14:56:49.968Z</time>
      </trkpt>
      <trkpt lat="43.21223" lon="2.84145">
        <ele>73.886631</ele>
        <time>2023-01-05T14:56:51.963Z</time>
      </trkpt>
      <trkpt lat="43.21225" lon="2.84163">
        <ele>73.890157</ele>
        <time>2023-01-05T14:56:53.959Z</time>
      </trkpt>
      <trkpt lat="43.21227" lon="2.8418">
        <ele>73.893639</ele>
        <time>2023-01-05T14:56:55.967Z</time>
      </trkpt>
      <trkpt lat="43.21229" lon="2.84197">
        <ele>73.900093</ele>
        <time>2023-01-05T14:56:57.970Z</time>
      </trkpt>
      <trkpt lat="43.21231" lon="2.84214">
        <ele>73.925346</ele>
        <time>2023-01-05T14:56:59.968Z</time>
      </trkpt>
      <trkpt lat="43.21233" lon="2.84232">
        <ele>73.951285</ele>
        <time>2023-01-05T14:57:01.963Z</time>
      </trkpt>
      <trkpt lat="43.21235" lon="2.8425">
        <ele>73.976656</ele>
        <time>2023-01-05T14:57:03.966Z</time>
      </trkpt>
      <trkpt lat="43.21237" lon="2.84268">
        <ele>74.003194</ele>
        <time>2023-01-05T14:57:05.965Z</time>
      </trkpt>
      <trkpt lat="43.2124" lon="2.84285">
        <ele>74.028809</ele>
        <time>2023-01-05T14:57:07.962Z</time>
      </trkpt>
      <trkpt lat="43.21242" lon="2.84302">
        <ele>74.052872</ele>
        <time>2023-01-05T14:57:09.966Z</time>
      </trkpt>
      <trkpt lat="43.21244" lon="2.84318">
        <ele>74.076934</ele>
        <time>2023-01-05T14:57:11.965Z</time>
      </trkpt>
      <trkpt lat="43.21247" lon="2.84334">
        <ele>74.100638</ele>
        <time>2023-01-05T14:57:13.963Z</time>
      </trkpt>
      <trkpt lat="43.21249" lon="2.8435">
        <ele>74.123106</ele>
        <time>2023-01-05T14:57:15.970Z</time>
      </trkpt>
      <trkpt lat="43.2125" lon="2.84364">
        <ele>74.144549</ele>
        <time>2023-01-05T14:57:17.938Z</time>
      </trkpt>
      <trkpt lat="43.21252" lon="2.84379">
        <ele>74.165827</ele>
        <time>2023-01-05T14:57:19.965Z</time>
      </trkpt>
      <trkpt lat="43.21253" lon="2.84393">
        <ele>74.18617</ele>
        <time>2023-01-05T14:57:21.963Z</time>
      </trkpt>
      <trkpt lat="43.21256" lon="2.84408">
        <ele>74.207476</ele>
        <time>2023-01-05T14:57:23.940Z</time>
      </trkpt>
      <trkpt lat="43.21257" lon="2.84422">
        <ele>74.228034</ele>
        <time>2023-01-05T14:57:25.974Z</time>
      </trkpt>
      <trkpt lat="43.21259" lon="2.84436">
        <ele>74.248519</ele>
        <time>2023-01-05T14:57:27.966Z</time>
      </trkpt>
      <trkpt lat="43.21261" lon="2.8445">
        <ele>74.211439</ele>
        <time>2023-01-05T14:57:29.959Z</time>
      </trkpt>
      <trkpt lat="43.21263" lon="2.84466">
        <ele>74.159937</ele>
        <time>2023-01-05T14:57:31.959Z</time>
      </trkpt>
      <trkpt lat="43.21265" lon="2.84482">
        <ele>74.107151</ele>
        <time>2023-01-05T14:57:33.957Z</time>
      </trkpt>
      <trkpt lat="43.21266" lon="2.84498">
        <ele>74.052818</ele>
        <time>2023-01-05T14:57:35.971Z</time>
      </trkpt>
      <trkpt lat="43.21268" lon="2.84515">
        <ele>73.99815</ele>
        <time>2023-01-05T14:57:37.964Z</time>
      </trkpt>
      <trkpt lat="43.21271" lon="2.84532">
        <ele>73.941694</ele>
        <time>2023-01-05T14:57:39.961Z</time>
      </trkpt>
      <trkpt lat="43.21273" lon="2.84549">
        <ele>73.884786</ele>
        <time>2023-01-05T14:57:41.966Z</time>
      </trkpt>
      <trkpt lat="43.21275" lon="2.84567">
        <ele>73.825565</ele>
        <time>2023-01-05T14:57:43.940Z</time>
      </trkpt>
      <trkpt lat="43.21278" lon="2.84585">
        <ele>73.766344</ele>
        <time>2023-01-05T14:57:45.965Z</time>
      </trkpt>
      <trkpt lat="43.2128" lon="2.84604">
        <ele>73.70598</ele>
        <time>2023-01-05T14:57:47.967Z</time>
      </trkpt>
      <trkpt lat="43.21282" lon="2.84621">
        <ele>73.649712</ele>
        <time>2023-01-05T14:57:49.967Z</time>
      </trkpt>
      <trkpt lat="43.21284" lon="2.84638">
        <ele>73.592235</ele>
        <time>2023-01-05T14:57:51.958Z</time>
      </trkpt>
      <trkpt lat="43.21286" lon="2.84656">
        <ele>73.533541</ele>
        <time>2023-01-05T14:57:53.966Z</time>
      </trkpt>
      <trkpt lat="43.21288" lon="2.84674">
        <ele>73.476161</ele>
        <time>2023-01-05T14:57:55.967Z</time>
      </trkpt>
      <trkpt lat="43.2129" lon="2.8469">
        <ele>73.39765</ele>
        <time>2023-01-05T14:57:57.966Z</time>
      </trkpt>
      <trkpt lat="43.21291" lon="2.84707">
        <ele>73.295919</ele>
        <time>2023-01-05T14:57:59.969Z</time>
      </trkpt>
      <trkpt lat="43.21293" lon="2.84725">
        <ele>73.194551</ele>
        <time>2023-01-05T14:58:01.964Z</time>
      </trkpt>
      <trkpt lat="43.21296" lon="2.84742">
        <ele>73.092116</ele>
        <time>2023-01-05T14:58:03.939Z</time>
      </trkpt>
      <trkpt lat="43.21298" lon="2.84759">
        <ele>72.98947</ele>
        <time>2023-01-05T14:58:05.959Z</time>
      </trkpt>
      <trkpt lat="43.213" lon="2.84777">
        <ele>72.882688</ele>
        <time>2023-01-05T14:58:07.966Z</time>
      </trkpt>
      <trkpt lat="43.21302" lon="2.84795">
        <ele>72.776299</ele>
        <time>2023-01-05T14:58:09.968Z</time>
      </trkpt>
      <trkpt lat="43.21304" lon="2.84813">
        <ele>72.668504</ele>
        <time>2023-01-05T14:58:11.960Z</time>
      </trkpt>
      <trkpt lat="43.21306" lon="2.84831">
        <ele>72.559937</ele>
        <time>2023-01-05T14:58:13.952Z</time>
      </trkpt>
      <trkpt lat="43.21309" lon="2.8485">
        <ele>72.445506</ele>
        <time>2023-01-05T14:58:15.965Z</time>
      </trkpt>
      <trkpt lat="43.21311" lon="2.8487">
        <ele>72.331215</ele>
        <time>2023-01-05T14:58:17.945Z</time>
      </trkpt>
      <trkpt lat="43.21313" lon="2.84889">
        <ele>72.215992</ele>
        <time>2023-01-05T14:58:19.962Z</time>
      </trkpt>
      <trkpt lat="43.21316" lon="2.84908">
        <ele>72.102101</ele>
        <time>2023-01-05T14:58:21.962Z</time>
      </trkpt>
      <trkpt lat="43.21318" lon="2.84926">
        <ele>72.003472</ele>
        <time>2023-01-05T14:58:23.963Z</time>
      </trkpt>
      <trkpt lat="43.21321" lon="2.84944">
        <ele>72.008555</ele>
        <time>2023-01-05T14:58:25.968Z</time>
      </trkpt>
      <trkpt lat="43.21323" lon="2.8496">
        <ele>72.013309</ele>
        <time>2023-01-05T14:58:27.967Z</time>
      </trkpt>
      <trkpt lat="43.21325" lon="2.84978">
        <ele>72.01841</ele>
        <time>2023-01-05T14:58:29.964Z</time>
      </trkpt>
      <trkpt lat="43.21327" lon="2.84996">
        <ele>72.023635</ele>
        <time>2023-01-05T14:58:31.961Z</time>
      </trkpt>
      <trkpt lat="43.21329" lon="2.85014">
        <ele>72.028961</ele>
        <time>2023-01-05T14:58:33.968Z</time>
      </trkpt>
      <trkpt lat="43.21331" lon="2.85033">
        <ele>72.034304</ele>
        <time>2023-01-05T14:58:35.967Z</time>
      </trkpt>
      <trkpt lat="43.21333" lon="2.85052">
        <ele>72.039679</ele>
        <time>2023-01-05T14:58:37.968Z</time>
      </trkpt>
      <trkpt lat="43.21336" lon="2.85069">
        <ele>72.044739</ele>
        <time>2023-01-05T14:58:39.966Z</time>
      </trkpt>
      <trkpt lat="43.21338" lon="2.85087">
        <ele>72.049981</ele>
        <time>2023-01-05T14:58:41.967Z</time>
      </trkpt>
      <trkpt lat="43.2134" lon="2.85104">
        <ele>72.054826</ele>
        <time>2023-01-05T14:58:43.965Z</time>
      </trkpt>
      <trkpt lat="43.21342" lon="2.8512">
        <ele>72.059551</ele>
        <time>2023-01-05T14:58:45.968Z</time>
      </trkpt>
      <trkpt lat="43.21344" lon="2.85137">
        <ele>72.064358</ele>
        <time>2023-01-05T14:58:47.967Z</time>
      </trkpt>
      <trkpt lat="43.21346" lon="2.85152">
        <ele>72.068912</ele>
        <time>2023-01-05T14:58:49.970Z</time>
      </trkpt>
      <trkpt lat="43.21347" lon="2.85167">
        <ele>72.073188</ele>
        <time>2023-01-05T14:58:51.968Z</time>
      </trkpt>
      <trkpt lat="43.2135" lon="2.85182">
        <ele>72.028396</ele>
        <time>2023-01-05T14:58:53.965Z</time>
      </trkpt>
      <trkpt lat="43.21351" lon="2.85195">
        <ele>71.988003</ele>
        <time>2023-01-05T14:58:55.968Z</time>
      </trkpt>
      <trkpt lat="43.21353" lon="2.8521">
        <ele>71.940233</ele>
        <time>2023-01-05T14:58:57.964Z</time>
      </trkpt>
      <trkpt lat="43.21354" lon="2.85226">
        <ele>71.89234</ele>
        <time>2023-01-05T14:58:59.966Z</time>
      </trkpt>
      <trkpt lat="43.21356" lon="2.8524">
        <ele>71.846764</ele>
        <time>2023-01-05T14:59:01.961Z</time>
      </trkpt>
      <trkpt lat="43.21358" lon="2.85256">
        <ele>71.797592</ele>
        <time>2023-01-05T14:59:03.968Z</time>
      </trkpt>
      <trkpt lat="43.2136" lon="2.85273">
        <ele>71.745118</ele>
        <time>2023-01-05T14:59:05.964Z</time>
      </trkpt>
      <trkpt lat="43.21362" lon="2.85291">
        <ele>71.690073</ele>
        <time>2023-01-05T14:59:07.967Z</time>
      </trkpt>
      <trkpt lat="43.21364" lon="2.85309">
        <ele>71.633272</ele>
        <time>2023-01-05T14:59:09.959Z</time>
      </trkpt>
      <trkpt lat="43.21366" lon="2.85326">
        <ele>71.578227</ele>
        <time>2023-01-05T14:59:11.968Z</time>
      </trkpt>
      <trkpt lat="43.21368" lon="2.85344">
        <ele>71.522889</ele>
        <time>2023-01-05T14:59:13.966Z</time>
      </trkpt>
      <trkpt lat="43.2137" lon="2.85362">
        <ele>71.467067</ele>
        <time>2023-01-05T14:59:15.966Z</time>
      </trkpt>
      <trkpt lat="43.21372" lon="2.85379">
        <ele>71.41466</ele>
        <time>2023-01-05T14:59:17.945Z</time>
      </trkpt>
      <trkpt lat="43.21374" lon="2.85395">
        <ele>71.36506</ele>
        <time>2023-01-05T14:59:19.968Z</time>
      </trkpt>
      <trkpt lat="43.21375" lon="2.85412">
        <ele>71.312777</ele>
        <time>2023-01-05T14:59:21.964Z</time>
      </trkpt>
      <trkpt lat="43.21377" lon="2.85428">
        <ele>71.274002</ele>
        <time>2023-01-05T14:59:23.964Z</time>
      </trkpt>
      <trkpt lat="43.21379" lon="2.85444">
        <ele>71.238538</ele>
        <time>2023-01-05T14:59:25.966Z</time>
      </trkpt>
      <trkpt lat="43.21381" lon="2.85459">
        <ele>71.201687</ele>
        <time>2023-01-05T14:59:27.963Z</time>
      </trkpt>
      <trkpt lat="43.21383" lon="2.85475">
        <ele>71.165723</ele>
        <time>2023-01-05T14:59:29.965Z</time>
      </trkpt>
      <trkpt lat="43.21382" lon="2.85491">
        <ele>71.129687</ele>
        <time>2023-01-05T14:59:31.944Z</time>
      </trkpt>
      <trkpt lat="43.21381" lon="2.85506">
        <ele>71.094468</ele>
        <time>2023-01-05T14:59:33.960Z</time>
      </trkpt>
      <trkpt lat="43.21381" lon="2.85522">
        <ele>71.057985</ele>
        <time>2023-01-05T14:59:35.964Z</time>
      </trkpt>
      <trkpt lat="43.21383" lon="2.85537">
        <ele>71.023154</ele>
        <time>2023-01-05T14:59:37.949Z</time>
      </trkpt>
      <trkpt lat="43.21385" lon="2.85552">
        <ele>70.988001</ele>
        <time>2023-01-05T14:59:39.952Z</time>
      </trkpt>
      <trkpt lat="43.21385" lon="2.85567">
        <ele>70.954407</ele>
        <time>2023-01-05T14:59:41.966Z</time>
      </trkpt>
      <trkpt lat="43.21387" lon="2.8558">
        <ele>70.922349</ele>
        <time>2023-01-05T14:59:43.963Z</time>
      </trkpt>
      <trkpt lat="43.21389" lon="2.85593">
        <ele>70.892777</ele>
        <time>2023-01-05T14:59:45.967Z</time>
      </trkpt>
      <trkpt lat="43.21391" lon="2.8561">
        <ele>70.852989</ele>
        <time>2023-01-05T14:59:48.965Z</time>
      </trkpt>
      <trkpt lat="43.21393" lon="2.8562">
        <ele>70.829499</ele>
        <time>2023-01-05T15:00:32.925Z</time>
      </trkpt>
      <trkpt lat="43.21395" lon="2.85633">
        <ele>70.799918</ele>
        <time>2023-01-05T15:08:13.949Z</time>
      </trkpt>
      <trkpt lat="43.21401" lon="2.85642">
        <ele>70.770774</ele>
        <time>2023-01-05T15:08:18.974Z</time>
      </trkpt>
      <trkpt lat="43.21407" lon="2.85653">
        <ele>70.765282</ele>
        <time>2023-01-05T15:08:22.944Z</time>
      </trkpt>
      <trkpt lat="43.21408" lon="2.85667">
        <ele>70.85635</ele>
        <time>2023-01-05T15:08:25.953Z</time>
      </trkpt>
      <trkpt lat="43.2141" lon="2.85682">
        <ele>70.963653</ele>
        <time>2023-01-05T15:08:28.949Z</time>
      </trkpt>
      <trkpt lat="43.21412" lon="2.85698">
        <ele>71.07716</ele>
        <time>2023-01-05T15:08:31.964Z</time>
      </trkpt>
      <trkpt lat="43.21414" lon="2.85716">
        <ele>71.196286</ele>
        <time>2023-01-05T15:08:34.964Z</time>
      </trkpt>
      <trkpt lat="43.21416" lon="2.85733">
        <ele>71.312178</ele>
        <time>2023-01-05T15:08:37.971Z</time>
      </trkpt>
      <trkpt lat="43.21418" lon="2.85749">
        <ele>71.423497</ele>
        <time>2023-01-05T15:08:40.961Z</time>
      </trkpt>
      <trkpt lat="43.2142" lon="2.85765">
        <ele>71.534489</ele>
        <time>2023-01-05T15:08:43.969Z</time>
      </trkpt>
      <trkpt lat="43.21422" lon="2.85783">
        <ele>71.657559</ele>
        <time>2023-01-05T15:08:46.949Z</time>
      </trkpt>
      <trkpt lat="43.21423" lon="2.85795">
        <ele>71.743095</ele>
        <time>2023-01-05T15:08:48.964Z</time>
      </trkpt>
      <trkpt lat="43.21425" lon="2.85808">
        <ele>71.831116</ele>
        <time>2023-01-05T15:08:50.955Z</time>
      </trkpt>
      <trkpt lat="43.21426" lon="2.85821">
        <ele>71.925177</ele>
        <time>2023-01-05T15:08:52.958Z</time>
      </trkpt>
      <trkpt lat="43.21427" lon="2.85836">
        <ele>72.023104</ele>
        <time>2023-01-05T15:08:54.952Z</time>
      </trkpt>
      <trkpt lat="43.21427" lon="2.8585">
        <ele>72.120588</ele>
        <time>2023-01-05T15:08:56.954Z</time>
      </trkpt>
      <trkpt lat="43.21427" lon="2.85864">
        <ele>72.216708</ele>
        <time>2023-01-05T15:08:58.952Z</time>
      </trkpt>
      <trkpt lat="43.21427" lon="2.85879">
        <ele>72.319658</ele>
        <time>2023-01-05T15:09:00.964Z</time>
      </trkpt>
      <trkpt lat="43.21426" lon="2.85894">
        <ele>72.423015</ele>
        <time>2023-01-05T15:09:02.948Z</time>
      </trkpt>
      <trkpt lat="43.21425" lon="2.8591">
        <ele>72.560669</ele>
        <time>2023-01-05T15:09:04.963Z</time>
      </trkpt>
      <trkpt lat="43.21425" lon="2.85924">
        <ele>72.692647</ele>
        <time>2023-01-05T15:09:06.958Z</time>
      </trkpt>
      <trkpt lat="43.21425" lon="2.85939">
        <ele>72.828237</ele>
        <time>2023-01-05T15:09:08.943Z</time>
      </trkpt>
      <trkpt lat="43.21425" lon="2.85953">
        <ele>72.953842</ele>
        <time>2023-01-05T15:09:10.957Z</time>
      </trkpt>
      <trkpt lat="43.21425" lon="2.85967">
        <ele>73.075884</ele>
        <time>2023-01-05T15:09:12.947Z</time>
      </trkpt>
      <trkpt lat="43.21424" lon="2.8598">
        <ele>73.193769</ele>
        <time>2023-01-05T15:09:14.961Z</time>
      </trkpt>
      <trkpt lat="43.21423" lon="2.85992">
        <ele>73.309854</ele>
        <time>2023-01-05T15:09:16.949Z</time>
      </trkpt>
      <trkpt lat="43.21422" lon="2.86005">
        <ele>73.425151</ele>
        <time>2023-01-05T15:09:18.963Z</time>
      </trkpt>
      <trkpt lat="43.21421" lon="2.86024">
        <ele>73.596577</ele>
        <time>2023-01-05T15:09:21.946Z</time>
      </trkpt>
      <trkpt lat="43.21421" lon="2.86042">
        <ele>73.760128</ele>
        <time>2023-01-05T15:09:24.963Z</time>
      </trkpt>
      <trkpt lat="43.21421" lon="2.86059">
        <ele>73.913819</ele>
        <time>2023-01-05T15:09:27.955Z</time>
      </trkpt>
      <trkpt lat="43.2142" lon="2.86075">
        <ele>74.058924</ele>
        <time>2023-01-05T15:09:30.955Z</time>
      </trkpt>
      <trkpt lat="43.21419" lon="2.86091">
        <ele>74.200429</ele>
        <time>2023-01-05T15:09:33.963Z</time>
      </trkpt>
      <trkpt lat="43.21417" lon="2.86108">
        <ele>74.356059</ele>
        <time>2023-01-05T15:09:36.973Z</time>
      </trkpt>
      <trkpt lat="43.21416" lon="2.86126">
        <ele>74.519385</ele>
        <time>2023-01-05T15:09:39.963Z</time>
      </trkpt>
      <trkpt lat="43.21416" lon="2.86138">
        <ele>74.633299</ele>
        <time>2023-01-05T15:09:41.965Z</time>
      </trkpt>
      <trkpt lat="43.21415" lon="2.86151">
        <ele>74.605837</ele>
        <time>2023-01-05T15:09:43.959Z</time>
      </trkpt>
      <trkpt lat="43.21415" lon="2.86164">
        <ele>74.53712</ele>
        <time>2023-01-05T15:09:45.971Z</time>
      </trkpt>
      <trkpt lat="43.21414" lon="2.86178">
        <ele>74.46667</ele>
        <time>2023-01-05T15:09:47.952Z</time>
      </trkpt>
      <trkpt lat="43.21413" lon="2.86192">
        <ele>74.39205</ele>
        <time>2023-01-05T15:09:49.974Z</time>
      </trkpt>
      <trkpt lat="43.21413" lon="2.86206">
        <ele>74.317468</ele>
        <time>2023-01-05T15:09:51.953Z</time>
      </trkpt>
      <trkpt lat="43.21412" lon="2.86219">
        <ele>74.245776</ele>
        <time>2023-01-05T15:09:53.949Z</time>
      </trkpt>
      <trkpt lat="43.21411" lon="2.86234">
        <ele>74.170139</ele>
        <time>2023-01-05T15:09:55.947Z</time>
      </trkpt>
      <trkpt lat="43.21411" lon="2.86248">
        <ele>74.095061</ele>
        <time>2023-01-05T15:09:57.950Z</time>
      </trkpt>
      <trkpt lat="43.2141" lon="2.86262">
        <ele>74.020282</ele>
        <time>2023-01-05T15:09:59.971Z</time>
      </trkpt>
      <trkpt lat="43.21409" lon="2.86276">
        <ele>73.945615</ele>
        <time>2023-01-05T15:10:01.950Z</time>
      </trkpt>
      <trkpt lat="43.21409" lon="2.8629">
        <ele>73.870896</ele>
        <time>2023-01-05T15:10:03.947Z</time>
      </trkpt>
      <trkpt lat="43.21407" lon="2.86304">
        <ele>73.794044</ele>
        <time>2023-01-05T15:10:05.966Z</time>
      </trkpt>
      <trkpt lat="43.21405" lon="2.86318">
        <ele>73.719189</ele>
        <time>2023-01-05T15:10:07.952Z</time>
      </trkpt>
      <trkpt lat="43.21403" lon="2.86332">
        <ele>73.643433</ele>
        <time>2023-01-05T15:10:09.971Z</time>
      </trkpt>
      <trkpt lat="43.214" lon="2.86345">
        <ele>73.571669</ele>
        <time>2023-01-05T15:10:11.970Z</time>
      </trkpt>
      <trkpt lat="43.21398" lon="2.86358">
        <ele>73.501758</ele>
        <time>2023-01-05T15:10:13.945Z</time>
      </trkpt>
      <trkpt lat="43.21396" lon="2.8637">
        <ele>73.435506</ele>
        <time>2023-01-05T15:10:15.966Z</time>
      </trkpt>
      <trkpt lat="43.21393" lon="2.86383">
        <ele>73.369253</ele>
        <time>2023-01-05T15:10:17.948Z</time>
      </trkpt>
      <trkpt lat="43.2139" lon="2.86399">
        <ele>73.279842</ele>
        <time>2023-01-05T15:10:20.948Z</time>
      </trkpt>
      <trkpt lat="43.21387" lon="2.86414">
        <ele>73.200466</ele>
        <time>2023-01-05T15:10:23.939Z</time>
      </trkpt>
      <trkpt lat="43.21384" lon="2.86429">
        <ele>73.122608</ele>
        <time>2023-01-05T15:10:26.947Z</time>
      </trkpt>
      <trkpt lat="43.21381" lon="2.86445">
        <ele>73.042624</ele>
        <time>2023-01-05T15:10:29.944Z</time>
      </trkpt>
      <trkpt lat="43.21379" lon="2.8646">
        <ele>72.962971</ele>
        <time>2023-01-05T15:10:32.955Z</time>
      </trkpt>
      <trkpt lat="43.21376" lon="2.86476">
        <ele>72.879378</ele>
        <time>2023-01-05T15:10:35.944Z</time>
      </trkpt>
      <trkpt lat="43.21372" lon="2.86492">
        <ele>72.792912</ele>
        <time>2023-01-05T15:10:38.948Z</time>
      </trkpt>
      <trkpt lat="43.21368" lon="2.8651">
        <ele>72.699741</ele>
        <time>2023-01-05T15:10:41.939Z</time>
      </trkpt>
      <trkpt lat="43.21366" lon="2.86522">
        <ele>72.636291</ele>
        <time>2023-01-05T15:10:43.948Z</time>
      </trkpt>
      <trkpt lat="43.21363" lon="2.86535">
        <ele>72.568866</ele>
        <time>2023-01-05T15:10:45.969Z</time>
      </trkpt>
      <trkpt lat="43.2136" lon="2.86547">
        <ele>72.502307</ele>
        <time>2023-01-05T15:10:47.947Z</time>
      </trkpt>
      <trkpt lat="43.21357" lon="2.86559">
        <ele>72.437846</ele>
        <time>2023-01-05T15:10:49.971Z</time>
      </trkpt>
      <trkpt lat="43.21353" lon="2.86573">
        <ele>72.3627</ele>
        <time>2023-01-05T15:10:51.946Z</time>
      </trkpt>
      <trkpt lat="43.21348" lon="2.86586">
        <ele>72.289716</ele>
        <time>2023-01-05T15:10:53.972Z</time>
      </trkpt>
      <trkpt lat="43.21344" lon="2.86599">
        <ele>72.21719</ele>
        <time>2023-01-05T15:10:55.970Z</time>
      </trkpt>
      <trkpt lat="43.21339" lon="2.86613">
        <ele>72.140116</ele>
        <time>2023-01-05T15:10:57.951Z</time>
      </trkpt>
      <trkpt lat="43.21334" lon="2.86626">
        <ele>72.072729</ele>
        <time>2023-01-05T15:10:59.949Z</time>
      </trkpt>
      <trkpt lat="43.21329" lon="2.86639">
        <ele>72.012154</ele>
        <time>2023-01-05T15:11:01.971Z</time>
      </trkpt>
      <trkpt lat="43.21325" lon="2.86653">
        <ele>71.94959</ele>
        <time>2023-01-05T15:11:03.950Z</time>
      </trkpt>
      <trkpt lat="43.2132" lon="2.86666">
        <ele>71.886529</ele>
        <time>2023-01-05T15:11:05.956Z</time>
      </trkpt>
      <trkpt lat="43.21314" lon="2.8668">
        <ele>71.820321</ele>
        <time>2023-01-05T15:11:07.949Z</time>
      </trkpt>
      <trkpt lat="43.21309" lon="2.86694">
        <ele>71.755482</ele>
        <time>2023-01-05T15:11:09.950Z</time>
      </trkpt>
      <trkpt lat="43.21304" lon="2.86708">
        <ele>71.690304</ele>
        <time>2023-01-05T15:11:11.964Z</time>
      </trkpt>
      <trkpt lat="43.21299" lon="2.86722">
        <ele>71.626741</ele>
        <time>2023-01-05T15:11:13.949Z</time>
      </trkpt>
      <trkpt lat="43.21294" lon="2.86735">
        <ele>71.566642</ele>
        <time>2023-01-05T15:11:15.952Z</time>
      </trkpt>
      <trkpt lat="43.2129" lon="2.86748">
        <ele>71.50595</ele>
        <time>2023-01-05T15:11:17.970Z</time>
      </trkpt>
      <trkpt lat="43.21285" lon="2.86762">
        <ele>71.442495</ele>
        <time>2023-01-05T15:11:19.950Z</time>
      </trkpt>
      <trkpt lat="43.2128" lon="2.86775">
        <ele>71.379574</ele>
        <time>2023-01-05T15:11:21.952Z</time>
      </trkpt>
      <trkpt lat="43.21275" lon="2.86789">
        <ele>71.316875</ele>
        <time>2023-01-05T15:11:23.955Z</time>
      </trkpt>
      <trkpt lat="43.21271" lon="2.86802">
        <ele>71.257428</ele>
        <time>2023-01-05T15:11:25.960Z</time>
      </trkpt>
      <trkpt lat="43.21266" lon="2.86815">
        <ele>71.196961</ele>
        <time>2023-01-05T15:11:27.953Z</time>
      </trkpt>
      <trkpt lat="43.21261" lon="2.86828">
        <ele>71.136143</ele>
        <time>2023-01-05T15:11:29.955Z</time>
      </trkpt>
      <trkpt lat="43.21257" lon="2.8684">
        <ele>71.081483</ele>
        <time>2023-01-05T15:11:31.949Z</time>
      </trkpt>
      <trkpt lat="43.21253" lon="2.86852">
        <ele>71.131595</ele>
        <time>2023-01-05T15:11:33.970Z</time>
      </trkpt>
      <trkpt lat="43.21249" lon="2.86863">
        <ele>71.179958</ele>
        <time>2023-01-05T15:11:35.946Z</time>
      </trkpt>
      <trkpt lat="43.21245" lon="2.86875">
        <ele>71.229769</ele>
        <time>2023-01-05T15:11:37.965Z</time>
      </trkpt>
      <trkpt lat="43.21241" lon="2.8689">
        <ele>71.294003</ele>
        <time>2023-01-05T15:11:40.980Z</time>
      </trkpt>
      <trkpt lat="43.21237" lon="2.86905">
        <ele>71.355575</ele>
        <time>2023-01-05T15:11:43.956Z</time>
      </trkpt>
      <trkpt lat="43.21234" lon="2.8692">
        <ele>71.414022</ele>
        <time>2023-01-05T15:11:46.973Z</time>
      </trkpt>
      <trkpt lat="43.2123" lon="2.86934">
        <ele>71.471077</ele>
        <time>2023-01-05T15:11:49.950Z</time>
      </trkpt>
      <trkpt lat="43.21228" lon="2.86948">
        <ele>71.529609</ele>
        <time>2023-01-05T15:11:52.960Z</time>
      </trkpt>
      <trkpt lat="43.21225" lon="2.86963">
        <ele>71.589651</ele>
        <time>2023-01-05T15:11:55.944Z</time>
      </trkpt>
      <trkpt lat="43.21222" lon="2.8698">
        <ele>71.654465</ele>
        <time>2023-01-05T15:11:58.959Z</time>
      </trkpt>
      <trkpt lat="43.21218" lon="2.86995">
        <ele>71.718245</ele>
        <time>2023-01-05T15:12:01.961Z</time>
      </trkpt>
      <trkpt lat="43.21211" lon="2.8701">
        <ele>71.787354</ele>
        <time>2023-01-05T15:12:04.973Z</time>
      </trkpt>
      <trkpt lat="43.21204" lon="2.87019">
        <ele>71.837211</ele>
        <time>2023-01-05T15:12:06.960Z</time>
      </trkpt>
      <trkpt lat="43.21195" lon="2.87032">
        <ele>71.907021</ele>
        <time>2023-01-05T15:12:09.975Z</time>
      </trkpt>
      <trkpt lat="43.21187" lon="2.87045">
        <ele>71.976063</ele>
        <time>2023-01-05T15:12:12.951Z</time>
      </trkpt>
      <trkpt lat="43.21179" lon="2.87061">
        <ele>72.079752</ele>
        <time>2023-01-05T15:12:15.943Z</time>
      </trkpt>
      <trkpt lat="43.21174" lon="2.87073">
        <ele>72.25973</ele>
        <time>2023-01-05T15:12:18.955Z</time>
      </trkpt>
      <trkpt lat="43.2117" lon="2.87086">
        <ele>72.456618</ele>
        <time>2023-01-05T15:12:21.947Z</time>
      </trkpt>
      <trkpt lat="43.21165" lon="2.871">
        <ele>72.667669</ele>
        <time>2023-01-05T15:12:24.972Z</time>
      </trkpt>
      <trkpt lat="43.21162" lon="2.87113">
        <ele>72.850499</ele>
        <time>2023-01-05T15:12:27.944Z</time>
      </trkpt>
      <trkpt lat="43.21157" lon="2.87126">
        <ele>73.053546</ele>
        <time>2023-01-05T15:12:30.947Z</time>
      </trkpt>
      <trkpt lat="43.21151" lon="2.8714">
        <ele>73.266052</ele>
        <time>2023-01-05T15:12:33.954Z</time>
      </trkpt>
      <trkpt lat="43.21145" lon="2.87154">
        <ele>73.487817</ele>
        <time>2023-01-05T15:12:36.944Z</time>
      </trkpt>
      <trkpt lat="43.2114" lon="2.87168">
        <ele>73.704945</ele>
        <time>2023-01-05T15:12:39.946Z</time>
      </trkpt>
      <trkpt lat="43.21135" lon="2.87182">
        <ele>73.910748</ele>
        <time>2023-01-05T15:12:42.955Z</time>
      </trkpt>
      <trkpt lat="43.2113" lon="2.87195">
        <ele>74.101641</ele>
        <time>2023-01-05T15:12:45.945Z</time>
      </trkpt>
      <trkpt lat="43.21126" lon="2.87208">
        <ele>74.294867</ele>
        <time>2023-01-05T15:12:48.951Z</time>
      </trkpt>
      <trkpt lat="43.21121" lon="2.87221">
        <ele>74.50067</ele>
        <time>2023-01-05T15:12:51.956Z</time>
      </trkpt>
      <trkpt lat="43.21116" lon="2.87235">
        <ele>74.716219</ele>
        <time>2023-01-05T15:12:54.951Z</time>
      </trkpt>
      <trkpt lat="43.2111" lon="2.87249">
        <ele>74.928519</ele>
        <time>2023-01-05T15:12:57.958Z</time>
      </trkpt>
      <trkpt lat="43.21105" lon="2.87263">
        <ele>75.138954</ele>
        <time>2023-01-05T15:13:00.946Z</time>
      </trkpt>
      <trkpt lat="43.211" lon="2.87277">
        <ele>75.353302</ele>
        <time>2023-01-05T15:13:03.947Z</time>
      </trkpt>
      <trkpt lat="43.21095" lon="2.87291">
        <ele>75.353189</ele>
        <time>2023-01-05T15:13:06.968Z</time>
      </trkpt>
      <trkpt lat="43.21089" lon="2.87306">
        <ele>75.332545</ele>
        <time>2023-01-05T15:13:09.974Z</time>
      </trkpt>
      <trkpt lat="43.21084" lon="2.8732">
        <ele>75.312128</ele>
        <time>2023-01-05T15:13:12.972Z</time>
      </trkpt>
      <trkpt lat="43.21078" lon="2.87334">
        <ele>75.292248</ele>
        <time>2023-01-05T15:13:15.970Z</time>
      </trkpt>
      <trkpt lat="43.21073" lon="2.87349">
        <ele>75.271872</ele>
        <time>2023-01-05T15:13:18.972Z</time>
      </trkpt>
      <trkpt lat="43.21068" lon="2.87362">
        <ele>75.252129</ele>
        <time>2023-01-05T15:13:21.951Z</time>
      </trkpt>
      <trkpt lat="43.21064" lon="2.87376">
        <ele>75.232949</ele>
        <time>2023-01-05T15:13:24.952Z</time>
      </trkpt>
      <trkpt lat="43.21063" lon="2.87391">
        <ele>75.214293</ele>
        <time>2023-01-05T15:13:27.957Z</time>
      </trkpt>
      <trkpt lat="43.21065" lon="2.87405">
        <ele>75.195842</ele>
        <time>2023-01-05T15:13:30.944Z</time>
      </trkpt>
      <trkpt lat="43.2107" lon="2.87418">
        <ele>75.177206</ele>
        <time>2023-01-05T15:13:33.952Z</time>
      </trkpt>
      <trkpt lat="43.21075" lon="2.87432">
        <ele>75.158042</ele>
        <time>2023-01-05T15:13:36.972Z</time>
      </trkpt>
      <trkpt lat="43.21077" lon="2.87447">
        <ele>75.138482</ele>
        <time>2023-01-05T15:13:39.966Z</time>
      </trkpt>
      <trkpt lat="43.21077" lon="2.87464">
        <ele>75.117447</ele>
        <time>2023-01-05T15:13:42.964Z</time>
      </trkpt>
      <trkpt lat="43.21073" lon="2.87478">
        <ele>75.09782</ele>
        <time>2023-01-05T15:13:45.956Z</time>
      </trkpt>
      <trkpt lat="43.21071" lon="2.87493">
        <ele>75.079049</ele>
        <time>2023-01-05T15:13:48.971Z</time>
      </trkpt>
      <trkpt lat="43.21073" lon="2.87508">
        <ele>75.059905</ele>
        <time>2023-01-05T15:13:51.953Z</time>
      </trkpt>
      <trkpt lat="43.21077" lon="2.87527">
        <ele>74.73194</ele>
        <time>2023-01-05T15:13:54.972Z</time>
      </trkpt>
      <trkpt lat="43.21084" lon="2.8754">
        <ele>74.448728</ele>
        <time>2023-01-05T15:13:58.961Z</time>
      </trkpt>
      <trkpt lat="43.21091" lon="2.87553">
        <ele>74.16413</ele>
        <time>2023-01-05T15:14:01.953Z</time>
      </trkpt>
      <trkpt lat="43.211" lon="2.87567">
        <ele>73.849926</ele>
        <time>2023-01-05T15:14:04.969Z</time>
      </trkpt>
      <trkpt lat="43.21107" lon="2.87579">
        <ele>73.586108</ele>
        <time>2023-01-05T15:14:06.957Z</time>
      </trkpt>
      <trkpt lat="43.21113" lon="2.87591">
        <ele>73.329887</ele>
        <time>2023-01-05T15:14:08.941Z</time>
      </trkpt>
      <trkpt lat="43.21117" lon="2.87604">
        <ele>73.093862</ele>
        <time>2023-01-05T15:14:10.970Z</time>
      </trkpt>
      <trkpt lat="43.21122" lon="2.87617">
        <ele>72.846822</ele>
        <time>2023-01-05T15:14:12.958Z</time>
      </trkpt>
      <trkpt lat="43.21126" lon="2.87629">
        <ele>72.611171</ele>
        <time>2023-01-05T15:14:14.970Z</time>
      </trkpt>
      <trkpt lat="43.21129" lon="2.87641">
        <ele>72.385946</ele>
        <time>2023-01-05T15:14:16.961Z</time>
      </trkpt>
      <trkpt lat="43.21134" lon="2.87654">
        <ele>72.13593</ele>
        <time>2023-01-05T15:14:18.951Z</time>
      </trkpt>
      <trkpt lat="43.21138" lon="2.87666">
        <ele>71.91615</ele>
        <time>2023-01-05T15:14:20.978Z</time>
      </trkpt>
      <trkpt lat="43.21141" lon="2.87678">
        <ele>71.691437</ele>
        <time>2023-01-05T15:14:22.962Z</time>
      </trkpt>
      <trkpt lat="43.21144" lon="2.87691">
        <ele>71.460247</ele>
        <time>2023-01-05T15:14:24.971Z</time>
      </trkpt>
      <trkpt lat="43.21148" lon="2.87703">
        <ele>71.233447</ele>
        <time>2023-01-05T15:14:26.975Z</time>
      </trkpt>
      <trkpt lat="43.21152" lon="2.87715">
        <ele>70.99114</ele>
        <time>2023-01-05T15:14:28.971Z</time>
      </trkpt>
      <trkpt lat="43.21156" lon="2.87729">
        <ele>70.773604</ele>
        <time>2023-01-05T15:14:30.976Z</time>
      </trkpt>
      <trkpt lat="43.2116" lon="2.87742">
        <ele>70.647866</ele>
        <time>2023-01-05T15:14:32.971Z</time>
      </trkpt>
      <trkpt lat="43.21165" lon="2.87757">
        <ele>70.512839</ele>
        <time>2023-01-05T15:14:34.957Z</time>
      </trkpt>
      <trkpt lat="43.2117" lon="2.87771">
        <ele>70.382919</ele>
        <time>2023-01-05T15:14:36.950Z</time>
      </trkpt>
      <trkpt lat="43.21174" lon="2.87786">
        <ele>70.245874</ele>
        <time>2023-01-05T15:14:38.971Z</time>
      </trkpt>
      <trkpt lat="43.21179" lon="2.878">
        <ele>70.110847</ele>
        <time>2023-01-05T15:14:40.950Z</time>
      </trkpt>
      <trkpt lat="43.21184" lon="2.87815">
        <ele>69.976886</ele>
        <time>2023-01-05T15:14:42.971Z</time>
      </trkpt>
      <trkpt lat="43.21189" lon="2.8783">
        <ele>69.834834</ele>
        <time>2023-01-05T15:14:44.952Z</time>
      </trkpt>
      <trkpt lat="43.21194" lon="2.87845">
        <ele>69.696337</ele>
        <time>2023-01-05T15:14:46.950Z</time>
      </trkpt>
      <trkpt lat="43.212" lon="2.87859">
        <ele>69.557827</ele>
        <time>2023-01-05T15:14:48.972Z</time>
      </trkpt>
      <trkpt lat="43.21206" lon="2.87873">
        <ele>69.418967</ele>
        <time>2023-01-05T15:14:50.972Z</time>
      </trkpt>
      <trkpt lat="43.21212" lon="2.87888">
        <ele>69.278929</ele>
        <time>2023-01-05T15:14:52.948Z</time>
      </trkpt>
      <trkpt lat="43.21218" lon="2.87901">
        <ele>69.13929</ele>
        <time>2023-01-05T15:14:54.946Z</time>
      </trkpt>
      <trkpt lat="43.21225" lon="2.87916">
        <ele>68.996892</ele>
        <time>2023-01-05T15:14:56.973Z</time>
      </trkpt>
      <trkpt lat="43.21231" lon="2.87929">
        <ele>68.860351</ele>
        <time>2023-01-05T15:14:58.956Z</time>
      </trkpt>
      <trkpt lat="43.21238" lon="2.87942">
        <ele>68.724233</ele>
        <time>2023-01-05T15:15:00.968Z</time>
      </trkpt>
      <trkpt lat="43.21246" lon="2.87955">
        <ele>68.697061</ele>
        <time>2023-01-05T15:15:02.971Z</time>
      </trkpt>
      <trkpt lat="43.21252" lon="2.87968">
        <ele>68.681707</ele>
        <time>2023-01-05T15:15:04.967Z</time>
      </trkpt>
      <trkpt lat="43.21258" lon="2.8798">
        <ele>68.667132</ele>
        <time>2023-01-05T15:15:06.971Z</time>
      </trkpt>
      <trkpt lat="43.21264" lon="2.87993">
        <ele>68.652488</ele>
        <time>2023-01-05T15:15:08.966Z</time>
      </trkpt>
      <trkpt lat="43.21271" lon="2.88005">
        <ele>68.63761</ele>
        <time>2023-01-05T15:15:10.966Z</time>
      </trkpt>
      <trkpt lat="43.21277" lon="2.88016">
        <ele>68.623993</ele>
        <time>2023-01-05T15:15:12.962Z</time>
      </trkpt>
      <trkpt lat="43.21283" lon="2.88027">
        <ele>68.609907</ele>
        <time>2023-01-05T15:15:14.963Z</time>
      </trkpt>
      <trkpt lat="43.21289" lon="2.8804">
        <ele>68.59583</ele>
        <time>2023-01-05T15:15:16.965Z</time>
      </trkpt>
      <trkpt lat="43.21295" lon="2.88052">
        <ele>68.581744</ele>
        <time>2023-01-05T15:15:18.965Z</time>
      </trkpt>
      <trkpt lat="43.21302" lon="2.88064">
        <ele>68.566539</ele>
        <time>2023-01-05T15:15:20.971Z</time>
      </trkpt>
      <trkpt lat="43.21309" lon="2.88077">
        <ele>68.550791</ele>
        <time>2023-01-05T15:15:22.954Z</time>
      </trkpt>
      <trkpt lat="43.21315" lon="2.8809">
        <ele>68.53512</ele>
        <time>2023-01-05T15:15:24.966Z</time>
      </trkpt>
      <trkpt lat="43.21322" lon="2.88103">
        <ele>68.519286</ele>
        <time>2023-01-05T15:15:26.949Z</time>
      </trkpt>
      <trkpt lat="43.21329" lon="2.88115">
        <ele>68.503696</ele>
        <time>2023-01-05T15:15:28.956Z</time>
      </trkpt>
      <trkpt lat="43.21336" lon="2.88128">
        <ele>68.488186</ele>
        <time>2023-01-05T15:15:30.943Z</time>
      </trkpt>
      <trkpt lat="43.21343" lon="2.88142">
        <ele>68.472035</ele>
        <time>2023-01-05T15:15:32.958Z</time>
      </trkpt>
      <trkpt lat="43.2135" lon="2.88156">
        <ele>68.492762</ele>
        <time>2023-01-05T15:15:34.943Z</time>
      </trkpt>
      <trkpt lat="43.21356" lon="2.88169">
        <ele>68.517997</ele>
        <time>2023-01-05T15:15:36.947Z</time>
      </trkpt>
      <trkpt lat="43.21363" lon="2.88182">
        <ele>68.542829</ele>
        <time>2023-01-05T15:15:38.971Z</time>
      </trkpt>
      <trkpt lat="43.21368" lon="2.88195">
        <ele>68.566715</ele>
        <time>2023-01-05T15:15:40.974Z</time>
      </trkpt>
      <trkpt lat="43.21373" lon="2.8821">
        <ele>68.592253</ele>
        <time>2023-01-05T15:15:42.952Z</time>
      </trkpt>
      <trkpt lat="43.21376" lon="2.88225">
        <ele>68.617952</ele>
        <time>2023-01-05T15:15:44.950Z</time>
      </trkpt>
      <trkpt lat="43.21377" lon="2.88241">
        <ele>68.642556</ele>
        <time>2023-01-05T15:15:46.957Z</time>
      </trkpt>
      <trkpt lat="43.21377" lon="2.88256">
        <ele>68.667099</ele>
        <time>2023-01-05T15:15:48.958Z</time>
      </trkpt>
      <trkpt lat="43.21376" lon="2.88271">
        <ele>68.691032</ele>
        <time>2023-01-05T15:15:50.957Z</time>
      </trkpt>
      <trkpt lat="43.21376" lon="2.88287">
        <ele>68.716084</ele>
        <time>2023-01-05T15:15:52.947Z</time>
      </trkpt>
      <trkpt lat="43.21376" lon="2.88303">
        <ele>68.741263</ele>
        <time>2023-01-05T15:15:54.950Z</time>
      </trkpt>
      <trkpt lat="43.21376" lon="2.88319">
        <ele>68.766756</ele>
        <time>2023-01-05T15:15:56.948Z</time>
      </trkpt>
      <trkpt lat="43.21376" lon="2.88336">
        <ele>68.793231</ele>
        <time>2023-01-05T15:15:58.969Z</time>
      </trkpt>
      <trkpt lat="43.21377" lon="2.88352">
        <ele>68.81889</ele>
        <time>2023-01-05T15:16:00.969Z</time>
      </trkpt>
      <trkpt lat="43.21377" lon="2.88369">
        <ele>68.845997</ele>
        <time>2023-01-05T15:16:02.972Z</time>
      </trkpt>
      <trkpt lat="43.21377" lon="2.88386">
        <ele>68.820353</ele>
        <time>2023-01-05T15:16:04.968Z</time>
      </trkpt>
      <trkpt lat="43.21378" lon="2.88403">
        <ele>68.731731</ele>
        <time>2023-01-05T15:16:06.976Z</time>
      </trkpt>
      <trkpt lat="43.21378" lon="2.88419">
        <ele>68.645093</ele>
        <time>2023-01-05T15:16:08.948Z</time>
      </trkpt>
      <trkpt lat="43.21379" lon="2.88436">
        <ele>68.555905</ele>
        <time>2023-01-05T15:16:10.955Z</time>
      </trkpt>
      <trkpt lat="43.21379" lon="2.88453">
        <ele>68.466753</ele>
        <time>2023-01-05T15:16:12.946Z</time>
      </trkpt>
      <trkpt lat="43.21379" lon="2.88469">
        <ele>68.379723</ele>
        <time>2023-01-05T15:16:14.950Z</time>
      </trkpt>
      <trkpt lat="43.2138" lon="2.88485">
        <ele>68.294098</ele>
        <time>2023-01-05T15:16:16.962Z</time>
      </trkpt>
      <trkpt lat="43.2138" lon="2.885">
        <ele>68.213895</ele>
        <time>2023-01-05T15:16:18.953Z</time>
      </trkpt>
      <trkpt lat="43.2138" lon="2.88515">
        <ele>68.136397</ele>
        <time>2023-01-05T15:16:20.958Z</time>
      </trkpt>
      <trkpt lat="43.2138" lon="2.8853">
        <ele>68.058399</ele>
        <time>2023-01-05T15:16:22.940Z</time>
      </trkpt>
      <trkpt lat="43.2138" lon="2.88544">
        <ele>67.980929</ele>
        <time>2023-01-05T15:16:24.967Z</time>
      </trkpt>
      <trkpt lat="43.2138" lon="2.88559">
        <ele>67.900265</ele>
        <time>2023-01-05T15:16:26.972Z</time>
      </trkpt>
      <trkpt lat="43.21381" lon="2.88574">
        <ele>67.822579</ele>
        <time>2023-01-05T15:16:28.944Z</time>
      </trkpt>
      <trkpt lat="43.21381" lon="2.8859">
        <ele>67.739262</ele>
        <time>2023-01-05T15:16:30.953Z</time>
      </trkpt>
      <trkpt lat="43.21381" lon="2.88605">
        <ele>67.657469</ele>
        <time>2023-01-05T15:16:32.955Z</time>
      </trkpt>
      <trkpt lat="43.21382" lon="2.88622">
        <ele>67.568833</ele>
        <time>2023-01-05T15:16:34.950Z</time>
      </trkpt>
      <trkpt lat="43.21382" lon="2.88639">
        <ele>67.520758</ele>
        <time>2023-01-05T15:16:36.965Z</time>
      </trkpt>
      <trkpt lat="43.21382" lon="2.88655">
        <ele>67.484032</ele>
        <time>2023-01-05T15:16:38.950Z</time>
      </trkpt>
      <trkpt lat="43.21382" lon="2.88671">
        <ele>67.447535</ele>
        <time>2023-01-05T15:16:40.951Z</time>
      </trkpt>
      <trkpt lat="43.21383" lon="2.88688">
        <ele>67.409176</ele>
        <time>2023-01-05T15:16:42.943Z</time>
      </trkpt>
      <trkpt lat="43.21384" lon="2.88705">
        <ele>67.371427</ele>
        <time>2023-01-05T15:16:44.951Z</time>
      </trkpt>
      <trkpt lat="43.21384" lon="2.88721">
        <ele>67.335152</ele>
        <time>2023-01-05T15:16:46.947Z</time>
      </trkpt>
      <trkpt lat="43.21384" lon="2.88737">
        <ele>67.299105</ele>
        <time>2023-01-05T15:16:48.949Z</time>
      </trkpt>
      <trkpt lat="43.21385" lon="2.88752">
        <ele>67.264828</ele>
        <time>2023-01-05T15:16:50.947Z</time>
      </trkpt>
      <trkpt lat="43.21386" lon="2.88768">
        <ele>67.229617</ele>
        <time>2023-01-05T15:16:52.973Z</time>
      </trkpt>
      <trkpt lat="43.21386" lon="2.88783">
        <ele>67.196038</ele>
        <time>2023-01-05T15:16:54.962Z</time>
      </trkpt>
      <trkpt lat="43.21386" lon="2.88797">
        <ele>67.16356</ele>
        <time>2023-01-05T15:16:56.953Z</time>
      </trkpt>
      <trkpt lat="43.21386" lon="2.88812">
        <ele>67.129316</ele>
        <time>2023-01-05T15:16:58.952Z</time>
      </trkpt>
      <trkpt lat="43.21387" lon="2.88828">
        <ele>67.093942</ele>
        <time>2023-01-05T15:17:00.950Z</time>
      </trkpt>
      <trkpt lat="43.21386" lon="2.88843">
        <ele>67.058797</ele>
        <time>2023-01-05T15:17:02.955Z</time>
      </trkpt>
      <trkpt lat="43.21387" lon="2.8886">
        <ele>67.02228</ele>
        <time>2023-01-05T15:17:04.966Z</time>
      </trkpt>
      <trkpt lat="43.21387" lon="2.88876">
        <ele>66.979839</ele>
        <time>2023-01-05T15:17:06.949Z</time>
      </trkpt>
      <trkpt lat="43.21387" lon="2.88892">
        <ele>66.914674</ele>
        <time>2023-01-05T15:17:08.976Z</time>
      </trkpt>
      <trkpt lat="43.21386" lon="2.88908">
        <ele>66.85111</ele>
        <time>2023-01-05T15:17:10.950Z</time>
      </trkpt>
      <trkpt lat="43.21385" lon="2.88924">
        <ele>66.785976</ele>
        <time>2023-01-05T15:17:12.968Z</time>
      </trkpt>
      <trkpt lat="43.21385" lon="2.8894">
        <ele>66.725179</ele>
        <time>2023-01-05T15:17:14.950Z</time>
      </trkpt>
      <trkpt lat="43.21384" lon="2.88955">
        <ele>66.662699</ele>
        <time>2023-01-05T15:17:16.958Z</time>
      </trkpt>
      <trkpt lat="43.21382" lon="2.88971">
        <ele>66.598391</ele>
        <time>2023-01-05T15:17:18.959Z</time>
      </trkpt>
      <trkpt lat="43.21381" lon="2.88986">
        <ele>66.537533</ele>
        <time>2023-01-05T15:17:20.947Z</time>
      </trkpt>
      <trkpt lat="43.21379" lon="2.89002">
        <ele>66.475099</ele>
        <time>2023-01-05T15:17:22.956Z</time>
      </trkpt>
      <trkpt lat="43.21377" lon="2.89017">
        <ele>66.412762</ele>
        <time>2023-01-05T15:17:24.951Z</time>
      </trkpt>
      <trkpt lat="43.21374" lon="2.89032">
        <ele>66.351903</ele>
        <time>2023-01-05T15:17:26.966Z</time>
      </trkpt>
      <trkpt lat="43.21372" lon="2.89047">
        <ele>66.289885</ele>
        <time>2023-01-05T15:17:28.969Z</time>
      </trkpt>
      <trkpt lat="43.21369" lon="2.89063">
        <ele>66.22748</ele>
        <time>2023-01-05T15:17:30.955Z</time>
      </trkpt>
      <trkpt lat="43.21367" lon="2.89078">
        <ele>66.167003</ele>
        <time>2023-01-05T15:17:32.947Z</time>
      </trkpt>
      <trkpt lat="43.21365" lon="2.89093">
        <ele>66.105836</ele>
        <time>2023-01-05T15:17:34.949Z</time>
      </trkpt>
      <trkpt lat="43.21362" lon="2.89108">
        <ele>66.043305</ele>
        <time>2023-01-05T15:17:36.956Z</time>
      </trkpt>
      <trkpt lat="43.2136" lon="2.89123">
        <ele>65.998743</ele>
        <time>2023-01-05T15:17:38.940Z</time>
      </trkpt>
      <trkpt lat="43.21358" lon="2.89138">
        <ele>65.96728</ele>
        <time>2023-01-05T15:17:40.955Z</time>
      </trkpt>
      <trkpt lat="43.21356" lon="2.89154">
        <ele>65.934824</ele>
        <time>2023-01-05T15:17:42.948Z</time>
      </trkpt>
      <trkpt lat="43.21355" lon="2.8917">
        <ele>65.902212</ele>
        <time>2023-01-05T15:17:44.951Z</time>
      </trkpt>
      <trkpt lat="43.21353" lon="2.89187">
        <ele>65.867678</ele>
        <time>2023-01-05T15:17:46.969Z</time>
      </trkpt>
      <trkpt lat="43.21351" lon="2.89203">
        <ele>65.83542</ele>
        <time>2023-01-05T15:17:48.956Z</time>
      </trkpt>
      <trkpt lat="43.2135" lon="2.89218">
        <ele>65.804677</ele>
        <time>2023-01-05T15:17:50.965Z</time>
      </trkpt>
      <trkpt lat="43.21348" lon="2.89234">
        <ele>65.772981</ele>
        <time>2023-01-05T15:17:52.956Z</time>
      </trkpt>
      <trkpt lat="43.21347" lon="2.89249">
        <ele>65.742282</ele>
        <time>2023-01-05T15:17:54.940Z</time>
      </trkpt>
      <trkpt lat="43.21344" lon="2.89264">
        <ele>65.710814</ele>
        <time>2023-01-05T15:17:56.953Z</time>
      </trkpt>
      <trkpt lat="43.21343" lon="2.89279">
        <ele>65.680551</ele>
        <time>2023-01-05T15:17:58.945Z</time>
      </trkpt>
      <trkpt lat="43.21341" lon="2.89295">
        <ele>65.648095</ele>
        <time>2023-01-05T15:18:00.955Z</time>
      </trkpt>
      <trkpt lat="43.21338" lon="2.89312">
        <ele>65.61344</ele>
        <time>2023-01-05T15:18:02.955Z</time>
      </trkpt>
      <trkpt lat="43.21334" lon="2.89329">
        <ele>65.578006</ele>
        <time>2023-01-05T15:18:04.949Z</time>
      </trkpt>
      <trkpt lat="43.2133" lon="2.89345">
        <ele>65.54214</ele>
        <time>2023-01-05T15:18:06.945Z</time>
      </trkpt>
      <trkpt lat="43.21325" lon="2.89362">
        <ele>65.540337</ele>
        <time>2023-01-05T15:18:08.946Z</time>
      </trkpt>
      <trkpt lat="43.21318" lon="2.89378">
        <ele>65.611334</ele>
        <time>2023-01-05T15:18:10.954Z</time>
      </trkpt>
      <trkpt lat="43.21312" lon="2.89394">
        <ele>65.68165</ele>
        <time>2023-01-05T15:18:12.956Z</time>
      </trkpt>
      <trkpt lat="43.21306" lon="2.8941">
        <ele>65.750867</ele>
        <time>2023-01-05T15:18:14.948Z</time>
      </trkpt>
      <trkpt lat="43.21299" lon="2.89425">
        <ele>65.818891</ele>
        <time>2023-01-05T15:18:16.955Z</time>
      </trkpt>
      <trkpt lat="43.21293" lon="2.8944">
        <ele>65.884633</ele>
        <time>2023-01-05T15:18:18.965Z</time>
      </trkpt>
      <trkpt lat="43.21287" lon="2.89454">
        <ele>65.946976</ele>
        <time>2023-01-05T15:18:20.948Z</time>
      </trkpt>
      <trkpt lat="43.21281" lon="2.89468">
        <ele>66.009579</ele>
        <time>2023-01-05T15:18:22.953Z</time>
      </trkpt>
      <trkpt lat="43.21275" lon="2.8948">
        <ele>66.067775</ele>
        <time>2023-01-05T15:18:24.941Z</time>
      </trkpt>
      <trkpt lat="43.2127" lon="2.89492">
        <ele>66.124065</ele>
        <time>2023-01-05T15:18:26.945Z</time>
      </trkpt>
      <trkpt lat="43.21264" lon="2.89505">
        <ele>66.18025</ele>
        <time>2023-01-05T15:18:28.947Z</time>
      </trkpt>
      <trkpt lat="43.21261" lon="2.89518">
        <ele>66.233299</ele>
        <time>2023-01-05T15:18:30.955Z</time>
      </trkpt>
      <trkpt lat="43.21257" lon="2.8953">
        <ele>66.285311</ele>
        <time>2023-01-05T15:18:32.951Z</time>
      </trkpt>
      <trkpt lat="43.21254" lon="2.89544">
        <ele>66.338793</ele>
        <time>2023-01-05T15:18:34.948Z</time>
      </trkpt>
      <trkpt lat="43.21252" lon="2.89558">
        <ele>66.394926</ele>
        <time>2023-01-05T15:18:36.950Z</time>
      </trkpt>
      <trkpt lat="43.21251" lon="2.89572">
        <ele>66.451097</ele>
        <time>2023-01-05T15:18:38.945Z</time>
      </trkpt>
      <trkpt lat="43.21249" lon="2.89587">
        <ele>66.497754</ele>
        <time>2023-01-05T15:18:40.940Z</time>
      </trkpt>
      <trkpt lat="43.21247" lon="2.89601">
        <ele>66.538265</ele>
        <time>2023-01-05T15:18:42.949Z</time>
      </trkpt>
      <trkpt lat="43.21245" lon="2.89616">
        <ele>66.580574</ele>
        <time>2023-01-05T15:18:44.946Z</time>
      </trkpt>
      <trkpt lat="43.21243" lon="2.89631">
        <ele>66.623141</ele>
        <time>2023-01-05T15:18:46.945Z</time>
      </trkpt>
      <trkpt lat="43.21241" lon="2.89645">
        <ele>66.664748</ele>
        <time>2023-01-05T15:18:48.946Z</time>
      </trkpt>
      <trkpt lat="43.21239" lon="2.8966">
        <ele>66.707932</ele>
        <time>2023-01-05T15:18:50.946Z</time>
      </trkpt>
      <trkpt lat="43.21237" lon="2.89675">
        <ele>66.749659</ele>
        <time>2023-01-05T15:18:52.953Z</time>
      </trkpt>
      <trkpt lat="43.21237" lon="2.8969">
        <ele>66.791683</ele>
        <time>2023-01-05T15:18:54.951Z</time>
      </trkpt>
      <trkpt lat="43.21236" lon="2.89706">
        <ele>66.836755</ele>
        <time>2023-01-05T15:18:56.955Z</time>
      </trkpt>
      <trkpt lat="43.21237" lon="2.89722">
        <ele>66.879393</ele>
        <time>2023-01-05T15:18:58.951Z</time>
      </trkpt>
      <trkpt lat="43.21236" lon="2.89736">
        <ele>66.920607</ele>
        <time>2023-01-05T15:19:00.949Z</time>
      </trkpt>
      <trkpt lat="43.21236" lon="2.89751">
        <ele>66.961713</ele>
        <time>2023-01-05T15:19:02.956Z</time>
      </trkpt>
      <trkpt lat="43.21236" lon="2.89765">
        <ele>67.001711</ele>
        <time>2023-01-05T15:19:04.957Z</time>
      </trkpt>
      <trkpt lat="43.21236" lon="2.89779">
        <ele>67.040017</ele>
        <time>2023-01-05T15:19:06.951Z</time>
      </trkpt>
      <trkpt lat="43.21236" lon="2.89792">
        <ele>67.076092</ele>
        <time>2023-01-05T15:19:08.958Z</time>
      </trkpt>
      <trkpt lat="43.21236" lon="2.8981">
        <ele>67.126151</ele>
        <time>2023-01-05T15:19:11.949Z</time>
      </trkpt>
      <trkpt lat="43.21236" lon="2.89828">
        <ele>67.161983</ele>
        <time>2023-01-05T15:19:14.947Z</time>
      </trkpt>
      <trkpt lat="43.21235" lon="2.89846">
        <ele>67.162291</ele>
        <time>2023-01-05T15:19:17.959Z</time>
      </trkpt>
      <trkpt lat="43.21233" lon="2.89858">
        <ele>67.162506</ele>
        <time>2023-01-05T15:19:19.943Z</time>
      </trkpt>
      <trkpt lat="43.21232" lon="2.89874">
        <ele>67.162782</ele>
        <time>2023-01-05T15:19:22.961Z</time>
      </trkpt>
      <trkpt lat="43.2123" lon="2.89888">
        <ele>67.163029</ele>
        <time>2023-01-05T15:19:25.951Z</time>
      </trkpt>
      <trkpt lat="43.21228" lon="2.89904">
        <ele>67.1633</ele>
        <time>2023-01-05T15:19:28.956Z</time>
      </trkpt>
      <trkpt lat="43.21227" lon="2.8992">
        <ele>67.163583</ele>
        <time>2023-01-05T15:19:31.955Z</time>
      </trkpt>
      <trkpt lat="43.21225" lon="2.89938">
        <ele>67.163881</ele>
        <time>2023-01-05T15:19:34.946Z</time>
      </trkpt>
      <trkpt lat="43.21224" lon="2.89956">
        <ele>67.164192</ele>
        <time>2023-01-05T15:19:37.956Z</time>
      </trkpt>
      <trkpt lat="43.21222" lon="2.89968">
        <ele>67.164413</ele>
        <time>2023-01-05T15:19:39.953Z</time>
      </trkpt>
      <trkpt lat="43.2122" lon="2.89987">
        <ele>67.164728</ele>
        <time>2023-01-05T15:19:42.943Z</time>
      </trkpt>
      <trkpt lat="43.21219" lon="2.89999">
        <ele>67.164948</ele>
        <time>2023-01-05T15:19:44.955Z</time>
      </trkpt>
      <trkpt lat="43.21218" lon="2.90012">
        <ele>67.165169</ele>
        <time>2023-01-05T15:19:46.941Z</time>
      </trkpt>
      <trkpt lat="43.21218" lon="2.90027">
        <ele>67.165424</ele>
        <time>2023-01-05T15:19:48.951Z</time>
      </trkpt>
      <trkpt lat="43.21217" lon="2.90046">
        <ele>67.165743</ele>
        <time>2023-01-05T15:19:51.957Z</time>
      </trkpt>
      <trkpt lat="43.21216" lon="2.90059">
        <ele>67.16597</ele>
        <time>2023-01-05T15:19:53.958Z</time>
      </trkpt>
      <trkpt lat="43.21215" lon="2.90073">
        <ele>67.219639</ele>
        <time>2023-01-05T15:19:55.949Z</time>
      </trkpt>
      <trkpt lat="43.21214" lon="2.90086">
        <ele>67.355913</ele>
        <time>2023-01-05T15:19:57.943Z</time>
      </trkpt>
      <trkpt lat="43.21213" lon="2.90099">
        <ele>67.499413</ele>
        <time>2023-01-05T15:19:59.947Z</time>
      </trkpt>
      <trkpt lat="43.21212" lon="2.90116">
        <ele>67.67849</ele>
        <time>2023-01-05T15:20:02.956Z</time>
      </trkpt>
      <trkpt lat="43.21212" lon="2.90132">
        <ele>67.835549</ele>
        <time>2023-01-05T15:20:05.944Z</time>
      </trkpt>
      <trkpt lat="43.21212" lon="2.90147">
        <ele>67.993629</ele>
        <time>2023-01-05T15:20:08.943Z</time>
      </trkpt>
      <trkpt lat="43.21213" lon="2.90162">
        <ele>68.149689</ele>
        <time>2023-01-05T15:20:11.944Z</time>
      </trkpt>
      <trkpt lat="43.21214" lon="2.90178">
        <ele>68.323033</ele>
        <time>2023-01-05T15:20:14.949Z</time>
      </trkpt>
      <trkpt lat="43.21215" lon="2.90196">
        <ele>68.510768</ele>
        <time>2023-01-05T15:20:17.965Z</time>
      </trkpt>
      <trkpt lat="43.21215" lon="2.90209">
        <ele>68.639754</ele>
        <time>2023-01-05T15:20:19.945Z</time>
      </trkpt>
      <trkpt lat="43.21217" lon="2.90227">
        <ele>68.831606</ele>
        <time>2023-01-05T15:20:22.950Z</time>
      </trkpt>
      <trkpt lat="43.21218" lon="2.9024">
        <ele>68.966245</ele>
        <time>2023-01-05T15:20:24.961Z</time>
      </trkpt>
      <trkpt lat="43.21219" lon="2.90253">
        <ele>69.105029</ele>
        <time>2023-01-05T15:20:26.946Z</time>
      </trkpt>
      <trkpt lat="43.21221" lon="2.90266">
        <ele>69.241474</ele>
        <time>2023-01-05T15:20:28.943Z</time>
      </trkpt>
      <trkpt lat="43.21222" lon="2.90279">
        <ele>69.377557</ele>
        <time>2023-01-05T15:20:30.936Z</time>
      </trkpt>
      <trkpt lat="43.21225" lon="2.90297">
        <ele>69.572973</ele>
        <time>2023-01-05T15:20:33.947Z</time>
      </trkpt>
      <trkpt lat="43.21228" lon="2.90315">
        <ele>69.707376</ele>
        <time>2023-01-05T15:20:36.948Z</time>
      </trkpt>
      <trkpt lat="43.2123" lon="2.90333">
        <ele>69.561961</ele>
        <time>2023-01-05T15:20:39.945Z</time>
      </trkpt>
      <trkpt lat="43.21231" lon="2.90351">
        <ele>69.416132</ele>
        <time>2023-01-05T15:20:42.957Z</time>
      </trkpt>
      <trkpt lat="43.21231" lon="2.90368">
        <ele>69.271934</ele>
        <time>2023-01-05T15:20:45.938Z</time>
      </trkpt>
      <trkpt lat="43.21233" lon="2.90385">
        <ele>69.138165</ele>
        <time>2023-01-05T15:20:48.946Z</time>
      </trkpt>
      <trkpt lat="43.21236" lon="2.90399">
        <ele>69.017181</ele>
        <time>2023-01-05T15:20:51.952Z</time>
      </trkpt>
      <trkpt lat="43.21239" lon="2.90411">
        <ele>68.911955</ele>
        <time>2023-01-05T15:20:54.947Z</time>
      </trkpt>
      <trkpt lat="43.21243" lon="2.90423">
        <ele>68.798984</ele>
        <time>2023-01-05T15:20:57.944Z</time>
      </trkpt>
      <trkpt lat="43.21247" lon="2.90437">
        <ele>68.677649</ele>
        <time>2023-01-05T15:21:00.943Z</time>
      </trkpt>
      <trkpt lat="43.21253" lon="2.90451">
        <ele>68.55179</ele>
        <time>2023-01-05T15:21:03.969Z</time>
      </trkpt>
      <trkpt lat="43.2126" lon="2.90463">
        <ele>68.417618</ele>
        <time>2023-01-05T15:21:06.950Z</time>
      </trkpt>
      <trkpt lat="43.21268" lon="2.90477">
        <ele>68.275863</ele>
        <time>2023-01-05T15:21:09.949Z</time>
      </trkpt>
      <trkpt lat="43.21277" lon="2.90491">
        <ele>68.121647</ele>
        <time>2023-01-05T15:21:12.954Z</time>
      </trkpt>
      <trkpt lat="43.21282" lon="2.90502">
        <ele>68.017434</ele>
        <time>2023-01-05T15:21:14.947Z</time>
      </trkpt>
      <trkpt lat="43.21286" lon="2.90513">
        <ele>67.915498</ele>
        <time>2023-01-05T15:21:16.949Z</time>
      </trkpt>
      <trkpt lat="43.21291" lon="2.90525">
        <ele>67.808452</ele>
        <time>2023-01-05T15:21:18.964Z</time>
      </trkpt>
      <trkpt lat="43.21296" lon="2.90542">
        <ele>67.644278</ele>
        <time>2023-01-05T15:21:21.956Z</time>
      </trkpt>
      <trkpt lat="43.21301" lon="2.90559">
        <ele>67.451736</ele>
        <time>2023-01-05T15:21:24.954Z</time>
      </trkpt>
      <trkpt lat="43.21304" lon="2.90571">
        <ele>67.316315</ele>
        <time>2023-01-05T15:21:26.966Z</time>
      </trkpt>
      <trkpt lat="43.21307" lon="2.90584">
        <ele>67.17797</ele>
        <time>2023-01-05T15:21:28.953Z</time>
      </trkpt>
      <trkpt lat="43.21311" lon="2.90596">
        <ele>67.033942</ele>
        <time>2023-01-05T15:21:30.964Z</time>
      </trkpt>
      <trkpt lat="43.21315" lon="2.90608">
        <ele>66.902373</ele>
        <time>2023-01-05T15:21:32.942Z</time>
      </trkpt>
      <trkpt lat="43.21321" lon="2.90619">
        <ele>66.75992</ele>
        <time>2023-01-05T15:21:34.970Z</time>
      </trkpt>
      <trkpt lat="43.21327" lon="2.90629">
        <ele>66.624574</ele>
        <time>2023-01-05T15:21:36.954Z</time>
      </trkpt>
      <trkpt lat="43.21333" lon="2.9064">
        <ele>66.481205</ele>
        <time>2023-01-05T15:21:38.944Z</time>
      </trkpt>
      <trkpt lat="43.21339" lon="2.9065">
        <ele>66.348806</ele>
        <time>2023-01-05T15:21:40.966Z</time>
      </trkpt>
      <trkpt lat="43.21345" lon="2.90665">
        <ele>66.170891</ele>
        <time>2023-01-05T15:21:43.949Z</time>
      </trkpt>
      <trkpt lat="43.21353" lon="2.90677">
        <ele>66.005746</ele>
        <time>2023-01-05T15:21:46.946Z</time>
      </trkpt>
      <trkpt lat="43.21361" lon="2.9069">
        <ele>65.826542</ele>
        <time>2023-01-05T15:21:49.950Z</time>
      </trkpt>
      <trkpt lat="43.21367" lon="2.907">
        <ele>65.692235</ele>
        <time>2023-01-05T15:21:51.956Z</time>
      </trkpt>
      <trkpt lat="43.21372" lon="2.9071">
        <ele>65.562333</ele>
        <time>2023-01-05T15:21:53.950Z</time>
      </trkpt>
      <trkpt lat="43.2138" lon="2.90725">
        <ele>65.375375</ele>
        <time>2023-01-05T15:21:56.952Z</time>
      </trkpt>
      <trkpt lat="43.21387" lon="2.9074">
        <ele>65.186758</ele>
        <time>2023-01-05T15:21:59.947Z</time>
      </trkpt>
      <trkpt lat="43.21393" lon="2.90755">
        <ele>65.231555</ele>
        <time>2023-01-05T15:22:02.950Z</time>
      </trkpt>
      <trkpt lat="43.21398" lon="2.90771">
        <ele>65.324731</ele>
        <time>2023-01-05T15:22:05.953Z</time>
      </trkpt>
      <trkpt lat="43.21403" lon="2.90787">
        <ele>65.419805</ele>
        <time>2023-01-05T15:22:08.960Z</time>
      </trkpt>
      <trkpt lat="43.21407" lon="2.90801">
        <ele>65.499614</ele>
        <time>2023-01-05T15:22:11.947Z</time>
      </trkpt>
      <trkpt lat="43.21411" lon="2.90816">
        <ele>65.585995</ele>
        <time>2023-01-05T15:22:14.962Z</time>
      </trkpt>
      <trkpt lat="43.21415" lon="2.90832">
        <ele>65.677464</ele>
        <time>2023-01-05T15:22:17.971Z</time>
      </trkpt>
      <trkpt lat="43.2142" lon="2.90847">
        <ele>65.768272</ele>
        <time>2023-01-05T15:22:20.944Z</time>
      </trkpt>
      <trkpt lat="43.21424" lon="2.90864">
        <ele>65.859691</ele>
        <time>2023-01-05T15:22:23.953Z</time>
      </trkpt>
      <trkpt lat="43.21427" lon="2.9088">
        <ele>65.951834</ele>
        <time>2023-01-05T15:22:26.952Z</time>
      </trkpt>
      <trkpt lat="43.21427" lon="2.90897">
        <ele>66.045189</ele>
        <time>2023-01-05T15:22:29.949Z</time>
      </trkpt>
      <trkpt lat="43.21423" lon="2.90913">
        <ele>66.132346</ele>
        <time>2023-01-05T15:22:32.971Z</time>
      </trkpt>
      <trkpt lat="43.21418" lon="2.90927">
        <ele>66.217324</ele>
        <time>2023-01-05T15:22:35.973Z</time>
      </trkpt>
      <trkpt lat="43.21413" lon="2.90941">
        <ele>66.300581</ele>
        <time>2023-01-05T15:22:38.949Z</time>
      </trkpt>
      <trkpt lat="43.21409" lon="2.90954">
        <ele>66.376404</ele>
        <time>2023-01-05T15:22:41.976Z</time>
      </trkpt>
      <trkpt lat="43.21405" lon="2.90966">
        <ele>66.449433</ele>
        <time>2023-01-05T15:22:44.971Z</time>
      </trkpt>
      <trkpt lat="43.21402" lon="2.90979">
        <ele>66.567193</ele>
        <time>2023-01-05T15:22:47.977Z</time>
      </trkpt>
      <trkpt lat="43.21399" lon="2.90991">
        <ele>66.729579</ele>
        <time>2023-01-05T15:22:50.953Z</time>
      </trkpt>
      <trkpt lat="43.21398" lon="2.91004">
        <ele>66.903842</ele>
        <time>2023-01-05T15:22:53.973Z</time>
      </trkpt>
      <trkpt lat="43.21398" lon="2.91018">
        <ele>67.079782</ele>
        <time>2023-01-05T15:22:56.966Z</time>
      </trkpt>
      <trkpt lat="43.21398" lon="2.91032">
        <ele>67.256027</ele>
        <time>2023-01-05T15:22:59.958Z</time>
      </trkpt>
      <trkpt lat="43.21399" lon="2.91046">
        <ele>67.43917</ele>
        <time>2023-01-05T15:23:02.971Z</time>
      </trkpt>
      <trkpt lat="43.214" lon="2.91062">
        <ele>67.633738</ele>
        <time>2023-01-05T15:23:05.958Z</time>
      </trkpt>
      <trkpt lat="43.21402" lon="2.91078">
        <ele>67.839181</ele>
        <time>2023-01-05T15:23:08.950Z</time>
      </trkpt>
      <trkpt lat="43.21404" lon="2.91093">
        <ele>68.040271</ele>
        <time>2023-01-05T15:23:11.949Z</time>
      </trkpt>
      <trkpt lat="43.21406" lon="2.91109">
        <ele>68.243533</ele>
        <time>2023-01-05T15:23:14.966Z</time>
      </trkpt>
      <trkpt lat="43.21407" lon="2.91124">
        <ele>68.440119</ele>
        <time>2023-01-05T15:23:17.960Z</time>
      </trkpt>
      <trkpt lat="43.2141" lon="2.91139">
        <ele>68.638757</ele>
        <time>2023-01-05T15:23:20.966Z</time>
      </trkpt>
      <trkpt lat="43.21413" lon="2.91154">
        <ele>68.838509</ele>
        <time>2023-01-05T15:23:23.976Z</time>
      </trkpt>
      <trkpt lat="43.21417" lon="2.91166">
        <ele>69.00718</ele>
        <time>2023-01-05T15:23:26.947Z</time>
      </trkpt>
      <trkpt lat="43.21423" lon="2.91178">
        <ele>69.179447</ele>
        <time>2023-01-05T15:23:29.953Z</time>
      </trkpt>
      <trkpt lat="43.21431" lon="2.9119">
        <ele>69.392782</ele>
        <time>2023-01-05T15:23:32.943Z</time>
      </trkpt>
      <trkpt lat="43.21438" lon="2.91198">
        <ele>69.552179</ele>
        <time>2023-01-05T15:23:34.950Z</time>
      </trkpt>
      <trkpt lat="43.21444" lon="2.91208">
        <ele>69.57614</ele>
        <time>2023-01-05T15:23:36.956Z</time>
      </trkpt>
      <trkpt lat="43.21451" lon="2.91217">
        <ele>69.456424</ele>
        <time>2023-01-05T15:23:38.944Z</time>
      </trkpt>
      <trkpt lat="43.21458" lon="2.91227">
        <ele>69.329524</ele>
        <time>2023-01-05T15:23:40.972Z</time>
      </trkpt>
      <trkpt lat="43.21466" lon="2.91236">
        <ele>69.20384</ele>
        <time>2023-01-05T15:23:42.956Z</time>
      </trkpt>
      <trkpt lat="43.21472" lon="2.91246">
        <ele>69.083667</ele>
        <time>2023-01-05T15:23:44.953Z</time>
      </trkpt>
      <trkpt lat="43.21479" lon="2.91256">
        <ele>68.952105</ele>
        <time>2023-01-05T15:23:46.963Z</time>
      </trkpt>
      <trkpt lat="43.21487" lon="2.91268">
        <ele>68.813181</ele>
        <time>2023-01-05T15:23:48.949Z</time>
      </trkpt>
      <trkpt lat="43.21493" lon="2.91281">
        <ele>68.674686</ele>
        <time>2023-01-05T15:23:50.945Z</time>
      </trkpt>
      <trkpt lat="43.21497" lon="2.91296">
        <ele>68.52863</ele>
        <time>2023-01-05T15:23:52.962Z</time>
      </trkpt>
      <trkpt lat="43.21502" lon="2.9131">
        <ele>68.388544</ele>
        <time>2023-01-05T15:23:54.946Z</time>
      </trkpt>
      <trkpt lat="43.21505" lon="2.91324">
        <ele>68.249827</ele>
        <time>2023-01-05T15:23:56.941Z</time>
      </trkpt>
      <trkpt lat="43.21509" lon="2.91338">
        <ele>68.117083</ele>
        <time>2023-01-05T15:23:58.943Z</time>
      </trkpt>
      <trkpt lat="43.21512" lon="2.91352">
        <ele>67.983618</ele>
        <time>2023-01-05T15:24:00.973Z</time>
      </trkpt>
      <trkpt lat="43.21515" lon="2.91366">
        <ele>67.850844</ele>
        <time>2023-01-05T15:24:02.943Z</time>
      </trkpt>
      <trkpt lat="43.21519" lon="2.9138">
        <ele>67.72102</ele>
        <time>2023-01-05T15:24:04.957Z</time>
      </trkpt>
      <trkpt lat="43.21522" lon="2.91393">
        <ele>67.594573</ele>
        <time>2023-01-05T15:24:06.939Z</time>
      </trkpt>
      <trkpt lat="43.21526" lon="2.91405">
        <ele>67.473429</ele>
        <time>2023-01-05T15:24:08.955Z</time>
      </trkpt>
      <trkpt lat="43.21529" lon="2.91417">
        <ele>67.410664</ele>
        <time>2023-01-05T15:24:10.974Z</time>
      </trkpt>
      <trkpt lat="43.21532" lon="2.9143">
        <ele>67.444734</ele>
        <time>2023-01-05T15:24:12.940Z</time>
      </trkpt>
      <trkpt lat="43.21536" lon="2.91447">
        <ele>67.492189</ele>
        <time>2023-01-05T15:24:15.968Z</time>
      </trkpt>
      <trkpt lat="43.2154" lon="2.91462">
        <ele>67.534164</ele>
        <time>2023-01-05T15:24:18.972Z</time>
      </trkpt>
      <trkpt lat="43.21544" lon="2.9148">
        <ele>67.581047</ele>
        <time>2023-01-05T15:24:21.957Z</time>
      </trkpt>
      <trkpt lat="43.21546" lon="2.91492">
        <ele>67.615451</ele>
        <time>2023-01-05T15:24:23.948Z</time>
      </trkpt>
      <trkpt lat="43.21549" lon="2.91505">
        <ele>67.649018</ele>
        <time>2023-01-05T15:24:25.958Z</time>
      </trkpt>
      <trkpt lat="43.2155" lon="2.91518">
        <ele>67.683143</ele>
        <time>2023-01-05T15:24:27.958Z</time>
      </trkpt>
      <trkpt lat="43.21552" lon="2.91531">
        <ele>67.717967</ele>
        <time>2023-01-05T15:24:29.973Z</time>
      </trkpt>
      <trkpt lat="43.21555" lon="2.91544">
        <ele>67.753306</ele>
        <time>2023-01-05T15:24:31.970Z</time>
      </trkpt>
      <trkpt lat="43.21557" lon="2.91557">
        <ele>67.788062</ele>
        <time>2023-01-05T15:24:33.956Z</time>
      </trkpt>
      <trkpt lat="43.21559" lon="2.91571">
        <ele>67.824854</ele>
        <time>2023-01-05T15:24:35.942Z</time>
      </trkpt>
      <trkpt lat="43.21561" lon="2.91584">
        <ele>67.859938</ele>
        <time>2023-01-05T15:24:37.945Z</time>
      </trkpt>
      <trkpt lat="43.21563" lon="2.91598">
        <ele>67.896875</ele>
        <time>2023-01-05T15:24:39.955Z</time>
      </trkpt>
      <trkpt lat="43.21565" lon="2.91612">
        <ele>67.932884</ele>
        <time>2023-01-05T15:24:41.954Z</time>
      </trkpt>
      <trkpt lat="43.21568" lon="2.91626">
        <ele>67.970819</ele>
        <time>2023-01-05T15:24:43.946Z</time>
      </trkpt>
      <trkpt lat="43.21571" lon="2.9164">
        <ele>68.007581</ele>
        <time>2023-01-05T15:24:45.953Z</time>
      </trkpt>
      <trkpt lat="43.21575" lon="2.91653">
        <ele>68.041425</ele>
        <time>2023-01-05T15:24:47.957Z</time>
      </trkpt>
      <trkpt lat="43.21579" lon="2.91666">
        <ele>68.054951</ele>
        <time>2023-01-05T15:24:49.945Z</time>
      </trkpt>
      <trkpt lat="43.21582" lon="2.91679">
        <ele>68.067843</ele>
        <time>2023-01-05T15:24:51.944Z</time>
      </trkpt>
      <trkpt lat="43.21585" lon="2.91692">
        <ele>68.080697</ele>
        <time>2023-01-05T15:24:53.956Z</time>
      </trkpt>
      <trkpt lat="43.21589" lon="2.91703">
        <ele>68.092514</ele>
        <time>2023-01-05T15:24:55.948Z</time>
      </trkpt>
      <trkpt lat="43.21593" lon="2.91718">
        <ele>68.107349</ele>
        <time>2023-01-05T15:24:58.953Z</time>
      </trkpt>
      <trkpt lat="43.21595" lon="2.91734">
        <ele>68.123057</ele>
        <time>2023-01-05T15:25:01.933Z</time>
      </trkpt>
      <trkpt lat="43.21597" lon="2.91751">
        <ele>68.138939</ele>
        <time>2023-01-05T15:25:04.946Z</time>
      </trkpt>
      <trkpt lat="43.216" lon="2.91768">
        <ele>68.155488</ele>
        <time>2023-01-05T15:25:07.944Z</time>
      </trkpt>
      <trkpt lat="43.21602" lon="2.91786">
        <ele>68.172726</ele>
        <time>2023-01-05T15:25:10.962Z</time>
      </trkpt>
      <trkpt lat="43.21604" lon="2.91804">
        <ele>68.189674</ele>
        <time>2023-01-05T15:25:13.949Z</time>
      </trkpt>
      <trkpt lat="43.21606" lon="2.91816">
        <ele>68.201645</ele>
        <time>2023-01-05T15:25:15.956Z</time>
      </trkpt>
      <trkpt lat="43.21608" lon="2.91829">
        <ele>68.213648</ele>
        <time>2023-01-05T15:25:17.948Z</time>
      </trkpt>
      <trkpt lat="43.21611" lon="2.91841">
        <ele>68.226193</ele>
        <time>2023-01-05T15:25:19.946Z</time>
      </trkpt>
      <trkpt lat="43.21614" lon="2.91855">
        <ele>68.239279</ele>
        <time>2023-01-05T15:25:21.942Z</time>
      </trkpt>
      <trkpt lat="43.21618" lon="2.91867">
        <ele>68.252166</ele>
        <time>2023-01-05T15:25:23.956Z</time>
      </trkpt>
      <trkpt lat="43.21621" lon="2.91881">
        <ele>68.265894</ele>
        <time>2023-01-05T15:25:25.947Z</time>
      </trkpt>
      <trkpt lat="43.21624" lon="2.91895">
        <ele>68.247393</ele>
        <time>2023-01-05T15:25:27.939Z</time>
      </trkpt>
      <trkpt lat="43.21627" lon="2.91908">
        <ele>68.197923</ele>
        <time>2023-01-05T15:25:29.953Z</time>
      </trkpt>
      <trkpt lat="43.21631" lon="2.91921">
        <ele>68.149298</ele>
        <time>2023-01-05T15:25:31.948Z</time>
      </trkpt>
      <trkpt lat="43.21636" lon="2.91933">
        <ele>68.101731</ele>
        <time>2023-01-05T15:25:33.939Z</time>
      </trkpt>
      <trkpt lat="43.2164" lon="2.91945">
        <ele>68.057385</ele>
        <time>2023-01-05T15:25:35.948Z</time>
      </trkpt>
      <trkpt lat="43.21644" lon="2.91956">
        <ele>68.012171</ele>
        <time>2023-01-05T15:25:37.969Z</time>
      </trkpt>
      <trkpt lat="43.21651" lon="2.91971">
        <ele>67.949632</ele>
        <time>2023-01-05T15:25:40.968Z</time>
      </trkpt>
      <trkpt lat="43.21656" lon="2.91983">
        <ele>67.905385</ele>
        <time>2023-01-05T15:25:42.963Z</time>
      </trkpt>
      <trkpt lat="43.2166" lon="2.91994">
        <ele>67.86192</ele>
        <time>2023-01-05T15:25:44.955Z</time>
      </trkpt>
      <trkpt lat="43.21665" lon="2.92006">
        <ele>67.814864</ele>
        <time>2023-01-05T15:25:46.978Z</time>
      </trkpt>
      <trkpt lat="43.21668" lon="2.92018">
        <ele>67.767949</ele>
        <time>2023-01-05T15:25:48.975Z</time>
      </trkpt>
      <trkpt lat="43.21671" lon="2.92032">
        <ele>67.717928</ele>
        <time>2023-01-05T15:25:50.970Z</time>
      </trkpt>
      <trkpt lat="43.21674" lon="2.92046">
        <ele>67.667326</ele>
        <time>2023-01-05T15:25:52.949Z</time>
      </trkpt>
      <trkpt lat="43.21675" lon="2.9206">
        <ele>67.61947</ele>
        <time>2023-01-05T15:25:54.971Z</time>
      </trkpt>
      <trkpt lat="43.21675" lon="2.92073">
        <ele>67.573724</ele>
        <time>2023-01-05T15:25:56.971Z</time>
      </trkpt>
      <trkpt lat="43.21674" lon="2.92086">
        <ele>67.528258</ele>
        <time>2023-01-05T15:25:58.948Z</time>
      </trkpt>
      <trkpt lat="43.21674" lon="2.921">
        <ele>67.481803</ele>
        <time>2023-01-05T15:26:00.953Z</time>
      </trkpt>
      <trkpt lat="43.21672" lon="2.92114">
        <ele>67.432101</ele>
        <time>2023-01-05T15:26:02.972Z</time>
      </trkpt>
      <trkpt lat="43.21671" lon="2.92128">
        <ele>67.482546</ele>
        <time>2023-01-05T15:26:04.949Z</time>
      </trkpt>
      <trkpt lat="43.21669" lon="2.92141">
        <ele>67.573854</ele>
        <time>2023-01-05T15:26:06.954Z</time>
      </trkpt>
      <trkpt lat="43.21667" lon="2.92155">
        <ele>67.668422</ele>
        <time>2023-01-05T15:26:08.945Z</time>
      </trkpt>
      <trkpt lat="43.21664" lon="2.92169">
        <ele>67.767986</ele>
        <time>2023-01-05T15:26:10.970Z</time>
      </trkpt>
      <trkpt lat="43.21661" lon="2.92184">
        <ele>67.869497</ele>
        <time>2023-01-05T15:26:12.949Z</time>
      </trkpt>
      <trkpt lat="43.21659" lon="2.92199">
        <ele>67.967657</ele>
        <time>2023-01-05T15:26:14.971Z</time>
      </trkpt>
      <trkpt lat="43.21657" lon="2.92212">
        <ele>68.062006</ele>
        <time>2023-01-05T15:26:16.948Z</time>
      </trkpt>
      <trkpt lat="43.21655" lon="2.92227">
        <ele>68.161482</ele>
        <time>2023-01-05T15:26:18.966Z</time>
      </trkpt>
      <trkpt lat="43.21653" lon="2.92241">
        <ele>68.254865</ele>
        <time>2023-01-05T15:26:20.953Z</time>
      </trkpt>
      <trkpt lat="43.21651" lon="2.92254">
        <ele>68.345799</ele>
        <time>2023-01-05T15:26:22.958Z</time>
      </trkpt>
      <trkpt lat="43.21649" lon="2.92268">
        <ele>68.439543</ele>
        <time>2023-01-05T15:26:24.945Z</time>
      </trkpt>
      <trkpt lat="43.21646" lon="2.92281">
        <ele>68.534819</ele>
        <time>2023-01-05T15:26:26.941Z</time>
      </trkpt>
      <trkpt lat="43.21644" lon="2.92295">
        <ele>68.630498</ele>
        <time>2023-01-05T15:26:28.969Z</time>
      </trkpt>
      <trkpt lat="43.2164" lon="2.92309">
        <ele>68.728677</ele>
        <time>2023-01-05T15:26:30.948Z</time>
      </trkpt>
      <trkpt lat="43.21636" lon="2.92322">
        <ele>68.825992</ele>
        <time>2023-01-05T15:26:32.961Z</time>
      </trkpt>
      <trkpt lat="43.21631" lon="2.92335">
        <ele>68.924174</ele>
        <time>2023-01-05T15:26:34.969Z</time>
      </trkpt>
      <trkpt lat="43.21626" lon="2.92348">
        <ele>69.022911</ele>
        <time>2023-01-05T15:26:36.957Z</time>
      </trkpt>
      <trkpt lat="43.2162" lon="2.9236">
        <ele>69.108969</ele>
        <time>2023-01-05T15:26:38.953Z</time>
      </trkpt>
      <trkpt lat="43.21614" lon="2.92373">
        <ele>69.181507</ele>
        <time>2023-01-05T15:26:40.971Z</time>
      </trkpt>
      <trkpt lat="43.21608" lon="2.92385">
        <ele>69.256952</ele>
        <time>2023-01-05T15:26:42.973Z</time>
      </trkpt>
      <trkpt lat="43.21602" lon="2.92398">
        <ele>69.332339</ele>
        <time>2023-01-05T15:26:44.948Z</time>
      </trkpt>
      <trkpt lat="43.21597" lon="2.92411">
        <ele>69.408636</ele>
        <time>2023-01-05T15:26:46.962Z</time>
      </trkpt>
      <trkpt lat="43.21591" lon="2.92424">
        <ele>69.484745</ele>
        <time>2023-01-05T15:26:48.969Z</time>
      </trkpt>
      <trkpt lat="43.21585" lon="2.92438">
        <ele>69.562408</ele>
        <time>2023-01-05T15:26:50.963Z</time>
      </trkpt>
      <trkpt lat="43.2158" lon="2.92449">
        <ele>69.630464</ele>
        <time>2023-01-05T15:26:52.953Z</time>
      </trkpt>
      <trkpt lat="43.21575" lon="2.9246">
        <ele>69.696851</ele>
        <time>2023-01-05T15:26:54.944Z</time>
      </trkpt>
      <trkpt lat="43.21569" lon="2.9247">
        <ele>69.759182</ele>
        <time>2023-01-05T15:26:56.956Z</time>
      </trkpt>
      <trkpt lat="43.21565" lon="2.92481">
        <ele>69.822014</ele>
        <time>2023-01-05T15:26:58.954Z</time>
      </trkpt>
      <trkpt lat="43.21558" lon="2.92497">
        <ele>69.913947</ele>
        <time>2023-01-05T15:27:01.953Z</time>
      </trkpt>
      <trkpt lat="43.21553" lon="2.92508">
        <ele>69.976654</ele>
        <time>2023-01-05T15:27:03.948Z</time>
      </trkpt>
      <trkpt lat="43.21549" lon="2.92519">
        <ele>70.042651</ele>
        <time>2023-01-05T15:27:05.961Z</time>
      </trkpt>
      <trkpt lat="43.21544" lon="2.9253">
        <ele>70.107968</ele>
        <time>2023-01-05T15:27:07.961Z</time>
      </trkpt>
      <trkpt lat="43.21539" lon="2.92542">
        <ele>70.17414</ele>
        <time>2023-01-05T15:27:09.956Z</time>
      </trkpt>
      <trkpt lat="43.21534" lon="2.92553">
        <ele>70.240311</ele>
        <time>2023-01-05T15:27:11.941Z</time>
      </trkpt>
      <trkpt lat="43.21529" lon="2.92564">
        <ele>70.303143</ele>
        <time>2023-01-05T15:27:13.948Z</time>
      </trkpt>
      <trkpt lat="43.21524" lon="2.92574">
        <ele>70.493024</ele>
        <time>2023-01-05T15:27:15.955Z</time>
      </trkpt>
      <trkpt lat="43.21519" lon="2.92585">
        <ele>70.691066</ele>
        <time>2023-01-05T15:27:17.952Z</time>
      </trkpt>
      <trkpt lat="43.21512" lon="2.926">
        <ele>70.961346</ele>
        <time>2023-01-05T15:27:20.953Z</time>
      </trkpt>
      <trkpt lat="43.21506" lon="2.92613">
        <ele>71.206661</ele>
        <time>2023-01-05T15:27:23.971Z</time>
      </trkpt>
      <trkpt lat="43.21501" lon="2.92627">
        <ele>71.444174</ele>
        <time>2023-01-05T15:27:26.949Z</time>
      </trkpt>
      <trkpt lat="43.21495" lon="2.9264">
        <ele>71.686299</ele>
        <time>2023-01-05T15:27:29.951Z</time>
      </trkpt>
      <trkpt lat="43.21489" lon="2.92652">
        <ele>71.916915</ele>
        <time>2023-01-05T15:27:32.942Z</time>
      </trkpt>
      <trkpt lat="43.21484" lon="2.92664">
        <ele>72.129414</ele>
        <time>2023-01-05T15:27:35.949Z</time>
      </trkpt>
      <trkpt lat="43.21478" lon="2.92677">
        <ele>72.37162</ele>
        <time>2023-01-05T15:27:39.947Z</time>
      </trkpt>
      <trkpt lat="43.21473" lon="2.92693">
        <ele>72.639255</ele>
        <time>2023-01-05T15:33:38.801Z</time>
      </trkpt>
      <trkpt lat="43.21466" lon="2.92705">
        <ele>72.87182</ele>
        <time>2023-01-05T15:34:30.549Z</time>
      </trkpt>
      <trkpt lat="43.2146" lon="2.92717">
        <ele>73.101988</ele>
        <time>2023-01-05T15:34:34.566Z</time>
      </trkpt>
      <trkpt lat="43.21453" lon="2.92729">
        <ele>73.347129</ele>
        <time>2023-01-05T15:34:38.563Z</time>
      </trkpt>
      <trkpt lat="43.21446" lon="2.9274">
        <ele>73.573816</ele>
        <time>2023-01-05T15:34:42.551Z</time>
      </trkpt>
      <trkpt lat="43.21446" lon="2.92755">
        <ele>73.796283</ele>
        <time>2023-01-05T15:34:47.572Z</time>
      </trkpt>
      <trkpt lat="43.21454" lon="2.92762">
        <ele>74.014109</ele>
        <time>2023-01-05T15:34:51.558Z</time>
      </trkpt>
      <trkpt lat="43.21463" lon="2.92766">
        <ele>74.12428</ele>
        <time>2023-01-05T15:34:54.552Z</time>
      </trkpt>
      <trkpt lat="43.21472" lon="2.92769">
        <ele>74.064265</ele>
        <time>2023-01-05T15:34:57.561Z</time>
      </trkpt>
      <trkpt lat="43.21482" lon="2.92773">
        <ele>74.001055</ele>
        <time>2023-01-05T15:35:00.555Z</time>
      </trkpt>
      <trkpt lat="43.21492" lon="2.92776">
        <ele>73.935356</ele>
        <time>2023-01-05T15:35:03.570Z</time>
      </trkpt>
      <trkpt lat="43.215" lon="2.9278">
        <ele>73.877311</ele>
        <time>2023-01-05T15:35:06.560Z</time>
      </trkpt>
      <trkpt lat="43.21511" lon="2.92785">
        <ele>73.802968</ele>
        <time>2023-01-05T15:35:10.565Z</time>
      </trkpt>
      <trkpt lat="43.21521" lon="2.92789">
        <ele>73.739526</ele>
        <time>2023-01-05T15:35:13.560Z</time>
      </trkpt>
      <trkpt lat="43.2153" lon="2.92793">
        <ele>73.675438</ele>
        <time>2023-01-05T15:35:16.561Z</time>
      </trkpt>
      <trkpt lat="43.2154" lon="2.92797">
        <ele>73.607887</ele>
        <time>2023-01-05T15:35:19.554Z</time>
      </trkpt>
      <trkpt lat="43.21551" lon="2.92802">
        <ele>73.540055</ele>
        <time>2023-01-05T15:35:22.556Z</time>
      </trkpt>
      <trkpt lat="43.21561" lon="2.92806">
        <ele>73.471283</ele>
        <time>2023-01-05T15:35:25.554Z</time>
      </trkpt>
      <trkpt lat="43.21571" lon="2.9281">
        <ele>73.401059</ele>
        <time>2023-01-05T15:35:28.568Z</time>
      </trkpt>
      <trkpt lat="43.21582" lon="2.92815">
        <ele>73.327184</ele>
        <time>2023-01-05T15:35:31.574Z</time>
      </trkpt>
      <trkpt lat="43.21594" lon="2.9282">
        <ele>73.25237</ele>
        <time>2023-01-05T15:35:34.559Z</time>
      </trkpt>
      <trkpt lat="43.21605" lon="2.92825">
        <ele>73.176528</ele>
        <time>2023-01-05T15:35:37.554Z</time>
      </trkpt>
      <trkpt lat="43.21616" lon="2.9283">
        <ele>73.101714</ele>
        <time>2023-01-05T15:35:40.556Z</time>
      </trkpt>
      <trkpt lat="43.21627" lon="2.92834">
        <ele>73.028868</ele>
        <time>2023-01-05T15:35:43.551Z</time>
      </trkpt>
      <trkpt lat="43.21637" lon="2.92839">
        <ele>73.101037</ele>
        <time>2023-01-05T15:35:46.573Z</time>
      </trkpt>
      <trkpt lat="43.21647" lon="2.92843">
        <ele>73.293609</ele>
        <time>2023-01-05T15:35:49.559Z</time>
      </trkpt>
      <trkpt lat="43.21657" lon="2.92847">
        <ele>73.49723</ele>
        <time>2023-01-05T15:35:52.569Z</time>
      </trkpt>
      <trkpt lat="43.21667" lon="2.92852">
        <ele>73.700286</ele>
        <time>2023-01-05T15:35:55.572Z</time>
      </trkpt>
      <trkpt lat="43.21676" lon="2.92855">
        <ele>73.884295</ele>
        <time>2023-01-05T15:35:58.552Z</time>
      </trkpt>
      <trkpt lat="43.21686" lon="2.92857">
        <ele>74.067048</ele>
        <time>2023-01-05T15:36:01.576Z</time>
      </trkpt>
      <trkpt lat="43.21695" lon="2.92856">
        <ele>74.254627</ele>
        <time>2023-01-05T15:36:04.559Z</time>
      </trkpt>
      <trkpt lat="43.21707" lon="2.92854">
        <ele>74.475457</ele>
        <time>2023-01-05T15:36:08.562Z</time>
      </trkpt>
      <trkpt lat="43.21717" lon="2.92855">
        <ele>74.678283</ele>
        <time>2023-01-05T15:36:12.574Z</time>
      </trkpt>
      <trkpt lat="43.21727" lon="2.92858">
        <ele>74.874203</ele>
        <time>2023-01-05T15:36:16.575Z</time>
      </trkpt>
      <trkpt lat="43.21735" lon="2.92866">
        <ele>75.056626</ele>
        <time>2023-01-05T15:36:20.559Z</time>
      </trkpt>
      <trkpt lat="43.21736" lon="2.9288">
        <ele>75.250328</ele>
        <time>2023-01-05T15:36:24.573Z</time>
      </trkpt>
      <trkpt lat="43.21734" lon="2.92895">
        <ele>75.47808</ele>
        <time>2023-01-05T15:36:28.559Z</time>
      </trkpt>
      <trkpt lat="43.21731" lon="2.92908">
        <ele>75.657179</ele>
        <time>2023-01-05T15:36:31.561Z</time>
      </trkpt>
      <trkpt lat="43.21724" lon="2.92918">
        <ele>75.847333</ele>
        <time>2023-01-05T15:36:34.559Z</time>
      </trkpt>
      <trkpt lat="43.21717" lon="2.92927">
        <ele>76.038293</ele>
        <time>2023-01-05T15:36:37.556Z</time>
      </trkpt>
      <trkpt lat="43.21709" lon="2.92937">
        <ele>76.24203</ele>
        <time>2023-01-05T15:36:40.555Z</time>
      </trkpt>
      <trkpt lat="43.217" lon="2.92948">
        <ele>76.462162</ele>
        <time>2023-01-05T15:36:43.557Z</time>
      </trkpt>
      <trkpt lat="43.21691" lon="2.9296">
        <ele>76.423243</ele>
        <time>2023-01-05T15:36:46.563Z</time>
      </trkpt>
      <trkpt lat="43.21685" lon="2.9297">
        <ele>76.395263</ele>
        <time>2023-01-05T15:36:48.568Z</time>
      </trkpt>
      <trkpt lat="43.21679" lon="2.9298">
        <ele>76.365377</ele>
        <time>2023-01-05T15:36:50.566Z</time>
      </trkpt>
      <trkpt lat="43.21673" lon="2.92991">
        <ele>76.335513</ele>
        <time>2023-01-05T15:36:52.567Z</time>
      </trkpt>
      <trkpt lat="43.21667" lon="2.93003">
        <ele>76.303136</ele>
        <time>2023-01-05T15:36:54.557Z</time>
      </trkpt>
      <trkpt lat="43.2166" lon="2.93015">
        <ele>76.269829</ele>
        <time>2023-01-05T15:36:56.564Z</time>
      </trkpt>
      <trkpt lat="43.21653" lon="2.93026">
        <ele>76.235771</ele>
        <time>2023-01-05T15:36:58.569Z</time>
      </trkpt>
      <trkpt lat="43.21645" lon="2.93039">
        <ele>76.199481</ele>
        <time>2023-01-05T15:37:00.569Z</time>
      </trkpt>
      <trkpt lat="43.21638" lon="2.93051">
        <ele>76.165297</ele>
        <time>2023-01-05T15:37:02.551Z</time>
      </trkpt>
      <trkpt lat="43.21631" lon="2.93064">
        <ele>76.128757</ele>
        <time>2023-01-05T15:37:04.551Z</time>
      </trkpt>
      <trkpt lat="43.21623" lon="2.93076">
        <ele>76.092025</ele>
        <time>2023-01-05T15:37:06.571Z</time>
      </trkpt>
      <trkpt lat="43.21615" lon="2.93089">
        <ele>76.054045</ele>
        <time>2023-01-05T15:37:08.555Z</time>
      </trkpt>
      <trkpt lat="43.21607" lon="2.93102">
        <ele>76.016908</ele>
        <time>2023-01-05T15:37:10.572Z</time>
      </trkpt>
      <trkpt lat="43.216" lon="2.93115">
        <ele>75.979796</ele>
        <time>2023-01-05T15:37:12.553Z</time>
      </trkpt>
      <trkpt lat="43.21592" lon="2.93128">
        <ele>75.943454</ele>
        <time>2023-01-05T15:37:14.552Z</time>
      </trkpt>
      <trkpt lat="43.21585" lon="2.93141">
        <ele>75.92527</ele>
        <time>2023-01-05T15:37:16.572Z</time>
      </trkpt>
      <trkpt lat="43.21578" lon="2.93151">
        <ele>75.970468</ele>
        <time>2023-01-05T15:37:18.559Z</time>
      </trkpt>
      <trkpt lat="43.21571" lon="2.93164">
        <ele>76.019339</ele>
        <time>2023-01-05T15:37:20.557Z</time>
      </trkpt>
      <trkpt lat="43.21563" lon="2.93176">
        <ele>76.06734</ele>
        <time>2023-01-05T15:37:22.559Z</time>
      </trkpt>
      <trkpt lat="43.21557" lon="2.93187">
        <ele>76.111802</ele>
        <time>2023-01-05T15:37:24.560Z</time>
      </trkpt>
      <trkpt lat="43.21551" lon="2.93198">
        <ele>76.154951</ele>
        <time>2023-01-05T15:37:26.580Z</time>
      </trkpt>
      <trkpt lat="43.21544" lon="2.9321">
        <ele>76.199625</ele>
        <time>2023-01-05T15:37:28.558Z</time>
      </trkpt>
      <trkpt lat="43.21537" lon="2.93221">
        <ele>76.246699</ele>
        <time>2023-01-05T15:37:30.575Z</time>
      </trkpt>
      <trkpt lat="43.2153" lon="2.93233">
        <ele>76.291615</ele>
        <time>2023-01-05T15:37:32.555Z</time>
      </trkpt>
      <trkpt lat="43.21523" lon="2.93244">
        <ele>76.335875</ele>
        <time>2023-01-05T15:37:34.557Z</time>
      </trkpt>
      <trkpt lat="43.21516" lon="2.93255">
        <ele>76.383179</ele>
        <time>2023-01-05T15:37:36.556Z</time>
      </trkpt>
      <trkpt lat="43.21509" lon="2.93267">
        <ele>76.428383</ele>
        <time>2023-01-05T15:37:38.573Z</time>
      </trkpt>
      <trkpt lat="43.21502" lon="2.93278">
        <ele>76.473082</ele>
        <time>2023-01-05T15:37:40.574Z</time>
      </trkpt>
      <trkpt lat="43.21496" lon="2.9329">
        <ele>76.51802</ele>
        <time>2023-01-05T15:37:42.573Z</time>
      </trkpt>
      <trkpt lat="43.21489" lon="2.933">
        <ele>76.561815</ele>
        <time>2023-01-05T15:37:44.559Z</time>
      </trkpt>
      <trkpt lat="43.21482" lon="2.93312">
        <ele>76.606545</ele>
        <time>2023-01-05T15:37:46.575Z</time>
      </trkpt>
      <trkpt lat="43.21476" lon="2.93323">
        <ele>76.65098</ele>
        <time>2023-01-05T15:37:48.558Z</time>
      </trkpt>
      <trkpt lat="43.2147" lon="2.93333">
        <ele>76.692859</ele>
        <time>2023-01-05T15:37:50.571Z</time>
      </trkpt>
      <trkpt lat="43.21463" lon="2.93345">
        <ele>76.740054</ele>
        <time>2023-01-05T15:37:52.543Z</time>
      </trkpt>
      <trkpt lat="43.21457" lon="2.93355">
        <ele>76.786004</ele>
        <time>2023-01-05T15:37:54.551Z</time>
      </trkpt>
      <trkpt lat="43.2145" lon="2.93367">
        <ele>76.834315</ele>
        <time>2023-01-05T15:37:56.564Z</time>
      </trkpt>
      <trkpt lat="43.21443" lon="2.93378">
        <ele>76.882342</ele>
        <time>2023-01-05T15:37:58.575Z</time>
      </trkpt>
      <trkpt lat="43.21437" lon="2.93389">
        <ele>76.928836</ele>
        <time>2023-01-05T15:38:00.573Z</time>
      </trkpt>
      <trkpt lat="43.2143" lon="2.93401">
        <ele>76.979027</ele>
        <time>2023-01-05T15:38:02.574Z</time>
      </trkpt>
      <trkpt lat="43.21423" lon="2.93412">
        <ele>77.028789</ele>
        <time>2023-01-05T15:38:04.557Z</time>
      </trkpt>
      <trkpt lat="43.21416" lon="2.93424">
        <ele>77.076797</ele>
        <time>2023-01-05T15:38:06.573Z</time>
      </trkpt>
      <trkpt lat="43.21409" lon="2.93436">
        <ele>77.126926</ele>
        <time>2023-01-05T15:38:08.555Z</time>
      </trkpt>
      <trkpt lat="43.21403" lon="2.93447">
        <ele>77.17498</ele>
        <time>2023-01-05T15:38:10.571Z</time>
      </trkpt>
      <trkpt lat="43.21396" lon="2.93458">
        <ele>77.222856</ele>
        <time>2023-01-05T15:38:12.561Z</time>
      </trkpt>
      <trkpt lat="43.21389" lon="2.93469">
        <ele>77.271741</ele>
        <time>2023-01-05T15:38:14.557Z</time>
      </trkpt>
      <trkpt lat="43.21382" lon="2.9348">
        <ele>77.318997</ele>
        <time>2023-01-05T15:38:16.574Z</time>
      </trkpt>
      <trkpt lat="43.21376" lon="2.93492">
        <ele>77.368342</ele>
        <time>2023-01-05T15:38:18.572Z</time>
      </trkpt>
      <trkpt lat="43.21369" lon="2.93503">
        <ele>77.416219</ele>
        <time>2023-01-05T15:38:20.575Z</time>
      </trkpt>
      <trkpt lat="43.21362" lon="2.93514">
        <ele>77.462966</ele>
        <time>2023-01-05T15:38:22.565Z</time>
      </trkpt>
      <trkpt lat="43.21355" lon="2.93525">
        <ele>77.52072</ele>
        <time>2023-01-05T15:38:24.576Z</time>
      </trkpt>
      <trkpt lat="43.21349" lon="2.93536">
        <ele>77.583378</ele>
        <time>2023-01-05T15:38:26.562Z</time>
      </trkpt>
      <trkpt lat="43.21342" lon="2.93547">
        <ele>77.647422</ele>
        <time>2023-01-05T15:38:28.549Z</time>
      </trkpt>
      <trkpt lat="43.21336" lon="2.93557">
        <ele>77.709887</ele>
        <time>2023-01-05T15:38:30.550Z</time>
      </trkpt>
      <trkpt lat="43.2133" lon="2.93568">
        <ele>77.769959</ele>
        <time>2023-01-05T15:38:32.570Z</time>
      </trkpt>
      <trkpt lat="43.21324" lon="2.93579">
        <ele>77.835237</ele>
        <time>2023-01-05T15:38:34.572Z</time>
      </trkpt>
      <trkpt lat="43.21318" lon="2.9359">
        <ele>77.899362</ele>
        <time>2023-01-05T15:38:36.574Z</time>
      </trkpt>
      <trkpt lat="43.21312" lon="2.93602">
        <ele>77.961272</ele>
        <time>2023-01-05T15:38:38.558Z</time>
      </trkpt>
      <trkpt lat="43.21308" lon="2.93613">
        <ele>78.019584</ele>
        <time>2023-01-05T15:38:40.575Z</time>
      </trkpt>
      <trkpt lat="43.21301" lon="2.93628">
        <ele>78.102335</ele>
        <time>2023-01-05T15:38:43.572Z</time>
      </trkpt>
      <trkpt lat="43.21296" lon="2.93642">
        <ele>78.174382</ele>
        <time>2023-01-05T15:38:46.574Z</time>
      </trkpt>
      <trkpt lat="43.21291" lon="2.93657">
        <ele>78.246416</ele>
        <time>2023-01-05T15:38:49.553Z</time>
      </trkpt>
      <trkpt lat="43.21287" lon="2.93672">
        <ele>78.320332</ele>
        <time>2023-01-05T15:38:52.564Z</time>
      </trkpt>
      <trkpt lat="43.21282" lon="2.93688">
        <ele>78.396638</ele>
        <time>2023-01-05T15:38:55.609Z</time>
      </trkpt>
      <trkpt lat="43.21278" lon="2.93705">
        <ele>78.480173</ele>
        <time>2023-01-05T15:38:58.555Z</time>
      </trkpt>
      <trkpt lat="43.21272" lon="2.93722">
        <ele>78.564897</ele>
        <time>2023-01-05T15:39:01.556Z</time>
      </trkpt>
      <trkpt lat="43.21269" lon="2.93734">
        <ele>78.648923</ele>
        <time>2023-01-05T15:39:03.557Z</time>
      </trkpt>
      <trkpt lat="43.21265" lon="2.93745">
        <ele>78.826182</ele>
        <time>2023-01-05T15:39:05.568Z</time>
      </trkpt>
      <trkpt lat="43.2126" lon="2.93762">
        <ele>79.086497</ele>
        <time>2023-01-05T15:39:08.555Z</time>
      </trkpt>
      <trkpt lat="43.21255" lon="2.93779">
        <ele>79.346996</ele>
        <time>2023-01-05T15:39:11.556Z</time>
      </trkpt>
      <trkpt lat="43.2125" lon="2.93795">
        <ele>79.590251</ele>
        <time>2023-01-05T15:39:14.558Z</time>
      </trkpt>
      <trkpt lat="43.21245" lon="2.93812">
        <ele>79.841738</ele>
        <time>2023-01-05T15:39:17.561Z</time>
      </trkpt>
      <trkpt lat="43.2124" lon="2.93828">
        <ele>80.092464</ele>
        <time>2023-01-05T15:39:20.573Z</time>
      </trkpt>
      <trkpt lat="43.21235" lon="2.93844">
        <ele>80.341132</ele>
        <time>2023-01-05T15:39:23.557Z</time>
      </trkpt>
      <trkpt lat="43.21231" lon="2.9386">
        <ele>80.588335</ele>
        <time>2023-01-05T15:39:26.576Z</time>
      </trkpt>
      <trkpt lat="43.21226" lon="2.93877">
        <ele>80.841896</ele>
        <time>2023-01-05T15:39:29.557Z</time>
      </trkpt>
      <trkpt lat="43.21221" lon="2.93893">
        <ele>81.094377</ele>
        <time>2023-01-05T15:39:32.558Z</time>
      </trkpt>
      <trkpt lat="43.21217" lon="2.93905">
        <ele>81.278356</ele>
        <time>2023-01-05T15:39:34.559Z</time>
      </trkpt>
      <trkpt lat="43.21212" lon="2.93921">
        <ele>81.522351</ele>
        <time>2023-01-05T15:39:37.562Z</time>
      </trkpt>
      <trkpt lat="43.21207" lon="2.93938">
        <ele>81.777213</ele>
        <time>2023-01-05T15:39:40.574Z</time>
      </trkpt>
      <trkpt lat="43.21203" lon="2.93953">
        <ele>82.015075</ele>
        <time>2023-01-05T15:39:43.563Z</time>
      </trkpt>
      <trkpt lat="43.21198" lon="2.9397">
        <ele>82.221072</ele>
        <time>2023-01-05T15:39:46.571Z</time>
      </trkpt>
      <trkpt lat="43.21193" lon="2.93987">
        <ele>82.400792</ele>
        <time>2023-01-05T15:39:49.555Z</time>
      </trkpt>
      <trkpt lat="43.21189" lon="2.94003">
        <ele>82.577306</ele>
        <time>2023-01-05T15:39:52.567Z</time>
      </trkpt>
      <trkpt lat="43.21184" lon="2.94019">
        <ele>82.743349</ele>
        <time>2023-01-05T15:39:55.558Z</time>
      </trkpt>
      <trkpt lat="43.21179" lon="2.94035">
        <ele>82.913824</ele>
        <time>2023-01-05T15:39:58.557Z</time>
      </trkpt>
      <trkpt lat="43.21174" lon="2.9405">
        <ele>83.082868</ele>
        <time>2023-01-05T15:40:01.572Z</time>
      </trkpt>
      <trkpt lat="43.21169" lon="2.94065">
        <ele>83.247903</ele>
        <time>2023-01-05T15:40:04.565Z</time>
      </trkpt>
      <trkpt lat="43.21165" lon="2.94081">
        <ele>83.412344</ele>
        <time>2023-01-05T15:40:07.572Z</time>
      </trkpt>
      <trkpt lat="43.2116" lon="2.94096">
        <ele>83.578115</ele>
        <time>2023-01-05T15:40:10.565Z</time>
      </trkpt>
      <trkpt lat="43.21156" lon="2.94111">
        <ele>83.7402</ele>
        <time>2023-01-05T15:40:13.551Z</time>
      </trkpt>
      <trkpt lat="43.21151" lon="2.94125">
        <ele>83.890622</ele>
        <time>2023-01-05T15:40:16.570Z</time>
      </trkpt>
      <trkpt lat="43.21147" lon="2.94139">
        <ele>84.042376</ele>
        <time>2023-01-05T15:40:19.554Z</time>
      </trkpt>
      <trkpt lat="43.21143" lon="2.94153">
        <ele>84.190858</ele>
        <time>2023-01-05T15:40:22.569Z</time>
      </trkpt>
      <trkpt lat="43.21139" lon="2.94168">
        <ele>84.342559</ele>
        <time>2023-01-05T15:40:25.575Z</time>
      </trkpt>
      <trkpt lat="43.21135" lon="2.94181">
        <ele>84.492105</ele>
        <time>2023-01-05T15:40:28.549Z</time>
      </trkpt>
      <trkpt lat="43.2113" lon="2.94195">
        <ele>84.693599</ele>
        <time>2023-01-05T15:40:31.571Z</time>
      </trkpt>
      <trkpt lat="43.21126" lon="2.9421">
        <ele>84.933821</ele>
        <time>2023-01-05T15:40:34.556Z</time>
      </trkpt>
      <trkpt lat="43.21122" lon="2.94223">
        <ele>85.160034</ele>
        <time>2023-01-05T15:40:37.571Z</time>
      </trkpt>
      <trkpt lat="43.21119" lon="2.94236">
        <ele>85.384616</ele>
        <time>2023-01-05T15:40:40.551Z</time>
      </trkpt>
      <trkpt lat="43.21114" lon="2.94249">
        <ele>85.613983</ele>
        <time>2023-01-05T15:40:43.572Z</time>
      </trkpt>
      <trkpt lat="43.2111" lon="2.94262">
        <ele>85.833782</ele>
        <time>2023-01-05T15:40:46.560Z</time>
      </trkpt>
      <trkpt lat="43.21106" lon="2.94274">
        <ele>86.045184</ele>
        <time>2023-01-05T15:40:49.579Z</time>
      </trkpt>
      <trkpt lat="43.21103" lon="2.94287">
        <ele>86.263001</ele>
        <time>2023-01-05T15:40:52.571Z</time>
      </trkpt>
      <trkpt lat="43.21099" lon="2.943">
        <ele>86.47586</ele>
        <time>2023-01-05T15:40:55.553Z</time>
      </trkpt>
      <trkpt lat="43.21096" lon="2.94312">
        <ele>86.678818</ele>
        <time>2023-01-05T15:40:58.552Z</time>
      </trkpt>
      <trkpt lat="43.21092" lon="2.94323">
        <ele>86.885288</ele>
        <time>2023-01-05T15:41:01.564Z</time>
      </trkpt>
      <trkpt lat="43.21088" lon="2.94336">
        <ele>87.096689</ele>
        <time>2023-01-05T15:41:04.551Z</time>
      </trkpt>
      <trkpt lat="43.21084" lon="2.94348">
        <ele>87.302873</ele>
        <time>2023-01-05T15:41:07.563Z</time>
      </trkpt>
      <trkpt lat="43.21081" lon="2.9436">
        <ele>87.507901</ele>
        <time>2023-01-05T15:41:10.574Z</time>
      </trkpt>
      <trkpt lat="43.21077" lon="2.94372">
        <ele>87.718466</ele>
        <time>2023-01-05T15:41:13.557Z</time>
      </trkpt>
      <trkpt lat="43.21073" lon="2.94384">
        <ele>87.929681</ele>
        <time>2023-01-05T15:41:16.579Z</time>
      </trkpt>
      <trkpt lat="43.2107" lon="2.94396">
        <ele>88.137959</ele>
        <time>2023-01-05T15:41:19.565Z</time>
      </trkpt>
      <trkpt lat="43.21066" lon="2.94409">
        <ele>88.34732</ele>
        <time>2023-01-05T15:41:22.570Z</time>
      </trkpt>
      <trkpt lat="43.21062" lon="2.94421">
        <ele>88.582147</ele>
        <time>2023-01-05T15:41:25.558Z</time>
      </trkpt>
      <trkpt lat="43.21058" lon="2.94433">
        <ele>88.846488</ele>
        <time>2023-01-05T15:41:28.574Z</time>
      </trkpt>
      <trkpt lat="43.21055" lon="2.94445">
        <ele>89.120425</ele>
        <time>2023-01-05T15:41:31.562Z</time>
      </trkpt>
      <trkpt lat="43.21051" lon="2.94458">
        <ele>89.387693</ele>
        <time>2023-01-05T15:41:34.553Z</time>
      </trkpt>
      <trkpt lat="43.21047" lon="2.9447">
        <ele>89.66724</ele>
        <time>2023-01-05T15:41:37.574Z</time>
      </trkpt>
      <trkpt lat="43.21043" lon="2.94482">
        <ele>89.935974</ele>
        <time>2023-01-05T15:41:40.571Z</time>
      </trkpt>
      <trkpt lat="43.2104" lon="2.94494">
        <ele>90.193649</ele>
        <time>2023-01-05T15:41:43.548Z</time>
      </trkpt>
      <trkpt lat="43.21036" lon="2.94507">
        <ele>90.462786</ele>
        <time>2023-01-05T15:41:46.574Z</time>
      </trkpt>
      <trkpt lat="43.21032" lon="2.94519">
        <ele>90.734513</ele>
        <time>2023-01-05T15:41:49.553Z</time>
      </trkpt>
      <trkpt lat="43.21028" lon="2.94531">
        <ele>91.008245</ele>
        <time>2023-01-05T15:41:52.546Z</time>
      </trkpt>
      <trkpt lat="43.21024" lon="2.94543">
        <ele>91.268064</ele>
        <time>2023-01-05T15:41:55.550Z</time>
      </trkpt>
      <trkpt lat="43.2102" lon="2.94558">
        <ele>91.59408</ele>
        <time>2023-01-05T15:41:59.550Z</time>
      </trkpt>
      <trkpt lat="43.21016" lon="2.9457">
        <ele>91.851313</ele>
        <time>2023-01-05T15:42:02.547Z</time>
      </trkpt>
      <trkpt lat="43.21012" lon="2.94582">
        <ele>92.117064</ele>
        <time>2023-01-05T15:42:05.551Z</time>
      </trkpt>
      <trkpt lat="43.21009" lon="2.94594">
        <ele>92.373616</ele>
        <time>2023-01-05T15:42:08.569Z</time>
      </trkpt>
      <trkpt lat="43.21005" lon="2.94606">
        <ele>92.637521</ele>
        <time>2023-01-05T15:42:11.558Z</time>
      </trkpt>
      <trkpt lat="43.21002" lon="2.94618">
        <ele>92.904792</ele>
        <time>2023-01-05T15:42:14.543Z</time>
      </trkpt>
      <trkpt lat="43.20998" lon="2.9463">
        <ele>93.175002</ele>
        <time>2023-01-05T15:42:17.573Z</time>
      </trkpt>
      <trkpt lat="43.20994" lon="2.94642">
        <ele>93.441492</ele>
        <time>2023-01-05T15:42:20.585Z</time>
      </trkpt>
      <trkpt lat="43.2099" lon="2.94655">
        <ele>93.520658</ele>
        <time>2023-01-05T15:42:23.570Z</time>
      </trkpt>
      <trkpt lat="43.20986" lon="2.94668">
        <ele>93.58989</ele>
        <time>2023-01-05T15:42:26.552Z</time>
      </trkpt>
      <trkpt lat="43.20982" lon="2.94682">
        <ele>93.657191</ele>
        <time>2023-01-05T15:42:29.572Z</time>
      </trkpt>
      <trkpt lat="43.20977" lon="2.94694">
        <ele>93.723471</ele>
        <time>2023-01-05T15:42:32.543Z</time>
      </trkpt>
      <trkpt lat="43.20973" lon="2.94707">
        <ele>93.79103</ele>
        <time>2023-01-05T15:42:35.574Z</time>
      </trkpt>
      <trkpt lat="43.20968" lon="2.94721">
        <ele>93.864066</ele>
        <time>2023-01-05T15:42:38.554Z</time>
      </trkpt>
      <trkpt lat="43.20964" lon="2.94735">
        <ele>93.935492</ele>
        <time>2023-01-05T15:42:41.573Z</time>
      </trkpt>
      <trkpt lat="43.20959" lon="2.94751">
        <ele>94.01655</ele>
        <time>2023-01-05T15:42:44.572Z</time>
      </trkpt>
      <trkpt lat="43.20954" lon="2.94768">
        <ele>94.102102</ele>
        <time>2023-01-05T15:42:47.572Z</time>
      </trkpt>
      <trkpt lat="43.20948" lon="2.94784">
        <ele>94.18878</ele>
        <time>2023-01-05T15:42:50.561Z</time>
      </trkpt>
      <trkpt lat="43.20944" lon="2.94796">
        <ele>94.248956</ele>
        <time>2023-01-05T15:42:52.563Z</time>
      </trkpt>
      <trkpt lat="43.20939" lon="2.94812">
        <ele>94.335036</ele>
        <time>2023-01-05T15:42:55.573Z</time>
      </trkpt>
      <trkpt lat="43.20934" lon="2.9483">
        <ele>94.424632</ele>
        <time>2023-01-05T15:42:58.572Z</time>
      </trkpt>
      <trkpt lat="43.2093" lon="2.94842">
        <ele>94.485916</ele>
        <time>2023-01-05T15:43:00.559Z</time>
      </trkpt>
      <trkpt lat="43.20926" lon="2.94853">
        <ele>94.545868</ele>
        <time>2023-01-05T15:43:02.556Z</time>
      </trkpt>
      <trkpt lat="43.20922" lon="2.94865">
        <ele>94.606336</ele>
        <time>2023-01-05T15:43:04.572Z</time>
      </trkpt>
      <trkpt lat="43.20918" lon="2.94877">
        <ele>94.685638</ele>
        <time>2023-01-05T15:43:06.573Z</time>
      </trkpt>
      <trkpt lat="43.20915" lon="2.94889">
        <ele>94.777474</ele>
        <time>2023-01-05T15:43:08.571Z</time>
      </trkpt>
      <trkpt lat="43.20911" lon="2.94901">
        <ele>94.867044</ele>
        <time>2023-01-05T15:43:10.560Z</time>
      </trkpt>
      <trkpt lat="43.20907" lon="2.94913">
        <ele>94.956779</ele>
        <time>2023-01-05T15:43:12.549Z</time>
      </trkpt>
      <trkpt lat="43.20902" lon="2.94928">
        <ele>95.073921</ele>
        <time>2023-01-05T15:43:15.572Z</time>
      </trkpt>
      <trkpt lat="43.20896" lon="2.94944">
        <ele>95.191534</ele>
        <time>2023-01-05T15:43:18.568Z</time>
      </trkpt>
      <trkpt lat="43.20891" lon="2.9496">
        <ele>95.314497</ele>
        <time>2023-01-05T15:43:21.569Z</time>
      </trkpt>
      <trkpt lat="43.20887" lon="2.94971">
        <ele>95.400931</ele>
        <time>2023-01-05T15:43:23.571Z</time>
      </trkpt>
      <trkpt lat="43.20881" lon="2.94988">
        <ele>95.528276</ele>
        <time>2023-01-05T15:43:26.556Z</time>
      </trkpt>
      <trkpt lat="43.20877" lon="2.95001">
        <ele>95.622836</ele>
        <time>2023-01-05T15:43:28.567Z</time>
      </trkpt>
      <trkpt lat="43.20874" lon="2.95012">
        <ele>95.710968</ele>
        <time>2023-01-05T15:43:30.571Z</time>
      </trkpt>
      <trkpt lat="43.2087" lon="2.95024">
        <ele>95.801622</ele>
        <time>2023-01-05T15:43:32.573Z</time>
      </trkpt>
      <trkpt lat="43.20866" lon="2.95037">
        <ele>95.893282</ele>
        <time>2023-01-05T15:43:34.572Z</time>
      </trkpt>
      <trkpt lat="43.20863" lon="2.95049">
        <ele>95.983464</ele>
        <time>2023-01-05T15:43:36.558Z</time>
      </trkpt>
      <trkpt lat="43.20859" lon="2.9506">
        <ele>96.068947</ele>
        <time>2023-01-05T15:43:38.552Z</time>
      </trkpt>
      <trkpt lat="43.20855" lon="2.95072">
        <ele>96.159738</ele>
        <time>2023-01-05T15:43:40.557Z</time>
      </trkpt>
      <trkpt lat="43.20852" lon="2.95085">
        <ele>96.249949</ele>
        <time>2023-01-05T15:43:42.552Z</time>
      </trkpt>
      <trkpt lat="43.20848" lon="2.95096">
        <ele>96.332366</ele>
        <time>2023-01-05T15:43:44.572Z</time>
      </trkpt>
      <trkpt lat="43.20843" lon="2.95108">
        <ele>96.391395</ele>
        <time>2023-01-05T15:43:46.564Z</time>
      </trkpt>
      <trkpt lat="43.2084" lon="2.95121">
        <ele>96.449205</ele>
        <time>2023-01-05T15:43:48.557Z</time>
      </trkpt>
      <trkpt lat="43.20836" lon="2.95133">
        <ele>96.505751</ele>
        <time>2023-01-05T15:43:50.558Z</time>
      </trkpt>
      <trkpt lat="43.20832" lon="2.95145">
        <ele>96.564129</ele>
        <time>2023-01-05T15:43:52.559Z</time>
      </trkpt>
      <trkpt lat="43.20828" lon="2.95157">
        <ele>96.622978</ele>
        <time>2023-01-05T15:43:54.572Z</time>
      </trkpt>
      <trkpt lat="43.20824" lon="2.9517">
        <ele>96.682464</ele>
        <time>2023-01-05T15:43:56.571Z</time>
      </trkpt>
      <trkpt lat="43.2082" lon="2.95183">
        <ele>96.745427</ele>
        <time>2023-01-05T15:43:58.568Z</time>
      </trkpt>
      <trkpt lat="43.20816" lon="2.95195">
        <ele>96.807485</ele>
        <time>2023-01-05T15:44:00.551Z</time>
      </trkpt>
      <trkpt lat="43.20811" lon="2.95209">
        <ele>96.871873</ele>
        <time>2023-01-05T15:44:02.571Z</time>
      </trkpt>
      <trkpt lat="43.20808" lon="2.95221">
        <ele>96.930319</ele>
        <time>2023-01-05T15:44:04.569Z</time>
      </trkpt>
      <trkpt lat="43.20803" lon="2.95234">
        <ele>96.993424</ele>
        <time>2023-01-05T15:44:06.563Z</time>
      </trkpt>
      <trkpt lat="43.20799" lon="2.95247">
        <ele>97.05376</ele>
        <time>2023-01-05T15:44:08.549Z</time>
      </trkpt>
      <trkpt lat="43.20794" lon="2.9526">
        <ele>97.117771</ele>
        <time>2023-01-05T15:44:10.547Z</time>
      </trkpt>
      <trkpt lat="43.2079" lon="2.95274">
        <ele>97.182744</ele>
        <time>2023-01-05T15:44:12.565Z</time>
      </trkpt>
      <trkpt lat="43.20786" lon="2.95288">
        <ele>97.251195</ele>
        <time>2023-01-05T15:44:14.549Z</time>
      </trkpt>
      <trkpt lat="43.20782" lon="2.95302">
        <ele>97.314141</ele>
        <time>2023-01-05T15:44:16.571Z</time>
      </trkpt>
      <trkpt lat="43.20778" lon="2.95316">
        <ele>97.382926</ele>
        <time>2023-01-05T15:44:18.565Z</time>
      </trkpt>
      <trkpt lat="43.20773" lon="2.9533">
        <ele>97.418065</ele>
        <time>2023-01-05T15:44:20.563Z</time>
      </trkpt>
      <trkpt lat="43.20768" lon="2.95344">
        <ele>97.441403</ele>
        <time>2023-01-05T15:44:22.578Z</time>
      </trkpt>
      <trkpt lat="43.20763" lon="2.95358">
        <ele>97.465074</ele>
        <time>2023-01-05T15:44:24.553Z</time>
      </trkpt>
      <trkpt lat="43.20759" lon="2.95372">
        <ele>97.488804</ele>
        <time>2023-01-05T15:44:26.572Z</time>
      </trkpt>
      <trkpt lat="43.20755" lon="2.95386">
        <ele>97.512253</ele>
        <time>2023-01-05T15:44:28.587Z</time>
      </trkpt>
      <trkpt lat="43.2075" lon="2.95401">
        <ele>97.536092</ele>
        <time>2023-01-05T15:44:30.573Z</time>
      </trkpt>
      <trkpt lat="43.20745" lon="2.95416">
        <ele>97.560935</ele>
        <time>2023-01-05T15:44:32.571Z</time>
      </trkpt>
      <trkpt lat="43.2074" lon="2.9543">
        <ele>97.5844</ele>
        <time>2023-01-05T15:44:34.556Z</time>
      </trkpt>
      <trkpt lat="43.20735" lon="2.95445">
        <ele>97.609296</ele>
        <time>2023-01-05T15:44:36.571Z</time>
      </trkpt>
      <trkpt lat="43.2073" lon="2.95458">
        <ele>97.633041</ele>
        <time>2023-01-05T15:44:38.559Z</time>
      </trkpt>
      <trkpt lat="43.20725" lon="2.95472">
        <ele>97.656369</ele>
        <time>2023-01-05T15:44:40.559Z</time>
      </trkpt>
      <trkpt lat="43.2072" lon="2.95486">
        <ele>97.680246</ele>
        <time>2023-01-05T15:44:42.568Z</time>
      </trkpt>
      <trkpt lat="43.20716" lon="2.955">
        <ele>97.703395</ele>
        <time>2023-01-05T15:44:44.555Z</time>
      </trkpt>
      <trkpt lat="43.20711" lon="2.95515">
        <ele>97.727108</ele>
        <time>2023-01-05T15:44:46.558Z</time>
      </trkpt>
      <trkpt lat="43.20707" lon="2.95529">
        <ele>97.750954</ele>
        <time>2023-01-05T15:44:48.557Z</time>
      </trkpt>
      <trkpt lat="43.20703" lon="2.95544">
        <ele>97.774463</ele>
        <time>2023-01-05T15:44:50.565Z</time>
      </trkpt>
      <trkpt lat="43.20699" lon="2.95558">
        <ele>97.898337</ele>
        <time>2023-01-05T15:44:52.572Z</time>
      </trkpt>
      <trkpt lat="43.20694" lon="2.95572">
        <ele>98.031331</ele>
        <time>2023-01-05T15:44:54.551Z</time>
      </trkpt>
      <trkpt lat="43.2069" lon="2.95586">
        <ele>98.159233</ele>
        <time>2023-01-05T15:44:56.553Z</time>
      </trkpt>
      <trkpt lat="43.20684" lon="2.956">
        <ele>98.296333</ele>
        <time>2023-01-05T15:44:58.556Z</time>
      </trkpt>
      <trkpt lat="43.2068" lon="2.95615">
        <ele>98.429901</ele>
        <time>2023-01-05T15:45:00.565Z</time>
      </trkpt>
      <trkpt lat="43.20676" lon="2.95629">
        <ele>98.565796</ele>
        <time>2023-01-05T15:45:02.576Z</time>
      </trkpt>
      <trkpt lat="43.20671" lon="2.95643">
        <ele>98.691959</ele>
        <time>2023-01-05T15:45:04.571Z</time>
      </trkpt>
      <trkpt lat="43.20667" lon="2.95658">
        <ele>98.830382</ele>
        <time>2023-01-05T15:45:06.571Z</time>
      </trkpt>
      <trkpt lat="43.20662" lon="2.95672">
        <ele>98.966024</ele>
        <time>2023-01-05T15:45:08.569Z</time>
      </trkpt>
      <trkpt lat="43.20658" lon="2.95687">
        <ele>99.098791</ele>
        <time>2023-01-05T15:45:10.553Z</time>
      </trkpt>
      <trkpt lat="43.20654" lon="2.95701">
        <ele>99.234213</ele>
        <time>2023-01-05T15:45:12.573Z</time>
      </trkpt>
      <trkpt lat="43.20649" lon="2.95715">
        <ele>99.365721</ele>
        <time>2023-01-05T15:45:14.574Z</time>
      </trkpt>
      <trkpt lat="43.20645" lon="2.95731">
        <ele>99.505776</ele>
        <time>2023-01-05T15:45:16.569Z</time>
      </trkpt>
      <trkpt lat="43.20641" lon="2.95744">
        <ele>99.631304</ele>
        <time>2023-01-05T15:45:18.560Z</time>
      </trkpt>
      <trkpt lat="43.20637" lon="2.95758">
        <ele>99.754814</ele>
        <time>2023-01-05T15:45:20.568Z</time>
      </trkpt>
      <trkpt lat="43.20634" lon="2.9577">
        <ele>99.867074</ele>
        <time>2023-01-05T15:45:22.570Z</time>
      </trkpt>
      <trkpt lat="43.20631" lon="2.95783">
        <ele>99.614395</ele>
        <time>2023-01-05T15:45:24.555Z</time>
      </trkpt>
      <trkpt lat="43.2063" lon="2.95795">
        <ele>99.280629</ele>
        <time>2023-01-05T15:45:26.555Z</time>
      </trkpt>
      <trkpt lat="43.20627" lon="2.95813">
        <ele>98.792785</ele>
        <time>2023-01-05T15:45:29.550Z</time>
      </trkpt>
      <trkpt lat="43.20625" lon="2.9583">
        <ele>98.339906</ele>
        <time>2023-01-05T15:45:32.574Z</time>
      </trkpt>
      <trkpt lat="43.20623" lon="2.95847">
        <ele>97.877615</ele>
        <time>2023-01-05T15:45:35.575Z</time>
      </trkpt>
      <trkpt lat="43.20621" lon="2.9586">
        <ele>97.521612</ele>
        <time>2023-01-05T15:45:37.573Z</time>
      </trkpt>
      <trkpt lat="43.20621" lon="2.95874">
        <ele>97.15116</ele>
        <time>2023-01-05T15:45:39.561Z</time>
      </trkpt>
      <trkpt lat="43.2062" lon="2.95889">
        <ele>96.759239</ele>
        <time>2023-01-05T15:45:41.571Z</time>
      </trkpt>
      <trkpt lat="43.20619" lon="2.95906">
        <ele>96.30624</ele>
        <time>2023-01-05T15:45:43.570Z</time>
      </trkpt>
      <trkpt lat="43.20618" lon="2.95924">
        <ele>95.81296</ele>
        <time>2023-01-05T15:45:45.555Z</time>
      </trkpt>
      <trkpt lat="43.20618" lon="2.95943">
        <ele>95.311942</ele>
        <time>2023-01-05T15:45:47.553Z</time>
      </trkpt>
      <trkpt lat="43.20617" lon="2.95963">
        <ele>94.776392</ele>
        <time>2023-01-05T15:45:49.555Z</time>
      </trkpt>
      <trkpt lat="43.20615" lon="2.95984">
        <ele>94.213846</ele>
        <time>2023-01-05T15:45:51.567Z</time>
      </trkpt>
      <trkpt lat="43.20613" lon="2.96007">
        <ele>93.601479</ele>
        <time>2023-01-05T15:45:53.549Z</time>
      </trkpt>
      <trkpt lat="43.20609" lon="2.96031">
        <ele>92.93338</ele>
        <time>2023-01-05T15:45:55.571Z</time>
      </trkpt>
      <trkpt lat="43.20607" lon="2.96043">
        <ele>92.576461</ele>
        <time>2023-01-05T15:45:56.553Z</time>
      </trkpt>
      <trkpt lat="43.20604" lon="2.96055">
        <ele>92.217594</ele>
        <time>2023-01-05T15:45:58.705Z</time>
      </trkpt>
      <trkpt lat="43.20601" lon="2.96067">
        <ele>91.869025</ele>
        <time>2023-01-05T15:45:58.730Z</time>
      </trkpt>
      <trkpt lat="43.20594" lon="2.96091">
        <ele>91.142532</ele>
        <time>2023-01-05T15:46:00.569Z</time>
      </trkpt>
      <trkpt lat="43.2059" lon="2.96103">
        <ele>90.77071</ele>
        <time>2023-01-05T15:46:01.570Z</time>
      </trkpt>
      <trkpt lat="43.20586" lon="2.96115">
        <ele>90.38804</ele>
        <time>2023-01-05T15:46:02.568Z</time>
      </trkpt>
      <trkpt lat="43.20581" lon="2.96128">
        <ele>89.994688</ele>
        <time>2023-01-05T15:46:03.566Z</time>
      </trkpt>
      <trkpt lat="43.20576" lon="2.96139">
        <ele>89.601054</ele>
        <time>2023-01-05T15:46:04.571Z</time>
      </trkpt>
      <trkpt lat="43.2057" lon="2.96151">
        <ele>89.216293</ele>
        <time>2023-01-05T15:46:05.548Z</time>
      </trkpt>
      <trkpt lat="43.20564" lon="2.96162">
        <ele>88.827927</ele>
        <time>2023-01-05T15:46:06.552Z</time>
      </trkpt>
      <trkpt lat="43.20559" lon="2.96173">
        <ele>88.446363</ele>
        <time>2023-01-05T15:46:07.571Z</time>
      </trkpt>
      <trkpt lat="43.20552" lon="2.96183">
        <ele>88.070941</ele>
        <time>2023-01-05T15:46:08.572Z</time>
      </trkpt>
      <trkpt lat="43.20546" lon="2.96193">
        <ele>87.706619</ele>
        <time>2023-01-05T15:46:09.553Z</time>
      </trkpt>
      <trkpt lat="43.2054" lon="2.96203">
        <ele>87.345116</ele>
        <time>2023-01-05T15:46:10.560Z</time>
      </trkpt>
      <trkpt lat="43.20533" lon="2.96212">
        <ele>86.979619</ele>
        <time>2023-01-05T15:46:11.571Z</time>
      </trkpt>
      <trkpt lat="43.20527" lon="2.96221">
        <ele>86.620821</ele>
        <time>2023-01-05T15:46:12.547Z</time>
      </trkpt>
      <trkpt lat="43.2052" lon="2.96229">
        <ele>86.333966</ele>
        <time>2023-01-05T15:46:13.550Z</time>
      </trkpt>
      <trkpt lat="43.20513" lon="2.96238">
        <ele>86.175006</ele>
        <time>2023-01-05T15:46:14.555Z</time>
      </trkpt>
      <trkpt lat="43.20506" lon="2.96246">
        <ele>86.019443</ele>
        <time>2023-01-05T15:46:15.567Z</time>
      </trkpt>
      <trkpt lat="43.20494" lon="2.96262">
        <ele>85.725296</ele>
        <time>2023-01-05T15:46:17.571Z</time>
      </trkpt>
      <trkpt lat="43.20481" lon="2.96277">
        <ele>85.438797</ele>
        <time>2023-01-05T15:46:19.548Z</time>
      </trkpt>
      <trkpt lat="43.20469" lon="2.96293">
        <ele>85.150619</ele>
        <time>2023-01-05T15:46:21.570Z</time>
      </trkpt>
      <trkpt lat="43.20457" lon="2.96307">
        <ele>84.874302</ele>
        <time>2023-01-05T15:46:23.573Z</time>
      </trkpt>
      <trkpt lat="43.20445" lon="2.96321">
        <ele>84.602244</ele>
        <time>2023-01-05T15:46:25.551Z</time>
      </trkpt>
      <trkpt lat="43.20434" lon="2.96335">
        <ele>84.3387</ele>
        <time>2023-01-05T15:46:27.553Z</time>
      </trkpt>
      <trkpt lat="43.20423" lon="2.96349">
        <ele>84.083258</ele>
        <time>2023-01-05T15:46:29.552Z</time>
      </trkpt>
      <trkpt lat="43.20412" lon="2.96363">
        <ele>83.824839</ele>
        <time>2023-01-05T15:46:31.566Z</time>
      </trkpt>
      <trkpt lat="43.20401" lon="2.96377">
        <ele>83.564259</ele>
        <time>2023-01-05T15:46:33.570Z</time>
      </trkpt>
      <trkpt lat="43.2039" lon="2.96391">
        <ele>83.303715</ele>
        <time>2023-01-05T15:46:35.555Z</time>
      </trkpt>
      <trkpt lat="43.20378" lon="2.96405">
        <ele>82.783666</ele>
        <time>2023-01-05T15:46:37.558Z</time>
      </trkpt>
      <trkpt lat="43.20367" lon="2.96419">
        <ele>82.235888</ele>
        <time>2023-01-05T15:46:39.548Z</time>
      </trkpt>
      <trkpt lat="43.20356" lon="2.96433">
        <ele>81.692506</ele>
        <time>2023-01-05T15:46:41.560Z</time>
      </trkpt>
      <trkpt lat="43.20344" lon="2.96447">
        <ele>81.130432</ele>
        <time>2023-01-05T15:46:43.548Z</time>
      </trkpt>
      <trkpt lat="43.20333" lon="2.96461">
        <ele>80.599211</ele>
        <time>2023-01-05T15:46:45.550Z</time>
      </trkpt>
      <trkpt lat="43.20322" lon="2.96474">
        <ele>80.066378</ele>
        <time>2023-01-05T15:46:47.548Z</time>
      </trkpt>
      <trkpt lat="43.20311" lon="2.96488">
        <ele>79.53879</ele>
        <time>2023-01-05T15:46:49.557Z</time>
      </trkpt>
      <trkpt lat="43.203" lon="2.965">
        <ele>79.046245</ele>
        <time>2023-01-05T15:46:51.556Z</time>
      </trkpt>
      <trkpt lat="43.2029" lon="2.96514">
        <ele>78.536227</ele>
        <time>2023-01-05T15:46:53.557Z</time>
      </trkpt>
      <trkpt lat="43.20279" lon="2.96528">
        <ele>78.005508</ele>
        <time>2023-01-05T15:46:55.569Z</time>
      </trkpt>
      <trkpt lat="43.20269" lon="2.96542">
        <ele>77.484802</ele>
        <time>2023-01-05T15:46:57.554Z</time>
      </trkpt>
      <trkpt lat="43.2026" lon="2.96557">
        <ele>76.977228</ele>
        <time>2023-01-05T15:46:59.558Z</time>
      </trkpt>
      <trkpt lat="43.20251" lon="2.96572">
        <ele>76.663421</ele>
        <time>2023-01-05T15:47:01.568Z</time>
      </trkpt>
      <trkpt lat="43.20241" lon="2.96587">
        <ele>76.418902</ele>
        <time>2023-01-05T15:47:03.564Z</time>
      </trkpt>
      <trkpt lat="43.20232" lon="2.96603">
        <ele>76.169542</ele>
        <time>2023-01-05T15:47:05.550Z</time>
      </trkpt>
      <trkpt lat="43.20223" lon="2.96618">
        <ele>75.924059</ele>
        <time>2023-01-05T15:47:07.555Z</time>
      </trkpt>
      <trkpt lat="43.20214" lon="2.96633">
        <ele>75.678444</ele>
        <time>2023-01-05T15:47:09.565Z</time>
      </trkpt>
      <trkpt lat="43.20205" lon="2.96648">
        <ele>75.438527</ele>
        <time>2023-01-05T15:47:11.568Z</time>
      </trkpt>
      <trkpt lat="43.20196" lon="2.96663">
        <ele>75.193044</ele>
        <time>2023-01-05T15:47:13.572Z</time>
      </trkpt>
      <trkpt lat="43.20187" lon="2.96678">
        <ele>74.950442</ele>
        <time>2023-01-05T15:47:15.557Z</time>
      </trkpt>
      <trkpt lat="43.20178" lon="2.96693">
        <ele>74.702053</ele>
        <time>2023-01-05T15:47:17.557Z</time>
      </trkpt>
      <trkpt lat="43.20169" lon="2.96707">
        <ele>74.480359</ele>
        <time>2023-01-05T15:47:19.563Z</time>
      </trkpt>
      <trkpt lat="43.20161" lon="2.9672">
        <ele>74.265152</ele>
        <time>2023-01-05T15:47:21.568Z</time>
      </trkpt>
      <trkpt lat="43.20154" lon="2.96731">
        <ele>74.073496</ele>
        <time>2023-01-05T15:47:23.551Z</time>
      </trkpt>
      <trkpt lat="43.20146" lon="2.96744">
        <ele>73.873745</ele>
        <time>2023-01-05T15:47:25.561Z</time>
      </trkpt>
      <trkpt lat="43.20138" lon="2.96756">
        <ele>73.712165</ele>
        <time>2023-01-05T15:47:27.555Z</time>
      </trkpt>
      <trkpt lat="43.20131" lon="2.96769">
        <ele>73.592835</ele>
        <time>2023-01-05T15:47:29.563Z</time>
      </trkpt>
      <trkpt lat="43.20123" lon="2.96781">
        <ele>73.472303</ele>
        <time>2023-01-05T15:47:31.554Z</time>
      </trkpt>
      <trkpt lat="43.20114" lon="2.96795">
        <ele>73.341124</ele>
        <time>2023-01-05T15:47:33.560Z</time>
      </trkpt>
      <trkpt lat="43.20106" lon="2.96809">
        <ele>73.206511</ele>
        <time>2023-01-05T15:47:35.558Z</time>
      </trkpt>
      <trkpt lat="43.20096" lon="2.96825">
        <ele>73.060519</ele>
        <time>2023-01-05T15:47:37.570Z</time>
      </trkpt>
      <trkpt lat="43.20087" lon="2.9684">
        <ele>72.915337</ele>
        <time>2023-01-05T15:47:39.556Z</time>
      </trkpt>
      <trkpt lat="43.20078" lon="2.96854">
        <ele>72.778401</ele>
        <time>2023-01-05T15:47:41.569Z</time>
      </trkpt>
      <trkpt lat="43.20071" lon="2.96865">
        <ele>72.673972</ele>
        <time>2023-01-05T15:47:43.564Z</time>
      </trkpt>
      <trkpt lat="43.20063" lon="2.96872">
        <ele>72.579057</ele>
        <time>2023-01-05T15:47:45.570Z</time>
      </trkpt>
      <trkpt lat="43.20056" lon="2.96881">
        <ele>72.483831</ele>
        <time>2023-01-05T15:47:47.558Z</time>
      </trkpt>
      <trkpt lat="43.20046" lon="2.96892">
        <ele>72.350366</ele>
        <time>2023-01-05T15:47:50.558Z</time>
      </trkpt>
      <trkpt lat="43.20033" lon="2.96896">
        <ele>72.218831</ele>
        <time>2023-01-05T15:47:53.552Z</time>
      </trkpt>
      <trkpt lat="43.20024" lon="2.96896">
        <ele>72.128733</ele>
        <time>2023-01-05T15:47:55.545Z</time>
      </trkpt>
      <trkpt lat="43.20014" lon="2.96902">
        <ele>72.020824</ele>
        <time>2023-01-05T15:47:58.561Z</time>
      </trkpt>
      <trkpt lat="43.20007" lon="2.96913">
        <ele>71.817415</ele>
        <time>2023-01-05T15:48:02.553Z</time>
      </trkpt>
      <trkpt lat="43.20007" lon="2.96929">
        <ele>71.524186</ele>
        <time>2023-01-05T15:48:06.544Z</time>
      </trkpt>
      <trkpt lat="43.20007" lon="2.96941">
        <ele>71.289933</ele>
        <time>2023-01-05T15:48:09.555Z</time>
      </trkpt>
      <trkpt lat="43.20007" lon="2.96953">
        <ele>71.055623</ele>
        <time>2023-01-05T15:48:12.559Z</time>
      </trkpt>
      <trkpt lat="43.20004" lon="2.96967">
        <ele>70.786121</ele>
        <time>2023-01-05T15:48:15.550Z</time>
      </trkpt>
      <trkpt lat="43.19998" lon="2.96981">
        <ele>70.478516</ele>
        <time>2023-01-05T15:48:18.554Z</time>
      </trkpt>
      <trkpt lat="43.19992" lon="2.96991">
        <ele>70.23576</ele>
        <time>2023-01-05T15:48:20.553Z</time>
      </trkpt>
      <trkpt lat="43.19987" lon="2.97003">
        <ele>69.972922</ele>
        <time>2023-01-05T15:48:22.562Z</time>
      </trkpt>
      <trkpt lat="43.1998" lon="2.97015">
        <ele>69.691849</ele>
        <time>2023-01-05T15:48:24.558Z</time>
      </trkpt>
      <trkpt lat="43.19973" lon="2.97027">
        <ele>69.400027</ele>
        <time>2023-01-05T15:48:26.550Z</time>
      </trkpt>
      <trkpt lat="43.19966" lon="2.97038">
        <ele>69.116502</ele>
        <time>2023-01-05T15:48:28.554Z</time>
      </trkpt>
      <trkpt lat="43.19958" lon="2.97051">
        <ele>68.80755</ele>
        <time>2023-01-05T15:48:30.566Z</time>
      </trkpt>
      <trkpt lat="43.19951" lon="2.97063">
        <ele>68.503161</ele>
        <time>2023-01-05T15:48:32.556Z</time>
      </trkpt>
      <trkpt lat="43.19943" lon="2.97076">
        <ele>68.196014</ele>
        <time>2023-01-05T15:48:34.562Z</time>
      </trkpt>
      <trkpt lat="43.19936" lon="2.97089">
        <ele>67.882928</ele>
        <time>2023-01-05T15:48:36.550Z</time>
      </trkpt>
      <trkpt lat="43.19929" lon="2.97102">
        <ele>67.571503</ele>
        <time>2023-01-05T15:48:38.551Z</time>
      </trkpt>
      <trkpt lat="43.19922" lon="2.97116">
        <ele>67.285366</ele>
        <time>2023-01-05T15:48:40.560Z</time>
      </trkpt>
      <trkpt lat="43.19916" lon="2.97131">
        <ele>67.139979</ele>
        <time>2023-01-05T15:48:42.558Z</time>
      </trkpt>
      <trkpt lat="43.19909" lon="2.97146">
        <ele>66.984219</ele>
        <time>2023-01-05T15:48:44.555Z</time>
      </trkpt>
      <trkpt lat="43.19903" lon="2.97162">
        <ele>66.829202</ele>
        <time>2023-01-05T15:48:46.578Z</time>
      </trkpt>
      <trkpt lat="43.19897" lon="2.97179">
        <ele>66.660072</ele>
        <time>2023-01-05T15:48:48.549Z</time>
      </trkpt>
      <trkpt lat="43.19891" lon="2.97197">
        <ele>66.494084</ele>
        <time>2023-01-05T15:48:50.558Z</time>
      </trkpt>
      <trkpt lat="43.19886" lon="2.97212">
        <ele>66.345113</ele>
        <time>2023-01-05T15:48:52.549Z</time>
      </trkpt>
      <trkpt lat="43.1988" lon="2.97227">
        <ele>66.202657</ele>
        <time>2023-01-05T15:48:54.543Z</time>
      </trkpt>
      <trkpt lat="43.19876" lon="2.97239">
        <ele>66.078481</ele>
        <time>2023-01-05T15:48:56.558Z</time>
      </trkpt>
      <trkpt lat="43.19872" lon="2.97252">
        <ele>65.958716</ele>
        <time>2023-01-05T15:48:58.548Z</time>
      </trkpt>
      <trkpt lat="43.19867" lon="2.97264">
        <ele>65.838085</ele>
        <time>2023-01-05T15:49:00.552Z</time>
      </trkpt>
      <trkpt lat="43.19862" lon="2.97276">
        <ele>65.723181</ele>
        <time>2023-01-05T15:49:02.559Z</time>
      </trkpt>
      <trkpt lat="43.19856" lon="2.97287">
        <ele>65.602074</ele>
        <time>2023-01-05T15:49:04.546Z</time>
      </trkpt>
      <trkpt lat="43.19849" lon="2.97296">
        <ele>65.482065</ele>
        <time>2023-01-05T15:49:06.549Z</time>
      </trkpt>
      <trkpt lat="43.1984" lon="2.97304">
        <ele>65.359955</ele>
        <time>2023-01-05T15:49:08.553Z</time>
      </trkpt>
      <trkpt lat="43.19828" lon="2.97307">
        <ele>65.212011</ele>
        <time>2023-01-05T15:49:11.550Z</time>
      </trkpt>
      <trkpt lat="43.19816" lon="2.97315">
        <ele>64.892229</ele>
        <time>2023-01-05T15:49:14.562Z</time>
      </trkpt>
      <trkpt lat="43.19809" lon="2.97331">
        <ele>64.515437</ele>
        <time>2023-01-05T15:49:17.573Z</time>
      </trkpt>
      <trkpt lat="43.19812" lon="2.97349">
        <ele>64.119654</ele>
        <time>2023-01-05T15:49:20.571Z</time>
      </trkpt>
      <trkpt lat="43.19816" lon="2.97362">
        <ele>63.825624</ele>
        <time>2023-01-05T15:49:22.569Z</time>
      </trkpt>
      <trkpt lat="43.1982" lon="2.97376">
        <ele>63.509101</ele>
        <time>2023-01-05T15:49:24.575Z</time>
      </trkpt>
      <trkpt lat="43.19818" lon="2.97392">
        <ele>63.182597</ele>
        <time>2023-01-05T15:49:26.569Z</time>
      </trkpt>
      <trkpt lat="43.19815" lon="2.97408">
        <ele>62.826992</ele>
        <time>2023-01-05T15:49:28.552Z</time>
      </trkpt>
      <trkpt lat="43.19809" lon="2.97424">
        <ele>62.451953</ele>
        <time>2023-01-05T15:49:30.573Z</time>
      </trkpt>
      <trkpt lat="43.19804" lon="2.97441">
        <ele>62.066879</ele>
        <time>2023-01-05T15:49:32.547Z</time>
      </trkpt>
      <trkpt lat="43.19797" lon="2.97457">
        <ele>61.674517</ele>
        <time>2023-01-05T15:49:34.554Z</time>
      </trkpt>
      <trkpt lat="43.19789" lon="2.97473">
        <ele>61.26658</ele>
        <time>2023-01-05T15:49:36.549Z</time>
      </trkpt>
      <trkpt lat="43.1978" lon="2.97489">
        <ele>60.861963</ele>
        <time>2023-01-05T15:49:38.545Z</time>
      </trkpt>
      <trkpt lat="43.19772" lon="2.97503">
        <ele>60.465509</ele>
        <time>2023-01-05T15:49:40.572Z</time>
      </trkpt>
      <trkpt lat="43.19762" lon="2.97517">
        <ele>60.07224</ele>
        <time>2023-01-05T15:49:42.572Z</time>
      </trkpt>
      <trkpt lat="43.19754" lon="2.97531">
        <ele>59.789187</ele>
        <time>2023-01-05T15:49:44.583Z</time>
      </trkpt>
      <trkpt lat="43.19744" lon="2.97546">
        <ele>59.51838</ele>
        <time>2023-01-05T15:49:46.550Z</time>
      </trkpt>
      <trkpt lat="43.19736" lon="2.9756">
        <ele>59.263616</ele>
        <time>2023-01-05T15:49:48.568Z</time>
      </trkpt>
      <trkpt lat="43.19727" lon="2.97574">
        <ele>59.007947</ele>
        <time>2023-01-05T15:49:50.569Z</time>
      </trkpt>
      <trkpt lat="43.19719" lon="2.97587">
        <ele>58.764393</ele>
        <time>2023-01-05T15:49:52.549Z</time>
      </trkpt>
      <trkpt lat="43.19711" lon="2.976">
        <ele>58.518713</ele>
        <time>2023-01-05T15:49:54.554Z</time>
      </trkpt>
      <trkpt lat="43.19703" lon="2.97613">
        <ele>58.284607</ele>
        <time>2023-01-05T15:49:56.558Z</time>
      </trkpt>
      <trkpt lat="43.19695" lon="2.97626">
        <ele>58.046945</ele>
        <time>2023-01-05T15:49:58.570Z</time>
      </trkpt>
      <trkpt lat="43.19687" lon="2.97638">
        <ele>57.815385</ele>
        <time>2023-01-05T15:50:00.571Z</time>
      </trkpt>
      <trkpt lat="43.19679" lon="2.9765">
        <ele>57.583825</ele>
        <time>2023-01-05T15:50:02.569Z</time>
      </trkpt>
      <trkpt lat="43.1967" lon="2.97662">
        <ele>57.350965</ele>
        <time>2023-01-05T15:50:04.551Z</time>
      </trkpt>
      <trkpt lat="43.19663" lon="2.97674">
        <ele>57.134185</ele>
        <time>2023-01-05T15:50:06.570Z</time>
      </trkpt>
      <trkpt lat="43.19655" lon="2.97685">
        <ele>56.915149</ele>
        <time>2023-01-05T15:50:08.551Z</time>
      </trkpt>
      <trkpt lat="43.19646" lon="2.97699">
        <ele>56.657864</ele>
        <time>2023-01-05T15:50:11.549Z</time>
      </trkpt>
      <trkpt lat="43.19637" lon="2.97711">
        <ele>56.482856</ele>
        <time>2023-01-05T15:50:14.558Z</time>
      </trkpt>
      <trkpt lat="43.19628" lon="2.97723">
        <ele>56.383159</ele>
        <time>2023-01-05T15:50:17.556Z</time>
      </trkpt>
      <trkpt lat="43.1962" lon="2.97736">
        <ele>56.285466</ele>
        <time>2023-01-05T15:50:20.559Z</time>
      </trkpt>
      <trkpt lat="43.1961" lon="2.97748">
        <ele>56.180061</ele>
        <time>2023-01-05T15:50:23.566Z</time>
      </trkpt>
      <trkpt lat="43.19602" lon="2.97758">
        <ele>56.099308</ele>
        <time>2023-01-05T15:50:25.559Z</time>
      </trkpt>
      <trkpt lat="43.19594" lon="2.97767">
        <ele>56.012055</ele>
        <time>2023-01-05T15:50:27.560Z</time>
      </trkpt>
      <trkpt lat="43.19585" lon="2.97778">
        <ele>55.919258</ele>
        <time>2023-01-05T15:50:29.565Z</time>
      </trkpt>
      <trkpt lat="43.19576" lon="2.97788">
        <ele>55.82858</ele>
        <time>2023-01-05T15:50:31.560Z</time>
      </trkpt>
      <trkpt lat="43.19566" lon="2.97799">
        <ele>55.726809</ele>
        <time>2023-01-05T15:50:33.559Z</time>
      </trkpt>
      <trkpt lat="43.19556" lon="2.97811">
        <ele>55.622488</ele>
        <time>2023-01-05T15:50:35.547Z</time>
      </trkpt>
      <trkpt lat="43.19546" lon="2.97823">
        <ele>55.519743</ele>
        <time>2023-01-05T15:50:37.570Z</time>
      </trkpt>
      <trkpt lat="43.19536" lon="2.97834">
        <ele>55.419318</ele>
        <time>2023-01-05T15:50:39.562Z</time>
      </trkpt>
      <trkpt lat="43.19527" lon="2.97845">
        <ele>55.319634</ele>
        <time>2023-01-05T15:50:41.557Z</time>
      </trkpt>
      <trkpt lat="43.19518" lon="2.97855">
        <ele>55.228946</ele>
        <time>2023-01-05T15:50:43.569Z</time>
      </trkpt>
      <trkpt lat="43.19509" lon="2.97865">
        <ele>55.138523</ele>
        <time>2023-01-05T15:50:45.553Z</time>
      </trkpt>
      <trkpt lat="43.19501" lon="2.97875">
        <ele>55.076794</ele>
        <time>2023-01-05T15:50:47.547Z</time>
      </trkpt>
      <trkpt lat="43.19491" lon="2.97885">
        <ele>55.020864</ele>
        <time>2023-01-05T15:50:49.547Z</time>
      </trkpt>
      <trkpt lat="43.19482" lon="2.97896">
        <ele>54.966096</ele>
        <time>2023-01-05T15:50:51.553Z</time>
      </trkpt>
      <trkpt lat="43.19473" lon="2.97906">
        <ele>54.910801</ele>
        <time>2023-01-05T15:50:53.552Z</time>
      </trkpt>
      <trkpt lat="43.19465" lon="2.97915">
        <ele>54.858952</ele>
        <time>2023-01-05T15:50:55.555Z</time>
      </trkpt>
      <trkpt lat="43.19457" lon="2.97925">
        <ele>54.806983</ele>
        <time>2023-01-05T15:50:57.558Z</time>
      </trkpt>
      <trkpt lat="43.19448" lon="2.97936">
        <ele>54.752439</ele>
        <time>2023-01-05T15:50:59.549Z</time>
      </trkpt>
      <trkpt lat="43.19439" lon="2.97947">
        <ele>54.69723</ele>
        <time>2023-01-05T15:51:01.554Z</time>
      </trkpt>
      <trkpt lat="43.19431" lon="2.97957">
        <ele>54.643399</ele>
        <time>2023-01-05T15:51:03.571Z</time>
      </trkpt>
      <trkpt lat="43.19422" lon="2.97966">
        <ele>54.590753</ele>
        <time>2023-01-05T15:51:05.555Z</time>
      </trkpt>
      <trkpt lat="43.19414" lon="2.97976">
        <ele>54.54175</ele>
        <time>2023-01-05T15:51:07.572Z</time>
      </trkpt>
      <trkpt lat="43.19406" lon="2.97984">
        <ele>54.49308</ele>
        <time>2023-01-05T15:51:09.561Z</time>
      </trkpt>
      <trkpt lat="43.19397" lon="2.97993">
        <ele>54.444201</ele>
        <time>2023-01-05T15:51:11.552Z</time>
      </trkpt>
      <trkpt lat="43.1939" lon="2.98">
        <ele>54.39948</ele>
        <time>2023-01-05T15:51:13.561Z</time>
      </trkpt>
      <trkpt lat="43.19377" lon="2.98008">
        <ele>54.334722</ele>
        <time>2023-01-05T15:51:16.555Z</time>
      </trkpt>
      <trkpt lat="43.19366" lon="2.98016">
        <ele>54.276018</ele>
        <time>2023-01-05T15:51:19.573Z</time>
      </trkpt>
      <trkpt lat="43.19355" lon="2.98024">
        <ele>54.26047</ele>
        <time>2023-01-05T15:51:22.571Z</time>
      </trkpt>
      <trkpt lat="43.19344" lon="2.9803">
        <ele>54.253058</ele>
        <time>2023-01-05T15:51:25.558Z</time>
      </trkpt>
      <trkpt lat="43.19334" lon="2.98028">
        <ele>54.246315</ele>
        <time>2023-01-05T15:51:28.556Z</time>
      </trkpt>
      <trkpt lat="43.19323" lon="2.98025">
        <ele>54.238442</ele>
        <time>2023-01-05T15:51:31.560Z</time>
      </trkpt>
      <trkpt lat="43.1931" lon="2.98027">
        <ele>54.229995</ele>
        <time>2023-01-05T15:51:34.542Z</time>
      </trkpt>
      <trkpt lat="43.19299" lon="2.98035">
        <ele>54.221813</ele>
        <time>2023-01-05T15:51:37.561Z</time>
      </trkpt>
      <trkpt lat="43.19292" lon="2.98048">
        <ele>54.213982</ele>
        <time>2023-01-05T15:51:40.548Z</time>
      </trkpt>
      <trkpt lat="43.19288" lon="2.98065">
        <ele>54.205311</ele>
        <time>2023-01-05T15:51:43.567Z</time>
      </trkpt>
      <trkpt lat="43.19288" lon="2.98084">
        <ele>54.196447</ele>
        <time>2023-01-05T15:51:46.554Z</time>
      </trkpt>
      <trkpt lat="43.19287" lon="2.98102">
        <ele>54.187815</ele>
        <time>2023-01-05T15:51:49.549Z</time>
      </trkpt>
      <trkpt lat="43.19283" lon="2.98114">
        <ele>54.181659</ele>
        <time>2023-01-05T15:51:51.550Z</time>
      </trkpt>
      <trkpt lat="43.19277" lon="2.9813">
        <ele>54.172698</ele>
        <time>2023-01-05T15:51:54.548Z</time>
      </trkpt>
      <trkpt lat="43.19269" lon="2.98143">
        <ele>54.164606</ele>
        <time>2023-01-05T15:51:57.556Z</time>
      </trkpt>
      <trkpt lat="43.1926" lon="2.98153">
        <ele>54.156835</ele>
        <time>2023-01-05T15:52:00.557Z</time>
      </trkpt>
      <trkpt lat="43.19251" lon="2.98163">
        <ele>54.149138</ele>
        <time>2023-01-05T15:52:03.555Z</time>
      </trkpt>
      <trkpt lat="43.19242" lon="2.98173">
        <ele>54.303679</ele>
        <time>2023-01-05T15:52:06.561Z</time>
      </trkpt>
      <trkpt lat="43.19232" lon="2.98184">
        <ele>54.472416</ele>
        <time>2023-01-05T15:52:09.557Z</time>
      </trkpt>
      <trkpt lat="43.19223" lon="2.98195">
        <ele>54.641004</ele>
        <time>2023-01-05T15:52:12.567Z</time>
      </trkpt>
      <trkpt lat="43.19214" lon="2.98206">
        <ele>54.808052</ele>
        <time>2023-01-05T15:52:15.566Z</time>
      </trkpt>
      <trkpt lat="43.19205" lon="2.98216">
        <ele>54.970033</ele>
        <time>2023-01-05T15:52:18.550Z</time>
      </trkpt>
      <trkpt lat="43.19195" lon="2.98226">
        <ele>55.131181</ele>
        <time>2023-01-05T15:52:21.568Z</time>
      </trkpt>
      <trkpt lat="43.19187" lon="2.98237">
        <ele>55.288738</ele>
        <time>2023-01-05T15:52:24.558Z</time>
      </trkpt>
      <trkpt lat="43.19179" lon="2.98247">
        <ele>55.436085</ele>
        <time>2023-01-05T15:52:27.552Z</time>
      </trkpt>
      <trkpt lat="43.19171" lon="2.98255">
        <ele>55.569561</ele>
        <time>2023-01-05T15:52:30.551Z</time>
      </trkpt>
      <trkpt lat="43.19162" lon="2.98265">
        <ele>55.73071</ele>
        <time>2023-01-05T15:52:34.553Z</time>
      </trkpt>
      <trkpt lat="43.19153" lon="2.98275">
        <ele>55.884891</ele>
        <time>2023-01-05T15:52:38.547Z</time>
      </trkpt>
      <trkpt lat="43.19145" lon="2.98284">
        <ele>56.024281</ele>
        <time>2023-01-05T15:52:42.576Z</time>
      </trkpt>
      <trkpt lat="43.19138" lon="2.98291">
        <ele>56.148353</ele>
        <time>2023-01-05T15:52:46.574Z</time>
      </trkpt>
      <trkpt lat="43.1913" lon="2.983">
        <ele>56.281206</ele>
        <time>2023-01-05T15:52:50.555Z</time>
      </trkpt>
      <trkpt lat="43.19123" lon="2.98308">
        <ele>56.417631</ele>
        <time>2023-01-05T15:52:54.572Z</time>
      </trkpt>
      <trkpt lat="43.19115" lon="2.98317">
        <ele>56.552222</ele>
        <time>2023-01-05T15:52:58.550Z</time>
      </trkpt>
      <trkpt lat="43.19108" lon="2.98326">
        <ele>56.745517</ele>
        <time>2023-01-05T15:53:02.571Z</time>
      </trkpt>
      <trkpt lat="43.191" lon="2.98335">
        <ele>56.980403</ele>
        <time>2023-01-05T15:53:06.553Z</time>
      </trkpt>
      <trkpt lat="43.19094" lon="2.98343">
        <ele>57.201506</ele>
        <time>2023-01-05T15:53:10.562Z</time>
      </trkpt>
      <trkpt lat="43.19087" lon="2.98352">
        <ele>57.421451</ele>
        <time>2023-01-05T15:53:14.565Z</time>
      </trkpt>
      <trkpt lat="43.1908" lon="2.9836">
        <ele>57.639619</ele>
        <time>2023-01-05T15:53:18.558Z</time>
      </trkpt>
      <trkpt lat="43.19071" lon="2.9837">
        <ele>57.906599</ele>
        <time>2023-01-05T15:53:23.552Z</time>
      </trkpt>
      <trkpt lat="43.19065" lon="2.98378">
        <ele>58.123115</ele>
        <time>2023-01-05T15:53:27.551Z</time>
      </trkpt>
      <trkpt lat="43.19058" lon="2.98387">
        <ele>58.341284</ele>
        <time>2023-01-05T15:53:31.553Z</time>
      </trkpt>
      <trkpt lat="43.19051" lon="2.98394">
        <ele>58.557067</ele>
        <time>2023-01-05T15:53:35.551Z</time>
      </trkpt>
      <trkpt lat="43.19043" lon="2.98402">
        <ele>58.777675</ele>
        <time>2023-01-05T15:53:39.557Z</time>
      </trkpt>
      <trkpt lat="43.19035" lon="2.98413">
        <ele>59.039258</ele>
        <time>2023-01-05T15:53:44.564Z</time>
      </trkpt>
      <trkpt lat="43.19028" lon="2.98423">
        <ele>59.293796</ele>
        <time>2023-01-05T15:53:49.552Z</time>
      </trkpt>
      <trkpt lat="43.1902" lon="2.98433">
        <ele>59.553879</ele>
        <time>2023-01-05T15:53:54.554Z</time>
      </trkpt>
      <trkpt lat="43.19012" lon="2.98444">
        <ele>59.819581</ele>
        <time>2023-01-05T15:54:00.552Z</time>
      </trkpt>
      <trkpt lat="43.19005" lon="2.98452">
        <ele>60.037161</ele>
        <time>2023-01-05T15:54:04.552Z</time>
      </trkpt>
      <trkpt lat="43.18998" lon="2.98462">
        <ele>60.268562</ele>
        <time>2023-01-05T15:54:08.552Z</time>
      </trkpt>
      <trkpt lat="43.18991" lon="2.9847">
        <ele>60.497219</ele>
        <time>2023-01-05T15:54:13.570Z</time>
      </trkpt>
      <trkpt lat="43.18984" lon="2.98478">
        <ele>60.714873</ele>
        <time>2023-01-05T15:54:18.550Z</time>
      </trkpt>
      <trkpt lat="43.18977" lon="2.98487">
        <ele>60.896535</ele>
        <time>2023-01-05T15:54:22.551Z</time>
      </trkpt>
      <trkpt lat="43.18965" lon="2.98488">
        <ele>60.896535</ele>
        <time>2023-01-05T15:54:26.557Z</time>
      </trkpt>
      <trkpt lat="43.18955" lon="2.98491">
        <ele>60.896535</ele>
        <time>2023-01-05T15:54:29.552Z</time>
      </trkpt>
      <trkpt lat="43.18947" lon="2.985">
        <ele>60.896535</ele>
        <time>2023-01-05T15:54:32.554Z</time>
      </trkpt>
      <trkpt lat="43.18944" lon="2.98513">
        <ele>60.896535</ele>
        <time>2023-01-05T15:54:35.570Z</time>
      </trkpt>
      <trkpt lat="43.18947" lon="2.98527">
        <ele>60.896535</ele>
        <time>2023-01-05T15:54:38.553Z</time>
      </trkpt>
      <trkpt lat="43.18949" lon="2.9854">
        <ele>60.896535</ele>
        <time>2023-01-05T15:54:41.552Z</time>
      </trkpt>
      <trkpt lat="43.18947" lon="2.98555">
        <ele>60.896535</ele>
        <time>2023-01-05T15:54:44.572Z</time>
      </trkpt>
      <trkpt lat="43.18941" lon="2.98569">
        <ele>60.896535</ele>
        <time>2023-01-05T15:54:47.548Z</time>
      </trkpt>
      <trkpt lat="43.18933" lon="2.98584">
        <ele>60.896535</ele>
        <time>2023-01-05T15:54:50.553Z</time>
      </trkpt>
      <trkpt lat="43.18925" lon="2.98598">
        <ele>60.896535</ele>
        <time>2023-01-05T15:54:53.561Z</time>
      </trkpt>
      <trkpt lat="43.18919" lon="2.98609">
        <ele>60.896535</ele>
        <time>2023-01-05T15:54:55.555Z</time>
      </trkpt>
      <trkpt lat="43.18914" lon="2.98619">
        <ele>60.896535</ele>
        <time>2023-01-05T15:54:57.549Z</time>
      </trkpt>
      <trkpt lat="43.18906" lon="2.98633">
        <ele>60.896535</ele>
        <time>2023-01-05T15:55:00.561Z</time>
      </trkpt>
      <trkpt lat="43.189" lon="2.98642">
        <ele>60.896535</ele>
        <time>2023-01-05T15:55:02.569Z</time>
      </trkpt>
      <trkpt lat="43.18892" lon="2.98654">
        <ele>60.896535</ele>
        <time>2023-01-05T15:55:05.559Z</time>
      </trkpt>
      <trkpt lat="43.18887" lon="2.98661">
        <ele>60.896535</ele>
        <time>2023-01-05T15:55:44.038Z</time>
      </trkpt>
      <trkpt lat="43.18819" lon="2.987">
        <ele>60.896535</ele>
        <time>2023-01-05T15:58:03.791Z</time>
        <extensions>
          <visugpx:TrkExtension xmlns:visugpx="https://www.visugpx.com/editgpx/">
            <visugpx:node>1</visugpx:node>
            </visugpx:TrkExtension>
        </extensions>
      </trkpt>
    </trkseg>
  </trk>
</gpx>